<?xml version='1.0' encoding='UTF-8'?><gpx version="1.1" creator="JPX - https://github.com/jenetics/jpx" xmlns="http://www.topografix.com/GPX/1/1"><trk><trkseg><trkpt lat="40.79692298469309" lon="9.541839214795953"><ele>100.99999999999999</ele><time>2026-03-21T10:47:15Z</time></trkpt><trkpt lat="40.79685636365727" lon="9.541849078106702"><ele>101.0</ele><time>2026-03-21T10:47:42Z</time></trkpt><trkpt lat="40.79681163125362" lon="9.541920343366074"><ele>101.0</ele><time>2026-03-21T10:47:45Z</time></trkpt><trkpt lat="40.79681104544546" lon="9.542012397950534"><ele>101.0</ele><time>2026-03-21T10:48:22Z</time></trkpt><trkpt lat="40.796715517513775" lon="9.542044382995675"><ele>100.99999999999999</ele><time>2026-03-21T10:48:25Z</time></trkpt><trkpt lat="40.7966118392821" lon="9.542064809483742"><ele>101.0</ele><time>2026-03-21T10:48:27Z</time></trkpt><trkpt lat="40.79648630444465" lon="9.542114952813872"><ele>102.16666666666666</ele><time>2026-03-21T10:48:29Z</time></trkpt><trkpt lat="40.79641287877062" lon="9.542124026510294"><ele>103.33333333333333</ele><time>2026-03-21T10:48:30Z</time></trkpt><trkpt lat="40.79633644163055" lon="9.542132047582024"><ele>104.5</ele><time>2026-03-21T10:48:31Z</time></trkpt><trkpt lat="40.79625691674177" lon="9.542161052528295"><ele>105.66666666666666</ele><time>2026-03-21T10:48:33Z</time></trkpt><trkpt lat="40.79615175823888" lon="9.542214775203714"><ele>106.83333333333333</ele><time>2026-03-21T10:48:35Z</time></trkpt><trkpt lat="40.7960851644224" lon="9.54224613805586"><ele>108.0</ele><time>2026-03-21T10:48:36Z</time></trkpt><trkpt lat="40.79599972141514" lon="9.54226415731775"><ele>108.16666666666667</ele><time>2026-03-21T10:48:37Z</time></trkpt><trkpt lat="40.795919191566504" lon="9.542293362097706"><ele>108.33333333333334</ele><time>2026-03-21T10:48:38Z</time></trkpt><trkpt lat="40.795866911575956" lon="9.542346639139293"><ele>108.5</ele><time>2026-03-21T10:48:40Z</time></trkpt><trkpt lat="40.795829116985324" lon="9.542426705722386"><ele>108.66666666666667</ele><time>2026-03-21T10:48:42Z</time></trkpt><trkpt lat="40.79575321389702" lon="9.542481482258115"><ele>108.83333333333334</ele><time>2026-03-21T10:48:45Z</time></trkpt><trkpt lat="40.79563612472489" lon="9.54254523171645"><ele>109.0</ele><time>2026-03-21T10:48:47Z</time></trkpt><trkpt lat="40.795564672055036" lon="9.542565131821512"><ele>109.0</ele><time>2026-03-21T10:48:48Z</time></trkpt><trkpt lat="40.79546245240267" lon="9.542571796674611"><ele>109.0</ele><time>2026-03-21T10:48:49Z</time></trkpt><trkpt lat="40.795357138368495" lon="9.542615585351422"><ele>109.0</ele><time>2026-03-21T10:48:50Z</time></trkpt><trkpt lat="40.795253886212826" lon="9.54262001925646"><ele>109.0</ele><time>2026-03-21T10:48:51Z</time></trkpt><trkpt lat="40.7951538223572" lon="9.542659996123472"><ele>109.0</ele><time>2026-03-21T10:48:52Z</time></trkpt><trkpt lat="40.795070107479596" lon="9.542680204182984"><ele>108.66666666666667</ele><time>2026-03-21T10:48:53Z</time></trkpt><trkpt lat="40.79498838119477" lon="9.54270133892689"><ele>108.33333333333334</ele><time>2026-03-21T10:48:54Z</time></trkpt><trkpt lat="40.794909542468474" lon="9.542725894221936"><ele>108.0</ele><time>2026-03-21T10:48:55Z</time></trkpt><trkpt lat="40.79481808009741" lon="9.542733589299862"><ele>107.66666666666666</ele><time>2026-03-21T10:48:56Z</time></trkpt><trkpt lat="40.79470981537737" lon="9.54277457063882"><ele>107.33333333333333</ele><time>2026-03-21T10:48:58Z</time></trkpt><trkpt lat="40.79464260404035" lon="9.542817897093421"><ele>107.0</ele><time>2026-03-21T10:48:59Z</time></trkpt><trkpt lat="40.79459375256359" lon="9.542874797356225"><ele>107.33333333333333</ele><time>2026-03-21T10:49:00Z</time></trkpt><trkpt lat="40.79451661578509" lon="9.542922679566834"><ele>107.66666666666666</ele><time>2026-03-21T10:49:02Z</time></trkpt><trkpt lat="40.79446131573273" lon="9.542969614568062"><ele>108.0</ele><time>2026-03-21T10:49:03Z</time></trkpt><trkpt lat="40.794391719942375" lon="9.543013958503934"><ele>108.33333333333334</ele><time>2026-03-21T10:49:04Z</time></trkpt><trkpt lat="40.794321095782216" lon="9.54307881657694"><ele>108.66666666666667</ele><time>2026-03-21T10:49:05Z</time></trkpt><trkpt lat="40.794259623423336" lon="9.543120041757623"><ele>109.0</ele><time>2026-03-21T10:49:06Z</time></trkpt><trkpt lat="40.79419569286208" lon="9.54317596963201"><ele>109.00000000000001</ele><time>2026-03-21T10:49:07Z</time></trkpt><trkpt lat="40.794138998964385" lon="9.543235343629412"><ele>109.0</ele><time>2026-03-21T10:49:08Z</time></trkpt><trkpt lat="40.79408343525726" lon="9.54329707807616"><ele>109.0</ele><time>2026-03-21T10:49:09Z</time></trkpt><trkpt lat="40.79398362613599" lon="9.543397735756725"><ele>109.0</ele><time>2026-03-21T10:49:12Z</time></trkpt><trkpt lat="40.793926048989675" lon="9.543437984721566"><ele>109.00000000000001</ele><time>2026-03-21T10:49:13Z</time></trkpt><trkpt lat="40.793857600073906" lon="9.54348731780163"><ele>109.0</ele><time>2026-03-21T10:49:14Z</time></trkpt><trkpt lat="40.793787715266625" lon="9.5435473665604"><ele>109.0</ele><time>2026-03-21T10:49:15Z</time></trkpt><trkpt lat="40.79373044710417" lon="9.543603634553886"><ele>109.0</ele><time>2026-03-21T10:49:16Z</time></trkpt><trkpt lat="40.79360614186335" lon="9.54366923836998"><ele>109.0</ele><time>2026-03-21T10:49:18Z</time></trkpt><trkpt lat="40.793506129129874" lon="9.543742338633349"><ele>109.0</ele><time>2026-03-21T10:49:20Z</time></trkpt><trkpt lat="40.793456220708435" lon="9.543811832830967"><ele>109.0</ele><time>2026-03-21T10:49:21Z</time></trkpt><trkpt lat="40.79340179896982" lon="9.54390732793168"><ele>109.00000000000001</ele><time>2026-03-21T10:49:22Z</time></trkpt><trkpt lat="40.79333890255912" lon="9.543991364382011"><ele>109.0</ele><time>2026-03-21T10:49:23Z</time></trkpt><trkpt lat="40.79326351468895" lon="9.544064002837167"><ele>109.0</ele><time>2026-03-21T10:49:24Z</time></trkpt><trkpt lat="40.793191630207026" lon="9.544144813469629"><ele>109.0</ele><time>2026-03-21T10:49:25Z</time></trkpt><trkpt lat="40.79313602058934" lon="9.544223736925025"><ele>109.00000000000001</ele><time>2026-03-21T10:49:26Z</time></trkpt><trkpt lat="40.79309752920319" lon="9.544299468287578"><ele>109.0</ele><time>2026-03-21T10:49:27Z</time></trkpt><trkpt lat="40.7930529625786" lon="9.544370548615772"><ele>109.00000000000001</ele><time>2026-03-21T10:49:28Z</time></trkpt><trkpt lat="40.793009795094164" lon="9.544432298003564"><ele>109.0</ele><time>2026-03-21T10:49:29Z</time></trkpt><trkpt lat="40.79294085286292" lon="9.544552374572728"><ele>109.0</ele><time>2026-03-21T10:49:31Z</time></trkpt><trkpt lat="40.792854322774275" lon="9.544646141983762"><ele>109.0</ele><time>2026-03-21T10:49:33Z</time></trkpt><trkpt lat="40.792798795036774" lon="9.544698451417363"><ele>109.00000000000001</ele><time>2026-03-21T10:49:34Z</time></trkpt><trkpt lat="40.792737544188554" lon="9.54477245086188"><ele>109.0</ele><time>2026-03-21T10:49:35Z</time></trkpt><trkpt lat="40.79267641529499" lon="9.544880310520714"><ele>109.0</ele><time>2026-03-21T10:49:36Z</time></trkpt><trkpt lat="40.79260722509009" lon="9.545007750335852"><ele>109.0</ele><time>2026-03-21T10:49:37Z</time></trkpt><trkpt lat="40.79254477001665" lon="9.545137708220745"><ele>109.0</ele><time>2026-03-21T10:49:38Z</time></trkpt><trkpt lat="40.79246889423799" lon="9.54523408613411"><ele>109.0</ele><time>2026-03-21T10:49:39Z</time></trkpt><trkpt lat="40.792395976977026" lon="9.545313756930137"><ele>109.0</ele><time>2026-03-21T10:49:40Z</time></trkpt><trkpt lat="40.79233241678916" lon="9.545400075115781"><ele>111.2</ele><time>2026-03-21T10:49:41Z</time></trkpt><trkpt lat="40.79227583395303" lon="9.545483453061484"><ele>113.4</ele><time>2026-03-21T10:49:42Z</time></trkpt><trkpt lat="40.79222302811917" lon="9.54554564885163"><ele>115.6</ele><time>2026-03-21T10:49:43Z</time></trkpt><trkpt lat="40.79216124978997" lon="9.545617193435936"><ele>117.8</ele><time>2026-03-21T10:49:44Z</time></trkpt><trkpt lat="40.792136008310614" lon="9.545784030969331"><ele>120.0</ele><time>2026-03-21T10:49:46Z</time></trkpt><trkpt lat="40.79213125696084" lon="9.545897205326389"><ele>120.0</ele><time>2026-03-21T10:49:47Z</time></trkpt><trkpt lat="40.79208965496272" lon="9.546016562211523"><ele>120.0</ele><time>2026-03-21T10:49:48Z</time></trkpt><trkpt lat="40.79202920552779" lon="9.546135073662407"><ele>120.0</ele><time>2026-03-21T10:49:49Z</time></trkpt><trkpt lat="40.79197764188839" lon="9.54621430345457"><ele>120.0</ele><time>2026-03-21T10:49:50Z</time></trkpt><trkpt lat="40.79193002499542" lon="9.546283257405122"><ele>120.0</ele><time>2026-03-21T10:49:51Z</time></trkpt><trkpt lat="40.79189182906457" lon="9.546370782569376"><ele>120.0</ele><time>2026-03-21T10:49:52Z</time></trkpt><trkpt lat="40.791880595086916" lon="9.54648399262715"><ele>118.83333333333333</ele><time>2026-03-21T10:49:53Z</time></trkpt><trkpt lat="40.79187115887925" lon="9.54657099379325"><ele>117.66666666666666</ele><time>2026-03-21T10:49:54Z</time></trkpt><trkpt lat="40.79183402552345" lon="9.54664264217804"><ele>116.5</ele><time>2026-03-21T10:49:55Z</time></trkpt><trkpt lat="40.79172426823267" lon="9.546733246696512"><ele>115.33333333333333</ele><time>2026-03-21T10:49:57Z</time></trkpt><trkpt lat="40.79166137786856" lon="9.546780239124557"><ele>114.16666666666666</ele><time>2026-03-21T10:49:58Z</time></trkpt><trkpt lat="40.79159735292499" lon="9.546844961192226"><ele>113.0</ele><time>2026-03-21T10:49:59Z</time></trkpt><trkpt lat="40.791561383253914" lon="9.54691412839921"><ele>113.0</ele><time>2026-03-21T10:50:00Z</time></trkpt><trkpt lat="40.79149897157577" lon="9.547031287409226"><ele>113.00000000000001</ele><time>2026-03-21T10:50:02Z</time></trkpt><trkpt lat="40.79141439925525" lon="9.547083565837072"><ele>113.00000000000001</ele><time>2026-03-21T10:50:04Z</time></trkpt><trkpt lat="40.79132063972915" lon="9.547045584382477"><ele>113.0</ele><time>2026-03-21T10:50:08Z</time></trkpt><trkpt lat="40.79119860050479" lon="9.547051458620281"><ele>113.0</ele><time>2026-03-21T10:50:10Z</time></trkpt><trkpt lat="40.791121632777845" lon="9.547063470710922"><ele>112.49999999999999</ele><time>2026-03-21T10:50:11Z</time></trkpt><trkpt lat="40.791048039781366" lon="9.547058968448141"><ele>112.0</ele><time>2026-03-21T10:50:12Z</time></trkpt><trkpt lat="40.790949632968" lon="9.547063221006965"><ele>111.5</ele><time>2026-03-21T10:50:13Z</time></trkpt><trkpt lat="40.790867119870896" lon="9.547025045029566"><ele>111.0</ele><time>2026-03-21T10:50:14Z</time></trkpt><trkpt lat="40.7907859538541" lon="9.547009580764891"><ele>110.49999999999999</ele><time>2026-03-21T10:50:15Z</time></trkpt><trkpt lat="40.790699258740446" lon="9.547013714500439"><ele>110.0</ele><time>2026-03-21T10:50:16Z</time></trkpt><trkpt lat="40.79061647889112" lon="9.547038376329242"><ele>110.0</ele><time>2026-03-21T10:50:17Z</time></trkpt><trkpt lat="40.7905306819098" lon="9.547117271928597"><ele>110.0</ele><time>2026-03-21T10:50:18Z</time></trkpt><trkpt lat="40.79044902096195" lon="9.547149231551302"><ele>110.0</ele><time>2026-03-21T10:50:19Z</time></trkpt><trkpt lat="40.79037025280273" lon="9.547107002596931"><ele>110.0</ele><time>2026-03-21T10:50:20Z</time></trkpt><trkpt lat="40.79029165153547" lon="9.547158386513756"><ele>110.0</ele><time>2026-03-21T10:50:21Z</time></trkpt><trkpt lat="40.79020214330277" lon="9.547192266622979"><ele>109.49999999999999</ele><time>2026-03-21T10:50:22Z</time></trkpt><trkpt lat="40.79012287728004" lon="9.547193202304854"><ele>109.0</ele><time>2026-03-21T10:50:23Z</time></trkpt><trkpt lat="40.79004046851167" lon="9.547199017438702"><ele>108.5</ele><time>2026-03-21T10:50:24Z</time></trkpt><trkpt lat="40.7899657313805" lon="9.547208066640778"><ele>108.0</ele><time>2026-03-21T10:50:25Z</time></trkpt><trkpt lat="40.7898816324196" lon="9.547234660806753"><ele>107.49999999999999</ele><time>2026-03-21T10:50:26Z</time></trkpt><trkpt lat="40.789781813794086" lon="9.547295398567325"><ele>107.0</ele><time>2026-03-21T10:50:27Z</time></trkpt><trkpt lat="40.78969147703414" lon="9.547337376031903"><ele>106.99999999999999</ele><time>2026-03-21T10:50:28Z</time></trkpt><trkpt lat="40.789605246398025" lon="9.547378231255669"><ele>107.0</ele><time>2026-03-21T10:50:29Z</time></trkpt><trkpt lat="40.78954621108287" lon="9.547410652254511"><ele>107.0</ele><time>2026-03-21T10:50:30Z</time></trkpt><trkpt lat="40.7894366361254" lon="9.547497760919834"><ele>107.0</ele><time>2026-03-21T10:50:32Z</time></trkpt><trkpt lat="40.789382862097774" lon="9.547565369926037"><ele>106.99999999999999</ele><time>2026-03-21T10:50:33Z</time></trkpt><trkpt lat="40.78931872773383" lon="9.54764282367489"><ele>107.0</ele><time>2026-03-21T10:50:34Z</time></trkpt><trkpt lat="40.789248631565" lon="9.547688691529856"><ele>107.0</ele><time>2026-03-21T10:50:35Z</time></trkpt><trkpt lat="40.789142636017814" lon="9.547715722406203"><ele>106.99999999999999</ele><time>2026-03-21T10:50:36Z</time></trkpt><trkpt lat="40.78902321737647" lon="9.547737775791454"><ele>106.99999999999999</ele><time>2026-03-21T10:50:37Z</time></trkpt><trkpt lat="40.788935308246515" lon="9.547719183591372"><ele>107.0</ele><time>2026-03-21T10:50:38Z</time></trkpt><trkpt lat="40.78886630531237" lon="9.547694994273785"><ele>107.0</ele><time>2026-03-21T10:50:39Z</time></trkpt><trkpt lat="40.78877854989347" lon="9.547687690523674"><ele>107.0</ele><time>2026-03-21T10:50:41Z</time></trkpt><trkpt lat="40.78870971659834" lon="9.547774261453522"><ele>106.99999999999999</ele><time>2026-03-21T10:50:42Z</time></trkpt><trkpt lat="40.78865758944389" lon="9.547878798446648"><ele>106.99999999999999</ele><time>2026-03-21T10:50:43Z</time></trkpt><trkpt lat="40.788605646101615" lon="9.5479881591087"><ele>107.0</ele><time>2026-03-21T10:50:44Z</time></trkpt><trkpt lat="40.788560644370385" lon="9.548077992222764"><ele>107.0</ele><time>2026-03-21T10:50:45Z</time></trkpt><trkpt lat="40.78850557717708" lon="9.548175524846268"><ele>107.5</ele><time>2026-03-21T10:50:46Z</time></trkpt><trkpt lat="40.78844749708313" lon="9.548275639441119"><ele>108.0</ele><time>2026-03-21T10:50:47Z</time></trkpt><trkpt lat="40.78837479933363" lon="9.548400951010313"><ele>108.5</ele><time>2026-03-21T10:50:48Z</time></trkpt><trkpt lat="40.78830190909744" lon="9.548526728057334"><ele>109.0</ele><time>2026-03-21T10:50:49Z</time></trkpt><trkpt lat="40.78823412211828" lon="9.548648972933602"><ele>109.5</ele><time>2026-03-21T10:50:50Z</time></trkpt><trkpt lat="40.788164160081756" lon="9.54878011820988"><ele>110.0</ele><time>2026-03-21T10:50:51Z</time></trkpt><trkpt lat="40.788094184406" lon="9.548924243629742"><ele>110.5</ele><time>2026-03-21T10:50:52Z</time></trkpt><trkpt lat="40.788018676853355" lon="9.549060940273767"><ele>111.0</ele><time>2026-03-21T10:50:53Z</time></trkpt><trkpt lat="40.787953712315215" lon="9.549181534043456"><ele>111.0</ele><time>2026-03-21T10:50:54Z</time></trkpt><trkpt lat="40.78789252033016" lon="9.549293738790336"><ele>111.0</ele><time>2026-03-21T10:50:55Z</time></trkpt><trkpt lat="40.78782677585404" lon="9.549402495081955"><ele>111.0</ele><time>2026-03-21T10:50:56Z</time></trkpt><trkpt lat="40.78774189788311" lon="9.549537759147121"><ele>111.0</ele><time>2026-03-21T10:50:57Z</time></trkpt><trkpt lat="40.787659864344384" lon="9.54966541258867"><ele>111.25</ele><time>2026-03-21T10:50:58Z</time></trkpt><trkpt lat="40.7875902453345" lon="9.549775842255436"><ele>111.5</ele><time>2026-03-21T10:50:59Z</time></trkpt><trkpt lat="40.78751602688123" lon="9.549896468471461"><ele>111.75</ele><time>2026-03-21T10:51:00Z</time></trkpt><trkpt lat="40.787448612788666" lon="9.550012301140486"><ele>112.0</ele><time>2026-03-21T10:51:01Z</time></trkpt><trkpt lat="40.787379053110214" lon="9.550134849956553"><ele>112.0</ele><time>2026-03-21T10:51:02Z</time></trkpt><trkpt lat="40.78730709262113" lon="9.55026333486725"><ele>112.0</ele><time>2026-03-21T10:51:03Z</time></trkpt><trkpt lat="40.78723234406046" lon="9.55039789713863"><ele>112.0</ele><time>2026-03-21T10:51:04Z</time></trkpt><trkpt lat="40.78715326072282" lon="9.5505431751936"><ele>112.0</ele><time>2026-03-21T10:51:05Z</time></trkpt><trkpt lat="40.78707531456052" lon="9.550690555907881"><ele>112.5</ele><time>2026-03-21T10:51:06Z</time></trkpt><trkpt lat="40.78701299651201" lon="9.55084727421156"><ele>113.0</ele><time>2026-03-21T10:51:07Z</time></trkpt><trkpt lat="40.786940347606304" lon="9.550983316377733"><ele>113.5</ele><time>2026-03-21T10:51:08Z</time></trkpt><trkpt lat="40.78686596429378" lon="9.551111565854013"><ele>114.0</ele><time>2026-03-21T10:51:09Z</time></trkpt><trkpt lat="40.78679587631799" lon="9.551245016868737"><ele>115.0</ele><time>2026-03-21T10:51:10Z</time></trkpt><trkpt lat="40.78673292264218" lon="9.551371695173211"><ele>116.0</ele><time>2026-03-21T10:51:11Z</time></trkpt><trkpt lat="40.78666275103727" lon="9.551495604909153"><ele>117.0</ele><time>2026-03-21T10:51:12Z</time></trkpt><trkpt lat="40.7865851475017" lon="9.551608609311948"><ele>118.0</ele><time>2026-03-21T10:51:13Z</time></trkpt><trkpt lat="40.78652811181679" lon="9.551736478738535"><ele>118.0</ele><time>2026-03-21T10:51:14Z</time></trkpt><trkpt lat="40.7864615202249" lon="9.551839623454708"><ele>118.00000000000001</ele><time>2026-03-21T10:51:15Z</time></trkpt><trkpt lat="40.78638050236678" lon="9.551922770693913"><ele>118.00000000000001</ele><time>2026-03-21T10:51:16Z</time></trkpt><trkpt lat="40.78631012886417" lon="9.55201563428287"><ele>118.0</ele><time>2026-03-21T10:51:17Z</time></trkpt><trkpt lat="40.78625711849441" lon="9.552077484788848"><ele>118.0</ele><time>2026-03-21T10:51:18Z</time></trkpt><trkpt lat="40.786199312098" lon="9.552146017894675"><ele>118.50000000000001</ele><time>2026-03-21T10:51:19Z</time></trkpt><trkpt lat="40.78613328465559" lon="9.552229226565563"><ele>119.0</ele><time>2026-03-21T10:51:20Z</time></trkpt><trkpt lat="40.786072373234845" lon="9.552295478159929"><ele>119.5</ele><time>2026-03-21T10:51:21Z</time></trkpt><trkpt lat="40.78601180422485" lon="9.552346279966192"><ele>120.0</ele><time>2026-03-21T10:51:22Z</time></trkpt><trkpt lat="40.78595686017871" lon="9.552404016788497"><ele>120.50000000000001</ele><time>2026-03-21T10:51:23Z</time></trkpt><trkpt lat="40.78589087776622" lon="9.552426262406925"><ele>121.0</ele><time>2026-03-21T10:51:25Z</time></trkpt><trkpt lat="40.78577837157277" lon="9.552346090438906"><ele>121.5</ele><time>2026-03-21T10:51:27Z</time></trkpt><trkpt lat="40.785737826710175" lon="9.55224353949376"><ele>122.0</ele><time>2026-03-21T10:51:28Z</time></trkpt><trkpt lat="40.78568797230808" lon="9.55211743962695"><ele>122.5</ele><time>2026-03-21T10:51:29Z</time></trkpt><trkpt lat="40.785643114106435" lon="9.551956499479205"><ele>123.0</ele><time>2026-03-21T10:51:30Z</time></trkpt><trkpt lat="40.785580333994936" lon="9.551792674989814"><ele>123.0</ele><time>2026-03-21T10:51:31Z</time></trkpt><trkpt lat="40.78553328961682" lon="9.551644375365825"><ele>123.0</ele><time>2026-03-21T10:51:32Z</time></trkpt><trkpt lat="40.78550014704442" lon="9.551500688268568"><ele>123.0</ele><time>2026-03-21T10:51:33Z</time></trkpt><trkpt lat="40.78546319720214" lon="9.551368948113623"><ele>123.0</ele><time>2026-03-21T10:51:34Z</time></trkpt><trkpt lat="40.785427645548" lon="9.551229649035983"><ele>122.75</ele><time>2026-03-21T10:51:35Z</time></trkpt><trkpt lat="40.785406784926444" lon="9.551068101490639"><ele>122.5</ele><time>2026-03-21T10:51:36Z</time></trkpt><trkpt lat="40.78539660093469" lon="9.550905060594859"><ele>122.25</ele><time>2026-03-21T10:51:37Z</time></trkpt><trkpt lat="40.78537580943974" lon="9.55073286675598"><ele>122.0</ele><time>2026-03-21T10:51:38Z</time></trkpt><trkpt lat="40.785356119729656" lon="9.55054134631556"><ele>121.5</ele><time>2026-03-21T10:51:39Z</time></trkpt><trkpt lat="40.78532990118082" lon="9.550363279761303"><ele>121.0</ele><time>2026-03-21T10:51:40Z</time></trkpt><trkpt lat="40.78532807636158" lon="9.550211753393466"><ele>120.5</ele><time>2026-03-21T10:51:41Z</time></trkpt><trkpt lat="40.785319145692235" lon="9.550068807288042"><ele>120.0</ele><time>2026-03-21T10:51:42Z</time></trkpt><trkpt lat="40.78531388081929" lon="9.549940633045603"><ele>120.0</ele><time>2026-03-21T10:51:43Z</time></trkpt><trkpt lat="40.785308499567684" lon="9.54981442335841"><ele>120.0</ele><time>2026-03-21T10:51:44Z</time></trkpt><trkpt lat="40.78530297979204" lon="9.549684961049694"><ele>120.0</ele><time>2026-03-21T10:51:45Z</time></trkpt><trkpt lat="40.78530223368368" lon="9.54953980630994"><ele>120.0</ele><time>2026-03-21T10:51:46Z</time></trkpt><trkpt lat="40.78529487974407" lon="9.549389425290443"><ele>120.0</ele><time>2026-03-21T10:51:47Z</time></trkpt><trkpt lat="40.78530228762213" lon="9.54923369657595"><ele>119.66666666666667</ele><time>2026-03-21T10:51:48Z</time></trkpt><trkpt lat="40.78528255128477" lon="9.54909262429165"><ele>119.33333333333334</ele><time>2026-03-21T10:51:49Z</time></trkpt><trkpt lat="40.785284814070934" lon="9.548985804723522"><ele>119.0</ele><time>2026-03-21T10:51:50Z</time></trkpt><trkpt lat="40.78530081050118" lon="9.548898142978434"><ele>118.66666666666667</ele><time>2026-03-21T10:51:51Z</time></trkpt><trkpt lat="40.78529714949836" lon="9.548814228301234"><ele>118.33333333333334</ele><time>2026-03-21T10:51:52Z</time></trkpt><trkpt lat="40.785262001463224" lon="9.548734945094894"><ele>118.0</ele><time>2026-03-21T10:51:53Z</time></trkpt><trkpt lat="40.785200196708786" lon="9.548663320662241"><ele>117.80000000000001</ele><time>2026-03-21T10:51:54Z</time></trkpt><trkpt lat="40.7851253609434" lon="9.548582382457198"><ele>117.60000000000001</ele><time>2026-03-21T10:51:55Z</time></trkpt><trkpt lat="40.7850430685334" lon="9.54847834873882"><ele>117.39999999999999</ele><time>2026-03-21T10:51:56Z</time></trkpt><trkpt lat="40.784968132308784" lon="9.548372157571876"><ele>117.19999999999999</ele><time>2026-03-21T10:51:57Z</time></trkpt><trkpt lat="40.78488665910241" lon="9.548255430747446"><ele>117.0</ele><time>2026-03-21T10:51:58Z</time></trkpt><trkpt lat="40.784802301345714" lon="9.548124075271122"><ele>117.0</ele><time>2026-03-21T10:51:59Z</time></trkpt><trkpt lat="40.78471490024713" lon="9.548018317841818"><ele>116.99999999999999</ele><time>2026-03-21T10:52:00Z</time></trkpt><trkpt lat="40.78463198089459" lon="9.547920757335183"><ele>116.99999999999999</ele><time>2026-03-21T10:52:01Z</time></trkpt><trkpt lat="40.78456908628488" lon="9.5478360773157"><ele>117.0</ele><time>2026-03-21T10:52:02Z</time></trkpt><trkpt lat="40.78448864343174" lon="9.5477631363648"><ele>117.0</ele><time>2026-03-21T10:52:03Z</time></trkpt><trkpt lat="40.78440244830327" lon="9.547714720657854"><ele>116.8</ele><time>2026-03-21T10:52:04Z</time></trkpt><trkpt lat="40.78430724067281" lon="9.547719579168366"><ele>116.6</ele><time>2026-03-21T10:52:05Z</time></trkpt><trkpt lat="40.78424388655268" lon="9.547707067230753"><ele>116.39999999999999</ele><time>2026-03-21T10:52:06Z</time></trkpt><trkpt lat="40.784132364486574" lon="9.547654414530811"><ele>116.19999999999999</ele><time>2026-03-21T10:52:07Z</time></trkpt><trkpt lat="40.784033005155436" lon="9.547589528731978"><ele>116.0</ele><time>2026-03-21T10:52:08Z</time></trkpt><trkpt lat="40.78391016626578" lon="9.547533896385733"><ele>116.0</ele><time>2026-03-21T10:52:09Z</time></trkpt><trkpt lat="40.78380475366037" lon="9.547441512271522"><ele>116.0</ele><time>2026-03-21T10:52:10Z</time></trkpt><trkpt lat="40.78373359173172" lon="9.547329717966733"><ele>116.0</ele><time>2026-03-21T10:52:11Z</time></trkpt><trkpt lat="40.78369629785319" lon="9.547214098637516"><ele>116.0</ele><time>2026-03-21T10:52:12Z</time></trkpt><trkpt lat="40.78364436930868" lon="9.54712012092925"><ele>116.0</ele><time>2026-03-21T10:52:13Z</time></trkpt><trkpt lat="40.78359803158531" lon="9.54700311365974"><ele>115.0</ele><time>2026-03-21T10:52:15Z</time></trkpt><trkpt lat="40.78377443906569" lon="9.546779123712822"><ele>114.0</ele><time>2026-03-21T10:52:19Z</time></trkpt><trkpt lat="40.78383451652251" lon="9.546702690308356"><ele>113.0</ele><time>2026-03-21T10:52:20Z</time></trkpt><trkpt lat="40.78391073660367" lon="9.546608991852708"><ele>112.0</ele><time>2026-03-21T10:52:21Z</time></trkpt><trkpt lat="40.784000459326116" lon="9.546502519398679"><ele>112.0</ele><time>2026-03-21T10:52:22Z</time></trkpt><trkpt lat="40.78408394876167" lon="9.546379401748778"><ele>112.0</ele><time>2026-03-21T10:52:23Z</time></trkpt><trkpt lat="40.78416833232382" lon="9.546264030719815"><ele>112.0</ele><time>2026-03-21T10:52:24Z</time></trkpt><trkpt lat="40.78425321544747" lon="9.546137769746052"><ele>112.0</ele><time>2026-03-21T10:52:25Z</time></trkpt><trkpt lat="40.78434324914444" lon="9.545991048755308"><ele>111.66666666666667</ele><time>2026-03-21T10:52:26Z</time></trkpt><trkpt lat="40.78444307184569" lon="9.545850689075705"><ele>111.33333333333334</ele><time>2026-03-21T10:52:27Z</time></trkpt><trkpt lat="40.78454600653721" lon="9.545707102845826"><ele>111.0</ele><time>2026-03-21T10:52:28Z</time></trkpt><trkpt lat="40.78465314314811" lon="9.545551092054842"><ele>111.0</ele><time>2026-03-21T10:52:29Z</time></trkpt><trkpt lat="40.78475023129544" lon="9.545409910466264"><ele>111.0</ele><time>2026-03-21T10:52:30Z</time></trkpt><trkpt lat="40.78482851438825" lon="9.54528682949045"><ele>111.0</ele><time>2026-03-21T10:52:31Z</time></trkpt><trkpt lat="40.78488921315272" lon="9.545185312272956"><ele>111.0</ele><time>2026-03-21T10:52:32Z</time></trkpt><trkpt lat="40.78493455139702" lon="9.545109721069892"><ele>111.0</ele><time>2026-03-21T10:52:33Z</time></trkpt><trkpt lat="40.784996758474286" lon="9.54505667707481"><ele>111.16666666666667</ele><time>2026-03-21T10:52:38Z</time></trkpt><trkpt lat="40.785045946379284" lon="9.544991766082408"><ele>111.33333333333334</ele><time>2026-03-21T10:52:43Z</time></trkpt><trkpt lat="40.78508833903191" lon="9.54486346658668"><ele>111.5</ele><time>2026-03-21T10:53:01Z</time></trkpt><trkpt lat="40.785138684806334" lon="9.544778487428928"><ele>111.66666666666667</ele><time>2026-03-21T10:53:05Z</time></trkpt><trkpt lat="40.78516639585413" lon="9.544681397986897"><ele>111.83333333333334</ele><time>2026-03-21T10:53:09Z</time></trkpt><trkpt lat="40.78517649715842" lon="9.544558887935432"><ele>112.0</ele><time>2026-03-21T10:53:42Z</time></trkpt><trkpt lat="40.78517444791103" lon="9.544386631110921"><ele>112.0</ele><time>2026-03-21T10:53:44Z</time></trkpt><trkpt lat="40.78518343110263" lon="9.544254793766706"><ele>111.99999999999999</ele><time>2026-03-21T10:53:45Z</time></trkpt><trkpt lat="40.78516819767678" lon="9.544111491518604"><ele>111.99999999999999</ele><time>2026-03-21T10:53:46Z</time></trkpt><trkpt lat="40.78517453464578" lon="9.543999885936305"><ele>112.0</ele><time>2026-03-21T10:53:47Z</time></trkpt><trkpt lat="40.78514074976655" lon="9.543874250686244"><ele>112.0</ele><time>2026-03-21T10:53:49Z</time></trkpt><trkpt lat="40.78504889569106" lon="9.54384058928594"><ele>112.0</ele><time>2026-03-21T10:53:51Z</time></trkpt><trkpt lat="40.78496074311527" lon="9.54382373076171"><ele>112.0</ele><time>2026-03-21T10:53:52Z</time></trkpt><trkpt lat="40.784830823456666" lon="9.543787515146127"><ele>112.0</ele><time>2026-03-21T10:53:53Z</time></trkpt><trkpt lat="40.78469056838337" lon="9.54372833331349"><ele>112.0</ele><time>2026-03-21T10:53:54Z</time></trkpt><trkpt lat="40.784553031224675" lon="9.543673934608332"><ele>112.0</ele><time>2026-03-21T10:53:55Z</time></trkpt><trkpt lat="40.784406124523514" lon="9.543666986168075"><ele>112.0</ele><time>2026-03-21T10:53:56Z</time></trkpt><trkpt lat="40.78425732036452" lon="9.543670130025777"><ele>112.0</ele><time>2026-03-21T10:53:57Z</time></trkpt><trkpt lat="40.784126908918104" lon="9.543664395954016"><ele>112.0</ele><time>2026-03-21T10:53:58Z</time></trkpt><trkpt lat="40.78400906741337" lon="9.543655616657096"><ele>112.0</ele><time>2026-03-21T10:53:59Z</time></trkpt><trkpt lat="40.78388561552763" lon="9.543663769257593"><ele>112.0</ele><time>2026-03-21T10:54:00Z</time></trkpt><trkpt lat="40.78375587794476" lon="9.543679920716025"><ele>112.0</ele><time>2026-03-21T10:54:01Z</time></trkpt><trkpt lat="40.78361552531828" lon="9.543710158740431"><ele>112.0</ele><time>2026-03-21T10:54:02Z</time></trkpt><trkpt lat="40.783487359054405" lon="9.543731772445105"><ele>112.19999999999999</ele><time>2026-03-21T10:54:03Z</time></trkpt><trkpt lat="40.78338232671437" lon="9.543733549488811"><ele>112.39999999999999</ele><time>2026-03-21T10:54:04Z</time></trkpt><trkpt lat="40.78327619740229" lon="9.543716452638245"><ele>112.60000000000001</ele><time>2026-03-21T10:54:05Z</time></trkpt><trkpt lat="40.783182855316625" lon="9.543703675246169"><ele>112.80000000000001</ele><time>2026-03-21T10:54:06Z</time></trkpt><trkpt lat="40.78309803622392" lon="9.543691562313905"><ele>113.0</ele><time>2026-03-21T10:54:07Z</time></trkpt><trkpt lat="40.78302450431951" lon="9.543693964129508"><ele>112.99999999999999</ele><time>2026-03-21T10:54:08Z</time></trkpt><trkpt lat="40.782940968649925" lon="9.543698661164797"><ele>113.0</ele><time>2026-03-21T10:54:09Z</time></trkpt><trkpt lat="40.78288018151074" lon="9.543672927564318"><ele>113.0</ele><time>2026-03-21T10:54:10Z</time></trkpt><trkpt lat="40.78281988723156" lon="9.543546520614626"><ele>113.0</ele><time>2026-03-21T10:54:12Z</time></trkpt><trkpt lat="40.782750998662294" lon="9.54351473509212"><ele>112.99999999999999</ele><time>2026-03-21T10:54:13Z</time></trkpt><trkpt lat="40.78265047719472" lon="9.543507082276061"><ele>113.0</ele><time>2026-03-21T10:54:14Z</time></trkpt><trkpt lat="40.782533652439305" lon="9.543524464881788"><ele>113.25</ele><time>2026-03-21T10:54:15Z</time></trkpt><trkpt lat="40.7823991802932" lon="9.543547014252988"><ele>113.5</ele><time>2026-03-21T10:54:16Z</time></trkpt><trkpt lat="40.782280296395285" lon="9.543551250802969"><ele>113.75</ele><time>2026-03-21T10:54:17Z</time></trkpt><trkpt lat="40.782185908561374" lon="9.543574039146495"><ele>114.0</ele><time>2026-03-21T10:54:18Z</time></trkpt><trkpt lat="40.78209956161714" lon="9.543665783861293"><ele>114.0</ele><time>2026-03-21T10:54:19Z</time></trkpt><trkpt lat="40.782015409013184" lon="9.543706051141351"><ele>114.0</ele><time>2026-03-21T10:54:20Z</time></trkpt><trkpt lat="40.78189634001037" lon="9.543672059631406"><ele>114.0</ele><time>2026-03-21T10:54:21Z</time></trkpt><trkpt lat="40.78174758415278" lon="9.543639925563818"><ele>114.0</ele><time>2026-03-21T10:54:22Z</time></trkpt><trkpt lat="40.78158641203591" lon="9.543619186747858"><ele>114.0</ele><time>2026-03-21T10:54:23Z</time></trkpt><trkpt lat="40.78141236951187" lon="9.543625680927049"><ele>114.0</ele><time>2026-03-21T10:54:24Z</time></trkpt><trkpt lat="40.78126308539956" lon="9.543633507057185"><ele>114.0</ele><time>2026-03-21T10:54:25Z</time></trkpt><trkpt lat="40.78112367252948" lon="9.543659026074858"><ele>114.0</ele><time>2026-03-21T10:54:26Z</time></trkpt><trkpt lat="40.78100089750428" lon="9.543666446466752"><ele>114.0</ele><time>2026-03-21T10:54:27Z</time></trkpt><trkpt lat="40.78087993194891" lon="9.543656321752051"><ele>114.0</ele><time>2026-03-21T10:54:28Z</time></trkpt><trkpt lat="40.780770372412015" lon="9.543631203265779"><ele>114.0</ele><time>2026-03-21T10:54:29Z</time></trkpt><trkpt lat="40.78066127544128" lon="9.54359634496251"><ele>114.0</ele><time>2026-03-21T10:54:30Z</time></trkpt><trkpt lat="40.780541882520666" lon="9.543544536441711"><ele>114.0</ele><time>2026-03-21T10:54:31Z</time></trkpt><trkpt lat="40.78043488605452" lon="9.543495345599073"><ele>114.0</ele><time>2026-03-21T10:54:32Z</time></trkpt><trkpt lat="40.78033453975631" lon="9.54347195480183"><ele>114.0</ele><time>2026-03-21T10:54:33Z</time></trkpt><trkpt lat="40.78024045196655" lon="9.543425645070942"><ele>114.0</ele><time>2026-03-21T10:54:34Z</time></trkpt><trkpt lat="40.780135198246825" lon="9.543368969989784"><ele>114.0</ele><time>2026-03-21T10:54:35Z</time></trkpt><trkpt lat="40.780016194886734" lon="9.54329887072565"><ele>114.0</ele><time>2026-03-21T10:54:36Z</time></trkpt><trkpt lat="40.77988215013767" lon="9.543245427576576"><ele>114.0</ele><time>2026-03-21T10:54:37Z</time></trkpt><trkpt lat="40.779740299783164" lon="9.543175070205777"><ele>114.0</ele><time>2026-03-21T10:54:38Z</time></trkpt><trkpt lat="40.77960454993309" lon="9.543100820269617"><ele>114.0</ele><time>2026-03-21T10:54:39Z</time></trkpt><trkpt lat="40.77947724956707" lon="9.543039316171713"><ele>114.0</ele><time>2026-03-21T10:54:40Z</time></trkpt><trkpt lat="40.779355957199854" lon="9.54297828074304"><ele>114.0</ele><time>2026-03-21T10:54:41Z</time></trkpt><trkpt lat="40.77925187238915" lon="9.542912816067723"><ele>114.0</ele><time>2026-03-21T10:54:42Z</time></trkpt><trkpt lat="40.77914201979565" lon="9.542860794840045"><ele>114.4</ele><time>2026-03-21T10:54:43Z</time></trkpt><trkpt lat="40.77903558321545" lon="9.542810510461107"><ele>114.80000000000001</ele><time>2026-03-21T10:54:44Z</time></trkpt><trkpt lat="40.77892787427167" lon="9.542753260582787"><ele>115.19999999999999</ele><time>2026-03-21T10:54:45Z</time></trkpt><trkpt lat="40.778827374155426" lon="9.542698155332582"><ele>115.6</ele><time>2026-03-21T10:54:46Z</time></trkpt><trkpt lat="40.77872278377503" lon="9.542649220333528"><ele>116.0</ele><time>2026-03-21T10:54:47Z</time></trkpt><trkpt lat="40.77862904545674" lon="9.542595968449975"><ele>116.0</ele><time>2026-03-21T10:54:48Z</time></trkpt><trkpt lat="40.77852847235977" lon="9.54255429204665"><ele>116.0</ele><time>2026-03-21T10:54:49Z</time></trkpt><trkpt lat="40.77843153812157" lon="9.5425120559419"><ele>116.0</ele><time>2026-03-21T10:54:50Z</time></trkpt><trkpt lat="40.77834736610863" lon="9.542466591442237"><ele>116.0</ele><time>2026-03-21T10:54:51Z</time></trkpt><trkpt lat="40.778266150203564" lon="9.54241098565078"><ele>116.0</ele><time>2026-03-21T10:54:52Z</time></trkpt><trkpt lat="40.77817620501378" lon="9.542362363668785"><ele>116.0</ele><time>2026-03-21T10:54:53Z</time></trkpt><trkpt lat="40.77807794857544" lon="9.542302602594393"><ele>116.0</ele><time>2026-03-21T10:54:54Z</time></trkpt><trkpt lat="40.77798569107288" lon="9.542264507999365"><ele>116.0</ele><time>2026-03-21T10:54:55Z</time></trkpt><trkpt lat="40.777927613660225" lon="9.542203917316426"><ele>116.0</ele><time>2026-03-21T10:54:56Z</time></trkpt><trkpt lat="40.777918004502865" lon="9.542042163981703"><ele>116.0</ele><time>2026-03-21T10:54:57Z</time></trkpt><trkpt lat="40.7779031662634" lon="9.541907807155024"><ele>117.5</ele><time>2026-03-21T10:54:58Z</time></trkpt><trkpt lat="40.777889598402886" lon="9.54177884106306"><ele>119.0</ele><time>2026-03-21T10:54:59Z</time></trkpt><trkpt lat="40.77786941034014" lon="9.541597510838166"><ele>120.5</ele><time>2026-03-21T10:55:00Z</time></trkpt><trkpt lat="40.77785260793192" lon="9.541414128269786"><ele>122.0</ele><time>2026-03-21T10:55:01Z</time></trkpt><trkpt lat="40.77784205549678" lon="9.541246584094468"><ele>123.0</ele><time>2026-03-21T10:55:02Z</time></trkpt><trkpt lat="40.7778308052138" lon="9.541090796648048"><ele>124.0</ele><time>2026-03-21T10:55:03Z</time></trkpt><trkpt lat="40.77781400777783" lon="9.540937579083126"><ele>125.0</ele><time>2026-03-21T10:55:04Z</time></trkpt><trkpt lat="40.77779355997671" lon="9.540763209252638"><ele>126.0</ele><time>2026-03-21T10:55:05Z</time></trkpt><trkpt lat="40.77777427932529" lon="9.540598792432615"><ele>126.0</ele><time>2026-03-21T10:55:06Z</time></trkpt><trkpt lat="40.77775384606533" lon="9.540402330622515"><ele>126.0</ele><time>2026-03-21T10:55:07Z</time></trkpt><trkpt lat="40.77773677432923" lon="9.540219169395595"><ele>126.0</ele><time>2026-03-21T10:55:08Z</time></trkpt><trkpt lat="40.77772286025438" lon="9.540063561871106"><ele>126.0</ele><time>2026-03-21T10:55:09Z</time></trkpt><trkpt lat="40.77769711791349" lon="9.539940904572184"><ele>127.75</ele><time>2026-03-21T10:55:10Z</time></trkpt><trkpt lat="40.77764446596235" lon="9.539838395161155"><ele>129.5</ele><time>2026-03-21T10:55:11Z</time></trkpt><trkpt lat="40.77757392536246" lon="9.5397090490177"><ele>131.25</ele><time>2026-03-21T10:55:12Z</time></trkpt><trkpt lat="40.77749818056826" lon="9.539595012587217"><ele>133.0</ele><time>2026-03-21T10:55:13Z</time></trkpt><trkpt lat="40.777420533766765" lon="9.53945756274092"><ele>133.5</ele><time>2026-03-21T10:55:14Z</time></trkpt><trkpt lat="40.77735665631756" lon="9.539318830437193"><ele>134.0</ele><time>2026-03-21T10:55:15Z</time></trkpt><trkpt lat="40.77730209075668" lon="9.539179471982148"><ele>134.5</ele><time>2026-03-21T10:55:16Z</time></trkpt><trkpt lat="40.77724098286307" lon="9.539020019271709"><ele>135.0</ele><time>2026-03-21T10:55:17Z</time></trkpt><trkpt lat="40.77717663713065" lon="9.538853422968035"><ele>134.33333333333334</ele><time>2026-03-21T10:55:18Z</time></trkpt><trkpt lat="40.77709597303193" lon="9.53864940043842"><ele>133.66666666666669</ele><time>2026-03-21T10:55:19Z</time></trkpt><trkpt lat="40.77701949609712" lon="9.538474854848012"><ele>133.0</ele><time>2026-03-21T10:55:20Z</time></trkpt><trkpt lat="40.77695117712325" lon="9.53831714037802"><ele>133.0</ele><time>2026-03-21T10:55:21Z</time></trkpt><trkpt lat="40.77689109410448" lon="9.538169838483045"><ele>133.0</ele><time>2026-03-21T10:55:22Z</time></trkpt><trkpt lat="40.77682835111517" lon="9.538015288902038"><ele>133.0</ele><time>2026-03-21T10:55:23Z</time></trkpt><trkpt lat="40.77677091967912" lon="9.53787382280296"><ele>133.0</ele><time>2026-03-21T10:55:24Z</time></trkpt><trkpt lat="40.776718190708856" lon="9.537726953608399"><ele>134.0</ele><time>2026-03-21T10:55:25Z</time></trkpt><trkpt lat="40.77668418136304" lon="9.53757998313733"><ele>135.0</ele><time>2026-03-21T10:55:26Z</time></trkpt><trkpt lat="40.77665106895175" lon="9.537442014772196"><ele>136.0</ele><time>2026-03-21T10:55:27Z</time></trkpt><trkpt lat="40.77661598919635" lon="9.53730753628747"><ele>137.0</ele><time>2026-03-21T10:55:28Z</time></trkpt><trkpt lat="40.77656009011512" lon="9.537174246400557"><ele>138.0</ele><time>2026-03-21T10:55:29Z</time></trkpt><trkpt lat="40.77649659446871" lon="9.53707094439644"><ele>138.5</ele><time>2026-03-21T10:55:30Z</time></trkpt><trkpt lat="40.776427649434076" lon="9.537006992127134"><ele>139.0</ele><time>2026-03-21T10:55:31Z</time></trkpt><trkpt lat="40.77631976754349" lon="9.536954857674358"><ele>139.5</ele><time>2026-03-21T10:55:32Z</time></trkpt><trkpt lat="40.77620203058878" lon="9.536874148266701"><ele>140.0</ele><time>2026-03-21T10:55:33Z</time></trkpt><trkpt lat="40.77607618504672" lon="9.536851601825555"><ele>140.0</ele><time>2026-03-21T10:55:34Z</time></trkpt><trkpt lat="40.775974789345995" lon="9.536803846453713"><ele>140.0</ele><time>2026-03-21T10:55:35Z</time></trkpt><trkpt lat="40.7758980355062" lon="9.536759830992208"><ele>140.0</ele><time>2026-03-21T10:55:36Z</time></trkpt><trkpt lat="40.77585506630339" lon="9.53666150729256"><ele>140.0</ele><time>2026-03-21T10:55:37Z</time></trkpt><trkpt lat="40.77579013909805" lon="9.536572907605944"><ele>140.0</ele><time>2026-03-21T10:55:38Z</time></trkpt><trkpt lat="40.77572479151531" lon="9.536486149925304"><ele>140.0</ele><time>2026-03-21T10:55:39Z</time></trkpt><trkpt lat="40.77565476084459" lon="9.536426302489717"><ele>140.0</ele><time>2026-03-21T10:55:40Z</time></trkpt><trkpt lat="40.77555222043617" lon="9.536384611298288"><ele>140.0</ele><time>2026-03-21T10:55:41Z</time></trkpt><trkpt lat="40.77544002071627" lon="9.536329052434109"><ele>140.0</ele><time>2026-03-21T10:55:42Z</time></trkpt><trkpt lat="40.77532242568787" lon="9.536283614630833"><ele>140.0</ele><time>2026-03-21T10:55:43Z</time></trkpt><trkpt lat="40.775209169540986" lon="9.536227276769509"><ele>140.5</ele><time>2026-03-21T10:55:44Z</time></trkpt><trkpt lat="40.775095941946326" lon="9.536153005881056"><ele>141.0</ele><time>2026-03-21T10:55:45Z</time></trkpt><trkpt lat="40.77496266083718" lon="9.536062369442678"><ele>141.5</ele><time>2026-03-21T10:55:46Z</time></trkpt><trkpt lat="40.77482849581768" lon="9.535985343805928"><ele>142.0</ele><time>2026-03-21T10:55:47Z</time></trkpt><trkpt lat="40.77471932592055" lon="9.535908169918152"><ele>142.0</ele><time>2026-03-21T10:55:48Z</time></trkpt><trkpt lat="40.77460542576831" lon="9.535821645039182"><ele>142.0</ele><time>2026-03-21T10:55:49Z</time></trkpt><trkpt lat="40.77447723580271" lon="9.535740419950864"><ele>142.0</ele><time>2026-03-21T10:55:50Z</time></trkpt><trkpt lat="40.774356956211975" lon="9.535651668543428"><ele>142.0</ele><time>2026-03-21T10:55:51Z</time></trkpt><trkpt lat="40.7742518896131" lon="9.535574008930546"><ele>142.25</ele><time>2026-03-21T10:55:52Z</time></trkpt><trkpt lat="40.77414893361452" lon="9.535500341042754"><ele>142.5</ele><time>2026-03-21T10:55:53Z</time></trkpt><trkpt lat="40.7740270534041" lon="9.535428039486895"><ele>142.75</ele><time>2026-03-21T10:55:54Z</time></trkpt><trkpt lat="40.773909531732386" lon="9.535319232633654"><ele>143.0</ele><time>2026-03-21T10:55:55Z</time></trkpt><trkpt lat="40.773778624583876" lon="9.535240570987497"><ele>143.0</ele><time>2026-03-21T10:55:56Z</time></trkpt><trkpt lat="40.77365882527869" lon="9.535118670995415"><ele>143.0</ele><time>2026-03-21T10:55:57Z</time></trkpt><trkpt lat="40.773546419565754" lon="9.535006465777943"><ele>143.0</ele><time>2026-03-21T10:55:58Z</time></trkpt><trkpt lat="40.77342808910186" lon="9.534878585670654"><ele>143.0</ele><time>2026-03-21T10:55:59Z</time></trkpt><trkpt lat="40.77333786243434" lon="9.534745774215327"><ele>143.25</ele><time>2026-03-21T10:56:00Z</time></trkpt><trkpt lat="40.7732429274495" lon="9.534603459130691"><ele>143.5</ele><time>2026-03-21T10:56:01Z</time></trkpt><trkpt lat="40.773143509006175" lon="9.534453902948385"><ele>143.75</ele><time>2026-03-21T10:56:02Z</time></trkpt><trkpt lat="40.77305137709608" lon="9.534323616508834"><ele>144.0</ele><time>2026-03-21T10:56:03Z</time></trkpt><trkpt lat="40.77296466348556" lon="9.534216830239663"><ele>145.0</ele><time>2026-03-21T10:56:04Z</time></trkpt><trkpt lat="40.772884036646694" lon="9.534117236612216"><ele>146.0</ele><time>2026-03-21T10:56:05Z</time></trkpt><trkpt lat="40.772811749420754" lon="9.534016866997964"><ele>147.0</ele><time>2026-03-21T10:56:06Z</time></trkpt><trkpt lat="40.772751071955135" lon="9.533927300672637"><ele>148.0</ele><time>2026-03-21T10:56:07Z</time></trkpt><trkpt lat="40.77269995425397" lon="9.53381991857618"><ele>149.0</ele><time>2026-03-21T10:56:08Z</time></trkpt><trkpt lat="40.77265951673231" lon="9.533693837175568"><ele>149.0</ele><time>2026-03-21T10:56:09Z</time></trkpt><trkpt lat="40.772619067562836" lon="9.533540963147622"><ele>149.0</ele><time>2026-03-21T10:56:10Z</time></trkpt><trkpt lat="40.77257776480736" lon="9.53338155094976"><ele>149.0</ele><time>2026-03-21T10:56:11Z</time></trkpt><trkpt lat="40.772534761160365" lon="9.53321260555453"><ele>149.0</ele><time>2026-03-21T10:56:12Z</time></trkpt><trkpt lat="40.77249021662849" lon="9.533037606626234"><ele>149.5</ele><time>2026-03-21T10:56:13Z</time></trkpt><trkpt lat="40.77244928235616" lon="9.532863207706896"><ele>150.0</ele><time>2026-03-21T10:56:14Z</time></trkpt><trkpt lat="40.77242325322364" lon="9.5326843556051"><ele>150.5</ele><time>2026-03-21T10:56:15Z</time></trkpt><trkpt lat="40.772403466256456" lon="9.532523768134793"><ele>151.0</ele><time>2026-03-21T10:56:16Z</time></trkpt><trkpt lat="40.772382249793836" lon="9.532358512933692"><ele>151.0</ele><time>2026-03-21T10:56:17Z</time></trkpt><trkpt lat="40.77235494877274" lon="9.53219611625162"><ele>151.0</ele><time>2026-03-21T10:56:18Z</time></trkpt><trkpt lat="40.7723247290686" lon="9.532035672734153"><ele>151.0</ele><time>2026-03-21T10:56:19Z</time></trkpt><trkpt lat="40.77229195152106" lon="9.531884334101534"><ele>151.0</ele><time>2026-03-21T10:56:20Z</time></trkpt><trkpt lat="40.77225016968435" lon="9.531750214474888"><ele>152.25</ele><time>2026-03-21T10:56:21Z</time></trkpt><trkpt lat="40.772189048424785" lon="9.531623518589072"><ele>153.5</ele><time>2026-03-21T10:56:22Z</time></trkpt><trkpt lat="40.772105749413335" lon="9.531478412202734"><ele>154.75</ele><time>2026-03-21T10:56:23Z</time></trkpt><trkpt lat="40.77202598765462" lon="9.531366021386889"><ele>156.0</ele><time>2026-03-21T10:56:24Z</time></trkpt><trkpt lat="40.771951212740845" lon="9.53123703977649"><ele>156.75</ele><time>2026-03-21T10:56:25Z</time></trkpt><trkpt lat="40.77188189085011" lon="9.531093151423887"><ele>157.5</ele><time>2026-03-21T10:56:26Z</time></trkpt><trkpt lat="40.7718130915184" lon="9.530951894810165"><ele>158.25</ele><time>2026-03-21T10:56:27Z</time></trkpt><trkpt lat="40.77172915003576" lon="9.53078682466547"><ele>159.0</ele><time>2026-03-21T10:56:28Z</time></trkpt><trkpt lat="40.77164379195024" lon="9.530653093455568"><ele>157.5</ele><time>2026-03-21T10:56:29Z</time></trkpt><trkpt lat="40.77156007807963" lon="9.530546223454078"><ele>156.0</ele><time>2026-03-21T10:56:30Z</time></trkpt><trkpt lat="40.77146635594149" lon="9.530440521378049"><ele>154.5</ele><time>2026-03-21T10:56:31Z</time></trkpt><trkpt lat="40.77137032509504" lon="9.530365547598311"><ele>153.0</ele><time>2026-03-21T10:56:32Z</time></trkpt><trkpt lat="40.77126347334225" lon="9.530306073101743"><ele>153.0</ele><time>2026-03-21T10:56:33Z</time></trkpt><trkpt lat="40.771159217100376" lon="9.53026289258781"><ele>153.0</ele><time>2026-03-21T10:56:34Z</time></trkpt><trkpt lat="40.771039231335706" lon="9.530267708749019"><ele>153.0</ele><time>2026-03-21T10:56:35Z</time></trkpt><trkpt lat="40.77094990281961" lon="9.530210177343985"><ele>153.0</ele><time>2026-03-21T10:56:36Z</time></trkpt><trkpt lat="40.77086111282709" lon="9.530128184956128"><ele>153.0</ele><time>2026-03-21T10:56:37Z</time></trkpt><trkpt lat="40.77073457216683" lon="9.53007855073055"><ele>153.0</ele><time>2026-03-21T10:56:38Z</time></trkpt><trkpt lat="40.77059497564932" lon="9.529996353449333"><ele>153.0</ele><time>2026-03-21T10:56:39Z</time></trkpt><trkpt lat="40.77047504583323" lon="9.529916936448036"><ele>153.0</ele><time>2026-03-21T10:56:40Z</time></trkpt><trkpt lat="40.77032083232683" lon="9.529869529784694"><ele>153.0</ele><time>2026-03-21T10:56:41Z</time></trkpt><trkpt lat="40.77018697414837" lon="9.5298163422248"><ele>152.75</ele><time>2026-03-21T10:56:42Z</time></trkpt><trkpt lat="40.770076668562155" lon="9.529749234558455"><ele>152.5</ele><time>2026-03-21T10:56:43Z</time></trkpt><trkpt lat="40.769992668485635" lon="9.529622930149188"><ele>152.25</ele><time>2026-03-21T10:56:44Z</time></trkpt><trkpt lat="40.76989421242349" lon="9.529496016756921"><ele>152.0</ele><time>2026-03-21T10:56:45Z</time></trkpt><trkpt lat="40.76981236591573" lon="9.529360025770744"><ele>152.0</ele><time>2026-03-21T10:56:46Z</time></trkpt><trkpt lat="40.76973982775956" lon="9.529232962263679"><ele>152.0</ele><time>2026-03-21T10:56:47Z</time></trkpt><trkpt lat="40.76967979746145" lon="9.52912149247079"><ele>152.0</ele><time>2026-03-21T10:56:48Z</time></trkpt><trkpt lat="40.769631928442365" lon="9.529035918155945"><ele>152.0</ele><time>2026-03-21T10:56:49Z</time></trkpt><trkpt lat="40.7695949978173" lon="9.528949522417193"><ele>152.0</ele><time>2026-03-21T10:56:50Z</time></trkpt><trkpt lat="40.76952866510517" lon="9.528894316496583"><ele>152.0</ele><time>2026-03-21T10:56:51Z</time></trkpt><trkpt lat="40.769461743611444" lon="9.528831254053495"><ele>152.0</ele><time>2026-03-21T10:56:52Z</time></trkpt><trkpt lat="40.76944971385928" lon="9.528678321747066"><ele>152.0</ele><time>2026-03-21T10:56:53Z</time></trkpt><trkpt lat="40.769404963784176" lon="9.52855557467386"><ele>152.0</ele><time>2026-03-21T10:56:54Z</time></trkpt><trkpt lat="40.76935208984973" lon="9.528424601815484"><ele>152.0</ele><time>2026-03-21T10:56:55Z</time></trkpt><trkpt lat="40.76928573553629" lon="9.52829926993848"><ele>151.0</ele><time>2026-03-21T10:56:56Z</time></trkpt><trkpt lat="40.769206533786324" lon="9.528162163675391"><ele>150.0</ele><time>2026-03-21T10:56:57Z</time></trkpt><trkpt lat="40.769133784857324" lon="9.528023397949669"><ele>149.0</ele><time>2026-03-21T10:56:58Z</time></trkpt><trkpt lat="40.76905848056368" lon="9.527891713132332"><ele>148.0</ele><time>2026-03-21T10:56:59Z</time></trkpt><trkpt lat="40.76898480644175" lon="9.52775311097327"><ele>148.0</ele><time>2026-03-21T10:57:00Z</time></trkpt><trkpt lat="40.76891192524904" lon="9.527620918264265"><ele>148.0</ele><time>2026-03-21T10:57:01Z</time></trkpt><trkpt lat="40.7688423415943" lon="9.527483850244879"><ele>148.0</ele><time>2026-03-21T10:57:02Z</time></trkpt><trkpt lat="40.76877245355055" lon="9.527350281560011"><ele>148.0</ele><time>2026-03-21T10:57:03Z</time></trkpt><trkpt lat="40.7686956719522" lon="9.527202462042357"><ele>148.0</ele><time>2026-03-21T10:57:04Z</time></trkpt><trkpt lat="40.76860515591881" lon="9.527060464360126"><ele>148.0</ele><time>2026-03-21T10:57:05Z</time></trkpt><trkpt lat="40.76852361962679" lon="9.526917696870402"><ele>148.0</ele><time>2026-03-21T10:57:06Z</time></trkpt><trkpt lat="40.76844329787718" lon="9.52677335001632"><ele>148.0</ele><time>2026-03-21T10:57:07Z</time></trkpt><trkpt lat="40.76836146562553" lon="9.526624586285074"><ele>148.0</ele><time>2026-03-21T10:57:08Z</time></trkpt><trkpt lat="40.76827548742726" lon="9.526477198956677"><ele>148.0</ele><time>2026-03-21T10:57:09Z</time></trkpt><trkpt lat="40.76819585884462" lon="9.52632848329906"><ele>148.0</ele><time>2026-03-21T10:57:10Z</time></trkpt><trkpt lat="40.76811680662553" lon="9.526184358022435"><ele>148.0</ele><time>2026-03-21T10:57:11Z</time></trkpt><trkpt lat="40.76804148323474" lon="9.526046792140868"><ele>148.0</ele><time>2026-03-21T10:57:12Z</time></trkpt><trkpt lat="40.76796205084804" lon="9.52590620641974"><ele>148.0</ele><time>2026-03-21T10:57:13Z</time></trkpt><trkpt lat="40.76788348352065" lon="9.525771854177046"><ele>148.0</ele><time>2026-03-21T10:57:14Z</time></trkpt><trkpt lat="40.76780222153779" lon="9.525628103587774"><ele>148.0</ele><time>2026-03-21T10:57:15Z</time></trkpt><trkpt lat="40.767720546814616" lon="9.525487297782275"><ele>148.75</ele><time>2026-03-21T10:57:16Z</time></trkpt><trkpt lat="40.76763788482539" lon="9.525347391422574"><ele>149.5</ele><time>2026-03-21T10:57:17Z</time></trkpt><trkpt lat="40.76755991910796" lon="9.525206130120207"><ele>150.25</ele><time>2026-03-21T10:57:18Z</time></trkpt><trkpt lat="40.76748261614237" lon="9.525062011036026"><ele>151.0</ele><time>2026-03-21T10:57:19Z</time></trkpt><trkpt lat="40.76740588678294" lon="9.524930681144852"><ele>151.0</ele><time>2026-03-21T10:57:20Z</time></trkpt><trkpt lat="40.767331907153654" lon="9.5248037393515"><ele>151.0</ele><time>2026-03-21T10:57:21Z</time></trkpt><trkpt lat="40.767266922942206" lon="9.524668218781693"><ele>151.0</ele><time>2026-03-21T10:57:22Z</time></trkpt><trkpt lat="40.76720242647608" lon="9.524541335420944"><ele>151.0</ele><time>2026-03-21T10:57:23Z</time></trkpt><trkpt lat="40.7671305507994" lon="9.524412023700826"><ele>151.5</ele><time>2026-03-21T10:57:24Z</time></trkpt><trkpt lat="40.7670699804299" lon="9.5242732288924"><ele>152.0</ele><time>2026-03-21T10:57:25Z</time></trkpt><trkpt lat="40.767029158849816" lon="9.524111494427544"><ele>152.5</ele><time>2026-03-21T10:57:26Z</time></trkpt><trkpt lat="40.76700486588812" lon="9.523954906342837"><ele>153.0</ele><time>2026-03-21T10:57:27Z</time></trkpt><trkpt lat="40.76699516871155" lon="9.52378756011877"><ele>153.4</ele><time>2026-03-21T10:57:28Z</time></trkpt><trkpt lat="40.76700621752611" lon="9.523626150690598"><ele>153.8</ele><time>2026-03-21T10:57:29Z</time></trkpt><trkpt lat="40.767017874950604" lon="9.523485830250575"><ele>154.2</ele><time>2026-03-21T10:57:30Z</time></trkpt><trkpt lat="40.76701109160278" lon="9.523360118241849"><ele>154.6</ele><time>2026-03-21T10:57:31Z</time></trkpt><trkpt lat="40.76700577058268" lon="9.52324693286761"><ele>155.0</ele><time>2026-03-21T10:57:32Z</time></trkpt><trkpt lat="40.76699245413087" lon="9.523083257075697"><ele>155.0</ele><time>2026-03-21T10:57:34Z</time></trkpt><trkpt lat="40.766960430263886" lon="9.522982036720597"><ele>155.0</ele><time>2026-03-21T10:57:36Z</time></trkpt><trkpt lat="40.7668944623001" lon="9.522853180876032"><ele>155.0</ele><time>2026-03-21T10:57:38Z</time></trkpt><trkpt lat="40.76685342510459" lon="9.522748909988179"><ele>155.0</ele><time>2026-03-21T10:57:39Z</time></trkpt><trkpt lat="40.76681886514501" lon="9.522634236137083"><ele>155.0</ele><time>2026-03-21T10:57:40Z</time></trkpt><trkpt lat="40.76677507728247" lon="9.522520380171597"><ele>155.0</ele><time>2026-03-21T10:57:41Z</time></trkpt><trkpt lat="40.76672442662943" lon="9.52241664636591"><ele>155.0</ele><time>2026-03-21T10:57:42Z</time></trkpt><trkpt lat="40.766675925365824" lon="9.522312666553672"><ele>155.0</ele><time>2026-03-21T10:57:43Z</time></trkpt><trkpt lat="40.766643791574154" lon="9.522236282666872"><ele>155.0</ele><time>2026-03-21T10:57:44Z</time></trkpt><trkpt lat="40.76660830634949" lon="9.522150802648426"><ele>155.0</ele><time>2026-03-21T10:57:46Z</time></trkpt><trkpt lat="40.76655157812337" lon="9.52211220580031"><ele>155.0</ele><time>2026-03-21T11:00:11Z</time></trkpt><trkpt lat="40.76640492399094" lon="9.522149711989663"><ele>155.0</ele><time>2026-03-21T11:05:27Z</time></trkpt><trkpt lat="40.76646831552748" lon="9.522088139581262"><ele>155.0</ele><time>2026-03-21T11:07:00Z</time></trkpt><trkpt lat="40.76655003320196" lon="9.522115420278727"><ele>155.0</ele><time>2026-03-21T11:26:58Z</time></trkpt><trkpt lat="40.76658680838394" lon="9.52220248004361"><ele>155.0</ele><time>2026-03-21T11:27:00Z</time></trkpt><trkpt lat="40.76664731365895" lon="9.522318597964198"><ele>155.0</ele><time>2026-03-21T11:27:02Z</time></trkpt><trkpt lat="40.76667364466287" lon="9.52240117378611"><ele>155.0</ele><time>2026-03-21T11:27:03Z</time></trkpt><trkpt lat="40.76673868103413" lon="9.522553349203207"><ele>155.0</ele><time>2026-03-21T11:27:05Z</time></trkpt><trkpt lat="40.76673556619687" lon="9.52266424199136"><ele>155.0</ele><time>2026-03-21T11:27:06Z</time></trkpt><trkpt lat="40.76677307817148" lon="9.522747258509876"><ele>155.0</ele><time>2026-03-21T11:27:07Z</time></trkpt><trkpt lat="40.76683482790481" lon="9.522885270841682"><ele>155.0</ele><time>2026-03-21T11:27:09Z</time></trkpt><trkpt lat="40.76688364514298" lon="9.523001889487235"><ele>155.0</ele><time>2026-03-21T11:27:11Z</time></trkpt><trkpt lat="40.76692195143095" lon="9.523098326103428"><ele>155.0</ele><time>2026-03-21T11:27:13Z</time></trkpt><trkpt lat="40.76692656412745" lon="9.523200729192585"><ele>155.0</ele><time>2026-03-21T11:27:16Z</time></trkpt><trkpt lat="40.76692223048708" lon="9.523348472089378"><ele>155.0</ele><time>2026-03-21T11:27:42Z</time></trkpt><trkpt lat="40.76692943451224" lon="9.523438655023645"><ele>155.0</ele><time>2026-03-21T11:27:43Z</time></trkpt><trkpt lat="40.766941490591165" lon="9.523524499320658"><ele>155.0</ele><time>2026-03-21T11:27:44Z</time></trkpt><trkpt lat="40.766947827908496" lon="9.523623468955162"><ele>155.0</ele><time>2026-03-21T11:27:45Z</time></trkpt><trkpt lat="40.76694983156416" lon="9.52373587177988"><ele>154.66666666666666</ele><time>2026-03-21T11:27:46Z</time></trkpt><trkpt lat="40.766944024500965" lon="9.52385738729844"><ele>154.33333333333331</ele><time>2026-03-21T11:27:47Z</time></trkpt><trkpt lat="40.76694014704138" lon="9.523966122379138"><ele>154.0</ele><time>2026-03-21T11:27:48Z</time></trkpt><trkpt lat="40.766952796267276" lon="9.524081572387235"><ele>153.66666666666666</ele><time>2026-03-21T11:27:49Z</time></trkpt><trkpt lat="40.76695859566922" lon="9.524202655038382"><ele>153.33333333333334</ele><time>2026-03-21T11:27:50Z</time></trkpt><trkpt lat="40.76699301773988" lon="9.524318088677406"><ele>153.0</ele><time>2026-03-21T11:27:51Z</time></trkpt><trkpt lat="40.76703898740919" lon="9.524430269584718"><ele>153.0</ele><time>2026-03-21T11:27:52Z</time></trkpt><trkpt lat="40.76709334256129" lon="9.524539939426525"><ele>153.0</ele><time>2026-03-21T11:27:53Z</time></trkpt><trkpt lat="40.76715613709438" lon="9.52465490204757"><ele>153.0</ele><time>2026-03-21T11:27:54Z</time></trkpt><trkpt lat="40.76722267987572" lon="9.52477521604107"><ele>153.0</ele><time>2026-03-21T11:27:55Z</time></trkpt><trkpt lat="40.767307086949096" lon="9.524891546632238"><ele>153.0</ele><time>2026-03-21T11:27:56Z</time></trkpt><trkpt lat="40.76737244114273" lon="9.525012884177471"><ele>152.6</ele><time>2026-03-21T11:27:57Z</time></trkpt><trkpt lat="40.767434013210035" lon="9.525124080292086"><ele>152.20000000000002</ele><time>2026-03-21T11:27:58Z</time></trkpt><trkpt lat="40.76749342553737" lon="9.525228714222498"><ele>151.8</ele><time>2026-03-21T11:27:59Z</time></trkpt><trkpt lat="40.76754241722098" lon="9.525326533384517"><ele>151.4</ele><time>2026-03-21T11:28:00Z</time></trkpt><trkpt lat="40.76758499587941" lon="9.525393255586943"><ele>151.0</ele><time>2026-03-21T11:28:01Z</time></trkpt><trkpt lat="40.76763124704581" lon="9.525520669221011"><ele>150.2</ele><time>2026-03-21T11:28:03Z</time></trkpt><trkpt lat="40.767521538407024" lon="9.525618728454532"><ele>149.39999999999998</ele><time>2026-03-21T11:28:05Z</time></trkpt><trkpt lat="40.76744957505859" lon="9.525694727884826"><ele>148.6</ele><time>2026-03-21T11:28:06Z</time></trkpt><trkpt lat="40.76737466066061" lon="9.525773844103137"><ele>147.79999999999998</ele><time>2026-03-21T11:28:07Z</time></trkpt><trkpt lat="40.76730100666666" lon="9.5258595097483"><ele>147.0</ele><time>2026-03-21T11:28:08Z</time></trkpt><trkpt lat="40.7672303402206" lon="9.52595170444006"><ele>147.0</ele><time>2026-03-21T11:28:09Z</time></trkpt><trkpt lat="40.767164062952354" lon="9.526048534463479"><ele>147.0</ele><time>2026-03-21T11:28:10Z</time></trkpt><trkpt lat="40.76709608099508" lon="9.526151867152892"><ele>147.0</ele><time>2026-03-21T11:28:11Z</time></trkpt><trkpt lat="40.767024836174905" lon="9.526264431467014"><ele>147.0</ele><time>2026-03-21T11:28:12Z</time></trkpt><trkpt lat="40.76695956532848" lon="9.526373082130076"><ele>147.0</ele><time>2026-03-21T11:28:13Z</time></trkpt><trkpt lat="40.76689251963102" lon="9.526486659671399"><ele>146.2</ele><time>2026-03-21T11:28:14Z</time></trkpt><trkpt lat="40.766833997127065" lon="9.5266029722245"><ele>145.39999999999998</ele><time>2026-03-21T11:28:15Z</time></trkpt><trkpt lat="40.76676646848841" lon="9.526715652093694"><ele>144.60000000000002</ele><time>2026-03-21T11:28:16Z</time></trkpt><trkpt lat="40.76671870642749" lon="9.526833038473434"><ele>143.8</ele><time>2026-03-21T11:28:17Z</time></trkpt><trkpt lat="40.76666038733771" lon="9.526935387177476"><ele>143.0</ele><time>2026-03-21T11:28:18Z</time></trkpt><trkpt lat="40.76661825008505" lon="9.527063572904408"><ele>143.0</ele><time>2026-03-21T11:28:19Z</time></trkpt><trkpt lat="40.76657221112187" lon="9.527195719648962"><ele>143.0</ele><time>2026-03-21T11:28:20Z</time></trkpt><trkpt lat="40.766522506262916" lon="9.527339829153002"><ele>143.0</ele><time>2026-03-21T11:28:21Z</time></trkpt><trkpt lat="40.76649842156627" lon="9.527468035293486"><ele>143.0</ele><time>2026-03-21T11:28:22Z</time></trkpt><trkpt lat="40.76646287957067" lon="9.527584779991347"><ele>143.0</ele><time>2026-03-21T11:28:23Z</time></trkpt><trkpt lat="40.76641839651173" lon="9.527709755140558"><ele>143.0</ele><time>2026-03-21T11:28:24Z</time></trkpt><trkpt lat="40.76639194902746" lon="9.527860450780999"><ele>143.0</ele><time>2026-03-21T11:28:25Z</time></trkpt><trkpt lat="40.766372071307096" lon="9.527986641410681"><ele>143.0</ele><time>2026-03-21T11:28:26Z</time></trkpt><trkpt lat="40.76635144305731" lon="9.528120430192573"><ele>143.0</ele><time>2026-03-21T11:28:27Z</time></trkpt><trkpt lat="40.7663423070788" lon="9.528253281714228"><ele>143.0</ele><time>2026-03-21T11:28:28Z</time></trkpt><trkpt lat="40.76632714570305" lon="9.528387642025514"><ele>143.0</ele><time>2026-03-21T11:28:29Z</time></trkpt><trkpt lat="40.76632884804406" lon="9.528513794150058"><ele>143.0</ele><time>2026-03-21T11:28:30Z</time></trkpt><trkpt lat="40.7663415827237" lon="9.528628641094446"><ele>143.0</ele><time>2026-03-21T11:28:31Z</time></trkpt><trkpt lat="40.76634924663167" lon="9.528752932114186"><ele>143.0</ele><time>2026-03-21T11:28:32Z</time></trkpt><trkpt lat="40.766317253581306" lon="9.5288844618944"><ele>143.0</ele><time>2026-03-21T11:28:33Z</time></trkpt><trkpt lat="40.76629722169646" lon="9.529039388492373"><ele>141.75</ele><time>2026-03-21T11:28:34Z</time></trkpt><trkpt lat="40.766243820075516" lon="9.529199635258083"><ele>140.5</ele><time>2026-03-21T11:28:35Z</time></trkpt><trkpt lat="40.766205086270475" lon="9.529368554368729"><ele>139.25</ele><time>2026-03-21T11:28:36Z</time></trkpt><trkpt lat="40.76618081901266" lon="9.52953241329176"><ele>138.0</ele><time>2026-03-21T11:28:37Z</time></trkpt><trkpt lat="40.76613176513612" lon="9.529672765079622"><ele>137.5</ele><time>2026-03-21T11:28:38Z</time></trkpt><trkpt lat="40.76609704497656" lon="9.529816450666805"><ele>137.0</ele><time>2026-03-21T11:28:39Z</time></trkpt><trkpt lat="40.76605876592692" lon="9.529974864321767"><ele>136.5</ele><time>2026-03-21T11:28:40Z</time></trkpt><trkpt lat="40.76602208514054" lon="9.530126663741886"><ele>136.0</ele><time>2026-03-21T11:28:41Z</time></trkpt><trkpt lat="40.76598664355542" lon="9.53027549155321"><ele>138.0</ele><time>2026-03-21T11:28:42Z</time></trkpt><trkpt lat="40.76595214278177" lon="9.5304220155698"><ele>140.0</ele><time>2026-03-21T11:28:43Z</time></trkpt><trkpt lat="40.76591840532463" lon="9.53056529780898"><ele>142.0</ele><time>2026-03-21T11:28:44Z</time></trkpt><trkpt lat="40.765881869889576" lon="9.530720463030569"><ele>144.0</ele><time>2026-03-21T11:28:45Z</time></trkpt><trkpt lat="40.765841456661214" lon="9.530892097074036"><ele>144.0</ele><time>2026-03-21T11:28:46Z</time></trkpt><trkpt lat="40.76581430438692" lon="9.5310460996936"><ele>144.0</ele><time>2026-03-21T11:28:47Z</time></trkpt><trkpt lat="40.765768258993106" lon="9.53117390560749"><ele>144.0</ele><time>2026-03-21T11:28:48Z</time></trkpt><trkpt lat="40.76572827968595" lon="9.531316013287137"><ele>144.0</ele><time>2026-03-21T11:28:49Z</time></trkpt><trkpt lat="40.76568934218523" lon="9.531470715206762"><ele>143.2</ele><time>2026-03-21T11:28:50Z</time></trkpt><trkpt lat="40.76565935635444" lon="9.531612541567734"><ele>142.4</ele><time>2026-03-21T11:28:51Z</time></trkpt><trkpt lat="40.765632986137966" lon="9.531755222629092"><ele>141.6</ele><time>2026-03-21T11:28:52Z</time></trkpt><trkpt lat="40.765609197896595" lon="9.531886424689016"><ele>140.8</ele><time>2026-03-21T11:28:53Z</time></trkpt><trkpt lat="40.765585338172045" lon="9.532018021134723"><ele>140.0</ele><time>2026-03-21T11:28:54Z</time></trkpt><trkpt lat="40.76555078994417" lon="9.532187821753562"><ele>139.6</ele><time>2026-03-21T11:28:55Z</time></trkpt><trkpt lat="40.76552547887628" lon="9.532298481539216"><ele>139.2</ele><time>2026-03-21T11:28:56Z</time></trkpt><trkpt lat="40.76550466215478" lon="9.53240532910192"><ele>138.8</ele><time>2026-03-21T11:28:57Z</time></trkpt><trkpt lat="40.765484629972654" lon="9.532495683681612"><ele>138.4</ele><time>2026-03-21T11:28:58Z</time></trkpt><trkpt lat="40.765461723674576" lon="9.532604187419228"><ele>138.0</ele><time>2026-03-21T11:29:00Z</time></trkpt><trkpt lat="40.76542060018603" lon="9.532775586621879"><ele>138.0</ele><time>2026-03-21T11:29:02Z</time></trkpt><trkpt lat="40.765398694403665" lon="9.532888661595518"><ele>138.0</ele><time>2026-03-21T11:29:03Z</time></trkpt><trkpt lat="40.7653545177821" lon="9.53301373673279"><ele>138.0</ele><time>2026-03-21T11:29:04Z</time></trkpt><trkpt lat="40.76532147210373" lon="9.533155266890905"><ele>138.0</ele><time>2026-03-21T11:29:05Z</time></trkpt><trkpt lat="40.76529017496612" lon="9.533291881383152"><ele>138.0</ele><time>2026-03-21T11:29:06Z</time></trkpt><trkpt lat="40.76526053261533" lon="9.53342127251959"><ele>137.0</ele><time>2026-03-21T11:29:07Z</time></trkpt><trkpt lat="40.765232888760636" lon="9.533541940078079"><ele>136.0</ele><time>2026-03-21T11:29:08Z</time></trkpt><trkpt lat="40.76520277651915" lon="9.53367024393403"><ele>135.0</ele><time>2026-03-21T11:29:09Z</time></trkpt><trkpt lat="40.76517613563928" lon="9.533781105899765"><ele>134.0</ele><time>2026-03-21T11:29:10Z</time></trkpt><trkpt lat="40.76514972005908" lon="9.533891030298934"><ele>133.0</ele><time>2026-03-21T11:29:11Z</time></trkpt><trkpt lat="40.76512590569191" lon="9.533990130174343"><ele>132.66666666666669</ele><time>2026-03-21T11:29:12Z</time></trkpt><trkpt lat="40.76510390659412" lon="9.534081676194635"><ele>132.33333333333334</ele><time>2026-03-21T11:29:13Z</time></trkpt><trkpt lat="40.76508195068762" lon="9.534168332381492"><ele>132.0</ele><time>2026-03-21T11:29:14Z</time></trkpt><trkpt lat="40.765056365376374" lon="9.534261578244848"><ele>131.66666666666666</ele><time>2026-03-21T11:29:15Z</time></trkpt><trkpt lat="40.76502636759713" lon="9.534341698688749"><ele>131.33333333333331</ele><time>2026-03-21T11:29:16Z</time></trkpt><trkpt lat="40.7649334979096" lon="9.534406156885302"><ele>131.0</ele><time>2026-03-21T11:29:18Z</time></trkpt><trkpt lat="40.76487237118916" lon="9.534383996973474"><ele>131.0</ele><time>2026-03-21T11:29:19Z</time></trkpt><trkpt lat="40.76479971704821" lon="9.534355649121414"><ele>131.0</ele><time>2026-03-21T11:29:20Z</time></trkpt><trkpt lat="40.76473427357007" lon="9.534335696305828"><ele>131.0</ele><time>2026-03-21T11:29:21Z</time></trkpt><trkpt lat="40.7646658378888" lon="9.534314831185325"><ele>131.0</ele><time>2026-03-21T11:29:23Z</time></trkpt><trkpt lat="40.76462135861612" lon="9.534403394276636"><ele>131.0</ele><time>2026-03-21T11:29:24Z</time></trkpt><trkpt lat="40.764598667012635" lon="9.534569061519617"><ele>131.0</ele><time>2026-03-21T11:29:26Z</time></trkpt><trkpt lat="40.76459140477493" lon="9.534677613655807"><ele>130.83333333333331</ele><time>2026-03-21T11:29:28Z</time></trkpt><trkpt lat="40.76452041414782" lon="9.534725463381593"><ele>130.66666666666666</ele><time>2026-03-21T11:29:30Z</time></trkpt><trkpt lat="40.764456384943415" lon="9.534740491931794"><ele>130.5</ele><time>2026-03-21T11:29:31Z</time></trkpt><trkpt lat="40.76434076854521" lon="9.534718405228693"><ele>130.33333333333334</ele><time>2026-03-21T11:29:33Z</time></trkpt><trkpt lat="40.7642720361942" lon="9.534666845739558"><ele>130.16666666666669</ele><time>2026-03-21T11:29:34Z</time></trkpt><trkpt lat="40.76419955910457" lon="9.534637354001035"><ele>130.0</ele><time>2026-03-21T11:29:35Z</time></trkpt><trkpt lat="40.76413539685591" lon="9.534589526516225"><ele>130.33333333333334</ele><time>2026-03-21T11:29:36Z</time></trkpt><trkpt lat="40.7640594976992" lon="9.534557067260785"><ele>130.66666666666669</ele><time>2026-03-21T11:29:37Z</time></trkpt><trkpt lat="40.763992100720294" lon="9.534497222049975"><ele>131.0</ele><time>2026-03-21T11:29:38Z</time></trkpt><trkpt lat="40.76392628954014" lon="9.534440098592786"><ele>131.33333333333334</ele><time>2026-03-21T11:29:39Z</time></trkpt><trkpt lat="40.76384983031366" lon="9.534381966037081"><ele>131.66666666666666</ele><time>2026-03-21T11:29:40Z</time></trkpt><trkpt lat="40.763787481607125" lon="9.534300317904675"><ele>132.0</ele><time>2026-03-21T11:29:41Z</time></trkpt><trkpt lat="40.76371467986361" lon="9.534241149002366"><ele>132.16666666666666</ele><time>2026-03-21T11:29:42Z</time></trkpt><trkpt lat="40.76361867326716" lon="9.53420998506171"><ele>132.33333333333334</ele><time>2026-03-21T11:29:43Z</time></trkpt><trkpt lat="40.76353948234225" lon="9.53417508203245"><ele>132.5</ele><time>2026-03-21T11:29:44Z</time></trkpt><trkpt lat="40.76345933172053" lon="9.534163264388921"><ele>132.66666666666669</ele><time>2026-03-21T11:29:45Z</time></trkpt><trkpt lat="40.763376695540266" lon="9.5341649387463"><ele>132.83333333333334</ele><time>2026-03-21T11:29:46Z</time></trkpt><trkpt lat="40.763302638463884" lon="9.534155819723274"><ele>133.0</ele><time>2026-03-21T11:29:47Z</time></trkpt><trkpt lat="40.76324067508753" lon="9.53409710670515"><ele>133.5</ele><time>2026-03-21T11:29:48Z</time></trkpt><trkpt lat="40.76312087973216" lon="9.534048939098675"><ele>134.0</ele><time>2026-03-21T11:29:50Z</time></trkpt><trkpt lat="40.763060060125845" lon="9.53402688772019"><ele>134.5</ele><time>2026-03-21T11:29:51Z</time></trkpt><trkpt lat="40.76297165276068" lon="9.534010444707935"><ele>135.0</ele><time>2026-03-21T11:29:52Z</time></trkpt><trkpt lat="40.762889632322576" lon="9.5339766460324"><ele>135.5</ele><time>2026-03-21T11:29:53Z</time></trkpt><trkpt lat="40.76281699734829" lon="9.53394026086638"><ele>136.0</ele><time>2026-03-21T11:29:54Z</time></trkpt><trkpt lat="40.76274870968533" lon="9.533928358788367"><ele>135.5</ele><time>2026-03-21T11:29:55Z</time></trkpt><trkpt lat="40.76267837021676" lon="9.533925989849807"><ele>135.0</ele><time>2026-03-21T11:29:57Z</time></trkpt><trkpt lat="40.7626161251331" lon="9.533897049874685"><ele>134.5</ele><time>2026-03-21T11:31:38Z</time></trkpt><trkpt lat="40.76255330166091" lon="9.53383434767943"><ele>134.0</ele><time>2026-03-21T11:31:42Z</time></trkpt><trkpt lat="40.76246246997618" lon="9.533787785468148"><ele>133.5</ele><time>2026-03-21T11:31:44Z</time></trkpt><trkpt lat="40.76238658114112" lon="9.53367970201332"><ele>133.0</ele><time>2026-03-21T11:31:46Z</time></trkpt><trkpt lat="40.76231754133579" lon="9.533589545795955"><ele>133.0</ele><time>2026-03-21T11:31:48Z</time></trkpt><trkpt lat="40.76224997351408" lon="9.533536449590413"><ele>133.0</ele><time>2026-03-21T11:31:51Z</time></trkpt><trkpt lat="40.76217827060403" lon="9.533519759538413"><ele>133.0</ele><time>2026-03-21T11:31:53Z</time></trkpt><trkpt lat="40.76207950302223" lon="9.533454332703414"><ele>133.0</ele><time>2026-03-21T11:31:55Z</time></trkpt><trkpt lat="40.76200523954318" lon="9.533387108806549"><ele>133.0</ele><time>2026-03-21T11:31:57Z</time></trkpt><trkpt lat="40.76195229073466" lon="9.533312021031382"><ele>133.0</ele><time>2026-03-21T11:31:58Z</time></trkpt><trkpt lat="40.76187165410465" lon="9.533217511774554"><ele>133.33333333333334</ele><time>2026-03-21T11:32:00Z</time></trkpt><trkpt lat="40.761756473173406" lon="9.533151279311836"><ele>133.66666666666669</ele><time>2026-03-21T11:32:02Z</time></trkpt><trkpt lat="40.761693454656815" lon="9.533128261341636"><ele>134.0</ele><time>2026-03-21T11:32:04Z</time></trkpt><trkpt lat="40.761635545612236" lon="9.533084644305324"><ele>134.33333333333334</ele><time>2026-03-21T11:32:08Z</time></trkpt><trkpt lat="40.7616927590733" lon="9.533038295387655"><ele>134.66666666666666</ele><time>2026-03-21T11:34:43Z</time></trkpt><trkpt lat="40.76162863749878" lon="9.533103888666234"><ele>135.0</ele><time>2026-03-21T11:35:27Z</time></trkpt><trkpt lat="40.76169019306511" lon="9.533068761145376"><ele>135.0</ele><time>2026-03-21T11:35:56Z</time></trkpt><trkpt lat="40.76170730485891" lon="9.532981189210526"><ele>135.0</ele><time>2026-03-21T11:36:12Z</time></trkpt><trkpt lat="40.76166802020179" lon="9.532914748615209"><ele>135.0</ele><time>2026-03-21T11:36:14Z</time></trkpt><trkpt lat="40.761564178324036" lon="9.532961929714624"><ele>135.0</ele><time>2026-03-21T11:37:04Z</time></trkpt><trkpt lat="40.76149622150502" lon="9.532943016995855"><ele>135.0</ele><time>2026-03-21T11:37:11Z</time></trkpt><trkpt lat="40.76145110761597" lon="9.532867989985595"><ele>135.0</ele><time>2026-03-21T11:37:13Z</time></trkpt><trkpt lat="40.761390488382816" lon="9.532801120763578"><ele>135.33333333333334</ele><time>2026-03-21T11:37:15Z</time></trkpt><trkpt lat="40.76135627757482" lon="9.532712722587432"><ele>135.66666666666666</ele><time>2026-03-21T11:37:17Z</time></trkpt><trkpt lat="40.761257378826976" lon="9.532636758405829"><ele>136.0</ele><time>2026-03-21T11:37:19Z</time></trkpt><trkpt lat="40.76120728693429" lon="9.532578186193982"><ele>136.33333333333331</ele><time>2026-03-21T11:37:20Z</time></trkpt><trkpt lat="40.76117169869037" lon="9.532496431958165"><ele>136.66666666666666</ele><time>2026-03-21T11:37:22Z</time></trkpt><trkpt lat="40.76109757818628" lon="9.532442220536463"><ele>137.0</ele><time>2026-03-21T11:37:25Z</time></trkpt><trkpt lat="40.76103455963112" lon="9.532402933941585"><ele>136.5</ele><time>2026-03-21T11:37:27Z</time></trkpt><trkpt lat="40.760969823447304" lon="9.532360854004118"><ele>136.0</ele><time>2026-03-21T11:37:29Z</time></trkpt><trkpt lat="40.7608870877767" lon="9.532338811155865"><ele>135.5</ele><time>2026-03-21T11:37:31Z</time></trkpt><trkpt lat="40.76080941627155" lon="9.532292969205761"><ele>135.0</ele><time>2026-03-21T11:37:34Z</time></trkpt><trkpt lat="40.760741973504885" lon="9.532301044020864"><ele>134.5</ele><time>2026-03-21T11:37:36Z</time></trkpt><trkpt lat="40.76067080496473" lon="9.532261795403672"><ele>134.0</ele><time>2026-03-21T11:37:38Z</time></trkpt><trkpt lat="40.76061145001259" lon="9.532210781214493"><ele>134.0</ele><time>2026-03-21T11:37:40Z</time></trkpt><trkpt lat="40.76055756938254" lon="9.532161119764206"><ele>134.0</ele><time>2026-03-21T11:37:42Z</time></trkpt><trkpt lat="40.76049379746193" lon="9.532120693715436"><ele>134.0</ele><time>2026-03-21T11:37:44Z</time></trkpt><trkpt lat="40.76043683620757" lon="9.5320744554111"><ele>134.0</ele><time>2026-03-21T11:37:46Z</time></trkpt><trkpt lat="40.7603694137278" lon="9.531985684037254"><ele>134.0</ele><time>2026-03-21T11:37:50Z</time></trkpt><trkpt lat="40.76028996137592" lon="9.531940075708203"><ele>134.0</ele><time>2026-03-21T11:37:52Z</time></trkpt><trkpt lat="40.76021429231286" lon="9.531882768186584"><ele>134.4</ele><time>2026-03-21T11:37:54Z</time></trkpt><trkpt lat="40.76011379762225" lon="9.531839108919575"><ele>134.8</ele><time>2026-03-21T11:37:56Z</time></trkpt><trkpt lat="40.760032994469675" lon="9.531766601398592"><ele>135.2</ele><time>2026-03-21T11:37:58Z</time></trkpt><trkpt lat="40.75996927500792" lon="9.531719198149087"><ele>135.6</ele><time>2026-03-21T11:38:00Z</time></trkpt><trkpt lat="40.759891623828494" lon="9.531650131671064"><ele>136.0</ele><time>2026-03-21T11:38:02Z</time></trkpt><trkpt lat="40.75984273421751" lon="9.531567336900181"><ele>136.0</ele><time>2026-03-21T11:38:04Z</time></trkpt><trkpt lat="40.75978017304124" lon="9.531497504515226"><ele>136.0</ele><time>2026-03-21T11:38:06Z</time></trkpt><trkpt lat="40.759708569077375" lon="9.531442586559605"><ele>136.0</ele><time>2026-03-21T11:38:08Z</time></trkpt><trkpt lat="40.7596293748112" lon="9.53137582185575"><ele>136.0</ele><time>2026-03-21T11:38:10Z</time></trkpt><trkpt lat="40.7595689093321" lon="9.531338726774655"><ele>136.0</ele><time>2026-03-21T11:38:11Z</time></trkpt><trkpt lat="40.759490660469766" lon="9.53124687166597"><ele>136.0</ele><time>2026-03-21T11:38:13Z</time></trkpt><trkpt lat="40.75942581717553" lon="9.531185597121137"><ele>136.66666666666669</ele><time>2026-03-21T11:38:15Z</time></trkpt><trkpt lat="40.759362644348506" lon="9.531128777478191"><ele>137.33333333333334</ele><time>2026-03-21T11:38:17Z</time></trkpt><trkpt lat="40.759278806749045" lon="9.531071706832748"><ele>138.0</ele><time>2026-03-21T11:38:19Z</time></trkpt><trkpt lat="40.75922073108561" lon="9.531005237752453"><ele>138.66666666666666</ele><time>2026-03-21T11:38:21Z</time></trkpt><trkpt lat="40.759129386413626" lon="9.530936960032811"><ele>139.33333333333331</ele><time>2026-03-21T11:38:23Z</time></trkpt><trkpt lat="40.75905749002677" lon="9.530883317018645"><ele>140.0</ele><time>2026-03-21T11:38:25Z</time></trkpt><trkpt lat="40.758994953459776" lon="9.530807220338662"><ele>140.0</ele><time>2026-03-21T11:38:27Z</time></trkpt><trkpt lat="40.75892713655669" lon="9.530749787160094"><ele>140.0</ele><time>2026-03-21T11:38:30Z</time></trkpt><trkpt lat="40.75887345404047" lon="9.530681353669687"><ele>140.0</ele><time>2026-03-21T11:38:32Z</time></trkpt><trkpt lat="40.75882100312711" lon="9.530625514330593"><ele>140.0</ele><time>2026-03-21T11:38:34Z</time></trkpt><trkpt lat="40.758772465766164" lon="9.530546712427766"><ele>140.0</ele><time>2026-03-21T11:38:37Z</time></trkpt><trkpt lat="40.7587086158304" lon="9.530514056048904"><ele>140.0</ele><time>2026-03-21T11:38:39Z</time></trkpt><trkpt lat="40.75864169003887" lon="9.530484475825034"><ele>140.0</ele><time>2026-03-21T11:38:41Z</time></trkpt><trkpt lat="40.758573464920616" lon="9.530426984675515"><ele>140.0</ele><time>2026-03-21T11:38:44Z</time></trkpt><trkpt lat="40.75849182961331" lon="9.530340086713995"><ele>140.0</ele><time>2026-03-21T11:38:48Z</time></trkpt><trkpt lat="40.75842646045342" lon="9.530325032298714"><ele>140.0</ele><time>2026-03-21T11:38:51Z</time></trkpt><trkpt lat="40.75835454972261" lon="9.530291180488744"><ele>140.0</ele><time>2026-03-21T11:38:55Z</time></trkpt><trkpt lat="40.75829398807837" lon="9.530225950963443"><ele>140.0</ele><time>2026-03-21T11:41:10Z</time></trkpt><trkpt lat="40.758147541139394" lon="9.530213548173435"><ele>140.0</ele><time>2026-03-21T11:41:49Z</time></trkpt><trkpt lat="40.75807117246388" lon="9.530187487043127"><ele>140.0</ele><time>2026-03-21T11:41:53Z</time></trkpt><trkpt lat="40.757982743184286" lon="9.530140678506767"><ele>140.0</ele><time>2026-03-21T11:41:56Z</time></trkpt><trkpt lat="40.75790955629515" lon="9.530109121420011"><ele>140.0</ele><time>2026-03-21T11:41:58Z</time></trkpt><trkpt lat="40.757830818740764" lon="9.530089206476832"><ele>140.0</ele><time>2026-03-21T11:42:01Z</time></trkpt><trkpt lat="40.75774899799752" lon="9.53005402883379"><ele>140.0</ele><time>2026-03-21T11:42:03Z</time></trkpt><trkpt lat="40.75765369540982" lon="9.530024502149313"><ele>139.66666666666666</ele><time>2026-03-21T11:42:06Z</time></trkpt><trkpt lat="40.75757766733282" lon="9.529981593977775"><ele>139.33333333333331</ele><time>2026-03-21T11:42:09Z</time></trkpt><trkpt lat="40.75748997576646" lon="9.5299896001256"><ele>139.0</ele><time>2026-03-21T11:42:11Z</time></trkpt><trkpt lat="40.757418272835245" lon="9.530004701120584"><ele>138.66666666666666</ele><time>2026-03-21T11:42:13Z</time></trkpt><trkpt lat="40.757351252520216" lon="9.530001405724153"><ele>138.33333333333334</ele><time>2026-03-21T11:42:15Z</time></trkpt><trkpt lat="40.75726063105834" lon="9.530012891248061"><ele>138.0</ele><time>2026-03-21T11:42:17Z</time></trkpt><trkpt lat="40.75721742778963" lon="9.530104980130757"><ele>138.0</ele><time>2026-03-21T11:42:19Z</time></trkpt><trkpt lat="40.757202540307006" lon="9.530213027061777"><ele>138.0</ele><time>2026-03-21T11:42:21Z</time></trkpt><trkpt lat="40.757126653645685" lon="9.530333534387934"><ele>138.0</ele><time>2026-03-21T11:42:23Z</time></trkpt><trkpt lat="40.75693776760155" lon="9.530370426972693"><ele>138.0</ele><time>2026-03-21T11:42:25Z</time></trkpt><trkpt lat="40.75689970789539" lon="9.530446501739375"><ele>138.16666666666666</ele><time>2026-03-21T11:42:26Z</time></trkpt><trkpt lat="40.7568312902916" lon="9.530578703938616"><ele>138.33333333333334</ele><time>2026-03-21T11:42:28Z</time></trkpt><trkpt lat="40.756786661352585" lon="9.530664919500316"><ele>138.5</ele><time>2026-03-21T11:42:30Z</time></trkpt><trkpt lat="40.756746610095206" lon="9.530741980158849"><ele>138.66666666666669</ele><time>2026-03-21T11:42:32Z</time></trkpt><trkpt lat="40.75670445781405" lon="9.530823083280998"><ele>138.83333333333334</ele><time>2026-03-21T11:42:36Z</time></trkpt><trkpt lat="40.75665049026596" lon="9.530926919571002"><ele>139.0</ele><time>2026-03-21T11:42:38Z</time></trkpt><trkpt lat="40.75657162979371" lon="9.53107857650857"><ele>139.0</ele><time>2026-03-21T11:42:40Z</time></trkpt><trkpt lat="40.756522379103" lon="9.531172470180472"><ele>139.0</ele><time>2026-03-21T11:42:41Z</time></trkpt><trkpt lat="40.756482181430684" lon="9.531279908018984"><ele>139.0</ele><time>2026-03-21T11:42:42Z</time></trkpt><trkpt lat="40.75642805317795" lon="9.531386158808983"><ele>139.0</ele><time>2026-03-21T11:42:43Z</time></trkpt><trkpt lat="40.75637170748743" lon="9.531492104780936"><ele>139.0</ele><time>2026-03-21T11:42:44Z</time></trkpt><trkpt lat="40.75631329003588" lon="9.5316068854713"><ele>139.6</ele><time>2026-03-21T11:42:45Z</time></trkpt><trkpt lat="40.756250746515356" lon="9.531721524508713"><ele>140.2</ele><time>2026-03-21T11:42:46Z</time></trkpt><trkpt lat="40.756186356911314" lon="9.531842790171329"><ele>140.79999999999998</ele><time>2026-03-21T11:42:47Z</time></trkpt><trkpt lat="40.756125248372285" lon="9.531946185310703"><ele>141.4</ele><time>2026-03-21T11:42:48Z</time></trkpt><trkpt lat="40.75606288826205" lon="9.532060506694446"><ele>142.0</ele><time>2026-03-21T11:42:49Z</time></trkpt><trkpt lat="40.75599353330715" lon="9.532172805995105"><ele>144.0</ele><time>2026-03-21T11:42:50Z</time></trkpt><trkpt lat="40.75591762298521" lon="9.532294464175846"><ele>146.0</ele><time>2026-03-21T11:42:51Z</time></trkpt><trkpt lat="40.755858337869576" lon="9.532418893930037"><ele>148.0</ele><time>2026-03-21T11:42:52Z</time></trkpt><trkpt lat="40.75578870397363" lon="9.532542854224669"><ele>150.0</ele><time>2026-03-21T11:42:53Z</time></trkpt><trkpt lat="40.75571918676095" lon="9.53267828577315"><ele>150.0</ele><time>2026-03-21T11:42:54Z</time></trkpt><trkpt lat="40.755644004391705" lon="9.532805793450654"><ele>150.0</ele><time>2026-03-21T11:42:55Z</time></trkpt><trkpt lat="40.755564089173625" lon="9.532937722103313"><ele>150.0</ele><time>2026-03-21T11:42:56Z</time></trkpt><trkpt lat="40.755487630582564" lon="9.533066545805749"><ele>150.0</ele><time>2026-03-21T11:42:57Z</time></trkpt><trkpt lat="40.75541413678477" lon="9.53320682480431"><ele>149.75</ele><time>2026-03-21T11:42:58Z</time></trkpt><trkpt lat="40.755328049146925" lon="9.533357194650616"><ele>149.5</ele><time>2026-03-21T11:42:59Z</time></trkpt><trkpt lat="40.755247657008475" lon="9.53349971381926"><ele>149.25</ele><time>2026-03-21T11:43:00Z</time></trkpt><trkpt lat="40.75516676136951" lon="9.533623197457183"><ele>149.0</ele><time>2026-03-21T11:43:01Z</time></trkpt><trkpt lat="40.75509443689263" lon="9.533752357555228"><ele>149.5</ele><time>2026-03-21T11:43:02Z</time></trkpt><trkpt lat="40.75502461355369" lon="9.533877050827364"><ele>150.0</ele><time>2026-03-21T11:43:03Z</time></trkpt><trkpt lat="40.7549506850219" lon="9.534003612083813"><ele>150.5</ele><time>2026-03-21T11:43:04Z</time></trkpt><trkpt lat="40.75487829217126" lon="9.534135675715715"><ele>151.0</ele><time>2026-03-21T11:43:05Z</time></trkpt><trkpt lat="40.75477658588335" lon="9.534240465831537"><ele>151.0</ele><time>2026-03-21T11:43:06Z</time></trkpt><trkpt lat="40.75465442528115" lon="9.534310286140222"><ele>151.0</ele><time>2026-03-21T11:43:07Z</time></trkpt><trkpt lat="40.75454229465432" lon="9.534404487077067"><ele>151.0</ele><time>2026-03-21T11:43:08Z</time></trkpt><trkpt lat="40.75442643243766" lon="9.5344822762171"><ele>151.0</ele><time>2026-03-21T11:43:09Z</time></trkpt><trkpt lat="40.75431421815701" lon="9.534564320131091"><ele>152.5</ele><time>2026-03-21T11:43:10Z</time></trkpt><trkpt lat="40.75420309305101" lon="9.534643460132513"><ele>154.0</ele><time>2026-03-21T11:43:11Z</time></trkpt><trkpt lat="40.75409141463287" lon="9.534722978140419"><ele>155.5</ele><time>2026-03-21T11:43:12Z</time></trkpt><trkpt lat="40.75397837133394" lon="9.534803743066055"><ele>157.0</ele><time>2026-03-21T11:43:13Z</time></trkpt><trkpt lat="40.75386548868192" lon="9.534884318904973"><ele>157.0</ele><time>2026-03-21T11:43:14Z</time></trkpt><trkpt lat="40.75375693503558" lon="9.5349605024219"><ele>157.0</ele><time>2026-03-21T11:43:15Z</time></trkpt><trkpt lat="40.7536469658396" lon="9.535026276509303"><ele>157.0</ele><time>2026-03-21T11:43:16Z</time></trkpt><trkpt lat="40.753527018472326" lon="9.535072481232378"><ele>157.0</ele><time>2026-03-21T11:43:17Z</time></trkpt><trkpt lat="40.75340419856682" lon="9.535099800517365"><ele>157.25</ele><time>2026-03-21T11:43:18Z</time></trkpt><trkpt lat="40.75328214906978" lon="9.535127835901353"><ele>157.5</ele><time>2026-03-21T11:43:19Z</time></trkpt><trkpt lat="40.753155844190026" lon="9.53516461024927"><ele>157.75</ele><time>2026-03-21T11:43:20Z</time></trkpt><trkpt lat="40.7530308765094" lon="9.535209096461204"><ele>158.0</ele><time>2026-03-21T11:43:21Z</time></trkpt><trkpt lat="40.75290854081587" lon="9.535285636202584"><ele>159.0</ele><time>2026-03-21T11:43:22Z</time></trkpt><trkpt lat="40.75280683045139" lon="9.535393584206705"><ele>160.0</ele><time>2026-03-21T11:43:23Z</time></trkpt><trkpt lat="40.75272285365911" lon="9.535525972411948"><ele>161.0</ele><time>2026-03-21T11:43:24Z</time></trkpt><trkpt lat="40.752638930266755" lon="9.535654385647632"><ele>162.0</ele><time>2026-03-21T11:43:25Z</time></trkpt><trkpt lat="40.75255592277758" lon="9.535787006607423"><ele>162.25</ele><time>2026-03-21T11:43:26Z</time></trkpt><trkpt lat="40.75247116967807" lon="9.535920140456167"><ele>162.5</ele><time>2026-03-21T11:43:27Z</time></trkpt><trkpt lat="40.752389543888874" lon="9.536054730121668"><ele>162.75</ele><time>2026-03-21T11:43:28Z</time></trkpt><trkpt lat="40.75230220694154" lon="9.536187373185008"><ele>163.0</ele><time>2026-03-21T11:43:29Z</time></trkpt><trkpt lat="40.75220880436474" lon="9.536306285573637"><ele>163.5</ele><time>2026-03-21T11:43:30Z</time></trkpt><trkpt lat="40.752105909254084" lon="9.536391590770792"><ele>164.0</ele><time>2026-03-21T11:43:31Z</time></trkpt><trkpt lat="40.751987120344616" lon="9.536449078563601"><ele>164.5</ele><time>2026-03-21T11:43:32Z</time></trkpt><trkpt lat="40.751855704048445" lon="9.53647255907644"><ele>165.0</ele><time>2026-03-21T11:43:33Z</time></trkpt><trkpt lat="40.75172642973541" lon="9.536505221332172"><ele>165.0</ele><time>2026-03-21T11:43:34Z</time></trkpt><trkpt lat="40.75160487155549" lon="9.536546907289152"><ele>165.0</ele><time>2026-03-21T11:43:35Z</time></trkpt><trkpt lat="40.75147677684471" lon="9.536591436047171"><ele>165.0</ele><time>2026-03-21T11:43:36Z</time></trkpt><trkpt lat="40.75134346930509" lon="9.536636521154184"><ele>165.0</ele><time>2026-03-21T11:43:37Z</time></trkpt><trkpt lat="40.75120922079754" lon="9.536690081255582"><ele>165.0</ele><time>2026-03-21T11:43:38Z</time></trkpt><trkpt lat="40.75107554145801" lon="9.536754608490686"><ele>165.0</ele><time>2026-03-21T11:43:39Z</time></trkpt><trkpt lat="40.7509420632716" lon="9.536829217472963"><ele>165.0</ele><time>2026-03-21T11:43:40Z</time></trkpt><trkpt lat="40.750808922010904" lon="9.536903710816489"><ele>165.0</ele><time>2026-03-21T11:43:41Z</time></trkpt><trkpt lat="40.75067310300073" lon="9.536975379312178"><ele>165.5</ele><time>2026-03-21T11:43:42Z</time></trkpt><trkpt lat="40.75053752720461" lon="9.537046432296592"><ele>166.0</ele><time>2026-03-21T11:43:43Z</time></trkpt><trkpt lat="40.750404749996015" lon="9.537115251221149"><ele>166.5</ele><time>2026-03-21T11:43:44Z</time></trkpt><trkpt lat="40.75027155715803" lon="9.537190525831528"><ele>167.0</ele><time>2026-03-21T11:43:45Z</time></trkpt><trkpt lat="40.75013613730804" lon="9.537264318947571"><ele>168.5</ele><time>2026-03-21T11:43:46Z</time></trkpt><trkpt lat="40.75000665765994" lon="9.53734963465471"><ele>170.0</ele><time>2026-03-21T11:43:47Z</time></trkpt><trkpt lat="40.74988936290491" lon="9.53745129445219"><ele>171.5</ele><time>2026-03-21T11:43:48Z</time></trkpt><trkpt lat="40.74978574373525" lon="9.537583194853072"><ele>173.0</ele><time>2026-03-21T11:43:49Z</time></trkpt><trkpt lat="40.74968525133462" lon="9.5377121041303"><ele>173.0</ele><time>2026-03-21T11:43:50Z</time></trkpt><trkpt lat="40.749597284450964" lon="9.53785858589289"><ele>173.0</ele><time>2026-03-21T11:43:51Z</time></trkpt><trkpt lat="40.74950332323387" lon="9.538011363010911"><ele>173.0</ele><time>2026-03-21T11:43:52Z</time></trkpt><trkpt lat="40.749410622320795" lon="9.538156778244312"><ele>173.0</ele><time>2026-03-21T11:43:53Z</time></trkpt><trkpt lat="40.749313565398744" lon="9.538304767547002"><ele>174.5</ele><time>2026-03-21T11:43:54Z</time></trkpt><trkpt lat="40.749217589529195" lon="9.538448234681372"><ele>176.0</ele><time>2026-03-21T11:43:55Z</time></trkpt><trkpt lat="40.74912004948352" lon="9.53859287015441"><ele>177.5</ele><time>2026-03-21T11:43:56Z</time></trkpt><trkpt lat="40.74902357213259" lon="9.538735929802284"><ele>179.0</ele><time>2026-03-21T11:43:57Z</time></trkpt><trkpt lat="40.74894539818713" lon="9.538888551194503"><ele>180.0</ele><time>2026-03-21T11:43:58Z</time></trkpt><trkpt lat="40.74885566316792" lon="9.539022440010747"><ele>181.0</ele><time>2026-03-21T11:43:59Z</time></trkpt><trkpt lat="40.7487669510787" lon="9.539157411199794"><ele>182.0</ele><time>2026-03-21T11:44:00Z</time></trkpt><trkpt lat="40.74866596618646" lon="9.539278461401643"><ele>183.0</ele><time>2026-03-21T11:44:01Z</time></trkpt><trkpt lat="40.748577929909" lon="9.53941927833333"><ele>183.25</ele><time>2026-03-21T11:44:02Z</time></trkpt><trkpt lat="40.74850191844665" lon="9.539572035179903"><ele>183.5</ele><time>2026-03-21T11:44:03Z</time></trkpt><trkpt lat="40.74845754017406" lon="9.539750993012937"><ele>183.75</ele><time>2026-03-21T11:44:04Z</time></trkpt><trkpt lat="40.74843653284364" lon="9.539930408698524"><ele>184.0</ele><time>2026-03-21T11:44:05Z</time></trkpt><trkpt lat="40.748426224236646" lon="9.54010096015704"><ele>184.0</ele><time>2026-03-21T11:44:06Z</time></trkpt><trkpt lat="40.74841561985135" lon="9.540288464751445"><ele>184.0</ele><time>2026-03-21T11:44:07Z</time></trkpt><trkpt lat="40.74840350805763" lon="9.54047010712367"><ele>184.0</ele><time>2026-03-21T11:44:08Z</time></trkpt><trkpt lat="40.74839876638068" lon="9.540659197273744"><ele>184.0</ele><time>2026-03-21T11:44:09Z</time></trkpt><trkpt lat="40.748371106113694" lon="9.540835250368874"><ele>185.5</ele><time>2026-03-21T11:44:10Z</time></trkpt><trkpt lat="40.748337376126635" lon="9.541007585513327"><ele>187.0</ele><time>2026-03-21T11:44:11Z</time></trkpt><trkpt lat="40.748289159055375" lon="9.5411747914783"><ele>188.5</ele><time>2026-03-21T11:44:12Z</time></trkpt><trkpt lat="40.748275445368556" lon="9.541349986733653"><ele>190.0</ele><time>2026-03-21T11:44:13Z</time></trkpt><trkpt lat="40.74825171773774" lon="9.541519022064074"><ele>190.75</ele><time>2026-03-21T11:44:14Z</time></trkpt><trkpt lat="40.74825374962131" lon="9.541688398482204"><ele>191.5</ele><time>2026-03-21T11:44:15Z</time></trkpt><trkpt lat="40.74825738454331" lon="9.54186183189541"><ele>192.25</ele><time>2026-03-21T11:44:16Z</time></trkpt><trkpt lat="40.74825170890169" lon="9.542033053600466"><ele>193.0</ele><time>2026-03-21T11:44:17Z</time></trkpt><trkpt lat="40.74826516092561" lon="9.54220002630242"><ele>193.75</ele><time>2026-03-21T11:44:18Z</time></trkpt><trkpt lat="40.748277959207314" lon="9.542366607982443"><ele>194.5</ele><time>2026-03-21T11:44:19Z</time></trkpt><trkpt lat="40.74830496228172" lon="9.542534372903813"><ele>195.25</ele><time>2026-03-21T11:44:20Z</time></trkpt><trkpt lat="40.748314576074726" lon="9.542704360044606"><ele>196.0</ele><time>2026-03-21T11:44:21Z</time></trkpt><trkpt lat="40.74833022403331" lon="9.542872494562602"><ele>197.25</ele><time>2026-03-21T11:44:22Z</time></trkpt><trkpt lat="40.748340545209935" lon="9.54304018779356"><ele>198.5</ele><time>2026-03-21T11:44:23Z</time></trkpt><trkpt lat="40.748372721856875" lon="9.543202106565937"><ele>199.75</ele><time>2026-03-21T11:44:24Z</time></trkpt><trkpt lat="40.74841115527388" lon="9.54336379995001"><ele>201.0</ele><time>2026-03-21T11:44:25Z</time></trkpt><trkpt lat="40.74844513855121" lon="9.543525558089454"><ele>201.0</ele><time>2026-03-21T11:44:26Z</time></trkpt><trkpt lat="40.74847924947401" lon="9.543690113148221"><ele>201.0</ele><time>2026-03-21T11:44:27Z</time></trkpt><trkpt lat="40.74852142362797" lon="9.543850403432447"><ele>201.0</ele><time>2026-03-21T11:44:28Z</time></trkpt><trkpt lat="40.74856050168767" lon="9.54400905988812"><ele>201.0</ele><time>2026-03-21T11:44:29Z</time></trkpt><trkpt lat="40.74859960805688" lon="9.544167676274034"><ele>201.75</ele><time>2026-03-21T11:44:30Z</time></trkpt><trkpt lat="40.748639377452804" lon="9.544322434373324"><ele>202.5</ele><time>2026-03-21T11:44:31Z</time></trkpt><trkpt lat="40.748675157732386" lon="9.544471581093001"><ele>203.25</ele><time>2026-03-21T11:44:32Z</time></trkpt><trkpt lat="40.748705024662314" lon="9.54462043032182"><ele>204.0</ele><time>2026-03-21T11:44:33Z</time></trkpt><trkpt lat="40.74874569866375" lon="9.544773478622501"><ele>204.75</ele><time>2026-03-21T11:44:34Z</time></trkpt><trkpt lat="40.748766765940026" lon="9.544931632492833"><ele>205.5</ele><time>2026-03-21T11:44:35Z</time></trkpt><trkpt lat="40.74880131680628" lon="9.545079223473065"><ele>206.25</ele><time>2026-03-21T11:44:36Z</time></trkpt><trkpt lat="40.74883577643459" lon="9.545227736221307"><ele>207.0</ele><time>2026-03-21T11:44:37Z</time></trkpt><trkpt lat="40.74887014743816" lon="9.545375867063767"><ele>207.8</ele><time>2026-03-21T11:44:38Z</time></trkpt><trkpt lat="40.74890438026285" lon="9.545523402339581"><ele>208.6</ele><time>2026-03-21T11:44:39Z</time></trkpt><trkpt lat="40.748935176554255" lon="9.54566579448635"><ele>209.4</ele><time>2026-03-21T11:44:40Z</time></trkpt><trkpt lat="40.74894566145761" lon="9.545800906782615"><ele>210.20000000000002</ele><time>2026-03-21T11:44:41Z</time></trkpt><trkpt lat="40.74893869846052" lon="9.545922772761294"><ele>211.0</ele><time>2026-03-21T11:44:42Z</time></trkpt><trkpt lat="40.7489316905579" lon="9.546031641824406"><ele>210.99999999999997</ele><time>2026-03-21T11:44:43Z</time></trkpt><trkpt lat="40.74886900081564" lon="9.546116630869042"><ele>211.0</ele><time>2026-03-21T11:44:44Z</time></trkpt><trkpt lat="40.74881001993766" lon="9.54620930911445"><ele>211.0</ele><time>2026-03-21T11:44:45Z</time></trkpt><trkpt lat="40.748744697510965" lon="9.546300648165664"><ele>211.0</ele><time>2026-03-21T11:44:46Z</time></trkpt><trkpt lat="40.7486922350874" lon="9.54640033876545"><ele>210.99999999999997</ele><time>2026-03-21T11:44:47Z</time></trkpt><trkpt lat="40.74863255760663" lon="9.546459900743807"><ele>211.0</ele><time>2026-03-21T11:44:48Z</time></trkpt><trkpt lat="40.74856512628798" lon="9.54649119415291"><ele>213.49999999999997</ele><time>2026-03-21T11:44:49Z</time></trkpt><trkpt lat="40.748525204126814" lon="9.546574058346117"><ele>216.0</ele><time>2026-03-21T11:44:50Z</time></trkpt><trkpt lat="40.74847002710524" lon="9.546646940066923"><ele>218.5</ele><time>2026-03-21T11:44:51Z</time></trkpt><trkpt lat="40.74841951520463" lon="9.546724305991638"><ele>221.0</ele><time>2026-03-21T11:44:52Z</time></trkpt><trkpt lat="40.748388817448905" lon="9.54680721531182"><ele>223.49999999999997</ele><time>2026-03-21T11:44:53Z</time></trkpt><trkpt lat="40.748368931517355" lon="9.54690107333053"><ele>226.0</ele><time>2026-03-21T11:44:54Z</time></trkpt><trkpt lat="40.74835661349161" lon="9.547012672038433"><ele>226.0</ele><time>2026-03-21T11:44:55Z</time></trkpt><trkpt lat="40.74832394106687" lon="9.547118663767595"><ele>226.0</ele><time>2026-03-21T11:44:56Z</time></trkpt><trkpt lat="40.7479265638099" lon="9.546954165975837"><ele>226.0</ele><time>2026-03-21T11:44:58Z</time></trkpt><trkpt lat="40.74784223868285" lon="9.546874528522771"><ele>226.00000000000003</ele><time>2026-03-21T11:44:59Z</time></trkpt><trkpt lat="40.74776344104699" lon="9.546777972743001"><ele>226.00000000000003</ele><time>2026-03-21T11:45:00Z</time></trkpt><trkpt lat="40.747689531738466" lon="9.546683962161557"><ele>226.0</ele><time>2026-03-21T11:45:01Z</time></trkpt><trkpt lat="40.747609401067315" lon="9.546589881912562"><ele>226.0</ele><time>2026-03-21T11:45:02Z</time></trkpt><trkpt lat="40.74753133650977" lon="9.546496737921107"><ele>227.0</ele><time>2026-03-21T11:45:03Z</time></trkpt><trkpt lat="40.74745338630897" lon="9.546393294442861"><ele>228.00000000000003</ele><time>2026-03-21T11:45:04Z</time></trkpt><trkpt lat="40.74739345848992" lon="9.546292059698619"><ele>229.00000000000003</ele><time>2026-03-21T11:45:05Z</time></trkpt><trkpt lat="40.74733804236763" lon="9.546193555993337"><ele>230.0</ele><time>2026-03-21T11:45:06Z</time></trkpt><trkpt lat="40.747270385823725" lon="9.546108374531697"><ele>231.0</ele><time>2026-03-21T11:45:07Z</time></trkpt><trkpt lat="40.74719130990093" lon="9.546059953535508"><ele>231.0</ele><time>2026-03-21T11:45:08Z</time></trkpt><trkpt lat="40.74710543263315" lon="9.54603213939017"><ele>231.0</ele><time>2026-03-21T11:45:09Z</time></trkpt><trkpt lat="40.747032146490675" lon="9.546015187941984"><ele>231.0</ele><time>2026-03-21T11:45:10Z</time></trkpt><trkpt lat="40.746961682971495" lon="9.545988774594951"><ele>231.0</ele><time>2026-03-21T11:45:11Z</time></trkpt><trkpt lat="40.74689176322345" lon="9.545953091487084"><ele>231.0</ele><time>2026-03-21T11:45:12Z</time></trkpt><trkpt lat="40.74682605072147" lon="9.545913917824329"><ele>231.0</ele><time>2026-03-21T11:45:13Z</time></trkpt><trkpt lat="40.74676301229703" lon="9.545888410615404"><ele>231.0</ele><time>2026-03-21T11:45:14Z</time></trkpt><trkpt lat="40.74668988270576" lon="9.54587619135906"><ele>232.28571428571428</ele><time>2026-03-21T11:45:15Z</time></trkpt><trkpt lat="40.74661559968244" lon="9.545867143664076"><ele>233.57142857142856</ele><time>2026-03-21T11:45:16Z</time></trkpt><trkpt lat="40.74654911266106" lon="9.545846282989377"><ele>234.85714285714286</ele><time>2026-03-21T11:45:17Z</time></trkpt><trkpt lat="40.746477894222465" lon="9.545847909261322"><ele>236.14285714285714</ele><time>2026-03-21T11:45:18Z</time></trkpt><trkpt lat="40.74640411896256" lon="9.545874471889128"><ele>237.42857142857142</ele><time>2026-03-21T11:45:19Z</time></trkpt><trkpt lat="40.74634063641566" lon="9.54592658380948"><ele>238.71428571428572</ele><time>2026-03-21T11:45:20Z</time></trkpt><trkpt lat="40.746295988309875" lon="9.54601356735096"><ele>240.0</ele><time>2026-03-21T11:45:21Z</time></trkpt><trkpt lat="40.74626873684559" lon="9.546130198878252"><ele>243.4</ele><time>2026-03-21T11:45:22Z</time></trkpt><trkpt lat="40.74626467322085" lon="9.546264631954468"><ele>246.8</ele><time>2026-03-21T11:45:23Z</time></trkpt><trkpt lat="40.74626983083783" lon="9.54640511417232"><ele>250.2</ele><time>2026-03-21T11:45:24Z</time></trkpt><trkpt lat="40.746269414776336" lon="9.546546368555674"><ele>253.6</ele><time>2026-03-21T11:45:25Z</time></trkpt><trkpt lat="40.746274296956884" lon="9.546685035392855"><ele>257.0</ele><time>2026-03-21T11:45:26Z</time></trkpt><trkpt lat="40.746314210943595" lon="9.546819124476004"><ele>257.0</ele><time>2026-03-21T11:45:27Z</time></trkpt><trkpt lat="40.74636742904912" lon="9.546939154636563"><ele>257.0</ele><time>2026-03-21T11:45:28Z</time></trkpt><trkpt lat="40.746430662844624" lon="9.547040527823945"><ele>257.0</ele><time>2026-03-21T11:45:29Z</time></trkpt><trkpt lat="40.746482921116126" lon="9.547137361241496"><ele>257.0</ele><time>2026-03-21T11:45:30Z</time></trkpt><trkpt lat="40.746504602907414" lon="9.547247640115886"><ele>257.0</ele><time>2026-03-21T11:45:31Z</time></trkpt><trkpt lat="40.746493030081886" lon="9.547355902321685"><ele>259.4</ele><time>2026-03-21T11:45:32Z</time></trkpt><trkpt lat="40.74644640113515" lon="9.547451548247109"><ele>261.79999999999995</ele><time>2026-03-21T11:45:33Z</time></trkpt><trkpt lat="40.7463634014002" lon="9.547530279178213"><ele>264.2</ele><time>2026-03-21T11:45:34Z</time></trkpt><trkpt lat="40.74627629068826" lon="9.547579688304475"><ele>266.59999999999997</ele><time>2026-03-21T11:45:35Z</time></trkpt><trkpt lat="40.74619426556094" lon="9.547608076818923"><ele>269.0</ele><time>2026-03-21T11:45:36Z</time></trkpt><trkpt lat="40.74608558877913" lon="9.54764435776254"><ele>267.0</ele><time>2026-03-21T11:45:37Z</time></trkpt><trkpt lat="40.74599356259165" lon="9.547695706629623"><ele>265.0</ele><time>2026-03-21T11:45:38Z</time></trkpt><trkpt lat="40.74590619159003" lon="9.547741054376514"><ele>263.0</ele><time>2026-03-21T11:45:39Z</time></trkpt><trkpt lat="40.745841669305" lon="9.547815326988253"><ele>261.0</ele><time>2026-03-21T11:45:40Z</time></trkpt><trkpt lat="40.74581445818149" lon="9.547918695034298"><ele>259.0</ele><time>2026-03-21T11:45:41Z</time></trkpt><trkpt lat="40.74578365031478" lon="9.548044822474154"><ele>262.3333333333333</ele><time>2026-03-21T11:45:42Z</time></trkpt><trkpt lat="40.745764861909244" lon="9.548149741202852"><ele>265.66666666666663</ele><time>2026-03-21T11:45:43Z</time></trkpt><trkpt lat="40.74576532266703" lon="9.548236198485535"><ele>269.0</ele><time>2026-03-21T11:45:44Z</time></trkpt><trkpt lat="40.74573080232811" lon="9.54836792334632"><ele>272.3333333333333</ele><time>2026-03-21T11:45:46Z</time></trkpt><trkpt lat="40.7456775332948" lon="9.548435241376927"><ele>275.6666666666667</ele><time>2026-03-21T11:45:47Z</time></trkpt><trkpt lat="40.745609745571194" lon="9.548467132615224"><ele>279.0</ele><time>2026-03-21T11:45:48Z</time></trkpt><trkpt lat="40.74549141308083" lon="9.548466404649306"><ele>279.0</ele><time>2026-03-21T11:45:50Z</time></trkpt><trkpt lat="40.745409561695354" lon="9.548395191529814"><ele>279.0</ele><time>2026-03-21T11:45:52Z</time></trkpt><trkpt lat="40.74533657539639" lon="9.548278647315497"><ele>279.0</ele><time>2026-03-21T11:45:54Z</time></trkpt><trkpt lat="40.745262010300294" lon="9.548178266843644"><ele>279.0</ele><time>2026-03-21T11:45:56Z</time></trkpt><trkpt lat="40.74520399262595" lon="9.548143399101905"><ele>279.0</ele><time>2026-03-21T11:45:57Z</time></trkpt><trkpt lat="40.74512856477516" lon="9.548134431111995"><ele>278.2</ele><time>2026-03-21T11:45:58Z</time></trkpt><trkpt lat="40.74502921139165" lon="9.548198025036244"><ele>277.4</ele><time>2026-03-21T11:46:00Z</time></trkpt><trkpt lat="40.74498204982664" lon="9.548255345384069"><ele>276.6</ele><time>2026-03-21T11:46:01Z</time></trkpt><trkpt lat="40.74489558533433" lon="9.54835548400022"><ele>275.8</ele><time>2026-03-21T11:46:03Z</time></trkpt><trkpt lat="40.744821119801536" lon="9.548493622512847"><ele>275.0</ele><time>2026-03-21T11:46:05Z</time></trkpt><trkpt lat="40.74479611534694" lon="9.548577817332882"><ele>275.0</ele><time>2026-03-21T11:46:06Z</time></trkpt><trkpt lat="40.74477345703379" lon="9.548672755186814"><ele>275.0</ele><time>2026-03-21T11:46:07Z</time></trkpt><trkpt lat="40.74476734448004" lon="9.548765758012825"><ele>275.0</ele><time>2026-03-21T11:46:08Z</time></trkpt><trkpt lat="40.74477652255225" lon="9.548862617622868"><ele>275.0</ele><time>2026-03-21T11:46:09Z</time></trkpt><trkpt lat="40.74480557532611" lon="9.54893916428707"><ele>275.0</ele><time>2026-03-21T11:46:10Z</time></trkpt><trkpt lat="40.744847500692885" lon="9.549007755999602"><ele>275.0</ele><time>2026-03-21T11:46:11Z</time></trkpt><trkpt lat="40.7448958430953" lon="9.549071269395666"><ele>275.0</ele><time>2026-03-21T11:46:12Z</time></trkpt><trkpt lat="40.744944951392455" lon="9.549128132920849"><ele>277.6666666666667</ele><time>2026-03-21T11:46:13Z</time></trkpt><trkpt lat="40.745001082023414" lon="9.549179566760765"><ele>280.33333333333337</ele><time>2026-03-21T11:46:14Z</time></trkpt><trkpt lat="40.74505967707632" lon="9.549210727287742"><ele>283.0</ele><time>2026-03-21T11:46:15Z</time></trkpt><trkpt lat="40.74518366210425" lon="9.549186966993982"><ele>285.6666666666667</ele><time>2026-03-21T11:46:17Z</time></trkpt><trkpt lat="40.74525388728936" lon="9.549179730368099"><ele>288.3333333333333</ele><time>2026-03-21T11:46:18Z</time></trkpt><trkpt lat="40.74533675426393" lon="9.54916078311912"><ele>291.0</ele><time>2026-03-21T11:46:19Z</time></trkpt><trkpt lat="40.745421217356" lon="9.549141448509602"><ele>293.1666666666667</ele><time>2026-03-21T11:46:20Z</time></trkpt><trkpt lat="40.74550332357142" lon="9.549136551905981"><ele>295.3333333333333</ele><time>2026-03-21T11:46:21Z</time></trkpt><trkpt lat="40.74557137232971" lon="9.549138235729677"><ele>297.5</ele><time>2026-03-21T11:46:22Z</time></trkpt><trkpt lat="40.74567891622888" lon="9.549116381515653"><ele>299.66666666666663</ele><time>2026-03-21T11:46:24Z</time></trkpt><trkpt lat="40.74574222018392" lon="9.549111071023482"><ele>301.8333333333333</ele><time>2026-03-21T11:46:25Z</time></trkpt><trkpt lat="40.74585487712721" lon="9.54909157437177"><ele>304.0</ele><time>2026-03-21T11:46:27Z</time></trkpt><trkpt lat="40.74595709642275" lon="9.549029160915177"><ele>303.4</ele><time>2026-03-21T11:46:29Z</time></trkpt><trkpt lat="40.74605957603406" lon="9.548963841534798"><ele>302.79999999999995</ele><time>2026-03-21T11:46:31Z</time></trkpt><trkpt lat="40.74614281608844" lon="9.548869510890203"><ele>302.20000000000005</ele><time>2026-03-21T11:46:33Z</time></trkpt><trkpt lat="40.746217638169014" lon="9.548783701423986"><ele>301.6</ele><time>2026-03-21T11:46:35Z</time></trkpt><trkpt lat="40.74632203864483" lon="9.548703816312607"><ele>301.0</ele><time>2026-03-21T11:46:37Z</time></trkpt><trkpt lat="40.74643988706618" lon="9.548692165164322"><ele>301.0</ele><time>2026-03-21T11:46:39Z</time></trkpt><trkpt lat="40.74651698146791" lon="9.548778293267087"><ele>301.0</ele><time>2026-03-21T11:46:41Z</time></trkpt><trkpt lat="40.746562499425195" lon="9.548842146152163"><ele>301.0</ele><time>2026-03-21T11:46:42Z</time></trkpt><trkpt lat="40.74658830598943" lon="9.548940295758571"><ele>301.0</ele><time>2026-03-21T11:46:43Z</time></trkpt><trkpt lat="40.74658044696648" lon="9.549059598738642"><ele>301.0</ele><time>2026-03-21T11:46:44Z</time></trkpt><trkpt lat="40.74654251984818" lon="9.549140923163229"><ele>301.0</ele><time>2026-03-21T11:46:45Z</time></trkpt><trkpt lat="40.746459191985686" lon="9.549169796965721"><ele>301.0</ele><time>2026-03-21T11:46:46Z</time></trkpt><trkpt lat="40.746389097522396" lon="9.549172457507785"><ele>301.0</ele><time>2026-03-21T11:46:47Z</time></trkpt><trkpt lat="40.74631426871989" lon="9.549193306574262"><ele>301.0</ele><time>2026-03-21T11:46:48Z</time></trkpt><trkpt lat="40.74623888156316" lon="9.549222529616006"><ele>301.0</ele><time>2026-03-21T11:46:49Z</time></trkpt><trkpt lat="40.74616292063596" lon="9.549257744818698"><ele>301.0</ele><time>2026-03-21T11:46:50Z</time></trkpt><trkpt lat="40.746100535060144" lon="9.549299539369041"><ele>301.0</ele><time>2026-03-21T11:46:51Z</time></trkpt><trkpt lat="40.746039074577574" lon="9.54934430730728"><ele>301.0</ele><time>2026-03-21T11:46:52Z</time></trkpt><trkpt lat="40.74601073183047" lon="9.54949561505932"><ele>305.5</ele><time>2026-03-21T11:46:54Z</time></trkpt><trkpt lat="40.745996083301314" lon="9.549579542685876"><ele>310.0</ele><time>2026-03-21T11:46:55Z</time></trkpt><trkpt lat="40.745912147379926" lon="9.54963090002524"><ele>314.5</ele><time>2026-03-21T11:46:57Z</time></trkpt><trkpt lat="40.74584593621397" lon="9.549647403682245"><ele>319.0</ele><time>2026-03-21T11:47:00Z</time></trkpt><trkpt lat="40.745793875522786" lon="9.549740477160299"><ele>323.5</ele><time>2026-03-21T11:47:07Z</time></trkpt><trkpt lat="40.74571486272429" lon="9.549769553327508"><ele>328.0</ele><time>2026-03-21T11:47:09Z</time></trkpt><trkpt lat="40.74562250798017" lon="9.549869779858087"><ele>328.0</ele><time>2026-03-21T11:47:11Z</time></trkpt><trkpt lat="40.7455706082708" lon="9.549927649388954"><ele>328.0</ele><time>2026-03-21T11:47:12Z</time></trkpt><trkpt lat="40.74552881173" lon="9.550047226374074"><ele>328.0</ele><time>2026-03-21T11:47:14Z</time></trkpt><trkpt lat="40.745470753931215" lon="9.550129902048553"><ele>328.0</ele><time>2026-03-21T11:47:16Z</time></trkpt><trkpt lat="40.74536330885413" lon="9.55022864203092"><ele>328.0</ele><time>2026-03-21T11:47:18Z</time></trkpt><trkpt lat="40.74525558064148" lon="9.55031398966095"><ele>329.3333333333333</ele><time>2026-03-21T11:47:20Z</time></trkpt><trkpt lat="40.74521227357095" lon="9.550378581842322"><ele>330.66666666666663</ele><time>2026-03-21T11:47:21Z</time></trkpt><trkpt lat="40.74517030217376" lon="9.550450280795943"><ele>332.0</ele><time>2026-03-21T11:47:22Z</time></trkpt><trkpt lat="40.74513843999617" lon="9.550534258753677"><ele>333.3333333333333</ele><time>2026-03-21T11:47:23Z</time></trkpt><trkpt lat="40.74512930625209" lon="9.550620876896327"><ele>334.6666666666667</ele><time>2026-03-21T11:47:24Z</time></trkpt><trkpt lat="40.745154698987015" lon="9.550766452514983"><ele>336.0</ele><time>2026-03-21T11:47:26Z</time></trkpt><trkpt lat="40.74517905658275" lon="9.550869375440545"><ele>336.0</ele><time>2026-03-21T11:47:28Z</time></trkpt><trkpt lat="40.74518086215538" lon="9.550970062870718"><ele>336.0</ele><time>2026-03-21T11:47:30Z</time></trkpt><trkpt lat="40.74513076414835" lon="9.551114875076811"><ele>336.0</ele><time>2026-03-21T11:47:32Z</time></trkpt><trkpt lat="40.745076158215454" lon="9.551201311046269"><ele>336.0</ele><time>2026-03-21T11:47:33Z</time></trkpt><trkpt lat="40.74501136791757" lon="9.551272164233682"><ele>336.0</ele><time>2026-03-21T11:47:35Z</time></trkpt><trkpt lat="40.744922725061144" lon="9.551386640547465"><ele>340.3333333333333</ele><time>2026-03-21T11:47:38Z</time></trkpt><trkpt lat="40.74485584120113" lon="9.551461169291503"><ele>344.6666666666667</ele><time>2026-03-21T11:47:40Z</time></trkpt><trkpt lat="40.74478429843865" lon="9.551448244508897"><ele>349.0</ele><time>2026-03-21T11:47:42Z</time></trkpt><trkpt lat="40.7447028070615" lon="9.551553422472105"><ele>353.33333333333337</ele><time>2026-03-21T11:47:44Z</time></trkpt><trkpt lat="40.744661670933894" lon="9.551629853564293"><ele>357.6666666666667</ele><time>2026-03-21T11:47:46Z</time></trkpt><trkpt lat="40.744609283838955" lon="9.551713456024757"><ele>362.0</ele><time>2026-03-21T11:47:48Z</time></trkpt><trkpt lat="40.74455618515705" lon="9.551813193855084"><ele>362.0</ele><time>2026-03-21T11:47:50Z</time></trkpt><trkpt lat="40.74449876391781" lon="9.551940856079767"><ele>362.0</ele><time>2026-03-21T11:47:52Z</time></trkpt><trkpt lat="40.744445128755984" lon="9.552038458871305"><ele>362.0</ele><time>2026-03-21T11:47:54Z</time></trkpt><trkpt lat="40.74441399042444" lon="9.552157321369625"><ele>362.0</ele><time>2026-03-21T11:47:57Z</time></trkpt><trkpt lat="40.744385765537366" lon="9.552268131665121"><ele>362.0</ele><time>2026-03-21T11:47:59Z</time></trkpt><trkpt lat="40.74438329038573" lon="9.552366755968185"><ele>362.5</ele><time>2026-03-21T11:48:01Z</time></trkpt><trkpt lat="40.74435394479182" lon="9.55268372054287"><ele>363.0</ele><time>2026-03-21T11:48:04Z</time></trkpt><trkpt lat="40.74432593089291" lon="9.552802446639568"><ele>363.5</ele><time>2026-03-21T11:48:07Z</time></trkpt><trkpt lat="40.744405032476685" lon="9.552822548182757"><ele>364.0</ele><time>2026-03-21T11:48:14Z</time></trkpt><trkpt lat="40.74443684399621" lon="9.552739565426757"><ele>367.5</ele><time>2026-03-21T11:48:17Z</time></trkpt><trkpt lat="40.74445327369306" lon="9.55264391671703"><ele>371.0</ele><time>2026-03-21T11:48:18Z</time></trkpt><trkpt lat="40.74449630302938" lon="9.552543344178206"><ele>374.5</ele><time>2026-03-21T11:48:19Z</time></trkpt><trkpt lat="40.74453657028658" lon="9.55247710978655"><ele>378.0</ele><time>2026-03-21T11:48:20Z</time></trkpt><trkpt lat="40.74460587570956" lon="9.552469693410517"><ele>381.50000000000006</ele><time>2026-03-21T11:48:21Z</time></trkpt><trkpt lat="40.74462227822996" lon="9.552373118523818"><ele>385.0</ele><time>2026-03-21T11:48:23Z</time></trkpt><trkpt lat="40.74470440432057" lon="9.552308848446536"><ele>385.0</ele><time>2026-03-21T11:48:25Z</time></trkpt><trkpt lat="40.744863184592226" lon="9.552299113654659"><ele>385.0</ele><time>2026-03-21T11:48:29Z</time></trkpt><trkpt lat="40.74495789196018" lon="9.552200700072508"><ele>385.0</ele><time>2026-03-21T11:48:31Z</time></trkpt><trkpt lat="40.74503792386497" lon="9.552203747772474"><ele>385.0</ele><time>2026-03-21T11:48:33Z</time></trkpt><trkpt lat="40.74509810866818" lon="9.55226675917359"><ele>385.0</ele><time>2026-03-21T11:48:34Z</time></trkpt><trkpt lat="40.74512558532833" lon="9.55240958933335"><ele>385.0</ele><time>2026-03-21T11:48:36Z</time></trkpt><trkpt lat="40.74510257186442" lon="9.55250529047308"><ele>385.0</ele><time>2026-03-21T11:48:37Z</time></trkpt><trkpt lat="40.74507620119063" lon="9.552654547157626"><ele>385.0</ele><time>2026-03-21T11:48:39Z</time></trkpt><trkpt lat="40.745171179915154" lon="9.552697825311016"><ele>385.0</ele><time>2026-03-21T11:48:41Z</time></trkpt><trkpt lat="40.745260547899306" lon="9.552726728513758"><ele>385.0</ele><time>2026-03-21T11:48:43Z</time></trkpt><trkpt lat="40.74522963876801" lon="9.552814290613751"><ele>385.00000000000006</ele><time>2026-03-21T11:48:46Z</time></trkpt><trkpt lat="40.745149904307375" lon="9.552796130549265"><ele>385.0</ele><time>2026-03-21T11:48:48Z</time></trkpt><trkpt lat="40.74507350010769" lon="9.552775376965439"><ele>385.0</ele><time>2026-03-21T11:48:53Z</time></trkpt><trkpt lat="40.745002094990625" lon="9.552810920531952"><ele>385.0</ele><time>2026-03-21T11:48:58Z</time></trkpt><trkpt lat="40.74494258567848" lon="9.552871676528856"><ele>385.00000000000006</ele><time>2026-03-21T11:51:37Z</time></trkpt><trkpt lat="40.744891304781426" lon="9.552944477416295"><ele>385.0</ele><time>2026-03-21T11:51:38Z</time></trkpt><trkpt lat="40.74483181615568" lon="9.553034724781591"><ele>392.25</ele><time>2026-03-21T11:51:39Z</time></trkpt><trkpt lat="40.74473711840745" lon="9.553114136774497"><ele>399.5</ele><time>2026-03-21T11:51:40Z</time></trkpt><trkpt lat="40.744662263403505" lon="9.553225471987881"><ele>406.75</ele><time>2026-03-21T11:51:41Z</time></trkpt><trkpt lat="40.744561534479395" lon="9.553280454046115"><ele>414.0</ele><time>2026-03-21T11:51:42Z</time></trkpt><trkpt lat="40.74445282776332" lon="9.553333670688984"><ele>408.5</ele><time>2026-03-21T11:51:43Z</time></trkpt><trkpt lat="40.7443325512765" lon="9.553397116980603"><ele>403.0</ele><time>2026-03-21T11:51:44Z</time></trkpt><trkpt lat="40.74421416724914" lon="9.553475295499673"><ele>397.5</ele><time>2026-03-21T11:51:45Z</time></trkpt><trkpt lat="40.74411215767975" lon="9.553546772264895"><ele>392.0</ele><time>2026-03-21T11:51:46Z</time></trkpt><trkpt lat="40.74401874844522" lon="9.553616759372963"><ele>392.0</ele><time>2026-03-21T11:51:47Z</time></trkpt><trkpt lat="40.743924585246155" lon="9.55368107264418"><ele>392.0</ele><time>2026-03-21T11:51:48Z</time></trkpt><trkpt lat="40.743825023693155" lon="9.553724522947077"><ele>392.0</ele><time>2026-03-21T11:51:49Z</time></trkpt><trkpt lat="40.74372655742325" lon="9.553769993741367"><ele>392.0</ele><time>2026-03-21T11:51:50Z</time></trkpt><trkpt lat="40.743621005680374" lon="9.553814844764114"><ele>392.0</ele><time>2026-03-21T11:51:51Z</time></trkpt><trkpt lat="40.7435236197783" lon="9.553834846277946"><ele>394.75</ele><time>2026-03-21T11:51:52Z</time></trkpt><trkpt lat="40.74342685874404" lon="9.553930895828106"><ele>397.5</ele><time>2026-03-21T11:51:53Z</time></trkpt><trkpt lat="40.74337208371906" lon="9.554071964358798"><ele>400.25</ele><time>2026-03-21T11:51:54Z</time></trkpt><trkpt lat="40.743328757099" lon="9.554227613355069"><ele>403.0</ele><time>2026-03-21T11:51:55Z</time></trkpt><trkpt lat="40.74331846420102" lon="9.554387114219985"><ele>407.0</ele><time>2026-03-21T11:51:56Z</time></trkpt><trkpt lat="40.74331584175329" lon="9.554545396009255"><ele>411.0</ele><time>2026-03-21T11:51:57Z</time></trkpt><trkpt lat="40.743314583682505" lon="9.554677014394533"><ele>415.0</ele><time>2026-03-21T11:51:58Z</time></trkpt><trkpt lat="40.74330416057914" lon="9.554763834842408"><ele>419.0</ele><time>2026-03-21T11:51:59Z</time></trkpt><trkpt lat="40.743256957041105" lon="9.554897008140408"><ele>423.0</ele><time>2026-03-21T11:52:01Z</time></trkpt><trkpt lat="40.743192741116495" lon="9.55489217485599"><ele>423.0</ele><time>2026-03-21T11:52:02Z</time></trkpt><trkpt lat="40.74313126451694" lon="9.554849743935781"><ele>423.0</ele><time>2026-03-21T11:52:03Z</time></trkpt><trkpt lat="40.743068378239236" lon="9.554814295927718"><ele>423.0</ele><time>2026-03-21T11:52:04Z</time></trkpt><trkpt lat="40.74300304639426" lon="9.55481424276729"><ele>423.0</ele><time>2026-03-21T11:52:05Z</time></trkpt><trkpt lat="40.742931020238906" lon="9.554846437604215"><ele>423.0</ele><time>2026-03-21T11:52:06Z</time></trkpt><trkpt lat="40.74286949262345" lon="9.554936918957782"><ele>423.0</ele><time>2026-03-21T11:52:07Z</time></trkpt><trkpt lat="40.74285752312248" lon="9.555046387425755"><ele>423.0</ele><time>2026-03-21T11:52:08Z</time></trkpt><trkpt lat="40.74288545547113" lon="9.555156602427711"><ele>423.0</ele><time>2026-03-21T11:52:09Z</time></trkpt><trkpt lat="40.74293773120483" lon="9.555258967237892"><ele>423.0</ele><time>2026-03-21T11:52:10Z</time></trkpt><trkpt lat="40.7430107283745" lon="9.555359395853976"><ele>423.0</ele><time>2026-03-21T11:52:11Z</time></trkpt><trkpt lat="40.743109813420624" lon="9.55541685080054"><ele>423.0</ele><time>2026-03-21T11:52:12Z</time></trkpt><trkpt lat="40.743200748060154" lon="9.555445662448284"><ele>425.5</ele><time>2026-03-21T11:52:13Z</time></trkpt><trkpt lat="40.74326904411821" lon="9.555506915795066"><ele>428.0</ele><time>2026-03-21T11:52:14Z</time></trkpt><trkpt lat="40.74328863925906" lon="9.555590683996634"><ele>430.5</ele><time>2026-03-21T11:52:15Z</time></trkpt><trkpt lat="40.743275906373015" lon="9.555688505626325"><ele>433.0</ele><time>2026-03-21T11:52:16Z</time></trkpt><trkpt lat="40.74323992729868" lon="9.555780563498168"><ele>435.5</ele><time>2026-03-21T11:52:17Z</time></trkpt><trkpt lat="40.74319119028141" lon="9.555862568116996"><ele>438.0</ele><time>2026-03-21T11:52:18Z</time></trkpt><trkpt lat="40.74311294891301" lon="9.555903330946379"><ele>438.0</ele><time>2026-03-21T11:52:19Z</time></trkpt><trkpt lat="40.74302408373489" lon="9.555881572669998"><ele>437.99999999999994</ele><time>2026-03-21T11:52:20Z</time></trkpt><trkpt lat="40.742941872946005" lon="9.555816802876175"><ele>437.99999999999994</ele><time>2026-03-21T11:52:21Z</time></trkpt><trkpt lat="40.742869341573844" lon="9.55571780810279"><ele>438.0</ele><time>2026-03-21T11:52:22Z</time></trkpt><trkpt lat="40.7428293198516" lon="9.555578961228361"><ele>438.0</ele><time>2026-03-21T11:52:23Z</time></trkpt><trkpt lat="40.74278777086738" lon="9.555445707376943"><ele>436.5</ele><time>2026-03-21T11:52:24Z</time></trkpt><trkpt lat="40.742731732864456" lon="9.555309312322668"><ele>435.0</ele><time>2026-03-21T11:52:25Z</time></trkpt><trkpt lat="40.74267990308408" lon="9.555170286472164"><ele>433.5</ele><time>2026-03-21T11:52:26Z</time></trkpt><trkpt lat="40.74262546967159" lon="9.555033898239621"><ele>432.0</ele><time>2026-03-21T11:52:27Z</time></trkpt><trkpt lat="40.74259168743543" lon="9.554892814076897"><ele>432.0</ele><time>2026-03-21T11:52:28Z</time></trkpt><trkpt lat="40.74254245226464" lon="9.554773931822062"><ele>432.00000000000006</ele><time>2026-03-21T11:52:29Z</time></trkpt><trkpt lat="40.742443367458094" lon="9.554699318238072"><ele>432.00000000000006</ele><time>2026-03-21T11:52:30Z</time></trkpt><trkpt lat="40.74233533942747" lon="9.554643447170822"><ele>432.0</ele><time>2026-03-21T11:52:31Z</time></trkpt><trkpt lat="40.74225033246679" lon="9.554551410102851"><ele>432.0</ele><time>2026-03-21T11:52:32Z</time></trkpt><trkpt lat="40.74219666978865" lon="9.554419741630594"><ele>430.0</ele><time>2026-03-21T11:52:33Z</time></trkpt><trkpt lat="40.742176996017804" lon="9.554270258613041"><ele>428.00000000000006</ele><time>2026-03-21T11:52:34Z</time></trkpt><trkpt lat="40.74218941309151" lon="9.55412491783149"><ele>426.0</ele><time>2026-03-21T11:52:35Z</time></trkpt><trkpt lat="40.74223638003014" lon="9.553990512404047"><ele>424.0</ele><time>2026-03-21T11:52:36Z</time></trkpt><trkpt lat="40.74228822108708" lon="9.553869508601451"><ele>422.0</ele><time>2026-03-21T11:52:37Z</time></trkpt><trkpt lat="40.742304614439256" lon="9.553748420143837"><ele>420.6</ele><time>2026-03-21T11:52:38Z</time></trkpt><trkpt lat="40.74228013308367" lon="9.55363318745048"><ele>419.20000000000005</ele><time>2026-03-21T11:52:39Z</time></trkpt><trkpt lat="40.74222311074136" lon="9.553528024039402"><ele>417.8</ele><time>2026-03-21T11:52:40Z</time></trkpt><trkpt lat="40.74216402195211" lon="9.553421291753686"><ele>416.4</ele><time>2026-03-21T11:52:41Z</time></trkpt><trkpt lat="40.7421058856172" lon="9.553315747106076"><ele>415.0</ele><time>2026-03-21T11:52:42Z</time></trkpt><trkpt lat="40.74203120885216" lon="9.55322972616159"><ele>415.0</ele><time>2026-03-21T11:52:43Z</time></trkpt><trkpt lat="40.74194271286951" lon="9.553174326520002"><ele>415.0</ele><time>2026-03-21T11:52:44Z</time></trkpt><trkpt lat="40.74184192402448" lon="9.553137578033455"><ele>415.0</ele><time>2026-03-21T11:52:45Z</time></trkpt><trkpt lat="40.7417352795341" lon="9.553094052395315"><ele>415.0</ele><time>2026-03-21T11:52:46Z</time></trkpt><trkpt lat="40.7416330096535" lon="9.553064860693002"><ele>415.0</ele><time>2026-03-21T11:52:47Z</time></trkpt><trkpt lat="40.741521268513864" lon="9.553053358309715"><ele>425.25</ele><time>2026-03-21T11:52:48Z</time></trkpt><trkpt lat="40.7414063145796" lon="9.553047591888635"><ele>435.5</ele><time>2026-03-21T11:52:49Z</time></trkpt><trkpt lat="40.74129232043265" lon="9.553054545370468"><ele>445.75</ele><time>2026-03-21T11:52:50Z</time></trkpt><trkpt lat="40.74118141310275" lon="9.55306175493837"><ele>456.0</ele><time>2026-03-21T11:52:51Z</time></trkpt><trkpt lat="40.74107164600866" lon="9.55306994042709"><ele>457.0</ele><time>2026-03-21T11:52:52Z</time></trkpt><trkpt lat="40.74096239162174" lon="9.553090614299707"><ele>458.0</ele><time>2026-03-21T11:52:53Z</time></trkpt><trkpt lat="40.74085637042689" lon="9.553154902701838"><ele>459.0</ele><time>2026-03-21T11:52:54Z</time></trkpt><trkpt lat="40.74075703676195" lon="9.55322416677935"><ele>460.0</ele><time>2026-03-21T11:52:55Z</time></trkpt><trkpt lat="40.74066896304692" lon="9.55331044378603"><ele>461.0</ele><time>2026-03-21T11:52:56Z</time></trkpt><trkpt lat="40.740579291958895" lon="9.553397121971322"><ele>461.0</ele><time>2026-03-21T11:52:57Z</time></trkpt><trkpt lat="40.74049387251755" lon="9.553505562268638"><ele>461.0</ele><time>2026-03-21T11:52:58Z</time></trkpt><trkpt lat="40.740399138629" lon="9.553606765324254"><ele>461.0</ele><time>2026-03-21T11:52:59Z</time></trkpt><trkpt lat="40.74030406213625" lon="9.553689160705979"><ele>461.0</ele><time>2026-03-21T11:53:00Z</time></trkpt><trkpt lat="40.74021262409146" lon="9.553793274218512"><ele>462.25</ele><time>2026-03-21T11:53:01Z</time></trkpt><trkpt lat="40.7401272123716" lon="9.553915132176645"><ele>463.5</ele><time>2026-03-21T11:53:02Z</time></trkpt><trkpt lat="40.740022954169426" lon="9.554008017868709"><ele>464.75</ele><time>2026-03-21T11:53:03Z</time></trkpt><trkpt lat="40.73989420009025" lon="9.554052807689144"><ele>466.0</ele><time>2026-03-21T11:53:04Z</time></trkpt><trkpt lat="40.73976966228163" lon="9.554129495862771"><ele>466.0</ele><time>2026-03-21T11:53:05Z</time></trkpt><trkpt lat="40.73963592791312" lon="9.554186049476275"><ele>466.0</ele><time>2026-03-21T11:53:06Z</time></trkpt><trkpt lat="40.73950441359243" lon="9.554248543812896"><ele>466.0</ele><time>2026-03-21T11:53:07Z</time></trkpt><trkpt lat="40.739370851091074" lon="9.554326463311964"><ele>466.0</ele><time>2026-03-21T11:53:08Z</time></trkpt><trkpt lat="40.73922581243237" lon="9.554372882279718"><ele>464.0</ele><time>2026-03-21T11:53:09Z</time></trkpt><trkpt lat="40.73908881587787" lon="9.554429203807189"><ele>462.0</ele><time>2026-03-21T11:53:10Z</time></trkpt><trkpt lat="40.738950095172555" lon="9.55448401900096"><ele>460.0</ele><time>2026-03-21T11:53:11Z</time></trkpt><trkpt lat="40.738801532692015" lon="9.55450641461555"><ele>458.0</ele><time>2026-03-21T11:53:12Z</time></trkpt><trkpt lat="40.73865440072978" lon="9.554526319273515"><ele>459.0</ele><time>2026-03-21T11:53:13Z</time></trkpt><trkpt lat="40.73850665871778" lon="9.554538800870263"><ele>460.0</ele><time>2026-03-21T11:53:14Z</time></trkpt><trkpt lat="40.738357046328154" lon="9.554536218882351"><ele>461.0</ele><time>2026-03-21T11:53:15Z</time></trkpt><trkpt lat="40.73820614787415" lon="9.554519366189785"><ele>462.0</ele><time>2026-03-21T11:53:16Z</time></trkpt><trkpt lat="40.7380555693021" lon="9.554497707789684"><ele>462.0</ele><time>2026-03-21T11:53:17Z</time></trkpt><trkpt lat="40.73790534577857" lon="9.55447983497795"><ele>462.0</ele><time>2026-03-21T11:53:18Z</time></trkpt><trkpt lat="40.73775078958561" lon="9.554461353721523"><ele>462.0</ele><time>2026-03-21T11:53:19Z</time></trkpt><trkpt lat="40.737591097085534" lon="9.554443453689155"><ele>462.66666666666663</ele><time>2026-03-21T11:53:20Z</time></trkpt><trkpt lat="40.73743194571321" lon="9.554430596599248"><ele>463.3333333333333</ele><time>2026-03-21T11:53:21Z</time></trkpt><trkpt lat="40.73726957618003" lon="9.55442067894769"><ele>464.0</ele><time>2026-03-21T11:53:22Z</time></trkpt><trkpt lat="40.737102822106195" lon="9.554413119947899"><ele>464.0</ele><time>2026-03-21T11:53:23Z</time></trkpt><trkpt lat="40.73693451627089" lon="9.5544049759186"><ele>464.0</ele><time>2026-03-21T11:53:24Z</time></trkpt><trkpt lat="40.73678333002373" lon="9.554391218501781"><ele>464.0</ele><time>2026-03-21T11:53:25Z</time></trkpt><trkpt lat="40.73663065554979" lon="9.55437886822255"><ele>464.5</ele><time>2026-03-21T11:53:26Z</time></trkpt><trkpt lat="40.73648004212283" lon="9.554374393324753"><ele>465.0</ele><time>2026-03-21T11:53:27Z</time></trkpt><trkpt lat="40.73633264741268" lon="9.55437654451523"><ele>465.5</ele><time>2026-03-21T11:53:28Z</time></trkpt><trkpt lat="40.73618787628948" lon="9.554388534019585"><ele>466.0</ele><time>2026-03-21T11:53:29Z</time></trkpt><trkpt lat="40.73604703896805" lon="9.554407980409836"><ele>467.25</ele><time>2026-03-21T11:53:30Z</time></trkpt><trkpt lat="40.7359094204667" lon="9.554403160412907"><ele>468.5</ele><time>2026-03-21T11:53:31Z</time></trkpt><trkpt lat="40.73577569292662" lon="9.55434611464265"><ele>469.75</ele><time>2026-03-21T11:53:32Z</time></trkpt><trkpt lat="40.73565020924331" lon="9.554253737209224"><ele>471.0</ele><time>2026-03-21T11:53:33Z</time></trkpt><trkpt lat="40.73553562907535" lon="9.554139161694213"><ele>471.0</ele><time>2026-03-21T11:53:34Z</time></trkpt><trkpt lat="40.735419787815815" lon="9.55403297789993"><ele>471.0</ele><time>2026-03-21T11:53:35Z</time></trkpt><trkpt lat="40.73530335899266" lon="9.553932509196871"><ele>471.0</ele><time>2026-03-21T11:53:36Z</time></trkpt><trkpt lat="40.73518680004208" lon="9.553835939093815"><ele>471.0</ele><time>2026-03-21T11:53:37Z</time></trkpt><trkpt lat="40.73505881898698" lon="9.553769980146711"><ele>473.5</ele><time>2026-03-21T11:53:38Z</time></trkpt><trkpt lat="40.7349278761123" lon="9.553761391425873"><ele>476.0</ele><time>2026-03-21T11:53:39Z</time></trkpt><trkpt lat="40.73479182950051" lon="9.553802800854852"><ele>478.5</ele><time>2026-03-21T11:53:40Z</time></trkpt><trkpt lat="40.73467073464226" lon="9.553884569843635"><ele>481.0</ele><time>2026-03-21T11:53:41Z</time></trkpt><trkpt lat="40.734556673130655" lon="9.553951698361852"><ele>481.0</ele><time>2026-03-21T11:53:42Z</time></trkpt><trkpt lat="40.734450583982756" lon="9.554032153206396"><ele>481.0</ele><time>2026-03-21T11:53:43Z</time></trkpt><trkpt lat="40.734315742036884" lon="9.554040308034716"><ele>481.0</ele><time>2026-03-21T11:53:44Z</time></trkpt><trkpt lat="40.73417875748973" lon="9.554017938550702"><ele>481.0</ele><time>2026-03-21T11:53:45Z</time></trkpt><trkpt lat="40.734041795294594" lon="9.553989111829946"><ele>481.0</ele><time>2026-03-21T11:53:46Z</time></trkpt><trkpt lat="40.73390371944417" lon="9.553971035635376"><ele>481.0</ele><time>2026-03-21T11:53:47Z</time></trkpt><trkpt lat="40.73376280138869" lon="9.553971963129971"><ele>481.0</ele><time>2026-03-21T11:53:48Z</time></trkpt><trkpt lat="40.73362440815784" lon="9.554006351596648"><ele>481.0</ele><time>2026-03-21T11:53:49Z</time></trkpt><trkpt lat="40.73349250175743" lon="9.55405347045585"><ele>482.0</ele><time>2026-03-21T11:53:50Z</time></trkpt><trkpt lat="40.733355859311864" lon="9.55409021582778"><ele>483.0</ele><time>2026-03-21T11:53:51Z</time></trkpt><trkpt lat="40.733225707681605" lon="9.55412135185721"><ele>484.0</ele><time>2026-03-21T11:53:52Z</time></trkpt><trkpt lat="40.733094937338365" lon="9.554158685555445"><ele>485.0</ele><time>2026-03-21T11:53:53Z</time></trkpt><trkpt lat="40.73296509218789" lon="9.554182057302802"><ele>485.0</ele><time>2026-03-21T11:53:54Z</time></trkpt><trkpt lat="40.73283783615965" lon="9.554193725137152"><ele>485.0</ele><time>2026-03-21T11:53:55Z</time></trkpt><trkpt lat="40.73270836034385" lon="9.55420820489921"><ele>485.0</ele><time>2026-03-21T11:53:56Z</time></trkpt><trkpt lat="40.73257572222723" lon="9.554214460114377"><ele>485.0</ele><time>2026-03-21T11:53:57Z</time></trkpt><trkpt lat="40.7324368202281" lon="9.554189841457168"><ele>486.25</ele><time>2026-03-21T11:53:58Z</time></trkpt><trkpt lat="40.7322971588546" lon="9.554139810310332"><ele>487.5</ele><time>2026-03-21T11:53:59Z</time></trkpt><trkpt lat="40.732164851544034" lon="9.554059728569136"><ele>488.75</ele><time>2026-03-21T11:54:00Z</time></trkpt><trkpt lat="40.732043602122225" lon="9.553954950736712"><ele>490.0</ele><time>2026-03-21T11:54:01Z</time></trkpt><trkpt lat="40.73193489188771" lon="9.553828116015135"><ele>489.75</ele><time>2026-03-21T11:54:02Z</time></trkpt><trkpt lat="40.73183006954464" lon="9.553704020155994"><ele>489.5</ele><time>2026-03-21T11:54:03Z</time></trkpt><trkpt lat="40.73171604421433" lon="9.553606089301898"><ele>489.25</ele><time>2026-03-21T11:54:04Z</time></trkpt><trkpt lat="40.731599884853736" lon="9.553529620803484"><ele>489.0</ele><time>2026-03-21T11:54:05Z</time></trkpt><trkpt lat="40.731476415922565" lon="9.553473907199415"><ele>489.0</ele><time>2026-03-21T11:54:06Z</time></trkpt><trkpt lat="40.731353379572006" lon="9.55343967669306"><ele>489.0</ele><time>2026-03-21T11:54:07Z</time></trkpt><trkpt lat="40.73123191166718" lon="9.553409070144163"><ele>489.0</ele><time>2026-03-21T11:54:08Z</time></trkpt><trkpt lat="40.73111333018275" lon="9.553372466025106"><ele>489.0</ele><time>2026-03-21T11:54:09Z</time></trkpt><trkpt lat="40.730999353775765" lon="9.553331894979761"><ele>492.75</ele><time>2026-03-21T11:54:10Z</time></trkpt><trkpt lat="40.73088807382045" lon="9.55326996992469"><ele>496.5</ele><time>2026-03-21T11:54:11Z</time></trkpt><trkpt lat="40.73078395246066" lon="9.553184725671962"><ele>500.25</ele><time>2026-03-21T11:54:12Z</time></trkpt><trkpt lat="40.73068864744348" lon="9.553077599723297"><ele>504.0</ele><time>2026-03-21T11:54:13Z</time></trkpt><trkpt lat="40.73059780263092" lon="9.552963036340477"><ele>503.75</ele><time>2026-03-21T11:54:14Z</time></trkpt><trkpt lat="40.730495610321825" lon="9.552860106464705"><ele>503.5</ele><time>2026-03-21T11:54:15Z</time></trkpt><trkpt lat="40.730376457316666" lon="9.552776809662605"><ele>503.25</ele><time>2026-03-21T11:54:16Z</time></trkpt><trkpt lat="40.73024767596312" lon="9.552709144490306"><ele>503.0</ele><time>2026-03-21T11:54:17Z</time></trkpt><trkpt lat="40.730113884240815" lon="9.552659126542418"><ele>503.0</ele><time>2026-03-21T11:54:18Z</time></trkpt><trkpt lat="40.72997875203214" lon="9.552633865691776"><ele>503.0</ele><time>2026-03-21T11:54:19Z</time></trkpt><trkpt lat="40.72984849625576" lon="9.552617743443898"><ele>503.0</ele><time>2026-03-21T11:54:20Z</time></trkpt><trkpt lat="40.72972224659119" lon="9.552595877661703"><ele>503.0</ele><time>2026-03-21T11:54:21Z</time></trkpt><trkpt lat="40.72959442012285" lon="9.552568484783322"><ele>503.0</ele><time>2026-03-21T11:54:22Z</time></trkpt><trkpt lat="40.72946613001677" lon="9.552547139639032"><ele>503.0</ele><time>2026-03-21T11:54:23Z</time></trkpt><trkpt lat="40.729337221762655" lon="9.55252791219773"><ele>503.0</ele><time>2026-03-21T11:54:24Z</time></trkpt><trkpt lat="40.7292094246251" lon="9.55250388120657"><ele>503.0</ele><time>2026-03-21T11:54:25Z</time></trkpt><trkpt lat="40.72908413405641" lon="9.552478121722576"><ele>505.75</ele><time>2026-03-21T11:54:26Z</time></trkpt><trkpt lat="40.72895323964191" lon="9.552457126147976"><ele>508.5</ele><time>2026-03-21T11:54:27Z</time></trkpt><trkpt lat="40.72882139962453" lon="9.55243607129137"><ele>511.25</ele><time>2026-03-21T11:54:28Z</time></trkpt><trkpt lat="40.72868922283352" lon="9.552410261770975"><ele>514.0</ele><time>2026-03-21T11:54:29Z</time></trkpt><trkpt lat="40.72856041550974" lon="9.552391407601986"><ele>516.75</ele><time>2026-03-21T11:54:30Z</time></trkpt><trkpt lat="40.72842418625612" lon="9.552367088721976"><ele>519.5</ele><time>2026-03-21T11:54:31Z</time></trkpt><trkpt lat="40.72829787299921" lon="9.55232274094106"><ele>522.25</ele><time>2026-03-21T11:54:32Z</time></trkpt><trkpt lat="40.72818118030912" lon="9.552278535570276"><ele>525.0</ele><time>2026-03-21T11:54:33Z</time></trkpt><trkpt lat="40.7280683973383" lon="9.552232337824876"><ele>525.0</ele><time>2026-03-21T11:54:34Z</time></trkpt><trkpt lat="40.7279504549546" lon="9.552197392033252"><ele>525.0</ele><time>2026-03-21T11:54:35Z</time></trkpt><trkpt lat="40.72783284783543" lon="9.552183370738678"><ele>525.0</ele><time>2026-03-21T11:54:36Z</time></trkpt><trkpt lat="40.72772911885888" lon="9.552173831005026"><ele>525.0</ele><time>2026-03-21T11:54:37Z</time></trkpt><trkpt lat="40.72764304212943" lon="9.552143557911558"><ele>525.0</ele><time>2026-03-21T11:54:38Z</time></trkpt><trkpt lat="40.72756980997389" lon="9.552076376229834"><ele>524.6</ele><time>2026-03-21T11:54:39Z</time></trkpt><trkpt lat="40.7275142085299" lon="9.551973243738082"><ele>524.2</ele><time>2026-03-21T11:54:40Z</time></trkpt><trkpt lat="40.72746925568983" lon="9.5518472278241"><ele>523.8</ele><time>2026-03-21T11:54:41Z</time></trkpt><trkpt lat="40.72741219791637" lon="9.55172268791036"><ele>523.4</ele><time>2026-03-21T11:54:42Z</time></trkpt><trkpt lat="40.72734958884636" lon="9.551592270329376"><ele>523.0</ele><time>2026-03-21T11:54:43Z</time></trkpt><trkpt lat="40.727282806038744" lon="9.55145026017107"><ele>523.0</ele><time>2026-03-21T11:54:44Z</time></trkpt><trkpt lat="40.727218798353235" lon="9.551303771013506"><ele>523.0</ele><time>2026-03-21T11:54:45Z</time></trkpt><trkpt lat="40.72715466809899" lon="9.55115191546941"><ele>523.0</ele><time>2026-03-21T11:54:46Z</time></trkpt><trkpt lat="40.727087435776404" lon="9.550993027907566"><ele>523.0</ele><time>2026-03-21T11:54:47Z</time></trkpt><trkpt lat="40.727030541282986" lon="9.550823967801001"><ele>524.5</ele><time>2026-03-21T11:54:48Z</time></trkpt><trkpt lat="40.72697604850089" lon="9.550648576760645"><ele>526.0</ele><time>2026-03-21T11:54:49Z</time></trkpt><trkpt lat="40.72689794742516" lon="9.550491508251985"><ele>527.5</ele><time>2026-03-21T11:54:50Z</time></trkpt><trkpt lat="40.72679103328196" lon="9.550373336737364"><ele>529.0</ele><time>2026-03-21T11:54:51Z</time></trkpt><trkpt lat="40.726666412410864" lon="9.550296266022935"><ele>529.0</ele><time>2026-03-21T11:54:52Z</time></trkpt><trkpt lat="40.72653299269912" lon="9.550277298885252"><ele>529.0</ele><time>2026-03-21T11:54:53Z</time></trkpt><trkpt lat="40.726407528407975" lon="9.550311614253362"><ele>529.0</ele><time>2026-03-21T11:54:54Z</time></trkpt><trkpt lat="40.72630208102533" lon="9.550393891116057"><ele>529.0</ele><time>2026-03-21T11:54:55Z</time></trkpt><trkpt lat="40.72619939915441" lon="9.550468363085916"><ele>530.25</ele><time>2026-03-21T11:54:56Z</time></trkpt><trkpt lat="40.72612119029343" lon="9.550608145132848"><ele>531.5</ele><time>2026-03-21T11:54:57Z</time></trkpt><trkpt lat="40.726077589275455" lon="9.550772840398896"><ele>532.75</ele><time>2026-03-21T11:54:58Z</time></trkpt><trkpt lat="40.726063598754074" lon="9.550942624012174"><ele>534.0</ele><time>2026-03-21T11:54:59Z</time></trkpt><trkpt lat="40.72605156939241" lon="9.551110201602915"><ele>535.25</ele><time>2026-03-21T11:55:00Z</time></trkpt><trkpt lat="40.726041386941176" lon="9.551279657649616"><ele>536.5</ele><time>2026-03-21T11:55:01Z</time></trkpt><trkpt lat="40.72603050286957" lon="9.551461715039153"><ele>537.75</ele><time>2026-03-21T11:55:02Z</time></trkpt><trkpt lat="40.72601996116865" lon="9.551638585336281"><ele>539.0</ele><time>2026-03-21T11:55:03Z</time></trkpt><trkpt lat="40.7260093928996" lon="9.551826185970347"><ele>539.0</ele><time>2026-03-21T11:55:04Z</time></trkpt><trkpt lat="40.72600674207139" lon="9.552009545266372"><ele>539.0</ele><time>2026-03-21T11:55:05Z</time></trkpt><trkpt lat="40.726020719494215" lon="9.552190247785441"><ele>539.0</ele><time>2026-03-21T11:55:06Z</time></trkpt><trkpt lat="40.72601457346765" lon="9.552372456279873"><ele>539.0</ele><time>2026-03-21T11:55:07Z</time></trkpt><trkpt lat="40.72601684207813" lon="9.552544340426286"><ele>540.25</ele><time>2026-03-21T11:55:08Z</time></trkpt><trkpt lat="40.726016842081336" lon="9.55271524499655"><ele>541.5</ele><time>2026-03-21T11:55:09Z</time></trkpt><trkpt lat="40.726016842084135" lon="9.552886858439281"><ele>542.75</ele><time>2026-03-21T11:55:10Z</time></trkpt><trkpt lat="40.726021746833005" lon="9.55306437220008"><ele>544.0</ele><time>2026-03-21T11:55:11Z</time></trkpt><trkpt lat="40.72603858145117" lon="9.55323524158493"><ele>544.75</ele><time>2026-03-21T11:55:12Z</time></trkpt><trkpt lat="40.72606053504166" lon="9.553406954924045"><ele>545.5</ele><time>2026-03-21T11:55:13Z</time></trkpt><trkpt lat="40.72608435960033" lon="9.553583225364585"><ele>546.25</ele><time>2026-03-21T11:55:14Z</time></trkpt><trkpt lat="40.72610882357546" lon="9.553758643961839"><ele>547.0</ele><time>2026-03-21T11:55:15Z</time></trkpt><trkpt lat="40.72615058419963" lon="9.553929176001999"><ele>551.25</ele><time>2026-03-21T11:55:16Z</time></trkpt><trkpt lat="40.72617320347986" lon="9.554098139351778"><ele>555.5</ele><time>2026-03-21T11:55:17Z</time></trkpt><trkpt lat="40.72619674734345" lon="9.554270386314942"><ele>559.75</ele><time>2026-03-21T11:55:18Z</time></trkpt><trkpt lat="40.72621878781766" lon="9.554439743559652"><ele>564.0</ele><time>2026-03-21T11:55:19Z</time></trkpt><trkpt lat="40.72623966793069" lon="9.554610330300276"><ele>564.0</ele><time>2026-03-21T11:55:20Z</time></trkpt><trkpt lat="40.72626468448817" lon="9.554778689257539"><ele>564.0</ele><time>2026-03-21T11:55:21Z</time></trkpt><trkpt lat="40.72629232373048" lon="9.554942591799408"><ele>564.0</ele><time>2026-03-21T11:55:22Z</time></trkpt><trkpt lat="40.726298948061114" lon="9.55509724187052"><ele>564.0</ele><time>2026-03-21T11:55:23Z</time></trkpt><trkpt lat="40.72630545341663" lon="9.55524963932202"><ele>563.25</ele><time>2026-03-21T11:55:24Z</time></trkpt><trkpt lat="40.726296102020854" lon="9.555407475069416"><ele>562.5</ele><time>2026-03-21T11:55:25Z</time></trkpt><trkpt lat="40.72626189693227" lon="9.555564126124933"><ele>561.75</ele><time>2026-03-21T11:55:26Z</time></trkpt><trkpt lat="40.726214957782474" lon="9.555725705112787"><ele>561.0</ele><time>2026-03-21T11:55:27Z</time></trkpt><trkpt lat="40.72612258965889" lon="9.555852920062481"><ele>559.5</ele><time>2026-03-21T11:55:28Z</time></trkpt><trkpt lat="40.72603415092095" lon="9.555974757956346"><ele>558.0</ele><time>2026-03-21T11:55:29Z</time></trkpt><trkpt lat="40.72592648349289" lon="9.55604684705309"><ele>556.5</ele><time>2026-03-21T11:55:30Z</time></trkpt><trkpt lat="40.72581915534433" lon="9.556094600883167"><ele>555.0</ele><time>2026-03-21T11:55:31Z</time></trkpt><trkpt lat="40.72571180322958" lon="9.556121391740605"><ele>555.0</ele><time>2026-03-21T11:55:32Z</time></trkpt><trkpt lat="40.725594266092294" lon="9.556133082967447"><ele>555.0</ele><time>2026-03-21T11:55:33Z</time></trkpt><trkpt lat="40.7254673654804" lon="9.556117885017375"><ele>555.0</ele><time>2026-03-21T11:55:34Z</time></trkpt><trkpt lat="40.72533592141864" lon="9.556085946745176"><ele>555.0</ele><time>2026-03-21T11:55:35Z</time></trkpt><trkpt lat="40.72519676784127" lon="9.556059367901382"><ele>554.0</ele><time>2026-03-21T11:55:36Z</time></trkpt><trkpt lat="40.72505720070601" lon="9.55603599090777"><ele>553.0</ele><time>2026-03-21T11:55:37Z</time></trkpt><trkpt lat="40.724923271279806" lon="9.55600971314378"><ele>552.0</ele><time>2026-03-21T11:55:38Z</time></trkpt><trkpt lat="40.72479698887563" lon="9.555989439462389"><ele>551.0</ele><time>2026-03-21T11:55:39Z</time></trkpt><trkpt lat="40.724676981191976" lon="9.555972092918147"><ele>551.0</ele><time>2026-03-21T11:55:40Z</time></trkpt><trkpt lat="40.724567149119714" lon="9.555951682044176"><ele>551.0</ele><time>2026-03-21T11:55:41Z</time></trkpt><trkpt lat="40.724467486197476" lon="9.55593751321069"><ele>551.0</ele><time>2026-03-21T11:55:42Z</time></trkpt><trkpt lat="40.724387005027914" lon="9.555936337096767"><ele>551.0</ele><time>2026-03-21T11:55:43Z</time></trkpt><trkpt lat="40.72432089106244" lon="9.555939008642465"><ele>551.0</ele><time>2026-03-21T11:55:44Z</time></trkpt><trkpt lat="40.72420435606748" lon="9.555947656956258"><ele>551.0</ele><time>2026-03-21T11:55:46Z</time></trkpt><trkpt lat="40.72413584410898" lon="9.555956645052838"><ele>551.0</ele><time>2026-03-21T11:55:48Z</time></trkpt><trkpt lat="40.72405700076271" lon="9.555951546204374"><ele>551.0</ele><time>2026-03-21T11:56:04Z</time></trkpt><trkpt lat="40.72398656742861" lon="9.55597851048768"><ele>551.0</ele><time>2026-03-21T11:56:09Z</time></trkpt><trkpt lat="40.72391849716308" lon="9.555994899138451"><ele>551.0</ele><time>2026-03-21T11:56:10Z</time></trkpt><trkpt lat="40.72382753402617" lon="9.55601561514494"><ele>551.0</ele><time>2026-03-21T11:56:11Z</time></trkpt><trkpt lat="40.72373305782266" lon="9.556034905229179"><ele>551.0</ele><time>2026-03-21T11:56:12Z</time></trkpt><trkpt lat="40.72365477104633" lon="9.556050889776085"><ele>551.0</ele><time>2026-03-21T11:56:13Z</time></trkpt><trkpt lat="40.72356597906026" lon="9.556072398560506"><ele>551.0</ele><time>2026-03-21T11:56:15Z</time></trkpt><trkpt lat="40.723474549042685" lon="9.55609588026085"><ele>551.0</ele><time>2026-03-21T11:56:19Z</time></trkpt><trkpt lat="40.72338409414306" lon="9.556137403403902"><ele>551.0</ele><time>2026-03-21T11:56:22Z</time></trkpt><trkpt lat="40.723225267496005" lon="9.555691650962654"><ele>551.4</ele><time>2026-03-21T11:56:23Z</time></trkpt><trkpt lat="40.723167832573175" lon="9.555593420679147"><ele>551.8</ele><time>2026-03-21T11:56:24Z</time></trkpt><trkpt lat="40.72309725838562" lon="9.555498099742806"><ele>552.1999999999999</ele><time>2026-03-21T11:56:25Z</time></trkpt><trkpt lat="40.7230312367565" lon="9.555418793010615"><ele>552.6</ele><time>2026-03-21T11:56:26Z</time></trkpt><trkpt lat="40.72296857846232" lon="9.555370860885894"><ele>553.0</ele><time>2026-03-21T11:56:27Z</time></trkpt><trkpt lat="40.72289805217138" lon="9.555258741326806"><ele>553.3333333333334</ele><time>2026-03-21T11:56:31Z</time></trkpt><trkpt lat="40.7228361573234" lon="9.555172017760649"><ele>553.6666666666667</ele><time>2026-03-21T11:56:33Z</time></trkpt><trkpt lat="40.72275405481737" lon="9.555088945150851"><ele>554.0</ele><time>2026-03-21T11:56:35Z</time></trkpt><trkpt lat="40.72269758902478" lon="9.555007249129373"><ele>554.3333333333334</ele><time>2026-03-21T11:56:37Z</time></trkpt><trkpt lat="40.722629234692164" lon="9.554950862413955"><ele>554.6666666666666</ele><time>2026-03-21T11:56:39Z</time></trkpt><trkpt lat="40.722583402532194" lon="9.554861461762144"><ele>555.0</ele><time>2026-03-21T11:56:41Z</time></trkpt><trkpt lat="40.72254570163339" lon="9.55479494001349"><ele>556.5</ele><time>2026-03-21T11:56:43Z</time></trkpt><trkpt lat="40.722498323241496" lon="9.554694456398321"><ele>558.0</ele><time>2026-03-21T11:56:45Z</time></trkpt><trkpt lat="40.72243485305015" lon="9.55463427971466"><ele>559.5</ele><time>2026-03-21T11:56:48Z</time></trkpt><trkpt lat="40.7223523722808" lon="9.554576253579354"><ele>561.0</ele><time>2026-03-21T11:56:51Z</time></trkpt><trkpt lat="40.722304896300166" lon="9.554486489922613"><ele>562.5</ele><time>2026-03-21T11:56:55Z</time></trkpt><trkpt lat="40.722230614329604" lon="9.554405881871874"><ele>564.0</ele><time>2026-03-21T11:56:57Z</time></trkpt><trkpt lat="40.72214770316728" lon="9.554437426012568"><ele>564.0</ele><time>2026-03-21T11:56:59Z</time></trkpt><trkpt lat="40.7220926711668" lon="9.55449433863419"><ele>564.0</ele><time>2026-03-21T11:57:02Z</time></trkpt><trkpt lat="40.72200182354842" lon="9.554539013453205"><ele>564.0</ele><time>2026-03-21T11:57:06Z</time></trkpt><trkpt lat="40.72190231133759" lon="9.554610285941822"><ele>564.0</ele><time>2026-03-21T11:57:09Z</time></trkpt><trkpt lat="40.721820210722875" lon="9.554665187457024"><ele>564.0</ele><time>2026-03-21T11:57:11Z</time></trkpt><trkpt lat="40.721722635785426" lon="9.554672922421267"><ele>567.1666666666666</ele><time>2026-03-21T11:57:14Z</time></trkpt><trkpt lat="40.72162299371127" lon="9.554702214405326"><ele>570.3333333333334</ele><time>2026-03-21T11:57:16Z</time></trkpt><trkpt lat="40.72151782583808" lon="9.554760505755203"><ele>573.5</ele><time>2026-03-21T11:57:18Z</time></trkpt><trkpt lat="40.72145351828433" lon="9.554786632040525"><ele>576.6666666666667</ele><time>2026-03-21T11:57:19Z</time></trkpt><trkpt lat="40.72139011975937" lon="9.55482301021653"><ele>579.8333333333334</ele><time>2026-03-21T11:57:21Z</time></trkpt><trkpt lat="40.72131901732042" lon="9.554848756854817"><ele>583.0</ele><time>2026-03-21T11:57:23Z</time></trkpt><trkpt lat="40.7212344072973" lon="9.554831611935569"><ele>583.0</ele><time>2026-03-21T11:57:25Z</time></trkpt><trkpt lat="40.721151256222164" lon="9.55483465915301"><ele>583.0</ele><time>2026-03-21T11:57:27Z</time></trkpt><trkpt lat="40.72104949978875" lon="9.554806430272599"><ele>583.0</ele><time>2026-03-21T11:57:29Z</time></trkpt><trkpt lat="40.72097969522728" lon="9.554785330510395"><ele>583.0</ele><time>2026-03-21T11:57:31Z</time></trkpt><trkpt lat="40.72091557165592" lon="9.554773930662588"><ele>583.0</ele><time>2026-03-21T11:57:32Z</time></trkpt><trkpt lat="40.72081188011343" lon="9.554738249185904"><ele>583.0</ele><time>2026-03-21T11:57:34Z</time></trkpt><trkpt lat="40.72075282817705" lon="9.554688045389533"><ele>583.6666666666667</ele><time>2026-03-21T11:57:36Z</time></trkpt><trkpt lat="40.72068279079788" lon="9.554612449831376"><ele>584.3333333333334</ele><time>2026-03-21T11:57:38Z</time></trkpt><trkpt lat="40.72062778255246" lon="9.554518198649612"><ele>585.0</ele><time>2026-03-21T11:57:40Z</time></trkpt><trkpt lat="40.7205828553391" lon="9.55440385633549"><ele>585.6666666666666</ele><time>2026-03-21T11:57:42Z</time></trkpt><trkpt lat="40.720507251972705" lon="9.554395075028381"><ele>586.3333333333333</ele><time>2026-03-21T11:57:44Z</time></trkpt><trkpt lat="40.72041706733736" lon="9.554415301931838"><ele>587.0</ele><time>2026-03-21T11:57:47Z</time></trkpt><trkpt lat="40.72035028561973" lon="9.554435513028347"><ele>587.0</ele><time>2026-03-21T11:57:50Z</time></trkpt><trkpt lat="40.72027322118378" lon="9.55445936281176"><ele>587.0</ele><time>2026-03-21T11:57:52Z</time></trkpt><trkpt lat="40.72019115623226" lon="9.55451843417732"><ele>587.0</ele><time>2026-03-21T11:57:55Z</time></trkpt><trkpt lat="40.72011845398922" lon="9.55453220303256"><ele>587.0</ele><time>2026-03-21T11:57:59Z</time></trkpt><trkpt lat="40.72004816848765" lon="9.55450143915836"><ele>587.0</ele><time>2026-03-21T11:58:03Z</time></trkpt><trkpt lat="40.719970545001715" lon="9.55452849310653"><ele>587.0</ele><time>2026-03-21T11:58:06Z</time></trkpt><trkpt lat="40.71990747681627" lon="9.55453985837127"><ele>590.0</ele><time>2026-03-21T11:58:08Z</time></trkpt><trkpt lat="40.71982426620954" lon="9.55454542324133"><ele>593.0</ele><time>2026-03-21T11:58:12Z</time></trkpt><trkpt lat="40.71975316858899" lon="9.554561965015633"><ele>596.0</ele><time>2026-03-21T11:58:14Z</time></trkpt><trkpt lat="40.719680895961055" lon="9.554594273090224"><ele>599.0</ele><time>2026-03-21T11:58:16Z</time></trkpt><trkpt lat="40.719604759418" lon="9.554644143756422"><ele>602.0</ele><time>2026-03-21T11:58:19Z</time></trkpt><trkpt lat="40.719565076865194" lon="9.554711896255997"><ele>605.0</ele><time>2026-03-21T11:58:21Z</time></trkpt><trkpt lat="40.71954231373997" lon="9.554790539352581"><ele>608.0</ele><time>2026-03-21T11:58:25Z</time></trkpt><trkpt lat="40.719495862503976" lon="9.55488731035253"><ele>608.0</ele><time>2026-03-21T11:58:28Z</time></trkpt><trkpt lat="40.719443069162466" lon="9.554976732700954"><ele>608.0</ele><time>2026-03-21T11:58:31Z</time></trkpt><trkpt lat="40.71940472227027" lon="9.555073991833256"><ele>608.0</ele><time>2026-03-21T11:58:34Z</time></trkpt><trkpt lat="40.71936534755173" lon="9.555139784969603"><ele>608.0</ele><time>2026-03-21T11:58:35Z</time></trkpt><trkpt lat="40.71933140309774" lon="9.555228872107211"><ele>608.0</ele><time>2026-03-21T11:58:37Z</time></trkpt><trkpt lat="40.719302084557654" lon="9.555332827902458"><ele>608.0</ele><time>2026-03-21T11:58:39Z</time></trkpt><trkpt lat="40.71926757768914" lon="9.555419016268496"><ele>607.2857142857142</ele><time>2026-03-21T11:58:41Z</time></trkpt><trkpt lat="40.719246727333015" lon="9.555529149544542"><ele>606.5714285714287</ele><time>2026-03-21T11:58:44Z</time></trkpt><trkpt lat="40.71924171494693" lon="9.555612539957748"><ele>605.8571428571429</ele><time>2026-03-21T11:58:47Z</time></trkpt><trkpt lat="40.71928237062622" lon="9.555710336784582"><ele>605.1428571428571</ele><time>2026-03-21T11:58:50Z</time></trkpt><trkpt lat="40.71926390602624" lon="9.55579501413144"><ele>604.4285714285713</ele><time>2026-03-21T11:59:19Z</time></trkpt><trkpt lat="40.7192663133463" lon="9.555885854070576"><ele>603.7142857142858</ele><time>2026-03-21T11:59:21Z</time></trkpt><trkpt lat="40.71929162889184" lon="9.555973142387845"><ele>603.0</ele><time>2026-03-21T11:59:23Z</time></trkpt><trkpt lat="40.71930938885394" lon="9.55609171517099"><ele>603.0</ele><time>2026-03-21T11:59:26Z</time></trkpt><trkpt lat="40.71932830547547" lon="9.556181677695996"><ele>603.0</ele><time>2026-03-21T11:59:29Z</time></trkpt><trkpt lat="40.719383859605564" lon="9.55625820582827"><ele>603.0</ele><time>2026-03-21T11:59:31Z</time></trkpt><trkpt lat="40.719394696092095" lon="9.556345232198192"><ele>603.0</ele><time>2026-03-21T11:59:34Z</time></trkpt><trkpt lat="40.719426574591324" lon="9.556443421993878"><ele>603.0</ele><time>2026-03-21T11:59:36Z</time></trkpt><trkpt lat="40.71947459833013" lon="9.556504906887463"><ele>603.0</ele><time>2026-03-21T11:59:39Z</time></trkpt><trkpt lat="40.71954115144836" lon="9.556540972295254"><ele>603.0</ele><time>2026-03-21T11:59:43Z</time></trkpt><trkpt lat="40.719598151200735" lon="9.556602045146068"><ele>605.3333333333334</ele><time>2026-03-21T11:59:46Z</time></trkpt><trkpt lat="40.71966715836977" lon="9.556667578744541"><ele>607.6666666666666</ele><time>2026-03-21T11:59:48Z</time></trkpt><trkpt lat="40.71966855017812" lon="9.556776411085536"><ele>610.0</ele><time>2026-03-21T11:59:53Z</time></trkpt><trkpt lat="40.71966480431858" lon="9.556871633021986"><ele>612.3333333333333</ele><time>2026-03-21T11:59:55Z</time></trkpt><trkpt lat="40.71967624555734" lon="9.556971683430712"><ele>614.6666666666666</ele><time>2026-03-21T11:59:57Z</time></trkpt><trkpt lat="40.71966531526947" lon="9.557086530471752"><ele>617.0</ele><time>2026-03-21T11:59:59Z</time></trkpt><trkpt lat="40.71967548283703" lon="9.557206694938719"><ele>618.3333333333333</ele><time>2026-03-21T12:00:01Z</time></trkpt><trkpt lat="40.719652633839644" lon="9.557329454154923"><ele>619.6666666666666</ele><time>2026-03-21T12:00:04Z</time></trkpt><trkpt lat="40.71963785327012" lon="9.557438418029175"><ele>621.0</ele><time>2026-03-21T12:00:06Z</time></trkpt><trkpt lat="40.719635406642624" lon="9.557596201197306"><ele>622.3333333333334</ele><time>2026-03-21T12:00:17Z</time></trkpt><trkpt lat="40.719629864729434" lon="9.55768106558147"><ele>623.6666666666667</ele><time>2026-03-21T12:00:58Z</time></trkpt><trkpt lat="40.71960854922057" lon="9.557776463625057"><ele>625.0</ele><time>2026-03-21T12:01:01Z</time></trkpt><trkpt lat="40.71957338126511" lon="9.557856028582549"><ele>626.1666666666667</ele><time>2026-03-21T12:01:03Z</time></trkpt><trkpt lat="40.719564857382096" lon="9.557941447505083"><ele>627.3333333333334</ele><time>2026-03-21T12:01:11Z</time></trkpt><trkpt lat="40.7195175147007" lon="9.558003338949332"><ele>628.5</ele><time>2026-03-21T12:01:20Z</time></trkpt><trkpt lat="40.719471363974584" lon="9.55808798052021"><ele>629.6666666666666</ele><time>2026-03-21T12:01:23Z</time></trkpt><trkpt lat="40.71940113315671" lon="9.558170395925815"><ele>630.8333333333333</ele><time>2026-03-21T12:01:26Z</time></trkpt><trkpt lat="40.71934366752643" lon="9.558219193658436"><ele>632.0</ele><time>2026-03-21T12:01:28Z</time></trkpt><trkpt lat="40.71928339748898" lon="9.558282482248341"><ele>632.1428571428572</ele><time>2026-03-21T12:01:30Z</time></trkpt><trkpt lat="40.719217039010445" lon="9.558323686199765"><ele>632.2857142857143</ele><time>2026-03-21T12:01:33Z</time></trkpt><trkpt lat="40.71914446354886" lon="9.558332595300877"><ele>632.4285714285714</ele><time>2026-03-21T12:01:35Z</time></trkpt><trkpt lat="40.719082749342554" lon="9.558351121371443"><ele>632.5714285714287</ele><time>2026-03-21T12:01:37Z</time></trkpt><trkpt lat="40.71902919177554" lon="9.558411851716954"><ele>632.7142857142858</ele><time>2026-03-21T12:01:41Z</time></trkpt><trkpt lat="40.71904421990525" lon="9.558501194996008"><ele>632.8571428571429</ele><time>2026-03-21T12:01:45Z</time></trkpt><trkpt lat="40.71907673020764" lon="9.558593499188328"><ele>633.0</ele><time>2026-03-21T12:01:48Z</time></trkpt><trkpt lat="40.71913494746178" lon="9.558636350795247"><ele>636.0</ele><time>2026-03-21T12:01:50Z</time></trkpt><trkpt lat="40.719101938870885" lon="9.558729268005663"><ele>639.0</ele><time>2026-03-21T12:01:54Z</time></trkpt><trkpt lat="40.71902547396547" lon="9.558781337340422"><ele>642.0</ele><time>2026-03-21T12:01:57Z</time></trkpt><trkpt lat="40.71897019231992" lon="9.558821562286246"><ele>645.0</ele><time>2026-03-21T12:02:04Z</time></trkpt><trkpt lat="40.71891226318867" lon="9.558891229179114"><ele>648.0</ele><time>2026-03-21T12:02:10Z</time></trkpt><trkpt lat="40.718861633058836" lon="9.558976172721348"><ele>651.0</ele><time>2026-03-21T12:02:14Z</time></trkpt><trkpt lat="40.7188126560923" lon="9.559033380843312"><ele>651.0</ele><time>2026-03-21T12:02:17Z</time></trkpt><trkpt lat="40.71878219833698" lon="9.55910857758705"><ele>651.0</ele><time>2026-03-21T12:02:20Z</time></trkpt><trkpt lat="40.71873520515169" lon="9.559197659304296"><ele>651.0</ele><time>2026-03-21T12:02:24Z</time></trkpt><trkpt lat="40.718727171332404" lon="9.559336174110598"><ele>651.0</ele><time>2026-03-21T12:02:26Z</time></trkpt><trkpt lat="40.71869384460918" lon="9.559434927597295"><ele>651.0</ele><time>2026-03-21T12:02:28Z</time></trkpt><trkpt lat="40.718668867708104" lon="9.559536465740846"><ele>651.0</ele><time>2026-03-21T12:02:31Z</time></trkpt><trkpt lat="40.71864159021447" lon="9.55966601016103"><ele>653.0</ele><time>2026-03-21T12:02:35Z</time></trkpt><trkpt lat="40.71863037074295" lon="9.559763416299875"><ele>655.0</ele><time>2026-03-21T12:02:37Z</time></trkpt><trkpt lat="40.71864753106756" lon="9.55985032051747"><ele>657.0</ele><time>2026-03-21T12:02:39Z</time></trkpt><trkpt lat="40.71868609088649" lon="9.559925218342498"><ele>659.0</ele><time>2026-03-21T12:02:41Z</time></trkpt><trkpt lat="40.7186927694364" lon="9.560015556608214"><ele>661.0</ele><time>2026-03-21T12:03:48Z</time></trkpt><trkpt lat="40.718647503530114" lon="9.56010232230483"><ele>663.0</ele><time>2026-03-21T12:03:51Z</time></trkpt><trkpt lat="40.71863653414732" lon="9.560248708885819"><ele>663.0</ele><time>2026-03-21T12:03:54Z</time></trkpt><trkpt lat="40.71861864238057" lon="9.560355684032478"><ele>663.0</ele><time>2026-03-21T12:03:56Z</time></trkpt><trkpt lat="40.718569578221455" lon="9.560449726221174"><ele>663.0</ele><time>2026-03-21T12:04:00Z</time></trkpt><trkpt lat="40.71853218168348" lon="9.560529128845314"><ele>663.0</ele><time>2026-03-21T12:04:02Z</time></trkpt><trkpt lat="40.718505287822055" lon="9.560645626350027"><ele>663.0</ele><time>2026-03-21T12:04:04Z</time></trkpt><trkpt lat="40.718435386881595" lon="9.560688785535202"><ele>663.0</ele><time>2026-03-21T12:04:07Z</time></trkpt><trkpt lat="40.71838402703925" lon="9.560741972716698"><ele>662.1428571428571</ele><time>2026-03-21T12:04:11Z</time></trkpt><trkpt lat="40.71832045237539" lon="9.560758078478298"><ele>661.2857142857142</ele><time>2026-03-21T12:04:16Z</time></trkpt><trkpt lat="40.71823949198709" lon="9.560782728935058"><ele>660.4285714285713</ele><time>2026-03-21T12:04:19Z</time></trkpt><trkpt lat="40.71819509674296" lon="9.560847236092556"><ele>659.5714285714286</ele><time>2026-03-21T12:04:23Z</time></trkpt><trkpt lat="40.71812353915479" lon="9.560839397504497"><ele>658.7142857142858</ele><time>2026-03-21T12:04:26Z</time></trkpt><trkpt lat="40.71805725468144" lon="9.56090268041242"><ele>657.8571428571428</ele><time>2026-03-21T12:04:30Z</time></trkpt><trkpt lat="40.71801910962052" lon="9.56098794035277"><ele>657.0</ele><time>2026-03-21T12:04:34Z</time></trkpt><trkpt lat="40.717957628700574" lon="9.561068302434782"><ele>657.0</ele><time>2026-03-21T12:04:37Z</time></trkpt><trkpt lat="40.717930339427085" lon="9.561185418763822"><ele>657.0</ele><time>2026-03-21T12:04:40Z</time></trkpt><trkpt lat="40.71787922250917" lon="9.561274914827926"><ele>657.0</ele><time>2026-03-21T12:04:43Z</time></trkpt><trkpt lat="40.717825281789686" lon="9.56135584804334"><ele>657.0</ele><time>2026-03-21T12:04:45Z</time></trkpt><trkpt lat="40.71779596433419" lon="9.561431095789972"><ele>657.0</ele><time>2026-03-21T12:04:47Z</time></trkpt><trkpt lat="40.717751217874216" lon="9.561544238437339"><ele>657.0</ele><time>2026-03-21T12:04:50Z</time></trkpt><trkpt lat="40.71773715597223" lon="9.561650077234283"><ele>657.0</ele><time>2026-03-21T12:04:53Z</time></trkpt><trkpt lat="40.71769246813791" lon="9.561749226762132"><ele>657.0</ele><time>2026-03-21T12:04:56Z</time></trkpt><trkpt lat="40.717666127432636" lon="9.561833223561973"><ele>657.0</ele><time>2026-03-21T12:04:58Z</time></trkpt><trkpt lat="40.71761430391794" lon="9.56190212785866"><ele>657.0</ele><time>2026-03-21T12:05:00Z</time></trkpt><trkpt lat="40.71757668671327" lon="9.56201234829744"><ele>657.0</ele><time>2026-03-21T12:05:03Z</time></trkpt><trkpt lat="40.717539330653636" lon="9.562081124090462"><ele>657.0</ele><time>2026-03-21T12:05:06Z</time></trkpt><trkpt lat="40.71750677937301" lon="9.562174024307406"><ele>657.0</ele><time>2026-03-21T12:05:10Z</time></trkpt><trkpt lat="40.7174806126803" lon="9.56226266635722"><ele>657.0</ele><time>2026-03-21T12:05:13Z</time></trkpt><trkpt lat="40.71748401765399" lon="9.562386198359297"><ele>657.0</ele><time>2026-03-21T12:05:16Z</time></trkpt><trkpt lat="40.71748232255622" lon="9.562474238716193"><ele>657.0</ele><time>2026-03-21T12:05:18Z</time></trkpt><trkpt lat="40.717484375672" lon="9.56256895346279"><ele>657.0</ele><time>2026-03-21T12:05:29Z</time></trkpt><trkpt lat="40.717498782258865" lon="9.562651054169178"><ele>657.0</ele><time>2026-03-21T12:05:31Z</time></trkpt><trkpt lat="40.71749706658867" lon="9.56277273557335"><ele>656.1666666666666</ele><time>2026-03-21T12:05:35Z</time></trkpt><trkpt lat="40.71751135969259" lon="9.562878872390801"><ele>655.3333333333334</ele><time>2026-03-21T12:05:37Z</time></trkpt><trkpt lat="40.717548262755514" lon="9.562977479038503"><ele>654.5</ele><time>2026-03-21T12:05:40Z</time></trkpt><trkpt lat="40.717622210392854" lon="9.56301434526407"><ele>653.6666666666667</ele><time>2026-03-21T12:05:45Z</time></trkpt><trkpt lat="40.717686445126276" lon="9.563037461776563"><ele>652.8333333333334</ele><time>2026-03-21T12:05:48Z</time></trkpt><trkpt lat="40.71774928087619" lon="9.563088766929388"><ele>652.0</ele><time>2026-03-21T12:05:50Z</time></trkpt><trkpt lat="40.717817422506435" lon="9.563118541547592"><ele>655.2857142857143</ele><time>2026-03-21T12:05:52Z</time></trkpt><trkpt lat="40.71786392683956" lon="9.563190351195146"><ele>658.5714285714286</ele><time>2026-03-21T12:05:54Z</time></trkpt><trkpt lat="40.71792996711639" lon="9.563211104997015"><ele>661.8571428571429</ele><time>2026-03-21T12:05:56Z</time></trkpt><trkpt lat="40.71797853601577" lon="9.56326524352378"><ele>665.1428571428571</ele><time>2026-03-21T12:05:58Z</time></trkpt><trkpt lat="40.718042253563894" lon="9.563346815509915"><ele>668.4285714285714</ele><time>2026-03-21T12:06:01Z</time></trkpt><trkpt lat="40.71807501699498" lon="9.563421806938951"><ele>671.7142857142857</ele><time>2026-03-21T12:06:07Z</time></trkpt><trkpt lat="40.71811360576362" lon="9.563497721363685"><ele>675.0</ele><time>2026-03-21T12:06:11Z</time></trkpt><trkpt lat="40.7181595735696" lon="9.563554585993511"><ele>675.0</ele><time>2026-03-21T12:06:13Z</time></trkpt><trkpt lat="40.718212295882836" lon="9.563629862334162"><ele>675.0</ele><time>2026-03-21T12:06:34Z</time></trkpt><trkpt lat="40.71823943346894" lon="9.563710521359143"><ele>675.0</ele><time>2026-03-21T12:06:40Z</time></trkpt><trkpt lat="40.71833081711255" lon="9.563724775482223"><ele>675.0</ele><time>2026-03-21T12:06:43Z</time></trkpt><trkpt lat="40.71838219275868" lon="9.563787292929208"><ele>675.0</ele><time>2026-03-21T12:06:46Z</time></trkpt><trkpt lat="40.71844396127498" lon="9.563847233004223"><ele>675.0</ele><time>2026-03-21T12:06:49Z</time></trkpt><trkpt lat="40.71847601434025" lon="9.563941151711903"><ele>674.0</ele><time>2026-03-21T12:06:51Z</time></trkpt><trkpt lat="40.718528604639296" lon="9.564010596620331"><ele>673.0</ele><time>2026-03-21T12:06:53Z</time></trkpt><trkpt lat="40.718594351454406" lon="9.564054299260352"><ele>672.0</ele><time>2026-03-21T12:06:55Z</time></trkpt><trkpt lat="40.718690143499" lon="9.564080381186187"><ele>671.0</ele><time>2026-03-21T12:06:57Z</time></trkpt><trkpt lat="40.71866109907297" lon="9.56415417602253"><ele>670.0</ele><time>2026-03-21T12:07:02Z</time></trkpt><trkpt lat="40.71864710478233" lon="9.56424183464789"><ele>669.0</ele><time>2026-03-21T12:07:08Z</time></trkpt><trkpt lat="40.718610654851034" lon="9.564334811041457"><ele>668.1428571428571</ele><time>2026-03-21T12:07:14Z</time></trkpt><trkpt lat="40.71856448027758" lon="9.564404079462951"><ele>667.2857142857142</ele><time>2026-03-21T12:07:17Z</time></trkpt><trkpt lat="40.71851161025353" lon="9.564456209057354"><ele>666.4285714285713</ele><time>2026-03-21T12:07:23Z</time></trkpt><trkpt lat="40.71847615146742" lon="9.564540257041214"><ele>665.5714285714286</ele><time>2026-03-21T12:07:31Z</time></trkpt><trkpt lat="40.71843347191812" lon="9.564619741599248"><ele>664.7142857142857</ele><time>2026-03-21T12:07:35Z</time></trkpt><trkpt lat="40.71836872976902" lon="9.564675221729635"><ele>663.8571428571428</ele><time>2026-03-21T12:07:40Z</time></trkpt><trkpt lat="40.71833870380443" lon="9.5647656440446"><ele>663.0</ele><time>2026-03-21T12:07:44Z</time></trkpt><trkpt lat="40.71831154450795" lon="9.564842899240514"><ele>661.5</ele><time>2026-03-21T12:07:51Z</time></trkpt><trkpt lat="40.7183300113643" lon="9.5649277312814"><ele>660.0</ele><time>2026-03-21T12:07:57Z</time></trkpt><trkpt lat="40.71838650059531" lon="9.565010650709022"><ele>658.5</ele><time>2026-03-21T12:08:02Z</time></trkpt><trkpt lat="40.7184684006223" lon="9.565053124716549"><ele>657.0</ele><time>2026-03-21T12:08:05Z</time></trkpt><trkpt lat="40.718495024411226" lon="9.565151480212137"><ele>655.5</ele><time>2026-03-21T12:08:09Z</time></trkpt><trkpt lat="40.71855564771578" lon="9.565206210365387"><ele>654.0</ele><time>2026-03-21T12:08:14Z</time></trkpt><trkpt lat="40.71858905217666" lon="9.565279264484083"><ele>653.0</ele><time>2026-03-21T12:08:17Z</time></trkpt><trkpt lat="40.718611477250306" lon="9.565374954027698"><ele>652.0</ele><time>2026-03-21T12:08:21Z</time></trkpt><trkpt lat="40.71867229490519" lon="9.565419933327027"><ele>651.0</ele><time>2026-03-21T12:08:24Z</time></trkpt><trkpt lat="40.71870947389792" lon="9.565514352975393"><ele>650.0</ele><time>2026-03-21T12:08:28Z</time></trkpt><trkpt lat="40.718742249304476" lon="9.565593444895605"><ele>649.0</ele><time>2026-03-21T12:08:32Z</time></trkpt><trkpt lat="40.71875458116641" lon="9.565727710532174"><ele>648.0</ele><time>2026-03-21T12:08:36Z</time></trkpt><trkpt lat="40.71877813605684" lon="9.56581528546462"><ele>648.0</ele><time>2026-03-21T12:08:39Z</time></trkpt><trkpt lat="40.718776540675485" lon="9.565910406222578"><ele>648.0</ele><time>2026-03-21T12:08:45Z</time></trkpt><trkpt lat="40.7188116987126" lon="9.565979706491671"><ele>648.0</ele><time>2026-03-21T12:08:50Z</time></trkpt><trkpt lat="40.718840857521826" lon="9.566064273091966"><ele>648.0</ele><time>2026-03-21T12:09:12Z</time></trkpt><trkpt lat="40.71880121363564" lon="9.566152582674174"><ele>648.0</ele><time>2026-03-21T12:12:46Z</time></trkpt><trkpt lat="40.71876101898812" lon="9.566242850656037"><ele>648.0</ele><time>2026-03-21T12:12:49Z</time></trkpt><trkpt lat="40.71873541056295" lon="9.566338424454365"><ele>648.0</ele><time>2026-03-21T12:12:51Z</time></trkpt><trkpt lat="40.718693815781" lon="9.566402409049742"><ele>648.6666666666666</ele><time>2026-03-21T12:12:54Z</time></trkpt><trkpt lat="40.71864051373338" lon="9.566492978535097"><ele>649.3333333333334</ele><time>2026-03-21T12:12:58Z</time></trkpt><trkpt lat="40.71859496054948" lon="9.566568748596767"><ele>650.0</ele><time>2026-03-21T12:13:08Z</time></trkpt><trkpt lat="40.71853819350054" lon="9.566621039115777"><ele>650.6666666666667</ele><time>2026-03-21T12:13:11Z</time></trkpt><trkpt lat="40.718484157387344" lon="9.566722532012157"><ele>651.3333333333334</ele><time>2026-03-21T12:14:06Z</time></trkpt><trkpt lat="40.71843982970707" lon="9.566796099706503"><ele>652.0</ele><time>2026-03-21T12:14:20Z</time></trkpt><trkpt lat="40.71848973837077" lon="9.566721330142679"><ele>653.4285714285714</ele><time>2026-03-21T12:15:02Z</time></trkpt><trkpt lat="40.718463462623376" lon="9.566798840773947"><ele>654.8571428571428</ele><time>2026-03-21T12:16:15Z</time></trkpt><trkpt lat="40.71842466476257" lon="9.566866101437304"><ele>656.2857142857142</ele><time>2026-03-21T12:16:23Z</time></trkpt><trkpt lat="40.71842320558046" lon="9.56694974955193"><ele>657.7142857142858</ele><time>2026-03-21T12:19:57Z</time></trkpt><trkpt lat="40.718447605412" lon="9.567032827595272"><ele>659.1428571428571</ele><time>2026-03-21T12:20:04Z</time></trkpt><trkpt lat="40.71838075400942" lon="9.567068215278999"><ele>660.5714285714286</ele><time>2026-03-21T12:20:08Z</time></trkpt><trkpt lat="40.718321279954466" lon="9.567135570075223"><ele>662.0</ele><time>2026-03-21T12:20:12Z</time></trkpt><trkpt lat="40.71831416455433" lon="9.567225198732451"><ele>662.0</ele><time>2026-03-21T12:20:30Z</time></trkpt><trkpt lat="40.71829070225558" lon="9.567322565360444"><ele>662.0</ele><time>2026-03-21T12:20:35Z</time></trkpt><trkpt lat="40.71821218766293" lon="9.567420998669816"><ele>662.0</ele><time>2026-03-21T12:20:39Z</time></trkpt><trkpt lat="40.718144925518175" lon="9.567494081297031"><ele>662.0</ele><time>2026-03-21T12:20:41Z</time></trkpt><trkpt lat="40.71811412848522" lon="9.56756664031337"><ele>662.0</ele><time>2026-03-21T12:20:45Z</time></trkpt><trkpt lat="40.718092142496246" lon="9.567686063180622"><ele>662.0</ele><time>2026-03-21T12:21:08Z</time></trkpt><trkpt lat="40.71805881017678" lon="9.567763001308805"><ele>662.0</ele><time>2026-03-21T12:21:14Z</time></trkpt><trkpt lat="40.7180101199998" lon="9.567816737092453"><ele>662.0</ele><time>2026-03-21T12:21:19Z</time></trkpt><trkpt lat="40.717974484527446" lon="9.567888948970566"><ele>662.0</ele><time>2026-03-21T12:21:41Z</time></trkpt><trkpt lat="40.71794637218179" lon="9.56798633149252"><ele>662.0</ele><time>2026-03-21T12:21:44Z</time></trkpt><trkpt lat="40.71795897207916" lon="9.568074186284642"><ele>662.0</ele><time>2026-03-21T12:21:46Z</time></trkpt><trkpt lat="40.71796341786395" lon="9.568214293668596"><ele>662.0</ele><time>2026-03-21T12:21:48Z</time></trkpt><trkpt lat="40.7179764168489" lon="9.568316125484719"><ele>665.1666666666666</ele><time>2026-03-21T12:21:50Z</time></trkpt><trkpt lat="40.71800676793349" lon="9.568404646452036"><ele>668.3333333333333</ele><time>2026-03-21T12:21:55Z</time></trkpt><trkpt lat="40.717990189578764" lon="9.56851752656361"><ele>671.5</ele><time>2026-03-21T12:22:19Z</time></trkpt><trkpt lat="40.71797792561965" lon="9.568616028653546"><ele>674.6666666666666</ele><time>2026-03-21T12:22:22Z</time></trkpt><trkpt lat="40.717993246799786" lon="9.56872700889618"><ele>677.8333333333334</ele><time>2026-03-21T12:22:26Z</time></trkpt><trkpt lat="40.71803863831185" lon="9.568819169174665"><ele>681.0</ele><time>2026-03-21T12:22:31Z</time></trkpt><trkpt lat="40.71810153302967" lon="9.568869471380085"><ele>681.0000000000001</ele><time>2026-03-21T12:22:34Z</time></trkpt><trkpt lat="40.71816433970339" lon="9.568894604988998"><ele>681.0</ele><time>2026-03-21T12:22:39Z</time></trkpt><trkpt lat="40.71820418573564" lon="9.56897293913631"><ele>681.0</ele><time>2026-03-21T12:22:48Z</time></trkpt><trkpt lat="40.71823664950197" lon="9.569060128121112"><ele>681.0</ele><time>2026-03-21T12:23:07Z</time></trkpt><trkpt lat="40.71829675789514" lon="9.56912241460484"><ele>681.0</ele><time>2026-03-21T12:23:11Z</time></trkpt><trkpt lat="40.71833595505354" lon="9.569206398982743"><ele>681.0000000000001</ele><time>2026-03-21T12:23:15Z</time></trkpt><trkpt lat="40.718376285139826" lon="9.56927618801262"><ele>681.0</ele><time>2026-03-21T12:23:17Z</time></trkpt><trkpt lat="40.71839264264719" lon="9.569383296346267"><ele>681.0</ele><time>2026-03-21T12:23:20Z</time></trkpt><trkpt lat="40.71840053785653" lon="9.569466799448584"><ele>681.0</ele><time>2026-03-21T12:23:23Z</time></trkpt><trkpt lat="40.718423499764675" lon="9.569547907776855"><ele>681.0</ele><time>2026-03-21T12:23:27Z</time></trkpt><trkpt lat="40.71846417439098" lon="9.56966401510419"><ele>681.0</ele><time>2026-03-21T12:23:35Z</time></trkpt><trkpt lat="40.71847627131652" lon="9.569780936349796"><ele>681.0</ele><time>2026-03-21T12:24:51Z</time></trkpt><trkpt lat="40.7185064372352" lon="9.56986746794864"><ele>681.0</ele><time>2026-03-21T12:24:58Z</time></trkpt><trkpt lat="40.718543454601196" lon="9.569973347027279"><ele>680.4285714285714</ele><time>2026-03-21T12:25:17Z</time></trkpt><trkpt lat="40.71854239971764" lon="9.570061103456078"><ele>679.8571428571429</ele><time>2026-03-21T12:25:23Z</time></trkpt><trkpt lat="40.718530877343056" lon="9.570149118956387"><ele>679.2857142857142</ele><time>2026-03-21T12:25:37Z</time></trkpt><trkpt lat="40.71856945188818" lon="9.57024990183721"><ele>678.7142857142858</ele><time>2026-03-21T12:25:42Z</time></trkpt><trkpt lat="40.71858873174848" lon="9.570342172989166"><ele>678.1428571428571</ele><time>2026-03-21T12:25:45Z</time></trkpt><trkpt lat="40.71863940818664" lon="9.57043277602479"><ele>677.5714285714286</ele><time>2026-03-21T12:25:48Z</time></trkpt><trkpt lat="40.718646644934765" lon="9.570517825492214"><ele>677.0</ele><time>2026-03-21T12:25:50Z</time></trkpt><trkpt lat="40.71869651916163" lon="9.570610609212592"><ele>679.5</ele><time>2026-03-21T12:25:53Z</time></trkpt><trkpt lat="40.7186927748192" lon="9.570714033633516"><ele>682.0</ele><time>2026-03-21T12:25:55Z</time></trkpt><trkpt lat="40.71870623959288" lon="9.570807526290306"><ele>684.5</ele><time>2026-03-21T12:25:58Z</time></trkpt><trkpt lat="40.71874148726615" lon="9.570900389561578"><ele>687.0</ele><time>2026-03-21T12:26:44Z</time></trkpt><trkpt lat="40.71872513878746" lon="9.571003852545307"><ele>689.5</ele><time>2026-03-21T12:26:49Z</time></trkpt><trkpt lat="40.71872555792945" lon="9.571103847137591"><ele>692.0</ele><time>2026-03-21T12:26:54Z</time></trkpt><trkpt lat="40.71873716800445" lon="9.571193440513893"><ele>691.8571428571428</ele><time>2026-03-21T12:27:00Z</time></trkpt><trkpt lat="40.71874677168163" lon="9.571284592661602"><ele>691.7142857142858</ele><time>2026-03-21T12:27:06Z</time></trkpt><trkpt lat="40.71871625140896" lon="9.571375837277536"><ele>691.5714285714286</ele><time>2026-03-21T12:27:09Z</time></trkpt><trkpt lat="40.71868179903352" lon="9.571459869643219"><ele>691.4285714285713</ele><time>2026-03-21T12:27:14Z</time></trkpt><trkpt lat="40.71867590812802" lon="9.57155043408653"><ele>691.2857142857142</ele><time>2026-03-21T12:27:17Z</time></trkpt><trkpt lat="40.718664043908326" lon="9.571644965119306"><ele>691.1428571428571</ele><time>2026-03-21T12:27:26Z</time></trkpt><trkpt lat="40.71863314348475" lon="9.571737045086284"><ele>691.0</ele><time>2026-03-21T12:27:31Z</time></trkpt><trkpt lat="40.71856710277102" lon="9.571782656453529"><ele>691.0</ele><time>2026-03-21T12:27:34Z</time></trkpt><trkpt lat="40.71850874139859" lon="9.571860259783701"><ele>691.0</ele><time>2026-03-21T12:27:37Z</time></trkpt><trkpt lat="40.71845478657508" lon="9.57192529767468"><ele>691.0</ele><time>2026-03-21T12:27:39Z</time></trkpt><trkpt lat="40.71840048378809" lon="9.572007445167063"><ele>691.0</ele><time>2026-03-21T12:27:43Z</time></trkpt><trkpt lat="40.71833114946839" lon="9.572086718499843"><ele>691.0</ele><time>2026-03-21T12:27:46Z</time></trkpt><trkpt lat="40.71826908914341" lon="9.5721458885"><ele>691.0</ele><time>2026-03-21T12:27:53Z</time></trkpt><trkpt lat="40.71819986844311" lon="9.572164999778176"><ele>691.8571428571428</ele><time>2026-03-21T12:27:57Z</time></trkpt><trkpt lat="40.71813192032069" lon="9.572161491317615"><ele>692.7142857142857</ele><time>2026-03-21T12:28:01Z</time></trkpt><trkpt lat="40.718073590494086" lon="9.572128134019193"><ele>693.5714285714286</ele><time>2026-03-21T12:28:04Z</time></trkpt><trkpt lat="40.718016245352864" lon="9.572178265373854"><ele>694.4285714285713</ele><time>2026-03-21T12:28:07Z</time></trkpt><trkpt lat="40.71802312337007" lon="9.572279585516666"><ele>695.2857142857142</ele><time>2026-03-21T12:28:16Z</time></trkpt><trkpt lat="40.71800920853905" lon="9.57237101506535"><ele>696.1428571428571</ele><time>2026-03-21T12:28:19Z</time></trkpt><trkpt lat="40.71795953565916" lon="9.5724497904346"><ele>697.0</ele><time>2026-03-21T12:28:22Z</time></trkpt><trkpt lat="40.71793834380311" lon="9.572545884454081"><ele>697.0</ele><time>2026-03-21T12:28:31Z</time></trkpt><trkpt lat="40.7179088762238" lon="9.572626631126836"><ele>697.0</ele><time>2026-03-21T12:28:33Z</time></trkpt><trkpt lat="40.71790191655077" lon="9.572711687020915"><ele>697.0</ele><time>2026-03-21T12:28:40Z</time></trkpt><trkpt lat="40.71786698890235" lon="9.572807486279885"><ele>697.0</ele><time>2026-03-21T12:28:43Z</time></trkpt><trkpt lat="40.71781792797789" lon="9.572877577197993"><ele>697.0</ele><time>2026-03-21T12:28:47Z</time></trkpt><trkpt lat="40.71779999492314" lon="9.572957331648983"><ele>697.0</ele><time>2026-03-21T12:28:49Z</time></trkpt><trkpt lat="40.717746295874065" lon="9.573012395002742"><ele>697.0</ele><time>2026-03-21T12:28:55Z</time></trkpt><trkpt lat="40.71772185478967" lon="9.57309134733581"><ele>695.5714285714286</ele><time>2026-03-21T12:29:03Z</time></trkpt><trkpt lat="40.71769416947071" lon="9.57318793322782"><ele>694.1428571428571</ele><time>2026-03-21T12:29:20Z</time></trkpt><trkpt lat="40.71767291435071" lon="9.57326784402635"><ele>692.7142857142858</ele><time>2026-03-21T12:29:23Z</time></trkpt><trkpt lat="40.71764251128644" lon="9.573346720599448"><ele>691.2857142857142</ele><time>2026-03-21T12:29:28Z</time></trkpt><trkpt lat="40.71761669008091" lon="9.573429765620068"><ele>689.8571428571428</ele><time>2026-03-21T12:29:32Z</time></trkpt><trkpt lat="40.71754797203871" lon="9.573517364534787"><ele>688.4285714285714</ele><time>2026-03-21T12:29:35Z</time></trkpt><trkpt lat="40.71753524572322" lon="9.573599861119177"><ele>687.0</ele><time>2026-03-21T12:29:37Z</time></trkpt><trkpt lat="40.717529125865944" lon="9.57368649858666"><ele>686.7142857142858</ele><time>2026-03-21T12:29:39Z</time></trkpt><trkpt lat="40.71753337728017" lon="9.5737791712774"><ele>686.4285714285713</ele><time>2026-03-21T12:29:41Z</time></trkpt><trkpt lat="40.717571284712314" lon="9.573868228224383"><ele>686.1428571428571</ele><time>2026-03-21T12:29:45Z</time></trkpt><trkpt lat="40.71760833805978" lon="9.573971860622507"><ele>685.8571428571429</ele><time>2026-03-21T12:29:47Z</time></trkpt><trkpt lat="40.71765132614088" lon="9.574061424416293"><ele>685.5714285714287</ele><time>2026-03-21T12:29:49Z</time></trkpt><trkpt lat="40.71768143547832" lon="9.574139951847359"><ele>685.2857142857142</ele><time>2026-03-21T12:29:51Z</time></trkpt><trkpt lat="40.71765797850554" lon="9.574218984531287"><ele>685.0</ele><time>2026-03-21T12:29:53Z</time></trkpt><trkpt lat="40.71763853989442" lon="9.57430242715557"><ele>685.0</ele><time>2026-03-21T12:29:55Z</time></trkpt><trkpt lat="40.717600657597416" lon="9.57441106692521"><ele>685.0</ele><time>2026-03-21T12:29:59Z</time></trkpt><trkpt lat="40.717528041954004" lon="9.574450458501516"><ele>685.0</ele><time>2026-03-21T12:30:02Z</time></trkpt><trkpt lat="40.717462380436" lon="9.574511949969645"><ele>685.0</ele><time>2026-03-21T12:30:05Z</time></trkpt><trkpt lat="40.71742709798748" lon="9.57458719204917"><ele>685.0</ele><time>2026-03-21T12:30:07Z</time></trkpt><trkpt lat="40.717379321160045" lon="9.574681721423508"><ele>685.0</ele><time>2026-03-21T12:30:10Z</time></trkpt><trkpt lat="40.71729670535406" lon="9.57478473079683"><ele>685.3333333333334</ele><time>2026-03-21T12:30:13Z</time></trkpt><trkpt lat="40.71726260344976" lon="9.574874701784726"><ele>685.6666666666667</ele><time>2026-03-21T12:30:15Z</time></trkpt><trkpt lat="40.717244623448885" lon="9.575006606387058"><ele>686.0</ele><time>2026-03-21T12:30:18Z</time></trkpt><trkpt lat="40.71719996258615" lon="9.575099418964895"><ele>686.3333333333334</ele><time>2026-03-21T12:30:20Z</time></trkpt><trkpt lat="40.71721003505785" lon="9.575191757601202"><ele>686.6666666666666</ele><time>2026-03-21T12:30:22Z</time></trkpt><trkpt lat="40.71722264226728" lon="9.575288101133971"><ele>687.0</ele><time>2026-03-21T12:30:25Z</time></trkpt><trkpt lat="40.71716119599503" lon="9.575334837897087"><ele>687.0</ele><time>2026-03-21T12:30:30Z</time></trkpt><trkpt lat="40.71714921583835" lon="9.575421870545567"><ele>687.0</ele><time>2026-03-21T12:30:33Z</time></trkpt><trkpt lat="40.71711107753599" lon="9.57551170351018"><ele>687.0</ele><time>2026-03-21T12:30:38Z</time></trkpt><trkpt lat="40.71705069666447" lon="9.575479874028277"><ele>687.0</ele><time>2026-03-21T12:31:06Z</time></trkpt><trkpt lat="40.71701367620082" lon="9.575396670276682"><ele>687.0</ele><time>2026-03-21T12:31:48Z</time></trkpt><trkpt lat="40.71694444808316" lon="9.57541710581378"><ele>687.0</ele><time>2026-03-21T12:32:00Z</time></trkpt><trkpt lat="40.71693766064684" lon="9.5755064858905"><ele>687.0</ele><time>2026-03-21T12:32:03Z</time></trkpt><trkpt lat="40.716896589587726" lon="9.575576125215852"><ele>684.4285714285714</ele><time>2026-03-21T12:32:35Z</time></trkpt><trkpt lat="40.716846155000766" lon="9.575642144377088"><ele>681.8571428571428</ele><time>2026-03-21T12:32:52Z</time></trkpt><trkpt lat="40.71681855013671" lon="9.575745355702864"><ele>679.2857142857142</ele><time>2026-03-21T12:33:02Z</time></trkpt><trkpt lat="40.71675104416086" lon="9.575782660902828"><ele>676.7142857142858</ele><time>2026-03-21T12:33:04Z</time></trkpt><trkpt lat="40.71669611600082" lon="9.57572926894328"><ele>674.1428571428571</ele><time>2026-03-21T12:33:06Z</time></trkpt><trkpt lat="40.7166639470136" lon="9.575637368618729"><ele>671.5714285714286</ele><time>2026-03-21T12:33:08Z</time></trkpt><trkpt lat="40.71661987179519" lon="9.575560847869134"><ele>669.0</ele><time>2026-03-21T12:33:11Z</time></trkpt><trkpt lat="40.71655955392862" lon="9.57552954397988"><ele>669.0</ele><time>2026-03-21T12:33:15Z</time></trkpt><trkpt lat="40.716484315054096" lon="9.575521556902157"><ele>669.0</ele><time>2026-03-21T12:33:18Z</time></trkpt><trkpt lat="40.71642425506455" lon="9.575472816160488"><ele>669.0</ele><time>2026-03-21T12:33:21Z</time></trkpt><trkpt lat="40.71635803378602" lon="9.575506765736314"><ele>669.0</ele><time>2026-03-21T12:33:25Z</time></trkpt><trkpt lat="40.71629062456464" lon="9.575522988704499"><ele>669.0</ele><time>2026-03-21T12:33:29Z</time></trkpt><trkpt lat="40.71622455489694" lon="9.575535945233058"><ele>669.0</ele><time>2026-03-21T12:33:33Z</time></trkpt><trkpt lat="40.7161445014498" lon="9.575569801953947"><ele>669.0</ele><time>2026-03-21T12:35:22Z</time></trkpt><trkpt lat="40.71606920154047" lon="9.575554679069521"><ele>666.5714285714286</ele><time>2026-03-21T12:35:32Z</time></trkpt><trkpt lat="40.71600135993858" lon="9.575614320436408"><ele>664.1428571428571</ele><time>2026-03-21T12:35:36Z</time></trkpt><trkpt lat="40.71593466164578" lon="9.575655393556621"><ele>661.7142857142858</ele><time>2026-03-21T12:35:42Z</time></trkpt><trkpt lat="40.71588134111726" lon="9.575705306470658"><ele>659.2857142857142</ele><time>2026-03-21T12:35:45Z</time></trkpt><trkpt lat="40.71582731892953" lon="9.575755855594773"><ele>656.8571428571428</ele><time>2026-03-21T12:35:48Z</time></trkpt><trkpt lat="40.71576280835251" lon="9.575764114152635"><ele>654.4285714285714</ele><time>2026-03-21T12:35:51Z</time></trkpt><trkpt lat="40.715682186772355" lon="9.575780802234208"><ele>652.0</ele><time>2026-03-21T12:35:55Z</time></trkpt><trkpt lat="40.71563093774647" lon="9.575864302603737"><ele>652.0</ele><time>2026-03-21T12:35:58Z</time></trkpt><trkpt lat="40.7155546439537" lon="9.57590640359208"><ele>652.0</ele><time>2026-03-21T12:36:01Z</time></trkpt><trkpt lat="40.715462693459635" lon="9.575903031525609"><ele>652.0</ele><time>2026-03-21T12:36:04Z</time></trkpt><trkpt lat="40.71538314427348" lon="9.575897692184594"><ele>652.0</ele><time>2026-03-21T12:36:06Z</time></trkpt><trkpt lat="40.71531991199338" lon="9.575952986367295"><ele>652.0</ele><time>2026-03-21T12:36:08Z</time></trkpt><trkpt lat="40.71528690124402" lon="9.576043338309406"><ele>652.0</ele><time>2026-03-21T12:36:11Z</time></trkpt><trkpt lat="40.71523411051834" lon="9.576089065986853"><ele>650.0</ele><time>2026-03-21T12:36:16Z</time></trkpt><trkpt lat="40.71515672500686" lon="9.576058607398554"><ele>648.0</ele><time>2026-03-21T12:36:22Z</time></trkpt><trkpt lat="40.715076259173166" lon="9.576020501082573"><ele>646.0</ele><time>2026-03-21T12:36:25Z</time></trkpt><trkpt lat="40.715002660606906" lon="9.57598337834488"><ele>644.0</ele><time>2026-03-21T12:36:28Z</time></trkpt><trkpt lat="40.714928727990454" lon="9.5759808280101"><ele>642.0</ele><time>2026-03-21T12:36:31Z</time></trkpt><trkpt lat="40.714855158744115" lon="9.576010151492774"><ele>640.0</ele><time>2026-03-21T12:36:34Z</time></trkpt><trkpt lat="40.71478145740386" lon="9.57606695017896"><ele>640.0</ele><time>2026-03-21T12:36:37Z</time></trkpt><trkpt lat="40.71470668234248" lon="9.576096116956274"><ele>640.0</ele><time>2026-03-21T12:36:40Z</time></trkpt><trkpt lat="40.714624681628436" lon="9.576122079878177"><ele>640.0</ele><time>2026-03-21T12:36:43Z</time></trkpt><trkpt lat="40.7145332255303" lon="9.576129561901384"><ele>640.0</ele><time>2026-03-21T12:36:46Z</time></trkpt><trkpt lat="40.71443779920293" lon="9.576176039834907"><ele>640.0</ele><time>2026-03-21T12:36:49Z</time></trkpt><trkpt lat="40.71437924894592" lon="9.576240200376304"><ele>640.0</ele><time>2026-03-21T12:36:52Z</time></trkpt><trkpt lat="40.71431854352528" lon="9.576263361987719"><ele>630.0</ele><time>2026-03-21T12:36:54Z</time></trkpt><trkpt lat="40.71425433992446" lon="9.576302182655331"><ele>630.0</ele><time>2026-03-21T12:36:56Z</time></trkpt><trkpt lat="40.7142797552556" lon="9.576394750112165"><ele>630.0</ele><time>2026-03-21T12:38:51Z</time></trkpt></trkseg><trkseg><trkpt lat="40.714033081374296" lon="9.576055136726003"><ele>624.0</ele><time>2026-03-21T13:02:36.997Z</time></trkpt><trkpt lat="40.713950788197224" lon="9.575970023176694"><ele>624.0</ele><time>2026-03-21T13:02:50.999Z</time></trkpt><trkpt lat="40.71389907408913" lon="9.575905958034152"><ele>624.0</ele><time>2026-03-21T13:02:52.999Z</time></trkpt><trkpt lat="40.71381198318767" lon="9.575834261825856"><ele>624.0</ele><time>2026-03-21T13:02:55.999Z</time></trkpt><trkpt lat="40.71374486141331" lon="9.575780117270412"><ele>624.0</ele><time>2026-03-21T13:02:57.999Z</time></trkpt><trkpt lat="40.71366295113821" lon="9.575756349055533"><ele>624.0</ele><time>2026-03-21T13:03:00Z</time></trkpt><trkpt lat="40.71359948714222" lon="9.57573918729935"><ele>626.0</ele><time>2026-03-21T13:03:01Z</time></trkpt><trkpt lat="40.71352184236675" lon="9.575703749358178"><ele>628.0</ele><time>2026-03-21T13:03:03Z</time></trkpt><trkpt lat="40.7134614923088" lon="9.575669544006596"><ele>630.0</ele><time>2026-03-21T13:03:05Z</time></trkpt><trkpt lat="40.713372831249046" lon="9.57564567075885"><ele>632.0</ele><time>2026-03-21T13:03:07Z</time></trkpt><trkpt lat="40.71331195765567" lon="9.575601736347664"><ele>634.0</ele><time>2026-03-21T13:03:09Z</time></trkpt><trkpt lat="40.7132460124015" lon="9.5756287213467"><ele>636.0</ele><time>2026-03-21T13:03:12Z</time></trkpt><trkpt lat="40.713125757551275" lon="9.57572545267531"><ele>636.0</ele><time>2026-03-21T13:03:14Z</time></trkpt><trkpt lat="40.713049583799176" lon="9.575807739291822"><ele>636.0</ele><time>2026-03-21T13:03:16Z</time></trkpt><trkpt lat="40.71297748332921" lon="9.575876896841907"><ele>636.0</ele><time>2026-03-21T13:03:18Z</time></trkpt><trkpt lat="40.71292680104531" lon="9.575955263633226"><ele>636.0</ele><time>2026-03-21T13:03:20Z</time></trkpt><trkpt lat="40.712884358459824" lon="9.576075637705777"><ele>636.0</ele><time>2026-03-21T13:03:23Z</time></trkpt><trkpt lat="40.71284463449749" lon="9.576159823281063"><ele>636.0</ele><time>2026-03-21T13:03:26Z</time></trkpt><trkpt lat="40.71282065769883" lon="9.576247661689608"><ele>637.0</ele><time>2026-03-21T13:03:28Z</time></trkpt><trkpt lat="40.71274703797387" lon="9.576354829341843"><ele>638.0</ele><time>2026-03-21T13:03:30Z</time></trkpt><trkpt lat="40.71267046815303" lon="9.576451158526085"><ele>639.0</ele><time>2026-03-21T13:03:33Z</time></trkpt><trkpt lat="40.71261606213309" lon="9.576567262277127"><ele>640.0</ele><time>2026-03-21T13:03:36Z</time></trkpt><trkpt lat="40.71256170911268" lon="9.576680185966524"><ele>641.0</ele><time>2026-03-21T13:03:38.001Z</time></trkpt><trkpt lat="40.71253420958207" lon="9.576755781324989"><ele>641.0</ele><time>2026-03-21T13:03:39.001Z</time></trkpt><trkpt lat="40.71251741267955" lon="9.57684006091772"><ele>641.0</ele><time>2026-03-21T13:03:41.001Z</time></trkpt><trkpt lat="40.71247425313323" lon="9.576913652471614"><ele>641.0</ele><time>2026-03-21T13:03:43.001Z</time></trkpt><trkpt lat="40.712429230062746" lon="9.576976672324374"><ele>641.0</ele><time>2026-03-21T13:03:45.001Z</time></trkpt><trkpt lat="40.712405017708406" lon="9.577068715454542"><ele>641.0</ele><time>2026-03-21T13:03:47.001Z</time></trkpt><trkpt lat="40.71230573720355" lon="9.577106497934633"><ele>641.0</ele><time>2026-03-21T13:03:49.001Z</time></trkpt><trkpt lat="40.71224144423887" lon="9.577165856151295"><ele>641.0</ele><time>2026-03-21T13:03:51.001Z</time></trkpt><trkpt lat="40.71215965187619" lon="9.577222690663865"><ele>641.0</ele><time>2026-03-21T13:03:53.001Z</time></trkpt><trkpt lat="40.71210674342351" lon="9.577308276222716"><ele>641.0</ele><time>2026-03-21T13:03:55.001Z</time></trkpt><trkpt lat="40.712025011750306" lon="9.577260828982341"><ele>641.0</ele><time>2026-03-21T13:03:57.001Z</time></trkpt><trkpt lat="40.711938837255886" lon="9.57721442147615"><ele>641.0</ele><time>2026-03-21T13:04:00.001Z</time></trkpt><trkpt lat="40.71184374837879" lon="9.577159588010206"><ele>641.0</ele><time>2026-03-21T13:04:03.001Z</time></trkpt><trkpt lat="40.71178335198478" lon="9.57712077749953"><ele>641.0</ele><time>2026-03-21T13:04:04.001Z</time></trkpt><trkpt lat="40.71170004177771" lon="9.57707026549796"><ele>641.0</ele><time>2026-03-21T13:04:06.001Z</time></trkpt><trkpt lat="40.71163101005722" lon="9.577047103434948"><ele>641.0</ele><time>2026-03-21T13:04:08.001Z</time></trkpt><trkpt lat="40.71159601234294" lon="9.576976702388702"><ele>641.0</ele><time>2026-03-21T13:04:10.001Z</time></trkpt><trkpt lat="40.711587908246514" lon="9.576868770513759"><ele>641.0</ele><time>2026-03-21T13:04:12.001Z</time></trkpt><trkpt lat="40.711540262880014" lon="9.576737898973926"><ele>639.8333333333333</ele><time>2026-03-21T13:04:14.001Z</time></trkpt><trkpt lat="40.71147602127578" lon="9.57662007733929"><ele>638.6666666666666</ele><time>2026-03-21T13:04:16.001Z</time></trkpt><trkpt lat="40.711463541539665" lon="9.576516935812789"><ele>637.5</ele><time>2026-03-21T13:04:18.001Z</time></trkpt><trkpt lat="40.71142875796349" lon="9.576434730308906"><ele>636.3333333333334</ele><time>2026-03-21T13:04:22.001Z</time></trkpt><trkpt lat="40.711406895227576" lon="9.576325964137874"><ele>635.1666666666667</ele><time>2026-03-21T13:04:27.001Z</time></trkpt><trkpt lat="40.71136503326583" lon="9.57623304399588"><ele>634.0</ele><time>2026-03-21T13:04:29.001Z</time></trkpt><trkpt lat="40.71131304431079" lon="9.576165997484765"><ele>631.5</ele><time>2026-03-21T13:04:31.001Z</time></trkpt><trkpt lat="40.711238284455185" lon="9.576136016929894"><ele>629.0</ele><time>2026-03-21T13:04:33.001Z</time></trkpt><trkpt lat="40.71114656804982" lon="9.576137286317044"><ele>626.5</ele><time>2026-03-21T13:04:35.001Z</time></trkpt><trkpt lat="40.71110171346221" lon="9.576066425751836"><ele>624.0</ele><time>2026-03-21T13:04:56Z</time></trkpt><trkpt lat="40.71106524496164" lon="9.575994455779306"><ele>621.5</ele><time>2026-03-21T13:04:59Z</time></trkpt><trkpt lat="40.71106590724888" lon="9.575899290314732"><ele>619.0</ele><time>2026-03-21T13:05:04Z</time></trkpt><trkpt lat="40.7110659188852" lon="9.57578432062223"><ele>624.5</ele><time>2026-03-21T13:05:06Z</time></trkpt><trkpt lat="40.711047943206204" lon="9.575665153611656"><ele>630.0</ele><time>2026-03-21T13:05:08Z</time></trkpt><trkpt lat="40.711035121638496" lon="9.575568881788099"><ele>635.5</ele><time>2026-03-21T13:05:11Z</time></trkpt><trkpt lat="40.71100486430897" lon="9.575479352108566"><ele>641.0</ele><time>2026-03-21T13:05:14Z</time></trkpt><trkpt lat="40.71098083057096" lon="9.575367892757924"><ele>646.5</ele><time>2026-03-21T13:05:17Z</time></trkpt><trkpt lat="40.71097991631352" lon="9.575261557800221"><ele>652.0</ele><time>2026-03-21T13:05:19Z</time></trkpt><trkpt lat="40.71096534567205" lon="9.575174114995546"><ele>652.0</ele><time>2026-03-21T13:05:21Z</time></trkpt><trkpt lat="40.71094225048056" lon="9.57508477870679"><ele>652.0</ele><time>2026-03-21T13:05:23Z</time></trkpt><trkpt lat="40.710956675343944" lon="9.574986822391763"><ele>652.0</ele><time>2026-03-21T13:05:28Z</time></trkpt><trkpt lat="40.710959311327436" lon="9.574892883043422"><ele>652.0</ele><time>2026-03-21T13:05:30Z</time></trkpt><trkpt lat="40.710915869904746" lon="9.574743162218814"><ele>652.0</ele><time>2026-03-21T13:05:32Z</time></trkpt><trkpt lat="40.71083265545704" lon="9.574629040876944"><ele>652.0</ele><time>2026-03-21T13:05:34Z</time></trkpt><trkpt lat="40.7107974406736" lon="9.574545062807816"><ele>652.0</ele><time>2026-03-21T13:05:36Z</time></trkpt><trkpt lat="40.71075485194567" lon="9.574464226573575"><ele>652.0</ele><time>2026-03-21T13:05:38Z</time></trkpt><trkpt lat="40.71073653669943" lon="9.574344066002887"><ele>652.0</ele><time>2026-03-21T13:05:41Z</time></trkpt><trkpt lat="40.710731895464015" lon="9.574245454597976"><ele>652.0</ele><time>2026-03-21T13:05:43Z</time></trkpt><trkpt lat="40.71070860289509" lon="9.5741470242033"><ele>652.0</ele><time>2026-03-21T13:05:45Z</time></trkpt><trkpt lat="40.710671219902615" lon="9.574039963538715"><ele>650.6</ele><time>2026-03-21T13:05:47Z</time></trkpt><trkpt lat="40.7105850492682" lon="9.57395620758051"><ele>649.2</ele><time>2026-03-21T13:05:49.001Z</time></trkpt><trkpt lat="40.710520616123645" lon="9.57387386936612"><ele>647.8</ele><time>2026-03-21T13:05:51.001Z</time></trkpt><trkpt lat="40.710466319417435" lon="9.573795993623714"><ele>646.4</ele><time>2026-03-21T13:05:53.001Z</time></trkpt><trkpt lat="40.710387823015886" lon="9.573778307445904"><ele>645.0</ele><time>2026-03-21T13:05:56.001Z</time></trkpt><trkpt lat="40.710287328129475" lon="9.573703303019352"><ele>644.5</ele><time>2026-03-21T13:05:58.001Z</time></trkpt><trkpt lat="40.71022472151111" lon="9.573666494750261"><ele>644.0</ele><time>2026-03-21T13:06:00.001Z</time></trkpt><trkpt lat="40.71016114640857" lon="9.573632633423315"><ele>643.5</ele><time>2026-03-21T13:06:02.001Z</time></trkpt><trkpt lat="40.71010662193087" lon="9.573576178808308"><ele>643.0</ele><time>2026-03-21T13:06:04.001Z</time></trkpt><trkpt lat="40.710031854531145" lon="9.57351095031071"><ele>642.5</ele><time>2026-03-21T13:06:06.001Z</time></trkpt><trkpt lat="40.70995821105872" lon="9.573474060502509"><ele>642.0</ele><time>2026-03-21T13:06:08.001Z</time></trkpt><trkpt lat="40.709878074733524" lon="9.573444569341348"><ele>642.0</ele><time>2026-03-21T13:06:10.001Z</time></trkpt><trkpt lat="40.70981642416143" lon="9.57340804379069"><ele>642.0</ele><time>2026-03-21T13:06:13.001Z</time></trkpt><trkpt lat="40.709750150101684" lon="9.573352325132506"><ele>642.0</ele><time>2026-03-21T13:06:17.001Z</time></trkpt><trkpt lat="40.70968872247845" lon="9.573288181925374"><ele>642.0</ele><time>2026-03-21T13:06:19.001Z</time></trkpt><trkpt lat="40.7096337955378" lon="9.57319936294192"><ele>642.0</ele><time>2026-03-21T13:06:22.001Z</time></trkpt><trkpt lat="40.70959582830614" lon="9.57309673344527"><ele>642.0</ele><time>2026-03-21T13:06:25.001Z</time></trkpt><trkpt lat="40.7095975766074" lon="9.57299772856882"><ele>642.0</ele><time>2026-03-21T13:06:27.001Z</time></trkpt><trkpt lat="40.70957163404221" lon="9.573105642627452"><ele>642.0</ele><time>2026-03-21T13:08:57Z</time></trkpt><trkpt lat="40.70959165623757" lon="9.573200337892603"><ele>642.0</ele><time>2026-03-21T13:08:59Z</time></trkpt><trkpt lat="40.709646055663185" lon="9.573283327375913"><ele>642.0</ele><time>2026-03-21T13:09:01Z</time></trkpt><trkpt lat="40.70971623968566" lon="9.573308708448238"><ele>642.0</ele><time>2026-03-21T13:09:04Z</time></trkpt><trkpt lat="40.70979197847002" lon="9.5733735993235"><ele>642.0</ele><time>2026-03-21T13:09:07Z</time></trkpt><trkpt lat="40.709865802084465" lon="9.573425718457955"><ele>642.0</ele><time>2026-03-21T13:09:09Z</time></trkpt><trkpt lat="40.70995147251099" lon="9.573462947193248"><ele>642.0</ele><time>2026-03-21T13:09:12Z</time></trkpt><trkpt lat="40.71003289682188" lon="9.573540981277196"><ele>642.0</ele><time>2026-03-21T13:09:14Z</time></trkpt><trkpt lat="40.71019991635384" lon="9.573657225327896"><ele>642.0</ele><time>2026-03-21T13:09:16Z</time></trkpt><trkpt lat="40.710265807045815" lon="9.573700139877461"><ele>642.5</ele><time>2026-03-21T13:09:18Z</time></trkpt><trkpt lat="40.71032573032663" lon="9.573739047354398"><ele>643.0</ele><time>2026-03-21T13:09:20Z</time></trkpt><trkpt lat="40.710418189750165" lon="9.573786648754993"><ele>643.5</ele><time>2026-03-21T13:09:22Z</time></trkpt><trkpt lat="40.710484038687945" lon="9.573805084207883"><ele>644.0</ele><time>2026-03-21T13:09:24Z</time></trkpt><trkpt lat="40.710531330435906" lon="9.573860270424188"><ele>644.5</ele><time>2026-03-21T13:09:28Z</time></trkpt><trkpt lat="40.71061168597224" lon="9.573937580165387"><ele>645.0</ele><time>2026-03-21T13:09:30Z</time></trkpt><trkpt lat="40.710654764055185" lon="9.574010341403827"><ele>645.0</ele><time>2026-03-21T13:09:56.001Z</time></trkpt><trkpt lat="40.71070313119159" lon="9.574110149513517"><ele>645.0</ele><time>2026-03-21T13:09:58.001Z</time></trkpt><trkpt lat="40.71073383862392" lon="9.574211180989288"><ele>645.0</ele><time>2026-03-21T13:10:00.001Z</time></trkpt><trkpt lat="40.71072275437232" lon="9.574308652981273"><ele>645.0</ele><time>2026-03-21T13:10:02.001Z</time></trkpt><trkpt lat="40.71074135983814" lon="9.57441334256074"><ele>645.0</ele><time>2026-03-21T13:10:04.001Z</time></trkpt><trkpt lat="40.71077218486906" lon="9.574496699748883"><ele>645.0</ele><time>2026-03-21T13:10:06.001Z</time></trkpt><trkpt lat="40.71082269277613" lon="9.574586079404975"><ele>646.4</ele><time>2026-03-21T13:10:08.001Z</time></trkpt><trkpt lat="40.71087526054879" lon="9.574681729767178"><ele>647.8</ele><time>2026-03-21T13:10:10.001Z</time></trkpt><trkpt lat="40.710947441767736" lon="9.574799955299023"><ele>649.2</ele><time>2026-03-21T13:10:12.001Z</time></trkpt><trkpt lat="40.71095531700238" lon="9.574916372115027"><ele>650.6</ele><time>2026-03-21T13:10:14.001Z</time></trkpt><trkpt lat="40.71094119619855" lon="9.575005472790783"><ele>652.0</ele><time>2026-03-21T13:10:18.001Z</time></trkpt><trkpt lat="40.71096574941783" lon="9.57511995599807"><ele>652.0</ele><time>2026-03-21T13:10:22.001Z</time></trkpt><trkpt lat="40.71097935108444" lon="9.575229663404297"><ele>652.0</ele><time>2026-03-21T13:10:24.001Z</time></trkpt><trkpt lat="40.710979384115454" lon="9.575339714856726"><ele>652.0</ele><time>2026-03-21T13:10:26.001Z</time></trkpt><trkpt lat="40.71100198016752" lon="9.575424393863388"><ele>652.0</ele><time>2026-03-21T13:10:29.001Z</time></trkpt><trkpt lat="40.711025831947524" lon="9.575512545117592"><ele>652.0</ele><time>2026-03-21T13:10:31.001Z</time></trkpt><trkpt lat="40.71104710217356" lon="9.575651638254353"><ele>652.0</ele><time>2026-03-21T13:10:33.001Z</time></trkpt><trkpt lat="40.71105433263092" lon="9.57574355328194"><ele>652.5</ele><time>2026-03-21T13:10:35.001Z</time></trkpt><trkpt lat="40.7110628690024" lon="9.575829741392383"><ele>653.0</ele><time>2026-03-21T13:10:37.001Z</time></trkpt><trkpt lat="40.71105195182652" lon="9.575931745518425"><ele>653.5</ele><time>2026-03-21T13:10:45.001Z</time></trkpt><trkpt lat="40.71104527259098" lon="9.576018445952316"><ele>654.0</ele><time>2026-03-21T13:10:50.001Z</time></trkpt><trkpt lat="40.71108991814674" lon="9.576090924278384"><ele>654.5</ele><time>2026-03-21T13:10:58Z</time></trkpt><trkpt lat="40.71117435217424" lon="9.576123033993175"><ele>655.0</ele><time>2026-03-21T13:11:01Z</time></trkpt><trkpt lat="40.711296442607" lon="9.576146388974845"><ele>651.5</ele><time>2026-03-21T13:11:03Z</time></trkpt><trkpt lat="40.711357602725364" lon="9.576213415962027"><ele>648.0</ele><time>2026-03-21T13:11:05Z</time></trkpt><trkpt lat="40.711398218294505" lon="9.576316261282091"><ele>644.5</ele><time>2026-03-21T13:11:07Z</time></trkpt><trkpt lat="40.71141729154216" lon="9.576395913014647"><ele>641.0</ele><time>2026-03-21T13:11:09Z</time></trkpt><trkpt lat="40.71143148072687" lon="9.57650516489772"><ele>637.5</ele><time>2026-03-21T13:11:11Z</time></trkpt><trkpt lat="40.71147487955313" lon="9.576576128460776"><ele>634.0</ele><time>2026-03-21T13:11:13Z</time></trkpt><trkpt lat="40.71149100959893" lon="9.576684803699372"><ele>634.0</ele><time>2026-03-21T13:11:15Z</time></trkpt><trkpt lat="40.71154310438245" lon="9.5767710139591"><ele>634.0</ele><time>2026-03-21T13:11:17Z</time></trkpt><trkpt lat="40.711570945607015" lon="9.576875610115298"><ele>634.0</ele><time>2026-03-21T13:11:19Z</time></trkpt><trkpt lat="40.71159468410941" lon="9.576960250818304"><ele>634.0</ele><time>2026-03-21T13:11:21Z</time></trkpt><trkpt lat="40.71161316337893" lon="9.577045919112152"><ele>634.0</ele><time>2026-03-21T13:11:23Z</time></trkpt><trkpt lat="40.71167676586581" lon="9.577078349157274"><ele>634.0</ele><time>2026-03-21T13:11:25Z</time></trkpt><trkpt lat="40.71176778740136" lon="9.577097406877774"><ele>634.0</ele><time>2026-03-21T13:11:27Z</time></trkpt><trkpt lat="40.711847017298105" lon="9.577169575556674"><ele>634.0</ele><time>2026-03-21T13:11:29Z</time></trkpt><trkpt lat="40.711910403201806" lon="9.577208756797177"><ele>634.0</ele><time>2026-03-21T13:11:38Z</time></trkpt><trkpt lat="40.71187461601552" lon="9.577301873950224"><ele>634.0</ele><time>2026-03-21T13:11:45Z</time></trkpt><trkpt lat="40.711805546579036" lon="9.577348838237628"><ele>634.0</ele><time>2026-03-21T13:11:49Z</time></trkpt><trkpt lat="40.71176777136303" lon="9.577422899389896"><ele>634.0</ele><time>2026-03-21T13:11:52Z</time></trkpt><trkpt lat="40.71171080373983" lon="9.577464743034948"><ele>635.0</ele><time>2026-03-21T13:11:58.001Z</time></trkpt><trkpt lat="40.71167687239188" lon="9.577552941969454"><ele>636.0</ele><time>2026-03-21T13:12:04.001Z</time></trkpt><trkpt lat="40.71163889622521" lon="9.577629230940895"><ele>637.0</ele><time>2026-03-21T13:12:08.001Z</time></trkpt><trkpt lat="40.71163611945986" lon="9.577717940501328"><ele>638.0</ele><time>2026-03-21T13:12:11.001Z</time></trkpt><trkpt lat="40.71164300574911" lon="9.577808585474722"><ele>639.0</ele><time>2026-03-21T13:14:01Z</time></trkpt><trkpt lat="40.71165596698009" lon="9.577907856330421"><ele>640.0</ele><time>2026-03-21T13:14:04Z</time></trkpt><trkpt lat="40.711649317597306" lon="9.57799121753529"><ele>641.0</ele><time>2026-03-21T13:14:07Z</time></trkpt><trkpt lat="40.71161028385425" lon="9.578057801232166"><ele>638.8571428571429</ele><time>2026-03-21T13:14:11.001Z</time></trkpt><trkpt lat="40.71153784950212" lon="9.578081523279403"><ele>636.7142857142857</ele><time>2026-03-21T13:14:14.001Z</time></trkpt><trkpt lat="40.711473961560664" lon="9.578135646108933"><ele>634.5714285714286</ele><time>2026-03-21T13:14:18.001Z</time></trkpt><trkpt lat="40.711422823493926" lon="9.578207093261733"><ele>632.4285714285714</ele><time>2026-03-21T13:14:22.001Z</time></trkpt><trkpt lat="40.71137574043146" lon="9.578294478767772"><ele>630.2857142857143</ele><time>2026-03-21T13:14:26.001Z</time></trkpt><trkpt lat="40.71132489394067" lon="9.578358322623897"><ele>628.1428571428571</ele><time>2026-03-21T13:14:39.001Z</time></trkpt><trkpt lat="40.7112807401793" lon="9.57843143263513"><ele>626.0</ele><time>2026-03-21T13:14:44.001Z</time></trkpt><trkpt lat="40.71125637100315" lon="9.578530155494263"><ele>626.0</ele><time>2026-03-21T13:14:50.001Z</time></trkpt><trkpt lat="40.71120443066068" lon="9.578619803836975"><ele>626.0</ele><time>2026-03-21T13:14:53.001Z</time></trkpt><trkpt lat="40.71117021333522" lon="9.578691588114234"><ele>626.0</ele><time>2026-03-21T13:14:55.001Z</time></trkpt><trkpt lat="40.711172011239334" lon="9.578786687981374"><ele>626.0</ele><time>2026-03-21T13:14:58.001Z</time></trkpt><trkpt lat="40.71114146370987" lon="9.578863400527174"><ele>626.0</ele><time>2026-03-21T13:15:00.001Z</time></trkpt><trkpt lat="40.71112987312798" lon="9.578986295750866"><ele>626.0</ele><time>2026-03-21T13:15:03.001Z</time></trkpt><trkpt lat="40.711116506093624" lon="9.579093435449233"><ele>625.3333333333333</ele><time>2026-03-21T13:15:05.001Z</time></trkpt><trkpt lat="40.71112703453644" lon="9.579258787895837"><ele>624.6666666666666</ele><time>2026-03-21T13:15:07.001Z</time></trkpt><trkpt lat="40.711133168763844" lon="9.579345838999874"><ele>624.0</ele><time>2026-03-21T13:15:08.001Z</time></trkpt><trkpt lat="40.711120838456786" lon="9.579467036942988"><ele>623.3333333333334</ele><time>2026-03-21T13:15:10Z</time></trkpt><trkpt lat="40.71109838278192" lon="9.579578157010127"><ele>622.6666666666667</ele><time>2026-03-21T13:15:14Z</time></trkpt><trkpt lat="40.71108133276782" lon="9.579675174654216"><ele>622.0</ele><time>2026-03-21T13:15:17Z</time></trkpt><trkpt lat="40.711039134847724" lon="9.579777614834383"><ele>622.0</ele><time>2026-03-21T13:15:20Z</time></trkpt><trkpt lat="40.71098918605107" lon="9.579859512186234"><ele>622.0</ele><time>2026-03-21T13:15:23Z</time></trkpt><trkpt lat="40.710959037950325" lon="9.579961482508603"><ele>622.0</ele><time>2026-03-21T13:15:26Z</time></trkpt><trkpt lat="40.710946234995546" lon="9.580044982620363"><ele>622.0</ele><time>2026-03-21T13:15:35Z</time></trkpt><trkpt lat="40.71094718206567" lon="9.580138412557972"><ele>622.0</ele><time>2026-03-21T13:15:40Z</time></trkpt><trkpt lat="40.710970620104284" lon="9.580231171300126"><ele>622.0</ele><time>2026-03-21T13:15:44Z</time></trkpt><trkpt lat="40.71099955422682" lon="9.580312223456868"><ele>622.0</ele><time>2026-03-21T13:15:48Z</time></trkpt><trkpt lat="40.711019235321565" lon="9.580418053217898"><ele>620.4</ele><time>2026-03-21T13:15:51Z</time></trkpt><trkpt lat="40.7110375956142" lon="9.580504580422598"><ele>618.8000000000001</ele><time>2026-03-21T13:15:53Z</time></trkpt><trkpt lat="40.71103751438836" lon="9.580625343612533"><ele>617.2</ele><time>2026-03-21T13:15:55Z</time></trkpt><trkpt lat="40.711050106637494" lon="9.580783648842656"><ele>615.6</ele><time>2026-03-21T13:15:57Z</time></trkpt><trkpt lat="40.71104357113283" lon="9.580924666276784"><ele>614.0</ele><time>2026-03-21T13:15:59Z</time></trkpt><trkpt lat="40.71103386988676" lon="9.581056915124005"><ele>610.8</ele><time>2026-03-21T13:16:01Z</time></trkpt><trkpt lat="40.71103838130559" lon="9.58119792387487"><ele>607.5999999999999</ele><time>2026-03-21T13:16:03Z</time></trkpt><trkpt lat="40.711039427437655" lon="9.58130270820902"><ele>604.4</ele><time>2026-03-21T13:16:04Z</time></trkpt><trkpt lat="40.71103584991611" lon="9.581429561010106"><ele>601.1999999999999</ele><time>2026-03-21T13:16:05Z</time></trkpt><trkpt lat="40.71103420248852" lon="9.58152926605798"><ele>598.0</ele><time>2026-03-21T13:16:06Z</time></trkpt><trkpt lat="40.7109838256071" lon="9.581635789824967"><ele>598.0</ele><time>2026-03-21T13:16:08Z</time></trkpt><trkpt lat="40.71091281726453" lon="9.581629018473668"><ele>598.0</ele><time>2026-03-21T13:16:10Z</time></trkpt><trkpt lat="40.71085735462491" lon="9.581674188574645"><ele>598.0</ele><time>2026-03-21T13:16:13Z</time></trkpt><trkpt lat="40.71079456899573" lon="9.581743710145194"><ele>598.0</ele><time>2026-03-21T13:16:16Z</time></trkpt><trkpt lat="40.71076303897665" lon="9.581822156604463"><ele>598.0</ele><time>2026-03-21T13:16:29.001Z</time></trkpt><trkpt lat="40.71073781196195" lon="9.581911153709138"><ele>598.0</ele><time>2026-03-21T13:16:51.001Z</time></trkpt><trkpt lat="40.710729425058595" lon="9.582015375650835"><ele>598.0</ele><time>2026-03-21T13:16:55.001Z</time></trkpt><trkpt lat="40.71073267774944" lon="9.582133462062965"><ele>593.5</ele><time>2026-03-21T13:16:58.001Z</time></trkpt><trkpt lat="40.7107463060278" lon="9.582233940100673"><ele>589.0</ele><time>2026-03-21T13:17:00.001Z</time></trkpt><trkpt lat="40.71074708193458" lon="9.582327829871145"><ele>584.5</ele><time>2026-03-21T13:17:02.001Z</time></trkpt><trkpt lat="40.71070976409284" lon="9.582461444680197"><ele>580.0</ele><time>2026-03-21T13:17:04.001Z</time></trkpt><trkpt lat="40.71067909746401" lon="9.582557621816264"><ele>575.5</ele><time>2026-03-21T13:17:06.001Z</time></trkpt><trkpt lat="40.71063522924478" lon="9.582652086460875"><ele>571.0</ele><time>2026-03-21T13:17:08.001Z</time></trkpt><trkpt lat="40.71060404052059" lon="9.58273473868136"><ele>571.0</ele><time>2026-03-21T13:17:10.001Z</time></trkpt><trkpt lat="40.71067882307436" lon="9.582802083863374"><ele>571.0</ele><time>2026-03-21T13:17:13.001Z</time></trkpt><trkpt lat="40.71072864337034" lon="9.582737961281104"><ele>571.0</ele><time>2026-03-21T13:17:15.001Z</time></trkpt><trkpt lat="40.71078693046477" lon="9.582691700791637"><ele>571.0</ele><time>2026-03-21T13:17:17Z</time></trkpt><trkpt lat="40.71086318278908" lon="9.582649486562714"><ele>571.0</ele><time>2026-03-21T13:17:19Z</time></trkpt><trkpt lat="40.710937946982725" lon="9.582586752389997"><ele>571.0</ele><time>2026-03-21T13:17:21Z</time></trkpt><trkpt lat="40.71101535213809" lon="9.582539205782744"><ele>571.0</ele><time>2026-03-21T13:17:23Z</time></trkpt><trkpt lat="40.71107067723896" lon="9.582609107131809"><ele>571.0</ele><time>2026-03-21T13:17:26Z</time></trkpt><trkpt lat="40.71103242879761" lon="9.582690732592768"><ele>571.0</ele><time>2026-03-21T13:17:28Z</time></trkpt><trkpt lat="40.71098858474156" lon="9.582762354098739"><ele>571.0</ele><time>2026-03-21T13:17:30Z</time></trkpt><trkpt lat="40.71093894461147" lon="9.582849994666457"><ele>571.0</ele><time>2026-03-21T13:17:32Z</time></trkpt><trkpt lat="40.710905252555854" lon="9.582949737298579"><ele>571.0</ele><time>2026-03-21T13:17:35Z</time></trkpt><trkpt lat="40.71087964342606" lon="9.583076550097884"><ele>567.1428571428571</ele><time>2026-03-21T13:17:38Z</time></trkpt><trkpt lat="40.71084737842805" lon="9.583170057295938"><ele>563.2857142857142</ele><time>2026-03-21T13:17:40Z</time></trkpt><trkpt lat="40.71082502704632" lon="9.583255475248963"><ele>559.4285714285713</ele><time>2026-03-21T13:17:42Z</time></trkpt><trkpt lat="40.71080018729519" lon="9.58334541779801"><ele>555.5714285714286</ele><time>2026-03-21T13:17:44Z</time></trkpt><trkpt lat="40.71076147499817" lon="9.583424050039977"><ele>551.7142857142857</ele><time>2026-03-21T13:17:46Z</time></trkpt><trkpt lat="40.71071368622382" lon="9.583494223545763"><ele>547.8571428571428</ele><time>2026-03-21T13:17:49Z</time></trkpt><trkpt lat="40.7106853427071" lon="9.58357013998675"><ele>544.0</ele><time>2026-03-21T13:17:51Z</time></trkpt><trkpt lat="40.710690695986344" lon="9.583655315166755"><ele>540.8333333333334</ele><time>2026-03-21T13:17:54Z</time></trkpt><trkpt lat="40.710743617542015" lon="9.583703850599912"><ele>537.6666666666667</ele><time>2026-03-21T13:17:57Z</time></trkpt><trkpt lat="40.71081052784224" lon="9.583735201853242"><ele>534.5</ele><time>2026-03-21T13:18:00Z</time></trkpt><trkpt lat="40.71089675320282" lon="9.583768928534008"><ele>531.3333333333334</ele><time>2026-03-21T13:18:03Z</time></trkpt><trkpt lat="40.71099626163772" lon="9.58379418928244"><ele>528.1666666666666</ele><time>2026-03-21T13:18:06Z</time></trkpt><trkpt lat="40.711070369847725" lon="9.583811963365086"><ele>525.0</ele><time>2026-03-21T13:18:08Z</time></trkpt><trkpt lat="40.7111495184971" lon="9.5838434327228"><ele>522.5</ele><time>2026-03-21T13:18:11Z</time></trkpt><trkpt lat="40.711204711761276" lon="9.5839217774253"><ele>520.0</ele><time>2026-03-21T13:18:14Z</time></trkpt><trkpt lat="40.711213458527894" lon="9.584011624348323"><ele>517.5</ele><time>2026-03-21T13:18:16Z</time></trkpt><trkpt lat="40.71119270265593" lon="9.584135481207163"><ele>515.0</ele><time>2026-03-21T13:18:19Z</time></trkpt><trkpt lat="40.71117978486234" lon="9.584226502294731"><ele>512.5</ele><time>2026-03-21T13:18:21Z</time></trkpt><trkpt lat="40.71116168355526" lon="9.584338967174526"><ele>510.0</ele><time>2026-03-21T13:18:24Z</time></trkpt><trkpt lat="40.71117444754786" lon="9.584439822214854"><ele>507.7142857142857</ele><time>2026-03-21T13:18:27Z</time></trkpt><trkpt lat="40.711172755198675" lon="9.584540979473724"><ele>505.42857142857144</ele><time>2026-03-21T13:18:30Z</time></trkpt><trkpt lat="40.71118002089891" lon="9.584626544654578"><ele>503.14285714285717</ele><time>2026-03-21T13:18:32Z</time></trkpt><trkpt lat="40.71119543919892" lon="9.584710058185395"><ele>500.8571428571429</ele><time>2026-03-21T13:18:34Z</time></trkpt><trkpt lat="40.711237919581016" lon="9.584802019255566"><ele>498.57142857142856</ele><time>2026-03-21T13:18:37Z</time></trkpt><trkpt lat="40.71131496923262" lon="9.584835500642876"><ele>496.28571428571433</ele><time>2026-03-21T13:18:40.001Z</time></trkpt><trkpt lat="40.71137541006891" lon="9.58488247509646"><ele>494.0</ele><time>2026-03-21T13:18:43.001Z</time></trkpt><trkpt lat="40.71140950718233" lon="9.584960789071282"><ele>493.99999999999994</ele><time>2026-03-21T13:18:46.001Z</time></trkpt><trkpt lat="40.71142587323927" lon="9.585066307359222"><ele>494.0</ele><time>2026-03-21T13:18:49.001Z</time></trkpt><trkpt lat="40.71147026187637" lon="9.585144814189858"><ele>494.0</ele><time>2026-03-21T13:18:53.001Z</time></trkpt><trkpt lat="40.711523410301524" lon="9.585197033124667"><ele>494.0</ele><time>2026-03-21T13:18:56.001Z</time></trkpt><trkpt lat="40.7116026096202" lon="9.585275211440143"><ele>493.99999999999994</ele><time>2026-03-21T13:18:58.001Z</time></trkpt><trkpt lat="40.71165920646011" lon="9.5853562911531"><ele>494.0</ele><time>2026-03-21T13:19:01.001Z</time></trkpt><trkpt lat="40.71171808308847" lon="9.585404230683553"><ele>492.99999999999994</ele><time>2026-03-21T13:19:04.001Z</time></trkpt><trkpt lat="40.71175687921712" lon="9.585512153330935"><ele>492.0</ele><time>2026-03-21T13:19:08.001Z</time></trkpt><trkpt lat="40.71177619047121" lon="9.585603715106911"><ele>491.0</ele><time>2026-03-21T13:19:10.001Z</time></trkpt><trkpt lat="40.711768873582656" lon="9.585688125637812"><ele>490.0</ele><time>2026-03-21T13:19:28Z</time></trkpt><trkpt lat="40.71171749285641" lon="9.585777125452907"><ele>488.99999999999994</ele><time>2026-03-21T13:19:30Z</time></trkpt><trkpt lat="40.711664802787865" lon="9.585865430624253"><ele>488.0</ele><time>2026-03-21T13:19:32Z</time></trkpt><trkpt lat="40.71164140993433" lon="9.585953070961274"><ele>487.99999999999994</ele><time>2026-03-21T13:19:34Z</time></trkpt><trkpt lat="40.711596803149845" lon="9.586043999259136"><ele>488.0</ele><time>2026-03-21T13:19:36Z</time></trkpt><trkpt lat="40.71155155274399" lon="9.586135824698822"><ele>488.0</ele><time>2026-03-21T13:19:38Z</time></trkpt><trkpt lat="40.71150733302555" lon="9.58619847135155"><ele>488.0</ele><time>2026-03-21T13:19:40Z</time></trkpt><trkpt lat="40.71142596049813" lon="9.586257193905373"><ele>487.99999999999994</ele><time>2026-03-21T13:19:42Z</time></trkpt><trkpt lat="40.71136674521862" lon="9.586293984436763"><ele>488.0</ele><time>2026-03-21T13:19:43Z</time></trkpt><trkpt lat="40.71125659235382" lon="9.586331340326584"><ele>489.16666666666663</ele><time>2026-03-21T13:19:45Z</time></trkpt><trkpt lat="40.71117244452185" lon="9.586339669968517"><ele>490.3333333333333</ele><time>2026-03-21T13:19:47Z</time></trkpt><trkpt lat="40.711102349519734" lon="9.586332271968823"><ele>491.5</ele><time>2026-03-21T13:19:49Z</time></trkpt><trkpt lat="40.7109997185935" lon="9.586367189188275"><ele>492.66666666666663</ele><time>2026-03-21T13:19:52Z</time></trkpt><trkpt lat="40.71093079695113" lon="9.58644527382792"><ele>493.8333333333333</ele><time>2026-03-21T13:19:55Z</time></trkpt><trkpt lat="40.7108817741649" lon="9.586516643011088"><ele>495.0</ele><time>2026-03-21T13:19:57Z</time></trkpt><trkpt lat="40.71083531272079" lon="9.586581424952373"><ele>491.8333333333333</ele><time>2026-03-21T13:19:59Z</time></trkpt><trkpt lat="40.71078692370643" lon="9.586675331602212"><ele>488.66666666666663</ele><time>2026-03-21T13:20:02Z</time></trkpt><trkpt lat="40.71076111126379" lon="9.58675120137201"><ele>485.5</ele><time>2026-03-21T13:20:04Z</time></trkpt><trkpt lat="40.71075089889704" lon="9.586839323492827"><ele>482.3333333333333</ele><time>2026-03-21T13:20:06Z</time></trkpt><trkpt lat="40.710735042414484" lon="9.586958639692828"><ele>479.16666666666663</ele><time>2026-03-21T13:20:10Z</time></trkpt><trkpt lat="40.710722681877726" lon="9.58705688223362"><ele>476.0</ele><time>2026-03-21T13:20:13Z</time></trkpt><trkpt lat="40.710719477063094" lon="9.587144502280212"><ele>473.8333333333333</ele><time>2026-03-21T13:20:17Z</time></trkpt><trkpt lat="40.710689929983715" lon="9.587235731892985"><ele>471.66666666666663</ele><time>2026-03-21T13:20:24Z</time></trkpt><trkpt lat="40.71068594255978" lon="9.587343592601353"><ele>469.5</ele><time>2026-03-21T13:20:28Z</time></trkpt><trkpt lat="40.710694794074385" lon="9.587444718329357"><ele>467.33333333333337</ele><time>2026-03-21T13:20:31.001Z</time></trkpt><trkpt lat="40.71071249393825" lon="9.587530621518443"><ele>465.1666666666667</ele><time>2026-03-21T13:20:33.001Z</time></trkpt><trkpt lat="40.71072249967868" lon="9.587645774411865"><ele>463.0</ele><time>2026-03-21T13:20:35.001Z</time></trkpt><trkpt lat="40.710738244816035" lon="9.58773414239394"><ele>459.75</ele><time>2026-03-21T13:20:37.001Z</time></trkpt><trkpt lat="40.71080847416826" lon="9.587968280109209"><ele>456.5</ele><time>2026-03-21T13:20:39.001Z</time></trkpt><trkpt lat="40.71083119171301" lon="9.58808635080586"><ele>453.25</ele><time>2026-03-21T13:20:41.001Z</time></trkpt><trkpt lat="40.7108312165479" lon="9.58819381595205"><ele>450.0</ele><time>2026-03-21T13:20:43.001Z</time></trkpt><trkpt lat="40.710850526072946" lon="9.588307430133133"><ele>450.0</ele><time>2026-03-21T13:20:45.001Z</time></trkpt><trkpt lat="40.7108683652476" lon="9.588458069622675"><ele>450.0</ele><time>2026-03-21T13:20:47.001Z</time></trkpt><trkpt lat="40.710863806311856" lon="9.588569943611736"><ele>450.0</ele><time>2026-03-21T13:20:48.001Z</time></trkpt><trkpt lat="40.71088037754748" lon="9.588651356406153"><ele>450.0</ele><time>2026-03-21T13:20:49.001Z</time></trkpt><trkpt lat="40.71090350863139" lon="9.588731317483354"><ele>450.0</ele><time>2026-03-21T13:20:50.001Z</time></trkpt><trkpt lat="40.710899533602046" lon="9.588892257801557"><ele>447.8333333333333</ele><time>2026-03-21T13:20:52.001Z</time></trkpt><trkpt lat="40.710897018772044" lon="9.588984495167038"><ele>445.66666666666663</ele><time>2026-03-21T13:20:53.001Z</time></trkpt><trkpt lat="40.710912705458405" lon="9.58906978297486"><ele>443.5</ele><time>2026-03-21T13:20:54.001Z</time></trkpt><trkpt lat="40.71090137736089" lon="9.589158922593137"><ele>441.3333333333333</ele><time>2026-03-21T13:20:55.001Z</time></trkpt><trkpt lat="40.710867147883654" lon="9.589301188424068"><ele>439.16666666666663</ele><time>2026-03-21T13:20:57.001Z</time></trkpt><trkpt lat="40.710864756320454" lon="9.589396636701581"><ele>437.0</ele><time>2026-03-21T13:20:58.001Z</time></trkpt><trkpt lat="40.71086587360708" lon="9.589553754443951"><ele>434.99999999999994</ele><time>2026-03-21T13:21:00.001Z</time></trkpt><trkpt lat="40.71084451277308" lon="9.589721543535845"><ele>433.0</ele><time>2026-03-21T13:21:02.001Z</time></trkpt><trkpt lat="40.71083708566362" lon="9.58981344133016"><ele>431.0</ele><time>2026-03-21T13:21:03.001Z</time></trkpt><trkpt lat="40.71083486686089" lon="9.589900702366007"><ele>429.0</ele><time>2026-03-21T13:21:04.001Z</time></trkpt><trkpt lat="40.71082327833234" lon="9.589982408433569"><ele>426.99999999999994</ele><time>2026-03-21T13:21:05.001Z</time></trkpt><trkpt lat="40.710803196238096" lon="9.59013132638193"><ele>425.0</ele><time>2026-03-21T13:21:07.001Z</time></trkpt><trkpt lat="40.7107900290503" lon="9.590306181941074"><ele>423.8333333333333</ele><time>2026-03-21T13:21:09.001Z</time></trkpt><trkpt lat="40.71077219482885" lon="9.590401737230856"><ele>422.66666666666663</ele><time>2026-03-21T13:21:10.001Z</time></trkpt><trkpt lat="40.71075914088149" lon="9.590524719975388"><ele>421.5</ele><time>2026-03-21T13:21:11.001Z</time></trkpt><trkpt lat="40.71076090826332" lon="9.590628058401045"><ele>420.33333333333337</ele><time>2026-03-21T13:21:12.001Z</time></trkpt><trkpt lat="40.710765582453234" lon="9.59072613992314"><ele>419.1666666666667</ele><time>2026-03-21T13:21:13.001Z</time></trkpt><trkpt lat="40.71076501378272" lon="9.59081596557954"><ele>418.0</ele><time>2026-03-21T13:21:14.001Z</time></trkpt><trkpt lat="40.710814037244965" lon="9.591015823300605"><ele>418.0</ele><time>2026-03-21T13:21:16.001Z</time></trkpt><trkpt lat="40.710834667180805" lon="9.591160128979055"><ele>418.0</ele><time>2026-03-21T13:21:17.001Z</time></trkpt><trkpt lat="40.7108577486983" lon="9.591293970125264"><ele>418.0</ele><time>2026-03-21T13:21:18.001Z</time></trkpt><trkpt lat="40.71087602368413" lon="9.59142728925377"><ele>418.0</ele><time>2026-03-21T13:21:19.001Z</time></trkpt><trkpt lat="40.710888704103866" lon="9.591579599766204"><ele>418.0</ele><time>2026-03-21T13:21:20.001Z</time></trkpt><trkpt lat="40.710907289810315" lon="9.591721936474562"><ele>416.0</ele><time>2026-03-21T13:21:21.001Z</time></trkpt><trkpt lat="40.71092821573315" lon="9.591863466539486"><ele>414.0</ele><time>2026-03-21T13:21:22.001Z</time></trkpt><trkpt lat="40.710951278898015" lon="9.592027137269682"><ele>412.0</ele><time>2026-03-21T13:21:23.001Z</time></trkpt><trkpt lat="40.71096508178519" lon="9.59218173152494"><ele>410.0</ele><time>2026-03-21T13:21:24.001Z</time></trkpt><trkpt lat="40.71097433906945" lon="9.592317577919234"><ele>408.3333333333333</ele><time>2026-03-21T13:21:25.001Z</time></trkpt><trkpt lat="40.71101102895166" lon="9.592430338920446"><ele>406.66666666666663</ele><time>2026-03-21T13:21:26.001Z</time></trkpt><trkpt lat="40.711054906531565" lon="9.592523314326321"><ele>405.0</ele><time>2026-03-21T13:21:27.001Z</time></trkpt><trkpt lat="40.71108207887969" lon="9.592620504460825"><ele>403.33333333333337</ele><time>2026-03-21T13:21:28Z</time></trkpt><trkpt lat="40.7110916225511" lon="9.59271534687649"><ele>401.6666666666667</ele><time>2026-03-21T13:21:29Z</time></trkpt><trkpt lat="40.711116501296004" lon="9.592819881609955"><ele>400.0</ele><time>2026-03-21T13:21:30Z</time></trkpt><trkpt lat="40.711152990188936" lon="9.592938430146738"><ele>399.8</ele><time>2026-03-21T13:21:31Z</time></trkpt><trkpt lat="40.711208254833295" lon="9.593043849390272"><ele>399.6</ele><time>2026-03-21T13:21:32Z</time></trkpt><trkpt lat="40.711242882830106" lon="9.593122977903525"><ele>399.4</ele><time>2026-03-21T13:21:33Z</time></trkpt><trkpt lat="40.71131780344707" lon="9.593230204617914"><ele>399.2</ele><time>2026-03-21T13:21:35Z</time></trkpt><trkpt lat="40.71141534959592" lon="9.59332085116248"><ele>399.0</ele><time>2026-03-21T13:21:37Z</time></trkpt><trkpt lat="40.711489987498695" lon="9.593356052129433"><ele>399.0</ele><time>2026-03-21T13:21:38Z</time></trkpt><trkpt lat="40.7115842967381" lon="9.593440959738395"><ele>399.0</ele><time>2026-03-21T13:21:40Z</time></trkpt><trkpt lat="40.71162072378516" lon="9.593509080987753"><ele>399.0</ele><time>2026-03-21T13:21:41Z</time></trkpt><trkpt lat="40.71168695114095" lon="9.593631593806824"><ele>399.0</ele><time>2026-03-21T13:21:43Z</time></trkpt><trkpt lat="40.711722948980416" lon="9.593705301398613"><ele>399.0</ele><time>2026-03-21T13:21:44Z</time></trkpt><trkpt lat="40.711763298058095" lon="9.59380212960215"><ele>399.0</ele><time>2026-03-21T13:21:46Z</time></trkpt><trkpt lat="40.71179939148006" lon="9.593877173744456"><ele>395.6666666666667</ele><time>2026-03-21T13:21:48Z</time></trkpt><trkpt lat="40.71183424707973" lon="9.593999197097812"><ele>392.3333333333333</ele><time>2026-03-21T13:21:50Z</time></trkpt><trkpt lat="40.71183659223532" lon="9.594128933628298"><ele>389.0</ele><time>2026-03-21T13:21:52Z</time></trkpt><trkpt lat="40.71184988131635" lon="9.594243972365332"><ele>385.66666666666663</ele><time>2026-03-21T13:21:54Z</time></trkpt><trkpt lat="40.71184158368368" lon="9.59432704644806"><ele>382.3333333333333</ele><time>2026-03-21T13:21:55Z</time></trkpt><trkpt lat="40.711827626608915" lon="9.594439606961272"><ele>379.0</ele><time>2026-03-21T13:21:57Z</time></trkpt><trkpt lat="40.71185301904324" lon="9.594524947230983"><ele>376.16666666666663</ele><time>2026-03-21T13:21:59Z</time></trkpt><trkpt lat="40.711885339627365" lon="9.59461266026491"><ele>373.3333333333333</ele><time>2026-03-21T13:22:01Z</time></trkpt><trkpt lat="40.71190794621779" lon="9.594731824182036"><ele>370.5</ele><time>2026-03-21T13:22:03Z</time></trkpt><trkpt lat="40.71185406313484" lon="9.594827216403555"><ele>367.6666666666667</ele><time>2026-03-21T13:22:06Z</time></trkpt><trkpt lat="40.711796330646585" lon="9.594924295974526"><ele>364.83333333333337</ele><time>2026-03-21T13:22:08Z</time></trkpt><trkpt lat="40.71176661425064" lon="9.595026371130476"><ele>362.0</ele><time>2026-03-21T13:22:10Z</time></trkpt><trkpt lat="40.71177520916245" lon="9.595120713051616"><ele>362.0</ele><time>2026-03-21T13:22:14Z</time></trkpt><trkpt lat="40.71176249395945" lon="9.595208764204086"><ele>362.0</ele><time>2026-03-21T13:22:16Z</time></trkpt><trkpt lat="40.711737767299994" lon="9.59530683732062"><ele>362.0</ele><time>2026-03-21T13:22:19Z</time></trkpt><trkpt lat="40.71172722821473" lon="9.595399190456519"><ele>362.0</ele><time>2026-03-21T13:22:21Z</time></trkpt><trkpt lat="40.71170486465049" lon="9.595498598559823"><ele>362.0</ele><time>2026-03-21T13:22:23Z</time></trkpt><trkpt lat="40.71171420547526" lon="9.59561233190838"><ele>362.0</ele><time>2026-03-21T13:22:25Z</time></trkpt><trkpt lat="40.71174264305717" lon="9.595713416683727"><ele>358.83333333333337</ele><time>2026-03-21T13:22:27Z</time></trkpt><trkpt lat="40.7117728254649" lon="9.595811619950695"><ele>355.6666666666667</ele><time>2026-03-21T13:22:29Z</time></trkpt><trkpt lat="40.71177293001203" lon="9.595931081310004"><ele>352.5</ele><time>2026-03-21T13:22:32Z</time></trkpt><trkpt lat="40.711780923956375" lon="9.596034498071832"><ele>349.3333333333333</ele><time>2026-03-21T13:22:34Z</time></trkpt><trkpt lat="40.71174281104694" lon="9.59611381304656"><ele>346.16666666666663</ele><time>2026-03-21T13:22:36Z</time></trkpt><trkpt lat="40.71169472778626" lon="9.596213490221926"><ele>343.0</ele><time>2026-03-21T13:22:59.001Z</time></trkpt><trkpt lat="40.71165003288688" lon="9.596325838299157"><ele>340.16666666666663</ele><time>2026-03-21T13:23:02.001Z</time></trkpt><trkpt lat="40.71168069949284" lon="9.596411154872053"><ele>337.3333333333333</ele><time>2026-03-21T13:23:04.001Z</time></trkpt><trkpt lat="40.71171712539858" lon="9.596550563693782"><ele>334.5</ele><time>2026-03-21T13:23:06.001Z</time></trkpt><trkpt lat="40.71172341298804" lon="9.59664204980482"><ele>331.6666666666667</ele><time>2026-03-21T13:23:08.001Z</time></trkpt><trkpt lat="40.711652988824106" lon="9.596661955282142"><ele>328.83333333333337</ele><time>2026-03-21T13:23:10.001Z</time></trkpt><trkpt lat="40.711574222794134" lon="9.596672170619424"><ele>326.0</ele><time>2026-03-21T13:23:12.001Z</time></trkpt><trkpt lat="40.71148896926611" lon="9.5967164728088"><ele>326.0</ele><time>2026-03-21T13:23:14.001Z</time></trkpt><trkpt lat="40.71138969056148" lon="9.596779392887228"><ele>326.0</ele><time>2026-03-21T13:23:16.001Z</time></trkpt><trkpt lat="40.7113081013003" lon="9.596865317042168"><ele>326.0</ele><time>2026-03-21T13:23:18.001Z</time></trkpt><trkpt lat="40.7112374666237" lon="9.596885530313997"><ele>326.0</ele><time>2026-03-21T13:23:19.001Z</time></trkpt><trkpt lat="40.711174313632974" lon="9.596882767843054"><ele>326.0</ele><time>2026-03-21T13:23:20.001Z</time></trkpt><trkpt lat="40.71109673215789" lon="9.596922201331218"><ele>326.0</ele><time>2026-03-21T13:23:22.001Z</time></trkpt><trkpt lat="40.71102186984862" lon="9.59701775367807"><ele>325.0</ele><time>2026-03-21T13:23:24.001Z</time></trkpt><trkpt lat="40.71096549629145" lon="9.597096611209537"><ele>324.0</ele><time>2026-03-21T13:23:26.001Z</time></trkpt><trkpt lat="40.710873677738704" lon="9.597054457454913"><ele>323.0</ele><time>2026-03-21T13:23:29.001Z</time></trkpt><trkpt lat="40.71081506976226" lon="9.596990985227073"><ele>322.0</ele><time>2026-03-21T13:23:31.001Z</time></trkpt><trkpt lat="40.710772447039375" lon="9.597060664805923"><ele>321.0</ele><time>2026-03-21T13:23:33.001Z</time></trkpt><trkpt lat="40.71082619130229" lon="9.597149251227828"><ele>320.0</ele><time>2026-03-21T13:23:35Z</time></trkpt><trkpt lat="40.71088236912402" lon="9.597235452068908"><ele>320.0</ele><time>2026-03-21T13:23:37Z</time></trkpt><trkpt lat="40.71093138133676" lon="9.597298434778292"><ele>320.0</ele><time>2026-03-21T13:23:40Z</time></trkpt><trkpt lat="40.71101634708594" lon="9.597371520721511"><ele>320.0</ele><time>2026-03-21T13:23:42Z</time></trkpt><trkpt lat="40.71107987676423" lon="9.597382220385896"><ele>320.0</ele><time>2026-03-21T13:23:43Z</time></trkpt><trkpt lat="40.711148057202436" lon="9.597366806960265"><ele>320.0</ele><time>2026-03-21T13:23:44Z</time></trkpt><trkpt lat="40.71125518807965" lon="9.597384024842272"><ele>320.0</ele><time>2026-03-21T13:23:46Z</time></trkpt><trkpt lat="40.71132346464276" lon="9.597377358610702"><ele>318.0</ele><time>2026-03-21T13:23:47Z</time></trkpt><trkpt lat="40.71144354390391" lon="9.597350073434487"><ele>316.0</ele><time>2026-03-21T13:23:49Z</time></trkpt><trkpt lat="40.711552419804484" lon="9.597315203304685"><ele>314.0</ele><time>2026-03-21T13:23:51Z</time></trkpt><trkpt lat="40.71165707516526" lon="9.59732687822966"><ele>312.0</ele><time>2026-03-21T13:23:53Z</time></trkpt><trkpt lat="40.711749643438885" lon="9.597321704530108"><ele>310.0</ele><time>2026-03-21T13:23:55Z</time></trkpt><trkpt lat="40.71184095860147" lon="9.597311750150414"><ele>309.2</ele><time>2026-03-21T13:23:57Z</time></trkpt><trkpt lat="40.71192015641828" lon="9.597331159089553"><ele>308.4</ele><time>2026-03-21T13:23:59Z</time></trkpt><trkpt lat="40.7120030521636" lon="9.597329923279009"><ele>307.6</ele><time>2026-03-21T13:24:01Z</time></trkpt><trkpt lat="40.71208520085738" lon="9.59731970176308"><ele>306.8</ele><time>2026-03-21T13:24:03Z</time></trkpt><trkpt lat="40.712182996087755" lon="9.597249612677405"><ele>306.0</ele><time>2026-03-21T13:24:05Z</time></trkpt><trkpt lat="40.71225542134065" lon="9.597151176861322"><ele>306.0</ele><time>2026-03-21T13:24:07Z</time></trkpt><trkpt lat="40.71231920521509" lon="9.59708727035239"><ele>306.0</ele><time>2026-03-21T13:24:09Z</time></trkpt><trkpt lat="40.71237683375403" lon="9.59702963227281"><ele>306.0</ele><time>2026-03-21T13:24:11Z</time></trkpt><trkpt lat="40.71243504851805" lon="9.596963208543468"><ele>306.0</ele><time>2026-03-21T13:24:13Z</time></trkpt><trkpt lat="40.71247812765744" lon="9.596846217201232"><ele>306.0</ele><time>2026-03-21T13:24:15Z</time></trkpt><trkpt lat="40.71255729829666" lon="9.596691594128899"><ele>305.6</ele><time>2026-03-21T13:24:17Z</time></trkpt><trkpt lat="40.71261915772332" lon="9.596581066940873"><ele>305.20000000000005</ele><time>2026-03-21T13:24:18Z</time></trkpt><trkpt lat="40.712675279832666" lon="9.596472474790938"><ele>304.79999999999995</ele><time>2026-03-21T13:24:19Z</time></trkpt><trkpt lat="40.71273219716392" lon="9.596379516690595"><ele>304.4</ele><time>2026-03-21T13:24:21Z</time></trkpt><trkpt lat="40.71281298214383" lon="9.596335702387226"><ele>304.0</ele><time>2026-03-21T13:24:24Z</time></trkpt><trkpt lat="40.71288644791999" lon="9.596369390675617"><ele>300.59999999999997</ele><time>2026-03-21T13:24:26Z</time></trkpt><trkpt lat="40.71295098396024" lon="9.596428892300397"><ele>297.2</ele><time>2026-03-21T13:24:29Z</time></trkpt><trkpt lat="40.71302444840954" lon="9.596474483129889"><ele>293.79999999999995</ele><time>2026-03-21T13:24:32Z</time></trkpt><trkpt lat="40.71310278829956" lon="9.596497670926642"><ele>290.4</ele><time>2026-03-21T13:24:34Z</time></trkpt><trkpt lat="40.71318314968731" lon="9.596579694869483"><ele>287.0</ele><time>2026-03-21T13:24:36Z</time></trkpt><trkpt lat="40.71326780860971" lon="9.596688944132007"><ele>287.0</ele><time>2026-03-21T13:24:38Z</time></trkpt><trkpt lat="40.71329950644293" lon="9.596761991149037"><ele>287.0</ele><time>2026-03-21T13:24:40Z</time></trkpt><trkpt lat="40.71334158530092" lon="9.59685564673902"><ele>287.0</ele><time>2026-03-21T13:24:42Z</time></trkpt><trkpt lat="40.71338739465156" lon="9.596940939617477"><ele>287.0</ele><time>2026-03-21T13:24:45Z</time></trkpt><trkpt lat="40.71344050107815" lon="9.597024342744817"><ele>287.0</ele><time>2026-03-21T13:24:47Z</time></trkpt><trkpt lat="40.71353687705711" lon="9.597135475135842"><ele>287.0</ele><time>2026-03-21T13:24:49.001Z</time></trkpt><trkpt lat="40.71361641506027" lon="9.597226341640864"><ele>285.4</ele><time>2026-03-21T13:24:51.001Z</time></trkpt><trkpt lat="40.7136884690879" lon="9.597311379437189"><ele>283.79999999999995</ele><time>2026-03-21T13:24:53.001Z</time></trkpt><trkpt lat="40.71379090231651" lon="9.59739967448961"><ele>282.2</ele><time>2026-03-21T13:24:55.001Z</time></trkpt><trkpt lat="40.713884694238246" lon="9.597464163886308"><ele>280.59999999999997</ele><time>2026-03-21T13:24:57.001Z</time></trkpt><trkpt lat="40.713982440678585" lon="9.597534655647785"><ele>279.0</ele><time>2026-03-21T13:24:59.001Z</time></trkpt><trkpt lat="40.714060730510745" lon="9.597674071929083"><ele>279.0</ele><time>2026-03-21T13:25:01.001Z</time></trkpt><trkpt lat="40.714130764438586" lon="9.597791294591548"><ele>279.0</ele><time>2026-03-21T13:25:03.001Z</time></trkpt><trkpt lat="40.71423379222031" lon="9.597872536323326"><ele>279.0</ele><time>2026-03-21T13:25:05.001Z</time></trkpt><trkpt lat="40.7143268228117" lon="9.597951784342479"><ele>279.0</ele><time>2026-03-21T13:25:07.001Z</time></trkpt><trkpt lat="40.71439602877964" lon="9.59798743515953"><ele>279.0</ele><time>2026-03-21T13:25:08.001Z</time></trkpt><trkpt lat="40.714458897453454" lon="9.598013395373389"><ele>277.2</ele><time>2026-03-21T13:25:09.001Z</time></trkpt><trkpt lat="40.71452425836109" lon="9.598053077397028"><ele>275.4</ele><time>2026-03-21T13:25:10.001Z</time></trkpt><trkpt lat="40.714620945009564" lon="9.598159572968468"><ele>273.6</ele><time>2026-03-21T13:25:12.001Z</time></trkpt><trkpt lat="40.714710502009474" lon="9.598264863470693"><ele>271.8</ele><time>2026-03-21T13:25:14.001Z</time></trkpt><trkpt lat="40.71478378505446" lon="9.598373091829362"><ele>270.0</ele><time>2026-03-21T13:25:16.001Z</time></trkpt><trkpt lat="40.7148526649896" lon="9.598506284738402"><ele>270.0</ele><time>2026-03-21T13:25:18.001Z</time></trkpt><trkpt lat="40.714888031085295" lon="9.598585802649406"><ele>270.0</ele><time>2026-03-21T13:25:19.001Z</time></trkpt><trkpt lat="40.714917526240086" lon="9.598663629991943"><ele>270.0</ele><time>2026-03-21T13:25:20.001Z</time></trkpt><trkpt lat="40.71495510626171" lon="9.598740757806349"><ele>270.0</ele><time>2026-03-21T13:25:21.001Z</time></trkpt><trkpt lat="40.71498811391694" lon="9.598835094921947"><ele>270.0</ele><time>2026-03-21T13:25:22.001Z</time></trkpt><trkpt lat="40.71500711306946" lon="9.59892970399973"><ele>270.0</ele><time>2026-03-21T13:25:23.001Z</time></trkpt><trkpt lat="40.71502174083103" lon="9.599030214305326"><ele>270.0</ele><time>2026-03-21T13:25:24.001Z</time></trkpt><trkpt lat="40.71503934078478" lon="9.599154906191892"><ele>270.8333333333333</ele><time>2026-03-21T13:25:25.001Z</time></trkpt><trkpt lat="40.7150493008226" lon="9.599259055490922"><ele>271.6666666666667</ele><time>2026-03-21T13:25:26.001Z</time></trkpt><trkpt lat="40.7150632761961" lon="9.599342779356279"><ele>272.5</ele><time>2026-03-21T13:25:27.001Z</time></trkpt><trkpt lat="40.715105100010305" lon="9.599472018510587"><ele>273.33333333333337</ele><time>2026-03-21T13:25:29.001Z</time></trkpt><trkpt lat="40.71516011785451" lon="9.599545348328231"><ele>274.1666666666667</ele><time>2026-03-21T13:25:30.001Z</time></trkpt><trkpt lat="40.715213092894324" lon="9.599609203162046"><ele>275.0</ele><time>2026-03-21T13:25:31.001Z</time></trkpt><trkpt lat="40.71526448752948" lon="9.599673048313003"><ele>275.8</ele><time>2026-03-21T13:25:32.001Z</time></trkpt><trkpt lat="40.71530468408118" lon="9.59981330257638"><ele>276.6</ele><time>2026-03-21T13:25:34.001Z</time></trkpt><trkpt lat="40.715322135093125" lon="9.599939655011188"><ele>277.4</ele><time>2026-03-21T13:25:36.001Z</time></trkpt><trkpt lat="40.71525124696578" lon="9.60005134862886"><ele>278.2</ele><time>2026-03-21T13:25:38.001Z</time></trkpt><trkpt lat="40.715186931972475" lon="9.600081983913233"><ele>279.0</ele><time>2026-03-21T13:25:39.001Z</time></trkpt><trkpt lat="40.71513861344892" lon="9.600137359228961"><ele>280.8333333333333</ele><time>2026-03-21T13:25:40Z</time></trkpt><trkpt lat="40.715094301924395" lon="9.60023124113321"><ele>282.6666666666667</ele><time>2026-03-21T13:25:41Z</time></trkpt><trkpt lat="40.71505185509247" lon="9.600327262995082"><ele>284.5</ele><time>2026-03-21T13:25:42Z</time></trkpt><trkpt lat="40.715017820752315" lon="9.600407921487337"><ele>286.33333333333337</ele><time>2026-03-21T13:25:43Z</time></trkpt><trkpt lat="40.71497343401636" lon="9.60052939252786"><ele>288.1666666666667</ele><time>2026-03-21T13:25:45Z</time></trkpt><trkpt lat="40.71490464865896" lon="9.60063167434507"><ele>290.0</ele><time>2026-03-21T13:25:47Z</time></trkpt><trkpt lat="40.71485511373724" lon="9.60068642439277"><ele>291.4</ele><time>2026-03-21T13:25:48Z</time></trkpt><trkpt lat="40.71480779474014" lon="9.600802297015926"><ele>292.8</ele><time>2026-03-21T13:25:50Z</time></trkpt><trkpt lat="40.71480237269078" lon="9.600952338666122"><ele>294.2</ele><time>2026-03-21T13:25:52Z</time></trkpt><trkpt lat="40.714768581302245" lon="9.60108023578249"><ele>295.6</ele><time>2026-03-21T13:25:54Z</time></trkpt><trkpt lat="40.71471270353507" lon="9.601191863057492"><ele>297.0</ele><time>2026-03-21T13:25:56Z</time></trkpt><trkpt lat="40.714725275878216" lon="9.601336745898244"><ele>297.4</ele><time>2026-03-21T13:25:58Z</time></trkpt><trkpt lat="40.714759848092804" lon="9.601493109534767"><ele>297.79999999999995</ele><time>2026-03-21T13:26:00Z</time></trkpt><trkpt lat="40.714766947354356" lon="9.601597973921928"><ele>298.2</ele><time>2026-03-21T13:26:01Z</time></trkpt><trkpt lat="40.71477460783227" lon="9.601694173337034"><ele>298.59999999999997</ele><time>2026-03-21T13:26:02Z</time></trkpt><trkpt lat="40.71477624802386" lon="9.601846508641643"><ele>299.0</ele><time>2026-03-21T13:26:04Z</time></trkpt><trkpt lat="40.71477851655938" lon="9.601931190451678"><ele>298.5</ele><time>2026-03-21T13:26:05Z</time></trkpt><trkpt lat="40.71477681645193" lon="9.602025687823426"><ele>298.0</ele><time>2026-03-21T13:26:06Z</time></trkpt><trkpt lat="40.714763684283746" lon="9.602119979055555"><ele>297.5</ele><time>2026-03-21T13:26:07Z</time></trkpt><trkpt lat="40.71472883600004" lon="9.602215617278295"><ele>297.0</ele><time>2026-03-21T13:26:08Z</time></trkpt><trkpt lat="40.71468270071686" lon="9.602308086853261"><ele>296.5</ele><time>2026-03-21T13:26:09Z</time></trkpt><trkpt lat="40.714646597096184" lon="9.602386153557543"><ele>296.0</ele><time>2026-03-21T13:26:10Z</time></trkpt><trkpt lat="40.71457077528902" lon="9.602522456627094"><ele>296.0</ele><time>2026-03-21T13:26:12Z</time></trkpt><trkpt lat="40.71454434189311" lon="9.602617518278837"><ele>296.0</ele><time>2026-03-21T13:26:13Z</time></trkpt><trkpt lat="40.71454349606346" lon="9.602730474074372"><ele>296.0</ele><time>2026-03-21T13:26:14Z</time></trkpt><trkpt lat="40.71453658771217" lon="9.602860670204375"><ele>296.0</ele><time>2026-03-21T13:26:15Z</time></trkpt><trkpt lat="40.714529189391264" lon="9.602984526351378"><ele>296.0</ele><time>2026-03-21T13:26:16Z</time></trkpt><trkpt lat="40.714524070416644" lon="9.603102085445917"><ele>296.0</ele><time>2026-03-21T13:26:17Z</time></trkpt><trkpt lat="40.71452254090351" lon="9.603217065139477"><ele>295.83333333333337</ele><time>2026-03-21T13:26:18Z</time></trkpt><trkpt lat="40.71451932191879" lon="9.603317281971881"><ele>295.6666666666667</ele><time>2026-03-21T13:26:19Z</time></trkpt><trkpt lat="40.71450634189115" lon="9.603473809479787"><ele>295.5</ele><time>2026-03-21T13:26:21Z</time></trkpt><trkpt lat="40.714504723979466" lon="9.603623584062495"><ele>295.3333333333333</ele><time>2026-03-21T13:26:23Z</time></trkpt><trkpt lat="40.71452721419585" lon="9.60370880701905"><ele>295.16666666666663</ele><time>2026-03-21T13:26:24Z</time></trkpt><trkpt lat="40.714580752229935" lon="9.603768134386833"><ele>295.0</ele><time>2026-03-21T13:26:25Z</time></trkpt><trkpt lat="40.714656803712494" lon="9.603793383121708"><ele>296.6</ele><time>2026-03-21T13:26:26Z</time></trkpt><trkpt lat="40.71477591239756" lon="9.603849475881288"><ele>298.2</ele><time>2026-03-21T13:26:28Z</time></trkpt><trkpt lat="40.7148408084" lon="9.603971941967087"><ele>299.8</ele><time>2026-03-21T13:26:30Z</time></trkpt><trkpt lat="40.714856762424716" lon="9.60408273103711"><ele>301.4</ele><time>2026-03-21T13:26:31Z</time></trkpt><trkpt lat="40.7148816030084" lon="9.60420359006007"><ele>303.0</ele><time>2026-03-21T13:26:32Z</time></trkpt><trkpt lat="40.71492604741393" lon="9.604286392646241"><ele>303.0</ele><time>2026-03-21T13:26:33Z</time></trkpt><trkpt lat="40.71499354514233" lon="9.604369083910132"><ele>303.0</ele><time>2026-03-21T13:26:34Z</time></trkpt><trkpt lat="40.71503137040637" lon="9.604448576976006"><ele>303.0</ele><time>2026-03-21T13:26:35Z</time></trkpt><trkpt lat="40.71502435343228" lon="9.604582581187527"><ele>303.0</ele><time>2026-03-21T13:26:37Z</time></trkpt><trkpt lat="40.71502281551319" lon="9.604666746496871"><ele>303.0</ele><time>2026-03-21T13:26:38Z</time></trkpt><trkpt lat="40.715049182200644" lon="9.60475135597368"><ele>303.0</ele><time>2026-03-21T13:26:39Z</time></trkpt><trkpt lat="40.71507743052841" lon="9.60482564622595"><ele>303.4</ele><time>2026-03-21T13:26:40Z</time></trkpt><trkpt lat="40.71511400359605" lon="9.60496764502192"><ele>303.8</ele><time>2026-03-21T13:26:42Z</time></trkpt><trkpt lat="40.71513079882922" lon="9.605058509484754"><ele>304.2</ele><time>2026-03-21T13:26:43Z</time></trkpt><trkpt lat="40.71515164903557" lon="9.605164259119427"><ele>304.6</ele><time>2026-03-21T13:26:44Z</time></trkpt><trkpt lat="40.715183056847984" lon="9.605287898052365"><ele>305.0</ele><time>2026-03-21T13:26:45Z</time></trkpt><trkpt lat="40.715221408839554" lon="9.60539460181867"><ele>302.5</ele><time>2026-03-21T13:26:46Z</time></trkpt><trkpt lat="40.715272518779216" lon="9.605479904274882"><ele>300.0</ele><time>2026-03-21T13:26:47Z</time></trkpt><trkpt lat="40.715331754540316" lon="9.60553813318462"><ele>297.5</ele><time>2026-03-21T13:26:48Z</time></trkpt><trkpt lat="40.715361747904986" lon="9.605679306338851"><ele>295.0</ele><time>2026-03-21T13:26:50Z</time></trkpt><trkpt lat="40.71535300870396" lon="9.60576234681292"><ele>292.5</ele><time>2026-03-21T13:26:51.001Z</time></trkpt><trkpt lat="40.71534203899053" lon="9.605849072290269"><ele>290.0</ele><time>2026-03-21T13:26:52.001Z</time></trkpt><trkpt lat="40.715343260601124" lon="9.605967802450776"><ele>290.0</ele><time>2026-03-21T13:26:54.001Z</time></trkpt><trkpt lat="40.715342212835644" lon="9.60606580146825"><ele>290.0</ele><time>2026-03-21T13:26:57.001Z</time></trkpt><trkpt lat="40.715327515389035" lon="9.606188615693599"><ele>290.0</ele><time>2026-03-21T13:28:13Z</time></trkpt><trkpt lat="40.71533378191086" lon="9.606271428885808"><ele>290.0</ele><time>2026-03-21T13:28:14Z</time></trkpt><trkpt lat="40.7154149043083" lon="9.606357765852307"><ele>290.0</ele><time>2026-03-21T13:28:16Z</time></trkpt><trkpt lat="40.715527032380514" lon="9.606388314984764"><ele>290.5</ele><time>2026-03-21T13:28:18Z</time></trkpt><trkpt lat="40.71563334500944" lon="9.606434106154575"><ele>291.0</ele><time>2026-03-21T13:28:20Z</time></trkpt><trkpt lat="40.7157371864949" lon="9.606506177036243"><ele>291.5</ele><time>2026-03-21T13:28:22Z</time></trkpt><trkpt lat="40.71579288739893" lon="9.606550577578899"><ele>292.0</ele><time>2026-03-21T13:28:23Z</time></trkpt><trkpt lat="40.715853521602796" lon="9.606603592123639"><ele>292.5</ele><time>2026-03-21T13:28:24Z</time></trkpt><trkpt lat="40.7159016757292" lon="9.606668382009524"><ele>293.0</ele><time>2026-03-21T13:28:25Z</time></trkpt><trkpt lat="40.71595515031278" lon="9.606724254745865"><ele>293.0</ele><time>2026-03-21T13:28:26Z</time></trkpt><trkpt lat="40.71601362128451" lon="9.606769284942429"><ele>293.0</ele><time>2026-03-21T13:28:27Z</time></trkpt><trkpt lat="40.71607710512263" lon="9.606797323231763"><ele>293.0</ele><time>2026-03-21T13:28:28Z</time></trkpt><trkpt lat="40.71618505762562" lon="9.606844150760281"><ele>293.0</ele><time>2026-03-21T13:28:30Z</time></trkpt><trkpt lat="40.716297527325" lon="9.606894504140982"><ele>293.0</ele><time>2026-03-21T13:28:32Z</time></trkpt><trkpt lat="40.71640034511511" lon="9.606954937270224"><ele>290.6</ele><time>2026-03-21T13:28:34Z</time></trkpt><trkpt lat="40.716500054913574" lon="9.607013441449896"><ele>288.20000000000005</ele><time>2026-03-21T13:28:36Z</time></trkpt><trkpt lat="40.716616298814074" lon="9.607079316310655"><ele>285.8</ele><time>2026-03-21T13:28:38Z</time></trkpt><trkpt lat="40.71670210451259" lon="9.6071695010685"><ele>283.40000000000003</ele><time>2026-03-21T13:28:40Z</time></trkpt><trkpt lat="40.71677045112511" lon="9.607235098385258"><ele>281.0</ele><time>2026-03-21T13:28:42Z</time></trkpt><trkpt lat="40.716833329669356" lon="9.607216428557544"><ele>281.0</ele><time>2026-03-21T13:28:46Z</time></trkpt><trkpt lat="40.71681118454289" lon="9.60709585796896"><ele>281.0</ele><time>2026-03-21T13:28:50Z</time></trkpt><trkpt lat="40.716774289082466" lon="9.606967552533856"><ele>281.0</ele><time>2026-03-21T13:28:52Z</time></trkpt><trkpt lat="40.71676185165542" lon="9.60687859946542"><ele>281.0</ele><time>2026-03-21T13:28:53Z</time></trkpt><trkpt lat="40.71675371874604" lon="9.606789886016648"><ele>281.0</ele><time>2026-03-21T13:28:54Z</time></trkpt><trkpt lat="40.71672479828775" lon="9.606616776652148"><ele>278.5</ele><time>2026-03-21T13:28:56Z</time></trkpt><trkpt lat="40.71670570751835" lon="9.606528926935043"><ele>276.0</ele><time>2026-03-21T13:28:57Z</time></trkpt><trkpt lat="40.716683602359495" lon="9.606428618643081"><ele>273.5</ele><time>2026-03-21T13:28:58.001Z</time></trkpt><trkpt lat="40.71667294402474" lon="9.606331863505714"><ele>271.0</ele><time>2026-03-21T13:28:59.001Z</time></trkpt><trkpt lat="40.716664493677655" lon="9.60623666672911"><ele>268.5</ele><time>2026-03-21T13:29:01.001Z</time></trkpt><trkpt lat="40.71671424209221" lon="9.606159768538337"><ele>266.0</ele><time>2026-03-21T13:29:03.001Z</time></trkpt><trkpt lat="40.716792286866834" lon="9.606090756575727"><ele>265.33333333333337</ele><time>2026-03-21T13:29:05.001Z</time></trkpt><trkpt lat="40.71687097696764" lon="9.606040720787936"><ele>264.6666666666667</ele><time>2026-03-21T13:29:07.001Z</time></trkpt><trkpt lat="40.71695194270282" lon="9.606076356149009"><ele>264.0</ele><time>2026-03-21T13:29:09.001Z</time></trkpt><trkpt lat="40.71701543521117" lon="9.606112125638797"><ele>263.3333333333333</ele><time>2026-03-21T13:29:11.001Z</time></trkpt><trkpt lat="40.71709223580387" lon="9.606123930193444"><ele>262.66666666666663</ele><time>2026-03-21T13:29:15.001Z</time></trkpt><trkpt lat="40.71719123812254" lon="9.606188566226656"><ele>262.0</ele><time>2026-03-21T13:29:32.001Z</time></trkpt><trkpt lat="40.717279756495564" lon="9.606254628313119"><ele>258.2</ele><time>2026-03-21T13:29:34.001Z</time></trkpt><trkpt lat="40.71735409077741" lon="9.606386112198035"><ele>254.39999999999998</ele><time>2026-03-21T13:29:36.001Z</time></trkpt><trkpt lat="40.71740000379998" lon="9.606472807805629"><ele>250.60000000000002</ele><time>2026-03-21T13:29:38.001Z</time></trkpt><trkpt lat="40.71749508903903" lon="9.606468173394681"><ele>246.8</ele><time>2026-03-21T13:29:40.001Z</time></trkpt><trkpt lat="40.717594564354975" lon="9.606570090985693"><ele>243.0</ele><time>2026-03-21T13:29:42.001Z</time></trkpt><trkpt lat="40.71766106097649" lon="9.606635252794563"><ele>243.0</ele><time>2026-03-21T13:29:43.001Z</time></trkpt><trkpt lat="40.71772951089066" lon="9.606692420146182"><ele>243.0</ele><time>2026-03-21T13:29:44.001Z</time></trkpt><trkpt lat="40.71782585855395" lon="9.606768349007716"><ele>243.0</ele><time>2026-03-21T13:29:46.001Z</time></trkpt><trkpt lat="40.717901534502914" lon="9.606763665964202"><ele>243.0</ele><time>2026-03-21T13:29:47.001Z</time></trkpt><trkpt lat="40.71798456061145" lon="9.606746247405251"><ele>243.0</ele><time>2026-03-21T13:29:48.001Z</time></trkpt><trkpt lat="40.71808386440308" lon="9.606798735859801"><ele>241.85714285714283</ele><time>2026-03-21T13:29:50.001Z</time></trkpt><trkpt lat="40.71814219375312" lon="9.60683835417886"><ele>240.71428571428572</ele><time>2026-03-21T13:29:51.001Z</time></trkpt><trkpt lat="40.718200674100075" lon="9.606884571962333"><ele>239.57142857142856</ele><time>2026-03-21T13:29:53Z</time></trkpt><trkpt lat="40.7182752817007" lon="9.606898533680196"><ele>238.42857142857142</ele><time>2026-03-21T13:30:16Z</time></trkpt><trkpt lat="40.7183264953025" lon="9.60696656064379"><ele>237.28571428571428</ele><time>2026-03-21T13:30:21Z</time></trkpt><trkpt lat="40.718280677320266" lon="9.60702481667776"><ele>236.14285714285714</ele><time>2026-03-21T13:30:23Z</time></trkpt><trkpt lat="40.71822262989093" lon="9.607103099789581"><ele>235.0</ele><time>2026-03-21T13:30:25Z</time></trkpt><trkpt lat="40.7181938051405" lon="9.607225654608026"><ele>234.99999999999997</ele><time>2026-03-21T13:30:27Z</time></trkpt><trkpt lat="40.71821168645003" lon="9.607362967695028"><ele>235.0</ele><time>2026-03-21T13:30:29Z</time></trkpt><trkpt lat="40.71824161160198" lon="9.60751281512834"><ele>235.0</ele><time>2026-03-21T13:30:31Z</time></trkpt><trkpt lat="40.71827031558466" lon="9.607613134556981"><ele>235.0</ele><time>2026-03-21T13:30:33Z</time></trkpt><trkpt lat="40.7183206888519" lon="9.60767369914302"><ele>234.99999999999997</ele><time>2026-03-21T13:30:35Z</time></trkpt><trkpt lat="40.71837601194934" lon="9.607714824482725"><ele>235.0</ele><time>2026-03-21T13:30:38Z</time></trkpt><trkpt lat="40.718428797143915" lon="9.60780415950287"><ele>235.0</ele><time>2026-03-21T13:30:53Z</time></trkpt><trkpt lat="40.71848962807609" lon="9.607880674953542"><ele>234.99999999999997</ele><time>2026-03-21T13:30:56Z</time></trkpt><trkpt lat="40.71843497301507" lon="9.607819280541303"><ele>235.0</ele><time>2026-03-21T13:31:03.001Z</time></trkpt><trkpt lat="40.718404651171106" lon="9.60774325714567"><ele>235.0</ele><time>2026-03-21T13:31:07.001Z</time></trkpt><trkpt lat="40.71833897615989" lon="9.607716616580706"><ele>234.99999999999997</ele><time>2026-03-21T13:31:10.001Z</time></trkpt><trkpt lat="40.71829293945354" lon="9.60778751292536"><ele>235.0</ele><time>2026-03-21T13:31:12.001Z</time></trkpt><trkpt lat="40.71829423630115" lon="9.607889771403133"><ele>235.0</ele><time>2026-03-21T13:31:14.001Z</time></trkpt><trkpt lat="40.71831610454153" lon="9.607982051470398"><ele>235.0</ele><time>2026-03-21T13:31:17.001Z</time></trkpt><trkpt lat="40.718314677960386" lon="9.608067293555049"><ele>234.99999999999997</ele><time>2026-03-21T13:31:20.001Z</time></trkpt><trkpt lat="40.71830252648961" lon="9.607982569270192"><ele>235.0</ele><time>2026-03-21T13:31:36.001Z</time></trkpt><trkpt lat="40.718293107053974" lon="9.607884242531439"><ele>235.0</ele><time>2026-03-21T13:31:42.001Z</time></trkpt><trkpt lat="40.71828478377236" lon="9.607787933792281"><ele>234.99999999999997</ele><time>2026-03-21T13:31:44.001Z</time></trkpt><trkpt lat="40.71831993364146" lon="9.607712135139867"><ele>235.0</ele><time>2026-03-21T13:31:46.001Z</time></trkpt><trkpt lat="40.718383432217" lon="9.607723172319004"><ele>235.0</ele><time>2026-03-21T13:31:48.001Z</time></trkpt><trkpt lat="40.71843889689595" lon="9.607814692609058"><ele>234.99999999999997</ele><time>2026-03-21T13:31:51.001Z</time></trkpt><trkpt lat="40.71841276286974" lon="9.60790701940933"><ele>235.0</ele><time>2026-03-21T13:31:55.001Z</time></trkpt><trkpt lat="40.718413743713626" lon="9.607800875467106"><ele>235.0</ele><time>2026-03-21T13:32:00Z</time></trkpt><trkpt lat="40.71836063815322" lon="9.60768855248317"><ele>235.0</ele><time>2026-03-21T13:36:47Z</time></trkpt><trkpt lat="40.71829591954757" lon="9.607614333301326"><ele>234.99999999999997</ele><time>2026-03-21T13:36:49Z</time></trkpt><trkpt lat="40.71827350166481" lon="9.607507078147705"><ele>235.0</ele><time>2026-03-21T13:36:51Z</time></trkpt><trkpt lat="40.71822595456195" lon="9.607395873964466"><ele>235.0</ele><time>2026-03-21T13:36:53Z</time></trkpt><trkpt lat="40.71821141973737" lon="9.607271390117825"><ele>235.0</ele><time>2026-03-21T13:36:55Z</time></trkpt><trkpt lat="40.71821746779722" lon="9.60712737727492"><ele>235.0</ele><time>2026-03-21T13:36:57Z</time></trkpt><trkpt lat="40.718289190582794" lon="9.607008540917752"><ele>235.0</ele><time>2026-03-21T13:36:59Z</time></trkpt><trkpt lat="40.71839488847475" lon="9.606941899840407"><ele>235.0</ele><time>2026-03-21T13:37:01Z</time></trkpt><trkpt lat="40.71851344093258" lon="9.606933659186303"><ele>233.33333333333331</ele><time>2026-03-21T13:37:03Z</time></trkpt><trkpt lat="40.71858700326238" lon="9.606961638934687"><ele>231.66666666666666</ele><time>2026-03-21T13:37:05Z</time></trkpt><trkpt lat="40.71865637167213" lon="9.607028763577237"><ele>230.0</ele><time>2026-03-21T13:37:08Z</time></trkpt><trkpt lat="40.71870805727535" lon="9.607107303499312"><ele>228.33333333333331</ele><time>2026-03-21T13:37:11Z</time></trkpt><trkpt lat="40.71879233487189" lon="9.607153308533562"><ele>226.66666666666666</ele><time>2026-03-21T13:37:16Z</time></trkpt><trkpt lat="40.71884785537122" lon="9.607200115998813"><ele>225.0</ele><time>2026-03-21T13:37:18Z</time></trkpt><trkpt lat="40.71891912283005" lon="9.607245460288146"><ele>225.0</ele><time>2026-03-21T13:37:20Z</time></trkpt><trkpt lat="40.7189990657384" lon="9.607341769654429"><ele>225.0</ele><time>2026-03-21T13:37:22Z</time></trkpt><trkpt lat="40.71906852944994" lon="9.607468342191169"><ele>225.0</ele><time>2026-03-21T13:37:24Z</time></trkpt><trkpt lat="40.7191501564454" lon="9.607553917267252"><ele>225.0</ele><time>2026-03-21T13:37:26Z</time></trkpt><trkpt lat="40.71926504957388" lon="9.607614359981444"><ele>225.0</ele><time>2026-03-21T13:37:28Z</time></trkpt><trkpt lat="40.71933345648192" lon="9.607632042961612"><ele>225.0</ele><time>2026-03-21T13:37:29Z</time></trkpt><trkpt lat="40.71940533083333" lon="9.60765234880114"><ele>225.0</ele><time>2026-03-21T13:37:30Z</time></trkpt><trkpt lat="40.71947500037875" lon="9.607666302076646"><ele>225.0</ele><time>2026-03-21T13:37:31Z</time></trkpt><trkpt lat="40.71956098006071" lon="9.607676594865044"><ele>225.0</ele><time>2026-03-21T13:37:32Z</time></trkpt><trkpt lat="40.719644405383455" lon="9.607689877131225"><ele>225.0</ele><time>2026-03-21T13:37:33Z</time></trkpt><trkpt lat="40.71972042430073" lon="9.607724656584486"><ele>224.8</ele><time>2026-03-21T13:37:34Z</time></trkpt><trkpt lat="40.71979922803266" lon="9.607786796278935"><ele>224.6</ele><time>2026-03-21T13:37:35Z</time></trkpt><trkpt lat="40.71987748655505" lon="9.607876044642675"><ele>224.39999999999998</ele><time>2026-03-21T13:37:36Z</time></trkpt><trkpt lat="40.719934134732114" lon="9.60797473520581"><ele>224.2</ele><time>2026-03-21T13:37:37.001Z</time></trkpt><trkpt lat="40.71996935942544" lon="9.608076558734243"><ele>224.0</ele><time>2026-03-21T13:37:38.001Z</time></trkpt><trkpt lat="40.72001895349117" lon="9.608154728123267"><ele>224.00000000000003</ele><time>2026-03-21T13:37:39.001Z</time></trkpt><trkpt lat="40.72007169858881" lon="9.608228761722401"><ele>224.0</ele><time>2026-03-21T13:37:40.001Z</time></trkpt><trkpt lat="40.72012277634936" lon="9.6083091643048"><ele>224.0</ele><time>2026-03-21T13:37:41.001Z</time></trkpt><trkpt lat="40.72017741511959" lon="9.60838177615796"><ele>224.0</ele><time>2026-03-21T13:37:42.001Z</time></trkpt><trkpt lat="40.720239626690784" lon="9.608452183406191"><ele>224.00000000000003</ele><time>2026-03-21T13:37:43.001Z</time></trkpt><trkpt lat="40.72028692471876" lon="9.608527564335043"><ele>224.0</ele><time>2026-03-21T13:37:44.001Z</time></trkpt><trkpt lat="40.72032039867181" lon="9.608620896399499"><ele>220.6</ele><time>2026-03-21T13:37:45.001Z</time></trkpt><trkpt lat="40.72035338802178" lon="9.608699642024042"><ele>217.2</ele><time>2026-03-21T13:37:46.001Z</time></trkpt><trkpt lat="40.720438776046606" lon="9.608804620463777"><ele>213.79999999999998</ele><time>2026-03-21T13:37:48.001Z</time></trkpt><trkpt lat="40.720557448369576" lon="9.608839103596509"><ele>210.39999999999998</ele><time>2026-03-21T13:37:50.001Z</time></trkpt><trkpt lat="40.720625748612335" lon="9.608860747329842"><ele>207.0</ele><time>2026-03-21T13:37:51.001Z</time></trkpt><trkpt lat="40.72069588799031" lon="9.608902584960726"><ele>207.0</ele><time>2026-03-21T13:37:52.001Z</time></trkpt><trkpt lat="40.720762781742145" lon="9.60896954369707"><ele>207.0</ele><time>2026-03-21T13:37:53.001Z</time></trkpt><trkpt lat="40.72082711400749" lon="9.60905555125524"><ele>207.0</ele><time>2026-03-21T13:37:54.001Z</time></trkpt><trkpt lat="40.720888043841384" lon="9.609142032698008"><ele>207.0</ele><time>2026-03-21T13:37:55.001Z</time></trkpt><trkpt lat="40.72095492397173" lon="9.609222377080041"><ele>207.0</ele><time>2026-03-21T13:37:56.001Z</time></trkpt><trkpt lat="40.72103412327981" lon="9.609290564755524"><ele>203.0</ele><time>2026-03-21T13:37:57.001Z</time></trkpt><trkpt lat="40.72111514491183" lon="9.60935756459896"><ele>199.0</ele><time>2026-03-21T13:37:58.001Z</time></trkpt><trkpt lat="40.72119358761139" lon="9.609434997542554"><ele>195.0</ele><time>2026-03-21T13:37:59.001Z</time></trkpt><trkpt lat="40.72127875932769" lon="9.609511260530079"><ele>191.0</ele><time>2026-03-21T13:38:00.001Z</time></trkpt><trkpt lat="40.721364832313796" lon="9.609578323713711"><ele>187.0</ele><time>2026-03-21T13:38:01.001Z</time></trkpt><trkpt lat="40.72144695780801" lon="9.609654424396501"><ele>187.0</ele><time>2026-03-21T13:38:02.001Z</time></trkpt><trkpt lat="40.721513988014884" lon="9.609745684543107"><ele>187.0</ele><time>2026-03-21T13:38:03.001Z</time></trkpt><trkpt lat="40.721578652668484" lon="9.60983880869092"><ele>187.0</ele><time>2026-03-21T13:38:04.001Z</time></trkpt><trkpt lat="40.72163877286843" lon="9.609920621491892"><ele>187.0</ele><time>2026-03-21T13:38:05.001Z</time></trkpt><trkpt lat="40.72167292770078" lon="9.610023987218325"><ele>187.0</ele><time>2026-03-21T13:38:06.001Z</time></trkpt><trkpt lat="40.721700998556074" lon="9.610131581416269"><ele>187.0</ele><time>2026-03-21T13:38:07.001Z</time></trkpt><trkpt lat="40.72173457701456" lon="9.610236238262749"><ele>187.0</ele><time>2026-03-21T13:38:08.001Z</time></trkpt><trkpt lat="40.721778484965" lon="9.610330965092691"><ele>187.0</ele><time>2026-03-21T13:38:09.001Z</time></trkpt><trkpt lat="40.721836637109035" lon="9.610432723870138"><ele>187.0</ele><time>2026-03-21T13:38:10.001Z</time></trkpt><trkpt lat="40.72189118117516" lon="9.610520928857104"><ele>187.0</ele><time>2026-03-21T13:38:11.001Z</time></trkpt><trkpt lat="40.72193757009045" lon="9.610577513096148"><ele>187.0</ele><time>2026-03-21T13:38:12.001Z</time></trkpt><trkpt lat="40.72199712685962" lon="9.610650504666362"><ele>184.0</ele><time>2026-03-21T13:38:13.001Z</time></trkpt><trkpt lat="40.72205944004559" lon="9.610751834179998"><ele>181.0</ele><time>2026-03-21T13:38:14.001Z</time></trkpt><trkpt lat="40.722109596121385" lon="9.610841896613682"><ele>178.0</ele><time>2026-03-21T13:38:15.001Z</time></trkpt><trkpt lat="40.72215895553163" lon="9.610944877780637"><ele>175.0</ele><time>2026-03-21T13:38:16Z</time></trkpt><trkpt lat="40.72221757299311" lon="9.611037518859023"><ele>172.0</ele><time>2026-03-21T13:38:17Z</time></trkpt><trkpt lat="40.72223936514646" lon="9.611143193319647"><ele>172.66666666666669</ele><time>2026-03-21T13:38:18Z</time></trkpt><trkpt lat="40.72225226284513" lon="9.611241603580245"><ele>173.33333333333334</ele><time>2026-03-21T13:38:19Z</time></trkpt><trkpt lat="40.72228564423119" lon="9.611333234913774"><ele>174.0</ele><time>2026-03-21T13:38:20Z</time></trkpt><trkpt lat="40.72229528870103" lon="9.611429904058046"><ele>174.66666666666666</ele><time>2026-03-21T13:38:21Z</time></trkpt><trkpt lat="40.72229552208074" lon="9.611582352331137"><ele>175.33333333333331</ele><time>2026-03-21T13:38:23Z</time></trkpt><trkpt lat="40.72231263322772" lon="9.61170880479016"><ele>176.0</ele><time>2026-03-21T13:38:25Z</time></trkpt><trkpt lat="40.72239321825942" lon="9.611798067559809"><ele>176.0</ele><time>2026-03-21T13:38:27Z</time></trkpt><trkpt lat="40.722523395705515" lon="9.611830507915842"><ele>176.0</ele><time>2026-03-21T13:38:29Z</time></trkpt><trkpt lat="40.72263120454763" lon="9.611831751987554"><ele>176.0</ele><time>2026-03-21T13:38:31Z</time></trkpt><trkpt lat="40.722729075139384" lon="9.61184977076338"><ele>176.0</ele><time>2026-03-21T13:38:33Z</time></trkpt><trkpt lat="40.72280383940006" lon="9.611863429938765"><ele>176.0</ele><time>2026-03-21T13:38:35Z</time></trkpt><trkpt lat="40.72287558255805" lon="9.61185898669761"><ele>176.0</ele><time>2026-03-21T13:39:20Z</time></trkpt><trkpt lat="40.72299086603231" lon="9.611958656486765"><ele>176.0</ele><time>2026-03-21T13:39:22Z</time></trkpt><trkpt lat="40.72305794252104" lon="9.611954423693033"><ele>176.0</ele><time>2026-03-21T13:39:23.001Z</time></trkpt><trkpt lat="40.72314334664906" lon="9.611975544373811"><ele>176.0</ele><time>2026-03-21T13:39:24.001Z</time></trkpt><trkpt lat="40.72323623506262" lon="9.611988036356898"><ele>176.0</ele><time>2026-03-21T13:39:25.001Z</time></trkpt><trkpt lat="40.72333163276491" lon="9.612014965061306"><ele>176.0</ele><time>2026-03-21T13:39:26.001Z</time></trkpt><trkpt lat="40.723413286583614" lon="9.612040792299942"><ele>176.0</ele><time>2026-03-21T13:39:27.001Z</time></trkpt><trkpt lat="40.723488982972746" lon="9.612061820776939"><ele>176.0</ele><time>2026-03-21T13:39:28.001Z</time></trkpt><trkpt lat="40.72355118995277" lon="9.612076408300183"><ele>176.0</ele><time>2026-03-21T13:39:29.001Z</time></trkpt><trkpt lat="40.72362404644984" lon="9.612195234145416"><ele>176.0</ele><time>2026-03-21T13:39:31.001Z</time></trkpt><trkpt lat="40.723638566734095" lon="9.612278758376865"><ele>176.0</ele><time>2026-03-21T13:39:32.001Z</time></trkpt><trkpt lat="40.72365688703137" lon="9.612377026149966"><ele>172.8</ele><time>2026-03-21T13:39:33.001Z</time></trkpt><trkpt lat="40.72369245419555" lon="9.612514081524784"><ele>169.60000000000002</ele><time>2026-03-21T13:39:34.001Z</time></trkpt><trkpt lat="40.72370219556267" lon="9.61262035122343"><ele>166.4</ele><time>2026-03-21T13:39:35.001Z</time></trkpt><trkpt lat="40.72374291823045" lon="9.612733581128598"><ele>163.2</ele><time>2026-03-21T13:39:36.001Z</time></trkpt><trkpt lat="40.723761337835825" lon="9.612872814944003"><ele>160.0</ele><time>2026-03-21T13:39:37.001Z</time></trkpt><trkpt lat="40.72379203628881" lon="9.613022923754746"><ele>159.6</ele><time>2026-03-21T13:39:38.001Z</time></trkpt><trkpt lat="40.723808461976446" lon="9.613162599215112"><ele>159.2</ele><time>2026-03-21T13:39:39.001Z</time></trkpt><trkpt lat="40.72381034579772" lon="9.613292524543153"><ele>158.8</ele><time>2026-03-21T13:39:40.001Z</time></trkpt><trkpt lat="40.72384282367632" lon="9.613390707329573"><ele>158.4</ele><time>2026-03-21T13:39:41.001Z</time></trkpt><trkpt lat="40.723876415157655" lon="9.613501924981527"><ele>158.0</ele><time>2026-03-21T13:39:42.001Z</time></trkpt><trkpt lat="40.723879994398025" lon="9.613613321759578"><ele>157.66666666666666</ele><time>2026-03-21T13:39:43.001Z</time></trkpt><trkpt lat="40.72390715998235" lon="9.613708023608499"><ele>157.33333333333331</ele><time>2026-03-21T13:39:44.001Z</time></trkpt><trkpt lat="40.72396121089355" lon="9.613804533787821"><ele>157.0</ele><time>2026-03-21T13:39:45.001Z</time></trkpt><trkpt lat="40.72401253071032" lon="9.613890178545885"><ele>156.66666666666666</ele><time>2026-03-21T13:39:46.001Z</time></trkpt><trkpt lat="40.72404708353913" lon="9.613983130835043"><ele>156.33333333333334</ele><time>2026-03-21T13:39:47.001Z</time></trkpt><trkpt lat="40.7240806802766" lon="9.61407734443142"><ele>156.0</ele><time>2026-03-21T13:39:48.001Z</time></trkpt><trkpt lat="40.724087574398716" lon="9.614224246031576"><ele>156.0</ele><time>2026-03-21T13:39:50.001Z</time></trkpt><trkpt lat="40.72401946002798" lon="9.614313019451357"><ele>156.0</ele><time>2026-03-21T13:39:52.001Z</time></trkpt><trkpt lat="40.72395264064899" lon="9.614430388392691"><ele>156.0</ele><time>2026-03-21T13:39:54.001Z</time></trkpt><trkpt lat="40.72389115357939" lon="9.614477288499648"><ele>156.0</ele><time>2026-03-21T13:39:55.001Z</time></trkpt><trkpt lat="40.72383357911346" lon="9.614522508479686"><ele>156.0</ele><time>2026-03-21T13:39:56.001Z</time></trkpt><trkpt lat="40.72374480965319" lon="9.614606649113934"><ele>156.4</ele><time>2026-03-21T13:39:58.001Z</time></trkpt><trkpt lat="40.72368074043625" lon="9.614678105428212"><ele>156.8</ele><time>2026-03-21T13:40:00.001Z</time></trkpt><trkpt lat="40.723678291466435" lon="9.614816631435499"><ele>157.20000000000002</ele><time>2026-03-21T13:40:02.001Z</time></trkpt><trkpt lat="40.72369666615264" lon="9.614924780367959"><ele>157.6</ele><time>2026-03-21T13:40:04.001Z</time></trkpt><trkpt lat="40.72370520812337" lon="9.615021314911493"><ele>158.0</ele><time>2026-03-21T13:40:06.001Z</time></trkpt><trkpt lat="40.72366775375251" lon="9.615148036202951"><ele>158.0</ele><time>2026-03-21T13:40:08.001Z</time></trkpt><trkpt lat="40.72357710425892" lon="9.615127396965415"><ele>158.0</ele><time>2026-03-21T13:40:09.001Z</time></trkpt><trkpt lat="40.72350351665329" lon="9.615195139196985"><ele>158.0</ele><time>2026-03-21T13:40:10.001Z</time></trkpt><trkpt lat="40.723435810520066" lon="9.615269258715918"><ele>158.0</ele><time>2026-03-21T13:40:11.001Z</time></trkpt><trkpt lat="40.723377274759095" lon="9.615355086347485"><ele>158.0</ele><time>2026-03-21T13:40:12.001Z</time></trkpt><trkpt lat="40.7233302024407" lon="9.615483505007639"><ele>156.0</ele><time>2026-03-21T13:40:13.001Z</time></trkpt><trkpt lat="40.72326474816795" lon="9.615611163653188"><ele>154.0</ele><time>2026-03-21T13:40:14.001Z</time></trkpt><trkpt lat="40.723199064146094" lon="9.615732398467719"><ele>152.0</ele><time>2026-03-21T13:40:15.001Z</time></trkpt><trkpt lat="40.72313389922596" lon="9.615845081703734"><ele>150.0</ele><time>2026-03-21T13:40:16.001Z</time></trkpt><trkpt lat="40.723059090379124" lon="9.61596505070432"><ele>150.0</ele><time>2026-03-21T13:40:17.001Z</time></trkpt><trkpt lat="40.72299837999823" lon="9.616073160402589"><ele>150.0</ele><time>2026-03-21T13:40:18.001Z</time></trkpt><trkpt lat="40.72294955283114" lon="9.61617066225584"><ele>150.0</ele><time>2026-03-21T13:40:19.001Z</time></trkpt><trkpt lat="40.72291482593764" lon="9.616275274184938"><ele>150.0</ele><time>2026-03-21T13:40:20.001Z</time></trkpt><trkpt lat="40.72290627255895" lon="9.616384497757636"><ele>150.0</ele><time>2026-03-21T13:40:21.001Z</time></trkpt><trkpt lat="40.72289228390947" lon="9.616476734278534"><ele>150.0</ele><time>2026-03-21T13:40:22Z</time></trkpt><trkpt lat="40.72289501602823" lon="9.616589342519607"><ele>150.4</ele><time>2026-03-21T13:40:23Z</time></trkpt><trkpt lat="40.722869416649814" lon="9.616680738477047"><ele>150.8</ele><time>2026-03-21T13:40:24Z</time></trkpt><trkpt lat="40.722794813573465" lon="9.616822990394583"><ele>151.2</ele><time>2026-03-21T13:40:26Z</time></trkpt><trkpt lat="40.722745609553485" lon="9.616912970375338"><ele>151.6</ele><time>2026-03-21T13:40:27Z</time></trkpt><trkpt lat="40.72269235003929" lon="9.617001821023733"><ele>152.0</ele><time>2026-03-21T13:40:28Z</time></trkpt><trkpt lat="40.72262057430571" lon="9.617119447094476"><ele>150.4</ele><time>2026-03-21T13:40:30Z</time></trkpt><trkpt lat="40.72255739386374" lon="9.617227581133236"><ele>148.79999999999998</ele><time>2026-03-21T13:40:32Z</time></trkpt><trkpt lat="40.72250633321932" lon="9.617374390776996"><ele>147.2</ele><time>2026-03-21T13:40:34Z</time></trkpt><trkpt lat="40.72250038241027" lon="9.617478975431762"><ele>145.6</ele><time>2026-03-21T13:40:35Z</time></trkpt><trkpt lat="40.7225141858664" lon="9.617593607926608"><ele>144.0</ele><time>2026-03-21T13:40:36Z</time></trkpt><trkpt lat="40.7225469350653" lon="9.617719257132313"><ele>144.0</ele><time>2026-03-21T13:40:37Z</time></trkpt><trkpt lat="40.72258518628255" lon="9.617865311566337"><ele>144.0</ele><time>2026-03-21T13:40:38Z</time></trkpt><trkpt lat="40.72262333392559" lon="9.617988236137341"><ele>144.0</ele><time>2026-03-21T13:40:39Z</time></trkpt><trkpt lat="40.7226700241292" lon="9.61813234172737"><ele>144.0</ele><time>2026-03-21T13:40:40Z</time></trkpt><trkpt lat="40.722725527793315" lon="9.618289476999882"><ele>148.0</ele><time>2026-03-21T13:40:41Z</time></trkpt><trkpt lat="40.72279929455427" lon="9.618459195850706"><ele>152.0</ele><time>2026-03-21T13:40:42Z</time></trkpt><trkpt lat="40.72284518104911" lon="9.618602064191746"><ele>156.0</ele><time>2026-03-21T13:40:43Z</time></trkpt><trkpt lat="40.72291199421284" lon="9.618746460818494"><ele>160.0</ele><time>2026-03-21T13:40:44Z</time></trkpt><trkpt lat="40.72299216596849" lon="9.618876966733634"><ele>160.0</ele><time>2026-03-21T13:40:45Z</time></trkpt><trkpt lat="40.723033684270064" lon="9.619018259941694"><ele>160.0</ele><time>2026-03-21T13:40:46Z</time></trkpt><trkpt lat="40.7230779115929" lon="9.619149688223404"><ele>160.0</ele><time>2026-03-21T13:40:47Z</time></trkpt><trkpt lat="40.72310930014735" lon="9.619277344933707"><ele>160.0</ele><time>2026-03-21T13:40:48Z</time></trkpt><trkpt lat="40.72311780190889" lon="9.619418008280748"><ele>160.0</ele><time>2026-03-21T13:40:49Z</time></trkpt><trkpt lat="40.72314161643308" lon="9.619586917510388"><ele>157.5</ele><time>2026-03-21T13:40:50Z</time></trkpt><trkpt lat="40.723167110312865" lon="9.619744512486188"><ele>155.0</ele><time>2026-03-21T13:40:51Z</time></trkpt><trkpt lat="40.72316963448201" lon="9.619895115719128"><ele>152.5</ele><time>2026-03-21T13:40:52Z</time></trkpt><trkpt lat="40.723181943569614" lon="9.620050966945817"><ele>150.0</ele><time>2026-03-21T13:40:53Z</time></trkpt><trkpt lat="40.723236884397814" lon="9.620190254307749"><ele>147.75</ele><time>2026-03-21T13:40:54Z</time></trkpt><trkpt lat="40.7232969258505" lon="9.620327265678542"><ele>145.5</ele><time>2026-03-21T13:40:55Z</time></trkpt><trkpt lat="40.72332382184615" lon="9.620465350989067"><ele>143.25</ele><time>2026-03-21T13:40:56Z</time></trkpt><trkpt lat="40.72337480147019" lon="9.620629942248318"><ele>141.0</ele><time>2026-03-21T13:40:57Z</time></trkpt><trkpt lat="40.72339953092404" lon="9.62079006802806"><ele>141.0</ele><time>2026-03-21T13:40:58Z</time></trkpt><trkpt lat="40.72341362076084" lon="9.620952998060876"><ele>141.0</ele><time>2026-03-21T13:40:59Z</time></trkpt><trkpt lat="40.72344810993651" lon="9.621089763741578"><ele>141.0</ele><time>2026-03-21T13:41:00Z</time></trkpt><trkpt lat="40.723482199382616" lon="9.621193630680807"><ele>141.0</ele><time>2026-03-21T13:41:01Z</time></trkpt><trkpt lat="40.72357417140385" lon="9.621242721607619"><ele>141.0</ele><time>2026-03-21T13:41:02Z</time></trkpt><trkpt lat="40.72367675407346" lon="9.62128445527129"><ele>142.6</ele><time>2026-03-21T13:41:03Z</time></trkpt><trkpt lat="40.72380477934246" lon="9.621351130270526"><ele>144.2</ele><time>2026-03-21T13:41:04Z</time></trkpt><trkpt lat="40.72392042535039" lon="9.62140929740236"><ele>145.8</ele><time>2026-03-21T13:41:05Z</time></trkpt><trkpt lat="40.724011185538174" lon="9.621464456442567"><ele>147.4</ele><time>2026-03-21T13:41:06Z</time></trkpt><trkpt lat="40.72408561517849" lon="9.621520045385713"><ele>149.0</ele><time>2026-03-21T13:41:07Z</time></trkpt><trkpt lat="40.72414144187699" lon="9.621581343174958"><ele>149.0</ele><time>2026-03-21T13:41:08Z</time></trkpt><trkpt lat="40.724171741664215" lon="9.621747419210964"><ele>149.0</ele><time>2026-03-21T13:41:10Z</time></trkpt><trkpt lat="40.724182543742245" lon="9.621868028464096"><ele>149.0</ele><time>2026-03-21T13:41:11Z</time></trkpt><trkpt lat="40.72421043763708" lon="9.62201799538747"><ele>149.0</ele><time>2026-03-21T13:41:12Z</time></trkpt><trkpt lat="40.72427200664886" lon="9.622158377872312"><ele>146.75</ele><time>2026-03-21T13:41:13Z</time></trkpt><trkpt lat="40.72433682756767" lon="9.62230086885426"><ele>144.5</ele><time>2026-03-21T13:41:14Z</time></trkpt><trkpt lat="40.72439848173611" lon="9.622429355008718"><ele>142.25</ele><time>2026-03-21T13:41:15Z</time></trkpt><trkpt lat="40.72448794307615" lon="9.622582082903469"><ele>140.0</ele><time>2026-03-21T13:41:16.001Z</time></trkpt><trkpt lat="40.724530659198294" lon="9.622736343839161"><ele>144.5</ele><time>2026-03-21T13:41:17.001Z</time></trkpt><trkpt lat="40.72457521525499" lon="9.622885309445234"><ele>149.0</ele><time>2026-03-21T13:41:18.001Z</time></trkpt><trkpt lat="40.72460021272654" lon="9.623023212951491"><ele>153.5</ele><time>2026-03-21T13:41:19.001Z</time></trkpt><trkpt lat="40.72461616873753" lon="9.623177970912202"><ele>158.0</ele><time>2026-03-21T13:41:20.001Z</time></trkpt><trkpt lat="40.72464606289053" lon="9.62333483437916"><ele>158.0</ele><time>2026-03-21T13:41:21.001Z</time></trkpt><trkpt lat="40.724679069510316" lon="9.62343943044255"><ele>158.0</ele><time>2026-03-21T13:41:22.001Z</time></trkpt><trkpt lat="40.72470982213714" lon="9.623525405601434"><ele>158.0</ele><time>2026-03-21T13:41:23.001Z</time></trkpt><trkpt lat="40.72478014017877" lon="9.62356202424183"><ele>158.0</ele><time>2026-03-21T13:41:24.001Z</time></trkpt><trkpt lat="40.724811766672914" lon="9.623651669309588"><ele>158.0</ele><time>2026-03-21T13:41:26.001Z</time></trkpt><trkpt lat="40.72480824875665" lon="9.623749041110647"><ele>158.0</ele><time>2026-03-21T13:41:28.001Z</time></trkpt><trkpt lat="40.72473071787103" lon="9.623860588185055"><ele>159.0</ele><time>2026-03-21T13:41:31.001Z</time></trkpt><trkpt lat="40.72468706410146" lon="9.623947942232752"><ele>160.0</ele><time>2026-03-21T13:41:55.001Z</time></trkpt><trkpt lat="40.72464554475465" lon="9.624021829361205"><ele>161.0</ele><time>2026-03-21T13:41:56.001Z</time></trkpt><trkpt lat="40.724583134622854" lon="9.624121204151942"><ele>162.0</ele><time>2026-03-21T13:41:57.001Z</time></trkpt><trkpt lat="40.72450253796576" lon="9.624198949449376"><ele>163.0</ele><time>2026-03-21T13:41:58.001Z</time></trkpt><trkpt lat="40.72440411514986" lon="9.624228176778246"><ele>164.0</ele><time>2026-03-21T13:41:59.001Z</time></trkpt><trkpt lat="40.72432924091942" lon="9.624207477034137"><ele>159.5</ele><time>2026-03-21T13:42:00.001Z</time></trkpt><trkpt lat="40.724256314553315" lon="9.624183188417225"><ele>155.0</ele><time>2026-03-21T13:42:01.001Z</time></trkpt><trkpt lat="40.724183804322344" lon="9.624167417622022"><ele>150.5</ele><time>2026-03-21T13:42:02.001Z</time></trkpt><trkpt lat="40.72410906818935" lon="9.624160519175598"><ele>146.0</ele><time>2026-03-21T13:42:03.001Z</time></trkpt><trkpt lat="40.72403753565154" lon="9.624156660404397"><ele>141.5</ele><time>2026-03-21T13:42:04.001Z</time></trkpt><trkpt lat="40.723961870032575" lon="9.62416458963841"><ele>137.0</ele><time>2026-03-21T13:42:05.001Z</time></trkpt><trkpt lat="40.72388194744073" lon="9.624186444747835"><ele>137.0</ele><time>2026-03-21T13:42:06.001Z</time></trkpt><trkpt lat="40.72379984461718" lon="9.624205958117654"><ele>137.0</ele><time>2026-03-21T13:42:07.001Z</time></trkpt><trkpt lat="40.72371860704499" lon="9.624209195841635"><ele>137.0</ele><time>2026-03-21T13:42:08.001Z</time></trkpt><trkpt lat="40.72365392803985" lon="9.624173125731522"><ele>137.0</ele><time>2026-03-21T13:42:09.001Z</time></trkpt><trkpt lat="40.72356470344385" lon="9.624157051828423"><ele>137.0</ele><time>2026-03-21T13:42:11.001Z</time></trkpt><trkpt lat="40.72351645378481" lon="9.624300056383724"><ele>137.0</ele><time>2026-03-21T13:42:13.001Z</time></trkpt><trkpt lat="40.723530602165965" lon="9.624430256010616"><ele>137.79999999999998</ele><time>2026-03-21T13:42:14.001Z</time></trkpt><trkpt lat="40.72355399501448" lon="9.624583005654902"><ele>138.6</ele><time>2026-03-21T13:42:15.001Z</time></trkpt><trkpt lat="40.72355694874339" lon="9.624745152869902"><ele>139.39999999999998</ele><time>2026-03-21T13:42:16.001Z</time></trkpt><trkpt lat="40.72357748188036" lon="9.624890308664293"><ele>140.2</ele><time>2026-03-21T13:42:17.001Z</time></trkpt><trkpt lat="40.72361825448062" lon="9.62496894441944"><ele>141.0</ele><time>2026-03-21T13:42:18.001Z</time></trkpt><trkpt lat="40.7236572738597" lon="9.625040350596006"><ele>141.0</ele><time>2026-03-21T13:42:19.001Z</time></trkpt><trkpt lat="40.723670994428645" lon="9.62512780610863"><ele>141.0</ele><time>2026-03-21T13:42:20.001Z</time></trkpt><trkpt lat="40.723675256022716" lon="9.625229492244305"><ele>141.0</ele><time>2026-03-21T13:42:21.001Z</time></trkpt><trkpt lat="40.723672201366" lon="9.625338041522967"><ele>141.0</ele><time>2026-03-21T13:42:22.001Z</time></trkpt><trkpt lat="40.7236820703463" lon="9.625458285408168"><ele>141.0</ele><time>2026-03-21T13:42:23.001Z</time></trkpt><trkpt lat="40.72371235951424" lon="9.625584237536069"><ele>141.0</ele><time>2026-03-21T13:42:24.001Z</time></trkpt><trkpt lat="40.72374560290254" lon="9.625730085220397"><ele>140.2</ele><time>2026-03-21T13:42:25.001Z</time></trkpt><trkpt lat="40.72377299411412" lon="9.62587827355857"><ele>139.39999999999998</ele><time>2026-03-21T13:42:26.001Z</time></trkpt><trkpt lat="40.723767404218215" lon="9.626012294367145"><ele>138.6</ele><time>2026-03-21T13:42:27.001Z</time></trkpt><trkpt lat="40.72374721718696" lon="9.626117994643296"><ele>137.79999999999998</ele><time>2026-03-21T13:42:28Z</time></trkpt><trkpt lat="40.72371167775572" lon="9.62620837984628"><ele>137.0</ele><time>2026-03-21T13:42:29Z</time></trkpt><trkpt lat="40.72365056114007" lon="9.626303745668517"><ele>136.79999999999998</ele><time>2026-03-21T13:42:30Z</time></trkpt><trkpt lat="40.723573600575" lon="9.6263916966336"><ele>136.6</ele><time>2026-03-21T13:42:31Z</time></trkpt><trkpt lat="40.72349715719434" lon="9.62646416769427"><ele>136.39999999999998</ele><time>2026-03-21T13:42:32Z</time></trkpt><trkpt lat="40.72342868408873" lon="9.626533998092736"><ele>136.2</ele><time>2026-03-21T13:42:33Z</time></trkpt><trkpt lat="40.723350626559586" lon="9.62661884638306"><ele>136.0</ele><time>2026-03-21T13:42:34Z</time></trkpt><trkpt lat="40.72326922024664" lon="9.626682264470377"><ele>133.2</ele><time>2026-03-21T13:42:35Z</time></trkpt><trkpt lat="40.7231807523591" lon="9.62673976946592"><ele>130.39999999999998</ele><time>2026-03-21T13:42:36Z</time></trkpt><trkpt lat="40.723091693684175" lon="9.626798837499983"><ele>127.6</ele><time>2026-03-21T13:42:37Z</time></trkpt><trkpt lat="40.7230021738037" lon="9.626876532562202"><ele>124.8</ele><time>2026-03-21T13:42:38Z</time></trkpt><trkpt lat="40.72292909321551" lon="9.62697566485735"><ele>122.0</ele><time>2026-03-21T13:42:39Z</time></trkpt><trkpt lat="40.7228652602672" lon="9.62708562555202"><ele>122.0</ele><time>2026-03-21T13:42:40Z</time></trkpt><trkpt lat="40.72281419146732" lon="9.627208999136913"><ele>121.99999999999999</ele><time>2026-03-21T13:42:41Z</time></trkpt><trkpt lat="40.72279289019982" lon="9.627335464577452"><ele>121.99999999999999</ele><time>2026-03-21T13:42:42Z</time></trkpt><trkpt lat="40.72280022756489" lon="9.627459287098185"><ele>122.0</ele><time>2026-03-21T13:42:43Z</time></trkpt><trkpt lat="40.722824915260745" lon="9.627593460238154"><ele>122.0</ele><time>2026-03-21T13:42:44Z</time></trkpt><trkpt lat="40.72286124046045" lon="9.627715343214991"><ele>120.39999999999999</ele><time>2026-03-21T13:42:45Z</time></trkpt><trkpt lat="40.72289118414329" lon="9.627849770536102"><ele>118.79999999999998</ele><time>2026-03-21T13:42:46Z</time></trkpt><trkpt lat="40.72291352266369" lon="9.62796876458913"><ele>117.2</ele><time>2026-03-21T13:42:47Z</time></trkpt><trkpt lat="40.72293502652863" lon="9.628092298283926"><ele>115.6</ele><time>2026-03-21T13:42:48Z</time></trkpt><trkpt lat="40.722930608800134" lon="9.628199900363127"><ele>114.0</ele><time>2026-03-21T13:42:49Z</time></trkpt><trkpt lat="40.722928725221" lon="9.628327007318001"><ele>114.0</ele><time>2026-03-21T13:42:50Z</time></trkpt><trkpt lat="40.7229443800271" lon="9.628453877198364"><ele>114.0</ele><time>2026-03-21T13:42:51Z</time></trkpt><trkpt lat="40.72298402391224" lon="9.628559505559858"><ele>114.0</ele><time>2026-03-21T13:42:52Z</time></trkpt><trkpt lat="40.72302413045829" lon="9.62864649915822"><ele>114.0</ele><time>2026-03-21T13:42:53Z</time></trkpt><trkpt lat="40.72304593530857" lon="9.628727920130816"><ele>114.0</ele><time>2026-03-21T13:42:54Z</time></trkpt><trkpt lat="40.723047167855896" lon="9.628811314488079"><ele>114.0</ele><time>2026-03-21T13:42:56Z</time></trkpt><trkpt lat="40.7230202234928" lon="9.628933667154191"><ele>113.5</ele><time>2026-03-21T13:42:59Z</time></trkpt><trkpt lat="40.72301414409215" lon="9.629016859080833"><ele>113.0</ele><time>2026-03-21T13:43:00Z</time></trkpt><trkpt lat="40.72303771519728" lon="9.62912471592583"><ele>112.5</ele><time>2026-03-21T13:43:01Z</time></trkpt><trkpt lat="40.723052369429894" lon="9.629248987868715"><ele>112.0</ele><time>2026-03-21T13:43:02Z</time></trkpt><trkpt lat="40.72306533205667" lon="9.629355659024167"><ele>111.5</ele><time>2026-03-21T13:43:03Z</time></trkpt><trkpt lat="40.72306531704953" lon="9.629476281140931"><ele>111.0</ele><time>2026-03-21T13:43:04Z</time></trkpt><trkpt lat="40.72306881663478" lon="9.629584052565175"><ele>111.0</ele><time>2026-03-21T13:43:05Z</time></trkpt><trkpt lat="40.72306085081035" lon="9.629695203097807"><ele>111.0</ele><time>2026-03-21T13:43:06Z</time></trkpt><trkpt lat="40.7230562033893" lon="9.629812891880206"><ele>111.0</ele><time>2026-03-21T13:43:07Z</time></trkpt><trkpt lat="40.72306030509721" lon="9.62994248890347"><ele>111.0</ele><time>2026-03-21T13:43:08Z</time></trkpt><trkpt lat="40.72307202788686" lon="9.630081481243625"><ele>111.0</ele><time>2026-03-21T13:43:09Z</time></trkpt><trkpt lat="40.72306829989327" lon="9.630228840521902"><ele>111.75</ele><time>2026-03-21T13:43:10Z</time></trkpt><trkpt lat="40.72305293503426" lon="9.630388353523646"><ele>112.5</ele><time>2026-03-21T13:43:11Z</time></trkpt><trkpt lat="40.72302501205366" lon="9.63054789244548"><ele>113.25</ele><time>2026-03-21T13:43:12Z</time></trkpt><trkpt lat="40.722971270371374" lon="9.630688159619531"><ele>114.0</ele><time>2026-03-21T13:43:13.001Z</time></trkpt><trkpt lat="40.72292722580818" lon="9.630788673301133"><ele>114.0</ele><time>2026-03-21T13:43:14.001Z</time></trkpt><trkpt lat="40.72286513031506" lon="9.63085271091092"><ele>114.0</ele><time>2026-03-21T13:43:15.001Z</time></trkpt><trkpt lat="40.7227125632443" lon="9.630786194702148"><ele>114.0</ele><time>2026-03-21T13:43:16.001Z</time></trkpt><trkpt lat="40.722622629968825" lon="9.630894815080573"><ele>114.0</ele><time>2026-03-21T13:43:18.001Z</time></trkpt><trkpt lat="40.72255406142361" lon="9.630941074679825"><ele>114.0</ele><time>2026-03-21T13:43:19.001Z</time></trkpt><trkpt lat="40.72247794468223" lon="9.63098211375717"><ele>114.0</ele><time>2026-03-21T13:43:20.001Z</time></trkpt><trkpt lat="40.722396879915586" lon="9.631013036429655"><ele>114.0</ele><time>2026-03-21T13:43:21.001Z</time></trkpt><trkpt lat="40.72231730202257" lon="9.63103619021432"><ele>114.0</ele><time>2026-03-21T13:43:22.001Z</time></trkpt><trkpt lat="40.722233307264204" lon="9.631060913346936"><ele>114.0</ele><time>2026-03-21T13:43:23.001Z</time></trkpt><trkpt lat="40.722145744099876" lon="9.631076894140076"><ele>114.0</ele><time>2026-03-21T13:43:24.001Z</time></trkpt><trkpt lat="40.72207547442649" lon="9.631108771217436"><ele>114.0</ele><time>2026-03-21T13:43:25.001Z</time></trkpt><trkpt lat="40.72197676299274" lon="9.63116072965029"><ele>114.0</ele><time>2026-03-21T13:43:26.001Z</time></trkpt><trkpt lat="40.721917801867235" lon="9.631203224507615"><ele>114.0</ele><time>2026-03-21T13:43:27.001Z</time></trkpt><trkpt lat="40.72181753931501" lon="9.631242553109697"><ele>114.0</ele><time>2026-03-21T13:43:29.001Z</time></trkpt><trkpt lat="40.72175585960791" lon="9.631267922921602"><ele>114.0</ele><time>2026-03-21T13:43:31.001Z</time></trkpt><trkpt lat="40.72172117682409" lon="9.631354163730425"><ele>114.0</ele><time>2026-03-21T13:43:33.001Z</time></trkpt><trkpt lat="40.7216527775587" lon="9.631457666996385"><ele>114.0</ele><time>2026-03-21T13:43:35.001Z</time></trkpt><trkpt lat="40.721593056265654" lon="9.631521477283007"><ele>112.5</ele><time>2026-03-21T13:43:36.001Z</time></trkpt><trkpt lat="40.72154578557203" lon="9.631609737556866"><ele>111.0</ele><time>2026-03-21T13:43:37.001Z</time></trkpt><trkpt lat="40.721508834394655" lon="9.6317152825326"><ele>109.5</ele><time>2026-03-21T13:43:38.001Z</time></trkpt><trkpt lat="40.72148314561259" lon="9.63181471512499"><ele>108.0</ele><time>2026-03-21T13:43:39.001Z</time></trkpt><trkpt lat="40.72148492396704" lon="9.631922877375617"><ele>106.5</ele><time>2026-03-21T13:43:40.001Z</time></trkpt><trkpt lat="40.721465521104875" lon="9.63205353033644"><ele>105.0</ele><time>2026-03-21T13:43:41.001Z</time></trkpt><trkpt lat="40.72147284432004" lon="9.632196591622009"><ele>105.0</ele><time>2026-03-21T13:43:42.001Z</time></trkpt><trkpt lat="40.72151174865982" lon="9.632326291253156"><ele>105.0</ele><time>2026-03-21T13:43:43.001Z</time></trkpt><trkpt lat="40.72156683390815" lon="9.632479917255584"><ele>105.0</ele><time>2026-03-21T13:43:44.001Z</time></trkpt><trkpt lat="40.721639722013244" lon="9.632633542670714"><ele>105.0</ele><time>2026-03-21T13:43:45.001Z</time></trkpt><trkpt lat="40.72172388560628" lon="9.632748661018981"><ele>104.4</ele><time>2026-03-21T13:43:46.001Z</time></trkpt><trkpt lat="40.721802710523484" lon="9.632861204409338"><ele>103.8</ele><time>2026-03-21T13:43:47.001Z</time></trkpt><trkpt lat="40.72187008972291" lon="9.632931980953293"><ele>103.19999999999999</ele><time>2026-03-21T13:43:48.001Z</time></trkpt><trkpt lat="40.72193863895261" lon="9.63299334812864"><ele>102.6</ele><time>2026-03-21T13:43:49.001Z</time></trkpt><trkpt lat="40.722029158152615" lon="9.633006636548682"><ele>102.0</ele><time>2026-03-21T13:43:50.001Z</time></trkpt><trkpt lat="40.722065209880334" lon="9.63315068733759"><ele>105.0</ele><time>2026-03-21T13:43:51.001Z</time></trkpt><trkpt lat="40.72209084731582" lon="9.633266421230799"><ele>108.0</ele><time>2026-03-21T13:43:52.001Z</time></trkpt><trkpt lat="40.722157780826386" lon="9.63338011921157"><ele>111.0</ele><time>2026-03-21T13:43:53.001Z</time></trkpt><trkpt lat="40.7223324842423" lon="9.633381820289117"><ele>114.0</ele><time>2026-03-21T13:43:54.001Z</time></trkpt><trkpt lat="40.72237983384126" lon="9.6334804141864"><ele>114.0</ele><time>2026-03-21T13:43:55.001Z</time></trkpt><trkpt lat="40.722421550901736" lon="9.633573159724952"><ele>114.0</ele><time>2026-03-21T13:43:56.001Z</time></trkpt><trkpt lat="40.72245937565218" lon="9.633658458412214"><ele>114.0</ele><time>2026-03-21T13:43:57.001Z</time></trkpt><trkpt lat="40.72251571132032" lon="9.633773053568138"><ele>114.0</ele><time>2026-03-21T13:43:58.001Z</time></trkpt><trkpt lat="40.722567081060646" lon="9.63388477698421"><ele>114.0</ele><time>2026-03-21T13:43:59.001Z</time></trkpt><trkpt lat="40.722600778678185" lon="9.63398195702119"><ele>114.0</ele><time>2026-03-21T13:44:00.001Z</time></trkpt><trkpt lat="40.72262795828218" lon="9.634084775007446"><ele>112.0</ele><time>2026-03-21T13:44:01.001Z</time></trkpt><trkpt lat="40.72264549844798" lon="9.634206511392522"><ele>110.0</ele><time>2026-03-21T13:44:02.001Z</time></trkpt><trkpt lat="40.72268486431727" lon="9.634292753327607"><ele>108.0</ele><time>2026-03-21T13:44:03.001Z</time></trkpt><trkpt lat="40.72271771746963" lon="9.634439391913148"><ele>106.0</ele><time>2026-03-21T13:44:04.001Z</time></trkpt><trkpt lat="40.722729758020975" lon="9.634583405553679"><ele>104.0</ele><time>2026-03-21T13:44:05.001Z</time></trkpt><trkpt lat="40.72275107922588" lon="9.634725167795652"><ele>106.6</ele><time>2026-03-21T13:44:06.001Z</time></trkpt><trkpt lat="40.722787382699586" lon="9.634877024945888"><ele>109.2</ele><time>2026-03-21T13:44:07.001Z</time></trkpt><trkpt lat="40.722799619599705" lon="9.635030479467904"><ele>111.79999999999998</ele><time>2026-03-21T13:44:08.001Z</time></trkpt><trkpt lat="40.72281427664501" lon="9.635171031047115"><ele>114.39999999999999</ele><time>2026-03-21T13:44:09.001Z</time></trkpt><trkpt lat="40.722833942481415" lon="9.635292608699123"><ele>117.0</ele><time>2026-03-21T13:44:10.001Z</time></trkpt><trkpt lat="40.72285136353402" lon="9.635385074003262"><ele>117.0</ele><time>2026-03-21T13:44:11.001Z</time></trkpt><trkpt lat="40.72289252928255" lon="9.635450631219241"><ele>117.0</ele><time>2026-03-21T13:44:12.001Z</time></trkpt><trkpt lat="40.72296467837013" lon="9.635502643469142"><ele>117.0</ele><time>2026-03-21T13:44:13.001Z</time></trkpt><trkpt lat="40.723039026201405" lon="9.63556668484025"><ele>117.0</ele><time>2026-03-21T13:44:14.001Z</time></trkpt><trkpt lat="40.723110965159165" lon="9.635639357845037"><ele>117.0</ele><time>2026-03-21T13:44:15.001Z</time></trkpt><trkpt lat="40.72318786044035" lon="9.6357290301679"><ele>117.0</ele><time>2026-03-21T13:44:16.001Z</time></trkpt><trkpt lat="40.72325473637896" lon="9.635835990808662"><ele>117.0</ele><time>2026-03-21T13:44:17.001Z</time></trkpt><trkpt lat="40.72333180825931" lon="9.635926611312861"><ele>116.99999999999999</ele><time>2026-03-21T13:44:18.001Z</time></trkpt><trkpt lat="40.72339421048349" lon="9.636011488666645"><ele>116.99999999999999</ele><time>2026-03-21T13:44:19.001Z</time></trkpt><trkpt lat="40.72345324993587" lon="9.636095913596023"><ele>117.0</ele><time>2026-03-21T13:44:20.001Z</time></trkpt><trkpt lat="40.72351754221934" lon="9.636190665651789"><ele>117.0</ele><time>2026-03-21T13:44:21.001Z</time></trkpt><trkpt lat="40.723576967913985" lon="9.636297093019266"><ele>117.5</ele><time>2026-03-21T13:44:22.001Z</time></trkpt><trkpt lat="40.72361555040947" lon="9.636442114372699"><ele>118.0</ele><time>2026-03-21T13:44:23.001Z</time></trkpt><trkpt lat="40.723617924576416" lon="9.63660802762492"><ele>118.5</ele><time>2026-03-21T13:44:24.001Z</time></trkpt><trkpt lat="40.7236239910317" lon="9.636781152099607"><ele>119.0</ele><time>2026-03-21T13:44:25.001Z</time></trkpt><trkpt lat="40.72367143539163" lon="9.636912253804642"><ele>116.2</ele><time>2026-03-21T13:44:26.001Z</time></trkpt><trkpt lat="40.72372896917623" lon="9.637043931358674"><ele>113.4</ele><time>2026-03-21T13:44:27.001Z</time></trkpt><trkpt lat="40.723764885431045" lon="9.637141238977483"><ele>110.6</ele><time>2026-03-21T13:44:28.001Z</time></trkpt><trkpt lat="40.723817456543664" lon="9.637254603909954"><ele>107.8</ele><time>2026-03-21T13:44:29.001Z</time></trkpt><trkpt lat="40.72386349301027" lon="9.637357526958949"><ele>105.0</ele><time>2026-03-21T13:44:30.001Z</time></trkpt><trkpt lat="40.72390750733783" lon="9.637451586044286"><ele>105.0</ele><time>2026-03-21T13:44:31.001Z</time></trkpt><trkpt lat="40.72394551169099" lon="9.637538526847619"><ele>105.0</ele><time>2026-03-21T13:44:32.001Z</time></trkpt><trkpt lat="40.72395404409127" lon="9.637632656019942"><ele>105.0</ele><time>2026-03-21T13:44:33.001Z</time></trkpt><trkpt lat="40.7239451560369" lon="9.637724208097595"><ele>105.0</ele><time>2026-03-21T13:44:34Z</time></trkpt><trkpt lat="40.7239426643189" lon="9.637833560064623"><ele>105.0</ele><time>2026-03-21T13:44:35Z</time></trkpt><trkpt lat="40.723931186145734" lon="9.63792634338828"><ele>105.0</ele><time>2026-03-21T13:44:36Z</time></trkpt><trkpt lat="40.72390319299082" lon="9.63802854050265"><ele>103.4</ele><time>2026-03-21T13:44:37Z</time></trkpt><trkpt lat="40.7238599520689" lon="9.638137348628907"><ele>101.8</ele><time>2026-03-21T13:44:38Z</time></trkpt><trkpt lat="40.72379807261906" lon="9.638242581417497"><ele>100.19999999999999</ele><time>2026-03-21T13:44:39Z</time></trkpt><trkpt lat="40.723722843777885" lon="9.63834510753921"><ele>98.6</ele><time>2026-03-21T13:44:40Z</time></trkpt><trkpt lat="40.723645296521184" lon="9.638459091081083"><ele>97.0</ele><time>2026-03-21T13:44:41Z</time></trkpt><trkpt lat="40.72356657608331" lon="9.638568063411332"><ele>94.8</ele><time>2026-03-21T13:44:42Z</time></trkpt><trkpt lat="40.72349309549943" lon="9.638670198499463"><ele>92.6</ele><time>2026-03-21T13:44:43Z</time></trkpt><trkpt lat="40.72341571448968" lon="9.638750398106657"><ele>90.39999999999999</ele><time>2026-03-21T13:44:44Z</time></trkpt><trkpt lat="40.72332723534865" lon="9.638813435158733"><ele>88.19999999999999</ele><time>2026-03-21T13:44:45Z</time></trkpt><trkpt lat="40.72324062651486" lon="9.638873651827534"><ele>86.0</ele><time>2026-03-21T13:44:46Z</time></trkpt><trkpt lat="40.72318552033714" lon="9.638949099480582"><ele>86.0</ele><time>2026-03-21T13:44:47Z</time></trkpt><trkpt lat="40.72314952071884" lon="9.639052044237006"><ele>86.0</ele><time>2026-03-21T13:44:48Z</time></trkpt><trkpt lat="40.72314212228124" lon="9.639162767357325"><ele>86.0</ele><time>2026-03-21T13:44:49Z</time></trkpt><trkpt lat="40.723137330318096" lon="9.639273677028113"><ele>86.0</ele><time>2026-03-21T13:44:50Z</time></trkpt><trkpt lat="40.72313521892794" lon="9.639395016378511"><ele>86.0</ele><time>2026-03-21T13:44:51Z</time></trkpt><trkpt lat="40.72314444009595" lon="9.63953597898967"><ele>85.0</ele><time>2026-03-21T13:44:52Z</time></trkpt><trkpt lat="40.723161052791674" lon="9.639686922673794"><ele>84.0</ele><time>2026-03-21T13:44:53Z</time></trkpt><trkpt lat="40.72319019767562" lon="9.639836157507265"><ele>83.0</ele><time>2026-03-21T13:44:54Z</time></trkpt><trkpt lat="40.72322588176073" lon="9.639979471519062"><ele>82.0</ele><time>2026-03-21T13:44:55Z</time></trkpt><trkpt lat="40.723265090575026" lon="9.640133701659472"><ele>82.0</ele><time>2026-03-21T13:44:56Z</time></trkpt><trkpt lat="40.72329830731163" lon="9.640289466141633"><ele>82.0</ele><time>2026-03-21T13:44:57Z</time></trkpt><trkpt lat="40.72332468571626" lon="9.640441905370988"><ele>82.0</ele><time>2026-03-21T13:44:58Z</time></trkpt><trkpt lat="40.72335329467088" lon="9.64059181964462"><ele>82.0</ele><time>2026-03-21T13:44:59Z</time></trkpt><trkpt lat="40.72338307350266" lon="9.640736698308727"><ele>82.0</ele><time>2026-03-21T13:45:00Z</time></trkpt><trkpt lat="40.72342216988027" lon="9.640886058416646"><ele>82.0</ele><time>2026-03-21T13:45:01Z</time></trkpt><trkpt lat="40.72346342789481" lon="9.641017761369728"><ele>82.0</ele><time>2026-03-21T13:45:02Z</time></trkpt><trkpt lat="40.72351511961708" lon="9.641158047198404"><ele>82.0</ele><time>2026-03-21T13:45:03Z</time></trkpt><trkpt lat="40.72357356396507" lon="9.64127933282731"><ele>80.8</ele><time>2026-03-21T13:45:04Z</time></trkpt><trkpt lat="40.72364034406637" lon="9.641386513319999"><ele>79.6</ele><time>2026-03-21T13:45:05Z</time></trkpt><trkpt lat="40.72371748095695" lon="9.641498169425901"><ele>78.39999999999999</ele><time>2026-03-21T13:45:06Z</time></trkpt><trkpt lat="40.723783910168336" lon="9.641589579842464"><ele>77.19999999999999</ele><time>2026-03-21T13:45:07Z</time></trkpt><trkpt lat="40.7238507586433" lon="9.641673562718607"><ele>76.0</ele><time>2026-03-21T13:45:08Z</time></trkpt><trkpt lat="40.72391652836044" lon="9.64173729299938"><ele>76.0</ele><time>2026-03-21T13:45:09Z</time></trkpt><trkpt lat="40.72397251547394" lon="9.641793511558461"><ele>76.0</ele><time>2026-03-21T13:45:10Z</time></trkpt><trkpt lat="40.724023339115625" lon="9.64184458664325"><ele>76.0</ele><time>2026-03-21T13:45:11Z</time></trkpt><trkpt lat="40.72408525798173" lon="9.641916779054403"><ele>76.0</ele><time>2026-03-21T13:45:13Z</time></trkpt><trkpt lat="40.72417540538196" lon="9.642001060740247"><ele>76.0</ele><time>2026-03-21T13:47:09Z</time></trkpt><trkpt lat="40.72426095585094" lon="9.641992571373923"><ele>76.0</ele><time>2026-03-21T13:47:10Z</time></trkpt><trkpt lat="40.72433328400235" lon="9.642052020744659"><ele>76.2</ele><time>2026-03-21T13:47:11Z</time></trkpt><trkpt lat="40.72440404062795" lon="9.642134373753137"><ele>76.39999999999999</ele><time>2026-03-21T13:47:12Z</time></trkpt><trkpt lat="40.724477380443695" lon="9.642235101042175"><ele>76.6</ele><time>2026-03-21T13:47:13Z</time></trkpt><trkpt lat="40.72454442218707" lon="9.642330784179233"><ele>76.8</ele><time>2026-03-21T13:47:14Z</time></trkpt><trkpt lat="40.72462316710675" lon="9.642435085221122"><ele>77.0</ele><time>2026-03-21T13:47:15Z</time></trkpt><trkpt lat="40.72472139840049" lon="9.642538594820982"><ele>77.0</ele><time>2026-03-21T13:47:16Z</time></trkpt><trkpt lat="40.724831039288865" lon="9.642635459982111"><ele>77.0</ele><time>2026-03-21T13:47:17Z</time></trkpt><trkpt lat="40.72494504298502" lon="9.642718098805656"><ele>77.0</ele><time>2026-03-21T13:47:18.001Z</time></trkpt><trkpt lat="40.72506644365657" lon="9.6428018571564"><ele>77.0</ele><time>2026-03-21T13:47:19.001Z</time></trkpt><trkpt lat="40.72519082382916" lon="9.642894008671712"><ele>76.33333333333334</ele><time>2026-03-21T13:47:20.001Z</time></trkpt><trkpt lat="40.725319005040674" lon="9.642989432576817"><ele>75.66666666666667</ele><time>2026-03-21T13:47:21.001Z</time></trkpt><trkpt lat="40.72545177290173" lon="9.643092536058992"><ele>75.0</ele><time>2026-03-21T13:47:22.001Z</time></trkpt><trkpt lat="40.72558362750074" lon="9.64320168313769"><ele>75.0</ele><time>2026-03-21T13:47:23.001Z</time></trkpt><trkpt lat="40.725720331589535" lon="9.64331693896869"><ele>75.0</ele><time>2026-03-21T13:47:24.001Z</time></trkpt><trkpt lat="40.7258563911155" lon="9.64343876796471"><ele>75.0</ele><time>2026-03-21T13:47:25.001Z</time></trkpt><trkpt lat="40.725985201246345" lon="9.64357432228571"><ele>75.0</ele><time>2026-03-21T13:47:26.001Z</time></trkpt><trkpt lat="40.726116501834305" lon="9.643716936678942"><ele>75.0</ele><time>2026-03-21T13:47:27.001Z</time></trkpt><trkpt lat="40.72624879762169" lon="9.643858769636076"><ele>75.0</ele><time>2026-03-21T13:47:28.001Z</time></trkpt><trkpt lat="40.72637775023829" lon="9.64400627651948"><ele>75.0</ele><time>2026-03-21T13:47:29.001Z</time></trkpt><trkpt lat="40.726503079154526" lon="9.644170727679606"><ele>75.0</ele><time>2026-03-21T13:47:30.001Z</time></trkpt><trkpt lat="40.72662647337849" lon="9.644338045122687"><ele>75.0</ele><time>2026-03-21T13:47:31.001Z</time></trkpt><trkpt lat="40.72673402146408" lon="9.644521759882645"><ele>75.0</ele><time>2026-03-21T13:47:32.001Z</time></trkpt><trkpt lat="40.72682818200066" lon="9.644722895395555"><ele>75.0</ele><time>2026-03-21T13:47:33.001Z</time></trkpt><trkpt lat="40.72692052218176" lon="9.64492675361345"><ele>75.0</ele><time>2026-03-21T13:47:34.001Z</time></trkpt><trkpt lat="40.727026921448605" lon="9.645113568232185"><ele>75.0</ele><time>2026-03-21T13:47:35.001Z</time></trkpt><trkpt lat="40.72714824778324" lon="9.645283620968293"><ele>75.0</ele><time>2026-03-21T13:47:36.001Z</time></trkpt><trkpt lat="40.727280102384555" lon="9.645446588557771"><ele>75.0</ele><time>2026-03-21T13:47:37.001Z</time></trkpt><trkpt lat="40.727407797246904" lon="9.645603015111424"><ele>73.33333333333333</ele><time>2026-03-21T13:47:38.001Z</time></trkpt><trkpt lat="40.727525071169325" lon="9.64577623464267"><ele>71.66666666666666</ele><time>2026-03-21T13:47:39.001Z</time></trkpt><trkpt lat="40.7276454137218" lon="9.645960949312375"><ele>70.0</ele><time>2026-03-21T13:47:40.001Z</time></trkpt><trkpt lat="40.727763524666315" lon="9.646148045501187"><ele>70.0</ele><time>2026-03-21T13:47:41.001Z</time></trkpt><trkpt lat="40.72788354146661" lon="9.646329177970726"><ele>70.0</ele><time>2026-03-21T13:47:42.001Z</time></trkpt><trkpt lat="40.728010036156" lon="9.64651451239713"><ele>70.0</ele><time>2026-03-21T13:47:43.001Z</time></trkpt><trkpt lat="40.728130090365255" lon="9.646692487481964"><ele>70.0</ele><time>2026-03-21T13:47:44.001Z</time></trkpt><trkpt lat="40.72824359772099" lon="9.646869865014045"><ele>70.0</ele><time>2026-03-21T13:47:45.001Z</time></trkpt><trkpt lat="40.7283454973086" lon="9.647045950309677"><ele>70.0</ele><time>2026-03-21T13:47:46.001Z</time></trkpt><trkpt lat="40.728431548814946" lon="9.647212528882847"><ele>70.0</ele><time>2026-03-21T13:47:47.001Z</time></trkpt><trkpt lat="40.72851175648076" lon="9.647372696362606"><ele>70.0</ele><time>2026-03-21T13:47:48.001Z</time></trkpt><trkpt lat="40.7285797223088" lon="9.647523919370744"><ele>70.0</ele><time>2026-03-21T13:47:49.001Z</time></trkpt><trkpt lat="40.728642203358504" lon="9.647667592671825"><ele>70.0</ele><time>2026-03-21T13:47:50.001Z</time></trkpt><trkpt lat="40.728702803538155" lon="9.647797856851511"><ele>70.0</ele><time>2026-03-21T13:47:51.001Z</time></trkpt><trkpt lat="40.728764892523756" lon="9.647923727121205"><ele>70.0</ele><time>2026-03-21T13:47:52.001Z</time></trkpt><trkpt lat="40.72883018045504" lon="9.648068855632351"><ele>70.0</ele><time>2026-03-21T13:47:53.001Z</time></trkpt><trkpt lat="40.72889339843545" lon="9.648231067398687"><ele>70.0</ele><time>2026-03-21T13:47:54.001Z</time></trkpt><trkpt lat="40.7289698673689" lon="9.64839988102684"><ele>70.0</ele><time>2026-03-21T13:47:55.001Z</time></trkpt><trkpt lat="40.72905262842678" lon="9.648578872582101"><ele>70.0</ele><time>2026-03-21T13:47:56.001Z</time></trkpt><trkpt lat="40.72913346559604" lon="9.648771422530814"><ele>70.0</ele><time>2026-03-21T13:47:57.001Z</time></trkpt><trkpt lat="40.72922115759433" lon="9.64896996706365"><ele>68.33333333333333</ele><time>2026-03-21T13:47:58.001Z</time></trkpt><trkpt lat="40.7292964644891" lon="9.649169245056125"><ele>66.66666666666667</ele><time>2026-03-21T13:47:59.001Z</time></trkpt><trkpt lat="40.72934684110854" lon="9.649383418152945"><ele>65.0</ele><time>2026-03-21T13:48:00.001Z</time></trkpt><trkpt lat="40.729372463407486" lon="9.649599343006448"><ele>65.0</ele><time>2026-03-21T13:48:01.001Z</time></trkpt><trkpt lat="40.72937537536944" lon="9.649829961449125"><ele>65.0</ele><time>2026-03-21T13:48:02.001Z</time></trkpt><trkpt lat="40.72938422758151" lon="9.650049992454864"><ele>65.0</ele><time>2026-03-21T13:48:03.001Z</time></trkpt><trkpt lat="40.729404850955675" lon="9.650241855976718"><ele>66.0</ele><time>2026-03-21T13:48:04.001Z</time></trkpt><trkpt lat="40.729460817630375" lon="9.650426980161022"><ele>67.0</ele><time>2026-03-21T13:48:05.001Z</time></trkpt><trkpt lat="40.72956061668512" lon="9.650594688581643"><ele>68.0</ele><time>2026-03-21T13:48:06.001Z</time></trkpt><trkpt lat="40.729690053287044" lon="9.65074571830359"><ele>68.0</ele><time>2026-03-21T13:48:07.001Z</time></trkpt><trkpt lat="40.72982811186153" lon="9.65085777144911"><ele>68.0</ele><time>2026-03-21T13:48:08.001Z</time></trkpt><trkpt lat="40.729965400719855" lon="9.65095578398501"><ele>68.0</ele><time>2026-03-21T13:48:09.001Z</time></trkpt><trkpt lat="40.730103315360175" lon="9.651087103463587"><ele>68.0</ele><time>2026-03-21T13:48:10.001Z</time></trkpt><trkpt lat="40.730217244507756" lon="9.651175421880932"><ele>68.0</ele><time>2026-03-21T13:48:11.001Z</time></trkpt><trkpt lat="40.73032049976964" lon="9.65126799222982"><ele>68.0</ele><time>2026-03-21T13:48:12.001Z</time></trkpt><trkpt lat="40.730409196808964" lon="9.651339580338416"><ele>68.0</ele><time>2026-03-21T13:48:13.001Z</time></trkpt><trkpt lat="40.73048917916126" lon="9.651379476933203"><ele>68.0</ele><time>2026-03-21T13:48:14.001Z</time></trkpt><trkpt lat="40.73057873319783" lon="9.651388590164968"><ele>68.0</ele><time>2026-03-21T13:48:16.001Z</time></trkpt><trkpt lat="40.730642115221" lon="9.651261862984466"><ele>68.0</ele><time>2026-03-21T13:48:18.001Z</time></trkpt><trkpt lat="40.73062877785587" lon="9.651152910094073"><ele>68.0</ele><time>2026-03-21T13:48:19.001Z</time></trkpt><trkpt lat="40.730611372558904" lon="9.651014650440874"><ele>68.0</ele><time>2026-03-21T13:48:20.001Z</time></trkpt><trkpt lat="40.73059557714682" lon="9.650890849997328"><ele>68.0</ele><time>2026-03-21T13:48:21.001Z</time></trkpt><trkpt lat="40.730564867509585" lon="9.650751306727212"><ele>69.0</ele><time>2026-03-21T13:48:22.001Z</time></trkpt><trkpt lat="40.7305565970621" lon="9.650587032660104"><ele>70.0</ele><time>2026-03-21T13:48:23.001Z</time></trkpt><trkpt lat="40.73055265195777" lon="9.650417894883406"><ele>71.0</ele><time>2026-03-21T13:48:24.001Z</time></trkpt><trkpt lat="40.730564791262424" lon="9.650237734296002"><ele>72.0</ele><time>2026-03-21T13:48:25.001Z</time></trkpt><trkpt lat="40.73060053603002" lon="9.650081033415697"><ele>72.0</ele><time>2026-03-21T13:48:26.001Z</time></trkpt><trkpt lat="40.73066484251664" lon="9.650020088358797"><ele>72.0</ele><time>2026-03-21T13:48:27.001Z</time></trkpt><trkpt lat="40.730796342962456" lon="9.649903383590898"><ele>72.0</ele><time>2026-03-21T13:48:28.001Z</time></trkpt><trkpt lat="40.730919837083555" lon="9.649763726015985"><ele>72.0</ele><time>2026-03-21T13:48:29.001Z</time></trkpt><trkpt lat="40.73104563811974" lon="9.649639521563845"><ele>73.0</ele><time>2026-03-21T13:48:30.001Z</time></trkpt><trkpt lat="40.73116709048629" lon="9.64952493841666"><ele>74.0</ele><time>2026-03-21T13:48:31.001Z</time></trkpt><trkpt lat="40.73129972927439" lon="9.649430101705974"><ele>75.0</ele><time>2026-03-21T13:48:32.001Z</time></trkpt><trkpt lat="40.73144953138225" lon="9.649373497430826"><ele>75.0</ele><time>2026-03-21T13:48:33.001Z</time></trkpt><trkpt lat="40.7316175673931" lon="9.64936059850876"><ele>75.0</ele><time>2026-03-21T13:48:34.001Z</time></trkpt><trkpt lat="40.73177715724177" lon="9.649403903625808"><ele>75.0</ele><time>2026-03-21T13:48:35.001Z</time></trkpt><trkpt lat="40.73194129930717" lon="9.64944189097374"><ele>76.66666666666667</ele><time>2026-03-21T13:48:36.001Z</time></trkpt><trkpt lat="40.73210321741102" lon="9.64946365478774"><ele>78.33333333333334</ele><time>2026-03-21T13:48:37.001Z</time></trkpt><trkpt lat="40.73225771045493" lon="9.64946057329428"><ele>80.0</ele><time>2026-03-21T13:48:38.001Z</time></trkpt><trkpt lat="40.73240370228048" lon="9.649402159458871"><ele>80.0</ele><time>2026-03-21T13:48:39.001Z</time></trkpt><trkpt lat="40.732548170635816" lon="9.649333876522636"><ele>80.0</ele><time>2026-03-21T13:48:40.001Z</time></trkpt><trkpt lat="40.73267742609013" lon="9.649231979383984"><ele>80.0</ele><time>2026-03-21T13:48:41.001Z</time></trkpt><trkpt lat="40.73281396399947" lon="9.649138725052408"><ele>81.66666666666667</ele><time>2026-03-21T13:48:42.001Z</time></trkpt><trkpt lat="40.732936905402" lon="9.649016936035752"><ele>83.33333333333333</ele><time>2026-03-21T13:48:43.001Z</time></trkpt><trkpt lat="40.73306523885154" lon="9.648906042324093"><ele>85.0</ele><time>2026-03-21T13:48:44.001Z</time></trkpt><trkpt lat="40.73318172531286" lon="9.648793995457435"><ele>85.0</ele><time>2026-03-21T13:48:45.001Z</time></trkpt><trkpt lat="40.733307611554174" lon="9.6487061095616"><ele>85.0</ele><time>2026-03-21T13:48:46Z</time></trkpt><trkpt lat="40.73342289693037" lon="9.64860498120635"><ele>85.0</ele><time>2026-03-21T13:48:47Z</time></trkpt><trkpt lat="40.733534561513636" lon="9.648507161202069"><ele>85.0</ele><time>2026-03-21T13:48:48Z</time></trkpt><trkpt lat="40.73363807295106" lon="9.648416976234406"><ele>85.5</ele><time>2026-03-21T13:48:49Z</time></trkpt><trkpt lat="40.73374253270548" lon="9.648325964996252"><ele>86.0</ele><time>2026-03-21T13:48:50Z</time></trkpt><trkpt lat="40.73385389271577" lon="9.648229878160574"><ele>86.5</ele><time>2026-03-21T13:48:51Z</time></trkpt><trkpt lat="40.73396936372997" lon="9.648130552275603"><ele>87.0</ele><time>2026-03-21T13:48:52Z</time></trkpt><trkpt lat="40.734083520093016" lon="9.648012780697963"><ele>87.0</ele><time>2026-03-21T13:48:53Z</time></trkpt><trkpt lat="40.73421639431859" lon="9.647924479670172"><ele>87.0</ele><time>2026-03-21T13:48:54Z</time></trkpt><trkpt lat="40.73435818256003" lon="9.647863037947344"><ele>87.0</ele><time>2026-03-21T13:48:55Z</time></trkpt><trkpt lat="40.73450726120052" lon="9.647823727721697"><ele>87.33333333333333</ele><time>2026-03-21T13:48:56Z</time></trkpt><trkpt lat="40.734657165992544" lon="9.647797302223669"><ele>87.66666666666666</ele><time>2026-03-21T13:48:57Z</time></trkpt><trkpt lat="40.73481005890097" lon="9.6477721852155"><ele>88.0</ele><time>2026-03-21T13:48:58Z</time></trkpt><trkpt lat="40.734957904359995" lon="9.64773983950867"><ele>88.0</ele><time>2026-03-21T13:48:59Z</time></trkpt><trkpt lat="40.73510293145679" lon="9.647702783201847"><ele>88.0</ele><time>2026-03-21T13:49:00Z</time></trkpt><trkpt lat="40.7352481552907" lon="9.647684218064603"><ele>88.0</ele><time>2026-03-21T13:49:01Z</time></trkpt><trkpt lat="40.735391993324555" lon="9.647685352495358"><ele>88.0</ele><time>2026-03-21T13:49:02Z</time></trkpt><trkpt lat="40.73553292698826" lon="9.647686049453663"><ele>90.0</ele><time>2026-03-21T13:49:03Z</time></trkpt><trkpt lat="40.73567114270567" lon="9.647688085433638"><ele>92.0</ele><time>2026-03-21T13:49:04Z</time></trkpt><trkpt lat="40.73580954865411" lon="9.647687604831225"><ele>94.0</ele><time>2026-03-21T13:49:05Z</time></trkpt><trkpt lat="40.73594669251704" lon="9.647689472004902"><ele>96.0</ele><time>2026-03-21T13:49:06Z</time></trkpt><trkpt lat="40.7360806957049" lon="9.647719491050461"><ele>98.0</ele><time>2026-03-21T13:49:07Z</time></trkpt><trkpt lat="40.73621002505131" lon="9.647731359117024"><ele>100.0</ele><time>2026-03-21T13:49:08Z</time></trkpt><trkpt lat="40.73634029858961" lon="9.647741624765581"><ele>102.0</ele><time>2026-03-21T13:49:09Z</time></trkpt><trkpt lat="40.7364723570379" lon="9.647739392374598"><ele>104.0</ele><time>2026-03-21T13:49:10Z</time></trkpt><trkpt lat="40.73660884685686" lon="9.64769430862381"><ele>104.0</ele><time>2026-03-21T13:49:11Z</time></trkpt><trkpt lat="40.73673164926292" lon="9.647625269675956"><ele>104.0</ele><time>2026-03-21T13:49:12Z</time></trkpt><trkpt lat="40.73685056267115" lon="9.647555070718822"><ele>104.0</ele><time>2026-03-21T13:49:13Z</time></trkpt><trkpt lat="40.7369795659903" lon="9.647475781223147"><ele>104.0</ele><time>2026-03-21T13:49:14Z</time></trkpt><trkpt lat="40.73710681326123" lon="9.647387460927588"><ele>103.66666666666666</ele><time>2026-03-21T13:49:15Z</time></trkpt><trkpt lat="40.737243380214444" lon="9.64731313576299"><ele>103.33333333333334</ele><time>2026-03-21T13:49:16Z</time></trkpt><trkpt lat="40.73738204012792" lon="9.647234292008221"><ele>103.0</ele><time>2026-03-21T13:49:17Z</time></trkpt><trkpt lat="40.737527119444415" lon="9.647158155182145"><ele>103.0</ele><time>2026-03-21T13:49:18Z</time></trkpt><trkpt lat="40.73767070854067" lon="9.647078500253519"><ele>103.0</ele><time>2026-03-21T13:49:19Z</time></trkpt><trkpt lat="40.73781990808689" lon="9.647002019419094"><ele>103.0</ele><time>2026-03-21T13:49:20Z</time></trkpt><trkpt lat="40.73796839283491" lon="9.646936834885242"><ele>99.66666666666667</ele><time>2026-03-21T13:49:21Z</time></trkpt><trkpt lat="40.73811997205136" lon="9.646875122578638"><ele>96.33333333333334</ele><time>2026-03-21T13:49:22Z</time></trkpt><trkpt lat="40.738272663134076" lon="9.646812923902461"><ele>93.0</ele><time>2026-03-21T13:49:23Z</time></trkpt><trkpt lat="40.738425791515915" lon="9.646749187375722"><ele>92.0</ele><time>2026-03-21T13:49:24Z</time></trkpt><trkpt lat="40.73857701320852" lon="9.646687721214331"><ele>91.0</ele><time>2026-03-21T13:49:25Z</time></trkpt><trkpt lat="40.738726706587585" lon="9.646623359303785"><ele>90.0</ele><time>2026-03-21T13:49:26Z</time></trkpt><trkpt lat="40.73887872565822" lon="9.64655942353371"><ele>90.0</ele><time>2026-03-21T13:49:27Z</time></trkpt><trkpt lat="40.73903129072073" lon="9.646492481481456"><ele>90.0</ele><time>2026-03-21T13:49:28Z</time></trkpt><trkpt lat="40.739183710338324" lon="9.646422543235774"><ele>90.0</ele><time>2026-03-21T13:49:29Z</time></trkpt><trkpt lat="40.739332039860436" lon="9.64635048781571"><ele>89.0</ele><time>2026-03-21T13:49:30Z</time></trkpt><trkpt lat="40.73948337646514" lon="9.64628362120138"><ele>88.0</ele><time>2026-03-21T13:49:31Z</time></trkpt><trkpt lat="40.739631461620725" lon="9.64622384438994"><ele>87.0</ele><time>2026-03-21T13:49:32Z</time></trkpt><trkpt lat="40.73977812853162" lon="9.646163205252284"><ele>89.0</ele><time>2026-03-21T13:49:33Z</time></trkpt><trkpt lat="40.73992300331177" lon="9.646114965645186"><ele>91.0</ele><time>2026-03-21T13:49:34Z</time></trkpt><trkpt lat="40.74007557706099" lon="9.646082111328134"><ele>93.0</ele><time>2026-03-21T13:49:35.001Z</time></trkpt><trkpt lat="40.740236902455884" lon="9.646080788945847"><ele>94.33333333333334</ele><time>2026-03-21T13:49:36.001Z</time></trkpt><trkpt lat="40.74039702000666" lon="9.646099518243638"><ele>95.66666666666667</ele><time>2026-03-21T13:49:37.001Z</time></trkpt><trkpt lat="40.7405548687798" lon="9.646125780833053"><ele>97.0</ele><time>2026-03-21T13:49:38.001Z</time></trkpt><trkpt lat="40.74071321633873" lon="9.64615135815723"><ele>93.0</ele><time>2026-03-21T13:49:39.001Z</time></trkpt><trkpt lat="40.74087231074489" lon="9.646173184698196"><ele>89.0</ele><time>2026-03-21T13:49:40.001Z</time></trkpt><trkpt lat="40.741033654338416" lon="9.646193488499613"><ele>85.0</ele><time>2026-03-21T13:49:41.001Z</time></trkpt><trkpt lat="40.74119685617609" lon="9.64621365585405"><ele>84.33333333333333</ele><time>2026-03-21T13:49:42.001Z</time></trkpt><trkpt lat="40.74136087046873" lon="9.646234909111019"><ele>83.66666666666667</ele><time>2026-03-21T13:49:43.001Z</time></trkpt><trkpt lat="40.74152364947627" lon="9.646257575871733"><ele>83.0</ele><time>2026-03-21T13:49:44.001Z</time></trkpt><trkpt lat="40.74169011678993" lon="9.646281400165979"><ele>83.0</ele><time>2026-03-21T13:49:45.001Z</time></trkpt><trkpt lat="40.74185885567983" lon="9.64630583131898"><ele>83.0</ele><time>2026-03-21T13:49:46.001Z</time></trkpt><trkpt lat="40.74202942989896" lon="9.646331257791646"><ele>83.0</ele><time>2026-03-21T13:49:47.001Z</time></trkpt><trkpt lat="40.74220488428615" lon="9.64635792426717"><ele>82.0</ele><time>2026-03-21T13:49:48.001Z</time></trkpt><trkpt lat="40.742379606352884" lon="9.646384105419589"><ele>81.0</ele><time>2026-03-21T13:49:49.001Z</time></trkpt><trkpt lat="40.74254841673032" lon="9.646403599508792"><ele>80.0</ele><time>2026-03-21T13:49:50.001Z</time></trkpt><trkpt lat="40.74270987956507" lon="9.646427240271304"><ele>78.33333333333334</ele><time>2026-03-21T13:49:51.001Z</time></trkpt><trkpt lat="40.74287160387905" lon="9.6464506830867"><ele>76.66666666666667</ele><time>2026-03-21T13:49:52.001Z</time></trkpt><trkpt lat="40.7430350648565" lon="9.646474163578358"><ele>75.0</ele><time>2026-03-21T13:49:53.001Z</time></trkpt><trkpt lat="40.74319241089773" lon="9.646496453258806"><ele>75.0</ele><time>2026-03-21T13:49:54.001Z</time></trkpt><trkpt lat="40.74334740023546" lon="9.646521667125658"><ele>75.0</ele><time>2026-03-21T13:49:55.001Z</time></trkpt><trkpt lat="40.743506418760056" lon="9.646548642621061"><ele>75.0</ele><time>2026-03-21T13:49:56.001Z</time></trkpt><trkpt lat="40.743662679060904" lon="9.646572113516092"><ele>75.0</ele><time>2026-03-21T13:49:57.001Z</time></trkpt><trkpt lat="40.74381870787076" lon="9.646591411099278"><ele>75.0</ele><time>2026-03-21T13:49:58.001Z</time></trkpt><trkpt lat="40.743973558396455" lon="9.646610296709564"><ele>75.0</ele><time>2026-03-21T13:49:59.001Z</time></trkpt><trkpt lat="40.74412777871941" lon="9.646636415320692"><ele>75.0</ele><time>2026-03-21T13:50:00.001Z</time></trkpt><trkpt lat="40.74428348170955" lon="9.646667356983274"><ele>75.0</ele><time>2026-03-21T13:50:01.001Z</time></trkpt><trkpt lat="40.7444360281289" lon="9.646700355905772"><ele>75.0</ele><time>2026-03-21T13:50:02.001Z</time></trkpt><trkpt lat="40.74458240461365" lon="9.646738513067755"><ele>74.5</ele><time>2026-03-21T13:50:03.001Z</time></trkpt><trkpt lat="40.74472564369572" lon="9.646779153835784"><ele>74.0</ele><time>2026-03-21T13:50:04.001Z</time></trkpt><trkpt lat="40.74487325832738" lon="9.646820828267696"><ele>73.5</ele><time>2026-03-21T13:50:05.001Z</time></trkpt><trkpt lat="40.74501542187087" lon="9.646862114553302"><ele>73.0</ele><time>2026-03-21T13:50:06.001Z</time></trkpt><trkpt lat="40.745154646353434" lon="9.646903159093382"><ele>71.5</ele><time>2026-03-21T13:50:07.001Z</time></trkpt><trkpt lat="40.74529874515204" lon="9.646940607716056"><ele>70.0</ele><time>2026-03-21T13:50:08.001Z</time></trkpt><trkpt lat="40.74544449990193" lon="9.646976972427511"><ele>68.5</ele><time>2026-03-21T13:50:09.001Z</time></trkpt><trkpt lat="40.74559090315509" lon="9.647005500772526"><ele>67.0</ele><time>2026-03-21T13:50:10.001Z</time></trkpt><trkpt lat="40.74574352887088" lon="9.647015503238682"><ele>67.0</ele><time>2026-03-21T13:50:11.001Z</time></trkpt><trkpt lat="40.74589350979223" lon="9.647021128227356"><ele>67.0</ele><time>2026-03-21T13:50:12.001Z</time></trkpt><trkpt lat="40.746044894038704" lon="9.647025543862098"><ele>67.0</ele><time>2026-03-21T13:50:13.001Z</time></trkpt><trkpt lat="40.746198389412015" lon="9.647028171281878"><ele>66.66666666666666</ele><time>2026-03-21T13:50:14.001Z</time></trkpt><trkpt lat="40.74635227562237" lon="9.647032004856838"><ele>66.33333333333333</ele><time>2026-03-21T13:50:15.001Z</time></trkpt><trkpt lat="40.746507257944636" lon="9.647035775087403"><ele>66.0</ele><time>2026-03-21T13:50:16.001Z</time></trkpt><trkpt lat="40.74666208101754" lon="9.647035168447141"><ele>66.0</ele><time>2026-03-21T13:50:17.001Z</time></trkpt><trkpt lat="40.7468143666566" lon="9.64703654212797"><ele>66.0</ele><time>2026-03-21T13:50:18.001Z</time></trkpt><trkpt lat="40.746967033432625" lon="9.647045954324748"><ele>66.0</ele><time>2026-03-21T13:50:19.001Z</time></trkpt><trkpt lat="40.747118473418496" lon="9.647052602938112"><ele>65.5</ele><time>2026-03-21T13:50:20.001Z</time></trkpt><trkpt lat="40.74726876451183" lon="9.64705426756574"><ele>65.0</ele><time>2026-03-21T13:50:21.001Z</time></trkpt><trkpt lat="40.74741728499521" lon="9.64706040550302"><ele>64.5</ele><time>2026-03-21T13:50:22.001Z</time></trkpt><trkpt lat="40.7475659247629" lon="9.647065653958583"><ele>64.0</ele><time>2026-03-21T13:50:23.001Z</time></trkpt><trkpt lat="40.74771368815174" lon="9.647065819704165"><ele>63.5</ele><time>2026-03-21T13:50:24.001Z</time></trkpt><trkpt lat="40.747862040293676" lon="9.64706651509048"><ele>63.0</ele><time>2026-03-21T13:50:25.001Z</time></trkpt><trkpt lat="40.748007411526224" lon="9.647072987251365"><ele>62.5</ele><time>2026-03-21T13:50:26.001Z</time></trkpt><trkpt lat="40.74815081283418" lon="9.647077937053531"><ele>62.0</ele><time>2026-03-21T13:50:27.001Z</time></trkpt><trkpt lat="40.74829671114051" lon="9.647084602558069"><ele>62.0</ele><time>2026-03-21T13:50:28.001Z</time></trkpt><trkpt lat="40.748441958956214" lon="9.647087918210307"><ele>62.0</ele><time>2026-03-21T13:50:29.001Z</time></trkpt><trkpt lat="40.74858709432299" lon="9.64708904293204"><ele>62.0</ele><time>2026-03-21T13:50:30.001Z</time></trkpt><trkpt lat="40.74873229263385" lon="9.6470913577901"><ele>62.0</ele><time>2026-03-21T13:50:31.001Z</time></trkpt><trkpt lat="40.74888270976827" lon="9.647092532537819"><ele>61.25</ele><time>2026-03-21T13:50:32.001Z</time></trkpt><trkpt lat="40.749031422339" lon="9.647101752766755"><ele>60.5</ele><time>2026-03-21T13:50:33.001Z</time></trkpt><trkpt lat="40.749179127023346" lon="9.647111473565216"><ele>59.75</ele><time>2026-03-21T13:50:34.001Z</time></trkpt><trkpt lat="40.7493281372852" lon="9.647133466356863"><ele>59.0</ele><time>2026-03-21T13:50:35.001Z</time></trkpt><trkpt lat="40.749465381354796" lon="9.647172355127093"><ele>58.400000000000006</ele><time>2026-03-21T13:50:36.001Z</time></trkpt><trkpt lat="40.749591377408876" lon="9.647218840859368"><ele>57.800000000000004</ele><time>2026-03-21T13:50:37.001Z</time></trkpt><trkpt lat="40.74970042562327" lon="9.647258056332543"><ele>57.199999999999996</ele><time>2026-03-21T13:50:38.001Z</time></trkpt><trkpt lat="40.7498010213002" lon="9.647285174374105"><ele>56.599999999999994</ele><time>2026-03-21T13:50:39.001Z</time></trkpt><trkpt lat="40.74988909562594" lon="9.647323654627167"><ele>56.0</ele><time>2026-03-21T13:50:40.001Z</time></trkpt><trkpt lat="40.74996459645738" lon="9.647308346571451"><ele>56.00000000000001</ele><time>2026-03-21T13:50:41.001Z</time></trkpt><trkpt lat="40.75006372617794" lon="9.647317371121536"><ele>56.0</ele><time>2026-03-21T13:50:43.001Z</time></trkpt><trkpt lat="40.75014808248854" lon="9.64729298819865"><ele>56.0</ele><time>2026-03-21T13:50:45.001Z</time></trkpt><trkpt lat="40.7502571651897" lon="9.647229986716084"><ele>56.0</ele><time>2026-03-21T13:50:47.001Z</time></trkpt><trkpt lat="40.75031952338105" lon="9.647197777185779"><ele>56.00000000000001</ele><time>2026-03-21T13:50:48.001Z</time></trkpt><trkpt lat="40.75038135461549" lon="9.647162220996547"><ele>56.0</ele><time>2026-03-21T13:50:49.001Z</time></trkpt><trkpt lat="40.750480624442005" lon="9.647098271007499"><ele>56.00000000000001</ele><time>2026-03-21T13:50:51.001Z</time></trkpt><trkpt lat="40.75057699130589" lon="9.64704657846972"><ele>56.0</ele><time>2026-03-21T13:50:53Z</time></trkpt><trkpt lat="40.75068317214477" lon="9.647005749253369"><ele>56.0</ele><time>2026-03-21T13:50:55Z</time></trkpt><trkpt lat="40.75076749737286" lon="9.647000123470894"><ele>56.0</ele><time>2026-03-21T13:50:57Z</time></trkpt><trkpt lat="40.75083312127673" lon="9.647009495844372"><ele>56.00000000000001</ele><time>2026-03-21T13:51:01Z</time></trkpt><trkpt lat="40.7508923892873" lon="9.64696035638964"><ele>56.0</ele><time>2026-03-21T13:51:03Z</time></trkpt><trkpt lat="40.750878957106174" lon="9.646846344511895"><ele>56.00000000000001</ele><time>2026-03-21T13:51:05Z</time></trkpt><trkpt lat="40.750861980729496" lon="9.646726974266718"><ele>56.0</ele><time>2026-03-21T13:51:07Z</time></trkpt><trkpt lat="40.75081834897909" lon="9.646641576679466"><ele>56.0</ele><time>2026-03-21T13:51:08Z</time></trkpt><trkpt lat="40.75079014099297" lon="9.646541558334038"><ele>56.0</ele><time>2026-03-21T13:51:09Z</time></trkpt><trkpt lat="40.750752112389385" lon="9.646441662020392"><ele>56.00000000000001</ele><time>2026-03-21T13:51:10Z</time></trkpt><trkpt lat="40.75071137245817" lon="9.646344583812164"><ele>56.0</ele><time>2026-03-21T13:51:11Z</time></trkpt><trkpt lat="40.750666150260294" lon="9.646243010776432"><ele>56.00000000000001</ele><time>2026-03-21T13:51:12Z</time></trkpt><trkpt lat="40.75061903676767" lon="9.64613890760892"><ele>56.0</ele><time>2026-03-21T13:51:13Z</time></trkpt><trkpt lat="40.75056951035551" lon="9.646036240229868"><ele>56.0</ele><time>2026-03-21T13:51:14Z</time></trkpt><trkpt lat="40.75050610583998" lon="9.64596111989122"><ele>56.0</ele><time>2026-03-21T13:51:15Z</time></trkpt><trkpt lat="40.750464856369696" lon="9.645865901332385"><ele>56.00000000000001</ele><time>2026-03-21T13:51:16Z</time></trkpt><trkpt lat="40.75042116748577" lon="9.645773435754391"><ele>56.0</ele><time>2026-03-21T13:51:17Z</time></trkpt><trkpt lat="40.7504179407342" lon="9.645654191400913"><ele>57.199999999999996</ele><time>2026-03-21T13:51:18Z</time></trkpt><trkpt lat="40.750396333348114" lon="9.645530830007052"><ele>58.39999999999999</ele><time>2026-03-21T13:51:19Z</time></trkpt><trkpt lat="40.75039474729339" lon="9.645400682884794"><ele>59.6</ele><time>2026-03-21T13:51:20Z</time></trkpt><trkpt lat="40.75039122621352" lon="9.645269042729696"><ele>60.8</ele><time>2026-03-21T13:51:21Z</time></trkpt><trkpt lat="40.75040794151324" lon="9.645129663852087"><ele>62.0</ele><time>2026-03-21T13:51:22Z</time></trkpt><trkpt lat="40.75045595100012" lon="9.64500425435067"><ele>63.6</ele><time>2026-03-21T13:51:23Z</time></trkpt><trkpt lat="40.7505275836583" lon="9.644897826321719"><ele>65.2</ele><time>2026-03-21T13:51:24Z</time></trkpt><trkpt lat="40.750608669195195" lon="9.644798845164527"><ele>66.8</ele><time>2026-03-21T13:51:25Z</time></trkpt><trkpt lat="40.75069926517673" lon="9.644674202848208"><ele>68.4</ele><time>2026-03-21T13:51:26Z</time></trkpt><trkpt lat="40.75076319120408" lon="9.644573265743396"><ele>70.0</ele><time>2026-03-21T13:51:27Z</time></trkpt><trkpt lat="40.750825869229445" lon="9.644481020126731"><ele>70.33333333333333</ele><time>2026-03-21T13:51:28Z</time></trkpt><trkpt lat="40.75088769875447" lon="9.644397704586712"><ele>70.66666666666666</ele><time>2026-03-21T13:51:29Z</time></trkpt><trkpt lat="40.750949777258064" lon="9.644308215373421"><ele>71.0</ele><time>2026-03-21T13:51:30Z</time></trkpt><trkpt lat="40.75101008858064" lon="9.644253975974163"><ele>71.33333333333333</ele><time>2026-03-21T13:51:31Z</time></trkpt><trkpt lat="40.75109584309191" lon="9.644233052905172"><ele>71.66666666666667</ele><time>2026-03-21T13:51:32Z</time></trkpt><trkpt lat="40.75118747405021" lon="9.644222991225346"><ele>72.0</ele><time>2026-03-21T13:51:33Z</time></trkpt><trkpt lat="40.75127470463794" lon="9.644220479770615"><ele>72.16666666666667</ele><time>2026-03-21T13:51:34Z</time></trkpt><trkpt lat="40.751361410653644" lon="9.644233257732946"><ele>72.33333333333333</ele><time>2026-03-21T13:51:35Z</time></trkpt><trkpt lat="40.751446181836286" lon="9.6442366066505"><ele>72.5</ele><time>2026-03-21T13:51:36Z</time></trkpt><trkpt lat="40.751532923948936" lon="9.644232297981095"><ele>72.66666666666666</ele><time>2026-03-21T13:51:37Z</time></trkpt><trkpt lat="40.75162148094278" lon="9.64421542935454"><ele>72.83333333333333</ele><time>2026-03-21T13:51:38Z</time></trkpt><trkpt lat="40.75171682164519" lon="9.644200769078696"><ele>73.0</ele><time>2026-03-21T13:51:39Z</time></trkpt><trkpt lat="40.751814624166244" lon="9.644190251946196"><ele>71.8</ele><time>2026-03-21T13:51:40Z</time></trkpt><trkpt lat="40.75190896567106" lon="9.644169028563086"><ele>70.6</ele><time>2026-03-21T13:51:41Z</time></trkpt><trkpt lat="40.751991862150824" lon="9.64414224292652"><ele>69.4</ele><time>2026-03-21T13:51:42Z</time></trkpt><trkpt lat="40.752051295703104" lon="9.644114576406567"><ele>68.2</ele><time>2026-03-21T13:51:43Z</time></trkpt><trkpt lat="40.75212381989731" lon="9.644008551585262"><ele>67.0</ele><time>2026-03-21T13:51:45Z</time></trkpt><trkpt lat="40.752110054834425" lon="9.643868361732945"><ele>67.0</ele><time>2026-03-21T13:51:46Z</time></trkpt><trkpt lat="40.752115809104474" lon="9.643734111800441"><ele>67.0</ele><time>2026-03-21T13:51:47Z</time></trkpt><trkpt lat="40.75212095768649" lon="9.643587136215322"><ele>67.0</ele><time>2026-03-21T13:51:48Z</time></trkpt><trkpt lat="40.752126401875636" lon="9.643431722081791"><ele>67.0</ele><time>2026-03-21T13:51:49Z</time></trkpt><trkpt lat="40.752131773782324" lon="9.643278371507535"><ele>67.0</ele><time>2026-03-21T13:51:50Z</time></trkpt><trkpt lat="40.75213809891862" lon="9.643129830597239"><ele>66.5</ele><time>2026-03-21T13:51:51Z</time></trkpt><trkpt lat="40.752146002188304" lon="9.642983098482965"><ele>66.0</ele><time>2026-03-21T13:51:52.001Z</time></trkpt><trkpt lat="40.752154939276025" lon="9.642833446155525"><ele>65.5</ele><time>2026-03-21T13:51:53.001Z</time></trkpt><trkpt lat="40.75216480384614" lon="9.642683889074036"><ele>65.0</ele><time>2026-03-21T13:51:54.001Z</time></trkpt><trkpt lat="40.75217521125398" lon="9.642529267540393"><ele>64.8</ele><time>2026-03-21T13:51:55.001Z</time></trkpt><trkpt lat="40.75218392543182" lon="9.642399801807834"><ele>64.6</ele><time>2026-03-21T13:51:56.001Z</time></trkpt><trkpt lat="40.75219294708995" lon="9.642265768296731"><ele>64.4</ele><time>2026-03-21T13:51:57.001Z</time></trkpt><trkpt lat="40.75220202232139" lon="9.642130938720438"><ele>64.2</ele><time>2026-03-21T13:51:58.001Z</time></trkpt><trkpt lat="40.75221142704104" lon="9.641991214032918"><ele>64.0</ele><time>2026-03-21T13:51:59.001Z</time></trkpt><trkpt lat="40.75222064856817" lon="9.641856370250299"><ele>64.0</ele><time>2026-03-21T13:52:00.001Z</time></trkpt><trkpt lat="40.7522290744184" lon="9.641737785812573"><ele>64.0</ele><time>2026-03-21T13:52:01.001Z</time></trkpt><trkpt lat="40.752238424616415" lon="9.641606633192204"><ele>64.0</ele><time>2026-03-21T13:52:02.001Z</time></trkpt><trkpt lat="40.752249969408474" lon="9.641464684679935"><ele>64.0</ele><time>2026-03-21T13:52:03.001Z</time></trkpt><trkpt lat="40.75226621927631" lon="9.641317401992007"><ele>64.0</ele><time>2026-03-21T13:52:04.001Z</time></trkpt><trkpt lat="40.75228762520058" lon="9.64117276816617"><ele>65.4</ele><time>2026-03-21T13:52:05.001Z</time></trkpt><trkpt lat="40.752308016184315" lon="9.641036937118823"><ele>66.80000000000001</ele><time>2026-03-21T13:52:06.001Z</time></trkpt><trkpt lat="40.75231764657304" lon="9.640911782252205"><ele>68.19999999999999</ele><time>2026-03-21T13:52:07.001Z</time></trkpt><trkpt lat="40.75227491679691" lon="9.64082093116792"><ele>69.6</ele><time>2026-03-21T13:52:08.001Z</time></trkpt><trkpt lat="40.7521764809122" lon="9.640837512210542"><ele>71.0</ele><time>2026-03-21T13:52:09.001Z</time></trkpt><trkpt lat="40.75211241676439" lon="9.640798482036177"><ele>71.0</ele><time>2026-03-21T13:52:10.001Z</time></trkpt><trkpt lat="40.75207509569733" lon="9.640730874049977"><ele>71.0</ele><time>2026-03-21T13:52:11.001Z</time></trkpt><trkpt lat="40.752052259843445" lon="9.640617238932832"><ele>71.0</ele><time>2026-03-21T13:52:12.001Z</time></trkpt><trkpt lat="40.75201984526467" lon="9.64049340884126"><ele>71.0</ele><time>2026-03-21T13:52:13.001Z</time></trkpt><trkpt lat="40.751993005071704" lon="9.640374279111336"><ele>71.0</ele><time>2026-03-21T13:52:14.001Z</time></trkpt><trkpt lat="40.751968351126955" lon="9.640248442872007"><ele>71.0</ele><time>2026-03-21T13:52:15.001Z</time></trkpt><trkpt lat="40.75198779923108" lon="9.640132294729485"><ele>72.5</ele><time>2026-03-21T13:52:17.001Z</time></trkpt><trkpt lat="40.752056402738" lon="9.640116797725764"><ele>74.0</ele><time>2026-03-21T13:52:18.001Z</time></trkpt><trkpt lat="40.75213033645647" lon="9.6401835053711"><ele>75.5</ele><time>2026-03-21T13:52:19.001Z</time></trkpt><trkpt lat="40.75220660998932" lon="9.640163650952775"><ele>77.0</ele><time>2026-03-21T13:52:20.001Z</time></trkpt><trkpt lat="40.75229329380305" lon="9.640157144448416"><ele>78.5</ele><time>2026-03-21T13:52:21.001Z</time></trkpt><trkpt lat="40.752355200270244" lon="9.640097466726663"><ele>80.0</ele><time>2026-03-21T13:52:22.001Z</time></trkpt><trkpt lat="40.75237197965536" lon="9.639965570051736"><ele>80.0</ele><time>2026-03-21T13:52:23.001Z</time></trkpt><trkpt lat="40.75237893953718" lon="9.63982793141272"><ele>80.0</ele><time>2026-03-21T13:52:24.001Z</time></trkpt><trkpt lat="40.75239871018201" lon="9.63968555242941"><ele>80.0</ele><time>2026-03-21T13:52:25.001Z</time></trkpt><trkpt lat="40.752403824556325" lon="9.639541291943003"><ele>80.0</ele><time>2026-03-21T13:52:26.001Z</time></trkpt><trkpt lat="40.752417067333816" lon="9.639391426599897"><ele>80.0</ele><time>2026-03-21T13:52:27.001Z</time></trkpt><trkpt lat="40.752445581004885" lon="9.639225518421533"><ele>82.8</ele><time>2026-03-21T13:52:28.001Z</time></trkpt><trkpt lat="40.75244654910884" lon="9.639064568143183"><ele>85.6</ele><time>2026-03-21T13:52:29.001Z</time></trkpt><trkpt lat="40.75243487110886" lon="9.638910203058044"><ele>88.4</ele><time>2026-03-21T13:52:30.001Z</time></trkpt><trkpt lat="40.752418484542666" lon="9.638764885751224"><ele>91.2</ele><time>2026-03-21T13:52:31.001Z</time></trkpt><trkpt lat="40.752396288164796" lon="9.638639897468126"><ele>94.0</ele><time>2026-03-21T13:52:32.001Z</time></trkpt><trkpt lat="40.752359909999974" lon="9.638527705978786"><ele>95.33333333333333</ele><time>2026-03-21T13:52:33.001Z</time></trkpt><trkpt lat="40.752358139301926" lon="9.638428626205492"><ele>96.66666666666666</ele><time>2026-03-21T13:52:34.001Z</time></trkpt><trkpt lat="40.752348650452355" lon="9.638281279785387"><ele>98.0</ele><time>2026-03-21T13:52:36.001Z</time></trkpt><trkpt lat="40.75240302797194" lon="9.638228751643151"><ele>99.33333333333333</ele><time>2026-03-21T13:52:37.001Z</time></trkpt><trkpt lat="40.75246284896077" lon="9.638169806149442"><ele>100.66666666666667</ele><time>2026-03-21T13:52:38.001Z</time></trkpt><trkpt lat="40.752548700269514" lon="9.638101155249565"><ele>102.0</ele><time>2026-03-21T13:52:39.001Z</time></trkpt><trkpt lat="40.752631546121805" lon="9.638054689366074"><ele>100.66666666666667</ele><time>2026-03-21T13:52:40.001Z</time></trkpt><trkpt lat="40.75273763957947" lon="9.637993091575153"><ele>99.33333333333333</ele><time>2026-03-21T13:52:41.001Z</time></trkpt><trkpt lat="40.752817045577004" lon="9.637948582121753"><ele>98.0</ele><time>2026-03-21T13:52:42.001Z</time></trkpt><trkpt lat="40.75289042724511" lon="9.637910139660525"><ele>96.66666666666666</ele><time>2026-03-21T13:52:43.001Z</time></trkpt><trkpt lat="40.75292986709573" lon="9.637838398037372"><ele>95.33333333333333</ele><time>2026-03-21T13:52:44.001Z</time></trkpt><trkpt lat="40.75293761092262" lon="9.63773834023902"><ele>94.0</ele><time>2026-03-21T13:52:45.001Z</time></trkpt><trkpt lat="40.75290519925076" lon="9.637621140043168"><ele>93.0</ele><time>2026-03-21T13:52:46.001Z</time></trkpt><trkpt lat="40.75289114996157" lon="9.637510062798526"><ele>92.0</ele><time>2026-03-21T13:52:47.001Z</time></trkpt><trkpt lat="40.75288081368135" lon="9.63739646672852"><ele>91.0</ele><time>2026-03-21T13:52:48.001Z</time></trkpt><trkpt lat="40.75287001439834" lon="9.637275174056482"><ele>90.0</ele><time>2026-03-21T13:52:49.001Z</time></trkpt><trkpt lat="40.75285736055654" lon="9.63713305205792"><ele>89.0</ele><time>2026-03-21T13:52:50.001Z</time></trkpt><trkpt lat="40.75284499770921" lon="9.636994544674195"><ele>86.2</ele><time>2026-03-21T13:52:51.001Z</time></trkpt><trkpt lat="40.75283006349069" lon="9.636853441993434"><ele>83.4</ele><time>2026-03-21T13:52:52.001Z</time></trkpt><trkpt lat="40.75282296068694" lon="9.636733581498818"><ele>80.6</ele><time>2026-03-21T13:52:53.001Z</time></trkpt><trkpt lat="40.752831559692076" lon="9.636613450390788"><ele>77.8</ele><time>2026-03-21T13:52:54.001Z</time></trkpt><trkpt lat="40.752875785339825" lon="9.636523454313792"><ele>75.0</ele><time>2026-03-21T13:52:55.001Z</time></trkpt><trkpt lat="40.75290978484306" lon="9.63639554414346"><ele>75.0</ele><time>2026-03-21T13:52:57.001Z</time></trkpt><trkpt lat="40.75295151697917" lon="9.636235734594083"><ele>75.0</ele><time>2026-03-21T13:52:59Z</time></trkpt><trkpt lat="40.752965422718674" lon="9.63610969578891"><ele>75.0</ele><time>2026-03-21T13:53:00Z</time></trkpt><trkpt lat="40.752976319929374" lon="9.63598063629504"><ele>75.0</ele><time>2026-03-21T13:53:01Z</time></trkpt><trkpt lat="40.75297201629219" lon="9.63584335347201"><ele>75.0</ele><time>2026-03-21T13:53:02Z</time></trkpt><trkpt lat="40.75298368382647" lon="9.63569876385838"><ele>73.2</ele><time>2026-03-21T13:53:03Z</time></trkpt><trkpt lat="40.75298076186776" lon="9.635556113933445"><ele>71.4</ele><time>2026-03-21T13:53:04Z</time></trkpt><trkpt lat="40.75298131241719" lon="9.635417244516969"><ele>69.6</ele><time>2026-03-21T13:53:05Z</time></trkpt><trkpt lat="40.75298270455704" lon="9.635300584576948"><ele>67.8</ele><time>2026-03-21T13:53:06Z</time></trkpt><trkpt lat="40.75298307898283" lon="9.635179986749915"><ele>66.0</ele><time>2026-03-21T13:53:07Z</time></trkpt><trkpt lat="40.752981127704764" lon="9.635071096178535"><ele>65.66666666666667</ele><time>2026-03-21T13:53:08Z</time></trkpt><trkpt lat="40.75298881577531" lon="9.634952421816225"><ele>65.33333333333333</ele><time>2026-03-21T13:53:09Z</time></trkpt><trkpt lat="40.75300320532366" lon="9.634839801476426"><ele>65.0</ele><time>2026-03-21T13:53:10Z</time></trkpt><trkpt lat="40.75302175063116" lon="9.634757671467025"><ele>64.66666666666666</ele><time>2026-03-21T13:53:11Z</time></trkpt><trkpt lat="40.75304949387613" lon="9.634644299806531"><ele>64.33333333333333</ele><time>2026-03-21T13:53:12Z</time></trkpt><trkpt lat="40.75307577865279" lon="9.634530399033137"><ele>64.0</ele><time>2026-03-21T13:53:13Z</time></trkpt><trkpt lat="40.753101509864145" lon="9.634414027357025"><ele>65.0</ele><time>2026-03-21T13:53:14Z</time></trkpt><trkpt lat="40.75311798385144" lon="9.634299194573325"><ele>66.0</ele><time>2026-03-21T13:53:15Z</time></trkpt><trkpt lat="40.7531277493299" lon="9.634173307638669"><ele>67.0</ele><time>2026-03-21T13:53:16Z</time></trkpt><trkpt lat="40.753116319208345" lon="9.634042430919457"><ele>68.0</ele><time>2026-03-21T13:53:17Z</time></trkpt><trkpt lat="40.75313363600345" lon="9.633920756968795"><ele>69.0</ele><time>2026-03-21T13:53:18Z</time></trkpt><trkpt lat="40.75314221310548" lon="9.633837296702582"><ele>70.0</ele><time>2026-03-21T13:53:19Z</time></trkpt><trkpt lat="40.75316242757428" lon="9.633660844015699"><ele>70.33333333333333</ele><time>2026-03-21T13:53:21Z</time></trkpt><trkpt lat="40.75317527422437" lon="9.633568828893228"><ele>70.66666666666666</ele><time>2026-03-21T13:53:22Z</time></trkpt><trkpt lat="40.753205320751796" lon="9.633428815672993"><ele>71.0</ele><time>2026-03-21T13:53:24Z</time></trkpt><trkpt lat="40.75326263656432" lon="9.633339369434603"><ele>71.33333333333333</ele><time>2026-03-21T13:53:26Z</time></trkpt><trkpt lat="40.75336260604399" lon="9.633324714190291"><ele>71.66666666666667</ele><time>2026-03-21T13:53:28Z</time></trkpt><trkpt lat="40.75342669023462" lon="9.633283348539372"><ele>72.0</ele><time>2026-03-21T13:53:30Z</time></trkpt><trkpt lat="40.75344751270958" lon="9.633172257433603"><ele>72.0</ele><time>2026-03-21T13:53:32Z</time></trkpt><trkpt lat="40.75344635912672" lon="9.633074892841854"><ele>72.0</ele><time>2026-03-21T13:53:34Z</time></trkpt><trkpt lat="40.75346510115145" lon="9.63295305048547"><ele>72.0</ele><time>2026-03-21T13:53:37Z</time></trkpt><trkpt lat="40.75350674864188" lon="9.632788660292713"><ele>72.0</ele><time>2026-03-21T13:53:39Z</time></trkpt><trkpt lat="40.753529599847695" lon="9.632672237168247"><ele>72.0</ele><time>2026-03-21T13:53:40Z</time></trkpt><trkpt lat="40.75352908918165" lon="9.632559989406147"><ele>72.2</ele><time>2026-03-21T13:53:41Z</time></trkpt><trkpt lat="40.75353520418396" lon="9.632438206623842"><ele>72.4</ele><time>2026-03-21T13:53:42Z</time></trkpt><trkpt lat="40.753530299118474" lon="9.632331642690769"><ele>72.6</ele><time>2026-03-21T13:53:43Z</time></trkpt><trkpt lat="40.75352597428125" lon="9.632237684166375"><ele>72.8</ele><time>2026-03-21T13:53:44Z</time></trkpt><trkpt lat="40.753509354396265" lon="9.63208820428738"><ele>73.0</ele><time>2026-03-21T13:53:46Z</time></trkpt><trkpt lat="40.75350012907711" lon="9.631963049349643"><ele>73.4</ele><time>2026-03-21T13:53:48Z</time></trkpt><trkpt lat="40.75350243302565" lon="9.63177860035592"><ele>73.8</ele><time>2026-03-21T13:53:50Z</time></trkpt><trkpt lat="40.75352226641175" lon="9.631652812579349"><ele>74.2</ele><time>2026-03-21T13:53:51Z</time></trkpt><trkpt lat="40.7535413890022" lon="9.631535050649642"><ele>74.6</ele><time>2026-03-21T13:53:52Z</time></trkpt><trkpt lat="40.75357529507505" lon="9.631423312046264"><ele>75.0</ele><time>2026-03-21T13:53:53Z</time></trkpt><trkpt lat="40.753627408072326" lon="9.63130569035578"><ele>78.5</ele><time>2026-03-21T13:53:54Z</time></trkpt><trkpt lat="40.75368417756096" lon="9.631187272673497"><ele>82.0</ele><time>2026-03-21T13:53:55Z</time></trkpt><trkpt lat="40.75377751983839" lon="9.631072418217316"><ele>85.5</ele><time>2026-03-21T13:53:56Z</time></trkpt><trkpt lat="40.75385995765566" lon="9.630916163138409"><ele>89.0</ele><time>2026-03-21T13:53:57Z</time></trkpt><trkpt lat="40.753922000130004" lon="9.630765385283508"><ele>89.2</ele><time>2026-03-21T13:53:58Z</time></trkpt><trkpt lat="40.753981873425715" lon="9.630628454219764"><ele>89.4</ele><time>2026-03-21T13:53:59Z</time></trkpt><trkpt lat="40.75402698774473" lon="9.630516037508935"><ele>89.6</ele><time>2026-03-21T13:54:00Z</time></trkpt><trkpt lat="40.75408094264302" lon="9.630397190558984"><ele>89.8</ele><time>2026-03-21T13:54:01.001Z</time></trkpt><trkpt lat="40.75414039257871" lon="9.630270949493216"><ele>90.0</ele><time>2026-03-21T13:54:02.001Z</time></trkpt><trkpt lat="40.754198897203814" lon="9.63015002287333"><ele>89.2</ele><time>2026-03-21T13:54:03.001Z</time></trkpt><trkpt lat="40.75425822822726" lon="9.63003534650021"><ele>88.4</ele><time>2026-03-21T13:54:04.001Z</time></trkpt><trkpt lat="40.754329778712254" lon="9.629923322688539"><ele>87.6</ele><time>2026-03-21T13:54:05.001Z</time></trkpt><trkpt lat="40.75438005918249" lon="9.629810177215262"><ele>86.8</ele><time>2026-03-21T13:54:06.001Z</time></trkpt><trkpt lat="40.754425627025725" lon="9.629691292809712"><ele>86.0</ele><time>2026-03-21T13:54:07.001Z</time></trkpt><trkpt lat="40.75448661224125" lon="9.629594837777852"><ele>93.8</ele><time>2026-03-21T13:54:08.001Z</time></trkpt><trkpt lat="40.75453304959913" lon="9.629495619909088"><ele>101.6</ele><time>2026-03-21T13:54:09.001Z</time></trkpt><trkpt lat="40.75458389220908" lon="9.629408075312105"><ele>109.4</ele><time>2026-03-21T13:54:10.001Z</time></trkpt><trkpt lat="40.75464350396168" lon="9.629301265059892"><ele>117.2</ele><time>2026-03-21T13:54:11.001Z</time></trkpt><trkpt lat="40.75467588172844" lon="9.629191094665867"><ele>125.0</ele><time>2026-03-21T13:54:12.001Z</time></trkpt><trkpt lat="40.75469902481822" lon="9.629062700440787"><ele>125.0</ele><time>2026-03-21T13:54:13.001Z</time></trkpt><trkpt lat="40.75471557485229" lon="9.628932031655577"><ele>125.0</ele><time>2026-03-21T13:54:14.001Z</time></trkpt><trkpt lat="40.7547190282766" lon="9.628806076400249"><ele>125.0</ele><time>2026-03-21T13:54:15.001Z</time></trkpt><trkpt lat="40.75469493089972" lon="9.628661478841986"><ele>125.0</ele><time>2026-03-21T13:54:16.001Z</time></trkpt><trkpt lat="40.75461413794515" lon="9.62853884104248"><ele>125.0</ele><time>2026-03-21T13:54:17.001Z</time></trkpt><trkpt lat="40.754564555214046" lon="9.62841264732537"><ele>125.75</ele><time>2026-03-21T13:54:18.001Z</time></trkpt><trkpt lat="40.754479387705" lon="9.628290003444887"><ele>126.5</ele><time>2026-03-21T13:54:19.001Z</time></trkpt><trkpt lat="40.754385339505404" lon="9.628181820531914"><ele>127.25</ele><time>2026-03-21T13:54:20.001Z</time></trkpt><trkpt lat="40.75428273702151" lon="9.628091125706243"><ele>128.0</ele><time>2026-03-21T13:54:21.001Z</time></trkpt><trkpt lat="40.75419192535609" lon="9.628017387332768"><ele>122.2</ele><time>2026-03-21T13:54:22.001Z</time></trkpt><trkpt lat="40.754091019117865" lon="9.627938832360984"><ele>116.4</ele><time>2026-03-21T13:54:23.001Z</time></trkpt><trkpt lat="40.75400561810812" lon="9.627872346951433"><ele>110.60000000000001</ele><time>2026-03-21T13:54:24.001Z</time></trkpt><trkpt lat="40.753926321763835" lon="9.62783216584462"><ele>104.80000000000001</ele><time>2026-03-21T13:54:25.001Z</time></trkpt><trkpt lat="40.75385549528934" lon="9.62779212112147"><ele>99.0</ele><time>2026-03-21T13:54:26.001Z</time></trkpt><trkpt lat="40.75376363235473" lon="9.627744451271267"><ele>99.0</ele><time>2026-03-21T13:54:27.001Z</time></trkpt><trkpt lat="40.75366782116564" lon="9.627693451484546"><ele>99.0</ele><time>2026-03-21T13:54:28.001Z</time></trkpt><trkpt lat="40.753567571164304" lon="9.62763051023988"><ele>99.0</ele><time>2026-03-21T13:54:29.001Z</time></trkpt><trkpt lat="40.75348165998897" lon="9.62755494549065"><ele>99.0</ele><time>2026-03-21T13:54:30.001Z</time></trkpt><trkpt lat="40.753400154440115" lon="9.627445218033404"><ele>99.0</ele><time>2026-03-21T13:54:31.001Z</time></trkpt><trkpt lat="40.75331981650997" lon="9.62732113531555"><ele>98.0</ele><time>2026-03-21T13:54:32.001Z</time></trkpt><trkpt lat="40.753223499530804" lon="9.627206258953702"><ele>97.0</ele><time>2026-03-21T13:54:33.001Z</time></trkpt><trkpt lat="40.7531442871751" lon="9.627062301320098"><ele>96.0</ele><time>2026-03-21T13:54:34.001Z</time></trkpt><trkpt lat="40.75310516393593" lon="9.626930498810154"><ele>95.0</ele><time>2026-03-21T13:54:35.001Z</time></trkpt><trkpt lat="40.75307324212603" lon="9.626818857986505"><ele>95.0</ele><time>2026-03-21T13:54:36.001Z</time></trkpt><trkpt lat="40.75305544287149" lon="9.62672630554969"><ele>95.0</ele><time>2026-03-21T13:54:37.001Z</time></trkpt><trkpt lat="40.75304681601192" lon="9.626629937825003"><ele>95.0</ele><time>2026-03-21T13:54:38.001Z</time></trkpt><trkpt lat="40.75303408379707" lon="9.62649350335351"><ele>95.0</ele><time>2026-03-21T13:54:39.001Z</time></trkpt><trkpt lat="40.75301656253947" lon="9.626351156325754"><ele>95.0</ele><time>2026-03-21T13:54:40.001Z</time></trkpt><trkpt lat="40.75299898965658" lon="9.626224162746498"><ele>96.8</ele><time>2026-03-21T13:54:41.001Z</time></trkpt><trkpt lat="40.752984759587235" lon="9.626102417005054"><ele>98.6</ele><time>2026-03-21T13:54:42.001Z</time></trkpt><trkpt lat="40.752961476103565" lon="9.62598722030041"><ele>100.4</ele><time>2026-03-21T13:54:43.001Z</time></trkpt><trkpt lat="40.7529507859492" lon="9.6258639990979"><ele>102.2</ele><time>2026-03-21T13:54:44.001Z</time></trkpt><trkpt lat="40.752958276955304" lon="9.625743365169345"><ele>104.0</ele><time>2026-03-21T13:54:45.001Z</time></trkpt><trkpt lat="40.75295340285507" lon="9.625629533890162"><ele>104.0</ele><time>2026-03-21T13:54:46.001Z</time></trkpt><trkpt lat="40.75295155904269" lon="9.625523507310264"><ele>104.0</ele><time>2026-03-21T13:54:47.001Z</time></trkpt><trkpt lat="40.75296198349697" lon="9.625395463426763"><ele>104.0</ele><time>2026-03-21T13:54:48.001Z</time></trkpt><trkpt lat="40.75298904912368" lon="9.625272077834532"><ele>104.0</ele><time>2026-03-21T13:54:49.001Z</time></trkpt><trkpt lat="40.753033454180006" lon="9.625142860490467"><ele>104.0</ele><time>2026-03-21T13:54:50.001Z</time></trkpt><trkpt lat="40.753087519623385" lon="9.625027398702967"><ele>104.4</ele><time>2026-03-21T13:54:51.001Z</time></trkpt><trkpt lat="40.75314480709291" lon="9.62492998174076"><ele>104.80000000000001</ele><time>2026-03-21T13:54:52.001Z</time></trkpt><trkpt lat="40.75320508780327" lon="9.62483260879792"><ele>105.19999999999999</ele><time>2026-03-21T13:54:53.001Z</time></trkpt><trkpt lat="40.75327970051556" lon="9.624744915064129"><ele>105.6</ele><time>2026-03-21T13:54:54.001Z</time></trkpt><trkpt lat="40.75334957507447" lon="9.624693397609466"><ele>106.0</ele><time>2026-03-21T13:54:55.001Z</time></trkpt><trkpt lat="40.75344537305219" lon="9.624633787430893"><ele>106.0</ele><time>2026-03-21T13:54:56.001Z</time></trkpt><trkpt lat="40.75352805928756" lon="9.6245711796231"><ele>106.0</ele><time>2026-03-21T13:54:57.001Z</time></trkpt><trkpt lat="40.75359986545032" lon="9.624492828524877"><ele>106.0</ele><time>2026-03-21T13:54:58.001Z</time></trkpt><trkpt lat="40.753679185001566" lon="9.624429107981287"><ele>106.0</ele><time>2026-03-21T13:54:59.001Z</time></trkpt><trkpt lat="40.75374853208201" lon="9.624337784811106"><ele>106.0</ele><time>2026-03-21T13:55:00.001Z</time></trkpt><trkpt lat="40.75380657208066" lon="9.624241677814158"><ele>112.0</ele><time>2026-03-21T13:55:01.001Z</time></trkpt><trkpt lat="40.753858392252226" lon="9.624126951249401"><ele>118.0</ele><time>2026-03-21T13:55:02.001Z</time></trkpt><trkpt lat="40.75389582633468" lon="9.624032884241895"><ele>124.0</ele><time>2026-03-21T13:55:03.001Z</time></trkpt><trkpt lat="40.75393718606182" lon="9.62392388691072"><ele>130.0</ele><time>2026-03-21T13:55:04Z</time></trkpt><trkpt lat="40.75398642756607" lon="9.623806659887057"><ele>136.0</ele><time>2026-03-21T13:55:05Z</time></trkpt><trkpt lat="40.75403771281434" lon="9.623690605388079"><ele>133.0</ele><time>2026-03-21T13:55:06Z</time></trkpt><trkpt lat="40.754089060451335" lon="9.623582498864094"><ele>130.0</ele><time>2026-03-21T13:55:07Z</time></trkpt><trkpt lat="40.75415356223722" lon="9.623449653700227"><ele>127.0</ele><time>2026-03-21T13:55:08Z</time></trkpt><trkpt lat="40.75421234694025" lon="9.62333110893885"><ele>124.0</ele><time>2026-03-21T13:55:09Z</time></trkpt><trkpt lat="40.75426852971623" lon="9.623232762933299"><ele>121.0</ele><time>2026-03-21T13:55:10Z</time></trkpt><trkpt lat="40.75431879075531" lon="9.623137249617605"><ele>122.4</ele><time>2026-03-21T13:55:11Z</time></trkpt><trkpt lat="40.754409322830874" lon="9.62306720695014"><ele>123.8</ele><time>2026-03-21T13:55:12Z</time></trkpt><trkpt lat="40.75450316976573" lon="9.622997934187985"><ele>125.20000000000002</ele><time>2026-03-21T13:55:13Z</time></trkpt><trkpt lat="40.75458194282912" lon="9.622916964725421"><ele>126.60000000000001</ele><time>2026-03-21T13:55:14Z</time></trkpt><trkpt lat="40.75465584792492" lon="9.622838459920239"><ele>128.0</ele><time>2026-03-21T13:55:15Z</time></trkpt><trkpt lat="40.7547355708455" lon="9.622765291396608"><ele>128.0</ele><time>2026-03-21T13:55:16Z</time></trkpt><trkpt lat="40.754816962001314" lon="9.62271703686773"><ele>128.0</ele><time>2026-03-21T13:55:17Z</time></trkpt><trkpt lat="40.754900785373096" lon="9.622724613580507"><ele>128.0</ele><time>2026-03-21T13:55:18Z</time></trkpt><trkpt lat="40.75500625915582" lon="9.622706697669953"><ele>128.0</ele><time>2026-03-21T13:55:19Z</time></trkpt><trkpt lat="40.755091386895" lon="9.622675854392481"><ele>128.0</ele><time>2026-03-21T13:55:20Z</time></trkpt><trkpt lat="40.755181658183446" lon="9.622601021727977"><ele>135.75</ele><time>2026-03-21T13:55:21Z</time></trkpt><trkpt lat="40.75524323709991" lon="9.62248034823909"><ele>143.5</ele><time>2026-03-21T13:55:22Z</time></trkpt><trkpt lat="40.755318112350594" lon="9.622365731823793"><ele>151.25</ele><time>2026-03-21T13:55:23Z</time></trkpt><trkpt lat="40.75539635451927" lon="9.62224596217888"><ele>159.0</ele><time>2026-03-21T13:55:24Z</time></trkpt><trkpt lat="40.75546624757724" lon="9.62213897259974"><ele>159.0</ele><time>2026-03-21T13:55:25Z</time></trkpt><trkpt lat="40.75553879596697" lon="9.622011794764992"><ele>159.0</ele><time>2026-03-21T13:55:26Z</time></trkpt><trkpt lat="40.75560564804617" lon="9.621899651060755"><ele>159.0</ele><time>2026-03-21T13:55:27Z</time></trkpt><trkpt lat="40.7556732993793" lon="9.621804730419722"><ele>159.0</ele><time>2026-03-21T13:55:28Z</time></trkpt><trkpt lat="40.75575889749457" lon="9.621713306758632"><ele>159.0</ele><time>2026-03-21T13:55:29Z</time></trkpt><trkpt lat="40.75584788198599" lon="9.621673153467816"><ele>156.75</ele><time>2026-03-21T13:55:30Z</time></trkpt><trkpt lat="40.755957207589" lon="9.621652959479709"><ele>154.5</ele><time>2026-03-21T13:55:31Z</time></trkpt><trkpt lat="40.756066847153285" lon="9.621612178407139"><ele>152.25</ele><time>2026-03-21T13:55:32Z</time></trkpt><trkpt lat="40.75616361301252" lon="9.621515136404588"><ele>150.0</ele><time>2026-03-21T13:55:33Z</time></trkpt><trkpt lat="40.75622573615067" lon="9.621376653719407"><ele>150.0</ele><time>2026-03-21T13:55:34Z</time></trkpt><trkpt lat="40.756302350683846" lon="9.621270806230001"><ele>150.0</ele><time>2026-03-21T13:55:35Z</time></trkpt><trkpt lat="40.75639140450701" lon="9.621134562878845"><ele>150.0</ele><time>2026-03-21T13:55:36Z</time></trkpt><trkpt lat="40.75648259527753" lon="9.620989090189589"><ele>150.0</ele><time>2026-03-21T13:55:37Z</time></trkpt><trkpt lat="40.75657711909875" lon="9.620827058759305"><ele>147.0</ele><time>2026-03-21T13:55:38Z</time></trkpt><trkpt lat="40.756658954511465" lon="9.620677474319393"><ele>144.0</ele><time>2026-03-21T13:55:39Z</time></trkpt><trkpt lat="40.756726444022085" lon="9.620544027026085"><ele>141.0</ele><time>2026-03-21T13:55:40Z</time></trkpt><trkpt lat="40.75678737770445" lon="9.620415498357508"><ele>138.0</ele><time>2026-03-21T13:55:41Z</time></trkpt><trkpt lat="40.75684242958275" lon="9.620293563218102"><ele>144.0</ele><time>2026-03-21T13:55:42Z</time></trkpt><trkpt lat="40.75689084651749" lon="9.620156010455327"><ele>150.0</ele><time>2026-03-21T13:55:43Z</time></trkpt><trkpt lat="40.756923979226066" lon="9.620028086228947"><ele>156.0</ele><time>2026-03-21T13:55:44Z</time></trkpt><trkpt lat="40.75695375066064" lon="9.619852050059224"><ele>162.0</ele><time>2026-03-21T13:55:45Z</time></trkpt><trkpt lat="40.756982940391175" lon="9.619650651052437"><ele>160.5</ele><time>2026-03-21T13:55:46Z</time></trkpt><trkpt lat="40.75702477459777" lon="9.61947012143827"><ele>159.0</ele><time>2026-03-21T13:55:47Z</time></trkpt><trkpt lat="40.75706366659393" lon="9.619306540172786"><ele>157.5</ele><time>2026-03-21T13:55:48Z</time></trkpt><trkpt lat="40.75709453273122" lon="9.619129098728289"><ele>156.0</ele><time>2026-03-21T13:55:49Z</time></trkpt><trkpt lat="40.75712140720499" lon="9.61897758902602"><ele>156.0</ele><time>2026-03-21T13:55:50Z</time></trkpt><trkpt lat="40.757167265711615" lon="9.618843765883266"><ele>156.0</ele><time>2026-03-21T13:55:51Z</time></trkpt><trkpt lat="40.757282623487484" lon="9.61878340309621"><ele>156.0</ele><time>2026-03-21T13:55:52Z</time></trkpt><trkpt lat="40.7573368665664" lon="9.618701957891316"><ele>156.0</ele><time>2026-03-21T13:55:53Z</time></trkpt><trkpt lat="40.75737112503987" lon="9.61860144122358"><ele>156.0</ele><time>2026-03-21T13:55:54Z</time></trkpt><trkpt lat="40.75741468663558" lon="9.618481004391905"><ele>156.33333333333334</ele><time>2026-03-21T13:55:55Z</time></trkpt><trkpt lat="40.75744935996134" lon="9.618357205613888"><ele>156.66666666666666</ele><time>2026-03-21T13:55:56Z</time></trkpt><trkpt lat="40.757481248182586" lon="9.618244354500439"><ele>157.0</ele><time>2026-03-21T13:55:57Z</time></trkpt><trkpt lat="40.75752124580657" lon="9.618176418774377"><ele>157.33333333333331</ele><time>2026-03-21T13:55:58Z</time></trkpt><trkpt lat="40.757625360345024" lon="9.618177699555654"><ele>157.66666666666666</ele><time>2026-03-21T13:56:00Z</time></trkpt><trkpt lat="40.75769605933932" lon="9.618143898691553"><ele>158.0</ele><time>2026-03-21T13:56:01Z</time></trkpt><trkpt lat="40.75781958116539" lon="9.618085447349369"><ele>158.0</ele><time>2026-03-21T13:56:03Z</time></trkpt><trkpt lat="40.757896290479565" lon="9.618031363485136"><ele>158.0</ele><time>2026-03-21T13:56:04Z</time></trkpt><trkpt lat="40.75796077041664" lon="9.617954012041157"><ele>158.0</ele><time>2026-03-21T13:56:05Z</time></trkpt><trkpt lat="40.75802077794041" lon="9.61784967692987"><ele>158.0</ele><time>2026-03-21T13:56:06Z</time></trkpt><trkpt lat="40.75807196516054" lon="9.61772534864028"><ele>158.0</ele><time>2026-03-21T13:56:07Z</time></trkpt><trkpt lat="40.758111160178196" lon="9.617599388845273"><ele>158.60000000000002</ele><time>2026-03-21T13:56:08Z</time></trkpt><trkpt lat="40.75808027977871" lon="9.617460359698445"><ele>159.20000000000002</ele><time>2026-03-21T13:56:09Z</time></trkpt><trkpt lat="40.75806854097545" lon="9.617335272290692"><ele>159.8</ele><time>2026-03-21T13:56:10Z</time></trkpt><trkpt lat="40.75811331012107" lon="9.61724200223732"><ele>160.4</ele><time>2026-03-21T13:56:11Z</time></trkpt><trkpt lat="40.75814660125938" lon="9.617123733702252"><ele>161.0</ele><time>2026-03-21T13:56:12Z</time></trkpt><trkpt lat="40.75817143687476" lon="9.616983148496208"><ele>161.0</ele><time>2026-03-21T13:56:13Z</time></trkpt><trkpt lat="40.75817712652999" lon="9.616839616772957"><ele>161.0</ele><time>2026-03-21T13:56:14Z</time></trkpt><trkpt lat="40.75818352578616" lon="9.61668967221476"><ele>161.0</ele><time>2026-03-21T13:56:15Z</time></trkpt><trkpt lat="40.75819116910553" lon="9.616538615931967"><ele>161.0</ele><time>2026-03-21T13:56:16Z</time></trkpt><trkpt lat="40.758196619924014" lon="9.616390663904125"><ele>161.0</ele><time>2026-03-21T13:56:17Z</time></trkpt><trkpt lat="40.75820297916167" lon="9.616249836501664"><ele>161.4</ele><time>2026-03-21T13:56:18Z</time></trkpt><trkpt lat="40.75822533778126" lon="9.616107255987442"><ele>161.8</ele><time>2026-03-21T13:56:19Z</time></trkpt><trkpt lat="40.758218909011504" lon="9.615963609765457"><ele>162.20000000000002</ele><time>2026-03-21T13:56:20Z</time></trkpt><trkpt lat="40.75818776184259" lon="9.615829690107248"><ele>162.60000000000002</ele><time>2026-03-21T13:56:21Z</time></trkpt><trkpt lat="40.75817769285416" lon="9.615675942745115"><ele>163.0</ele><time>2026-03-21T13:56:22Z</time></trkpt><trkpt lat="40.758197871245414" lon="9.615526703406974"><ele>163.0</ele><time>2026-03-21T13:56:23Z</time></trkpt><trkpt lat="40.75820125888643" lon="9.615371766322907"><ele>163.0</ele><time>2026-03-21T13:56:24Z</time></trkpt><trkpt lat="40.75820038320671" lon="9.615228580878728"><ele>163.0</ele><time>2026-03-21T13:56:25Z</time></trkpt><trkpt lat="40.75817642511609" lon="9.615077779564126"><ele>163.0</ele><time>2026-03-21T13:56:26Z</time></trkpt><trkpt lat="40.75818413045564" lon="9.614970056665266"><ele>163.0</ele><time>2026-03-21T13:56:27Z</time></trkpt><trkpt lat="40.75810787451434" lon="9.61491538374035"><ele>164.66666666666669</ele><time>2026-03-21T13:56:28Z</time></trkpt><trkpt lat="40.75803447965398" lon="9.614882133228486"><ele>166.33333333333334</ele><time>2026-03-21T13:56:29Z</time></trkpt><trkpt lat="40.757974995501804" lon="9.614808201314762"><ele>168.0</ele><time>2026-03-21T13:56:30Z</time></trkpt><trkpt lat="40.75792628629531" lon="9.614712590768692"><ele>169.66666666666666</ele><time>2026-03-21T13:56:31.001Z</time></trkpt><trkpt lat="40.757902690142785" lon="9.614616124850997"><ele>171.33333333333331</ele><time>2026-03-21T13:56:32.001Z</time></trkpt><trkpt lat="40.75790080525635" lon="9.614489693445451"><ele>173.0</ele><time>2026-03-21T13:56:33.001Z</time></trkpt><trkpt lat="40.75789092685796" lon="9.614334967166197"><ele>174.0</ele><time>2026-03-21T13:56:34.001Z</time></trkpt><trkpt lat="40.75787414904626" lon="9.614198607732646"><ele>175.0</ele><time>2026-03-21T13:56:35.001Z</time></trkpt><trkpt lat="40.757853963296824" lon="9.614058872883902"><ele>176.0</ele><time>2026-03-21T13:56:36.001Z</time></trkpt><trkpt lat="40.75782664809756" lon="9.613907650294669"><ele>177.0</ele><time>2026-03-21T13:56:37.001Z</time></trkpt><trkpt lat="40.75779708201698" lon="9.613767101204438"><ele>178.0</ele><time>2026-03-21T13:56:38.001Z</time></trkpt><trkpt lat="40.757746449364646" lon="9.613644150247291"><ele>180.2</ele><time>2026-03-21T13:56:39.001Z</time></trkpt><trkpt lat="40.757700366687665" lon="9.613517136865685"><ele>182.4</ele><time>2026-03-21T13:56:40.001Z</time></trkpt><trkpt lat="40.757649438780675" lon="9.613382219922677"><ele>184.6</ele><time>2026-03-21T13:56:41.001Z</time></trkpt><trkpt lat="40.75761170391011" lon="9.613237822896755"><ele>186.79999999999998</ele><time>2026-03-21T13:56:42.001Z</time></trkpt><trkpt lat="40.757603173502545" lon="9.613089947563928"><ele>189.0</ele><time>2026-03-21T13:56:43.001Z</time></trkpt><trkpt lat="40.75759600533238" lon="9.612956382788386"><ele>189.0</ele><time>2026-03-21T13:56:44.001Z</time></trkpt><trkpt lat="40.75762681916851" lon="9.612831430438229"><ele>189.0</ele><time>2026-03-21T13:56:45.001Z</time></trkpt><trkpt lat="40.757678214934344" lon="9.612715202487431"><ele>189.0</ele><time>2026-03-21T13:56:46.001Z</time></trkpt><trkpt lat="40.757744404143295" lon="9.612632407065545"><ele>189.0</ele><time>2026-03-21T13:56:47.001Z</time></trkpt><trkpt lat="40.75780768414657" lon="9.612531576007843"><ele>189.0</ele><time>2026-03-21T13:56:48.001Z</time></trkpt><trkpt lat="40.757864266834076" lon="9.612400321953812"><ele>188.39999999999998</ele><time>2026-03-21T13:56:49.001Z</time></trkpt><trkpt lat="40.75787603091384" lon="9.612267335025654"><ele>187.8</ele><time>2026-03-21T13:56:50.001Z</time></trkpt><trkpt lat="40.75785204772915" lon="9.612148332278586"><ele>187.2</ele><time>2026-03-21T13:56:51.001Z</time></trkpt><trkpt lat="40.75781488570886" lon="9.612020292089765"><ele>186.60000000000002</ele><time>2026-03-21T13:56:52.001Z</time></trkpt><trkpt lat="40.757771733843015" lon="9.611886582745434"><ele>186.0</ele><time>2026-03-21T13:56:53.001Z</time></trkpt><trkpt lat="40.75772076545104" lon="9.611786854077282"><ele>188.60000000000002</ele><time>2026-03-21T13:56:54.001Z</time></trkpt><trkpt lat="40.75765695579881" lon="9.611742043033479"><ele>191.2</ele><time>2026-03-21T13:56:55.001Z</time></trkpt><trkpt lat="40.7575834651178" lon="9.611754393453086"><ele>193.8</ele><time>2026-03-21T13:56:56.001Z</time></trkpt><trkpt lat="40.75755007547289" lon="9.611868699580018"><ele>196.39999999999998</ele><time>2026-03-21T13:56:57.001Z</time></trkpt><trkpt lat="40.7575301594607" lon="9.611968446548406"><ele>199.0</ele><time>2026-03-21T13:56:58.001Z</time></trkpt><trkpt lat="40.75754885321634" lon="9.612141521516767"><ele>199.0</ele><time>2026-03-21T13:57:00.001Z</time></trkpt><trkpt lat="40.757472503982704" lon="9.612235408771587"><ele>199.0</ele><time>2026-03-21T13:57:02.001Z</time></trkpt><trkpt lat="40.757395948183834" lon="9.612125364708001"><ele>199.0</ele><time>2026-03-21T13:57:04.001Z</time></trkpt><trkpt lat="40.75736235685596" lon="9.61204299948472"><ele>199.0</ele><time>2026-03-21T13:57:05.001Z</time></trkpt><trkpt lat="40.757304462112984" lon="9.611860439366577"><ele>199.0</ele><time>2026-03-21T13:57:07.001Z</time></trkpt><trkpt lat="40.75729106260801" lon="9.611751600051086"><ele>201.39999999999998</ele><time>2026-03-21T13:57:08.001Z</time></trkpt><trkpt lat="40.75727496135381" lon="9.611628845990815"><ele>203.8</ele><time>2026-03-21T13:57:09.001Z</time></trkpt><trkpt lat="40.75726313891829" lon="9.611497081410189"><ele>206.2</ele><time>2026-03-21T13:57:10Z</time></trkpt><trkpt lat="40.75725287260546" lon="9.611357055684259"><ele>208.60000000000002</ele><time>2026-03-21T13:57:11Z</time></trkpt><trkpt lat="40.75724066367447" lon="9.611232790771115"><ele>211.0</ele><time>2026-03-21T13:57:12Z</time></trkpt><trkpt lat="40.75724077066442" lon="9.611115494803043"><ele>213.49999999999997</ele><time>2026-03-21T13:57:13Z</time></trkpt><trkpt lat="40.75722330864334" lon="9.61099450347272"><ele>216.0</ele><time>2026-03-21T13:57:14Z</time></trkpt><trkpt lat="40.757233963574045" lon="9.61088690807454"><ele>218.5</ele><time>2026-03-21T13:57:15Z</time></trkpt><trkpt lat="40.75725785363986" lon="9.610761742826318"><ele>221.0</ele><time>2026-03-21T13:57:16Z</time></trkpt><trkpt lat="40.75729674793011" lon="9.610680833911317"><ele>223.49999999999997</ele><time>2026-03-21T13:57:17Z</time></trkpt><trkpt lat="40.75737151571696" lon="9.610628465772859"><ele>226.0</ele><time>2026-03-21T13:57:18Z</time></trkpt><trkpt lat="40.757468658932424" lon="9.610613388625474"><ele>226.0</ele><time>2026-03-21T13:57:19Z</time></trkpt><trkpt lat="40.757518158168736" lon="9.610531483996887"><ele>226.00000000000003</ele><time>2026-03-21T13:57:20Z</time></trkpt><trkpt lat="40.75749511521478" lon="9.610375845230998"><ele>226.00000000000003</ele><time>2026-03-21T13:57:21Z</time></trkpt><trkpt lat="40.75750685698044" lon="9.610239676955654"><ele>226.0</ele><time>2026-03-21T13:57:22Z</time></trkpt><trkpt lat="40.75754465361554" lon="9.610137877391528"><ele>226.0</ele><time>2026-03-21T13:57:23Z</time></trkpt><trkpt lat="40.7575900622871" lon="9.610029239037448"><ele>226.25</ele><time>2026-03-21T13:57:24Z</time></trkpt><trkpt lat="40.75765796856625" lon="9.60992278586462"><ele>226.5</ele><time>2026-03-21T13:57:25Z</time></trkpt><trkpt lat="40.75770489871123" lon="9.609824553212814"><ele>226.75</ele><time>2026-03-21T13:57:26Z</time></trkpt><trkpt lat="40.75762213746791" lon="9.609647615444977"><ele>227.0</ele><time>2026-03-21T13:57:29Z</time></trkpt><trkpt lat="40.75754940978434" lon="9.60974824968043"><ele>231.6</ele><time>2026-03-21T13:57:30Z</time></trkpt><trkpt lat="40.7574883245851" lon="9.609830275302118"><ele>236.2</ele><time>2026-03-21T13:57:31Z</time></trkpt><trkpt lat="40.757415536403656" lon="9.609919627311143"><ele>240.8</ele><time>2026-03-21T13:57:32Z</time></trkpt><trkpt lat="40.75735458311391" lon="9.60997233272837"><ele>245.4</ele><time>2026-03-21T13:57:33Z</time></trkpt><trkpt lat="40.75734844997389" lon="9.609874043498015"><ele>250.0</ele><time>2026-03-21T13:57:36Z</time></trkpt><trkpt lat="40.75741480323953" lon="9.60974854561678"><ele>249.99999999999997</ele><time>2026-03-21T13:57:38Z</time></trkpt><trkpt lat="40.75745856651931" lon="9.609665675476752"><ele>250.0</ele><time>2026-03-21T13:57:39Z</time></trkpt><trkpt lat="40.757513698580084" lon="9.609575602229883"><ele>250.0</ele><time>2026-03-21T13:57:40Z</time></trkpt><trkpt lat="40.757553716417156" lon="9.609472916517678"><ele>250.0</ele><time>2026-03-21T13:57:41Z</time></trkpt><trkpt lat="40.75758069118357" lon="9.60937096008321"><ele>249.99999999999997</ele><time>2026-03-21T13:57:42Z</time></trkpt><trkpt lat="40.7575527838788" lon="9.609256153676968"><ele>250.0</ele><time>2026-03-21T13:57:43Z</time></trkpt><trkpt lat="40.757496280577804" lon="9.609184326166334"><ele>252.16666666666666</ele><time>2026-03-21T13:57:44Z</time></trkpt><trkpt lat="40.757402133976036" lon="9.609184373090145"><ele>254.33333333333331</ele><time>2026-03-21T13:57:45Z</time></trkpt><trkpt lat="40.757316225488005" lon="9.609208421981354"><ele>256.5</ele><time>2026-03-21T13:57:46Z</time></trkpt><trkpt lat="40.75722958114603" lon="9.609195606970438"><ele>258.6666666666667</ele><time>2026-03-21T13:57:47Z</time></trkpt><trkpt lat="40.75715681058965" lon="9.609151261251405"><ele>260.83333333333337</ele><time>2026-03-21T13:57:48Z</time></trkpt><trkpt lat="40.75707175879651" lon="9.609090481930718"><ele>263.0</ele><time>2026-03-21T13:57:49Z</time></trkpt><trkpt lat="40.75696128608047" lon="9.609017605139597"><ele>268.75</ele><time>2026-03-21T13:57:50Z</time></trkpt><trkpt lat="40.75685869731862" lon="9.608932241403576"><ele>274.5</ele><time>2026-03-21T13:57:51Z</time></trkpt><trkpt lat="40.75675946088978" lon="9.608825492895871"><ele>280.25</ele><time>2026-03-21T13:57:52Z</time></trkpt><trkpt lat="40.756668368049986" lon="9.608715397163257"><ele>286.0</ele><time>2026-03-21T13:57:53Z</time></trkpt><trkpt lat="40.75658097121578" lon="9.60861388710164"><ele>286.0</ele><time>2026-03-21T13:57:54Z</time></trkpt><trkpt lat="40.75650673273395" lon="9.608529300059832"><ele>286.0</ele><time>2026-03-21T13:57:55Z</time></trkpt><trkpt lat="40.7564553550046" lon="9.608434987429144"><ele>286.0</ele><time>2026-03-21T13:57:56Z</time></trkpt><trkpt lat="40.756449939521296" lon="9.608317467190274"><ele>286.0</ele><time>2026-03-21T13:57:57Z</time></trkpt><trkpt lat="40.756435542627926" lon="9.6081638376675"><ele>286.0</ele><time>2026-03-21T13:57:58Z</time></trkpt><trkpt lat="40.75642269602142" lon="9.608011503058897"><ele>286.0</ele><time>2026-03-21T13:57:59Z</time></trkpt><trkpt lat="40.75639877911335" lon="9.607858988808102"><ele>286.0</ele><time>2026-03-21T13:58:00Z</time></trkpt><trkpt lat="40.75637347081906" lon="9.607712961852009"><ele>286.0</ele><time>2026-03-21T13:58:01Z</time></trkpt><trkpt lat="40.75634767004228" lon="9.607542920283384"><ele>286.0</ele><time>2026-03-21T13:58:02Z</time></trkpt><trkpt lat="40.75634205848157" lon="9.607395833893964"><ele>287.2</ele><time>2026-03-21T13:58:03Z</time></trkpt><trkpt lat="40.756358974453235" lon="9.607282384072724"><ele>288.40000000000003</ele><time>2026-03-21T13:58:04Z</time></trkpt><trkpt lat="40.75640419274175" lon="9.607182822786227"><ele>289.6</ele><time>2026-03-21T13:58:05Z</time></trkpt><trkpt lat="40.75644868139174" lon="9.607061915390185"><ele>290.8</ele><time>2026-03-21T13:58:06Z</time></trkpt><trkpt lat="40.75648286669443" lon="9.606930015511091"><ele>292.0</ele><time>2026-03-21T13:58:07Z</time></trkpt><trkpt lat="40.756526938110255" lon="9.6067993827252"><ele>297.75</ele><time>2026-03-21T13:58:08Z</time></trkpt><trkpt lat="40.75660088796451" lon="9.60668259181454"><ele>303.5</ele><time>2026-03-21T13:58:09Z</time></trkpt><trkpt lat="40.756658811933846" lon="9.606573325630421"><ele>309.25</ele><time>2026-03-21T13:58:10Z</time></trkpt><trkpt lat="40.75672928945225" lon="9.606447435796664"><ele>315.0</ele><time>2026-03-21T13:58:11Z</time></trkpt><trkpt lat="40.756801171381746" lon="9.606305296534416"><ele>315.6</ele><time>2026-03-21T13:58:12Z</time></trkpt><trkpt lat="40.75684427197191" lon="9.606151092869869"><ele>316.2</ele><time>2026-03-21T13:58:13Z</time></trkpt><trkpt lat="40.75684266567442" lon="9.606001043746637"><ele>316.8</ele><time>2026-03-21T13:58:14Z</time></trkpt><trkpt lat="40.75684217199887" lon="9.60589203893068"><ele>317.4</ele><time>2026-03-21T13:58:15Z</time></trkpt><trkpt lat="40.75684570433434" lon="9.605773083164074"><ele>318.0</ele><time>2026-03-21T13:58:17Z</time></trkpt><trkpt lat="40.75688068032672" lon="9.605694843577565"><ele>319.4</ele><time>2026-03-21T13:58:20Z</time></trkpt><trkpt lat="40.75691315935768" lon="9.605561791675203"><ele>320.8</ele><time>2026-03-21T13:58:54.001Z</time></trkpt><trkpt lat="40.75694741677503" lon="9.605480966772205"><ele>322.2</ele><time>2026-03-21T13:58:55.001Z</time></trkpt><trkpt lat="40.75702288831489" lon="9.605348555271297"><ele>323.6</ele><time>2026-03-21T13:58:57.001Z</time></trkpt><trkpt lat="40.75705817993534" lon="9.605243419063026"><ele>325.0</ele><time>2026-03-21T13:58:58.001Z</time></trkpt><trkpt lat="40.757099701047444" lon="9.605102116520815"><ele>329.75</ele><time>2026-03-21T13:58:59.001Z</time></trkpt><trkpt lat="40.75713823110862" lon="9.604959071686539"><ele>334.5</ele><time>2026-03-21T13:59:00.001Z</time></trkpt><trkpt lat="40.75718374860871" lon="9.604776649916857"><ele>339.25</ele><time>2026-03-21T13:59:01.001Z</time></trkpt><trkpt lat="40.757221882780534" lon="9.604597905125503"><ele>344.0</ele><time>2026-03-21T13:59:02.001Z</time></trkpt><trkpt lat="40.75723867914562" lon="9.604389071130365"><ele>344.25</ele><time>2026-03-21T13:59:03.001Z</time></trkpt><trkpt lat="40.757262190797626" lon="9.604172133478194"><ele>344.5</ele><time>2026-03-21T13:59:04.001Z</time></trkpt><trkpt lat="40.75730544355911" lon="9.603994981472248"><ele>344.75</ele><time>2026-03-21T13:59:05.001Z</time></trkpt><trkpt lat="40.757345534202905" lon="9.603823670063178"><ele>345.0</ele><time>2026-03-21T13:59:06.001Z</time></trkpt><trkpt lat="40.757371225097316" lon="9.603687924056572"><ele>345.5</ele><time>2026-03-21T13:59:07.001Z</time></trkpt><trkpt lat="40.75735177919777" lon="9.603544284433259"><ele>346.0</ele><time>2026-03-21T13:59:08.001Z</time></trkpt><trkpt lat="40.75728231827068" lon="9.603412982473573"><ele>346.5</ele><time>2026-03-21T13:59:09.001Z</time></trkpt><trkpt lat="40.75723473872677" lon="9.603260932085567"><ele>347.0</ele><time>2026-03-21T13:59:10.001Z</time></trkpt><trkpt lat="40.75721723463777" lon="9.603084132101957"><ele>347.0</ele><time>2026-03-21T13:59:11.001Z</time></trkpt><trkpt lat="40.75721992434281" lon="9.602890552191937"><ele>347.0</ele><time>2026-03-21T13:59:12.001Z</time></trkpt><trkpt lat="40.75723641930041" lon="9.602665605856592"><ele>347.0</ele><time>2026-03-21T13:59:13.001Z</time></trkpt><trkpt lat="40.75718986585252" lon="9.60245075268587"><ele>348.75</ele><time>2026-03-21T13:59:14.001Z</time></trkpt><trkpt lat="40.75713924300356" lon="9.602257687770507"><ele>350.5</ele><time>2026-03-21T13:59:15.001Z</time></trkpt><trkpt lat="40.7571355694933" lon="9.602075992545194"><ele>352.25</ele><time>2026-03-21T13:59:16Z</time></trkpt><trkpt lat="40.75713698360046" lon="9.60192137106354"><ele>354.0</ele><time>2026-03-21T13:59:17Z</time></trkpt><trkpt lat="40.757134321015464" lon="9.601789175645525"><ele>356.4</ele><time>2026-03-21T13:59:18Z</time></trkpt><trkpt lat="40.757079089908856" lon="9.601669051251198"><ele>358.79999999999995</ele><time>2026-03-21T13:59:19Z</time></trkpt><trkpt lat="40.75698477818152" lon="9.601567642583031"><ele>361.20000000000005</ele><time>2026-03-21T13:59:20Z</time></trkpt><trkpt lat="40.756925030259914" lon="9.60144736466394"><ele>363.6</ele><time>2026-03-21T13:59:21Z</time></trkpt><trkpt lat="40.756859969518544" lon="9.60133652197666"><ele>366.0</ele><time>2026-03-21T13:59:22Z</time></trkpt><trkpt lat="40.75679853555198" lon="9.601208480304445"><ele>359.20000000000005</ele><time>2026-03-21T13:59:23Z</time></trkpt><trkpt lat="40.75674535913575" lon="9.60108892579917"><ele>352.40000000000003</ele><time>2026-03-21T13:59:24Z</time></trkpt><trkpt lat="40.75670905111282" lon="9.600994859091807"><ele>345.6</ele><time>2026-03-21T13:59:25Z</time></trkpt><trkpt lat="40.756664033311225" lon="9.60086193827026"><ele>338.8</ele><time>2026-03-21T13:59:26Z</time></trkpt><trkpt lat="40.756643479841905" lon="9.600733708685874"><ele>332.0</ele><time>2026-03-21T13:59:27Z</time></trkpt><trkpt lat="40.756635023268345" lon="9.600584256485893"><ele>332.0</ele><time>2026-03-21T13:59:28Z</time></trkpt><trkpt lat="40.756625678505564" lon="9.600410237218947"><ele>332.0</ele><time>2026-03-21T13:59:29Z</time></trkpt><trkpt lat="40.75660897048707" lon="9.600255563485563"><ele>332.0</ele><time>2026-03-21T13:59:30Z</time></trkpt><trkpt lat="40.756551981547446" lon="9.600094353449704"><ele>332.0</ele><time>2026-03-21T13:59:31Z</time></trkpt><trkpt lat="40.756511675926916" lon="9.599899246520408"><ele>333.5</ele><time>2026-03-21T13:59:32Z</time></trkpt><trkpt lat="40.756469067418884" lon="9.599710654272513"><ele>335.0</ele><time>2026-03-21T13:59:33Z</time></trkpt><trkpt lat="40.756437571965336" lon="9.599536112658987"><ele>336.5</ele><time>2026-03-21T13:59:34Z</time></trkpt><trkpt lat="40.75641162671794" lon="9.599353144788026"><ele>338.0</ele><time>2026-03-21T13:59:35Z</time></trkpt><trkpt lat="40.75639183452833" lon="9.599158300819381"><ele>341.5</ele><time>2026-03-21T13:59:36Z</time></trkpt><trkpt lat="40.756338268107484" lon="9.598968599634869"><ele>345.0</ele><time>2026-03-21T13:59:37Z</time></trkpt><trkpt lat="40.75629869609719" lon="9.598783567522325"><ele>348.5</ele><time>2026-03-21T13:59:38Z</time></trkpt><trkpt lat="40.75628895472674" lon="9.598632071808836"><ele>352.0</ele><time>2026-03-21T13:59:39Z</time></trkpt><trkpt lat="40.75628621231607" lon="9.598491038043209"><ele>352.0</ele><time>2026-03-21T13:59:40Z</time></trkpt><trkpt lat="40.75626910092886" lon="9.598376302624695"><ele>352.0</ele><time>2026-03-21T13:59:41Z</time></trkpt><trkpt lat="40.75624908203327" lon="9.598294529713542"><ele>352.0</ele><time>2026-03-21T13:59:42Z</time></trkpt><trkpt lat="40.75621118665501" lon="9.598220025713454"><ele>352.0</ele><time>2026-03-21T13:59:43Z</time></trkpt><trkpt lat="40.756157323805006" lon="9.598170965498635"><ele>352.0</ele><time>2026-03-21T13:59:44Z</time></trkpt><trkpt lat="40.756101934505004" lon="9.598121764833886"><ele>352.0</ele><time>2026-03-21T13:59:45Z</time></trkpt><trkpt lat="40.756025576761964" lon="9.598135193896015"><ele>352.0</ele><time>2026-03-21T13:59:46Z</time></trkpt><trkpt lat="40.755968186464344" lon="9.598210359306591"><ele>349.8</ele><time>2026-03-21T13:59:47Z</time></trkpt><trkpt lat="40.75591459770522" lon="9.598265932916593"><ele>347.6</ele><time>2026-03-21T13:59:48Z</time></trkpt><trkpt lat="40.75588769226128" lon="9.598379117204736"><ele>345.40000000000003</ele><time>2026-03-21T13:59:49Z</time></trkpt><trkpt lat="40.75586306980583" lon="9.598521847066817"><ele>343.20000000000005</ele><time>2026-03-21T13:59:50Z</time></trkpt><trkpt lat="40.75582990336347" lon="9.598663572425925"><ele>341.0</ele><time>2026-03-21T13:59:51Z</time></trkpt><trkpt lat="40.755738071529585" lon="9.598814823676417"><ele>337.33333333333337</ele><time>2026-03-21T13:59:52Z</time></trkpt><trkpt lat="40.75564914330927" lon="9.598987421214071"><ele>333.6666666666667</ele><time>2026-03-21T13:59:53Z</time></trkpt><trkpt lat="40.75556282852886" lon="9.599166471491582"><ele>330.0</ele><time>2026-03-21T13:59:54Z</time></trkpt><trkpt lat="40.755509420699454" lon="9.599334223617598"><ele>330.0</ele><time>2026-03-21T13:59:55Z</time></trkpt><trkpt lat="40.75544400198445" lon="9.599480375475045"><ele>330.0</ele><time>2026-03-21T13:59:56Z</time></trkpt><trkpt lat="40.755404166415516" lon="9.599634803835729"><ele>330.0</ele><time>2026-03-21T13:59:57Z</time></trkpt><trkpt lat="40.75535511512396" lon="9.599733703815431"><ele>330.0</ele><time>2026-03-21T13:59:58Z</time></trkpt><trkpt lat="40.75531941919968" lon="9.599811336223112"><ele>330.0</ele><time>2026-03-21T13:59:59Z</time></trkpt><trkpt lat="40.7552479156193" lon="9.599849170081782"><ele>335.4</ele><time>2026-03-21T14:00:01Z</time></trkpt><trkpt lat="40.755161701386896" lon="9.599769606574263"><ele>340.8</ele><time>2026-03-21T14:00:03Z</time></trkpt><trkpt lat="40.75512934919705" lon="9.59969048574428"><ele>346.20000000000005</ele><time>2026-03-21T14:00:04Z</time></trkpt><trkpt lat="40.75507347615735" lon="9.599492942955179"><ele>351.6</ele><time>2026-03-21T14:00:06Z</time></trkpt><trkpt lat="40.755061806463665" lon="9.599360212938704"><ele>357.0</ele><time>2026-03-21T14:00:07Z</time></trkpt><trkpt lat="40.75507960924208" lon="9.59921586868625"><ele>357.5</ele><time>2026-03-21T14:00:08Z</time></trkpt><trkpt lat="40.75509871463097" lon="9.599059197589053"><ele>358.0</ele><time>2026-03-21T14:00:09Z</time></trkpt><trkpt lat="40.75512101408952" lon="9.59887729148257"><ele>358.5</ele><time>2026-03-21T14:00:10Z</time></trkpt><trkpt lat="40.75513900986373" lon="9.598729403153733"><ele>359.0</ele><time>2026-03-21T14:00:11Z</time></trkpt><trkpt lat="40.75515082648983" lon="9.598579427161914"><ele>360.6</ele><time>2026-03-21T14:00:12Z</time></trkpt><trkpt lat="40.755126700873376" lon="9.598435527610409"><ele>362.2</ele><time>2026-03-21T14:00:13Z</time></trkpt><trkpt lat="40.75510611575222" lon="9.598308798618085"><ele>363.8</ele><time>2026-03-21T14:00:14Z</time></trkpt><trkpt lat="40.75505833052321" lon="9.59816582920051"><ele>365.40000000000003</ele><time>2026-03-21T14:00:15Z</time></trkpt><trkpt lat="40.755010589054855" lon="9.59803402118772"><ele>367.0</ele><time>2026-03-21T14:00:16Z</time></trkpt><trkpt lat="40.75496428850224" lon="9.597898205704828"><ele>368.5</ele><time>2026-03-21T14:00:17Z</time></trkpt><trkpt lat="40.75492704683645" lon="9.5977433978601"><ele>370.0</ele><time>2026-03-21T14:00:18Z</time></trkpt><trkpt lat="40.75491143778628" lon="9.597586889709344"><ele>371.5</ele><time>2026-03-21T14:00:19Z</time></trkpt><trkpt lat="40.7549001098541" lon="9.597430312485026"><ele>373.0</ele><time>2026-03-21T14:00:20Z</time></trkpt><trkpt lat="40.754882009081335" lon="9.597279688244283"><ele>373.0</ele><time>2026-03-21T14:00:21Z</time></trkpt><trkpt lat="40.75485560027931" lon="9.5971333473351"><ele>373.0</ele><time>2026-03-21T14:00:22Z</time></trkpt><trkpt lat="40.7548073852303" lon="9.597009026914202"><ele>373.0</ele><time>2026-03-21T14:00:23Z</time></trkpt><trkpt lat="40.75474009054719" lon="9.596908680039627"><ele>373.0</ele><time>2026-03-21T14:00:24Z</time></trkpt><trkpt lat="40.75468116922472" lon="9.596806939037409"><ele>373.0</ele><time>2026-03-21T14:00:25Z</time></trkpt><trkpt lat="40.75462579870104" lon="9.596702066245582"><ele>374.0</ele><time>2026-03-21T14:00:26Z</time></trkpt><trkpt lat="40.7546002796405" lon="9.596624548717111"><ele>375.0</ele><time>2026-03-21T14:00:27Z</time></trkpt><trkpt lat="40.75458616677312" lon="9.596534748892482"><ele>376.0</ele><time>2026-03-21T14:00:28Z</time></trkpt><trkpt lat="40.75457897702225" lon="9.596436794805504"><ele>377.0</ele><time>2026-03-21T14:00:29Z</time></trkpt><trkpt lat="40.754578877195904" lon="9.596314050159892"><ele>378.0</ele><time>2026-03-21T14:00:30Z</time></trkpt><trkpt lat="40.754583658013445" lon="9.59617365578318"><ele>379.0</ele><time>2026-03-21T14:00:31Z</time></trkpt><trkpt lat="40.75459848132154" lon="9.596038865120793"><ele>382.0</ele><time>2026-03-21T14:00:32Z</time></trkpt><trkpt lat="40.75464067902933" lon="9.595893047514483"><ele>385.0</ele><time>2026-03-21T14:00:33.001Z</time></trkpt><trkpt lat="40.754677451164746" lon="9.595744057286257"><ele>388.0</ele><time>2026-03-21T14:00:34.001Z</time></trkpt><trkpt lat="40.754710282402534" lon="9.595605275891154"><ele>391.0</ele><time>2026-03-21T14:00:35.001Z</time></trkpt><trkpt lat="40.754738768704186" lon="9.595465538446437"><ele>391.0</ele><time>2026-03-21T14:00:36.001Z</time></trkpt><trkpt lat="40.75475628537127" lon="9.59537475532895"><ele>391.0</ele><time>2026-03-21T14:00:37.001Z</time></trkpt><trkpt lat="40.754771897676136" lon="9.595274617979673"><ele>391.0</ele><time>2026-03-21T14:00:38.001Z</time></trkpt><trkpt lat="40.754772250968685" lon="9.59511079832209"><ele>391.0</ele><time>2026-03-21T14:00:40.001Z</time></trkpt><trkpt lat="40.754774745762376" lon="9.595019832528786"><ele>391.0</ele><time>2026-03-21T14:00:41.001Z</time></trkpt><trkpt lat="40.75477171691839" lon="9.594862973168148"><ele>394.50000000000006</ele><time>2026-03-21T14:00:42.001Z</time></trkpt><trkpt lat="40.75472092911402" lon="9.594761761634452"><ele>398.0</ele><time>2026-03-21T14:00:43.001Z</time></trkpt><trkpt lat="40.7547037924173" lon="9.594674278251974"><ele>401.5</ele><time>2026-03-21T14:00:44.001Z</time></trkpt><trkpt lat="40.75467581122683" lon="9.594598721220178"><ele>405.0</ele><time>2026-03-21T14:00:46.001Z</time></trkpt><trkpt lat="40.754614338176225" lon="9.594539329626405"><ele>408.50000000000006</ele><time>2026-03-21T14:05:12.001Z</time></trkpt><trkpt lat="40.7545812044861" lon="9.594443496406418"><ele>412.0</ele><time>2026-03-21T14:05:13.001Z</time></trkpt><trkpt lat="40.75453291467953" lon="9.594324652220829"><ele>412.0</ele><time>2026-03-21T14:05:14.001Z</time></trkpt><trkpt lat="40.75455042584211" lon="9.59415505500301"><ele>412.0</ele><time>2026-03-21T14:05:15.001Z</time></trkpt><trkpt lat="40.75451304444664" lon="9.593999610789899"><ele>412.0</ele><time>2026-03-21T14:05:16.001Z</time></trkpt><trkpt lat="40.75446616286123" lon="9.593815935098402"><ele>412.0</ele><time>2026-03-21T14:05:17.001Z</time></trkpt><trkpt lat="40.75441630404098" lon="9.593627985540714"><ele>411.5</ele><time>2026-03-21T14:05:18.001Z</time></trkpt><trkpt lat="40.75437220238618" lon="9.593461838089105"><ele>411.0</ele><time>2026-03-21T14:05:19.001Z</time></trkpt><trkpt lat="40.754337702010645" lon="9.593318026498913"><ele>410.5</ele><time>2026-03-21T14:05:20.001Z</time></trkpt><trkpt lat="40.75432407494852" lon="9.593163290967954"><ele>410.0</ele><time>2026-03-21T14:05:21.001Z</time></trkpt><trkpt lat="40.75433230197174" lon="9.593030638021116"><ele>408.8</ele><time>2026-03-21T14:05:22.001Z</time></trkpt><trkpt lat="40.754347948473225" lon="9.592899355780974"><ele>407.6</ele><time>2026-03-21T14:05:23.001Z</time></trkpt><trkpt lat="40.75435705836983" lon="9.592758058617102"><ele>406.4</ele><time>2026-03-21T14:05:24.001Z</time></trkpt><trkpt lat="40.75436026021197" lon="9.592614374631397"><ele>405.2</ele><time>2026-03-21T14:05:25.001Z</time></trkpt><trkpt lat="40.754343321504955" lon="9.59246342589899"><ele>404.0</ele><time>2026-03-21T14:05:26.001Z</time></trkpt><trkpt lat="40.7543078146357" lon="9.59234716409215"><ele>403.5</ele><time>2026-03-21T14:05:27.001Z</time></trkpt><trkpt lat="40.75425951477355" lon="9.592206742279776"><ele>403.0</ele><time>2026-03-21T14:05:28.001Z</time></trkpt><trkpt lat="40.75420496298588" lon="9.592086743545158"><ele>402.5</ele><time>2026-03-21T14:05:29.001Z</time></trkpt><trkpt lat="40.75413417499889" lon="9.591974892530303"><ele>402.0</ele><time>2026-03-21T14:05:30.001Z</time></trkpt><trkpt lat="40.75406135729906" lon="9.59184316963155"><ele>403.0</ele><time>2026-03-21T14:05:31.001Z</time></trkpt><trkpt lat="40.753985538200176" lon="9.591705548530923"><ele>404.0</ele><time>2026-03-21T14:05:32.001Z</time></trkpt><trkpt lat="40.753906078453596" lon="9.591594072493189"><ele>405.0</ele><time>2026-03-21T14:05:33.001Z</time></trkpt><trkpt lat="40.753811367745385" lon="9.591509768043796"><ele>406.0</ele><time>2026-03-21T14:05:34Z</time></trkpt><trkpt lat="40.75370705899941" lon="9.591423492893979"><ele>406.0</ele><time>2026-03-21T14:05:35Z</time></trkpt><trkpt lat="40.753602245382" lon="9.591365535070615"><ele>406.0</ele><time>2026-03-21T14:05:36Z</time></trkpt><trkpt lat="40.75349507378464" lon="9.591312248208304"><ele>406.0</ele><time>2026-03-21T14:05:37Z</time></trkpt><trkpt lat="40.75338279940966" lon="9.591264290506658"><ele>406.0</ele><time>2026-03-21T14:05:38Z</time></trkpt><trkpt lat="40.753264108279005" lon="9.591223377597657"><ele>404.0</ele><time>2026-03-21T14:05:39Z</time></trkpt><trkpt lat="40.753149392761074" lon="9.591183991752875"><ele>402.0</ele><time>2026-03-21T14:05:40Z</time></trkpt><trkpt lat="40.75303886996948" lon="9.591140723420887"><ele>400.0</ele><time>2026-03-21T14:05:41Z</time></trkpt><trkpt lat="40.75292548600369" lon="9.591115111143864"><ele>398.0</ele><time>2026-03-21T14:05:42Z</time></trkpt><trkpt lat="40.75281848198411" lon="9.591093627919994"><ele>398.0</ele><time>2026-03-21T14:05:43Z</time></trkpt><trkpt lat="40.752716621431" lon="9.591063145450315"><ele>398.0</ele><time>2026-03-21T14:05:44Z</time></trkpt><trkpt lat="40.75262849303857" lon="9.591010095464577"><ele>398.0</ele><time>2026-03-21T14:05:45Z</time></trkpt><trkpt lat="40.75252688889124" lon="9.59096177656353"><ele>398.0</ele><time>2026-03-21T14:05:46Z</time></trkpt><trkpt lat="40.75244600260652" lon="9.590890214615923"><ele>398.0</ele><time>2026-03-21T14:05:47Z</time></trkpt><trkpt lat="40.75238802046887" lon="9.590760717686635"><ele>395.4</ele><time>2026-03-21T14:05:48Z</time></trkpt><trkpt lat="40.75230917903599" lon="9.590664477232977"><ele>392.79999999999995</ele><time>2026-03-21T14:05:49Z</time></trkpt><trkpt lat="40.75224525516043" lon="9.59056949852721"><ele>390.2</ele><time>2026-03-21T14:05:50Z</time></trkpt><trkpt lat="40.75217956351827" lon="9.590484819855579"><ele>387.6</ele><time>2026-03-21T14:05:51Z</time></trkpt><trkpt lat="40.75210361338641" lon="9.590405889422588"><ele>385.0</ele><time>2026-03-21T14:05:52Z</time></trkpt><trkpt lat="40.75202684051473" lon="9.590349376810087"><ele>383.8</ele><time>2026-03-21T14:05:53Z</time></trkpt><trkpt lat="40.75194924204716" lon="9.590301046731012"><ele>382.6</ele><time>2026-03-21T14:05:54Z</time></trkpt><trkpt lat="40.75187508340429" lon="9.590229243831963"><ele>381.4</ele><time>2026-03-21T14:05:55Z</time></trkpt><trkpt lat="40.75180171588081" lon="9.590155216846783"><ele>380.2</ele><time>2026-03-21T14:05:56Z</time></trkpt><trkpt lat="40.75173087754045" lon="9.590077900255721"><ele>379.0</ele><time>2026-03-21T14:05:57Z</time></trkpt><trkpt lat="40.75166082560436" lon="9.59000547790596"><ele>379.0</ele><time>2026-03-21T14:05:58Z</time></trkpt><trkpt lat="40.75159143468286" lon="9.589934913454094"><ele>379.0</ele><time>2026-03-21T14:05:59Z</time></trkpt><trkpt lat="40.751515962170316" lon="9.589878373144984"><ele>379.0</ele><time>2026-03-21T14:06:00Z</time></trkpt><trkpt lat="40.75144086964508" lon="9.589820284111791"><ele>379.0</ele><time>2026-03-21T14:06:01Z</time></trkpt><trkpt lat="40.7513676386202" lon="9.589754493305643"><ele>379.0</ele><time>2026-03-21T14:06:02Z</time></trkpt><trkpt lat="40.751291964412275" lon="9.58969334128151"><ele>379.0</ele><time>2026-03-21T14:06:03Z</time></trkpt><trkpt lat="40.75121478828064" lon="9.58963477845678"><ele>379.0</ele><time>2026-03-21T14:06:04Z</time></trkpt><trkpt lat="40.75111238170176" lon="9.589595258224191"><ele>379.0</ele><time>2026-03-21T14:06:05Z</time></trkpt><trkpt lat="40.75100867156762" lon="9.589566605055449"><ele>379.0</ele><time>2026-03-21T14:06:06Z</time></trkpt><trkpt lat="40.75090454744719" lon="9.589543656574525"><ele>379.0</ele><time>2026-03-21T14:06:07Z</time></trkpt><trkpt lat="40.750795860054176" lon="9.589500468346671"><ele>379.0</ele><time>2026-03-21T14:06:08Z</time></trkpt><trkpt lat="40.75068186712156" lon="9.589441658091163"><ele>379.0</ele><time>2026-03-21T14:06:09Z</time></trkpt><trkpt lat="40.750573839995326" lon="9.589382949843003"><ele>379.0</ele><time>2026-03-21T14:06:10Z</time></trkpt><trkpt lat="40.75047985021322" lon="9.58932198935299"><ele>379.0</ele><time>2026-03-21T14:06:11Z</time></trkpt><trkpt lat="40.75039466666217" lon="9.589261032513791"><ele>379.0</ele><time>2026-03-21T14:06:12Z</time></trkpt><trkpt lat="40.75030328424377" lon="9.58922500387531"><ele>379.0</ele><time>2026-03-21T14:06:13Z</time></trkpt><trkpt lat="40.75021647122833" lon="9.589201350477781"><ele>376.4</ele><time>2026-03-21T14:06:14Z</time></trkpt><trkpt lat="40.75011999572313" lon="9.589193734918279"><ele>373.79999999999995</ele><time>2026-03-21T14:06:15Z</time></trkpt><trkpt lat="40.75001441885225" lon="9.589211229912221"><ele>371.20000000000005</ele><time>2026-03-21T14:06:16Z</time></trkpt><trkpt lat="40.749908248230916" lon="9.589241160327864"><ele>368.6</ele><time>2026-03-21T14:06:17Z</time></trkpt><trkpt lat="40.74980962065933" lon="9.58926617350774"><ele>366.0</ele><time>2026-03-21T14:06:18Z</time></trkpt><trkpt lat="40.749703166537834" lon="9.589275912118644"><ele>366.0</ele><time>2026-03-21T14:06:19Z</time></trkpt><trkpt lat="40.74959497175406" lon="9.589268094785401"><ele>366.0</ele><time>2026-03-21T14:06:20Z</time></trkpt><trkpt lat="40.74949503154731" lon="9.589243845213828"><ele>366.0</ele><time>2026-03-21T14:06:21Z</time></trkpt><trkpt lat="40.74939545065912" lon="9.589232365135233"><ele>366.0</ele><time>2026-03-21T14:06:22Z</time></trkpt><trkpt lat="40.74928691627395" lon="9.589226803669685"><ele>366.0</ele><time>2026-03-21T14:06:23Z</time></trkpt><trkpt lat="40.749188603684466" lon="9.589208636320189"><ele>364.8</ele><time>2026-03-21T14:06:24Z</time></trkpt><trkpt lat="40.74909964125145" lon="9.58916651063477"><ele>363.6</ele><time>2026-03-21T14:06:25Z</time></trkpt><trkpt lat="40.74901831986628" lon="9.589101642835685"><ele>362.4</ele><time>2026-03-21T14:06:26Z</time></trkpt><trkpt lat="40.7489498602047" lon="9.589008276508691"><ele>361.2</ele><time>2026-03-21T14:06:27Z</time></trkpt><trkpt lat="40.74888673574825" lon="9.58889699300319"><ele>360.0</ele><time>2026-03-21T14:06:28Z</time></trkpt><trkpt lat="40.74883217297912" lon="9.588780859855966"><ele>360.0</ele><time>2026-03-21T14:06:29Z</time></trkpt><trkpt lat="40.7487898108441" lon="9.588663929946497"><ele>360.0</ele><time>2026-03-21T14:06:30Z</time></trkpt><trkpt lat="40.74876409746333" lon="9.58855945356779"><ele>360.0</ele><time>2026-03-21T14:06:31Z</time></trkpt><trkpt lat="40.748735854592496" lon="9.588470831016442"><ele>360.0</ele><time>2026-03-21T14:06:32Z</time></trkpt><trkpt lat="40.74864749371891" lon="9.588392073963615"><ele>360.0</ele><time>2026-03-21T14:06:34Z</time></trkpt><trkpt lat="40.748526761998676" lon="9.58840851585846"><ele>360.0</ele><time>2026-03-21T14:06:36Z</time></trkpt><trkpt lat="40.748411523996744" lon="9.588494042024488"><ele>360.0</ele><time>2026-03-21T14:06:38Z</time></trkpt><trkpt lat="40.74834827278505" lon="9.588574067260511"><ele>360.0</ele><time>2026-03-21T14:06:39Z</time></trkpt><trkpt lat="40.74828771091606" lon="9.58867287572457"><ele>360.0</ele><time>2026-03-21T14:06:40Z</time></trkpt><trkpt lat="40.74821939110768" lon="9.588778893058295"><ele>360.0</ele><time>2026-03-21T14:06:41Z</time></trkpt><trkpt lat="40.7481350368027" lon="9.588878186672355"><ele>360.4</ele><time>2026-03-21T14:06:42Z</time></trkpt><trkpt lat="40.74804369226217" lon="9.58895695942269"><ele>360.8</ele><time>2026-03-21T14:06:43Z</time></trkpt><trkpt lat="40.74794676742772" lon="9.589006540451745"><ele>361.20000000000005</ele><time>2026-03-21T14:06:44Z</time></trkpt><trkpt lat="40.74783128885105" lon="9.589023965756773"><ele>361.6</ele><time>2026-03-21T14:06:45Z</time></trkpt><trkpt lat="40.74771345891389" lon="9.589021894505834"><ele>362.0</ele><time>2026-03-21T14:06:46Z</time></trkpt><trkpt lat="40.74760185057813" lon="9.588995968070199"><ele>362.0</ele><time>2026-03-21T14:06:47Z</time></trkpt><trkpt lat="40.747491372972924" lon="9.58898228494871"><ele>362.0</ele><time>2026-03-21T14:06:48Z</time></trkpt><trkpt lat="40.74738146937235" lon="9.58897755762663"><ele>362.0</ele><time>2026-03-21T14:06:49Z</time></trkpt><trkpt lat="40.747269186475606" lon="9.588968773598705"><ele>362.0</ele><time>2026-03-21T14:06:50Z</time></trkpt><trkpt lat="40.74714884968074" lon="9.588973665159784"><ele>362.0</ele><time>2026-03-21T14:06:51Z</time></trkpt><trkpt lat="40.74702025879554" lon="9.588972023276787"><ele>362.0</ele><time>2026-03-21T14:06:52Z</time></trkpt><trkpt lat="40.7468989297601" lon="9.58897938523677"><ele>362.0</ele><time>2026-03-21T14:06:53Z</time></trkpt><trkpt lat="40.74677649887253" lon="9.58901985231428"><ele>362.0</ele><time>2026-03-21T14:06:54Z</time></trkpt><trkpt lat="40.74665379430587" lon="9.589067894651821"><ele>363.5</ele><time>2026-03-21T14:06:55Z</time></trkpt><trkpt lat="40.74653993695191" lon="9.589120218592084"><ele>365.0</ele><time>2026-03-21T14:06:56Z</time></trkpt><trkpt lat="40.74640770909795" lon="9.589178458384554"><ele>366.5</ele><time>2026-03-21T14:06:57Z</time></trkpt><trkpt lat="40.74627359353116" lon="9.589232372900394"><ele>368.0</ele><time>2026-03-21T14:06:58Z</time></trkpt><trkpt lat="40.746152142646835" lon="9.589256673824124"><ele>369.4</ele><time>2026-03-21T14:06:59Z</time></trkpt><trkpt lat="40.74603516947409" lon="9.58925884594109"><ele>370.79999999999995</ele><time>2026-03-21T14:07:00Z</time></trkpt><trkpt lat="40.74591308828678" lon="9.58924658751619"><ele>372.2</ele><time>2026-03-21T14:07:01.001Z</time></trkpt><trkpt lat="40.745804234792" lon="9.589219746895331"><ele>373.6</ele><time>2026-03-21T14:07:02.001Z</time></trkpt><trkpt lat="40.745707137923205" lon="9.589199440245514"><ele>375.0</ele><time>2026-03-21T14:07:03.001Z</time></trkpt><trkpt lat="40.74560424351701" lon="9.589198119868918"><ele>375.0</ele><time>2026-03-21T14:07:04.001Z</time></trkpt><trkpt lat="40.74549652898639" lon="9.589171198273064"><ele>375.0</ele><time>2026-03-21T14:07:05.001Z</time></trkpt><trkpt lat="40.74538724300836" lon="9.589120437124464"><ele>375.0</ele><time>2026-03-21T14:07:06.001Z</time></trkpt><trkpt lat="40.74527241770822" lon="9.589055917734427"><ele>375.0</ele><time>2026-03-21T14:07:07.001Z</time></trkpt><trkpt lat="40.745168389326416" lon="9.58898552824379"><ele>375.25</ele><time>2026-03-21T14:07:08.001Z</time></trkpt><trkpt lat="40.745067404884765" lon="9.58891533487316"><ele>375.5</ele><time>2026-03-21T14:07:09.001Z</time></trkpt><trkpt lat="40.74495446286069" lon="9.588862494558636"><ele>375.75</ele><time>2026-03-21T14:07:10.001Z</time></trkpt><trkpt lat="40.74483892625624" lon="9.58880065489604"><ele>376.0</ele><time>2026-03-21T14:07:11.001Z</time></trkpt><trkpt lat="40.74473219676004" lon="9.588738580272201"><ele>376.0</ele><time>2026-03-21T14:07:12.001Z</time></trkpt><trkpt lat="40.74462455199312" lon="9.588699352240694"><ele>376.0</ele><time>2026-03-21T14:07:13.001Z</time></trkpt><trkpt lat="40.744529611803856" lon="9.588667035710047"><ele>376.0</ele><time>2026-03-21T14:07:14.001Z</time></trkpt><trkpt lat="40.74442100439133" lon="9.5886533054768"><ele>376.0</ele><time>2026-03-21T14:07:15.001Z</time></trkpt><trkpt lat="40.744297703361894" lon="9.588618680825444"><ele>376.0</ele><time>2026-03-21T14:07:16.001Z</time></trkpt><trkpt lat="40.74416048260877" lon="9.588579589943958"><ele>381.0</ele><time>2026-03-21T14:07:17.001Z</time></trkpt><trkpt lat="40.74401280715886" lon="9.58853904410777"><ele>386.0</ele><time>2026-03-21T14:07:18.001Z</time></trkpt><trkpt lat="40.74385123693574" lon="9.588512151837044"><ele>391.0</ele><time>2026-03-21T14:07:19.001Z</time></trkpt><trkpt lat="40.743698927595865" lon="9.588492899011595"><ele>391.0</ele><time>2026-03-21T14:07:20.001Z</time></trkpt><trkpt lat="40.743560589417804" lon="9.588482560559658"><ele>391.0</ele><time>2026-03-21T14:07:21.001Z</time></trkpt><trkpt lat="40.74343959081068" lon="9.588463588914578"><ele>391.0</ele><time>2026-03-21T14:07:22.001Z</time></trkpt><trkpt lat="40.74332973340447" lon="9.588446242344904"><ele>391.0</ele><time>2026-03-21T14:07:23.001Z</time></trkpt><trkpt lat="40.74324102494661" lon="9.588443791538166"><ele>390.6</ele><time>2026-03-21T14:07:24.001Z</time></trkpt><trkpt lat="40.743176272792134" lon="9.588453119276354"><ele>390.20000000000005</ele><time>2026-03-21T14:07:25.001Z</time></trkpt><trkpt lat="40.743090865311224" lon="9.588411502754612"><ele>389.79999999999995</ele><time>2026-03-21T14:07:27.001Z</time></trkpt><trkpt lat="40.74307702230576" lon="9.588266601862252"><ele>389.4</ele><time>2026-03-21T14:07:29.001Z</time></trkpt><trkpt lat="40.74299436054205" lon="9.588183400869644"><ele>389.0</ele><time>2026-03-21T14:07:31.001Z</time></trkpt><trkpt lat="40.74287113809849" lon="9.588184328806985"><ele>388.99999999999994</ele><time>2026-03-21T14:07:33.001Z</time></trkpt><trkpt lat="40.74279806092935" lon="9.58817775527517"><ele>389.0</ele><time>2026-03-21T14:07:34.001Z</time></trkpt><trkpt lat="40.742732461578896" lon="9.5881707744034"><ele>389.0</ele><time>2026-03-21T14:07:35.001Z</time></trkpt><trkpt lat="40.742659721584246" lon="9.588178526506342"><ele>389.0</ele><time>2026-03-21T14:07:36.001Z</time></trkpt><trkpt lat="40.74257342265649" lon="9.588187741180635"><ele>388.99999999999994</ele><time>2026-03-21T14:07:37.001Z</time></trkpt><trkpt lat="40.7424869618492" lon="9.588203751171987"><ele>389.0</ele><time>2026-03-21T14:07:38.001Z</time></trkpt><trkpt lat="40.742400120841175" lon="9.588218155057211"><ele>389.49999999999994</ele><time>2026-03-21T14:07:39.001Z</time></trkpt><trkpt lat="40.74231546679651" lon="9.588233923598706"><ele>390.0</ele><time>2026-03-21T14:07:40Z</time></trkpt><trkpt lat="40.74223111939247" lon="9.58825025921798"><ele>390.5</ele><time>2026-03-21T14:07:41Z</time></trkpt><trkpt lat="40.74214297335309" lon="9.588272255281733"><ele>391.0</ele><time>2026-03-21T14:07:42Z</time></trkpt><trkpt lat="40.74204912809953" lon="9.588310085053953"><ele>391.49999999999994</ele><time>2026-03-21T14:07:43Z</time></trkpt><trkpt lat="40.74197021162942" lon="9.588352219010096"><ele>392.0</ele><time>2026-03-21T14:07:44Z</time></trkpt><trkpt lat="40.74189971211241" lon="9.58836925595604"><ele>394.3333333333333</ele><time>2026-03-21T14:07:45Z</time></trkpt><trkpt lat="40.74183753829527" lon="9.588340573486525"><ele>396.66666666666663</ele><time>2026-03-21T14:07:46Z</time></trkpt><trkpt lat="40.741775346225765" lon="9.588287470179996"><ele>399.0</ele><time>2026-03-21T14:07:47Z</time></trkpt><trkpt lat="40.74171376614824" lon="9.588230193770318"><ele>401.33333333333337</ele><time>2026-03-21T14:07:48Z</time></trkpt><trkpt lat="40.741643671721135" lon="9.588189470556593"><ele>403.6666666666667</ele><time>2026-03-21T14:07:49Z</time></trkpt><trkpt lat="40.7415551162863" lon="9.588165181562442"><ele>406.0</ele><time>2026-03-21T14:07:50Z</time></trkpt><trkpt lat="40.74145987056717" lon="9.588149305984034"><ele>406.00000000000006</ele><time>2026-03-21T14:07:51Z</time></trkpt><trkpt lat="40.74135355953215" lon="9.588126183023249"><ele>406.0</ele><time>2026-03-21T14:07:52Z</time></trkpt><trkpt lat="40.74126200685375" lon="9.588103831066054"><ele>406.0</ele><time>2026-03-21T14:07:53Z</time></trkpt><trkpt lat="40.74118956192407" lon="9.588100557088875"><ele>406.0</ele><time>2026-03-21T14:07:54Z</time></trkpt><trkpt lat="40.74112363601969" lon="9.588124753801663"><ele>406.00000000000006</ele><time>2026-03-21T14:07:55Z</time></trkpt><trkpt lat="40.74105293500444" lon="9.588184330928284"><ele>406.0</ele><time>2026-03-21T14:07:56Z</time></trkpt><trkpt lat="40.74098983860668" lon="9.588247686545413"><ele>408.20000000000005</ele><time>2026-03-21T14:07:57Z</time></trkpt><trkpt lat="40.74090520663612" lon="9.588286826997285"><ele>410.40000000000003</ele><time>2026-03-21T14:07:58Z</time></trkpt><trkpt lat="40.74083445470203" lon="9.588319489299066"><ele>412.6</ele><time>2026-03-21T14:07:59Z</time></trkpt><trkpt lat="40.7406861473531" lon="9.588299714829168"><ele>414.8</ele><time>2026-03-21T14:08:01Z</time></trkpt><trkpt lat="40.74059086676875" lon="9.58829055360247"><ele>417.0</ele><time>2026-03-21T14:08:02Z</time></trkpt><trkpt lat="40.74049513763096" lon="9.588308190802058"><ele>417.0</ele><time>2026-03-21T14:08:03Z</time></trkpt><trkpt lat="40.74042026154132" lon="9.588314989967685"><ele>417.0</ele><time>2026-03-21T14:08:04Z</time></trkpt><trkpt lat="40.74036250299757" lon="9.588267928415663"><ele>417.0</ele><time>2026-03-21T14:08:05Z</time></trkpt><trkpt lat="40.740306792772586" lon="9.588196511433747"><ele>417.0</ele><time>2026-03-21T14:08:06Z</time></trkpt><trkpt lat="40.74025575459343" lon="9.588126499459015"><ele>417.0</ele><time>2026-03-21T14:08:07Z</time></trkpt><trkpt lat="40.740194437775266" lon="9.588073126602987"><ele>417.0</ele><time>2026-03-21T14:08:08Z</time></trkpt><trkpt lat="40.74012174546751" lon="9.58802343838833"><ele>418.6666666666667</ele><time>2026-03-21T14:08:09Z</time></trkpt><trkpt lat="40.740055017993406" lon="9.587965505685252"><ele>420.33333333333337</ele><time>2026-03-21T14:08:10Z</time></trkpt><trkpt lat="40.73998023085437" lon="9.58791164880247"><ele>422.0</ele><time>2026-03-21T14:08:11Z</time></trkpt><trkpt lat="40.739899207428614" lon="9.587896184868447"><ele>423.6666666666667</ele><time>2026-03-21T14:08:12Z</time></trkpt><trkpt lat="40.73981663119886" lon="9.587868863650726"><ele>425.33333333333337</ele><time>2026-03-21T14:08:13Z</time></trkpt><trkpt lat="40.73973366946412" lon="9.587836884461977"><ele>427.0</ele><time>2026-03-21T14:08:14Z</time></trkpt><trkpt lat="40.73964760020689" lon="9.58780917410263"><ele>430.50000000000006</ele><time>2026-03-21T14:08:15Z</time></trkpt><trkpt lat="40.739571136851794" lon="9.587767892109353"><ele>434.0</ele><time>2026-03-21T14:08:16Z</time></trkpt><trkpt lat="40.73950029590928" lon="9.587729816763812"><ele>437.5</ele><time>2026-03-21T14:08:17Z</time></trkpt><trkpt lat="40.73942458273928" lon="9.587710942551682"><ele>441.0</ele><time>2026-03-21T14:08:18Z</time></trkpt><trkpt lat="40.739363269160634" lon="9.587730075141254"><ele>444.50000000000006</ele><time>2026-03-21T14:08:19Z</time></trkpt><trkpt lat="40.73927963349618" lon="9.587795512622197"><ele>448.0</ele><time>2026-03-21T14:08:20Z</time></trkpt><trkpt lat="40.7391850851122" lon="9.58783725112703"><ele>446.4</ele><time>2026-03-21T14:08:21Z</time></trkpt><trkpt lat="40.739083569671166" lon="9.587868228037546"><ele>444.79999999999995</ele><time>2026-03-21T14:08:22Z</time></trkpt><trkpt lat="40.73898912208703" lon="9.58789267367473"><ele>443.2</ele><time>2026-03-21T14:08:23Z</time></trkpt><trkpt lat="40.73888575586674" lon="9.587917990914214"><ele>441.6</ele><time>2026-03-21T14:08:24Z</time></trkpt><trkpt lat="40.738796099703144" lon="9.587931842704593"><ele>440.0</ele><time>2026-03-21T14:08:25Z</time></trkpt><trkpt lat="40.73870949889578" lon="9.587952473926183"><ele>439.99999999999994</ele><time>2026-03-21T14:08:26Z</time></trkpt><trkpt lat="40.73863246877883" lon="9.587979715092628"><ele>440.0</ele><time>2026-03-21T14:08:27Z</time></trkpt><trkpt lat="40.7385461026655" lon="9.588002825400835"><ele>440.0</ele><time>2026-03-21T14:08:28Z</time></trkpt><trkpt lat="40.73845952766809" lon="9.588025065545892"><ele>440.0</ele><time>2026-03-21T14:08:29Z</time></trkpt><trkpt lat="40.73837570558518" lon="9.58803121830314"><ele>439.99999999999994</ele><time>2026-03-21T14:08:30Z</time></trkpt><trkpt lat="40.73828275139146" lon="9.588041010679804"><ele>440.0</ele><time>2026-03-21T14:08:31Z</time></trkpt><trkpt lat="40.73818423235471" lon="9.588060255295634"><ele>442.4</ele><time>2026-03-21T14:08:32Z</time></trkpt><trkpt lat="40.73808095274784" lon="9.588077210951877"><ele>444.8</ele><time>2026-03-21T14:08:33Z</time></trkpt><trkpt lat="40.737988371057455" lon="9.588085349558039"><ele>447.20000000000005</ele><time>2026-03-21T14:08:34Z</time></trkpt><trkpt lat="40.737892577558746" lon="9.588102756000705"><ele>449.6</ele><time>2026-03-21T14:08:35Z</time></trkpt><trkpt lat="40.737798908266086" lon="9.588115121555475"><ele>452.0</ele><time>2026-03-21T14:08:36Z</time></trkpt><trkpt lat="40.737705366014325" lon="9.588113744746927"><ele>454.49999999999994</ele><time>2026-03-21T14:08:37Z</time></trkpt><trkpt lat="40.7376173075033" lon="9.588100813102582"><ele>457.0</ele><time>2026-03-21T14:08:38Z</time></trkpt><trkpt lat="40.7375314242338" lon="9.588085585793044"><ele>459.5</ele><time>2026-03-21T14:08:39Z</time></trkpt><trkpt lat="40.737446381537026" lon="9.58808292643488"><ele>462.0</ele><time>2026-03-21T14:08:40Z</time></trkpt><trkpt lat="40.737364464883804" lon="9.588084575382275"><ele>464.49999999999994</ele><time>2026-03-21T14:08:41Z</time></trkpt><trkpt lat="40.73728705074386" lon="9.588086773529298"><ele>467.0</ele><time>2026-03-21T14:08:42Z</time></trkpt><trkpt lat="40.737200337862994" lon="9.588081502662929"><ele>466.99999999999994</ele><time>2026-03-21T14:08:43Z</time></trkpt><trkpt lat="40.7371120236125" lon="9.588066199678279"><ele>467.0</ele><time>2026-03-21T14:08:44Z</time></trkpt><trkpt lat="40.73702913911115" lon="9.588058426510853"><ele>467.0</ele><time>2026-03-21T14:08:45Z</time></trkpt><trkpt lat="40.736948495477016" lon="9.588054823038396"><ele>467.0</ele><time>2026-03-21T14:08:46Z</time></trkpt><trkpt lat="40.73687925239388" lon="9.588091990579372"><ele>466.99999999999994</ele><time>2026-03-21T14:08:47Z</time></trkpt><trkpt lat="40.73680656955723" lon="9.588158560472483"><ele>467.0</ele><time>2026-03-21T14:08:48Z</time></trkpt><trkpt lat="40.73672798814126" lon="9.588230055302633"><ele>470.49999999999994</ele><time>2026-03-21T14:08:49Z</time></trkpt><trkpt lat="40.73664423830958" lon="9.588289229005742"><ele>474.0</ele><time>2026-03-21T14:08:50Z</time></trkpt><trkpt lat="40.73657082676299" lon="9.588330023362953"><ele>477.5</ele><time>2026-03-21T14:08:51Z</time></trkpt><trkpt lat="40.73649829037784" lon="9.58834311681586"><ele>481.0</ele><time>2026-03-21T14:08:52Z</time></trkpt><trkpt lat="40.736430094632915" lon="9.588325393778433"><ele>484.49999999999994</ele><time>2026-03-21T14:08:53Z</time></trkpt><trkpt lat="40.73635386049183" lon="9.588302969115183"><ele>488.0</ele><time>2026-03-21T14:08:54Z</time></trkpt><trkpt lat="40.73626351652599" lon="9.5882728726982"><ele>487.99999999999994</ele><time>2026-03-21T14:08:55Z</time></trkpt><trkpt lat="40.736181393177716" lon="9.58825490512789"><ele>488.0</ele><time>2026-03-21T14:08:56Z</time></trkpt><trkpt lat="40.73610426006865" lon="9.588263450470636"><ele>488.0</ele><time>2026-03-21T14:08:57Z</time></trkpt><trkpt lat="40.736049309885345" lon="9.588308152481336"><ele>488.0</ele><time>2026-03-21T14:08:58Z</time></trkpt><trkpt lat="40.73598648063081" lon="9.588354067995494"><ele>487.99999999999994</ele><time>2026-03-21T14:08:59Z</time></trkpt><trkpt lat="40.735906412786754" lon="9.588390624219915"><ele>488.0</ele><time>2026-03-21T14:09:00Z</time></trkpt><trkpt lat="40.73582901592121" lon="9.588386160861546"><ele>491.0</ele><time>2026-03-21T14:09:01Z</time></trkpt><trkpt lat="40.73572540283017" lon="9.588320928173305"><ele>493.99999999999994</ele><time>2026-03-21T14:09:03Z</time></trkpt><trkpt lat="40.73570454251679" lon="9.58819863561334"><ele>496.99999999999994</ele><time>2026-03-21T14:09:05Z</time></trkpt><trkpt lat="40.735672901714" lon="9.588058847939271"><ele>500.0</ele><time>2026-03-21T14:09:07Z</time></trkpt><trkpt lat="40.73564978254693" lon="9.587975062544665"><ele>503.0</ele><time>2026-03-21T14:09:08Z</time></trkpt><trkpt lat="40.735604979025126" lon="9.58784395497758"><ele>505.16666666666663</ele><time>2026-03-21T14:09:10Z</time></trkpt><trkpt lat="40.73555942657293" lon="9.587728502878115"><ele>507.3333333333333</ele><time>2026-03-21T14:09:12Z</time></trkpt><trkpt lat="40.73550602305524" lon="9.587601616364417"><ele>509.5</ele><time>2026-03-21T14:09:14Z</time></trkpt><trkpt lat="40.7354698004273" lon="9.58753355490528"><ele>511.66666666666663</ele><time>2026-03-21T14:09:15Z</time></trkpt><trkpt lat="40.73543509185227" lon="9.58746400083048"><ele>513.8333333333334</ele><time>2026-03-21T14:09:16Z</time></trkpt><trkpt lat="40.73537756817981" lon="9.587384283442987"><ele>516.0</ele><time>2026-03-21T14:09:17Z</time></trkpt><trkpt lat="40.73530800329187" lon="9.58733379561339"><ele>516.0</ele><time>2026-03-21T14:09:19Z</time></trkpt><trkpt lat="40.73525327465209" lon="9.587559670777"><ele>516.0</ele><time>2026-03-21T14:13:04Z</time></trkpt><trkpt lat="40.73524457734398" lon="9.587661768228905"><ele>516.0</ele><time>2026-03-21T14:13:05Z</time></trkpt><trkpt lat="40.73524003565864" lon="9.58778997906925"><ele>516.0</ele><time>2026-03-21T14:13:06Z</time></trkpt><trkpt lat="40.73524873100785" lon="9.587925891669991"><ele>517.0</ele><time>2026-03-21T14:13:07Z</time></trkpt><trkpt lat="40.735243626492554" lon="9.588048457345954"><ele>518.0</ele><time>2026-03-21T14:13:08Z</time></trkpt><trkpt lat="40.73523526235871" lon="9.588160990415714"><ele>519.0</ele><time>2026-03-21T14:13:09Z</time></trkpt><trkpt lat="40.735201656975576" lon="9.588250913696761"><ele>520.0</ele><time>2026-03-21T14:13:10Z</time></trkpt><trkpt lat="40.73515439349219" lon="9.588332639902154"><ele>521.0</ele><time>2026-03-21T14:13:11Z</time></trkpt><trkpt lat="40.73509130532857" lon="9.588425818493276"><ele>522.0</ele><time>2026-03-21T14:13:12Z</time></trkpt><trkpt lat="40.735028001622545" lon="9.58850398806946"><ele>522.0</ele><time>2026-03-21T14:13:13Z</time></trkpt><trkpt lat="40.734959662414525" lon="9.588553542312285"><ele>522.0</ele><time>2026-03-21T14:13:14Z</time></trkpt><trkpt lat="40.73488810238712" lon="9.588572077774154"><ele>522.0</ele><time>2026-03-21T14:13:15Z</time></trkpt><trkpt lat="40.73480203682914" lon="9.588646727577174"><ele>522.0</ele><time>2026-03-21T14:13:17Z</time></trkpt><trkpt lat="40.73480717321844" lon="9.588792004057106"><ele>522.0</ele><time>2026-03-21T14:13:19Z</time></trkpt><trkpt lat="40.734848453854816" lon="9.588944416470392"><ele>522.5</ele><time>2026-03-21T14:13:21Z</time></trkpt><trkpt lat="40.734860145147486" lon="9.589091138461743"><ele>523.0</ele><time>2026-03-21T14:13:23Z</time></trkpt><trkpt lat="40.73486025234122" lon="9.589183089417604"><ele>523.5</ele><time>2026-03-21T14:13:24Z</time></trkpt><trkpt lat="40.73485823792449" lon="9.589274674658018"><ele>524.0</ele><time>2026-03-21T14:13:25Z</time></trkpt><trkpt lat="40.73487292949719" lon="9.589384570888843"><ele>524.5</ele><time>2026-03-21T14:13:26Z</time></trkpt><trkpt lat="40.734885968633805" lon="9.589486711163582"><ele>525.0</ele><time>2026-03-21T14:13:27Z</time></trkpt><trkpt lat="40.73489301619775" lon="9.589614138150365"><ele>526.6</ele><time>2026-03-21T14:13:28Z</time></trkpt><trkpt lat="40.734919617366884" lon="9.589717841166102"><ele>528.2</ele><time>2026-03-21T14:13:29Z</time></trkpt><trkpt lat="40.734962610242015" lon="9.589792593731447"><ele>529.8</ele><time>2026-03-21T14:13:30Z</time></trkpt><trkpt lat="40.73509695805635" lon="9.589843260606798"><ele>531.4</ele><time>2026-03-21T14:13:32Z</time></trkpt><trkpt lat="40.7351800973611" lon="9.589871366105859"><ele>533.0</ele><time>2026-03-21T14:13:33.001Z</time></trkpt><trkpt lat="40.73525086260413" lon="9.589899877095556"><ele>533.0</ele><time>2026-03-21T14:13:34.001Z</time></trkpt><trkpt lat="40.735322858558625" lon="9.58994166854632"><ele>533.0</ele><time>2026-03-21T14:13:35.001Z</time></trkpt><trkpt lat="40.73538557281294" lon="9.589966827863345"><ele>533.0</ele><time>2026-03-21T14:13:36.001Z</time></trkpt><trkpt lat="40.735450507082184" lon="9.58996637572762"><ele>533.0</ele><time>2026-03-21T14:13:37.001Z</time></trkpt><trkpt lat="40.73551665956436" lon="9.589956001359129"><ele>533.0</ele><time>2026-03-21T14:13:38.001Z</time></trkpt><trkpt lat="40.73558133858772" lon="9.589946569098007"><ele>533.0</ele><time>2026-03-21T14:13:39.001Z</time></trkpt><trkpt lat="40.735649223956166" lon="9.589960839324405"><ele>533.0</ele><time>2026-03-21T14:13:40.001Z</time></trkpt><trkpt lat="40.73571696103438" lon="9.590005232694176"><ele>533.0</ele><time>2026-03-21T14:13:41.001Z</time></trkpt><trkpt lat="40.7357971504025" lon="9.590058735502932"><ele>533.0</ele><time>2026-03-21T14:13:42.001Z</time></trkpt><trkpt lat="40.73586731342874" lon="9.59011347990259"><ele>533.0</ele><time>2026-03-21T14:13:43.001Z</time></trkpt><trkpt lat="40.7359540338402" lon="9.590221173873589"><ele>533.0</ele><time>2026-03-21T14:13:45.001Z</time></trkpt><trkpt lat="40.7359942571764" lon="9.590289251496237"><ele>533.0</ele><time>2026-03-21T14:13:46.001Z</time></trkpt><trkpt lat="40.73603559833104" lon="9.59036381530025"><ele>533.0</ele><time>2026-03-21T14:13:47.001Z</time></trkpt><trkpt lat="40.73605989494501" lon="9.590440530859722"><ele>531.1999999999999</ele><time>2026-03-21T14:13:48.001Z</time></trkpt><trkpt lat="40.736086377686604" lon="9.590618346738301"><ele>529.4</ele><time>2026-03-21T14:13:50.001Z</time></trkpt><trkpt lat="40.73610257508038" lon="9.590713252157503"><ele>527.5999999999999</ele><time>2026-03-21T14:13:51.001Z</time></trkpt><trkpt lat="40.736109425062025" lon="9.590806762867357"><ele>525.8</ele><time>2026-03-21T14:13:52.001Z</time></trkpt><trkpt lat="40.73612004686194" lon="9.590892415915624"><ele>524.0</ele><time>2026-03-21T14:13:53.001Z</time></trkpt><trkpt lat="40.736108596514256" lon="9.59105797531863"><ele>527.2</ele><time>2026-03-21T14:13:55.001Z</time></trkpt><trkpt lat="40.73609303784322" lon="9.591211022239426"><ele>530.4</ele><time>2026-03-21T14:13:57.001Z</time></trkpt><trkpt lat="40.73603478786948" lon="9.591349814893007"><ele>533.6</ele><time>2026-03-21T14:13:59Z</time></trkpt><trkpt lat="40.735994725004396" lon="9.591423713802659"><ele>536.8</ele><time>2026-03-21T14:14:00Z</time></trkpt><trkpt lat="40.73597529678875" lon="9.591579981804168"><ele>540.0</ele><time>2026-03-21T14:14:02Z</time></trkpt><trkpt lat="40.736027222174386" lon="9.591686949709173"><ele>540.0</ele><time>2026-03-21T14:14:04Z</time></trkpt><trkpt lat="40.735997262030004" lon="9.591572123628277"><ele>540.0</ele><time>2026-03-21T14:16:34Z</time></trkpt><trkpt lat="40.73598785987166" lon="9.59144444717841"><ele>540.0</ele><time>2026-03-21T14:16:36Z</time></trkpt><trkpt lat="40.73605308189577" lon="9.59131366841901"><ele>540.0</ele><time>2026-03-21T14:16:38Z</time></trkpt><trkpt lat="40.73609083976622" lon="9.591241638555342"><ele>540.0</ele><time>2026-03-21T14:16:39Z</time></trkpt><trkpt lat="40.73611543438249" lon="9.59111552850705"><ele>542.4</ele><time>2026-03-21T14:16:41Z</time></trkpt><trkpt lat="40.736097740477504" lon="9.590967344489915"><ele>544.8</ele><time>2026-03-21T14:16:43Z</time></trkpt><trkpt lat="40.736098284081876" lon="9.590812675002525"><ele>547.2</ele><time>2026-03-21T14:16:45Z</time></trkpt><trkpt lat="40.73609061238342" lon="9.590653866346951"><ele>549.6</ele><time>2026-03-21T14:16:47Z</time></trkpt><trkpt lat="40.73607107592937" lon="9.590571814146635"><ele>552.0</ele><time>2026-03-21T14:16:48Z</time></trkpt><trkpt lat="40.736051942489965" lon="9.590480868439492"><ele>552.0</ele><time>2026-03-21T14:16:49Z</time></trkpt><trkpt lat="40.7360306779563" lon="9.590387623562302"><ele>552.0</ele><time>2026-03-21T14:16:50Z</time></trkpt><trkpt lat="40.73599791526016" lon="9.590303239093963"><ele>552.0</ele><time>2026-03-21T14:16:51Z</time></trkpt><trkpt lat="40.73590138019519" lon="9.590187228124892"><ele>552.0</ele><time>2026-03-21T14:16:53Z</time></trkpt><trkpt lat="40.73584772729489" lon="9.590124152725222"><ele>552.0</ele><time>2026-03-21T14:16:54Z</time></trkpt><trkpt lat="40.73579517113485" lon="9.590070664345014"><ele>552.0</ele><time>2026-03-21T14:16:55Z</time></trkpt><trkpt lat="40.73567907292419" lon="9.590016000252591"><ele>550.6666666666666</ele><time>2026-03-21T14:16:57Z</time></trkpt><trkpt lat="40.73561641479411" lon="9.589985150621438"><ele>549.3333333333334</ele><time>2026-03-21T14:16:58Z</time></trkpt><trkpt lat="40.73551937347738" lon="9.589965775380646"><ele>548.0</ele><time>2026-03-21T14:17:00Z</time></trkpt><trkpt lat="40.73544322459374" lon="9.589972409275475"><ele>546.6666666666667</ele><time>2026-03-21T14:17:02Z</time></trkpt><trkpt lat="40.73535477435352" lon="9.589971366056037"><ele>545.3333333333334</ele><time>2026-03-21T14:17:05Z</time></trkpt><trkpt lat="40.73528339357077" lon="9.58993486781416"><ele>544.0</ele><time>2026-03-21T14:17:07Z</time></trkpt><trkpt lat="40.73519233225986" lon="9.589898079226908"><ele>544.0</ele><time>2026-03-21T14:17:09Z</time></trkpt><trkpt lat="40.73509434481264" lon="9.589851454949308"><ele>544.0</ele><time>2026-03-21T14:17:11Z</time></trkpt><trkpt lat="40.73502131450178" lon="9.589817184261255"><ele>544.0</ele><time>2026-03-21T14:17:12Z</time></trkpt><trkpt lat="40.73495717397286" lon="9.589765819668676"><ele>544.0</ele><time>2026-03-21T14:17:13Z</time></trkpt><trkpt lat="40.734904424444224" lon="9.589659981970712"><ele>544.0</ele><time>2026-03-21T14:17:15Z</time></trkpt><trkpt lat="40.73489579452715" lon="9.589563877619115"><ele>544.0</ele><time>2026-03-21T14:17:16Z</time></trkpt><trkpt lat="40.73489773437917" lon="9.589421900900282"><ele>540.2</ele><time>2026-03-21T14:17:17Z</time></trkpt><trkpt lat="40.7348760600826" lon="9.589293377085376"><ele>536.4</ele><time>2026-03-21T14:17:18Z</time></trkpt><trkpt lat="40.73484041237363" lon="9.589167267499292"><ele>532.6</ele><time>2026-03-21T14:17:19Z</time></trkpt><trkpt lat="40.73485784675019" lon="9.589067234527691"><ele>528.8</ele><time>2026-03-21T14:17:20Z</time></trkpt><trkpt lat="40.73485881504841" lon="9.588956967013196"><ele>525.0</ele><time>2026-03-21T14:17:21Z</time></trkpt><trkpt lat="40.734827744136126" lon="9.588819660390266"><ele>525.0</ele><time>2026-03-21T14:17:22Z</time></trkpt><trkpt lat="40.734806031342295" lon="9.588719995695605"><ele>525.0</ele><time>2026-03-21T14:17:23Z</time></trkpt><trkpt lat="40.73482832731077" lon="9.588594882968863"><ele>525.0</ele><time>2026-03-21T14:17:25Z</time></trkpt><trkpt lat="40.734894386997155" lon="9.588577274831014"><ele>525.0</ele><time>2026-03-21T14:17:26Z</time></trkpt><trkpt lat="40.734982547472" lon="9.588557986257813"><ele>525.0</ele><time>2026-03-21T14:17:27Z</time></trkpt><trkpt lat="40.735040719151044" lon="9.588521166225974"><ele>525.0</ele><time>2026-03-21T14:17:28Z</time></trkpt><trkpt lat="40.73509634618709" lon="9.588425845364375"><ele>524.4</ele><time>2026-03-21T14:17:29Z</time></trkpt><trkpt lat="40.73515731326277" lon="9.588303176045532"><ele>523.8</ele><time>2026-03-21T14:17:30Z</time></trkpt><trkpt lat="40.735205827462984" lon="9.588183866321472"><ele>523.2</ele><time>2026-03-21T14:17:31Z</time></trkpt><trkpt lat="40.73522253605588" lon="9.588066143521152"><ele>522.6</ele><time>2026-03-21T14:17:32Z</time></trkpt><trkpt lat="40.73522680046254" lon="9.587923339854393"><ele>522.0</ele><time>2026-03-21T14:17:33Z</time></trkpt><trkpt lat="40.73522401248703" lon="9.587770034641188"><ele>520.8000000000001</ele><time>2026-03-21T14:17:34Z</time></trkpt><trkpt lat="40.735218127513726" lon="9.587620631516076"><ele>519.6</ele><time>2026-03-21T14:17:35Z</time></trkpt><trkpt lat="40.735232511914674" lon="9.58748898694566"><ele>518.4000000000001</ele><time>2026-03-21T14:17:36Z</time></trkpt><trkpt lat="40.735250264042115" lon="9.587382166318184"><ele>517.2</ele><time>2026-03-21T14:17:38Z</time></trkpt><trkpt lat="40.73533337854523" lon="9.587402136783298"><ele>516.0</ele><time>2026-03-21T14:17:55.001Z</time></trkpt><trkpt lat="40.73542119771853" lon="9.587512774721262"><ele>516.0</ele><time>2026-03-21T14:17:57.001Z</time></trkpt><trkpt lat="40.73548361253095" lon="9.587647931084028"><ele>516.0</ele><time>2026-03-21T14:17:59.001Z</time></trkpt><trkpt lat="40.735539378474066" lon="9.587773131597048"><ele>516.0</ele><time>2026-03-21T14:18:01.001Z</time></trkpt><trkpt lat="40.73558986155674" lon="9.587905889307502"><ele>516.0</ele><time>2026-03-21T14:18:03.001Z</time></trkpt><trkpt lat="40.73563191063728" lon="9.588027789569272"><ele>516.0</ele><time>2026-03-21T14:18:05.001Z</time></trkpt><trkpt lat="40.73567595569559" lon="9.58812659532599"><ele>513.4</ele><time>2026-03-21T14:18:07.001Z</time></trkpt><trkpt lat="40.73571531812397" lon="9.588244873851455"><ele>510.8</ele><time>2026-03-21T14:18:09.001Z</time></trkpt><trkpt lat="40.73574867540122" lon="9.588350492179359"><ele>508.19999999999993</ele><time>2026-03-21T14:18:11Z</time></trkpt><trkpt lat="40.735856952820875" lon="9.588350978966762"><ele>505.59999999999997</ele><time>2026-03-21T14:18:13Z</time></trkpt><trkpt lat="40.73598713556096" lon="9.588331726628896"><ele>503.0</ele><time>2026-03-21T14:18:15Z</time></trkpt><trkpt lat="40.73605298964177" lon="9.588312708655058"><ele>500.49999999999994</ele><time>2026-03-21T14:18:16Z</time></trkpt><trkpt lat="40.73616953257218" lon="9.588250022476775"><ele>498.0</ele><time>2026-03-21T14:18:18Z</time></trkpt><trkpt lat="40.73623789534023" lon="9.588255144735841"><ele>495.5</ele><time>2026-03-21T14:18:19Z</time></trkpt><trkpt lat="40.73630380578188" lon="9.588264810716018"><ele>493.0</ele><time>2026-03-21T14:18:20Z</time></trkpt><trkpt lat="40.73637285462918" lon="9.58828982723328"><ele>490.49999999999994</ele><time>2026-03-21T14:18:21Z</time></trkpt><trkpt lat="40.73644868451651" lon="9.588305065002308"><ele>488.0</ele><time>2026-03-21T14:18:22Z</time></trkpt><trkpt lat="40.7365223838731" lon="9.588310623134191"><ele>487.99999999999994</ele><time>2026-03-21T14:18:23Z</time></trkpt><trkpt lat="40.73660139880832" lon="9.588299024067519"><ele>488.0</ele><time>2026-03-21T14:18:24Z</time></trkpt><trkpt lat="40.7366707915629" lon="9.588273072789505"><ele>488.0</ele><time>2026-03-21T14:18:25Z</time></trkpt><trkpt lat="40.73674204686814" lon="9.588219684451335"><ele>488.0</ele><time>2026-03-21T14:18:26Z</time></trkpt><trkpt lat="40.73680721651854" lon="9.588150605271496"><ele>487.99999999999994</ele><time>2026-03-21T14:18:27Z</time></trkpt><trkpt lat="40.73688005601098" lon="9.5880865179911"><ele>488.0</ele><time>2026-03-21T14:18:28Z</time></trkpt><trkpt lat="40.73695476425275" lon="9.588046600985937"><ele>484.99999999999994</ele><time>2026-03-21T14:18:29Z</time></trkpt><trkpt lat="40.73702192052775" lon="9.588025096332641"><ele>482.0</ele><time>2026-03-21T14:18:30Z</time></trkpt><trkpt lat="40.73709819163184" lon="9.588022520889545"><ele>478.99999999999994</ele><time>2026-03-21T14:18:31Z</time></trkpt><trkpt lat="40.73716153141521" lon="9.58804206579825"><ele>475.99999999999994</ele><time>2026-03-21T14:18:32Z</time></trkpt><trkpt lat="40.73722967189568" lon="9.588053204533018"><ele>473.0</ele><time>2026-03-21T14:18:33Z</time></trkpt><trkpt lat="40.737302025860735" lon="9.588068995688076"><ele>469.99999999999994</ele><time>2026-03-21T14:18:34Z</time></trkpt><trkpt lat="40.73737834070839" lon="9.588076141574936"><ele>466.99999999999994</ele><time>2026-03-21T14:18:35Z</time></trkpt><trkpt lat="40.73746239584076" lon="9.588072427308518"><ele>467.0</ele><time>2026-03-21T14:18:36Z</time></trkpt><trkpt lat="40.73754888026467" lon="9.588064476217594"><ele>467.00000000000006</ele><time>2026-03-21T14:18:37Z</time></trkpt><trkpt lat="40.73764324941789" lon="9.58806886371618"><ele>467.00000000000006</ele><time>2026-03-21T14:18:38Z</time></trkpt><trkpt lat="40.73774306713475" lon="9.58807239253774"><ele>467.0</ele><time>2026-03-21T14:18:39Z</time></trkpt><trkpt lat="40.737828517329625" lon="9.588086932067304"><ele>467.0</ele><time>2026-03-21T14:18:40Z</time></trkpt><trkpt lat="40.73792548454974" lon="9.58807400460604"><ele>464.0</ele><time>2026-03-21T14:18:41Z</time></trkpt><trkpt lat="40.73801468125209" lon="9.588049405326672"><ele>461.00000000000006</ele><time>2026-03-21T14:18:42Z</time></trkpt><trkpt lat="40.7381085104478" lon="9.588027022446742"><ele>458.00000000000006</ele><time>2026-03-21T14:18:43Z</time></trkpt><trkpt lat="40.73820137162747" lon="9.588011678159464"><ele>455.0</ele><time>2026-03-21T14:18:44Z</time></trkpt><trkpt lat="40.738290989425515" lon="9.587995999666129"><ele>452.0</ele><time>2026-03-21T14:18:45Z</time></trkpt><trkpt lat="40.738379877770186" lon="9.587982320960853"><ele>451.99999999999994</ele><time>2026-03-21T14:18:46Z</time></trkpt><trkpt lat="40.73846953346638" lon="9.587975126418694"><ele>452.0</ele><time>2026-03-21T14:18:47Z</time></trkpt><trkpt lat="40.738560256715765" lon="9.587967404271732"><ele>452.0</ele><time>2026-03-21T14:18:48Z</time></trkpt><trkpt lat="40.73864262643567" lon="9.587941604936256"><ele>452.0</ele><time>2026-03-21T14:18:49Z</time></trkpt><trkpt lat="40.73872655704804" lon="9.587910909976593"><ele>451.99999999999994</ele><time>2026-03-21T14:18:50Z</time></trkpt><trkpt lat="40.738817208455174" lon="9.587890394965479"><ele>452.0</ele><time>2026-03-21T14:18:51Z</time></trkpt><trkpt lat="40.73891421788894" lon="9.58787524660739"><ele>452.8</ele><time>2026-03-21T14:18:52Z</time></trkpt><trkpt lat="40.739014093666874" lon="9.587852007470032"><ele>453.6</ele><time>2026-03-21T14:18:53Z</time></trkpt><trkpt lat="40.73911486843615" lon="9.587821410481169"><ele>454.40000000000003</ele><time>2026-03-21T14:18:54Z</time></trkpt><trkpt lat="40.73921736658235" lon="9.587788093169062"><ele>455.20000000000005</ele><time>2026-03-21T14:18:55Z</time></trkpt><trkpt lat="40.73933185360355" lon="9.587743416052746"><ele>456.0</ele><time>2026-03-21T14:18:56Z</time></trkpt><trkpt lat="40.73943277938707" lon="9.587694926116786"><ele>454.6666666666667</ele><time>2026-03-21T14:18:57Z</time></trkpt><trkpt lat="40.73951253547771" lon="9.587682571289248"><ele>453.33333333333337</ele><time>2026-03-21T14:18:58Z</time></trkpt><trkpt lat="40.73958351966969" lon="9.587718824121295"><ele>452.0</ele><time>2026-03-21T14:18:59Z</time></trkpt><trkpt lat="40.73965393439475" lon="9.587749167772573"><ele>450.6666666666667</ele><time>2026-03-21T14:19:00Z</time></trkpt><trkpt lat="40.739760836816586" lon="9.587806499225254"><ele>449.33333333333337</ele><time>2026-03-21T14:19:01Z</time></trkpt><trkpt lat="40.7398246130375" lon="9.58783638687633"><ele>448.0</ele><time>2026-03-21T14:19:02Z</time></trkpt><trkpt lat="40.739890228601794" lon="9.587873778038464"><ele>444.50000000000006</ele><time>2026-03-21T14:19:03Z</time></trkpt><trkpt lat="40.739967396621665" lon="9.587898460418844"><ele>441.0</ele><time>2026-03-21T14:19:04Z</time></trkpt><trkpt lat="40.74003709645013" lon="9.587924625956138"><ele>437.5</ele><time>2026-03-21T14:19:05Z</time></trkpt><trkpt lat="40.74011179819376" lon="9.58797415603653"><ele>434.0</ele><time>2026-03-21T14:19:06Z</time></trkpt><trkpt lat="40.74018072780037" lon="9.588039015626055"><ele>430.50000000000006</ele><time>2026-03-21T14:19:07Z</time></trkpt><trkpt lat="40.74025312627717" lon="9.588116355781638"><ele>427.0</ele><time>2026-03-21T14:19:08Z</time></trkpt><trkpt lat="40.74032781943513" lon="9.588180695853685"><ele>425.57142857142856</ele><time>2026-03-21T14:19:09Z</time></trkpt><trkpt lat="40.74039758236028" lon="9.58824399279585"><ele>424.1428571428571</ele><time>2026-03-21T14:19:10Z</time></trkpt><trkpt lat="40.74045774490107" lon="9.588300410836096"><ele>422.7142857142857</ele><time>2026-03-21T14:19:11Z</time></trkpt><trkpt lat="40.740516887330706" lon="9.58834054582372"><ele>421.2857142857143</ele><time>2026-03-21T14:19:12Z</time></trkpt><trkpt lat="40.7405849061626" lon="9.588332239469626"><ele>419.85714285714283</ele><time>2026-03-21T14:19:13Z</time></trkpt><trkpt lat="40.74065766036668" lon="9.588274249733628"><ele>418.42857142857144</ele><time>2026-03-21T14:19:14Z</time></trkpt><trkpt lat="40.74072074021099" lon="9.588243980261227"><ele>417.0</ele><time>2026-03-21T14:19:15Z</time></trkpt><trkpt lat="40.74079016129129" lon="9.588262485876296"><ele>417.0</ele><time>2026-03-21T14:19:16Z</time></trkpt><trkpt lat="40.740861689666716" lon="9.588286006216547"><ele>417.0</ele><time>2026-03-21T14:19:17Z</time></trkpt><trkpt lat="40.74097556619737" lon="9.588237653597986"><ele>417.0</ele><time>2026-03-21T14:19:19Z</time></trkpt><trkpt lat="40.74103082725161" lon="9.588190900646199"><ele>417.0</ele><time>2026-03-21T14:19:20Z</time></trkpt><trkpt lat="40.741081590013536" lon="9.588136961079945"><ele>417.0</ele><time>2026-03-21T14:19:21Z</time></trkpt><trkpt lat="40.74114557533171" lon="9.588094162852693"><ele>417.0</ele><time>2026-03-21T14:19:22Z</time></trkpt><trkpt lat="40.74120637865937" lon="9.588062029872034"><ele>415.1666666666667</ele><time>2026-03-21T14:19:23Z</time></trkpt><trkpt lat="40.74128497974144" lon="9.588063866847031"><ele>413.33333333333337</ele><time>2026-03-21T14:19:24Z</time></trkpt><trkpt lat="40.74137267361481" lon="9.58808563791574"><ele>411.5</ele><time>2026-03-21T14:19:25Z</time></trkpt><trkpt lat="40.74144864777012" lon="9.588104293440542"><ele>409.6666666666667</ele><time>2026-03-21T14:19:26Z</time></trkpt><trkpt lat="40.74153128497927" lon="9.588134985498293"><ele>407.83333333333337</ele><time>2026-03-21T14:19:27Z</time></trkpt><trkpt lat="40.74159632377307" lon="9.588160430291499"><ele>406.0</ele><time>2026-03-21T14:19:28Z</time></trkpt><trkpt lat="40.741677596737226" lon="9.588195516118631"><ele>406.00000000000006</ele><time>2026-03-21T14:19:29Z</time></trkpt><trkpt lat="40.74175386035841" lon="9.588234958461959"><ele>406.0</ele><time>2026-03-21T14:19:30Z</time></trkpt><trkpt lat="40.74181129880098" lon="9.5882790485344"><ele>406.0</ele><time>2026-03-21T14:19:31Z</time></trkpt><trkpt lat="40.7418652076018" lon="9.58832549708305"><ele>406.0</ele><time>2026-03-21T14:19:32Z</time></trkpt><trkpt lat="40.74198846394068" lon="9.588349477192612"><ele>406.00000000000006</ele><time>2026-03-21T14:19:34Z</time></trkpt><trkpt lat="40.74206371986943" lon="9.588301705643431"><ele>406.0</ele><time>2026-03-21T14:19:35Z</time></trkpt><trkpt lat="40.742145472126374" lon="9.58824930486181"><ele>403.20000000000005</ele><time>2026-03-21T14:19:36Z</time></trkpt><trkpt lat="40.742240031992374" lon="9.588226394706746"><ele>400.40000000000003</ele><time>2026-03-21T14:19:37Z</time></trkpt><trkpt lat="40.74233819512183" lon="9.58822385420536"><ele>397.6</ele><time>2026-03-21T14:19:38Z</time></trkpt><trkpt lat="40.742429246963994" lon="9.588206098218267"><ele>394.8</ele><time>2026-03-21T14:19:39Z</time></trkpt><trkpt lat="40.74250989575437" lon="9.588191535867955"><ele>392.0</ele><time>2026-03-21T14:19:40Z</time></trkpt><trkpt lat="40.74259684512446" lon="9.588172255778002"><ele>391.99999999999994</ele><time>2026-03-21T14:19:41Z</time></trkpt><trkpt lat="40.74268322405318" lon="9.588160028430874"><ele>392.0</ele><time>2026-03-21T14:19:42Z</time></trkpt><trkpt lat="40.74276755423367" lon="9.588156958693899"><ele>392.0</ele><time>2026-03-21T14:19:43Z</time></trkpt><trkpt lat="40.742844387659495" lon="9.588159599243529"><ele>392.0</ele><time>2026-03-21T14:19:44Z</time></trkpt><trkpt lat="40.74293090693364" lon="9.588175368259272"><ele>391.99999999999994</ele><time>2026-03-21T14:19:45Z</time></trkpt><trkpt lat="40.743013730527075" lon="9.588198735601688"><ele>392.0</ele><time>2026-03-21T14:19:46Z</time></trkpt><trkpt lat="40.743084346241886" lon="9.588225127394454"><ele>391.49999999999994</ele><time>2026-03-21T14:19:47Z</time></trkpt><trkpt lat="40.743132930058714" lon="9.588305650484367"><ele>391.0</ele><time>2026-03-21T14:19:49Z</time></trkpt><trkpt lat="40.74312981547985" lon="9.588398217181396"><ele>390.5</ele><time>2026-03-21T14:19:51Z</time></trkpt><trkpt lat="40.743169236033026" lon="9.58846603537682"><ele>390.0</ele><time>2026-03-21T14:19:53Z</time></trkpt><trkpt lat="40.74325787853727" lon="9.588436536491528"><ele>389.49999999999994</ele><time>2026-03-21T14:19:55Z</time></trkpt><trkpt lat="40.743328676436256" lon="9.588415799895936"><ele>389.0</ele><time>2026-03-21T14:19:56Z</time></trkpt><trkpt lat="40.74342242727805" lon="9.588431069594177"><ele>389.0</ele><time>2026-03-21T14:19:57Z</time></trkpt><trkpt lat="40.743521349851356" lon="9.588453582164991"><ele>389.0</ele><time>2026-03-21T14:19:58Z</time></trkpt><trkpt lat="40.74362326241542" lon="9.588469356107165"><ele>389.0</ele><time>2026-03-21T14:19:59Z</time></trkpt><trkpt lat="40.74374062819892" lon="9.588483201740639"><ele>389.0</ele><time>2026-03-21T14:20:00Z</time></trkpt><trkpt lat="40.7438529821785" lon="9.588495843748014"><ele>389.0</ele><time>2026-03-21T14:20:01Z</time></trkpt><trkpt lat="40.74395762556102" lon="9.58850903170031"><ele>389.2</ele><time>2026-03-21T14:20:02Z</time></trkpt><trkpt lat="40.74406079524336" lon="9.588525700431935"><ele>389.4</ele><time>2026-03-21T14:20:03.001Z</time></trkpt><trkpt lat="40.74416326913111" lon="9.588538142609108"><ele>389.6</ele><time>2026-03-21T14:20:04.001Z</time></trkpt><trkpt lat="40.74427024117882" lon="9.588577918949232"><ele>389.8</ele><time>2026-03-21T14:20:05.001Z</time></trkpt><trkpt lat="40.74436038657763" lon="9.588610138748834"><ele>390.0</ele><time>2026-03-21T14:20:06.001Z</time></trkpt><trkpt lat="40.74444588474889" lon="9.588634706084694"><ele>390.0</ele><time>2026-03-21T14:20:07.001Z</time></trkpt><trkpt lat="40.74454161439285" lon="9.588653233084646"><ele>390.0</ele><time>2026-03-21T14:20:08.001Z</time></trkpt><trkpt lat="40.74464599116653" lon="9.588676300380275"><ele>390.0</ele><time>2026-03-21T14:20:09.001Z</time></trkpt><trkpt lat="40.744756652737486" lon="9.58871888746484"><ele>390.0</ele><time>2026-03-21T14:20:10.001Z</time></trkpt><trkpt lat="40.744863364563685" lon="9.58876554844377"><ele>390.0</ele><time>2026-03-21T14:20:11.001Z</time></trkpt><trkpt lat="40.744957235398644" lon="9.588823703000722"><ele>387.2</ele><time>2026-03-21T14:20:12.001Z</time></trkpt><trkpt lat="40.74505292176697" lon="9.588879122460975"><ele>384.4</ele><time>2026-03-21T14:20:13.001Z</time></trkpt><trkpt lat="40.74514445067968" lon="9.588955876769461"><ele>381.6</ele><time>2026-03-21T14:20:14.001Z</time></trkpt><trkpt lat="40.74523703110953" lon="9.589025964964886"><ele>378.8</ele><time>2026-03-21T14:20:15.001Z</time></trkpt><trkpt lat="40.74533829008915" lon="9.589089597022902"><ele>376.0</ele><time>2026-03-21T14:20:16Z</time></trkpt><trkpt lat="40.74544177524318" lon="9.589148949539394"><ele>375.8</ele><time>2026-03-21T14:20:17Z</time></trkpt><trkpt lat="40.745547456851874" lon="9.589187268642263"><ele>375.6</ele><time>2026-03-21T14:20:18Z</time></trkpt><trkpt lat="40.745658226851724" lon="9.589212685596895"><ele>375.4</ele><time>2026-03-21T14:20:19Z</time></trkpt><trkpt lat="40.74576957076856" lon="9.589211761929139"><ele>375.2</ele><time>2026-03-21T14:20:20Z</time></trkpt><trkpt lat="40.74588177533875" lon="9.589225961470774"><ele>375.0</ele><time>2026-03-21T14:20:21Z</time></trkpt><trkpt lat="40.745983641157345" lon="9.589241366701104"><ele>373.25</ele><time>2026-03-21T14:20:22Z</time></trkpt><trkpt lat="40.746092496745916" lon="9.58925366388617"><ele>371.5</ele><time>2026-03-21T14:20:23Z</time></trkpt><trkpt lat="40.746206017882024" lon="9.58923583140963"><ele>369.75</ele><time>2026-03-21T14:20:24Z</time></trkpt><trkpt lat="40.7463208235313" lon="9.589196943793892"><ele>368.0</ele><time>2026-03-21T14:20:25Z</time></trkpt><trkpt lat="40.74643649988753" lon="9.58914769367332"><ele>368.0</ele><time>2026-03-21T14:20:26Z</time></trkpt><trkpt lat="40.74656957076293" lon="9.589094432110393"><ele>368.0</ele><time>2026-03-21T14:20:27Z</time></trkpt><trkpt lat="40.74669498398178" lon="9.589037034459336"><ele>368.0</ele><time>2026-03-21T14:20:28Z</time></trkpt><trkpt lat="40.74682070565574" lon="9.588994811145845"><ele>368.0</ele><time>2026-03-21T14:20:29Z</time></trkpt><trkpt lat="40.74695055516561" lon="9.58897110492"><ele>366.5</ele><time>2026-03-21T14:20:30Z</time></trkpt><trkpt lat="40.7470879639115" lon="9.588957646338754"><ele>365.0</ele><time>2026-03-21T14:20:31Z</time></trkpt><trkpt lat="40.74721082572654" lon="9.58894868799158"><ele>363.5</ele><time>2026-03-21T14:20:32Z</time></trkpt><trkpt lat="40.74732229457933" lon="9.588965262760881"><ele>362.0</ele><time>2026-03-21T14:20:33Z</time></trkpt><trkpt lat="40.74742819451675" lon="9.588978580390869"><ele>362.0</ele><time>2026-03-21T14:20:34Z</time></trkpt><trkpt lat="40.74753939764862" lon="9.588981086408161"><ele>362.0</ele><time>2026-03-21T14:20:35Z</time></trkpt><trkpt lat="40.7476531197393" lon="9.588993666088667"><ele>362.0</ele><time>2026-03-21T14:20:36Z</time></trkpt><trkpt lat="40.74776822310356" lon="9.589009924879319"><ele>362.0</ele><time>2026-03-21T14:20:37Z</time></trkpt><trkpt lat="40.747883114882086" lon="9.589009535800555"><ele>361.6</ele><time>2026-03-21T14:20:38Z</time></trkpt><trkpt lat="40.74798907428459" lon="9.588974221638832"><ele>361.20000000000005</ele><time>2026-03-21T14:20:39Z</time></trkpt><trkpt lat="40.74807460678716" lon="9.588912712850712"><ele>360.8</ele><time>2026-03-21T14:20:40Z</time></trkpt><trkpt lat="40.7481527991899" lon="9.588833827824365"><ele>360.4</ele><time>2026-03-21T14:20:41Z</time></trkpt><trkpt lat="40.74822773063634" lon="9.588741267224384"><ele>360.0</ele><time>2026-03-21T14:20:42Z</time></trkpt><trkpt lat="40.74829634632364" lon="9.58864101146615"><ele>360.0</ele><time>2026-03-21T14:20:43Z</time></trkpt><trkpt lat="40.74835890471224" lon="9.588552924310378"><ele>360.0</ele><time>2026-03-21T14:20:44Z</time></trkpt><trkpt lat="40.74842223902044" lon="9.588474540979051"><ele>360.0</ele><time>2026-03-21T14:20:45Z</time></trkpt><trkpt lat="40.74847449698096" lon="9.588426131788928"><ele>360.0</ele><time>2026-03-21T14:20:46Z</time></trkpt><trkpt lat="40.7485344742997" lon="9.588399285130816"><ele>360.0</ele><time>2026-03-21T14:20:47Z</time></trkpt><trkpt lat="40.74860806897492" lon="9.588374674457564"><ele>360.0</ele><time>2026-03-21T14:20:48Z</time></trkpt><trkpt lat="40.74871985361058" lon="9.588416666335142"><ele>360.0</ele><time>2026-03-21T14:20:50Z</time></trkpt><trkpt lat="40.748758527096086" lon="9.588487013167972"><ele>360.0</ele><time>2026-03-21T14:20:51Z</time></trkpt><trkpt lat="40.74879166618657" lon="9.588611753403484"><ele>360.0</ele><time>2026-03-21T14:20:52Z</time></trkpt><trkpt lat="40.7488160336436" lon="9.588761435549708"><ele>360.0</ele><time>2026-03-21T14:20:53Z</time></trkpt><trkpt lat="40.74885702775777" lon="9.588882320315333"><ele>360.0</ele><time>2026-03-21T14:20:54Z</time></trkpt><trkpt lat="40.74891258212715" lon="9.588978175084033"><ele>360.0</ele><time>2026-03-21T14:20:55Z</time></trkpt><trkpt lat="40.74896701556628" lon="9.589043167199188"><ele>360.0</ele><time>2026-03-21T14:20:56Z</time></trkpt><trkpt lat="40.749025279523835" lon="9.589099510215762"><ele>360.0</ele><time>2026-03-21T14:20:57Z</time></trkpt><trkpt lat="40.74910456210065" lon="9.589136187784607"><ele>360.0</ele><time>2026-03-21T14:20:58Z</time></trkpt><trkpt lat="40.74918440529626" lon="9.589169176737753"><ele>360.0</ele><time>2026-03-21T14:20:59Z</time></trkpt><trkpt lat="40.749267104632146" lon="9.589153572245163"><ele>360.0</ele><time>2026-03-21T14:21:00Z</time></trkpt><trkpt lat="40.749354171927834" lon="9.589162761206364"><ele>360.0</ele><time>2026-03-21T14:21:01Z</time></trkpt><trkpt lat="40.74942195914047" lon="9.589184299956898"><ele>360.0</ele><time>2026-03-21T14:21:02Z</time></trkpt><trkpt lat="40.749526669093264" lon="9.58919781940066"><ele>360.0</ele><time>2026-03-21T14:21:04Z</time></trkpt><trkpt lat="40.749489555158625" lon="9.589102990294652"><ele>360.0</ele><time>2026-03-21T14:21:09Z</time></trkpt><trkpt lat="40.74941192011929" lon="9.589035521135582"><ele>360.0</ele><time>2026-03-21T14:21:11Z</time></trkpt><trkpt lat="40.74930432656554" lon="9.588992129183314"><ele>360.0</ele><time>2026-03-21T14:21:13Z</time></trkpt><trkpt lat="40.74923125804412" lon="9.58897424397875"><ele>360.0</ele><time>2026-03-21T14:21:14Z</time></trkpt><trkpt lat="40.74912110920252" lon="9.588896848030972"><ele>360.0</ele><time>2026-03-21T14:21:16Z</time></trkpt><trkpt lat="40.749055148067534" lon="9.588769093393486"><ele>360.0</ele><time>2026-03-21T14:21:18Z</time></trkpt><trkpt lat="40.7490355330395" lon="9.58868401293924"><ele>360.0</ele><time>2026-03-21T14:21:19Z</time></trkpt><trkpt lat="40.74903727979534" lon="9.588517466221788"><ele>361.8333333333333</ele><time>2026-03-21T14:21:21Z</time></trkpt><trkpt lat="40.74901762017657" lon="9.588435057249713"><ele>363.6666666666667</ele><time>2026-03-21T14:21:22Z</time></trkpt><trkpt lat="40.74900882334245" lon="9.588340567113583"><ele>365.5</ele><time>2026-03-21T14:21:23Z</time></trkpt><trkpt lat="40.74901260751912" lon="9.588243737113457"><ele>367.33333333333337</ele><time>2026-03-21T14:21:24Z</time></trkpt><trkpt lat="40.74900483216808" lon="9.588143391218061"><ele>369.1666666666667</ele><time>2026-03-21T14:21:25Z</time></trkpt><trkpt lat="40.74898133043672" lon="9.588063910161264"><ele>371.0</ele><time>2026-03-21T14:21:26Z</time></trkpt><trkpt lat="40.74890942152448" lon="9.587948343359363"><ele>371.0</ele><time>2026-03-21T14:21:28Z</time></trkpt><trkpt lat="40.74887590498693" lon="9.587876668813076"><ele>371.0</ele><time>2026-03-21T14:21:29Z</time></trkpt><trkpt lat="40.74883676654506" lon="9.587801055282855"><ele>371.0</ele><time>2026-03-21T14:21:30Z</time></trkpt><trkpt lat="40.748794720743895" lon="9.587727638254249"><ele>371.0</ele><time>2026-03-21T14:21:31Z</time></trkpt><trkpt lat="40.748753025404966" lon="9.587659040708328"><ele>371.0</ele><time>2026-03-21T14:21:32Z</time></trkpt><trkpt lat="40.74871009394543" lon="9.587581404349455"><ele>371.0</ele><time>2026-03-21T14:21:33Z</time></trkpt><trkpt lat="40.74866407751405" lon="9.587518143706703"><ele>371.0</ele><time>2026-03-21T14:21:34Z</time></trkpt><trkpt lat="40.74859747516904" lon="9.587464806661528"><ele>370.20000000000005</ele><time>2026-03-21T14:21:35Z</time></trkpt><trkpt lat="40.748539337389744" lon="9.587405971688304"><ele>369.40000000000003</ele><time>2026-03-21T14:21:36Z</time></trkpt><trkpt lat="40.74845628768037" lon="9.58731314672873"><ele>368.6</ele><time>2026-03-21T14:21:38Z</time></trkpt><trkpt lat="40.74838671859411" lon="9.587209472873658"><ele>367.8</ele><time>2026-03-21T14:21:40Z</time></trkpt><trkpt lat="40.748315806775416" lon="9.587107187459779"><ele>367.0</ele><time>2026-03-21T14:21:42Z</time></trkpt><trkpt lat="40.74824240625353" lon="9.587030866144566"><ele>371.8</ele><time>2026-03-21T14:21:44Z</time></trkpt><trkpt lat="40.74818549355922" lon="9.586937642907783"><ele>376.6</ele><time>2026-03-21T14:21:46Z</time></trkpt><trkpt lat="40.7481024211897" lon="9.58685141164456"><ele>381.40000000000003</ele><time>2026-03-21T14:21:48Z</time></trkpt><trkpt lat="40.748037426488025" lon="9.58683508960011"><ele>386.20000000000005</ele><time>2026-03-21T14:21:49Z</time></trkpt><trkpt lat="40.747911818060246" lon="9.58680438719851"><ele>391.0</ele><time>2026-03-21T14:21:51Z</time></trkpt><trkpt lat="40.74785534984112" lon="9.586763559004384"><ele>391.0</ele><time>2026-03-21T14:21:52Z</time></trkpt><trkpt lat="40.747762698027884" lon="9.5866723618657"><ele>391.0</ele><time>2026-03-21T14:21:54Z</time></trkpt><trkpt lat="40.747712628519864" lon="9.586583745199576"><ele>391.0</ele><time>2026-03-21T14:21:55Z</time></trkpt><trkpt lat="40.747657249902296" lon="9.586512066762264"><ele>391.0</ele><time>2026-03-21T14:21:56Z</time></trkpt><trkpt lat="40.747606746947255" lon="9.586405853349998"><ele>391.0</ele><time>2026-03-21T14:21:57Z</time></trkpt><trkpt lat="40.747556903098626" lon="9.586318634597054"><ele>391.71428571428567</ele><time>2026-03-21T14:21:58Z</time></trkpt><trkpt lat="40.74751010697835" lon="9.58623304892232"><ele>392.42857142857144</ele><time>2026-03-21T14:21:59Z</time></trkpt><trkpt lat="40.74746865426066" lon="9.586143687590583"><ele>393.1428571428571</ele><time>2026-03-21T14:22:00Z</time></trkpt><trkpt lat="40.7474491424801" lon="9.586053248033979"><ele>393.85714285714283</ele><time>2026-03-21T14:22:01Z</time></trkpt><trkpt lat="40.74741896714622" lon="9.585964148459981"><ele>394.57142857142856</ele><time>2026-03-21T14:22:03Z</time></trkpt><trkpt lat="40.747376569045976" lon="9.585885569574904"><ele>395.2857142857143</ele><time>2026-03-21T14:22:37Z</time></trkpt><trkpt lat="40.74733463282553" lon="9.585817512837977"><ele>396.0</ele><time>2026-03-21T14:22:38Z</time></trkpt><trkpt lat="40.74728987655729" lon="9.585736066362367"><ele>396.0</ele><time>2026-03-21T14:22:39Z</time></trkpt><trkpt lat="40.747223417439606" lon="9.58565124063094"><ele>396.0</ele><time>2026-03-21T14:22:40Z</time></trkpt><trkpt lat="40.74716266913102" lon="9.58558368510412"><ele>396.0</ele><time>2026-03-21T14:22:41Z</time></trkpt><trkpt lat="40.74711163092043" lon="9.585498304544984"><ele>396.0</ele><time>2026-03-21T14:22:42Z</time></trkpt><trkpt lat="40.747089063762544" lon="9.585416112866444"><ele>396.0</ele><time>2026-03-21T14:22:43Z</time></trkpt><trkpt lat="40.74708817929749" lon="9.585324315567213"><ele>396.0</ele><time>2026-03-21T14:22:44Z</time></trkpt><trkpt lat="40.747049037672106" lon="9.585220371405223"><ele>397.0</ele><time>2026-03-21T14:22:45Z</time></trkpt><trkpt lat="40.747002565935716" lon="9.585083112714873"><ele>398.0</ele><time>2026-03-21T14:22:46Z</time></trkpt><trkpt lat="40.74697182586328" lon="9.584948141106139"><ele>399.0</ele><time>2026-03-21T14:22:47Z</time></trkpt><trkpt lat="40.74693008781665" lon="9.584836032907871"><ele>400.0</ele><time>2026-03-21T14:22:48Z</time></trkpt><trkpt lat="40.74688575671976" lon="9.584731132748193"><ele>401.0</ele><time>2026-03-21T14:22:49Z</time></trkpt><trkpt lat="40.74687138808162" lon="9.584628032379893"><ele>400.99999999999994</ele><time>2026-03-21T14:22:50Z</time></trkpt><trkpt lat="40.74688062917454" lon="9.58453787197793"><ele>401.0</ele><time>2026-03-21T14:22:51Z</time></trkpt><trkpt lat="40.74690959095884" lon="9.584450641358252"><ele>401.0</ele><time>2026-03-21T14:22:52Z</time></trkpt><trkpt lat="40.74692301970343" lon="9.584365733658222"><ele>401.0</ele><time>2026-03-21T14:22:53Z</time></trkpt><trkpt lat="40.74691934996567" lon="9.584224150185907"><ele>400.99999999999994</ele><time>2026-03-21T14:22:55Z</time></trkpt><trkpt lat="40.74699231552663" lon="9.58412354969807"><ele>401.0</ele><time>2026-03-21T14:22:57Z</time></trkpt><trkpt lat="40.74704652895094" lon="9.58405467368979"><ele>399.3333333333333</ele><time>2026-03-21T14:22:58Z</time></trkpt><trkpt lat="40.747077351502625" lon="9.583973793344693"><ele>397.66666666666663</ele><time>2026-03-21T14:22:59Z</time></trkpt><trkpt lat="40.74709058982234" lon="9.583882826490367"><ele>396.0</ele><time>2026-03-21T14:23:00Z</time></trkpt><trkpt lat="40.74709025773822" lon="9.583764969641178"><ele>394.33333333333337</ele><time>2026-03-21T14:23:01Z</time></trkpt><trkpt lat="40.74708645297299" lon="9.58363148951258"><ele>392.6666666666667</ele><time>2026-03-21T14:23:02Z</time></trkpt><trkpt lat="40.74707616848361" lon="9.58350012820676"><ele>391.0</ele><time>2026-03-21T14:23:03Z</time></trkpt><trkpt lat="40.74706567472809" lon="9.583389655363709"><ele>390.83333333333337</ele><time>2026-03-21T14:23:04Z</time></trkpt><trkpt lat="40.74707727799388" lon="9.583288791240147"><ele>390.6666666666667</ele><time>2026-03-21T14:23:05Z</time></trkpt><trkpt lat="40.74711492864307" lon="9.583205850706074"><ele>390.5</ele><time>2026-03-21T14:23:06Z</time></trkpt><trkpt lat="40.747157290166506" lon="9.58311850423546"><ele>390.33333333333337</ele><time>2026-03-21T14:23:07Z</time></trkpt><trkpt lat="40.74717560205614" lon="9.583023233431671"><ele>390.1666666666667</ele><time>2026-03-21T14:23:08Z</time></trkpt><trkpt lat="40.74717984097288" lon="9.582925693710449"><ele>390.0</ele><time>2026-03-21T14:23:09Z</time></trkpt><trkpt lat="40.74718806858087" lon="9.582826053674316"><ele>390.0</ele><time>2026-03-21T14:23:10Z</time></trkpt><trkpt lat="40.74717481835335" lon="9.582734866558603"><ele>390.0</ele><time>2026-03-21T14:23:11Z</time></trkpt><trkpt lat="40.7471551531053" lon="9.582639992150453"><ele>390.0</ele><time>2026-03-21T14:23:12Z</time></trkpt><trkpt lat="40.747153091436815" lon="9.582537097568075"><ele>390.0</ele><time>2026-03-21T14:23:13Z</time></trkpt><trkpt lat="40.74715164210746" lon="9.582448018632743"><ele>390.0</ele><time>2026-03-21T14:23:14Z</time></trkpt><trkpt lat="40.747133282613156" lon="9.58236172098496"><ele>390.0</ele><time>2026-03-21T14:23:16Z</time></trkpt><trkpt lat="40.747092343378284" lon="9.582289987998372"><ele>390.0</ele><time>2026-03-21T14:23:18Z</time></trkpt><trkpt lat="40.74710126837879" lon="9.582207021009138"><ele>390.0</ele><time>2026-03-21T14:23:20Z</time></trkpt><trkpt lat="40.74708230407885" lon="9.582079807568848"><ele>390.0</ele><time>2026-03-21T14:23:23Z</time></trkpt><trkpt lat="40.74703706686222" lon="9.58188405424151"><ele>390.0</ele><time>2026-03-21T14:23:26Z</time></trkpt><trkpt lat="40.746946553785065" lon="9.581842170918366"><ele>390.0</ele><time>2026-03-21T14:23:28Z</time></trkpt><trkpt lat="40.74690018268271" lon="9.581730228946848"><ele>390.0</ele><time>2026-03-21T14:23:30Z</time></trkpt><trkpt lat="40.74691204371769" lon="9.58164370086233"><ele>389.8333333333333</ele><time>2026-03-21T14:23:31Z</time></trkpt><trkpt lat="40.746943693502125" lon="9.581571050823667"><ele>389.66666666666663</ele><time>2026-03-21T14:23:32Z</time></trkpt><trkpt lat="40.74697039703701" lon="9.581471959424904"><ele>389.5</ele><time>2026-03-21T14:23:33Z</time></trkpt><trkpt lat="40.747008708881445" lon="9.58137015393984"><ele>389.3333333333333</ele><time>2026-03-21T14:23:34Z</time></trkpt><trkpt lat="40.74703804730077" lon="9.581275551761607"><ele>389.16666666666663</ele><time>2026-03-21T14:23:35Z</time></trkpt><trkpt lat="40.74706633223574" lon="9.581182128465425"><ele>389.0</ele><time>2026-03-21T14:23:36Z</time></trkpt><trkpt lat="40.74708774308928" lon="9.581085943781277"><ele>389.3333333333333</ele><time>2026-03-21T14:23:37Z</time></trkpt><trkpt lat="40.74705892544612" lon="9.580989618718696"><ele>389.66666666666663</ele><time>2026-03-21T14:23:38Z</time></trkpt><trkpt lat="40.74708107583476" lon="9.580888336012691"><ele>390.0</ele><time>2026-03-21T14:23:39Z</time></trkpt><trkpt lat="40.74709605082017" lon="9.580789306310601"><ele>390.33333333333337</ele><time>2026-03-21T14:23:40Z</time></trkpt><trkpt lat="40.74711041240751" lon="9.580694277242792"><ele>390.6666666666667</ele><time>2026-03-21T14:23:41Z</time></trkpt><trkpt lat="40.747120654550514" lon="9.58061225275438"><ele>391.0</ele><time>2026-03-21T14:23:42Z</time></trkpt><trkpt lat="40.74714684906951" lon="9.580447772932661"><ele>391.00000000000006</ele><time>2026-03-21T14:23:44Z</time></trkpt><trkpt lat="40.74715368411716" lon="9.580355015624132"><ele>391.0</ele><time>2026-03-21T14:23:45Z</time></trkpt><trkpt lat="40.74710150832552" lon="9.580251709748733"><ele>391.0</ele><time>2026-03-21T14:23:46Z</time></trkpt><trkpt lat="40.747070904638484" lon="9.580090155420036"><ele>391.0</ele><time>2026-03-21T14:23:48Z</time></trkpt><trkpt lat="40.74707342459929" lon="9.57999189470658"><ele>391.00000000000006</ele><time>2026-03-21T14:23:49Z</time></trkpt><trkpt lat="40.747068940262075" lon="9.579899595548655"><ele>391.0</ele><time>2026-03-21T14:23:50Z</time></trkpt><trkpt lat="40.74706866419121" lon="9.579747143846607"><ele>392.4</ele><time>2026-03-21T14:23:52Z</time></trkpt><trkpt lat="40.74706171367449" lon="9.579591965571401"><ele>393.8</ele><time>2026-03-21T14:23:54Z</time></trkpt><trkpt lat="40.747006126733716" lon="9.579448497927515"><ele>395.2</ele><time>2026-03-21T14:23:56Z</time></trkpt><trkpt lat="40.74696991891862" lon="9.579379153841181"><ele>396.59999999999997</ele><time>2026-03-21T14:23:57Z</time></trkpt><trkpt lat="40.74693411813406" lon="9.57923660951859"><ele>398.0</ele><time>2026-03-21T14:23:59Z</time></trkpt><trkpt lat="40.74687273488061" lon="9.579148683680884"><ele>398.8333333333333</ele><time>2026-03-21T14:24:01Z</time></trkpt><trkpt lat="40.746811599975956" lon="9.579113888978148"><ele>399.66666666666663</ele><time>2026-03-21T14:24:02Z</time></trkpt><trkpt lat="40.7467398984701" lon="9.579090827465873"><ele>400.5</ele><time>2026-03-21T14:24:03Z</time></trkpt><trkpt lat="40.74666356776695" lon="9.57905747304536"><ele>401.33333333333337</ele><time>2026-03-21T14:24:04Z</time></trkpt><trkpt lat="40.74657375382433" lon="9.579020288549577"><ele>402.1666666666667</ele><time>2026-03-21T14:24:05Z</time></trkpt><trkpt lat="40.746514451481204" lon="9.578975236958426"><ele>403.0</ele><time>2026-03-21T14:24:06Z</time></trkpt><trkpt lat="40.74643644580106" lon="9.578829121687901"><ele>403.00000000000006</ele><time>2026-03-21T14:24:08Z</time></trkpt><trkpt lat="40.74638416702699" lon="9.578763570169311"><ele>403.0</ele><time>2026-03-21T14:24:09Z</time></trkpt><trkpt lat="40.74632308614733" lon="9.578739972901882"><ele>403.0</ele><time>2026-03-21T14:24:10Z</time></trkpt><trkpt lat="40.74625733166029" lon="9.578743140275872"><ele>403.0</ele><time>2026-03-21T14:24:11Z</time></trkpt><trkpt lat="40.74618443050781" lon="9.578742867614682"><ele>403.00000000000006</ele><time>2026-03-21T14:24:12.001Z</time></trkpt><trkpt lat="40.74610153684527" lon="9.57871751841565"><ele>403.0</ele><time>2026-03-21T14:24:13.001Z</time></trkpt><trkpt lat="40.746013392451445" lon="9.57868020413054"><ele>404.83333333333337</ele><time>2026-03-21T14:24:14.001Z</time></trkpt><trkpt lat="40.745926598161674" lon="9.578651753272718"><ele>406.6666666666667</ele><time>2026-03-21T14:24:15.001Z</time></trkpt><trkpt lat="40.745843468099075" lon="9.57862835803842"><ele>408.5</ele><time>2026-03-21T14:24:16.001Z</time></trkpt><trkpt lat="40.745780077875466" lon="9.578596762866653"><ele>410.33333333333337</ele><time>2026-03-21T14:24:17.001Z</time></trkpt><trkpt lat="40.745723683109624" lon="9.578558309275204"><ele>412.1666666666667</ele><time>2026-03-21T14:24:18.001Z</time></trkpt><trkpt lat="40.745662884399245" lon="9.57850948554735"><ele>414.0</ele><time>2026-03-21T14:24:19.001Z</time></trkpt><trkpt lat="40.74559593290138" lon="9.578452374349586"><ele>414.0</ele><time>2026-03-21T14:24:20.001Z</time></trkpt><trkpt lat="40.745524634003054" lon="9.578390609358607"><ele>414.0</ele><time>2026-03-21T14:24:21.001Z</time></trkpt><trkpt lat="40.74546059973401" lon="9.57833231965525"><ele>414.0</ele><time>2026-03-21T14:24:22.001Z</time></trkpt><trkpt lat="40.74540894884452" lon="9.578273432982687"><ele>414.0</ele><time>2026-03-21T14:24:23.001Z</time></trkpt><trkpt lat="40.74538691049082" lon="9.578168991142663"><ele>414.0</ele><time>2026-03-21T14:24:25.001Z</time></trkpt><trkpt lat="40.74536698814347" lon="9.578020731268495"><ele>414.0</ele><time>2026-03-21T14:24:27.001Z</time></trkpt><trkpt lat="40.74533822716124" lon="9.577896871331426"><ele>415.25</ele><time>2026-03-21T14:24:29Z</time></trkpt><trkpt lat="40.745292267293394" lon="9.577750040380465"><ele>416.5</ele><time>2026-03-21T14:24:31Z</time></trkpt><trkpt lat="40.74523905465838" lon="9.577613049508109"><ele>417.75</ele><time>2026-03-21T14:24:33Z</time></trkpt><trkpt lat="40.74523099359034" lon="9.577461341731452"><ele>419.0</ele><time>2026-03-21T14:24:35Z</time></trkpt><trkpt lat="40.74518734060317" lon="9.57732452255916"><ele>419.0</ele><time>2026-03-21T14:24:37Z</time></trkpt><trkpt lat="40.74510094603593" lon="9.577192811362663"><ele>419.0</ele><time>2026-03-21T14:24:39Z</time></trkpt><trkpt lat="40.745070274518525" lon="9.577065332118138"><ele>419.0</ele><time>2026-03-21T14:24:41Z</time></trkpt><trkpt lat="40.745029512830314" lon="9.576964978492251"><ele>419.0</ele><time>2026-03-21T14:24:43Z</time></trkpt><trkpt lat="40.74500416845731" lon="9.576868097476963"><ele>419.0</ele><time>2026-03-21T14:24:45Z</time></trkpt><trkpt lat="40.74501253884665" lon="9.57671892943168"><ele>419.99999999999994</ele><time>2026-03-21T14:24:47Z</time></trkpt><trkpt lat="40.74498459210752" lon="9.57659027009293"><ele>421.0</ele><time>2026-03-21T14:24:49Z</time></trkpt><trkpt lat="40.744961565476004" lon="9.57650103533039"><ele>422.0</ele><time>2026-03-21T14:24:50Z</time></trkpt><trkpt lat="40.744924758753214" lon="9.576401248015578"><ele>423.0</ele><time>2026-03-21T14:24:51Z</time></trkpt><trkpt lat="40.74488017223491" lon="9.57629471002423"><ele>423.99999999999994</ele><time>2026-03-21T14:24:52Z</time></trkpt><trkpt lat="40.74484213561804" lon="9.576185814589866"><ele>425.0</ele><time>2026-03-21T14:24:53Z</time></trkpt><trkpt lat="40.744806353861286" lon="9.5760802420644"><ele>426.99999999999994</ele><time>2026-03-21T14:24:54Z</time></trkpt><trkpt lat="40.74476454791273" lon="9.575986792472651"><ele>429.0</ele><time>2026-03-21T14:24:55Z</time></trkpt><trkpt lat="40.74472189507199" lon="9.575887005098394"><ele>431.0</ele><time>2026-03-21T14:24:56Z</time></trkpt><trkpt lat="40.74468293851513" lon="9.575777075229155"><ele>433.0</ele><time>2026-03-21T14:24:57Z</time></trkpt><trkpt lat="40.74464060614341" lon="9.575677285578168"><ele>434.99999999999994</ele><time>2026-03-21T14:24:58Z</time></trkpt><trkpt lat="40.74461459804952" lon="9.575600760300508"><ele>437.0</ele><time>2026-03-21T14:24:59Z</time></trkpt><trkpt lat="40.74462126533675" lon="9.575508566385775"><ele>436.99999999999994</ele><time>2026-03-21T14:25:00Z</time></trkpt><trkpt lat="40.74464445371608" lon="9.575372568439104"><ele>437.0</ele><time>2026-03-21T14:25:02Z</time></trkpt><trkpt lat="40.744578090646066" lon="9.575282661080115"><ele>437.0</ele><time>2026-03-21T14:25:04Z</time></trkpt><trkpt lat="40.74454574970275" lon="9.575210220189618"><ele>437.0</ele><time>2026-03-21T14:25:05Z</time></trkpt><trkpt lat="40.74446536805522" lon="9.575147206914206"><ele>436.99999999999994</ele><time>2026-03-21T14:25:07Z</time></trkpt><trkpt lat="40.74441648619413" lon="9.575076977875876"><ele>437.0</ele><time>2026-03-21T14:25:09Z</time></trkpt><trkpt lat="40.744384424767055" lon="9.574985101320118"><ele>437.16666666666663</ele><time>2026-03-21T14:25:12Z</time></trkpt><trkpt lat="40.74433294219912" lon="9.57490653756725"><ele>437.3333333333333</ele><time>2026-03-21T14:25:14Z</time></trkpt><trkpt lat="40.74426553367745" lon="9.574837316324507"><ele>437.5</ele><time>2026-03-21T14:25:16Z</time></trkpt><trkpt lat="40.744219339422884" lon="9.574731681587338"><ele>437.66666666666663</ele><time>2026-03-21T14:25:18Z</time></trkpt><trkpt lat="40.74415768903137" lon="9.57466904783374"><ele>437.8333333333333</ele><time>2026-03-21T14:25:20Z</time></trkpt><trkpt lat="40.744108763616254" lon="9.574589183969907"><ele>438.0</ele><time>2026-03-21T14:25:22Z</time></trkpt><trkpt lat="40.74412324757063" lon="9.574499998151115"><ele>440.0</ele><time>2026-03-21T14:25:24Z</time></trkpt><trkpt lat="40.74417144526413" lon="9.574439105845883"><ele>442.0</ele><time>2026-03-21T14:25:27Z</time></trkpt><trkpt lat="40.74425056172396" lon="9.574411163114021"><ele>444.0</ele><time>2026-03-21T14:25:29Z</time></trkpt><trkpt lat="40.744217068347616" lon="9.574327164721765"><ele>446.0</ele><time>2026-03-21T14:25:31Z</time></trkpt><trkpt lat="40.74418304533242" lon="9.574245102387767"><ele>448.0</ele><time>2026-03-21T14:25:33Z</time></trkpt><trkpt lat="40.744118988441386" lon="9.574158492817196"><ele>450.0</ele><time>2026-03-21T14:25:36Z</time></trkpt><trkpt lat="40.74410928632875" lon="9.57402271788876"><ele>450.0</ele><time>2026-03-21T14:25:38Z</time></trkpt><trkpt lat="40.744060253591904" lon="9.573898175840649"><ele>450.0</ele><time>2026-03-21T14:25:40Z</time></trkpt><trkpt lat="40.744035527492706" lon="9.573820373302194"><ele>450.0</ele><time>2026-03-21T14:25:42Z</time></trkpt><trkpt lat="40.74405936935947" lon="9.573722042174978"><ele>450.0</ele><time>2026-03-21T14:25:45Z</time></trkpt><trkpt lat="40.7440762504492" lon="9.573610825488684"><ele>450.0</ele><time>2026-03-21T14:25:53Z</time></trkpt><trkpt lat="40.74409301451862" lon="9.573528870757434"><ele>450.0</ele><time>2026-03-21T14:28:36.001Z</time></trkpt><trkpt lat="40.7440817842143" lon="9.573445342818209"><ele>452.1666666666667</ele><time>2026-03-21T14:28:39.001Z</time></trkpt><trkpt lat="40.74407888774722" lon="9.573345730770674"><ele>454.33333333333337</ele><time>2026-03-21T14:29:01Z</time></trkpt><trkpt lat="40.744062171388464" lon="9.573220122563198"><ele>456.5</ele><time>2026-03-21T14:29:04Z</time></trkpt><trkpt lat="40.74404421145687" lon="9.573125369319374"><ele>458.6666666666667</ele><time>2026-03-21T14:29:06Z</time></trkpt><trkpt lat="40.74403242542815" lon="9.573043683083467"><ele>460.83333333333337</ele><time>2026-03-21T14:29:08Z</time></trkpt><trkpt lat="40.74403943452053" lon="9.572955160352919"><ele>463.0</ele><time>2026-03-21T14:29:10Z</time></trkpt><trkpt lat="40.74407353214337" lon="9.572862266647931"><ele>464.1666666666667</ele><time>2026-03-21T14:29:13Z</time></trkpt><trkpt lat="40.744145654367706" lon="9.572795655964322"><ele>465.33333333333337</ele><time>2026-03-21T14:29:16Z</time></trkpt><trkpt lat="40.74419559704495" lon="9.572742152955758"><ele>466.5</ele><time>2026-03-21T14:29:18Z</time></trkpt><trkpt lat="40.744246161559175" lon="9.572675945818066"><ele>467.66666666666663</ele><time>2026-03-21T14:29:21Z</time></trkpt><trkpt lat="40.74426365864055" lon="9.572575420141698"><ele>468.8333333333333</ele><time>2026-03-21T14:29:24Z</time></trkpt><trkpt lat="40.74427204215812" lon="9.572475606904552"><ele>470.0</ele><time>2026-03-21T14:29:26Z</time></trkpt><trkpt lat="40.74428246561853" lon="9.57236251876634"><ele>469.99999999999994</ele><time>2026-03-21T14:29:28Z</time></trkpt><trkpt lat="40.74424763462387" lon="9.572285047808608"><ele>470.0</ele><time>2026-03-21T14:29:30Z</time></trkpt><trkpt lat="40.74418856601992" lon="9.572181411886902"><ele>470.0</ele><time>2026-03-21T14:29:32Z</time></trkpt><trkpt lat="40.74413398926203" lon="9.572103117542472"><ele>470.0</ele><time>2026-03-21T14:29:35Z</time></trkpt><trkpt lat="40.74408561852201" lon="9.57200278609483"><ele>469.99999999999994</ele><time>2026-03-21T14:29:39Z</time></trkpt><trkpt lat="40.74403620944569" lon="9.571920637563183"><ele>470.0</ele><time>2026-03-21T14:29:42Z</time></trkpt><trkpt lat="40.74396541703743" lon="9.571845816296287"><ele>471.3333333333333</ele><time>2026-03-21T14:29:45Z</time></trkpt><trkpt lat="40.74390893894898" lon="9.571788372103946"><ele>472.66666666666663</ele><time>2026-03-21T14:29:52Z</time></trkpt><trkpt lat="40.74386828744499" lon="9.571688418363495"><ele>474.0</ele><time>2026-03-21T14:30:16Z</time></trkpt><trkpt lat="40.74383123397848" lon="9.571596619584206"><ele>475.33333333333337</ele><time>2026-03-21T14:30:33.001Z</time></trkpt><trkpt lat="40.74380206191764" lon="9.571474422612107"><ele>476.6666666666667</ele><time>2026-03-21T14:32:37Z</time></trkpt><trkpt lat="40.743787841771635" lon="9.57138891123901"><ele>478.0</ele><time>2026-03-21T14:32:39.001Z</time></trkpt><trkpt lat="40.74375156206145" lon="9.571282030881134"><ele>478.00000000000006</ele><time>2026-03-21T14:32:43.001Z</time></trkpt><trkpt lat="40.7436968332511" lon="9.571206533042295"><ele>478.0</ele><time>2026-03-21T14:32:47.001Z</time></trkpt><trkpt lat="40.74372383721558" lon="9.571115292922647"><ele>478.0</ele><time>2026-03-21T14:32:50.001Z</time></trkpt><trkpt lat="40.74369110652727" lon="9.571018169565434"><ele>478.0</ele><time>2026-03-21T14:32:53Z</time></trkpt><trkpt lat="40.74365065070898" lon="9.570932554802145"><ele>478.00000000000006</ele><time>2026-03-21T14:32:57Z</time></trkpt><trkpt lat="40.74363794945708" lon="9.570824163835177"><ele>478.0</ele><time>2026-03-21T14:33:03Z</time></trkpt><trkpt lat="40.743637113614234" lon="9.570671422316424"><ele>480.00000000000006</ele><time>2026-03-21T14:33:07Z</time></trkpt><trkpt lat="40.7436597408641" lon="9.570552896975071"><ele>482.0</ele><time>2026-03-21T14:33:10Z</time></trkpt><trkpt lat="40.74365012909618" lon="9.570469761478387"><ele>484.0</ele><time>2026-03-21T14:33:12Z</time></trkpt><trkpt lat="40.7436610134693" lon="9.570384510920858"><ele>486.0</ele><time>2026-03-21T14:33:15Z</time></trkpt><trkpt lat="40.74368800759132" lon="9.57030406631504"><ele>488.00000000000006</ele><time>2026-03-21T14:33:21Z</time></trkpt><trkpt lat="40.743746690988104" lon="9.570158657300482"><ele>490.0</ele><time>2026-03-21T14:34:27Z</time></trkpt><trkpt lat="40.74373439158178" lon="9.57006430715868"><ele>492.57142857142856</ele><time>2026-03-21T14:34:33Z</time></trkpt><trkpt lat="40.74371458081917" lon="9.569979493671873"><ele>495.1428571428571</ele><time>2026-03-21T14:34:38Z</time></trkpt><trkpt lat="40.74371943374755" lon="9.569889291063827"><ele>497.7142857142857</ele><time>2026-03-21T14:34:41Z</time></trkpt><trkpt lat="40.74371113604569" lon="9.569802719027415"><ele>500.2857142857143</ele><time>2026-03-21T14:34:45Z</time></trkpt><trkpt lat="40.743718084294265" lon="9.569689463068052"><ele>502.85714285714283</ele><time>2026-03-21T14:35:01Z</time></trkpt><trkpt lat="40.74370119248778" lon="9.569596798185543"><ele>505.42857142857144</ele><time>2026-03-21T14:35:09Z</time></trkpt><trkpt lat="40.74371159909709" lon="9.569509131476275"><ele>508.0</ele><time>2026-03-21T14:35:12Z</time></trkpt><trkpt lat="40.743720553347515" lon="9.569423669847808"><ele>509.8571428571429</ele><time>2026-03-21T14:35:16Z</time></trkpt><trkpt lat="40.743715909932014" lon="9.569315344869315"><ele>511.71428571428567</ele><time>2026-03-21T14:35:19Z</time></trkpt><trkpt lat="40.74372024103245" lon="9.569224601794113"><ele>513.5714285714286</ele><time>2026-03-21T14:35:22Z</time></trkpt><trkpt lat="40.74376027855017" lon="9.569159484733689"><ele>515.4285714285714</ele><time>2026-03-21T14:37:45Z</time></trkpt><trkpt lat="40.74379832741422" lon="9.569091112765824"><ele>517.2857142857143</ele><time>2026-03-21T14:44:14Z</time></trkpt><trkpt lat="40.74381041321981" lon="9.569003134011854"><ele>519.1428571428571</ele><time>2026-03-21T14:44:17Z</time></trkpt><trkpt lat="40.74378535032698" lon="9.568892706042236"><ele>521.0</ele><time>2026-03-21T14:44:20Z</time></trkpt><trkpt lat="40.74377951904172" lon="9.568774869171325"><ele>523.1428571428571</ele><time>2026-03-21T14:44:22Z</time></trkpt><trkpt lat="40.74377192203276" lon="9.568690099602161"><ele>525.2857142857143</ele><time>2026-03-21T14:44:25Z</time></trkpt><trkpt lat="40.743759077384276" lon="9.568605776384542"><ele>527.4285714285714</ele><time>2026-03-21T14:44:29Z</time></trkpt><trkpt lat="40.74375307964938" lon="9.56849259638562"><ele>529.5714285714286</ele><time>2026-03-21T14:44:31Z</time></trkpt><trkpt lat="40.743761589654405" lon="9.56836624271146"><ele>531.7142857142857</ele><time>2026-03-21T14:44:35Z</time></trkpt><trkpt lat="40.74378766980957" lon="9.568275461972789"><ele>533.8571428571429</ele><time>2026-03-21T14:44:37Z</time></trkpt><trkpt lat="40.74382002852783" lon="9.568204105115544"><ele>536.0</ele><time>2026-03-21T14:44:40Z</time></trkpt><trkpt lat="40.74384098116987" lon="9.568121098693583"><ele>536.0</ele><time>2026-03-21T14:44:43Z</time></trkpt><trkpt lat="40.74385556790078" lon="9.568011944142313"><ele>536.0</ele><time>2026-03-21T14:44:46Z</time></trkpt><trkpt lat="40.743852910983406" lon="9.567906782181995"><ele>536.0</ele><time>2026-03-21T14:44:49Z</time></trkpt><trkpt lat="40.743860225023404" lon="9.567804460667325"><ele>536.0</ele><time>2026-03-21T14:44:52Z</time></trkpt><trkpt lat="40.74382678869226" lon="9.567706354152081"><ele>536.0</ele><time>2026-03-21T14:45:05Z</time></trkpt><trkpt lat="40.74378426033948" lon="9.567613272552524"><ele>536.0</ele><time>2026-03-21T14:45:08Z</time></trkpt><trkpt lat="40.74377875266593" lon="9.567498177122772"><ele>538.8333333333333</ele><time>2026-03-21T14:45:11Z</time></trkpt><trkpt lat="40.74374376045601" lon="9.567400794078228"><ele>541.6666666666666</ele><time>2026-03-21T14:45:14Z</time></trkpt><trkpt lat="40.7437494666361" lon="9.567302367966231"><ele>544.5</ele><time>2026-03-21T14:45:17.001Z</time></trkpt><trkpt lat="40.74370448658647" lon="9.567199563417294"><ele>547.3333333333334</ele><time>2026-03-21T14:45:21.001Z</time></trkpt><trkpt lat="40.74366000005157" lon="9.567113471061996"><ele>550.1666666666667</ele><time>2026-03-21T14:45:24.001Z</time></trkpt><trkpt lat="40.74365459901768" lon="9.567011712587794"><ele>553.0</ele><time>2026-03-21T14:45:27Z</time></trkpt><trkpt lat="40.7436134167291" lon="9.566906984742676"><ele>553.3333333333334</ele><time>2026-03-21T14:45:30Z</time></trkpt><trkpt lat="40.743558501384754" lon="9.566830415386127"><ele>553.6666666666667</ele><time>2026-03-21T14:45:32Z</time></trkpt><trkpt lat="40.743522448731774" lon="9.566750032174971"><ele>554.0</ele><time>2026-03-21T14:45:35Z</time></trkpt><trkpt lat="40.743442777676535" lon="9.566709437242741"><ele>554.3333333333334</ele><time>2026-03-21T14:45:39Z</time></trkpt><trkpt lat="40.74338738683857" lon="9.56665950930174"><ele>554.6666666666666</ele><time>2026-03-21T14:45:41Z</time></trkpt><trkpt lat="40.74331667644833" lon="9.566664661021822"><ele>555.0</ele><time>2026-03-21T14:45:44Z</time></trkpt><trkpt lat="40.743332731898604" lon="9.566560812960631"><ele>555.0</ele><time>2026-03-21T14:45:48Z</time></trkpt><trkpt lat="40.7433861268605" lon="9.56649050457555"><ele>555.0</ele><time>2026-03-21T14:45:52Z</time></trkpt><trkpt lat="40.74338761720277" lon="9.56638240949553"><ele>555.0</ele><time>2026-03-21T14:45:56Z</time></trkpt><trkpt lat="40.74343461592811" lon="9.566289085584351"><ele>555.0</ele><time>2026-03-21T14:46:00Z</time></trkpt><trkpt lat="40.74344358569924" lon="9.566176403794758"><ele>555.0</ele><time>2026-03-21T14:46:03Z</time></trkpt><trkpt lat="40.74340837816402" lon="9.56604432086332"><ele>555.0</ele><time>2026-03-21T14:46:05Z</time></trkpt><trkpt lat="40.74347822907942" lon="9.566026166229593"><ele>556.5714285714287</ele><time>2026-03-21T14:46:09Z</time></trkpt><trkpt lat="40.74347401645169" lon="9.565888807508383"><ele>558.1428571428571</ele><time>2026-03-21T14:47:15Z</time></trkpt><trkpt lat="40.74345341964319" lon="9.565809861885135"><ele>559.7142857142858</ele><time>2026-03-21T14:47:17Z</time></trkpt><trkpt lat="40.7434244505956" lon="9.565735279309067"><ele>561.2857142857143</ele><time>2026-03-21T14:47:21Z</time></trkpt><trkpt lat="40.74338630687912" lon="9.565668805243943"><ele>562.8571428571429</ele><time>2026-03-21T14:47:25Z</time></trkpt><trkpt lat="40.74334735627579" lon="9.565587484250484"><ele>564.4285714285714</ele><time>2026-03-21T14:47:32.001Z</time></trkpt><trkpt lat="40.743328237864645" lon="9.56550577620398"><ele>566.0</ele><time>2026-03-21T14:47:37Z</time></trkpt><trkpt lat="40.743313856748095" lon="9.56542093995699"><ele>565.5714285714286</ele><time>2026-03-21T14:47:43Z</time></trkpt><trkpt lat="40.74328116696271" lon="9.565347557208938"><ele>565.1428571428572</ele><time>2026-03-21T14:47:50Z</time></trkpt><trkpt lat="40.74326980378863" lon="9.565257456584856"><ele>564.7142857142858</ele><time>2026-03-21T14:47:55Z</time></trkpt><trkpt lat="40.74322041245561" lon="9.565177120044567"><ele>564.2857142857143</ele><time>2026-03-21T14:48:02Z</time></trkpt><trkpt lat="40.743203919621436" lon="9.56509047185597"><ele>563.8571428571429</ele><time>2026-03-21T14:48:07Z</time></trkpt><trkpt lat="40.74318355087163" lon="9.565008913636515"><ele>563.4285714285714</ele><time>2026-03-21T14:48:12Z</time></trkpt><trkpt lat="40.74314394727492" lon="9.564922197182984"><ele>563.0</ele><time>2026-03-21T14:48:46Z</time></trkpt><trkpt lat="40.74314882433247" lon="9.564826658414093"><ele>563.0</ele><time>2026-03-21T14:48:49Z</time></trkpt><trkpt lat="40.74315865908617" lon="9.56471341334413"><ele>563.0</ele><time>2026-03-21T14:48:52Z</time></trkpt><trkpt lat="40.74315100790641" lon="9.564628912496932"><ele>563.0</ele><time>2026-03-21T14:48:54Z</time></trkpt><trkpt lat="40.743134163836174" lon="9.564545304858285"><ele>563.0</ele><time>2026-03-21T14:48:56Z</time></trkpt><trkpt lat="40.743124051439686" lon="9.564417358747821"><ele>563.0</ele><time>2026-03-21T14:48:59Z</time></trkpt><trkpt lat="40.74310968244309" lon="9.564308168559574"><ele>563.0</ele><time>2026-03-21T14:49:03Z</time></trkpt><trkpt lat="40.74308267205357" lon="9.56420056910785"><ele>561.0</ele><time>2026-03-21T14:49:05Z</time></trkpt><trkpt lat="40.743021930072615" lon="9.564153933667873"><ele>559.0</ele><time>2026-03-21T14:49:08Z</time></trkpt><trkpt lat="40.74300488201416" lon="9.56407076388041"><ele>557.0</ele><time>2026-03-21T14:49:12Z</time></trkpt><trkpt lat="40.74299377176524" lon="9.563978605631831"><ele>555.0</ele><time>2026-03-21T14:49:16Z</time></trkpt><trkpt lat="40.74295835106555" lon="9.563889551827737"><ele>553.0</ele><time>2026-03-21T14:49:19Z</time></trkpt><trkpt lat="40.74293948040967" lon="9.563683407129192"><ele>551.0</ele><time>2026-03-21T14:49:21Z</time></trkpt><trkpt lat="40.74297071165805" lon="9.563599844313732"><ele>549.3333333333333</ele><time>2026-03-21T14:49:22Z</time></trkpt><trkpt lat="40.74297907617583" lon="9.563512206983104"><ele>547.6666666666666</ele><time>2026-03-21T14:49:23Z</time></trkpt><trkpt lat="40.74299882970781" lon="9.56336555357873"><ele>546.0</ele><time>2026-03-21T14:49:25Z</time></trkpt><trkpt lat="40.74295889919807" lon="9.56325826199139"><ele>544.3333333333334</ele><time>2026-03-21T14:49:27Z</time></trkpt><trkpt lat="40.74297130309981" lon="9.56317196005467"><ele>542.6666666666667</ele><time>2026-03-21T14:49:29Z</time></trkpt><trkpt lat="40.742962195096325" lon="9.56307424459358"><ele>541.0</ele><time>2026-03-21T14:49:33.001Z</time></trkpt><trkpt lat="40.74300784437421" lon="9.56295808088384"><ele>539.0000000000001</ele><time>2026-03-21T14:49:35.001Z</time></trkpt><trkpt lat="40.74298415235107" lon="9.562839643342036"><ele>537.0</ele><time>2026-03-21T14:49:37.001Z</time></trkpt><trkpt lat="40.7429564832665" lon="9.562757283049859"><ele>535.0</ele><time>2026-03-21T14:49:39Z</time></trkpt><trkpt lat="40.74300467030026" lon="9.562689904373364"><ele>533.0</ele><time>2026-03-21T14:49:42Z</time></trkpt><trkpt lat="40.74306527927637" lon="9.562638251270952"><ele>531.0</ele><time>2026-03-21T14:49:47Z</time></trkpt><trkpt lat="40.743099647422454" lon="9.562565244534362"><ele>529.0000000000001</ele><time>2026-03-21T14:49:49Z</time></trkpt><trkpt lat="40.74311363353863" lon="9.562482491210446"><ele>527.0</ele><time>2026-03-21T14:49:52Z</time></trkpt><trkpt lat="40.74313291346266" lon="9.562394734269377"><ele>527.0</ele><time>2026-03-21T14:49:55Z</time></trkpt><trkpt lat="40.743143533962474" lon="9.56229605653592"><ele>527.0</ele><time>2026-03-21T14:49:57Z</time></trkpt><trkpt lat="40.743136560912625" lon="9.562179869344659"><ele>527.0</ele><time>2026-03-21T14:49:59Z</time></trkpt><trkpt lat="40.74316895276976" lon="9.562106465514825"><ele>527.0</ele><time>2026-03-21T14:50:01Z</time></trkpt><trkpt lat="40.7432009422609" lon="9.562023669178457"><ele>527.0</ele><time>2026-03-21T14:50:03Z</time></trkpt><trkpt lat="40.74319938843828" lon="9.561884051659787"><ele>527.0</ele><time>2026-03-21T14:50:05Z</time></trkpt><trkpt lat="40.74319323180503" lon="9.561799981107004"><ele>524.8333333333333</ele><time>2026-03-21T14:50:07Z</time></trkpt><trkpt lat="40.74316687143402" lon="9.561666222368432"><ele>522.6666666666666</ele><time>2026-03-21T14:50:11Z</time></trkpt><trkpt lat="40.74311941390227" lon="9.561580386331777"><ele>520.5</ele><time>2026-03-21T14:50:13Z</time></trkpt><trkpt lat="40.74309289897889" lon="9.561485716667015"><ele>518.3333333333334</ele><time>2026-03-21T14:50:15Z</time></trkpt><trkpt lat="40.74308783865032" lon="9.561386673594502"><ele>516.1666666666667</ele><time>2026-03-21T14:50:17Z</time></trkpt><trkpt lat="40.74312829162609" lon="9.56130943538631"><ele>514.0</ele><time>2026-03-21T14:50:20Z</time></trkpt><trkpt lat="40.74313935313397" lon="9.561159424458012"><ele>512.1666666666667</ele><time>2026-03-21T14:50:23Z</time></trkpt><trkpt lat="40.743113996877355" lon="9.561034517659326"><ele>510.33333333333337</ele><time>2026-03-21T14:50:25Z</time></trkpt><trkpt lat="40.74311002153965" lon="9.560913735439765"><ele>508.5</ele><time>2026-03-21T14:50:27Z</time></trkpt><trkpt lat="40.743126481318335" lon="9.560822429547487"><ele>506.66666666666663</ele><time>2026-03-21T14:50:29Z</time></trkpt><trkpt lat="40.74315077206432" lon="9.560724854251232"><ele>504.8333333333333</ele><time>2026-03-21T14:50:31Z</time></trkpt><trkpt lat="40.743127747879264" lon="9.560634972316462"><ele>503.0</ele><time>2026-03-21T14:50:34Z</time></trkpt><trkpt lat="40.74314170186965" lon="9.56055181137513"><ele>502.99999999999994</ele><time>2026-03-21T14:50:43Z</time></trkpt><trkpt lat="40.7431679166785" lon="9.560454957366197"><ele>503.0</ele><time>2026-03-21T14:50:57Z</time></trkpt><trkpt lat="40.743203689452955" lon="9.56034984503266"><ele>503.0</ele><time>2026-03-21T14:51:00Z</time></trkpt><trkpt lat="40.743235101441904" lon="9.560255894437567"><ele>503.0</ele><time>2026-03-21T14:51:02Z</time></trkpt><trkpt lat="40.74325986003454" lon="9.56016595658458"><ele>502.99999999999994</ele><time>2026-03-21T14:51:09Z</time></trkpt><trkpt lat="40.74327734364295" lon="9.56005251061261"><ele>503.0</ele><time>2026-03-21T14:51:25.001Z</time></trkpt><trkpt lat="40.74327920676273" lon="9.559900269617858"><ele>502.0</ele><time>2026-03-21T14:51:28.001Z</time></trkpt><trkpt lat="40.74326780003912" lon="9.559806235840814"><ele>501.00000000000006</ele><time>2026-03-21T14:51:31.001Z</time></trkpt><trkpt lat="40.74327621050907" lon="9.559723602358645"><ele>500.0</ele><time>2026-03-21T14:51:32.001Z</time></trkpt><trkpt lat="40.7432838338873" lon="9.559603721871856"><ele>499.0</ele><time>2026-03-21T14:51:34.001Z</time></trkpt><trkpt lat="40.7432715123346" lon="9.55951306808929"><ele>498.00000000000006</ele><time>2026-03-21T14:51:35.001Z</time></trkpt><trkpt lat="40.743252235628304" lon="9.559423476676134"><ele>497.0</ele><time>2026-03-21T14:51:37.001Z</time></trkpt><trkpt lat="40.74327017436983" lon="9.559339839785524"><ele>496.0</ele><time>2026-03-21T14:51:42.001Z</time></trkpt><trkpt lat="40.74335053881107" lon="9.559305284394389"><ele>494.83333333333337</ele><time>2026-03-21T14:51:52Z</time></trkpt><trkpt lat="40.74341858750474" lon="9.55930424830861"><ele>493.6666666666667</ele><time>2026-03-21T14:51:55Z</time></trkpt><trkpt lat="40.74345071146176" lon="9.559212830155506"><ele>492.5</ele><time>2026-03-21T14:52:01Z</time></trkpt><trkpt lat="40.74346540848525" lon="9.559123367476577"><ele>491.33333333333337</ele><time>2026-03-21T14:52:06Z</time></trkpt><trkpt lat="40.74347409821316" lon="9.55900312002822"><ele>490.1666666666667</ele><time>2026-03-21T14:52:09Z</time></trkpt><trkpt lat="40.74346600058661" lon="9.55889421404607"><ele>489.0</ele><time>2026-03-21T14:52:12Z</time></trkpt><trkpt lat="40.74344594926042" lon="9.558789015281526"><ele>486.2</ele><time>2026-03-21T14:52:17Z</time></trkpt><trkpt lat="40.743420151610124" lon="9.558673301633544"><ele>483.4</ele><time>2026-03-21T14:52:20Z</time></trkpt><trkpt lat="40.74340734990641" lon="9.558562945211932"><ele>480.6</ele><time>2026-03-21T14:52:24Z</time></trkpt><trkpt lat="40.74340615931198" lon="9.558432081244083"><ele>477.8</ele><time>2026-03-21T14:52:26Z</time></trkpt><trkpt lat="40.74340947217886" lon="9.55831384895204"><ele>475.0</ele><time>2026-03-21T14:52:28Z</time></trkpt><trkpt lat="40.74342386732044" lon="9.558198835984204"><ele>475.0</ele><time>2026-03-21T14:52:31Z</time></trkpt><trkpt lat="40.74343656582899" lon="9.558038508921829"><ele>475.0</ele><time>2026-03-21T14:52:33Z</time></trkpt><trkpt lat="40.74346406200102" lon="9.557941314151734"><ele>475.0</ele><time>2026-03-21T14:52:35Z</time></trkpt><trkpt lat="40.74349320722473" lon="9.557843930838894"><ele>475.0</ele><time>2026-03-21T14:52:37Z</time></trkpt><trkpt lat="40.74350279206246" lon="9.557737991395781"><ele>475.0</ele><time>2026-03-21T14:52:39Z</time></trkpt><trkpt lat="40.74348974318032" lon="9.557608625297998"><ele>474.2</ele><time>2026-03-21T14:52:41Z</time></trkpt><trkpt lat="40.74351654325822" lon="9.55751724902141"><ele>473.4</ele><time>2026-03-21T14:52:42Z</time></trkpt><trkpt lat="40.743548599356934" lon="9.557387175802067"><ele>472.6</ele><time>2026-03-21T14:52:45Z</time></trkpt><trkpt lat="40.74354543943602" lon="9.55724262661762"><ele>471.8</ele><time>2026-03-21T14:52:48Z</time></trkpt><trkpt lat="40.74356688797534" lon="9.557130748139055"><ele>471.0</ele><time>2026-03-21T14:52:50Z</time></trkpt><trkpt lat="40.743597800703675" lon="9.556969002584106"><ele>471.0</ele><time>2026-03-21T14:52:52Z</time></trkpt><trkpt lat="40.743629286016194" lon="9.55683259896565"><ele>471.0</ele><time>2026-03-21T14:52:54Z</time></trkpt><trkpt lat="40.74369302324614" lon="9.556738796283138"><ele>471.0</ele><time>2026-03-21T14:52:56Z</time></trkpt><trkpt lat="40.743633249184576" lon="9.556657677126035"><ele>471.0</ele><time>2026-03-21T14:52:59Z</time></trkpt><trkpt lat="40.74363791287688" lon="9.556552117765676"><ele>471.0</ele><time>2026-03-21T14:53:01Z</time></trkpt><trkpt lat="40.74361395720521" lon="9.556449896365137"><ele>471.0</ele><time>2026-03-21T14:53:04Z</time></trkpt><trkpt lat="40.74357960507562" lon="9.556365106004764"><ele>471.0</ele><time>2026-03-21T14:53:11Z</time></trkpt><trkpt lat="40.743531488548584" lon="9.556279601695689"><ele>471.0</ele><time>2026-03-21T14:53:14Z</time></trkpt><trkpt lat="40.74348607357861" lon="9.556206948164997"><ele>471.0</ele><time>2026-03-21T14:53:16Z</time></trkpt><trkpt lat="40.74345221495863" lon="9.556104888064707"><ele>471.0</ele><time>2026-03-21T14:53:18Z</time></trkpt><trkpt lat="40.743411679528236" lon="9.556008859494192"><ele>471.0</ele><time>2026-03-21T14:53:21Z</time></trkpt><trkpt lat="40.74338282463626" lon="9.55590269756476"><ele>464.4</ele><time>2026-03-21T14:53:25.001Z</time></trkpt><trkpt lat="40.74330741480644" lon="9.555905207356227"><ele>457.8</ele><time>2026-03-21T14:53:28.001Z</time></trkpt><trkpt lat="40.74324201356666" lon="9.555870635802103"><ele>451.19999999999993</ele><time>2026-03-21T14:54:08Z</time></trkpt><trkpt lat="40.74332997412313" lon="9.555732545779811"><ele>444.59999999999997</ele><time>2026-03-21T14:54:10Z</time></trkpt><trkpt lat="40.74336600430036" lon="9.555623548683407"><ele>438.0</ele><time>2026-03-21T14:54:11Z</time></trkpt><trkpt lat="40.743324731015726" lon="9.555511472875388"><ele>438.0</ele><time>2026-03-21T14:54:12Z</time></trkpt><trkpt lat="40.7432851865187" lon="9.555426173068334"><ele>438.0</ele><time>2026-03-21T14:54:13Z</time></trkpt><trkpt lat="40.74320602814552" lon="9.555379694675253"><ele>438.0</ele><time>2026-03-21T14:54:14Z</time></trkpt><trkpt lat="40.74311877771174" lon="9.55536168426384"><ele>438.0</ele><time>2026-03-21T14:54:15Z</time></trkpt><trkpt lat="40.74303502471945" lon="9.55532678736479"><ele>438.0</ele><time>2026-03-21T14:54:16Z</time></trkpt><trkpt lat="40.74297545761937" lon="9.555245530468838"><ele>438.0</ele><time>2026-03-21T14:54:17Z</time></trkpt><trkpt lat="40.742925924718655" lon="9.555142048044168"><ele>435.0</ele><time>2026-03-21T14:54:18Z</time></trkpt><trkpt lat="40.74289282058144" lon="9.555028938146917"><ele>431.99999999999994</ele><time>2026-03-21T14:54:19Z</time></trkpt><trkpt lat="40.74290863238659" lon="9.554912767974129"><ele>429.0</ele><time>2026-03-21T14:54:20Z</time></trkpt><trkpt lat="40.74298243050208" lon="9.554828559685028"><ele>426.0</ele><time>2026-03-21T14:54:21Z</time></trkpt><trkpt lat="40.74307602272664" lon="9.554810575985087"><ele>423.0</ele><time>2026-03-21T14:54:22Z</time></trkpt><trkpt lat="40.743156065120665" lon="9.55494192712052"><ele>423.0</ele><time>2026-03-21T14:54:23Z</time></trkpt><trkpt lat="40.743225968776535" lon="9.554960896230378"><ele>423.0</ele><time>2026-03-21T14:54:24Z</time></trkpt><trkpt lat="40.74330993927439" lon="9.554960557099784"><ele>423.0</ele><time>2026-03-21T14:54:25Z</time></trkpt><trkpt lat="40.743371970479565" lon="9.554850398831926"><ele>423.0</ele><time>2026-03-21T14:54:26Z</time></trkpt><trkpt lat="40.74336991459304" lon="9.554716312536122"><ele>423.0</ele><time>2026-03-21T14:54:27Z</time></trkpt><trkpt lat="40.743370116872065" lon="9.55457739843808"><ele>419.0</ele><time>2026-03-21T14:54:28Z</time></trkpt><trkpt lat="40.74335492058821" lon="9.5544293865409"><ele>415.0</ele><time>2026-03-21T14:54:29Z</time></trkpt><trkpt lat="40.74335501028786" lon="9.554283650092547"><ele>411.0</ele><time>2026-03-21T14:54:30Z</time></trkpt><trkpt lat="40.74338313915007" lon="9.554139658974387"><ele>407.0</ele><time>2026-03-21T14:54:31Z</time></trkpt><trkpt lat="40.74344174308508" lon="9.554019002155508"><ele>403.0</ele><time>2026-03-21T14:54:32Z</time></trkpt><trkpt lat="40.743511716832934" lon="9.553905784338264"><ele>400.79999999999995</ele><time>2026-03-21T14:54:33Z</time></trkpt><trkpt lat="40.74359159576824" lon="9.55383299427044"><ele>398.6</ele><time>2026-03-21T14:54:34Z</time></trkpt><trkpt lat="40.74369568203725" lon="9.553803420754447"><ele>396.4</ele><time>2026-03-21T14:54:35Z</time></trkpt><trkpt lat="40.7438112995001" lon="9.55377157863042"><ele>394.20000000000005</ele><time>2026-03-21T14:54:36Z</time></trkpt><trkpt lat="40.74392811350344" lon="9.553727804466032"><ele>392.0</ele><time>2026-03-21T14:54:37Z</time></trkpt><trkpt lat="40.744051520630585" lon="9.553668196097352"><ele>392.0</ele><time>2026-03-21T14:54:38Z</time></trkpt><trkpt lat="40.744167028248526" lon="9.553591390811125"><ele>392.0</ele><time>2026-03-21T14:54:39Z</time></trkpt><trkpt lat="40.744275567477885" lon="9.553509197273238"><ele>392.0</ele><time>2026-03-21T14:54:40Z</time></trkpt><trkpt lat="40.74438416304948" lon="9.553430432446856"><ele>392.0</ele><time>2026-03-21T14:54:41Z</time></trkpt><trkpt lat="40.744495465796014" lon="9.553370057202644"><ele>395.66666666666663</ele><time>2026-03-21T14:54:42Z</time></trkpt><trkpt lat="40.7445940968047" lon="9.553317528381756"><ele>399.3333333333333</ele><time>2026-03-21T14:54:43Z</time></trkpt><trkpt lat="40.74467839834629" lon="9.553271132658615"><ele>403.0</ele><time>2026-03-21T14:54:44Z</time></trkpt><trkpt lat="40.744735772455066" lon="9.553215338373372"><ele>406.66666666666663</ele><time>2026-03-21T14:54:45Z</time></trkpt><trkpt lat="40.74478485143345" lon="9.553143148897949"><ele>410.3333333333333</ele><time>2026-03-21T14:54:46Z</time></trkpt><trkpt lat="40.744824704103344" lon="9.553069714769475"><ele>414.0</ele><time>2026-03-21T14:54:47Z</time></trkpt><trkpt lat="40.74487061057977" lon="9.553006572786918"><ele>414.0</ele><time>2026-03-21T14:54:48Z</time></trkpt><trkpt lat="40.74493388505055" lon="9.552944863976123"><ele>414.0</ele><time>2026-03-21T14:54:49Z</time></trkpt><trkpt lat="40.7450081898119" lon="9.552887452427454"><ele>414.0</ele><time>2026-03-21T14:54:50Z</time></trkpt><trkpt lat="40.745100013250884" lon="9.55285624067789"><ele>414.0</ele><time>2026-03-21T14:54:51Z</time></trkpt><trkpt lat="40.745199587576515" lon="9.552840030727026"><ele>414.0</ele><time>2026-03-21T14:54:52Z</time></trkpt><trkpt lat="40.745299683591305" lon="9.55283776572297"><ele>411.0</ele><time>2026-03-21T14:54:53Z</time></trkpt><trkpt lat="40.745402665857604" lon="9.552856960179557"><ele>408.0</ele><time>2026-03-21T14:54:54Z</time></trkpt><trkpt lat="40.74550389437391" lon="9.552911488617333"><ele>405.0</ele><time>2026-03-21T14:54:55Z</time></trkpt><trkpt lat="40.745606036837" lon="9.552992982013917"><ele>402.0</ele><time>2026-03-21T14:54:56Z</time></trkpt><trkpt lat="40.74571193314369" lon="9.55309387837756"><ele>402.0</ele><time>2026-03-21T14:54:57Z</time></trkpt><trkpt lat="40.74581694319817" lon="9.553199253774949"><ele>402.0</ele><time>2026-03-21T14:54:58Z</time></trkpt><trkpt lat="40.745917173600915" lon="9.553300759101663"><ele>402.0</ele><time>2026-03-21T14:54:59Z</time></trkpt><trkpt lat="40.746022003054435" lon="9.553403180902851"><ele>402.0</ele><time>2026-03-21T14:55:00Z</time></trkpt><trkpt lat="40.746141231269135" lon="9.553490411805962"><ele>401.5</ele><time>2026-03-21T14:55:01Z</time></trkpt><trkpt lat="40.746251618920255" lon="9.553562668287611"><ele>401.0</ele><time>2026-03-21T14:55:02Z</time></trkpt><trkpt lat="40.746364313993205" lon="9.553597405470882"><ele>400.5</ele><time>2026-03-21T14:55:03Z</time></trkpt><trkpt lat="40.746468483788256" lon="9.553645919920177"><ele>400.0</ele><time>2026-03-21T14:55:04Z</time></trkpt><trkpt lat="40.74654532632186" lon="9.553732744337085"><ele>400.0</ele><time>2026-03-21T14:55:05Z</time></trkpt><trkpt lat="40.74656616631313" lon="9.553873245402476"><ele>400.0</ele><time>2026-03-21T14:55:06Z</time></trkpt><trkpt lat="40.74662413511839" lon="9.554014089531522"><ele>400.0</ele><time>2026-03-21T14:55:07Z</time></trkpt><trkpt lat="40.74670370410104" lon="9.554131835230985"><ele>400.0</ele><time>2026-03-21T14:55:08Z</time></trkpt><trkpt lat="40.74684093511595" lon="9.554146112771203"><ele>397.5</ele><time>2026-03-21T14:55:09Z</time></trkpt><trkpt lat="40.74695517950123" lon="9.55415690636233"><ele>395.0</ele><time>2026-03-21T14:55:10Z</time></trkpt><trkpt lat="40.74708050444922" lon="9.554170398879622"><ele>392.5</ele><time>2026-03-21T14:55:11Z</time></trkpt><trkpt lat="40.74720784546252" lon="9.554152636427224"><ele>390.0</ele><time>2026-03-21T14:55:12Z</time></trkpt><trkpt lat="40.747328477064485" lon="9.554089225927552"><ele>390.0</ele><time>2026-03-21T14:55:13Z</time></trkpt><trkpt lat="40.7474490561007" lon="9.554002779534807"><ele>390.0</ele><time>2026-03-21T14:55:14Z</time></trkpt><trkpt lat="40.747567675732554" lon="9.553923391870354"><ele>390.0</ele><time>2026-03-21T14:55:15Z</time></trkpt><trkpt lat="40.74768800010207" lon="9.553849055189877"><ele>390.0</ele><time>2026-03-21T14:55:16Z</time></trkpt><trkpt lat="40.747811038042144" lon="9.553783691647435"><ele>389.5</ele><time>2026-03-21T14:55:17Z</time></trkpt><trkpt lat="40.74793162940331" lon="9.553716033734615"><ele>389.0</ele><time>2026-03-21T14:55:18Z</time></trkpt><trkpt lat="40.74804860313041" lon="9.553644708375712"><ele>388.5</ele><time>2026-03-21T14:55:19Z</time></trkpt><trkpt lat="40.74816680994043" lon="9.553579550775"><ele>388.0</ele><time>2026-03-21T14:55:20Z</time></trkpt><trkpt lat="40.74828361827535" lon="9.55353005346951"><ele>383.59999999999997</ele><time>2026-03-21T14:55:21Z</time></trkpt><trkpt lat="40.74839562751005" lon="9.553487362931461"><ele>379.2</ele><time>2026-03-21T14:55:22Z</time></trkpt><trkpt lat="40.748495651498466" lon="9.553468498688725"><ele>374.8</ele><time>2026-03-21T14:55:23Z</time></trkpt><trkpt lat="40.7486020821175" lon="9.553470681885335"><ele>370.4</ele><time>2026-03-21T14:55:24Z</time></trkpt><trkpt lat="40.748702702119765" lon="9.553504762179314"><ele>366.0</ele><time>2026-03-21T14:55:25Z</time></trkpt><trkpt lat="40.74878670204778" lon="9.553575639192962"><ele>362.25</ele><time>2026-03-21T14:55:26Z</time></trkpt><trkpt lat="40.74887373895494" lon="9.553674553798533"><ele>358.5</ele><time>2026-03-21T14:55:27Z</time></trkpt><trkpt lat="40.74894576234208" lon="9.55380847910201"><ele>354.75</ele><time>2026-03-21T14:55:28Z</time></trkpt><trkpt lat="40.748980870576816" lon="9.553977246608978"><ele>351.0</ele><time>2026-03-21T14:55:29Z</time></trkpt><trkpt lat="40.74898001194525" lon="9.554159512040995"><ele>351.0</ele><time>2026-03-21T14:55:30Z</time></trkpt><trkpt lat="40.74894326536034" lon="9.554318248122355"><ele>351.0</ele><time>2026-03-21T14:55:31Z</time></trkpt><trkpt lat="40.74889098380846" lon="9.55446991465239"><ele>351.0</ele><time>2026-03-21T14:55:32Z</time></trkpt><trkpt lat="40.74884297919024" lon="9.5546240134941"><ele>351.0</ele><time>2026-03-21T14:55:33Z</time></trkpt><trkpt lat="40.74878932986256" lon="9.554769529909011"><ele>350.0</ele><time>2026-03-21T14:55:34Z</time></trkpt><trkpt lat="40.74877329881056" lon="9.554939807636039"><ele>349.0</ele><time>2026-03-21T14:55:35Z</time></trkpt><trkpt lat="40.74879362279089" lon="9.555115540558347"><ele>348.0</ele><time>2026-03-21T14:55:36Z</time></trkpt><trkpt lat="40.74886438589064" lon="9.555272625083392"><ele>347.0</ele><time>2026-03-21T14:55:37Z</time></trkpt><trkpt lat="40.74890691842077" lon="9.555426718745919"><ele>350.20000000000005</ele><time>2026-03-21T14:55:38Z</time></trkpt><trkpt lat="40.74895976712145" lon="9.555566228944423"><ele>353.4</ele><time>2026-03-21T14:55:39.001Z</time></trkpt><trkpt lat="40.7490214192054" lon="9.555682367454775"><ele>356.6</ele><time>2026-03-21T14:55:40.001Z</time></trkpt><trkpt lat="40.74910662624099" lon="9.555764728115276"><ele>359.79999999999995</ele><time>2026-03-21T14:55:41.001Z</time></trkpt><trkpt lat="40.74921736219854" lon="9.555808937609992"><ele>363.0</ele><time>2026-03-21T14:55:42.001Z</time></trkpt><trkpt lat="40.749356316807564" lon="9.555826684473375"><ele>356.75</ele><time>2026-03-21T14:55:43.001Z</time></trkpt><trkpt lat="40.7494976046302" lon="9.555854302403617"><ele>350.5</ele><time>2026-03-21T14:55:44.001Z</time></trkpt><trkpt lat="40.74963162651873" lon="9.555904130428695"><ele>344.25</ele><time>2026-03-21T14:55:45.001Z</time></trkpt><trkpt lat="40.749758059465215" lon="9.555983042701339"><ele>338.0</ele><time>2026-03-21T14:55:46.001Z</time></trkpt><trkpt lat="40.74988158465294" lon="9.556106492878374"><ele>334.5</ele><time>2026-03-21T14:55:47.001Z</time></trkpt><trkpt lat="40.74998631378076" lon="9.55624578934852"><ele>331.0</ele><time>2026-03-21T14:55:48.001Z</time></trkpt><trkpt lat="40.75006307412271" lon="9.55641032101091"><ele>327.5</ele><time>2026-03-21T14:55:49.001Z</time></trkpt><trkpt lat="40.75017193798668" lon="9.556531402234949"><ele>324.0</ele><time>2026-03-21T14:55:50.001Z</time></trkpt><trkpt lat="40.75025078704418" lon="9.556670623225386"><ele>324.0</ele><time>2026-03-21T14:55:51.001Z</time></trkpt><trkpt lat="40.75031733223238" lon="9.556819031686006"><ele>324.0</ele><time>2026-03-21T14:55:52.001Z</time></trkpt><trkpt lat="40.75038603758382" lon="9.55696595882403"><ele>324.0</ele><time>2026-03-21T14:55:53.001Z</time></trkpt><trkpt lat="40.75051717792399" lon="9.557049821668976"><ele>324.0</ele><time>2026-03-21T14:55:54.001Z</time></trkpt><trkpt lat="40.75066181671072" lon="9.557093708631168"><ele>321.25</ele><time>2026-03-21T14:55:55.001Z</time></trkpt><trkpt lat="40.75078790030838" lon="9.557155235779224"><ele>318.5</ele><time>2026-03-21T14:55:56.001Z</time></trkpt><trkpt lat="40.75091958296152" lon="9.557231097703736"><ele>315.75</ele><time>2026-03-21T14:55:57Z</time></trkpt><trkpt lat="40.751047631572824" lon="9.557316236693229"><ele>313.0</ele><time>2026-03-21T14:55:58Z</time></trkpt><trkpt lat="40.75115428300569" lon="9.557421928986692"><ele>313.0</ele><time>2026-03-21T14:55:59Z</time></trkpt><trkpt lat="40.75126972133517" lon="9.557508157050526"><ele>313.0</ele><time>2026-03-21T14:56:00Z</time></trkpt><trkpt lat="40.751342372858865" lon="9.557663914802363"><ele>313.0</ele><time>2026-03-21T14:56:01Z</time></trkpt><trkpt lat="40.75142386036107" lon="9.557787090501542"><ele>313.0</ele><time>2026-03-21T14:56:02Z</time></trkpt><trkpt lat="40.75145024329442" lon="9.557913360807351"><ele>314.5</ele><time>2026-03-21T14:56:03Z</time></trkpt><trkpt lat="40.75140013202294" lon="9.55808966881168"><ele>316.0</ele><time>2026-03-21T14:56:04Z</time></trkpt><trkpt lat="40.75144361684487" lon="9.558255238435834"><ele>317.5</ele><time>2026-03-21T14:56:05Z</time></trkpt><trkpt lat="40.75150193044317" lon="9.558397171081197"><ele>319.0</ele><time>2026-03-21T14:56:06Z</time></trkpt><trkpt lat="40.75153151620702" lon="9.558536592936772"><ele>319.0</ele><time>2026-03-21T14:56:07Z</time></trkpt><trkpt lat="40.75155685568681" lon="9.558651195831816"><ele>319.0</ele><time>2026-03-21T14:56:08Z</time></trkpt><trkpt lat="40.75162356096446" lon="9.558725557487206"><ele>319.0</ele><time>2026-03-21T14:56:09Z</time></trkpt><trkpt lat="40.75171940910233" lon="9.558684322668762"><ele>319.0</ele><time>2026-03-21T14:56:10Z</time></trkpt><trkpt lat="40.75177196565816" lon="9.558630504722547"><ele>319.0</ele><time>2026-03-21T14:56:11Z</time></trkpt><trkpt lat="40.75177544260138" lon="9.558521382981358"><ele>319.0</ele><time>2026-03-21T14:56:12Z</time></trkpt><trkpt lat="40.751738948405794" lon="9.558430977733593"><ele>319.0</ele><time>2026-03-21T14:56:13Z</time></trkpt><trkpt lat="40.75166504517358" lon="9.558359368741288"><ele>319.0</ele><time>2026-03-21T14:56:14Z</time></trkpt><trkpt lat="40.751615638175124" lon="9.558233060916253"><ele>319.0</ele><time>2026-03-21T14:56:15Z</time></trkpt><trkpt lat="40.751591481969974" lon="9.558068362080533"><ele>319.0</ele><time>2026-03-21T14:56:16Z</time></trkpt><trkpt lat="40.751587878299155" lon="9.557878818838699"><ele>317.5</ele><time>2026-03-21T14:56:17Z</time></trkpt><trkpt lat="40.751617969691" lon="9.557687432195623"><ele>316.0</ele><time>2026-03-21T14:56:18Z</time></trkpt><trkpt lat="40.75164246093235" lon="9.557509361608709"><ele>314.5</ele><time>2026-03-21T14:56:19Z</time></trkpt><trkpt lat="40.751667755857575" lon="9.557348585040913"><ele>313.0</ele><time>2026-03-21T14:56:20Z</time></trkpt><trkpt lat="40.75168016101495" lon="9.557211011352662"><ele>313.0</ele><time>2026-03-21T14:56:21Z</time></trkpt><trkpt lat="40.75163647876081" lon="9.557087651622792"><ele>313.0</ele><time>2026-03-21T14:56:22Z</time></trkpt><trkpt lat="40.75155543580362" lon="9.556997368351135"><ele>313.0</ele><time>2026-03-21T14:56:23Z</time></trkpt><trkpt lat="40.75144484333034" lon="9.55691793221887"><ele>313.0</ele><time>2026-03-21T14:56:24Z</time></trkpt><trkpt lat="40.75132808958473" lon="9.556807799224979"><ele>315.75</ele><time>2026-03-21T14:56:25Z</time></trkpt><trkpt lat="40.751227423858836" lon="9.55668142893356"><ele>318.5</ele><time>2026-03-21T14:56:26Z</time></trkpt><trkpt lat="40.751135690184086" lon="9.55655642554424"><ele>321.25</ele><time>2026-03-21T14:56:27Z</time></trkpt><trkpt lat="40.75106895930331" lon="9.556422150855052"><ele>324.0</ele><time>2026-03-21T14:56:28Z</time></trkpt><trkpt lat="40.75103663893509" lon="9.556276767009074"><ele>315.0</ele><time>2026-03-21T14:56:29Z</time></trkpt><trkpt lat="40.751059131234996" lon="9.556133724880965"><ele>306.0</ele><time>2026-03-21T14:56:30Z</time></trkpt><trkpt lat="40.751127758324174" lon="9.556010610285169"><ele>297.0</ele><time>2026-03-21T14:56:31Z</time></trkpt><trkpt lat="40.75121475628357" lon="9.555879888100272"><ele>288.0</ele><time>2026-03-21T14:56:32Z</time></trkpt><trkpt lat="40.75127459722012" lon="9.555743384281097"><ele>288.0</ele><time>2026-03-21T14:56:33Z</time></trkpt><trkpt lat="40.75129328144145" lon="9.555591936744035"><ele>288.0</ele><time>2026-03-21T14:56:34Z</time></trkpt><trkpt lat="40.751256366521176" lon="9.555446333771142"><ele>288.0</ele><time>2026-03-21T14:56:35Z</time></trkpt><trkpt lat="40.75118157412982" lon="9.555300140500977"><ele>288.0</ele><time>2026-03-21T14:56:36Z</time></trkpt><trkpt lat="40.751115529587494" lon="9.555143286066155"><ele>285.75</ele><time>2026-03-21T14:56:37Z</time></trkpt><trkpt lat="40.751064894172075" lon="9.55498128718048"><ele>283.5</ele><time>2026-03-21T14:56:38Z</time></trkpt><trkpt lat="40.75103931657936" lon="9.554815514798497"><ele>281.25</ele><time>2026-03-21T14:56:39Z</time></trkpt><trkpt lat="40.75109454616282" lon="9.55466684169281"><ele>279.0</ele><time>2026-03-21T14:56:40Z</time></trkpt><trkpt lat="40.75111299645086" lon="9.554521053614113"><ele>281.0</ele><time>2026-03-21T14:56:41Z</time></trkpt><trkpt lat="40.75108598771853" lon="9.554371924916877"><ele>283.0</ele><time>2026-03-21T14:56:42Z</time></trkpt><trkpt lat="40.75100492772494" lon="9.554246523086718"><ele>285.0</ele><time>2026-03-21T14:56:43Z</time></trkpt><trkpt lat="40.750884255424154" lon="9.554182066527174"><ele>287.0</ele><time>2026-03-21T14:56:44Z</time></trkpt><trkpt lat="40.750793088204205" lon="9.5541001904573"><ele>287.0</ele><time>2026-03-21T14:56:45Z</time></trkpt><trkpt lat="40.75075074875167" lon="9.553977940018719"><ele>287.0</ele><time>2026-03-21T14:56:46Z</time></trkpt><trkpt lat="40.75075363718239" lon="9.553851674977315"><ele>287.0</ele><time>2026-03-21T14:56:47Z</time></trkpt><trkpt lat="40.750809216203066" lon="9.553742954656686"><ele>287.0</ele><time>2026-03-21T14:56:48Z</time></trkpt><trkpt lat="40.75090079303114" lon="9.553675405153673"><ele>287.0</ele><time>2026-03-21T14:56:49Z</time></trkpt><trkpt lat="40.751009245672535" lon="9.55365305516215"><ele>281.0</ele><time>2026-03-21T14:56:50Z</time></trkpt><trkpt lat="40.751110265273375" lon="9.553581026192052"><ele>275.0</ele><time>2026-03-21T14:56:51Z</time></trkpt><trkpt lat="40.751196000868674" lon="9.553468129674574"><ele>269.0</ele><time>2026-03-21T14:56:52Z</time></trkpt><trkpt lat="40.75124914014234" lon="9.553331429429514"><ele>263.0</ele><time>2026-03-21T14:56:53Z</time></trkpt><trkpt lat="40.7512632579335" lon="9.553186381822387"><ele>263.0</ele><time>2026-03-21T14:56:54Z</time></trkpt><trkpt lat="40.75122612841118" lon="9.553046896915008"><ele>263.0</ele><time>2026-03-21T14:56:55Z</time></trkpt><trkpt lat="40.751153664006964" lon="9.552918506384389"><ele>263.0</ele><time>2026-03-21T14:56:56Z</time></trkpt><trkpt lat="40.75108000737544" lon="9.552782083982365"><ele>263.0</ele><time>2026-03-21T14:56:57Z</time></trkpt><trkpt lat="40.75097647550373" lon="9.552689892028635"><ele>265.8</ele><time>2026-03-21T14:56:58Z</time></trkpt><trkpt lat="40.75088710503776" lon="9.552603216518623"><ele>268.6</ele><time>2026-03-21T14:56:59Z</time></trkpt><trkpt lat="40.75084262842931" lon="9.552455672475444"><ele>271.4</ele><time>2026-03-21T14:57:00Z</time></trkpt><trkpt lat="40.75081844813185" lon="9.552307168434547"><ele>274.2</ele><time>2026-03-21T14:57:01Z</time></trkpt><trkpt lat="40.75081638159662" lon="9.552172504377673"><ele>277.0</ele><time>2026-03-21T14:57:02Z</time></trkpt><trkpt lat="40.750856620227125" lon="9.55205219119232"><ele>275.8</ele><time>2026-03-21T14:57:03Z</time></trkpt><trkpt lat="40.75093929338363" lon="9.551974372371692"><ele>274.6</ele><time>2026-03-21T14:57:04Z</time></trkpt><trkpt lat="40.75103969463669" lon="9.551925209625715"><ele>273.40000000000003</ele><time>2026-03-21T14:57:05Z</time></trkpt><trkpt lat="40.751113490846386" lon="9.551841652525507"><ele>272.2</ele><time>2026-03-21T14:57:06Z</time></trkpt><trkpt lat="40.75115255146115" lon="9.551711462242642"><ele>271.0</ele><time>2026-03-21T14:57:07Z</time></trkpt><trkpt lat="40.75115690995571" lon="9.551562685795265"><ele>267.8</ele><time>2026-03-21T14:57:08Z</time></trkpt><trkpt lat="40.751136017632625" lon="9.551416125304655"><ele>264.6</ele><time>2026-03-21T14:57:09Z</time></trkpt><trkpt lat="40.75109994317051" lon="9.551287138987611"><ele>261.4</ele><time>2026-03-21T14:57:10Z</time></trkpt><trkpt lat="40.7510612140738" lon="9.551164866489255"><ele>258.2</ele><time>2026-03-21T14:57:11Z</time></trkpt><trkpt lat="40.750970712367156" lon="9.551066850151875"><ele>255.0</ele><time>2026-03-21T14:57:12Z</time></trkpt><trkpt lat="40.75084098983624" lon="9.551032754574893"><ele>254.75</ele><time>2026-03-21T14:57:13Z</time></trkpt><trkpt lat="40.750739417846404" lon="9.550972216004746"><ele>254.5</ele><time>2026-03-21T14:57:14Z</time></trkpt><trkpt lat="40.75066243698767" lon="9.550848161967847"><ele>254.25</ele><time>2026-03-21T14:57:15Z</time></trkpt><trkpt lat="40.7506060029074" lon="9.550685359266929"><ele>254.0</ele><time>2026-03-21T14:57:16Z</time></trkpt><trkpt lat="40.750536577043476" lon="9.550532695030311"><ele>254.0</ele><time>2026-03-21T14:57:17Z</time></trkpt><trkpt lat="40.750467438499705" lon="9.550378857680792"><ele>254.0</ele><time>2026-03-21T14:57:18Z</time></trkpt><trkpt lat="40.75041079957831" lon="9.550220307410124"><ele>254.0</ele><time>2026-03-21T14:57:19Z</time></trkpt><trkpt lat="40.75036710156269" lon="9.550056609510273"><ele>254.0</ele><time>2026-03-21T14:57:20Z</time></trkpt><trkpt lat="40.7502998718547" lon="9.54990730325036"><ele>254.66666666666669</ele><time>2026-03-21T14:57:21Z</time></trkpt><trkpt lat="40.75017704399796" lon="9.549790451259991"><ele>255.33333333333331</ele><time>2026-03-21T14:57:22Z</time></trkpt><trkpt lat="40.75005185119198" lon="9.54967387826419"><ele>256.0</ele><time>2026-03-21T14:57:23Z</time></trkpt><trkpt lat="40.74992846906944" lon="9.549560357837573"><ele>250.75</ele><time>2026-03-21T14:57:24Z</time></trkpt><trkpt lat="40.749812316003066" lon="9.54945916612024"><ele>245.5</ele><time>2026-03-21T14:57:25Z</time></trkpt><trkpt lat="40.74973932183965" lon="9.549330408659307"><ele>240.25</ele><time>2026-03-21T14:57:26Z</time></trkpt><trkpt lat="40.74972681818493" lon="9.54916169663415"><ele>235.0</ele><time>2026-03-21T14:57:27Z</time></trkpt><trkpt lat="40.74967416633377" lon="9.549013855859117"><ele>235.0</ele><time>2026-03-21T14:57:28Z</time></trkpt><trkpt lat="40.74958076702999" lon="9.548875486970667"><ele>235.0</ele><time>2026-03-21T14:57:29Z</time></trkpt><trkpt lat="40.74946207198145" lon="9.548756855678635"><ele>235.0</ele><time>2026-03-21T14:57:30Z</time></trkpt><trkpt lat="40.749352206466874" lon="9.548635717395186"><ele>235.0</ele><time>2026-03-21T14:57:31Z</time></trkpt><trkpt lat="40.74925362648151" lon="9.548510987673401"><ele>234.75</ele><time>2026-03-21T14:57:32Z</time></trkpt><trkpt lat="40.74915191059153" lon="9.5483948769228"><ele>234.5</ele><time>2026-03-21T14:57:33Z</time></trkpt><trkpt lat="40.74905271625225" lon="9.54828483778867"><ele>234.25</ele><time>2026-03-21T14:57:34Z</time></trkpt><trkpt lat="40.74895187780181" lon="9.548187509577087"><ele>234.0</ele><time>2026-03-21T14:57:35Z</time></trkpt><trkpt lat="40.74884883276086" lon="9.548098708641962"><ele>234.0</ele><time>2026-03-21T14:57:36Z</time></trkpt><trkpt lat="40.74873498489224" lon="9.548008772194049"><ele>234.0</ele><time>2026-03-21T14:57:37Z</time></trkpt><trkpt lat="40.7486190452177" lon="9.547916625526366"><ele>234.0</ele><time>2026-03-21T14:57:38Z</time></trkpt><trkpt lat="40.7485064525989" lon="9.547834143323723"><ele>234.0</ele><time>2026-03-21T14:57:39Z</time></trkpt><trkpt lat="40.74840172218767" lon="9.547760559029363"><ele>233.39999999999998</ele><time>2026-03-21T14:57:40Z</time></trkpt><trkpt lat="40.74832580806099" lon="9.547685244516341"><ele>232.79999999999998</ele><time>2026-03-21T14:57:41Z</time></trkpt><trkpt lat="40.74827798566035" lon="9.547586488980583"><ele>232.20000000000002</ele><time>2026-03-21T14:57:42Z</time></trkpt><trkpt lat="40.748259717284334" lon="9.547465842542135"><ele>231.60000000000002</ele><time>2026-03-21T14:57:43.001Z</time></trkpt><trkpt lat="40.748290423214456" lon="9.547326224493252"><ele>231.0</ele><time>2026-03-21T14:57:44.001Z</time></trkpt><trkpt lat="40.74835810442521" lon="9.547195926330822"><ele>231.0</ele><time>2026-03-21T14:57:45.001Z</time></trkpt><trkpt lat="40.74840678472044" lon="9.547049726720738"><ele>231.0</ele><time>2026-03-21T14:57:46.001Z</time></trkpt><trkpt lat="40.74843449585061" lon="9.546901690347557"><ele>231.0</ele><time>2026-03-21T14:57:47.001Z</time></trkpt><trkpt lat="40.748472923405764" lon="9.546767936177766"><ele>231.0</ele><time>2026-03-21T14:57:48.001Z</time></trkpt><trkpt lat="40.74853166396952" lon="9.546650259995968"><ele>226.75</ele><time>2026-03-21T14:57:49.001Z</time></trkpt><trkpt lat="40.74861990729798" lon="9.546544790716641"><ele>222.5</ele><time>2026-03-21T14:57:50.001Z</time></trkpt><trkpt lat="40.74870790495866" lon="9.546428784070125"><ele>218.25</ele><time>2026-03-21T14:57:51.001Z</time></trkpt><trkpt lat="40.74879707123638" lon="9.546301000794058"><ele>214.0</ele><time>2026-03-21T14:57:52.001Z</time></trkpt><trkpt lat="40.74888256759628" lon="9.546172244667483"><ele>213.25</ele><time>2026-03-21T14:57:53.001Z</time></trkpt><trkpt lat="40.748947450228165" lon="9.546029210973481"><ele>212.5</ele><time>2026-03-21T14:57:54.001Z</time></trkpt><trkpt lat="40.74897318601566" lon="9.545857635065621"><ele>211.75</ele><time>2026-03-21T14:57:55.001Z</time></trkpt><trkpt lat="40.74896435165961" lon="9.545682947015013"><ele>211.0</ele><time>2026-03-21T14:57:56.001Z</time></trkpt><trkpt lat="40.74892565487656" lon="9.545512354991468"><ele>210.0</ele><time>2026-03-21T14:57:57.001Z</time></trkpt><trkpt lat="40.74888526862334" lon="9.545346027510682"><ele>209.0</ele><time>2026-03-21T14:57:58.001Z</time></trkpt><trkpt lat="40.74884554772671" lon="9.545179248018576"><ele>208.0</ele><time>2026-03-21T14:57:59.001Z</time></trkpt><trkpt lat="40.74880671894247" lon="9.545010220078053"><ele>207.0</ele><time>2026-03-21T14:58:00.001Z</time></trkpt><trkpt lat="40.74876709207913" lon="9.544841669373465"><ele>207.0</ele><time>2026-03-21T14:58:01.001Z</time></trkpt><trkpt lat="40.74873007998241" lon="9.544669625308687"><ele>207.0</ele><time>2026-03-21T14:58:02.001Z</time></trkpt><trkpt lat="40.74868953219811" lon="9.544494999774416"><ele>207.0</ele><time>2026-03-21T14:58:03Z</time></trkpt><trkpt lat="40.74864664247112" lon="9.544321823965468"><ele>207.0</ele><time>2026-03-21T14:58:04Z</time></trkpt><trkpt lat="40.74860718624304" lon="9.544142813266308"><ele>207.25</ele><time>2026-03-21T14:58:05Z</time></trkpt><trkpt lat="40.74856780219326" lon="9.543967982306878"><ele>207.5</ele><time>2026-03-21T14:58:06Z</time></trkpt><trkpt lat="40.748524502988744" lon="9.543792413286797"><ele>207.75</ele><time>2026-03-21T14:58:07Z</time></trkpt><trkpt lat="40.748481770635195" lon="9.543613551275095"><ele>208.0</ele><time>2026-03-21T14:58:08Z</time></trkpt><trkpt lat="40.748439492947135" lon="9.54342947218771"><ele>205.66666666666666</ele><time>2026-03-21T14:58:09Z</time></trkpt><trkpt lat="40.7484004280106" lon="9.54323872056986"><ele>203.33333333333331</ele><time>2026-03-21T14:58:10Z</time></trkpt><trkpt lat="40.74836924686895" lon="9.54303309325254"><ele>201.0</ele><time>2026-03-21T14:58:11Z</time></trkpt><trkpt lat="40.74834277879288" lon="9.542818067399036"><ele>199.33333333333331</ele><time>2026-03-21T14:58:12Z</time></trkpt><trkpt lat="40.74832147996119" lon="9.542591212574216"><ele>197.66666666666666</ele><time>2026-03-21T14:58:13Z</time></trkpt><trkpt lat="40.748307376478465" lon="9.542360587624463"><ele>196.0</ele><time>2026-03-21T14:58:14Z</time></trkpt><trkpt lat="40.748292238809746" lon="9.542135258079716"><ele>195.0</ele><time>2026-03-21T14:58:15Z</time></trkpt><trkpt lat="40.74827122920636" lon="9.541916720197264"><ele>194.0</ele><time>2026-03-21T14:58:16Z</time></trkpt><trkpt lat="40.748258524150756" lon="9.541690711090416"><ele>193.0</ele><time>2026-03-21T14:58:17Z</time></trkpt><trkpt lat="40.74827573965943" lon="9.541462244727612"><ele>193.0</ele><time>2026-03-21T14:58:18Z</time></trkpt><trkpt lat="40.748316233728545" lon="9.541235815351856"><ele>193.0</ele><time>2026-03-21T14:58:19Z</time></trkpt><trkpt lat="40.748354960548376" lon="9.5410083437317"><ele>193.0</ele><time>2026-03-21T14:58:20Z</time></trkpt><trkpt lat="40.7483945920961" lon="9.540782722111413"><ele>192.0</ele><time>2026-03-21T14:58:21Z</time></trkpt><trkpt lat="40.74842807950512" lon="9.540571693494702"><ele>191.0</ele><time>2026-03-21T14:58:22Z</time></trkpt><trkpt lat="40.7484470057765" lon="9.5403633224747"><ele>190.0</ele><time>2026-03-21T14:58:23Z</time></trkpt><trkpt lat="40.7484539669186" lon="9.54015749138041"><ele>189.66666666666669</ele><time>2026-03-21T14:58:24Z</time></trkpt><trkpt lat="40.74846442189482" lon="9.539949040726784"><ele>189.33333333333334</ele><time>2026-03-21T14:58:25Z</time></trkpt><trkpt lat="40.74849624545284" lon="9.539749264672103"><ele>189.0</ele><time>2026-03-21T14:58:26Z</time></trkpt><trkpt lat="40.74856069790152" lon="9.539558541273557"><ele>187.0</ele><time>2026-03-21T14:58:27Z</time></trkpt><trkpt lat="40.74865439713035" lon="9.539377737574943"><ele>185.0</ele><time>2026-03-21T14:58:28Z</time></trkpt><trkpt lat="40.74876363902223" lon="9.539215252638394"><ele>183.0</ele><time>2026-03-21T14:58:29Z</time></trkpt><trkpt lat="40.748877573611324" lon="9.539052149914008"><ele>183.0</ele><time>2026-03-21T14:58:30Z</time></trkpt><trkpt lat="40.74898917671684" lon="9.538879581481588"><ele>183.0</ele><time>2026-03-21T14:58:31Z</time></trkpt><trkpt lat="40.74910337622128" lon="9.53870709406581"><ele>183.0</ele><time>2026-03-21T14:58:32Z</time></trkpt><trkpt lat="40.749217173227926" lon="9.53853489089314"><ele>181.66666666666666</ele><time>2026-03-21T14:58:33Z</time></trkpt><trkpt lat="40.74932562515181" lon="9.538360003165014"><ele>180.33333333333331</ele><time>2026-03-21T14:58:34Z</time></trkpt><trkpt lat="40.749432494058084" lon="9.538178117584238"><ele>179.0</ele><time>2026-03-21T14:58:35Z</time></trkpt><trkpt lat="40.74955270144335" lon="9.538007066020768"><ele>177.0</ele><time>2026-03-21T14:58:36Z</time></trkpt><trkpt lat="40.74966296907312" lon="9.537823025135967"><ele>175.0</ele><time>2026-03-21T14:58:37Z</time></trkpt><trkpt lat="40.749772953272334" lon="9.53765692286135"><ele>173.0</ele><time>2026-03-21T14:58:38Z</time></trkpt><trkpt lat="40.749878988966096" lon="9.53750014252849"><ele>173.0</ele><time>2026-03-21T14:58:39Z</time></trkpt><trkpt lat="40.750012853052695" lon="9.537378049037754"><ele>173.0</ele><time>2026-03-21T14:58:40Z</time></trkpt><trkpt lat="40.75016340438084" lon="9.53729367227299"><ele>173.0</ele><time>2026-03-21T14:58:41Z</time></trkpt><trkpt lat="40.75031256293226" lon="9.53721100357749"><ele>172.0</ele><time>2026-03-21T14:58:42Z</time></trkpt><trkpt lat="40.75046170782217" lon="9.53713498250806"><ele>171.0</ele><time>2026-03-21T14:58:43Z</time></trkpt><trkpt lat="40.7506133407932" lon="9.53705621184118"><ele>170.0</ele><time>2026-03-21T14:58:44Z</time></trkpt><trkpt lat="40.75077056096431" lon="9.536976256758404"><ele>169.0</ele><time>2026-03-21T14:58:45Z</time></trkpt><trkpt lat="40.750926918722264" lon="9.536892130796367"><ele>168.0</ele><time>2026-03-21T14:58:46Z</time></trkpt><trkpt lat="40.75108687347529" lon="9.536808480265975"><ele>167.0</ele><time>2026-03-21T14:58:47Z</time></trkpt><trkpt lat="40.75125203869049" lon="9.536730717131901"><ele>166.33333333333331</ele><time>2026-03-21T14:58:48Z</time></trkpt><trkpt lat="40.75142264733466" lon="9.53666651942154"><ele>165.66666666666666</ele><time>2026-03-21T14:58:49Z</time></trkpt><trkpt lat="40.75159823041219" lon="9.53661099948782"><ele>165.0</ele><time>2026-03-21T14:58:50Z</time></trkpt><trkpt lat="40.75177374244951" lon="9.536564185261087"><ele>165.66666666666666</ele><time>2026-03-21T14:58:51Z</time></trkpt><trkpt lat="40.75193680703107" lon="9.53651106108747"><ele>166.33333333333331</ele><time>2026-03-21T14:58:52Z</time></trkpt><trkpt lat="40.75208189950872" lon="9.536442513591568"><ele>167.0</ele><time>2026-03-21T14:58:53Z</time></trkpt><trkpt lat="40.752206184289406" lon="9.536344631471701"><ele>165.66666666666666</ele><time>2026-03-21T14:58:54Z</time></trkpt><trkpt lat="40.752323410446415" lon="9.53621703551308"><ele>164.33333333333334</ele><time>2026-03-21T14:58:55Z</time></trkpt><trkpt lat="40.75243523416914" lon="9.536054839751376"><ele>163.0</ele><time>2026-03-21T14:58:56Z</time></trkpt><trkpt lat="40.752540714510644" lon="9.535879387244016"><ele>163.0</ele><time>2026-03-21T14:58:57Z</time></trkpt><trkpt lat="40.75263762200047" lon="9.535712983911166"><ele>163.0</ele><time>2026-03-21T14:58:58Z</time></trkpt><trkpt lat="40.752739681673965" lon="9.535556767406321"><ele>163.0</ele><time>2026-03-21T14:58:59Z</time></trkpt><trkpt lat="40.752846903022764" lon="9.535411775281489"><ele>161.33333333333334</ele><time>2026-03-21T14:59:00Z</time></trkpt><trkpt lat="40.75296450859575" lon="9.535300340984598"><ele>159.66666666666666</ele><time>2026-03-21T14:59:01Z</time></trkpt><trkpt lat="40.75310370509702" lon="9.5352354277921"><ele>158.0</ele><time>2026-03-21T14:59:02Z</time></trkpt><trkpt lat="40.753262650440334" lon="9.535194958429761"><ele>158.0</ele><time>2026-03-21T14:59:03Z</time></trkpt><trkpt lat="40.75342884244125" lon="9.535157693571202"><ele>158.0</ele><time>2026-03-21T14:59:04Z</time></trkpt><trkpt lat="40.7535922744002" lon="9.53510304611654"><ele>158.0</ele><time>2026-03-21T14:59:05Z</time></trkpt><trkpt lat="40.75375861049822" lon="9.535019861890824"><ele>157.66666666666666</ele><time>2026-03-21T14:59:06Z</time></trkpt><trkpt lat="40.753920008936774" lon="9.534912009516326"><ele>157.33333333333334</ele><time>2026-03-21T14:59:07Z</time></trkpt><trkpt lat="40.75407766972152" lon="9.534795327575859"><ele>157.0</ele><time>2026-03-21T14:59:08Z</time></trkpt><trkpt lat="40.754234845236304" lon="9.53468019375007"><ele>155.33333333333334</ele><time>2026-03-21T14:59:09Z</time></trkpt><trkpt lat="40.754392496286094" lon="9.534566203145676"><ele>153.66666666666666</ele><time>2026-03-21T14:59:10Z</time></trkpt><trkpt lat="40.75454333533247" lon="9.534458789257437"><ele>152.0</ele><time>2026-03-21T14:59:11Z</time></trkpt><trkpt lat="40.75468241952441" lon="9.53436432006194"><ele>151.66666666666666</ele><time>2026-03-21T14:59:12Z</time></trkpt><trkpt lat="40.75480929522442" lon="9.534259113781848"><ele>151.33333333333334</ele><time>2026-03-21T14:59:13Z</time></trkpt><trkpt lat="40.754920654884636" lon="9.534124439939207"><ele>151.0</ele><time>2026-03-21T14:59:14Z</time></trkpt><trkpt lat="40.75502567062966" lon="9.533964130173715"><ele>151.0</ele><time>2026-03-21T14:59:15Z</time></trkpt><trkpt lat="40.75512687978291" lon="9.533791526087708"><ele>151.0</ele><time>2026-03-21T14:59:16Z</time></trkpt><trkpt lat="40.75522934757116" lon="9.533607361602147"><ele>151.0</ele><time>2026-03-21T14:59:17Z</time></trkpt><trkpt lat="40.755338080224796" lon="9.533423364290881"><ele>150.66666666666669</ele><time>2026-03-21T14:59:18Z</time></trkpt><trkpt lat="40.75545159292389" lon="9.533236238351375"><ele>150.33333333333334</ele><time>2026-03-21T14:59:19Z</time></trkpt><trkpt lat="40.75556073086296" lon="9.53304610138455"><ele>150.0</ele><time>2026-03-21T14:59:20Z</time></trkpt><trkpt lat="40.75566781433016" lon="9.532856881082141"><ele>150.0</ele><time>2026-03-21T14:59:21Z</time></trkpt><trkpt lat="40.755773031012474" lon="9.532673295408086"><ele>150.0</ele><time>2026-03-21T14:59:22Z</time></trkpt><trkpt lat="40.75588202654301" lon="9.532482440265227"><ele>150.0</ele><time>2026-03-21T14:59:23Z</time></trkpt><trkpt lat="40.75598449976567" lon="9.532295425226364"><ele>148.33333333333334</ele><time>2026-03-21T14:59:24Z</time></trkpt><trkpt lat="40.756085348355946" lon="9.532108865158053"><ele>146.66666666666669</ele><time>2026-03-21T14:59:25Z</time></trkpt><trkpt lat="40.75618898447443" lon="9.531915272781465"><ele>145.0</ele><time>2026-03-21T14:59:26Z</time></trkpt><trkpt lat="40.756293860878905" lon="9.53172042190985"><ele>144.0</ele><time>2026-03-21T14:59:27Z</time></trkpt><trkpt lat="40.75639460241153" lon="9.531522076419197"><ele>143.0</ele><time>2026-03-21T14:59:28Z</time></trkpt><trkpt lat="40.75649796605159" lon="9.531333446725709"><ele>142.0</ele><time>2026-03-21T14:59:29Z</time></trkpt><trkpt lat="40.75660291852721" lon="9.531143720642628"><ele>141.33333333333334</ele><time>2026-03-21T14:59:30Z</time></trkpt><trkpt lat="40.75670619778503" lon="9.530949039306835"><ele>140.66666666666666</ele><time>2026-03-21T14:59:31Z</time></trkpt><trkpt lat="40.75681174927967" lon="9.530751283289518"><ele>140.0</ele><time>2026-03-21T14:59:32Z</time></trkpt><trkpt lat="40.75691503650058" lon="9.530547075819324"><ele>139.33333333333331</ele><time>2026-03-21T14:59:33Z</time></trkpt><trkpt lat="40.757012854823785" lon="9.530345246730205"><ele>138.66666666666666</ele><time>2026-03-21T14:59:34Z</time></trkpt><trkpt lat="40.757110166493206" lon="9.53014228386867"><ele>138.0</ele><time>2026-03-21T14:59:35Z</time></trkpt><trkpt lat="40.757206476736414" lon="9.529938537744908"><ele>138.0</ele><time>2026-03-21T14:59:36Z</time></trkpt><trkpt lat="40.757290844983594" lon="9.529749086865651"><ele>138.0</ele><time>2026-03-21T14:59:37Z</time></trkpt><trkpt lat="40.75736654341922" lon="9.529572178498528"><ele>138.0</ele><time>2026-03-21T14:59:38Z</time></trkpt><trkpt lat="40.757447047762916" lon="9.529421592058847"><ele>139.6</ele><time>2026-03-21T14:59:39Z</time></trkpt><trkpt lat="40.75753657455797" lon="9.52933512013165"><ele>141.20000000000002</ele><time>2026-03-21T14:59:40Z</time></trkpt><trkpt lat="40.75763677273311" lon="9.529293986632073"><ele>142.8</ele><time>2026-03-21T14:59:41Z</time></trkpt><trkpt lat="40.75774362853988" lon="9.529341749205567"><ele>144.4</ele><time>2026-03-21T14:59:42Z</time></trkpt><trkpt lat="40.75785881576706" lon="9.52938678179468"><ele>146.0</ele><time>2026-03-21T14:59:43Z</time></trkpt><trkpt lat="40.757974646274256" lon="9.529461906158346"><ele>146.0</ele><time>2026-03-21T14:59:44Z</time></trkpt><trkpt lat="40.75809829386546" lon="9.529533098449104"><ele>146.0</ele><time>2026-03-21T14:59:45Z</time></trkpt><trkpt lat="40.75823481408696" lon="9.529589637929098"><ele>146.0</ele><time>2026-03-21T14:59:46Z</time></trkpt><trkpt lat="40.75837782746578" lon="9.529659011845295"><ele>146.0</ele><time>2026-03-21T14:59:47Z</time></trkpt><trkpt lat="40.75852281756716" lon="9.52973135395325"><ele>144.33333333333331</ele><time>2026-03-21T14:59:48Z</time></trkpt><trkpt lat="40.75866919580603" lon="9.52981409125618"><ele>142.66666666666666</ele><time>2026-03-21T14:59:49Z</time></trkpt><trkpt lat="40.75883326257018" lon="9.529855741995606"><ele>141.0</ele><time>2026-03-21T14:59:50Z</time></trkpt><trkpt lat="40.75899176512073" lon="9.529884319264568"><ele>141.0</ele><time>2026-03-21T14:59:51Z</time></trkpt><trkpt lat="40.759139782060416" lon="9.529894950711657"><ele>141.0</ele><time>2026-03-21T14:59:52Z</time></trkpt><trkpt lat="40.75928872220276" lon="9.529855428918973"><ele>141.0</ele><time>2026-03-21T14:59:53Z</time></trkpt><trkpt lat="40.75943855262597" lon="9.529784007755604"><ele>140.66666666666666</ele><time>2026-03-21T14:59:54Z</time></trkpt><trkpt lat="40.759587457251435" lon="9.529681834720932"><ele>140.33333333333331</ele><time>2026-03-21T14:59:55Z</time></trkpt><trkpt lat="40.75973947755962" lon="9.529588281604646"><ele>140.0</ele><time>2026-03-21T14:59:56Z</time></trkpt><trkpt lat="40.75989178740475" lon="9.529496863122787"><ele>142.66666666666666</ele><time>2026-03-21T14:59:57Z</time></trkpt><trkpt lat="40.76003967989832" lon="9.529405583292323"><ele>145.33333333333334</ele><time>2026-03-21T14:59:58Z</time></trkpt><trkpt lat="40.76018536656161" lon="9.529324243280666"><ele>148.0</ele><time>2026-03-21T14:59:59.001Z</time></trkpt><trkpt lat="40.76033613384176" lon="9.529274796486561"><ele>148.0</ele><time>2026-03-21T15:00:00.001Z</time></trkpt><trkpt lat="40.760493687047244" lon="9.529267705659665"><ele>148.0</ele><time>2026-03-21T15:00:01.001Z</time></trkpt><trkpt lat="40.760652704793635" lon="9.529253254975758"><ele>148.0</ele><time>2026-03-21T15:00:02.001Z</time></trkpt><trkpt lat="40.76080956811509" lon="9.529228504708444"><ele>148.0</ele><time>2026-03-21T15:00:03.001Z</time></trkpt><trkpt lat="40.760956769789104" lon="9.529157996163182"><ele>148.0</ele><time>2026-03-21T15:00:04.001Z</time></trkpt><trkpt lat="40.761109803624215" lon="9.52909580104517"><ele>148.0</ele><time>2026-03-21T15:00:05.001Z</time></trkpt><trkpt lat="40.761245040025045" lon="9.528991153166897"><ele>148.33333333333334</ele><time>2026-03-21T15:00:06.001Z</time></trkpt><trkpt lat="40.7613675988159" lon="9.528868226675716"><ele>148.66666666666666</ele><time>2026-03-21T15:00:07.001Z</time></trkpt><trkpt lat="40.76148042500291" lon="9.5287228939349"><ele>149.0</ele><time>2026-03-21T15:00:08.001Z</time></trkpt><trkpt lat="40.76159437246777" lon="9.528577402498419"><ele>149.0</ele><time>2026-03-21T15:00:09Z</time></trkpt><trkpt lat="40.7617079689703" lon="9.528438622411601"><ele>149.0</ele><time>2026-03-21T15:00:10Z</time></trkpt><trkpt lat="40.76181818426676" lon="9.528297290576905"><ele>149.0</ele><time>2026-03-21T15:00:11Z</time></trkpt><trkpt lat="40.76192476631658" lon="9.52815303733855"><ele>149.33333333333331</ele><time>2026-03-21T15:00:12Z</time></trkpt><trkpt lat="40.762035597760914" lon="9.528006487079985"><ele>149.66666666666666</ele><time>2026-03-21T15:00:13Z</time></trkpt><trkpt lat="40.76214931212461" lon="9.527850661159531"><ele>150.0</ele><time>2026-03-21T15:00:14Z</time></trkpt><trkpt lat="40.76225893156939" lon="9.527684976479435"><ele>150.33333333333334</ele><time>2026-03-21T15:00:15Z</time></trkpt><trkpt lat="40.762369545799935" lon="9.527511508644789"><ele>150.66666666666669</ele><time>2026-03-21T15:00:16Z</time></trkpt><trkpt lat="40.762484029887524" lon="9.527339331337286"><ele>151.0</ele><time>2026-03-21T15:00:17Z</time></trkpt><trkpt lat="40.76259300289086" lon="9.527177182610423"><ele>152.0</ele><time>2026-03-21T15:00:18Z</time></trkpt><trkpt lat="40.762700547621975" lon="9.527019497321248"><ele>153.0</ele><time>2026-03-21T15:00:19Z</time></trkpt><trkpt lat="40.762802970192396" lon="9.526862703413302"><ele>154.0</ele><time>2026-03-21T15:00:20Z</time></trkpt><trkpt lat="40.76290692487755" lon="9.52670744583028"><ele>154.0</ele><time>2026-03-21T15:00:21Z</time></trkpt><trkpt lat="40.763007565522216" lon="9.52654965902455"><ele>154.0</ele><time>2026-03-21T15:00:22Z</time></trkpt><trkpt lat="40.76309648669095" lon="9.52637626353965"><ele>154.0</ele><time>2026-03-21T15:00:23Z</time></trkpt><trkpt lat="40.76316911667993" lon="9.526188685807501"><ele>155.0</ele><time>2026-03-21T15:00:24Z</time></trkpt><trkpt lat="40.76321119285041" lon="9.525984722735206"><ele>156.0</ele><time>2026-03-21T15:00:25Z</time></trkpt><trkpt lat="40.76323496086846" lon="9.525772264470604"><ele>157.0</ele><time>2026-03-21T15:00:26Z</time></trkpt><trkpt lat="40.7632403163917" lon="9.525558837505756"><ele>157.33333333333334</ele><time>2026-03-21T15:00:27Z</time></trkpt><trkpt lat="40.76324433425253" lon="9.525343023879476"><ele>157.66666666666666</ele><time>2026-03-21T15:00:28Z</time></trkpt><trkpt lat="40.76325103983789" lon="9.525132015738425"><ele>158.0</ele><time>2026-03-21T15:00:29Z</time></trkpt><trkpt lat="40.76325393421206" lon="9.524925312566644"><ele>158.0</ele><time>2026-03-21T15:00:30Z</time></trkpt><trkpt lat="40.763252050490145" lon="9.524724037488099"><ele>158.0</ele><time>2026-03-21T15:00:31Z</time></trkpt><trkpt lat="40.76324610120938" lon="9.524523864961147"><ele>158.0</ele><time>2026-03-21T15:00:32Z</time></trkpt><trkpt lat="40.763245210614336" lon="9.52432347448253"><ele>158.0</ele><time>2026-03-21T15:00:33Z</time></trkpt><trkpt lat="40.76325095501269" lon="9.524123130981181"><ele>158.0</ele><time>2026-03-21T15:00:34Z</time></trkpt><trkpt lat="40.763258422102446" lon="9.523921344452063"><ele>158.0</ele><time>2026-03-21T15:00:35Z</time></trkpt><trkpt lat="40.763256042501965" lon="9.523726340346396"><ele>158.25</ele><time>2026-03-21T15:00:36Z</time></trkpt><trkpt lat="40.763251951970275" lon="9.52353349624084"><ele>158.5</ele><time>2026-03-21T15:00:37Z</time></trkpt><trkpt lat="40.76324185665407" lon="9.523343530338293"><ele>158.75</ele><time>2026-03-21T15:00:38Z</time></trkpt><trkpt lat="40.76323106936669" lon="9.52314997930806"><ele>159.0</ele><time>2026-03-21T15:00:39Z</time></trkpt><trkpt lat="40.76322704406641" lon="9.52295202111739"><ele>159.2</ele><time>2026-03-21T15:00:40Z</time></trkpt><trkpt lat="40.763225220017574" lon="9.522769202704849"><ele>159.4</ele><time>2026-03-21T15:00:41Z</time></trkpt><trkpt lat="40.76321752505996" lon="9.5226075018507"><ele>159.6</ele><time>2026-03-21T15:00:42Z</time></trkpt><trkpt lat="40.76321292967462" lon="9.522485789749846"><ele>159.8</ele><time>2026-03-21T15:00:43Z</time></trkpt><trkpt lat="40.76322355865828" lon="9.522380917547062"><ele>160.0</ele><time>2026-03-21T15:00:44Z</time></trkpt><trkpt lat="40.76329833925372" lon="9.522329849067518"><ele>160.0</ele><time>2026-03-21T15:01:05Z</time></trkpt><trkpt lat="40.76337829360126" lon="9.522289172252393"><ele>160.0</ele><time>2026-03-21T15:01:06Z</time></trkpt><trkpt lat="40.76346150894029" lon="9.522254937060604"><ele>160.0</ele><time>2026-03-21T15:01:07Z</time></trkpt><trkpt lat="40.76356310969165" lon="9.522215487270467"><ele>160.0</ele><time>2026-03-21T15:01:08Z</time></trkpt><trkpt lat="40.763674354085275" lon="9.522175839734862"><ele>160.0</ele><time>2026-03-21T15:01:09Z</time></trkpt><trkpt lat="40.763792104508816" lon="9.522139999669323"><ele>160.0</ele><time>2026-03-21T15:01:10Z</time></trkpt><trkpt lat="40.763919833485716" lon="9.522102033024357"><ele>160.0</ele><time>2026-03-21T15:01:11Z</time></trkpt><trkpt lat="40.76403976379162" lon="9.522061882278594"><ele>160.0</ele><time>2026-03-21T15:01:12Z</time></trkpt><trkpt lat="40.764160442088524" lon="9.522018015107594"><ele>160.0</ele><time>2026-03-21T15:01:13Z</time></trkpt><trkpt lat="40.764281754970526" lon="9.521959561507016"><ele>160.25</ele><time>2026-03-21T15:01:14Z</time></trkpt><trkpt lat="40.76440309742583" lon="9.52188352891129"><ele>160.5</ele><time>2026-03-21T15:01:15Z</time></trkpt><trkpt lat="40.76452441678382" lon="9.52179332398992"><ele>160.75</ele><time>2026-03-21T15:01:16Z</time></trkpt><trkpt lat="40.7646572810863" lon="9.521685549839997"><ele>161.0</ele><time>2026-03-21T15:01:17Z</time></trkpt><trkpt lat="40.76478213175741" lon="9.521588495567604"><ele>161.0</ele><time>2026-03-21T15:01:18Z</time></trkpt><trkpt lat="40.7649095728763" lon="9.521497549007655"><ele>161.0</ele><time>2026-03-21T15:01:19Z</time></trkpt><trkpt lat="40.76504457364829" lon="9.521419236103748"><ele>161.0</ele><time>2026-03-21T15:01:20Z</time></trkpt><trkpt lat="40.76518888550756" lon="9.521352116307641"><ele>161.0</ele><time>2026-03-21T15:01:21Z</time></trkpt><trkpt lat="40.76531623981477" lon="9.521311366958589"><ele>160.75</ele><time>2026-03-21T15:01:22Z</time></trkpt><trkpt lat="40.765460498175194" lon="9.521275161394499"><ele>160.5</ele><time>2026-03-21T15:01:23Z</time></trkpt><trkpt lat="40.76559946449548" lon="9.521239237464728"><ele>160.25</ele><time>2026-03-21T15:01:24Z</time></trkpt><trkpt lat="40.76573483024859" lon="9.521195064968117"><ele>160.0</ele><time>2026-03-21T15:01:25Z</time></trkpt><trkpt lat="40.76588629304243" lon="9.521174861830826"><ele>160.33333333333334</ele><time>2026-03-21T15:01:26Z</time></trkpt><trkpt lat="40.76603135583153" lon="9.521146446683408"><ele>160.66666666666666</ele><time>2026-03-21T15:01:27Z</time></trkpt><trkpt lat="40.76618186822028" lon="9.521129047654888"><ele>161.0</ele><time>2026-03-21T15:01:28Z</time></trkpt><trkpt lat="40.76633331371013" lon="9.52110742421979"><ele>161.0</ele><time>2026-03-21T15:01:29Z</time></trkpt><trkpt lat="40.76648227872985" lon="9.521089669947846"><ele>161.0</ele><time>2026-03-21T15:01:30Z</time></trkpt><trkpt lat="40.76663122473372" lon="9.521074820023967"><ele>161.0</ele><time>2026-03-21T15:01:31Z</time></trkpt><trkpt lat="40.76677183607575" lon="9.521068647574973"><ele>161.0</ele><time>2026-03-21T15:01:32Z</time></trkpt><trkpt lat="40.7669229336544" lon="9.521064648058527"><ele>161.0</ele><time>2026-03-21T15:01:33Z</time></trkpt><trkpt lat="40.76707401584883" lon="9.521068320136285"><ele>161.0</ele><time>2026-03-21T15:01:34Z</time></trkpt><trkpt lat="40.767217108243955" lon="9.521083898679953"><ele>161.0</ele><time>2026-03-21T15:01:35Z</time></trkpt><trkpt lat="40.76734451410389" lon="9.521141916281781"><ele>161.0</ele><time>2026-03-21T15:01:36Z</time></trkpt><trkpt lat="40.767447214645614" lon="9.521240243286572"><ele>160.5</ele><time>2026-03-21T15:01:37Z</time></trkpt><trkpt lat="40.7675713379426" lon="9.521316206694708"><ele>160.0</ele><time>2026-03-21T15:01:38Z</time></trkpt><trkpt lat="40.76769161969554" lon="9.521393089519442"><ele>159.5</ele><time>2026-03-21T15:01:39Z</time></trkpt><trkpt lat="40.76780920462097" lon="9.52149224313796"><ele>159.0</ele><time>2026-03-21T15:01:40Z</time></trkpt><trkpt lat="40.767918902816355" lon="9.521612020831649"><ele>160.75</ele><time>2026-03-21T15:01:41Z</time></trkpt><trkpt lat="40.76802312522617" lon="9.521753650704712"><ele>162.5</ele><time>2026-03-21T15:01:42Z</time></trkpt><trkpt lat="40.76813254016276" lon="9.521835766283719"><ele>164.25</ele><time>2026-03-21T15:01:43Z</time></trkpt><trkpt lat="40.768268193642974" lon="9.521882531627602"><ele>166.0</ele><time>2026-03-21T15:01:44Z</time></trkpt><trkpt lat="40.7683987086965" lon="9.521940832860128"><ele>167.75</ele><time>2026-03-21T15:01:45Z</time></trkpt><trkpt lat="40.76852781164129" lon="9.521993046740542"><ele>169.5</ele><time>2026-03-21T15:01:46Z</time></trkpt><trkpt lat="40.7686643953586" lon="9.522016489374407"><ele>171.25</ele><time>2026-03-21T15:01:47Z</time></trkpt><trkpt lat="40.7688036724848" lon="9.522010064204704"><ele>173.0</ele><time>2026-03-21T15:01:48Z</time></trkpt><trkpt lat="40.76893213819745" lon="9.521946965495006"><ele>173.0</ele><time>2026-03-21T15:01:49Z</time></trkpt><trkpt lat="40.769051252916576" lon="9.521878983814958"><ele>173.0</ele><time>2026-03-21T15:01:50Z</time></trkpt><trkpt lat="40.76916860576916" lon="9.521815639433727"><ele>173.0</ele><time>2026-03-21T15:01:51Z</time></trkpt><trkpt lat="40.76928678859895" lon="9.521745697385755"><ele>173.0</ele><time>2026-03-21T15:01:52Z</time></trkpt><trkpt lat="40.76940683578851" lon="9.521680833272546"><ele>173.0</ele><time>2026-03-21T15:01:53Z</time></trkpt><trkpt lat="40.76953008185056" lon="9.521610518390796"><ele>173.0</ele><time>2026-03-21T15:01:54Z</time></trkpt><trkpt lat="40.76964579502587" lon="9.521527663502303"><ele>173.0</ele><time>2026-03-21T15:01:55Z</time></trkpt><trkpt lat="40.76976001814255" lon="9.521436665563973"><ele>173.0</ele><time>2026-03-21T15:01:56Z</time></trkpt><trkpt lat="40.76987716310291" lon="9.521369268065504"><ele>173.0</ele><time>2026-03-21T15:01:57Z</time></trkpt><trkpt lat="40.77000290386092" lon="9.521298981558118"><ele>173.0</ele><time>2026-03-21T15:01:58Z</time></trkpt><trkpt lat="40.770132704558065" lon="9.521232115777615"><ele>173.0</ele><time>2026-03-21T15:01:59Z</time></trkpt><trkpt lat="40.770268226867955" lon="9.521174415775581"><ele>173.0</ele><time>2026-03-21T15:02:00Z</time></trkpt><trkpt lat="40.770402440441785" lon="9.521118332438752"><ele>174.5</ele><time>2026-03-21T15:02:01Z</time></trkpt><trkpt lat="40.77053220335437" lon="9.521053981109182"><ele>176.0</ele><time>2026-03-21T15:02:02Z</time></trkpt><trkpt lat="40.77065415255098" lon="9.520978519299124"><ele>177.5</ele><time>2026-03-21T15:02:03Z</time></trkpt><trkpt lat="40.7707567923242" lon="9.520896924667753"><ele>179.0</ele><time>2026-03-21T15:02:04Z</time></trkpt><trkpt lat="40.77084996201927" lon="9.520800455392337"><ele>179.0</ele><time>2026-03-21T15:02:05Z</time></trkpt><trkpt lat="40.770949596372084" lon="9.520706178153114"><ele>179.0</ele><time>2026-03-21T15:02:06Z</time></trkpt><trkpt lat="40.77107440558914" lon="9.520613892158158"><ele>179.0</ele><time>2026-03-21T15:02:07Z</time></trkpt><trkpt lat="40.77120367044332" lon="9.520544312048118"><ele>179.0</ele><time>2026-03-21T15:02:08Z</time></trkpt><trkpt lat="40.77134695798321" lon="9.520482136632216"><ele>179.75</ele><time>2026-03-21T15:02:09Z</time></trkpt><trkpt lat="40.77149314542244" lon="9.520438394528314"><ele>180.5</ele><time>2026-03-21T15:02:10Z</time></trkpt><trkpt lat="40.77161788569754" lon="9.520385910849344"><ele>181.25</ele><time>2026-03-21T15:02:11Z</time></trkpt><trkpt lat="40.77173295894764" lon="9.520314568699833"><ele>182.0</ele><time>2026-03-21T15:02:12Z</time></trkpt><trkpt lat="40.771856860850626" lon="9.520244774533365"><ele>183.75</ele><time>2026-03-21T15:02:13Z</time></trkpt><trkpt lat="40.7719965316892" lon="9.520193237236748"><ele>185.5</ele><time>2026-03-21T15:02:14Z</time></trkpt><trkpt lat="40.77214407276297" lon="9.520152049720936"><ele>187.25</ele><time>2026-03-21T15:02:15Z</time></trkpt><trkpt lat="40.772282230090795" lon="9.520110542831173"><ele>189.0</ele><time>2026-03-21T15:02:16Z</time></trkpt><trkpt lat="40.77243016391705" lon="9.520060851409642"><ele>189.0</ele><time>2026-03-21T15:02:17Z</time></trkpt><trkpt lat="40.772582527094244" lon="9.520040427704568"><ele>189.0</ele><time>2026-03-21T15:02:18Z</time></trkpt><trkpt lat="40.77274126897452" lon="9.520022535632283"><ele>189.0</ele><time>2026-03-21T15:02:19Z</time></trkpt><trkpt lat="40.77289727005138" lon="9.520001346402037"><ele>188.66666666666666</ele><time>2026-03-21T15:02:20Z</time></trkpt><trkpt lat="40.77305319003448" lon="9.519986064341607"><ele>188.33333333333331</ele><time>2026-03-21T15:02:21Z</time></trkpt><trkpt lat="40.773211752906604" lon="9.519978353351908"><ele>188.0</ele><time>2026-03-21T15:02:22Z</time></trkpt><trkpt lat="40.77336818468096" lon="9.519948607250887"><ele>188.66666666666666</ele><time>2026-03-21T15:02:23Z</time></trkpt><trkpt lat="40.773528785067704" lon="9.51991662057473"><ele>189.33333333333334</ele><time>2026-03-21T15:02:24Z</time></trkpt><trkpt lat="40.77368293237517" lon="9.51986032997612"><ele>190.0</ele><time>2026-03-21T15:02:25Z</time></trkpt><trkpt lat="40.773840365469546" lon="9.519798034788112"><ele>190.0</ele><time>2026-03-21T15:02:26Z</time></trkpt><trkpt lat="40.7739917808009" lon="9.51973123241019"><ele>190.0</ele><time>2026-03-21T15:02:27Z</time></trkpt><trkpt lat="40.7741412387989" lon="9.51964900761653"><ele>190.0</ele><time>2026-03-21T15:02:28Z</time></trkpt><trkpt lat="40.7742849746627" lon="9.519556942479493"><ele>189.66666666666669</ele><time>2026-03-21T15:02:29Z</time></trkpt><trkpt lat="40.774429097100644" lon="9.519461610715359"><ele>189.33333333333334</ele><time>2026-03-21T15:02:30Z</time></trkpt><trkpt lat="40.77457410792663" lon="9.519365879668486"><ele>189.0</ele><time>2026-03-21T15:02:31Z</time></trkpt><trkpt lat="40.7747209685052" lon="9.519270297638126"><ele>189.0</ele><time>2026-03-21T15:02:32Z</time></trkpt><trkpt lat="40.77486618716918" lon="9.519174274528588"><ele>189.0</ele><time>2026-03-21T15:02:33Z</time></trkpt><trkpt lat="40.775012978797044" lon="9.519074704551397"><ele>189.0</ele><time>2026-03-21T15:02:34Z</time></trkpt><trkpt lat="40.77516186079313" lon="9.51897550143006"><ele>189.33333333333334</ele><time>2026-03-21T15:02:35Z</time></trkpt><trkpt lat="40.77531544426526" lon="9.518882705242813"><ele>189.66666666666669</ele><time>2026-03-21T15:02:36Z</time></trkpt><trkpt lat="40.77547279841863" lon="9.518789976247064"><ele>190.0</ele><time>2026-03-21T15:02:37Z</time></trkpt><trkpt lat="40.775634736365625" lon="9.518695714879424"><ele>190.33333333333334</ele><time>2026-03-21T15:02:38Z</time></trkpt><trkpt lat="40.77579858058102" lon="9.518607019898118"><ele>190.66666666666666</ele><time>2026-03-21T15:02:39Z</time></trkpt><trkpt lat="40.77595951770217" lon="9.518519568619647"><ele>191.0</ele><time>2026-03-21T15:02:40Z</time></trkpt><trkpt lat="40.77611164939119" lon="9.518439385974233"><ele>191.66666666666666</ele><time>2026-03-21T15:02:41Z</time></trkpt><trkpt lat="40.77626707529064" lon="9.518359966086436"><ele>192.33333333333331</ele><time>2026-03-21T15:02:42Z</time></trkpt><trkpt lat="40.77642415667532" lon="9.518274038530434"><ele>193.0</ele><time>2026-03-21T15:02:43Z</time></trkpt><trkpt lat="40.77657979477535" lon="9.51819007270206"><ele>193.0</ele><time>2026-03-21T15:02:44Z</time></trkpt><trkpt lat="40.77673768724938" lon="9.518100272075795"><ele>193.0</ele><time>2026-03-21T15:02:45Z</time></trkpt><trkpt lat="40.77689608848337" lon="9.518014961243088"><ele>193.0</ele><time>2026-03-21T15:02:46Z</time></trkpt><trkpt lat="40.77705396166935" lon="9.517933152753338"><ele>195.0</ele><time>2026-03-21T15:02:47Z</time></trkpt><trkpt lat="40.77721196065594" lon="9.517845733524897"><ele>197.0</ele><time>2026-03-21T15:02:48Z</time></trkpt><trkpt lat="40.777372002812655" lon="9.517761147155113"><ele>199.0</ele><time>2026-03-21T15:02:49Z</time></trkpt><trkpt lat="40.77752775516558" lon="9.517681340310382"><ele>196.66666666666666</ele><time>2026-03-21T15:02:50Z</time></trkpt><trkpt lat="40.77768613986608" lon="9.51760024038494"><ele>194.33333333333331</ele><time>2026-03-21T15:02:51Z</time></trkpt><trkpt lat="40.77784482033199" lon="9.51752241482864"><ele>192.0</ele><time>2026-03-21T15:02:52Z</time></trkpt><trkpt lat="40.778003619556735" lon="9.517443721388176"><ele>192.0</ele><time>2026-03-21T15:02:53Z</time></trkpt><trkpt lat="40.77815854282645" lon="9.51737101049775"><ele>192.0</ele><time>2026-03-21T15:02:54Z</time></trkpt><trkpt lat="40.77831373439623" lon="9.517294907478444"><ele>192.0</ele><time>2026-03-21T15:02:55Z</time></trkpt><trkpt lat="40.778471693759414" lon="9.517223252844957"><ele>189.66666666666666</ele><time>2026-03-21T15:02:56Z</time></trkpt><trkpt lat="40.778632259695954" lon="9.517144977100795"><ele>187.33333333333331</ele><time>2026-03-21T15:02:57Z</time></trkpt><trkpt lat="40.778792971563185" lon="9.517069050945452"><ele>185.0</ele><time>2026-03-21T15:02:58Z</time></trkpt><trkpt lat="40.77895315188293" lon="9.516996388862134"><ele>185.0</ele><time>2026-03-21T15:02:59Z</time></trkpt><trkpt lat="40.77911616332331" lon="9.516922575547875"><ele>185.0</ele><time>2026-03-21T15:03:00Z</time></trkpt><trkpt lat="40.779279421570216" lon="9.516852236536048"><ele>185.0</ele><time>2026-03-21T15:03:01Z</time></trkpt><trkpt lat="40.77943842437501" lon="9.516782578515262"><ele>187.0</ele><time>2026-03-21T15:03:02Z</time></trkpt><trkpt lat="40.7796017710199" lon="9.516712062130885"><ele>189.0</ele><time>2026-03-21T15:03:03Z</time></trkpt><trkpt lat="40.77976216410733" lon="9.516642716757293"><ele>191.0</ele><time>2026-03-21T15:03:04Z</time></trkpt><trkpt lat="40.77991812320827" lon="9.516574044087697"><ele>191.0</ele><time>2026-03-21T15:03:05Z</time></trkpt><trkpt lat="40.780074056424255" lon="9.516503409211184"><ele>191.0</ele><time>2026-03-21T15:03:06Z</time></trkpt><trkpt lat="40.78022922956055" lon="9.516434083536945"><ele>191.0</ele><time>2026-03-21T15:03:07Z</time></trkpt><trkpt lat="40.78038331148789" lon="9.516366141750245"><ele>194.0</ele><time>2026-03-21T15:03:08Z</time></trkpt><trkpt lat="40.780536406228094" lon="9.516297809297349"><ele>197.0</ele><time>2026-03-21T15:03:09Z</time></trkpt><trkpt lat="40.780692745082156" lon="9.516229839648378"><ele>200.0</ele><time>2026-03-21T15:03:10Z</time></trkpt><trkpt lat="40.78085145614222" lon="9.516165024143417"><ele>200.66666666666669</ele><time>2026-03-21T15:03:11Z</time></trkpt><trkpt lat="40.78100971276329" lon="9.516099685525564"><ele>201.33333333333331</ele><time>2026-03-21T15:03:12Z</time></trkpt><trkpt lat="40.781166205181364" lon="9.51603284789519"><ele>202.0</ele><time>2026-03-21T15:03:13Z</time></trkpt><trkpt lat="40.78132390488927" lon="9.51596677026363"><ele>205.33333333333331</ele><time>2026-03-21T15:03:14Z</time></trkpt><trkpt lat="40.78148415764892" lon="9.51590542270145"><ele>208.66666666666669</ele><time>2026-03-21T15:03:15Z</time></trkpt><trkpt lat="40.78164162398339" lon="9.515849473800289"><ele>212.0</ele><time>2026-03-21T15:03:16Z</time></trkpt><trkpt lat="40.78180042065077" lon="9.515806451970906"><ele>214.33333333333334</ele><time>2026-03-21T15:03:17Z</time></trkpt><trkpt lat="40.78195218855627" lon="9.515768277863225"><ele>216.66666666666669</ele><time>2026-03-21T15:03:18Z</time></trkpt><trkpt lat="40.78210831350773" lon="9.515748709442999"><ele>219.0</ele><time>2026-03-21T15:03:19Z</time></trkpt><trkpt lat="40.782268541084804" lon="9.515727435888351"><ele>219.0</ele><time>2026-03-21T15:03:20Z</time></trkpt><trkpt lat="40.7824314714781" lon="9.515717452500311"><ele>219.0</ele><time>2026-03-21T15:03:21Z</time></trkpt><trkpt lat="40.782599292338126" lon="9.515718377535487"><ele>219.0</ele><time>2026-03-21T15:03:22Z</time></trkpt><trkpt lat="40.782769307016856" lon="9.51572051762607"><ele>221.0</ele><time>2026-03-21T15:03:23Z</time></trkpt><trkpt lat="40.782943529612496" lon="9.515733778255852"><ele>223.0</ele><time>2026-03-21T15:03:24Z</time></trkpt><trkpt lat="40.78311307418436" lon="9.515758668775225"><ele>225.0</ele><time>2026-03-21T15:03:25Z</time></trkpt><trkpt lat="40.7832795229163" lon="9.515787206159223"><ele>225.0</ele><time>2026-03-21T15:03:26Z</time></trkpt><trkpt lat="40.78344236993979" lon="9.515833618421038"><ele>225.0</ele><time>2026-03-21T15:03:27Z</time></trkpt><trkpt lat="40.78360192464817" lon="9.51587719580871"><ele>225.0</ele><time>2026-03-21T15:03:28Z</time></trkpt><trkpt lat="40.783761687167974" lon="9.515925298203229"><ele>230.0</ele><time>2026-03-21T15:03:29Z</time></trkpt><trkpt lat="40.78391991006959" lon="9.515990336072738"><ele>235.0</ele><time>2026-03-21T15:03:30Z</time></trkpt><trkpt lat="40.78407660101503" lon="9.516062076234368"><ele>240.0</ele><time>2026-03-21T15:03:31Z</time></trkpt><trkpt lat="40.784231845878054" lon="9.516140432850305"><ele>239.0</ele><time>2026-03-21T15:03:32Z</time></trkpt><trkpt lat="40.78438500520061" lon="9.516231533489611"><ele>238.0</ele><time>2026-03-21T15:03:33Z</time></trkpt><trkpt lat="40.78453902688636" lon="9.516331124234473"><ele>237.0</ele><time>2026-03-21T15:03:34Z</time></trkpt><trkpt lat="40.78468639862431" lon="9.516435842822041"><ele>237.0</ele><time>2026-03-21T15:03:35Z</time></trkpt><trkpt lat="40.784831370461205" lon="9.51654485265283"><ele>237.0</ele><time>2026-03-21T15:03:36Z</time></trkpt><trkpt lat="40.7849763805673" lon="9.51665606130977"><ele>237.0</ele><time>2026-03-21T15:03:37Z</time></trkpt><trkpt lat="40.78512253193329" lon="9.51676764829838"><ele>240.33333333333331</ele><time>2026-03-21T15:03:38Z</time></trkpt><trkpt lat="40.785274236353764" lon="9.51687234357482"><ele>243.66666666666666</ele><time>2026-03-21T15:03:39Z</time></trkpt><trkpt lat="40.7854358601346" lon="9.51696225411426"><ele>247.0</ele><time>2026-03-21T15:03:40Z</time></trkpt><trkpt lat="40.78560272912065" lon="9.517044111299377"><ele>248.66666666666666</ele><time>2026-03-21T15:03:41Z</time></trkpt><trkpt lat="40.78576134660453" lon="9.517114075000636"><ele>250.33333333333331</ele><time>2026-03-21T15:03:42Z</time></trkpt><trkpt lat="40.78592574275823" lon="9.51717079131289"><ele>252.0</ele><time>2026-03-21T15:03:43Z</time></trkpt><trkpt lat="40.786095558481215" lon="9.517217386960851"><ele>252.0</ele><time>2026-03-21T15:03:44Z</time></trkpt><trkpt lat="40.78626420268798" lon="9.517251018117111"><ele>252.0</ele><time>2026-03-21T15:03:45Z</time></trkpt><trkpt lat="40.786432149211684" lon="9.517278407374711"><ele>252.0</ele><time>2026-03-21T15:03:46Z</time></trkpt><trkpt lat="40.78660420251289" lon="9.517295135504563"><ele>252.0</ele><time>2026-03-21T15:03:47Z</time></trkpt><trkpt lat="40.78677604837633" lon="9.517305652716855"><ele>252.0</ele><time>2026-03-21T15:03:48Z</time></trkpt><trkpt lat="40.78695186839655" lon="9.517290039478889"><ele>252.0</ele><time>2026-03-21T15:03:49Z</time></trkpt><trkpt lat="40.78712314299819" lon="9.51726064162633"><ele>253.66666666666669</ele><time>2026-03-21T15:03:50Z</time></trkpt><trkpt lat="40.78728760215312" lon="9.51723562812"><ele>255.33333333333334</ele><time>2026-03-21T15:03:51Z</time></trkpt><trkpt lat="40.78745339803527" lon="9.517196323972799"><ele>257.0</ele><time>2026-03-21T15:03:52Z</time></trkpt><trkpt lat="40.78762248608372" lon="9.51715574229499"><ele>256.0</ele><time>2026-03-21T15:03:53Z</time></trkpt><trkpt lat="40.787792760073444" lon="9.517119458626233"><ele>255.0</ele><time>2026-03-21T15:03:54Z</time></trkpt><trkpt lat="40.78796627554035" lon="9.517082074462003"><ele>254.0</ele><time>2026-03-21T15:03:55Z</time></trkpt><trkpt lat="40.78814011309569" lon="9.517045647684373"><ele>254.0</ele><time>2026-03-21T15:03:56Z</time></trkpt><trkpt lat="40.78830600939341" lon="9.517008406532636"><ele>254.0</ele><time>2026-03-21T15:03:57Z</time></trkpt><trkpt lat="40.78847327770235" lon="9.51696596544401"><ele>254.0</ele><time>2026-03-21T15:03:58Z</time></trkpt><trkpt lat="40.788655262782605" lon="9.516925467488605"><ele>248.0</ele><time>2026-03-21T15:03:59Z</time></trkpt><trkpt lat="40.788833993435084" lon="9.516873968170993"><ele>242.0</ele><time>2026-03-21T15:04:00Z</time></trkpt><trkpt lat="40.78901259383317" lon="9.51682776442343"><ele>236.0</ele><time>2026-03-21T15:04:01Z</time></trkpt><trkpt lat="40.78918891127109" lon="9.516784992518208"><ele>232.0</ele><time>2026-03-21T15:04:02Z</time></trkpt><trkpt lat="40.789369344285056" lon="9.516736503552051"><ele>228.0</ele><time>2026-03-21T15:04:03Z</time></trkpt><trkpt lat="40.7895521370576" lon="9.516690178889291"><ele>224.0</ele><time>2026-03-21T15:04:04Z</time></trkpt><trkpt lat="40.78973489498915" lon="9.516657831813715"><ele>224.0</ele><time>2026-03-21T15:04:05Z</time></trkpt><trkpt lat="40.78991909558727" lon="9.516611310265814"><ele>224.0</ele><time>2026-03-21T15:04:06Z</time></trkpt><trkpt lat="40.79008956751843" lon="9.516586734552098"><ele>224.0</ele><time>2026-03-21T15:04:07Z</time></trkpt><trkpt lat="40.7902705447255" lon="9.516554546363206"><ele>220.0</ele><time>2026-03-21T15:04:08Z</time></trkpt><trkpt lat="40.79045093892753" lon="9.516530176816321"><ele>216.0</ele><time>2026-03-21T15:04:09Z</time></trkpt><trkpt lat="40.79062679599684" lon="9.516521964239864"><ele>212.0</ele><time>2026-03-21T15:04:10Z</time></trkpt><trkpt lat="40.79079529614122" lon="9.516518047604968"><ele>212.0</ele><time>2026-03-21T15:04:11Z</time></trkpt><trkpt lat="40.79096109551671" lon="9.516516508847058"><ele>212.0</ele><time>2026-03-21T15:04:12Z</time></trkpt><trkpt lat="40.79113151782121" lon="9.516518336924234"><ele>212.0</ele><time>2026-03-21T15:04:13Z</time></trkpt><trkpt lat="40.79129659457107" lon="9.516526717934461"><ele>208.33333333333334</ele><time>2026-03-21T15:04:14Z</time></trkpt><trkpt lat="40.79146446861813" lon="9.51652814204026"><ele>204.66666666666669</ele><time>2026-03-21T15:04:15.001Z</time></trkpt><trkpt lat="40.791631752887945" lon="9.516527894751842"><ele>201.0</ele><time>2026-03-21T15:04:16.001Z</time></trkpt><trkpt lat="40.7918045134829" lon="9.51653232446033"><ele>200.66666666666669</ele><time>2026-03-21T15:04:17.001Z</time></trkpt><trkpt lat="40.79198186178038" lon="9.516539467338026"><ele>200.33333333333334</ele><time>2026-03-21T15:04:18.001Z</time></trkpt><trkpt lat="40.792162304414354" lon="9.516551699290728"><ele>200.0</ele><time>2026-03-21T15:04:19.001Z</time></trkpt><trkpt lat="40.79233356628536" lon="9.51657169488897"><ele>200.0</ele><time>2026-03-21T15:04:20.001Z</time></trkpt><trkpt lat="40.79251105116162" lon="9.51658773227838"><ele>200.0</ele><time>2026-03-21T15:04:21Z</time></trkpt><trkpt lat="40.79268864822046" lon="9.51660237626332"><ele>200.0</ele><time>2026-03-21T15:04:22Z</time></trkpt><trkpt lat="40.79286819582528" lon="9.516617001168216"><ele>199.33333333333334</ele><time>2026-03-21T15:04:23Z</time></trkpt><trkpt lat="40.79305420936981" lon="9.516628654847999"><ele>198.66666666666669</ele><time>2026-03-21T15:04:24Z</time></trkpt><trkpt lat="40.793233964316556" lon="9.51664344890642"><ele>198.0</ele><time>2026-03-21T15:04:25Z</time></trkpt><trkpt lat="40.79341223373245" lon="9.51664966592587"><ele>195.33333333333334</ele><time>2026-03-21T15:04:26Z</time></trkpt><trkpt lat="40.79359456370457" lon="9.516658169151896"><ele>192.66666666666669</ele><time>2026-03-21T15:04:27Z</time></trkpt><trkpt lat="40.79377714143362" lon="9.516665408942231"><ele>190.0</ele><time>2026-03-21T15:04:28Z</time></trkpt><trkpt lat="40.793955966827255" lon="9.516661837403655"><ele>190.0</ele><time>2026-03-21T15:04:29Z</time></trkpt><trkpt lat="40.79413783001775" lon="9.516643612786986"><ele>190.0</ele><time>2026-03-21T15:04:30Z</time></trkpt><trkpt lat="40.79432270917741" lon="9.51662323181312"><ele>190.0</ele><time>2026-03-21T15:04:31Z</time></trkpt><trkpt lat="40.794508245178775" lon="9.516603456117252"><ele>188.33333333333334</ele><time>2026-03-21T15:04:32Z</time></trkpt><trkpt lat="40.79469449083366" lon="9.516587733538788"><ele>186.66666666666666</ele><time>2026-03-21T15:04:33Z</time></trkpt><trkpt lat="40.79487624711253" lon="9.516571680515604"><ele>185.0</ele><time>2026-03-21T15:04:34Z</time></trkpt><trkpt lat="40.79505955759069" lon="9.516553498720807"><ele>183.0</ele><time>2026-03-21T15:04:35Z</time></trkpt><trkpt lat="40.79524107644609" lon="9.51653421017553"><ele>181.0</ele><time>2026-03-21T15:04:36Z</time></trkpt><trkpt lat="40.7954206623905" lon="9.516523112399252"><ele>179.0</ele><time>2026-03-21T15:04:37Z</time></trkpt><trkpt lat="40.79559666963835" lon="9.516521914710584"><ele>179.0</ele><time>2026-03-21T15:04:38Z</time></trkpt><trkpt lat="40.7957702110547" lon="9.516534992917322"><ele>179.0</ele><time>2026-03-21T15:04:39Z</time></trkpt><trkpt lat="40.79594267159419" lon="9.51655102042241"><ele>179.0</ele><time>2026-03-21T15:04:40Z</time></trkpt><trkpt lat="40.796116303315166" lon="9.516562872176491"><ele>177.0</ele><time>2026-03-21T15:04:41Z</time></trkpt><trkpt lat="40.79629199381941" lon="9.516572546541626"><ele>175.0</ele><time>2026-03-21T15:04:42Z</time></trkpt><trkpt lat="40.79646420390094" lon="9.516583554646862"><ele>173.0</ele><time>2026-03-21T15:04:43Z</time></trkpt><trkpt lat="40.796639168857396" lon="9.516589214451011"><ele>173.0</ele><time>2026-03-21T15:04:44Z</time></trkpt><trkpt lat="40.796808822246" lon="9.51660365039442"><ele>173.0</ele><time>2026-03-21T15:04:45Z</time></trkpt><trkpt lat="40.79697155323032" lon="9.516621193340706"><ele>173.0</ele><time>2026-03-21T15:04:46Z</time></trkpt><trkpt lat="40.79713488716675" lon="9.516641781888241"><ele>171.66666666666666</ele><time>2026-03-21T15:04:47Z</time></trkpt><trkpt lat="40.79730763176619" lon="9.516655113563877"><ele>170.33333333333334</ele><time>2026-03-21T15:04:48Z</time></trkpt><trkpt lat="40.79748763993492" lon="9.51666929867268"><ele>169.0</ele><time>2026-03-21T15:04:49Z</time></trkpt><trkpt lat="40.79767825910078" lon="9.516674479953661"><ele>167.0</ele><time>2026-03-21T15:04:50Z</time></trkpt><trkpt lat="40.79786388708481" lon="9.516674729027343"><ele>165.0</ele><time>2026-03-21T15:04:51Z</time></trkpt><trkpt lat="40.79804940144325" lon="9.516673327736942"><ele>163.0</ele><time>2026-03-21T15:04:52Z</time></trkpt><trkpt lat="40.79825370927489" lon="9.51667318387808"><ele>163.0</ele><time>2026-03-21T15:04:53Z</time></trkpt><trkpt lat="40.79849643254706" lon="9.516674178717471"><ele>163.0</ele><time>2026-03-21T15:04:54Z</time></trkpt><trkpt lat="40.79868506246827" lon="9.51667582322788"><ele>163.0</ele><time>2026-03-21T15:04:55Z</time></trkpt><trkpt lat="40.798871198010495" lon="9.516655042856934"><ele>159.0</ele><time>2026-03-21T15:04:56Z</time></trkpt><trkpt lat="40.799048527785345" lon="9.516608809023335"><ele>155.0</ele><time>2026-03-21T15:04:57Z</time></trkpt><trkpt lat="40.79922242178106" lon="9.516542309592932"><ele>151.0</ele><time>2026-03-21T15:04:58Z</time></trkpt><trkpt lat="40.79939151070633" lon="9.516449914737189"><ele>149.66666666666669</ele><time>2026-03-21T15:04:59Z</time></trkpt><trkpt lat="40.799554732622056" lon="9.51634543343471"><ele>148.33333333333334</ele><time>2026-03-21T15:05:00Z</time></trkpt><trkpt lat="40.79971739399175" lon="9.5162353502187"><ele>147.0</ele><time>2026-03-21T15:05:01Z</time></trkpt><trkpt lat="40.79988077560216" lon="9.516140975786437"><ele>147.0</ele><time>2026-03-21T15:05:02Z</time></trkpt><trkpt lat="40.800046493967336" lon="9.516038076440049"><ele>147.0</ele><time>2026-03-21T15:05:03Z</time></trkpt><trkpt lat="40.80021279937409" lon="9.515933434257155"><ele>147.0</ele><time>2026-03-21T15:05:04Z</time></trkpt><trkpt lat="40.800379270068476" lon="9.515829135965722"><ele>142.33333333333334</ele><time>2026-03-21T15:05:05Z</time></trkpt><trkpt lat="40.800547341209224" lon="9.515719798428647"><ele>137.66666666666669</ele><time>2026-03-21T15:05:06Z</time></trkpt><trkpt lat="40.80071295510445" lon="9.515611886237789"><ele>133.0</ele><time>2026-03-21T15:05:07Z</time></trkpt><trkpt lat="40.800883416855875" lon="9.515506672702825"><ele>133.0</ele><time>2026-03-21T15:05:08Z</time></trkpt><trkpt lat="40.801052627346145" lon="9.515404027647515"><ele>133.0</ele><time>2026-03-21T15:05:09Z</time></trkpt><trkpt lat="40.801224137516265" lon="9.51529425497995"><ele>133.0</ele><time>2026-03-21T15:05:10Z</time></trkpt><trkpt lat="40.80139394339573" lon="9.515181988821443"><ele>133.0</ele><time>2026-03-21T15:05:11Z</time></trkpt><trkpt lat="40.801563796800444" lon="9.515070655162827"><ele>133.0</ele><time>2026-03-21T15:05:12Z</time></trkpt><trkpt lat="40.801735264824934" lon="9.514962644616276"><ele>133.0</ele><time>2026-03-21T15:05:13Z</time></trkpt><trkpt lat="40.801904590694114" lon="9.51485599099014"><ele>130.0</ele><time>2026-03-21T15:05:14Z</time></trkpt><trkpt lat="40.802070168377384" lon="9.514751336263926"><ele>127.0</ele><time>2026-03-21T15:05:15Z</time></trkpt><trkpt lat="40.80222791124095" lon="9.514651227610955"><ele>124.0</ele><time>2026-03-21T15:05:16Z</time></trkpt><trkpt lat="40.80238130369917" lon="9.514555144223472"><ele>124.0</ele><time>2026-03-21T15:05:17Z</time></trkpt><trkpt lat="40.802534815436914" lon="9.51446545461521"><ele>124.0</ele><time>2026-03-21T15:05:18Z</time></trkpt><trkpt lat="40.80269342401745" lon="9.514398105090839"><ele>124.0</ele><time>2026-03-21T15:05:19Z</time></trkpt><trkpt lat="40.80285845513484" lon="9.514380288390354"><ele>120.66666666666667</ele><time>2026-03-21T15:05:20Z</time></trkpt><trkpt lat="40.803021347525366" lon="9.51438477675342"><ele>117.33333333333334</ele><time>2026-03-21T15:05:21Z</time></trkpt><trkpt lat="40.80318138902893" lon="9.51439553859043"><ele>114.0</ele><time>2026-03-21T15:05:22Z</time></trkpt><trkpt lat="40.80333448151517" lon="9.514393882550984"><ele>114.0</ele><time>2026-03-21T15:05:23Z</time></trkpt><trkpt lat="40.803490549538445" lon="9.514377056031918"><ele>114.0</ele><time>2026-03-21T15:05:24Z</time></trkpt><trkpt lat="40.803652739115414" lon="9.51437960445869"><ele>114.0</ele><time>2026-03-21T15:05:25Z</time></trkpt><trkpt lat="40.80381696805825" lon="9.514376503015185"><ele>111.33333333333334</ele><time>2026-03-21T15:05:26Z</time></trkpt><trkpt lat="40.80398804838105" lon="9.514378376826365"><ele>108.66666666666667</ele><time>2026-03-21T15:05:27Z</time></trkpt><trkpt lat="40.804162872292096" lon="9.51438910142958"><ele>106.0</ele><time>2026-03-21T15:05:28Z</time></trkpt><trkpt lat="40.80433152999921" lon="9.514425858050545"><ele>104.66666666666667</ele><time>2026-03-21T15:05:29Z</time></trkpt><trkpt lat="40.804500340209685" lon="9.51448776374232"><ele>103.33333333333334</ele><time>2026-03-21T15:05:30Z</time></trkpt><trkpt lat="40.804668260174246" lon="9.51456691313056"><ele>102.0</ele><time>2026-03-21T15:05:31Z</time></trkpt><trkpt lat="40.80483289204489" lon="9.51466067678397"><ele>101.66666666666666</ele><time>2026-03-21T15:05:32Z</time></trkpt><trkpt lat="40.80499291594554" lon="9.514766919920255"><ele>101.33333333333333</ele><time>2026-03-21T15:05:33Z</time></trkpt><trkpt lat="40.80515938717205" lon="9.514880035647126"><ele>101.0</ele><time>2026-03-21T15:05:34Z</time></trkpt><trkpt lat="40.80532781085985" lon="9.514985373679584"><ele>99.33333333333333</ele><time>2026-03-21T15:05:35Z</time></trkpt><trkpt lat="40.80548939461157" lon="9.515083332049716"><ele>97.66666666666666</ele><time>2026-03-21T15:05:36Z</time></trkpt><trkpt lat="40.805652270306794" lon="9.51518527629095"><ele>96.0</ele><time>2026-03-21T15:05:37Z</time></trkpt><trkpt lat="40.80581962448044" lon="9.5152880966184"><ele>94.0</ele><time>2026-03-21T15:05:38Z</time></trkpt><trkpt lat="40.80599843690627" lon="9.515364917371427"><ele>92.0</ele><time>2026-03-21T15:05:39Z</time></trkpt><trkpt lat="40.80617632506183" lon="9.515405191141655"><ele>90.0</ele><time>2026-03-21T15:05:40Z</time></trkpt><trkpt lat="40.806357963201656" lon="9.51542439634871"><ele>89.0</ele><time>2026-03-21T15:05:41Z</time></trkpt><trkpt lat="40.806541415396595" lon="9.515446159896277"><ele>88.0</ele><time>2026-03-21T15:05:42Z</time></trkpt><trkpt lat="40.80672123387101" lon="9.51547641284787"><ele>87.0</ele><time>2026-03-21T15:05:43Z</time></trkpt><trkpt lat="40.80690378195372" lon="9.51550481337253"><ele>86.66666666666667</ele><time>2026-03-21T15:05:44Z</time></trkpt><trkpt lat="40.807085462783235" lon="9.515514846845452"><ele>86.33333333333334</ele><time>2026-03-21T15:05:45Z</time></trkpt><trkpt lat="40.80725999594757" lon="9.515489966582082"><ele>86.0</ele><time>2026-03-21T15:05:46Z</time></trkpt><trkpt lat="40.80743257812978" lon="9.51544009790437"><ele>86.33333333333334</ele><time>2026-03-21T15:05:47Z</time></trkpt><trkpt lat="40.807605487608754" lon="9.515376594131746"><ele>86.66666666666667</ele><time>2026-03-21T15:05:48Z</time></trkpt><trkpt lat="40.80778068326308" lon="9.515315003634587"><ele>87.0</ele><time>2026-03-21T15:05:49Z</time></trkpt><trkpt lat="40.80795188873157" lon="9.515257501547033"><ele>87.0</ele><time>2026-03-21T15:05:50Z</time></trkpt><trkpt lat="40.80812327570002" lon="9.515200844418871"><ele>87.0</ele><time>2026-03-21T15:05:51Z</time></trkpt><trkpt lat="40.808293987604394" lon="9.515143448584995"><ele>87.0</ele><time>2026-03-21T15:05:52Z</time></trkpt><trkpt lat="40.80846899276913" lon="9.515086483837782"><ele>86.66666666666667</ele><time>2026-03-21T15:05:53Z</time></trkpt><trkpt lat="40.808646702742074" lon="9.515037700408648"><ele>86.33333333333334</ele><time>2026-03-21T15:05:54Z</time></trkpt><trkpt lat="40.80882975152417" lon="9.514984738964431"><ele>86.0</ele><time>2026-03-21T15:05:55Z</time></trkpt><trkpt lat="40.809011350847285" lon="9.514927932959177"><ele>86.0</ele><time>2026-03-21T15:05:56Z</time></trkpt><trkpt lat="40.8091912659379" lon="9.514869236729076"><ele>86.0</ele><time>2026-03-21T15:05:57Z</time></trkpt><trkpt lat="40.809370430226764" lon="9.514821486724742"><ele>86.0</ele><time>2026-03-21T15:05:58Z</time></trkpt><trkpt lat="40.8095392799721" lon="9.514778680016168"><ele>84.33333333333334</ele><time>2026-03-21T15:05:59Z</time></trkpt><trkpt lat="40.80969734645087" lon="9.51473633627607"><ele>82.66666666666667</ele><time>2026-03-21T15:06:00Z</time></trkpt><trkpt lat="40.80984758095043" lon="9.514687962107423"><ele>81.0</ele><time>2026-03-21T15:06:01Z</time></trkpt><trkpt lat="40.81000199143738" lon="9.514648779134875"><ele>81.0</ele><time>2026-03-21T15:06:02Z</time></trkpt><trkpt lat="40.81016273972268" lon="9.514597248095331"><ele>81.0</ele><time>2026-03-21T15:06:03Z</time></trkpt><trkpt lat="40.8103355644324" lon="9.514549378845002"><ele>81.0</ele><time>2026-03-21T15:06:04Z</time></trkpt><trkpt lat="40.810504862864825" lon="9.5144985620873"><ele>81.0</ele><time>2026-03-21T15:06:05Z</time></trkpt><trkpt lat="40.810677816018966" lon="9.514451271320777"><ele>81.0</ele><time>2026-03-21T15:06:06Z</time></trkpt><trkpt lat="40.810857860202674" lon="9.514405169773603"><ele>81.0</ele><time>2026-03-21T15:06:07Z</time></trkpt><trkpt lat="40.811033861151145" lon="9.514361128130355"><ele>80.66666666666667</ele><time>2026-03-21T15:06:08Z</time></trkpt><trkpt lat="40.81120483542142" lon="9.514317737403179"><ele>80.33333333333334</ele><time>2026-03-21T15:06:09Z</time></trkpt><trkpt lat="40.81137956357802" lon="9.51427138382186"><ele>80.0</ele><time>2026-03-21T15:06:10Z</time></trkpt><trkpt lat="40.81155841565628" lon="9.514222074591899"><ele>80.0</ele><time>2026-03-21T15:06:11Z</time></trkpt><trkpt lat="40.811733492189134" lon="9.514175906768994"><ele>80.0</ele><time>2026-03-21T15:06:12Z</time></trkpt><trkpt lat="40.8119118201104" lon="9.514128191816077"><ele>80.0</ele><time>2026-03-21T15:06:13Z</time></trkpt><trkpt lat="40.81209107025973" lon="9.514077909461696"><ele>79.33333333333334</ele><time>2026-03-21T15:06:14Z</time></trkpt><trkpt lat="40.8122739402869" lon="9.514030217122402"><ele>78.66666666666667</ele><time>2026-03-21T15:06:15Z</time></trkpt><trkpt lat="40.81245249910497" lon="9.513997229327167"><ele>78.0</ele><time>2026-03-21T15:06:16Z</time></trkpt><trkpt lat="40.81263912341971" lon="9.51398479850952"><ele>78.0</ele><time>2026-03-21T15:06:17Z</time></trkpt><trkpt lat="40.81282593228489" lon="9.51397308157985"><ele>78.0</ele><time>2026-03-21T15:06:18Z</time></trkpt><trkpt lat="40.813004409291445" lon="9.513966614872261"><ele>78.0</ele><time>2026-03-21T15:06:19Z</time></trkpt><trkpt lat="40.8131783057969" lon="9.513955737181425"><ele>78.0</ele><time>2026-03-21T15:06:20Z</time></trkpt><trkpt lat="40.81337339247984" lon="9.51394282349383"><ele>78.0</ele><time>2026-03-21T15:06:21Z</time></trkpt><trkpt lat="40.813556517646255" lon="9.513932955696413"><ele>78.0</ele><time>2026-03-21T15:06:22Z</time></trkpt><trkpt lat="40.81374107261182" lon="9.513919571501066"><ele>78.33333333333333</ele><time>2026-03-21T15:06:23Z</time></trkpt><trkpt lat="40.813926777058924" lon="9.513907310577311"><ele>78.66666666666666</ele><time>2026-03-21T15:06:24Z</time></trkpt><trkpt lat="40.81411012729356" lon="9.513896479533004"><ele>79.0</ele><time>2026-03-21T15:06:25.001Z</time></trkpt><trkpt lat="40.814291831311664" lon="9.51388262454344"><ele>79.33333333333333</ele><time>2026-03-21T15:06:26.001Z</time></trkpt><trkpt lat="40.814478020635484" lon="9.513871268325422"><ele>79.66666666666667</ele><time>2026-03-21T15:06:27Z</time></trkpt><trkpt lat="40.81466343658237" lon="9.513858066922563"><ele>80.0</ele><time>2026-03-21T15:06:28Z</time></trkpt><trkpt lat="40.81485013368588" lon="9.513841921230028"><ele>80.0</ele><time>2026-03-21T15:06:29Z</time></trkpt><trkpt lat="40.81503457430363" lon="9.513829071961977"><ele>80.0</ele><time>2026-03-21T15:06:30Z</time></trkpt><trkpt lat="40.815217376008555" lon="9.513818427458977"><ele>80.0</ele><time>2026-03-21T15:06:31Z</time></trkpt><trkpt lat="40.81539620866294" lon="9.513804014272207"><ele>80.66666666666667</ele><time>2026-03-21T15:06:32Z</time></trkpt><trkpt lat="40.81557638140092" lon="9.513791772780003"><ele>81.33333333333333</ele><time>2026-03-21T15:06:33Z</time></trkpt><trkpt lat="40.81575945054961" lon="9.513783416115087"><ele>82.0</ele><time>2026-03-21T15:06:34Z</time></trkpt><trkpt lat="40.81594309497449" lon="9.513774141345781"><ele>82.0</ele><time>2026-03-21T15:06:35Z</time></trkpt><trkpt lat="40.81612189626734" lon="9.51376243343357"><ele>82.0</ele><time>2026-03-21T15:06:36Z</time></trkpt><trkpt lat="40.81630319216517" lon="9.513750398688432"><ele>82.0</ele><time>2026-03-21T15:06:37Z</time></trkpt><trkpt lat="40.816480747542116" lon="9.51373305860194"><ele>82.66666666666666</ele><time>2026-03-21T15:06:38Z</time></trkpt><trkpt lat="40.81666210052613" lon="9.513720611369147"><ele>83.33333333333333</ele><time>2026-03-21T15:06:39Z</time></trkpt><trkpt lat="40.8168404026362" lon="9.51370803973407"><ele>84.0</ele><time>2026-03-21T15:06:40Z</time></trkpt><trkpt lat="40.81701804631047" lon="9.51370128675454"><ele>85.0</ele><time>2026-03-21T15:06:41Z</time></trkpt><trkpt lat="40.817191839382396" lon="9.513708921736322"><ele>86.0</ele><time>2026-03-21T15:06:42Z</time></trkpt><trkpt lat="40.817370712652284" lon="9.513763756116596"><ele>87.0</ele><time>2026-03-21T15:06:43Z</time></trkpt><trkpt lat="40.8175438269024" lon="9.513826488639012"><ele>87.33333333333333</ele><time>2026-03-21T15:06:44Z</time></trkpt><trkpt lat="40.817721163041384" lon="9.513893635607092"><ele>87.66666666666666</ele><time>2026-03-21T15:06:45Z</time></trkpt><trkpt lat="40.817896684672" lon="9.513928481258324"><ele>88.0</ele><time>2026-03-21T15:06:46Z</time></trkpt><trkpt lat="40.81807856548254" lon="9.5139343425386"><ele>88.0</ele><time>2026-03-21T15:06:47Z</time></trkpt><trkpt lat="40.818262979041776" lon="9.51394015408737"><ele>88.0</ele><time>2026-03-21T15:06:48Z</time></trkpt><trkpt lat="40.818445382047514" lon="9.513953960246122"><ele>88.0</ele><time>2026-03-21T15:06:49Z</time></trkpt><trkpt lat="40.81863022852293" lon="9.51397014703935"><ele>88.66666666666666</ele><time>2026-03-21T15:06:50Z</time></trkpt><trkpt lat="40.81880866940764" lon="9.513984265829505"><ele>89.33333333333333</ele><time>2026-03-21T15:06:51Z</time></trkpt><trkpt lat="40.81898956194389" lon="9.513996571230326"><ele>90.0</ele><time>2026-03-21T15:06:52Z</time></trkpt><trkpt lat="40.819165211602176" lon="9.514013484770745"><ele>90.33333333333333</ele><time>2026-03-21T15:06:53Z</time></trkpt><trkpt lat="40.819346571057956" lon="9.514027359995957"><ele>90.66666666666666</ele><time>2026-03-21T15:06:54Z</time></trkpt><trkpt lat="40.81952138637973" lon="9.514034437106531"><ele>91.0</ele><time>2026-03-21T15:06:55Z</time></trkpt><trkpt lat="40.81969718683324" lon="9.514025367609461"><ele>91.0</ele><time>2026-03-21T15:06:56Z</time></trkpt><trkpt lat="40.81987129918205" lon="9.514001069298866"><ele>91.0</ele><time>2026-03-21T15:06:57Z</time></trkpt><trkpt lat="40.820034515938204" lon="9.513951965693076"><ele>91.0</ele><time>2026-03-21T15:06:58Z</time></trkpt><trkpt lat="40.82019981913322" lon="9.513894601232682"><ele>92.33333333333333</ele><time>2026-03-21T15:06:59Z</time></trkpt><trkpt lat="40.82036306210371" lon="9.51385731528158"><ele>93.66666666666667</ele><time>2026-03-21T15:07:00Z</time></trkpt><trkpt lat="40.82053379117722" lon="9.513809296013507"><ele>95.0</ele><time>2026-03-21T15:07:01Z</time></trkpt><trkpt lat="40.82070640732333" lon="9.513759489224729"><ele>96.33333333333334</ele><time>2026-03-21T15:07:02Z</time></trkpt><trkpt lat="40.82087828623673" lon="9.513715042827238"><ele>97.66666666666667</ele><time>2026-03-21T15:07:03Z</time></trkpt><trkpt lat="40.821052528006156" lon="9.51366891133796"><ele>99.0</ele><time>2026-03-21T15:07:04Z</time></trkpt><trkpt lat="40.82122406463053" lon="9.51361641136045"><ele>100.0</ele><time>2026-03-21T15:07:05Z</time></trkpt><trkpt lat="40.821387846204075" lon="9.513568145236496"><ele>101.0</ele><time>2026-03-21T15:07:06Z</time></trkpt><trkpt lat="40.82155871264405" lon="9.513524980256342"><ele>102.0</ele><time>2026-03-21T15:07:07Z</time></trkpt><trkpt lat="40.82172411549552" lon="9.513480622016743"><ele>102.66666666666666</ele><time>2026-03-21T15:07:08Z</time></trkpt><trkpt lat="40.8218913662827" lon="9.513437365683291"><ele>103.33333333333333</ele><time>2026-03-21T15:07:09Z</time></trkpt><trkpt lat="40.8220580381388" lon="9.51339073092263"><ele>104.0</ele><time>2026-03-21T15:07:10Z</time></trkpt><trkpt lat="40.8222359724945" lon="9.513342507096478"><ele>104.0</ele><time>2026-03-21T15:07:11Z</time></trkpt><trkpt lat="40.822411311727045" lon="9.513296908225797"><ele>104.0</ele><time>2026-03-21T15:07:12Z</time></trkpt><trkpt lat="40.82258744225603" lon="9.51324661724252"><ele>104.0</ele><time>2026-03-21T15:07:13Z</time></trkpt><trkpt lat="40.8227621664801" lon="9.513192651240828"><ele>105.33333333333333</ele><time>2026-03-21T15:07:14Z</time></trkpt><trkpt lat="40.822938963147855" lon="9.513141941993469"><ele>106.66666666666666</ele><time>2026-03-21T15:07:15Z</time></trkpt><trkpt lat="40.823114431269886" lon="9.513091529244024"><ele>108.0</ele><time>2026-03-21T15:07:16Z</time></trkpt><trkpt lat="40.82328992382662" lon="9.51303900249555"><ele>108.0</ele><time>2026-03-21T15:07:17Z</time></trkpt><trkpt lat="40.823471879099365" lon="9.51299046270662"><ele>108.0</ele><time>2026-03-21T15:07:18Z</time></trkpt><trkpt lat="40.82365187841742" lon="9.512944531208667"><ele>108.0</ele><time>2026-03-21T15:07:19Z</time></trkpt><trkpt lat="40.82381597022602" lon="9.512915097974322"><ele>110.33333333333334</ele><time>2026-03-21T15:07:20Z</time></trkpt><trkpt lat="40.82398693340409" lon="9.512879068281244"><ele>112.66666666666667</ele><time>2026-03-21T15:07:21Z</time></trkpt><trkpt lat="40.82415997407484" lon="9.512839542784441"><ele>115.0</ele><time>2026-03-21T15:07:22Z</time></trkpt><trkpt lat="40.824335944130624" lon="9.512795684050756"><ele>118.0</ele><time>2026-03-21T15:07:23Z</time></trkpt><trkpt lat="40.82451122526605" lon="9.512753614647663"><ele>121.0</ele><time>2026-03-21T15:07:24Z</time></trkpt><trkpt lat="40.82468591757905" lon="9.512711723394"><ele>124.0</ele><time>2026-03-21T15:07:25Z</time></trkpt><trkpt lat="40.82485472207268" lon="9.512676379365075"><ele>124.0</ele><time>2026-03-21T15:07:26Z</time></trkpt><trkpt lat="40.82502865620851" lon="9.512648332829405"><ele>124.0</ele><time>2026-03-21T15:07:27Z</time></trkpt><trkpt lat="40.825201599924696" lon="9.512659531980713"><ele>124.0</ele><time>2026-03-21T15:07:28Z</time></trkpt><trkpt lat="40.82536860511" lon="9.512705200237432"><ele>125.33333333333334</ele><time>2026-03-21T15:07:29Z</time></trkpt><trkpt lat="40.82553612070119" lon="9.512760116035677"><ele>126.66666666666666</ele><time>2026-03-21T15:07:30Z</time></trkpt><trkpt lat="40.82571807399092" lon="9.512785560330492"><ele>128.0</ele><time>2026-03-21T15:07:31Z</time></trkpt><trkpt lat="40.82590256101351" lon="9.512814041018602"><ele>125.0</ele><time>2026-03-21T15:07:32Z</time></trkpt><trkpt lat="40.82608757525227" lon="9.512816354555532"><ele>122.0</ele><time>2026-03-21T15:07:33Z</time></trkpt><trkpt lat="40.8262644841047" lon="9.512794129322836"><ele>119.0</ele><time>2026-03-21T15:07:34Z</time></trkpt><trkpt lat="40.826440530009144" lon="9.512771754039571"><ele>119.0</ele><time>2026-03-21T15:07:35Z</time></trkpt><trkpt lat="40.82661279562611" lon="9.51274787023795"><ele>119.0</ele><time>2026-03-21T15:07:36Z</time></trkpt><trkpt lat="40.82677605639025" lon="9.51273385751422"><ele>119.0</ele><time>2026-03-21T15:07:37Z</time></trkpt><trkpt lat="40.82693556313912" lon="9.51271337254212"><ele>116.66666666666666</ele><time>2026-03-21T15:07:38Z</time></trkpt><trkpt lat="40.82709511469044" lon="9.51269580162049"><ele>114.33333333333334</ele><time>2026-03-21T15:07:39Z</time></trkpt><trkpt lat="40.82725169145467" lon="9.512677082756154"><ele>112.0</ele><time>2026-03-21T15:07:40Z</time></trkpt><trkpt lat="40.82740667398697" lon="9.512654430838397"><ele>112.0</ele><time>2026-03-21T15:07:41Z</time></trkpt><trkpt lat="40.82755707627769" lon="9.51263292986765"><ele>112.0</ele><time>2026-03-21T15:07:42Z</time></trkpt><trkpt lat="40.82770594016222" lon="9.512603594105775"><ele>112.0</ele><time>2026-03-21T15:07:43Z</time></trkpt><trkpt lat="40.827852684148915" lon="9.51257057766439"><ele>109.0</ele><time>2026-03-21T15:07:44Z</time></trkpt><trkpt lat="40.82800131036583" lon="9.512546123429695"><ele>106.0</ele><time>2026-03-21T15:07:45Z</time></trkpt><trkpt lat="40.828148908703064" lon="9.512531473372064"><ele>103.0</ele><time>2026-03-21T15:07:46Z</time></trkpt><trkpt lat="40.828310810196655" lon="9.512527326531096"><ele>99.66666666666667</ele><time>2026-03-21T15:07:47Z</time></trkpt><trkpt lat="40.82848396624162" lon="9.512537338505728"><ele>96.33333333333334</ele><time>2026-03-21T15:07:48Z</time></trkpt><trkpt lat="40.82865781407399" lon="9.512546214116485"><ele>93.0</ele><time>2026-03-21T15:07:49Z</time></trkpt><trkpt lat="40.82883395130249" lon="9.512542518902963"><ele>93.0</ele><time>2026-03-21T15:07:50Z</time></trkpt><trkpt lat="40.82901280804338" lon="9.512532981048386"><ele>93.0</ele><time>2026-03-21T15:07:51Z</time></trkpt><trkpt lat="40.82919304498516" lon="9.512524071048716"><ele>93.0</ele><time>2026-03-21T15:07:52Z</time></trkpt><trkpt lat="40.82937192811612" lon="9.512507172656832"><ele>90.33333333333333</ele><time>2026-03-21T15:07:53Z</time></trkpt><trkpt lat="40.82955083495792" lon="9.512492009669973"><ele>87.66666666666666</ele><time>2026-03-21T15:07:54Z</time></trkpt><trkpt lat="40.829731236220255" lon="9.512477830392315"><ele>85.0</ele><time>2026-03-21T15:07:55Z</time></trkpt><trkpt lat="40.82990870851524" lon="9.512457771375793"><ele>85.0</ele><time>2026-03-21T15:07:56Z</time></trkpt><trkpt lat="40.830088351597745" lon="9.512426029585002"><ele>85.0</ele><time>2026-03-21T15:07:57Z</time></trkpt><trkpt lat="40.830270483092875" lon="9.512395247858933"><ele>85.0</ele><time>2026-03-21T15:07:58Z</time></trkpt><trkpt lat="40.83045156169548" lon="9.512367571423365"><ele>84.33333333333333</ele><time>2026-03-21T15:07:59Z</time></trkpt><trkpt lat="40.830632151922075" lon="9.512341731545433"><ele>83.66666666666667</ele><time>2026-03-21T15:08:00Z</time></trkpt><trkpt lat="40.83081230662903" lon="9.512327100182155"><ele>83.0</ele><time>2026-03-21T15:08:01Z</time></trkpt><trkpt lat="40.8309935185007" lon="9.512338909490344"><ele>81.66666666666667</ele><time>2026-03-21T15:08:02Z</time></trkpt><trkpt lat="40.83117337678757" lon="9.512379469292242"><ele>80.33333333333333</ele><time>2026-03-21T15:08:03Z</time></trkpt><trkpt lat="40.83135233425703" lon="9.512436062082866"><ele>79.0</ele><time>2026-03-21T15:08:04Z</time></trkpt><trkpt lat="40.83152838750769" lon="9.51249563786347"><ele>79.0</ele><time>2026-03-21T15:08:05Z</time></trkpt><trkpt lat="40.831700975234675" lon="9.51255950388272"><ele>79.0</ele><time>2026-03-21T15:08:06Z</time></trkpt><trkpt lat="40.83187715962189" lon="9.512619742824583"><ele>79.0</ele><time>2026-03-21T15:08:07Z</time></trkpt><trkpt lat="40.83205489205882" lon="9.512685918245621"><ele>79.0</ele><time>2026-03-21T15:08:08Z</time></trkpt><trkpt lat="40.832226516583184" lon="9.51276175775464"><ele>79.0</ele><time>2026-03-21T15:08:09Z</time></trkpt><trkpt lat="40.832394722067264" lon="9.512837832401793"><ele>79.0</ele><time>2026-03-21T15:08:10Z</time></trkpt><trkpt lat="40.83256814996751" lon="9.512922187927702"><ele>76.66666666666666</ele><time>2026-03-21T15:08:11Z</time></trkpt><trkpt lat="40.832744863908594" lon="9.513004075673063"><ele>74.33333333333333</ele><time>2026-03-21T15:08:12Z</time></trkpt><trkpt lat="40.83292347029077" lon="9.513071850946783"><ele>72.0</ele><time>2026-03-21T15:08:13Z</time></trkpt><trkpt lat="40.833110198213426" lon="9.513119194506006"><ele>72.0</ele><time>2026-03-21T15:08:14Z</time></trkpt><trkpt lat="40.833293462942535" lon="9.513143510614738"><ele>72.0</ele><time>2026-03-21T15:08:15Z</time></trkpt><trkpt lat="40.83347837690672" lon="9.513176188585424"><ele>72.0</ele><time>2026-03-21T15:08:16Z</time></trkpt><trkpt lat="40.83366112936274" lon="9.513213275278291"><ele>72.33333333333333</ele><time>2026-03-21T15:08:17Z</time></trkpt><trkpt lat="40.83384192405537" lon="9.513254411557497"><ele>72.66666666666666</ele><time>2026-03-21T15:08:18Z</time></trkpt><trkpt lat="40.834025822318864" lon="9.513289749308893"><ele>73.0</ele><time>2026-03-21T15:08:19Z</time></trkpt><trkpt lat="40.83421019723002" lon="9.513320735994128"><ele>71.0</ele><time>2026-03-21T15:08:20Z</time></trkpt><trkpt lat="40.83439129581466" lon="9.513344714556197"><ele>69.0</ele><time>2026-03-21T15:08:21Z</time></trkpt><trkpt lat="40.8345751830973" lon="9.513344161562042"><ele>67.0</ele><time>2026-03-21T15:08:22Z</time></trkpt><trkpt lat="40.834757784961155" lon="9.513317982599835"><ele>67.0</ele><time>2026-03-21T15:08:23Z</time></trkpt><trkpt lat="40.83494297233578" lon="9.513265372218646"><ele>67.0</ele><time>2026-03-21T15:08:24Z</time></trkpt><trkpt lat="40.83512645535063" lon="9.513210857336944"><ele>67.0</ele><time>2026-03-21T15:08:25Z</time></trkpt><trkpt lat="40.83530884011945" lon="9.513159256717985"><ele>66.66666666666666</ele><time>2026-03-21T15:08:26Z</time></trkpt><trkpt lat="40.83548807198224" lon="9.51311391238108"><ele>66.33333333333333</ele><time>2026-03-21T15:08:27Z</time></trkpt><trkpt lat="40.835674189791746" lon="9.513063325881342"><ele>66.0</ele><time>2026-03-21T15:08:28.001Z</time></trkpt><trkpt lat="40.835853246808874" lon="9.513009779140251"><ele>65.0</ele><time>2026-03-21T15:08:29.001Z</time></trkpt><trkpt lat="40.83603254525272" lon="9.512961486054758"><ele>64.0</ele><time>2026-03-21T15:08:30.001Z</time></trkpt><trkpt lat="40.83620897999557" lon="9.512895345834329"><ele>63.0</ele><time>2026-03-21T15:08:31.001Z</time></trkpt><trkpt lat="40.836375554766626" lon="9.512825679035249"><ele>66.66666666666667</ele><time>2026-03-21T15:08:32.001Z</time></trkpt><trkpt lat="40.83654662664996" lon="9.512756478188859"><ele>70.33333333333334</ele><time>2026-03-21T15:08:33Z</time></trkpt><trkpt lat="40.83671381950776" lon="9.512693352407723"><ele>74.0</ele><time>2026-03-21T15:08:34Z</time></trkpt><trkpt lat="40.83687599761916" lon="9.512617355077918"><ele>74.0</ele><time>2026-03-21T15:08:35Z</time></trkpt><trkpt lat="40.83703629665327" lon="9.51254612908594"><ele>74.0</ele><time>2026-03-21T15:08:36Z</time></trkpt><trkpt lat="40.8371946042833" lon="9.512460538481356"><ele>74.0</ele><time>2026-03-21T15:08:37Z</time></trkpt><trkpt lat="40.83733951933189" lon="9.512361148095705"><ele>74.0</ele><time>2026-03-21T15:08:38Z</time></trkpt><trkpt lat="40.83747607241306" lon="9.512250213861442"><ele>74.0</ele><time>2026-03-21T15:08:39Z</time></trkpt><trkpt lat="40.83760532519621" lon="9.512123849045752"><ele>74.0</ele><time>2026-03-21T15:08:40Z</time></trkpt><trkpt lat="40.837711559702385" lon="9.511968255758536"><ele>72.33333333333334</ele><time>2026-03-21T15:08:41Z</time></trkpt><trkpt lat="40.83781014836912" lon="9.511788004079513"><ele>70.66666666666667</ele><time>2026-03-21T15:08:42Z</time></trkpt><trkpt lat="40.837875752646646" lon="9.511575920372819"><ele>69.0</ele><time>2026-03-21T15:08:43Z</time></trkpt><trkpt lat="40.83792734055594" lon="9.511352115820586"><ele>68.33333333333333</ele><time>2026-03-21T15:08:44Z</time></trkpt><trkpt lat="40.83797845195874" lon="9.51111975792467"><ele>67.66666666666666</ele><time>2026-03-21T15:08:45Z</time></trkpt><trkpt lat="40.83802557548258" lon="9.510880395532274"><ele>67.0</ele><time>2026-03-21T15:08:46Z</time></trkpt><trkpt lat="40.83807262865701" lon="9.510643138571876"><ele>66.0</ele><time>2026-03-21T15:08:47Z</time></trkpt><trkpt lat="40.838104656023155" lon="9.51040227896508"><ele>65.0</ele><time>2026-03-21T15:08:48Z</time></trkpt><trkpt lat="40.83811163149492" lon="9.510159704995266"><ele>64.0</ele><time>2026-03-21T15:08:49Z</time></trkpt><trkpt lat="40.83810210506917" lon="9.509916741175289"><ele>64.0</ele><time>2026-03-21T15:08:50Z</time></trkpt><trkpt lat="40.83807806482616" lon="9.50967244492851"><ele>64.0</ele><time>2026-03-21T15:08:51Z</time></trkpt><trkpt lat="40.838037241105134" lon="9.509428022039206"><ele>64.0</ele><time>2026-03-21T15:08:52Z</time></trkpt><trkpt lat="40.83800094502968" lon="9.509194284652907"><ele>64.0</ele><time>2026-03-21T15:08:53Z</time></trkpt><trkpt lat="40.83796483929437" lon="9.508967800807957"><ele>64.0</ele><time>2026-03-21T15:08:54Z</time></trkpt><trkpt lat="40.837928552195926" lon="9.508729509124157"><ele>64.0</ele><time>2026-03-21T15:08:55Z</time></trkpt><trkpt lat="40.837888025679014" lon="9.508479817647249"><ele>63.33333333333333</ele><time>2026-03-21T15:08:56Z</time></trkpt><trkpt lat="40.83782523632451" lon="9.508241769906672"><ele>62.66666666666667</ele><time>2026-03-21T15:08:57Z</time></trkpt><trkpt lat="40.8377401948132" lon="9.508019538374258"><ele>62.0</ele><time>2026-03-21T15:08:58Z</time></trkpt><trkpt lat="40.83766164405269" lon="9.50780278270053"><ele>64.33333333333334</ele><time>2026-03-21T15:08:59Z</time></trkpt><trkpt lat="40.83758585212305" lon="9.507585913102416"><ele>66.66666666666667</ele><time>2026-03-21T15:09:00Z</time></trkpt><trkpt lat="40.8374997234595" lon="9.507369302493068"><ele>69.0</ele><time>2026-03-21T15:09:01Z</time></trkpt><trkpt lat="40.837403545646296" lon="9.50715387714183"><ele>68.0</ele><time>2026-03-21T15:09:02Z</time></trkpt><trkpt lat="40.837297349737106" lon="9.506947574950454"><ele>67.0</ele><time>2026-03-21T15:09:03Z</time></trkpt><trkpt lat="40.83719734510165" lon="9.50674117090579"><ele>66.0</ele><time>2026-03-21T15:09:04Z</time></trkpt><trkpt lat="40.83711697393371" lon="9.506516265525295"><ele>66.0</ele><time>2026-03-21T15:09:05Z</time></trkpt><trkpt lat="40.83707427104263" lon="9.506276413725248"><ele>66.0</ele><time>2026-03-21T15:09:06Z</time></trkpt><trkpt lat="40.8370584591512" lon="9.50602382265994"><ele>66.0</ele><time>2026-03-21T15:09:07Z</time></trkpt><trkpt lat="40.83702382543335" lon="9.50577535671809"><ele>67.66666666666667</ele><time>2026-03-21T15:09:08Z</time></trkpt><trkpt lat="40.836970803119996" lon="9.505532033142828"><ele>69.33333333333334</ele><time>2026-03-21T15:09:09Z</time></trkpt><trkpt lat="40.83689783867983" lon="9.505294254686197"><ele>71.0</ele><time>2026-03-21T15:09:10Z</time></trkpt><trkpt lat="40.836820311499146" lon="9.505072961254703"><ele>70.33333333333334</ele><time>2026-03-21T15:09:11Z</time></trkpt><trkpt lat="40.836755447363025" lon="9.504854013612963"><ele>69.66666666666667</ele><time>2026-03-21T15:09:12Z</time></trkpt><trkpt lat="40.83669252643045" lon="9.504631891249637"><ele>69.0</ele><time>2026-03-21T15:09:13Z</time></trkpt><trkpt lat="40.83662883512159" lon="9.504414520399829"><ele>70.33333333333333</ele><time>2026-03-21T15:09:14Z</time></trkpt><trkpt lat="40.83656408129676" lon="9.504194642672449"><ele>71.66666666666666</ele><time>2026-03-21T15:09:15Z</time></trkpt><trkpt lat="40.83650098341279" lon="9.50397114986635"><ele>73.0</ele><time>2026-03-21T15:09:16Z</time></trkpt><trkpt lat="40.836432685783485" lon="9.503759748228536"><ele>74.0</ele><time>2026-03-21T15:09:17Z</time></trkpt><trkpt lat="40.83636767604239" lon="9.503542085707318"><ele>75.0</ele><time>2026-03-21T15:09:18Z</time></trkpt><trkpt lat="40.83630629694936" lon="9.503326267957227"><ele>76.0</ele><time>2026-03-21T15:09:19Z</time></trkpt><trkpt lat="40.83627361721083" lon="9.503100168944895"><ele>77.33333333333333</ele><time>2026-03-21T15:09:20Z</time></trkpt><trkpt lat="40.836297651395874" lon="9.502860048849561"><ele>78.66666666666667</ele><time>2026-03-21T15:09:21Z</time></trkpt><trkpt lat="40.83635744351393" lon="9.502625410146583"><ele>80.0</ele><time>2026-03-21T15:09:22Z</time></trkpt><trkpt lat="40.83643870454" lon="9.502403438666866"><ele>80.0</ele><time>2026-03-21T15:09:23Z</time></trkpt><trkpt lat="40.83654693533933" lon="9.502217913572599"><ele>80.0</ele><time>2026-03-21T15:09:24Z</time></trkpt><trkpt lat="40.83665426051313" lon="9.502045669482055"><ele>80.0</ele><time>2026-03-21T15:09:25Z</time></trkpt><trkpt lat="40.836725676593865" lon="9.501894422201"><ele>83.0</ele><time>2026-03-21T15:09:26Z</time></trkpt><trkpt lat="40.836854632997024" lon="9.501756159620019"><ele>86.0</ele><time>2026-03-21T15:09:27Z</time></trkpt><trkpt lat="40.836986462663205" lon="9.501659432730758"><ele>89.0</ele><time>2026-03-21T15:09:28Z</time></trkpt><trkpt lat="40.83711714777745" lon="9.501609808169869"><ele>89.0</ele><time>2026-03-21T15:09:29Z</time></trkpt><trkpt lat="40.83724759327938" lon="9.50162480348821"><ele>89.0</ele><time>2026-03-21T15:09:30Z</time></trkpt><trkpt lat="40.83736713876582" lon="9.501664835624988"><ele>89.0</ele><time>2026-03-21T15:09:31Z</time></trkpt><trkpt lat="40.83746297133086" lon="9.501717584804044"><ele>89.0</ele><time>2026-03-21T15:09:32Z</time></trkpt><trkpt lat="40.837550770432976" lon="9.501752340882524"><ele>90.75</ele><time>2026-03-21T15:09:33Z</time></trkpt><trkpt lat="40.837663121040606" lon="9.501756681431921"><ele>92.5</ele><time>2026-03-21T15:09:34Z</time></trkpt><trkpt lat="40.83778060399732" lon="9.501737357053068"><ele>94.25</ele><time>2026-03-21T15:09:35Z</time></trkpt><trkpt lat="40.837895398303935" lon="9.50169198445014"><ele>96.0</ele><time>2026-03-21T15:09:36Z</time></trkpt><trkpt lat="40.838014148682184" lon="9.501629957681057"><ele>96.0</ele><time>2026-03-21T15:09:37Z</time></trkpt><trkpt lat="40.838132446420154" lon="9.501532690500692"><ele>96.0</ele><time>2026-03-21T15:09:38Z</time></trkpt><trkpt lat="40.8382539675121" lon="9.501425929700373"><ele>96.0</ele><time>2026-03-21T15:09:39Z</time></trkpt><trkpt lat="40.83838830449591" lon="9.501326727830806"><ele>96.0</ele><time>2026-03-21T15:09:40Z</time></trkpt><trkpt lat="40.83852149986132" lon="9.501221276552899"><ele>94.66666666666667</ele><time>2026-03-21T15:09:41Z</time></trkpt><trkpt lat="40.838661760361575" lon="9.501093375517197"><ele>93.33333333333334</ele><time>2026-03-21T15:09:42Z</time></trkpt><trkpt lat="40.83881019757893" lon="9.500975884864813"><ele>92.0</ele><time>2026-03-21T15:09:43Z</time></trkpt><trkpt lat="40.83896896443704" lon="9.500854694030274"><ele>92.0</ele><time>2026-03-21T15:09:44Z</time></trkpt><trkpt lat="40.839125350856676" lon="9.500730094134585"><ele>92.0</ele><time>2026-03-21T15:09:45Z</time></trkpt><trkpt lat="40.8392871427712" lon="9.500602255293881"><ele>92.0</ele><time>2026-03-21T15:09:46Z</time></trkpt><trkpt lat="40.8394518159558" lon="9.500482654440539"><ele>91.0</ele><time>2026-03-21T15:09:47Z</time></trkpt><trkpt lat="40.839617107639" lon="9.500364382137366"><ele>90.0</ele><time>2026-03-21T15:09:48Z</time></trkpt><trkpt lat="40.83977794862396" lon="9.500243752942609"><ele>89.0</ele><time>2026-03-21T15:09:49Z</time></trkpt><trkpt lat="40.83993536949212" lon="9.500117951852243"><ele>89.0</ele><time>2026-03-21T15:09:50Z</time></trkpt><trkpt lat="40.840088841485894" lon="9.499992285836612"><ele>89.0</ele><time>2026-03-21T15:09:51Z</time></trkpt><trkpt lat="40.84024183588337" lon="9.499864939243711"><ele>89.0</ele><time>2026-03-21T15:09:52Z</time></trkpt><trkpt lat="40.840390335954964" lon="9.499735143177569"><ele>90.0</ele><time>2026-03-21T15:09:53Z</time></trkpt><trkpt lat="40.840539801693986" lon="9.499604120494832"><ele>91.0</ele><time>2026-03-21T15:09:54Z</time></trkpt><trkpt lat="40.840691195886755" lon="9.499477305705113"><ele>92.0</ele><time>2026-03-21T15:09:55Z</time></trkpt><trkpt lat="40.84084333131053" lon="9.499349127815696"><ele>90.33333333333334</ele><time>2026-03-21T15:09:56Z</time></trkpt><trkpt lat="40.84099577248117" lon="9.499217647987454"><ele>88.66666666666667</ele><time>2026-03-21T15:09:57Z</time></trkpt><trkpt lat="40.84115187876723" lon="9.499081466757971"><ele>87.0</ele><time>2026-03-21T15:09:58Z</time></trkpt><trkpt lat="40.8413048549986" lon="9.498949958229506"><ele>87.0</ele><time>2026-03-21T15:09:59Z</time></trkpt><trkpt lat="40.84145846413761" lon="9.498817532727696"><ele>87.0</ele><time>2026-03-21T15:10:00Z</time></trkpt><trkpt lat="40.84161772732104" lon="9.498668018991362"><ele>87.0</ele><time>2026-03-21T15:10:01Z</time></trkpt><trkpt lat="40.841770913026146" lon="9.498530170355107"><ele>86.66666666666667</ele><time>2026-03-21T15:10:02Z</time></trkpt><trkpt lat="40.841922355342405" lon="9.49840064032102"><ele>86.33333333333334</ele><time>2026-03-21T15:10:03Z</time></trkpt><trkpt lat="40.84206635661823" lon="9.498275407923897"><ele>86.0</ele><time>2026-03-21T15:10:04Z</time></trkpt><trkpt lat="40.84220573476994" lon="9.498140356362471"><ele>86.0</ele><time>2026-03-21T15:10:05Z</time></trkpt><trkpt lat="40.842343269412765" lon="9.497991085804726"><ele>86.0</ele><time>2026-03-21T15:10:06Z</time></trkpt><trkpt lat="40.8424765357278" lon="9.497830906617038"><ele>86.0</ele><time>2026-03-21T15:10:07Z</time></trkpt><trkpt lat="40.84261332814875" lon="9.497679362224705"><ele>84.66666666666667</ele><time>2026-03-21T15:10:08Z</time></trkpt><trkpt lat="40.84275025083124" lon="9.497527583328946"><ele>83.33333333333333</ele><time>2026-03-21T15:10:09Z</time></trkpt><trkpt lat="40.84288691170212" lon="9.497387643283847"><ele>82.0</ele><time>2026-03-21T15:10:10Z</time></trkpt><trkpt lat="40.84302296448018" lon="9.49724082532166"><ele>80.66666666666666</ele><time>2026-03-21T15:10:11Z</time></trkpt><trkpt lat="40.843149991437336" lon="9.49708487686895"><ele>79.33333333333333</ele><time>2026-03-21T15:10:12Z</time></trkpt><trkpt lat="40.84326980106653" lon="9.496923898222517"><ele>78.0</ele><time>2026-03-21T15:10:13Z</time></trkpt><trkpt lat="40.84337763315629" lon="9.49674818774608"><ele>78.0</ele><time>2026-03-21T15:10:14Z</time></trkpt><trkpt lat="40.8434703296885" lon="9.496561562027823"><ele>78.0</ele><time>2026-03-21T15:10:15Z</time></trkpt><trkpt lat="40.843540558049845" lon="9.496374070689873"><ele>78.0</ele><time>2026-03-21T15:10:16Z</time></trkpt><trkpt lat="40.8436268148162" lon="9.496193772443611"><ele>78.33333333333333</ele><time>2026-03-21T15:10:17Z</time></trkpt><trkpt lat="40.8437473456588" lon="9.49603359343598"><ele>78.66666666666666</ele><time>2026-03-21T15:10:18Z</time></trkpt><trkpt lat="40.84389886882319" lon="9.495922534859998"><ele>79.0</ele><time>2026-03-21T15:10:19Z</time></trkpt><trkpt lat="40.8440675369334" lon="9.495866400767431"><ele>79.0</ele><time>2026-03-21T15:10:20Z</time></trkpt><trkpt lat="40.8442286809483" lon="9.495838224618803"><ele>79.0</ele><time>2026-03-21T15:10:21Z</time></trkpt><trkpt lat="40.844364682724986" lon="9.495781075696623"><ele>79.0</ele><time>2026-03-21T15:10:22Z</time></trkpt><trkpt lat="40.84449816184747" lon="9.495679794767025"><ele>81.66666666666666</ele><time>2026-03-21T15:10:23Z</time></trkpt><trkpt lat="40.84460800747444" lon="9.495538726316605"><ele>84.33333333333333</ele><time>2026-03-21T15:10:24Z</time></trkpt><trkpt lat="40.84469179406462" lon="9.495368792911583"><ele>87.0</ele><time>2026-03-21T15:10:25Z</time></trkpt><trkpt lat="40.8447750229558" lon="9.495190092985796"><ele>87.0</ele><time>2026-03-21T15:10:26Z</time></trkpt><trkpt lat="40.844861602286635" lon="9.495012995503693"><ele>87.0</ele><time>2026-03-21T15:10:27Z</time></trkpt><trkpt lat="40.84495646160424" lon="9.494835582228605"><ele>87.0</ele><time>2026-03-21T15:10:28Z</time></trkpt><trkpt lat="40.845044587290694" lon="9.494662035368316"><ele>87.5</ele><time>2026-03-21T15:10:29Z</time></trkpt><trkpt lat="40.84513763725458" lon="9.494515545682425"><ele>88.0</ele><time>2026-03-21T15:10:30Z</time></trkpt><trkpt lat="40.84524658864939" lon="9.494443206951729"><ele>88.5</ele><time>2026-03-21T15:10:31Z</time></trkpt><trkpt lat="40.845307337336116" lon="9.494340375111996"><ele>89.0</ele><time>2026-03-21T15:10:32Z</time></trkpt><trkpt lat="40.845478553980776" lon="9.494407008213686"><ele>89.0</ele><time>2026-03-21T15:10:33Z</time></trkpt><trkpt lat="40.84559117400001" lon="9.494410114937194"><ele>89.0</ele><time>2026-03-21T15:10:34Z</time></trkpt><trkpt lat="40.84569139677969" lon="9.494408664917009"><ele>89.0</ele><time>2026-03-21T15:10:35.001Z</time></trkpt><trkpt lat="40.84580265327632" lon="9.49440040198989"><ele>89.0</ele><time>2026-03-21T15:10:36.001Z</time></trkpt><trkpt lat="40.84592471310688" lon="9.494394283356236"><ele>89.0</ele><time>2026-03-21T15:10:37.001Z</time></trkpt><trkpt lat="40.84605653558077" lon="9.494363777128163"><ele>86.0</ele><time>2026-03-21T15:10:38.001Z</time></trkpt><trkpt lat="40.84619717406973" lon="9.494312376207027"><ele>83.0</ele><time>2026-03-21T15:10:39Z</time></trkpt><trkpt lat="40.84634988413051" lon="9.494259352245386"><ele>80.0</ele><time>2026-03-21T15:10:40Z</time></trkpt><trkpt lat="40.846508403748295" lon="9.494211941594967"><ele>80.0</ele><time>2026-03-21T15:10:41Z</time></trkpt><trkpt lat="40.84667148063262" lon="9.494155620995494"><ele>80.0</ele><time>2026-03-21T15:10:42Z</time></trkpt><trkpt lat="40.84684234183548" lon="9.494089478412933"><ele>80.0</ele><time>2026-03-21T15:10:43Z</time></trkpt><trkpt lat="40.84701760905085" lon="9.494032984878848"><ele>77.66666666666667</ele><time>2026-03-21T15:10:44Z</time></trkpt><trkpt lat="40.84718641752691" lon="9.493981898795283"><ele>75.33333333333333</ele><time>2026-03-21T15:10:45Z</time></trkpt><trkpt lat="40.84735589390362" lon="9.493909768316536"><ele>73.0</ele><time>2026-03-21T15:10:46Z</time></trkpt><trkpt lat="40.84752921478442" lon="9.493828664357343"><ele>70.0</ele><time>2026-03-21T15:10:47Z</time></trkpt><trkpt lat="40.84770697744811" lon="9.493739315296278"><ele>67.0</ele><time>2026-03-21T15:10:48Z</time></trkpt><trkpt lat="40.84788041648071" lon="9.493653984896962"><ele>64.0</ele><time>2026-03-21T15:10:49Z</time></trkpt><trkpt lat="40.84804441466924" lon="9.493568502243841"><ele>64.0</ele><time>2026-03-21T15:10:50Z</time></trkpt><trkpt lat="40.8482094854912" lon="9.49349075116755"><ele>64.0</ele><time>2026-03-21T15:10:51Z</time></trkpt><trkpt lat="40.84837595749324" lon="9.493435062140227"><ele>64.0</ele><time>2026-03-21T15:10:52Z</time></trkpt><trkpt lat="40.84854772909581" lon="9.493413975562904"><ele>62.33333333333333</ele><time>2026-03-21T15:10:53Z</time></trkpt><trkpt lat="40.84872640461315" lon="9.493424589860327"><ele>60.66666666666667</ele><time>2026-03-21T15:10:54Z</time></trkpt><trkpt lat="40.84890332666967" lon="9.493459787098171"><ele>59.0</ele><time>2026-03-21T15:10:55Z</time></trkpt><trkpt lat="40.84907806767035" lon="9.493516992250962"><ele>59.0</ele><time>2026-03-21T15:10:56Z</time></trkpt><trkpt lat="40.84925385046383" lon="9.493584073343747"><ele>59.0</ele><time>2026-03-21T15:10:57Z</time></trkpt><trkpt lat="40.849438085028666" lon="9.493654871260032"><ele>59.0</ele><time>2026-03-21T15:10:58Z</time></trkpt><trkpt lat="40.84961697668986" lon="9.4937128040797"><ele>57.0</ele><time>2026-03-21T15:10:59Z</time></trkpt><trkpt lat="40.849801139259135" lon="9.493776323282573"><ele>55.0</ele><time>2026-03-21T15:11:00Z</time></trkpt><trkpt lat="40.8499835749705" lon="9.493844669234292"><ele>53.0</ele><time>2026-03-21T15:11:01Z</time></trkpt><trkpt lat="40.8501586847042" lon="9.49391327037169"><ele>51.0</ele><time>2026-03-21T15:11:02Z</time></trkpt><trkpt lat="40.85032812201091" lon="9.49398105559938"><ele>49.0</ele><time>2026-03-21T15:11:03Z</time></trkpt><trkpt lat="40.85048287522011" lon="9.494069385688006"><ele>47.0</ele><time>2026-03-21T15:11:04Z</time></trkpt><trkpt lat="40.85062322822048" lon="9.494196838592455"><ele>47.0</ele><time>2026-03-21T15:11:05Z</time></trkpt><trkpt lat="40.85074185390923" lon="9.494342573065282"><ele>47.0</ele><time>2026-03-21T15:11:06Z</time></trkpt><trkpt lat="40.85084925315933" lon="9.494520338030881"><ele>47.0</ele><time>2026-03-21T15:11:07Z</time></trkpt><trkpt lat="40.85094428300437" lon="9.494726414420583"><ele>45.666666666666664</ele><time>2026-03-21T15:11:08Z</time></trkpt><trkpt lat="40.851034091046515" lon="9.494935464715095"><ele>44.333333333333336</ele><time>2026-03-21T15:11:09Z</time></trkpt><trkpt lat="40.85112377618105" lon="9.495128137775655"><ele>43.0</ele><time>2026-03-21T15:11:10Z</time></trkpt><trkpt lat="40.85121823147563" lon="9.495339837895285"><ele>42.66666666666667</ele><time>2026-03-21T15:11:11Z</time></trkpt><trkpt lat="40.85131527886665" lon="9.49555130427047"><ele>42.333333333333336</ele><time>2026-03-21T15:11:12Z</time></trkpt><trkpt lat="40.85140400706437" lon="9.495757917977185"><ele>42.0</ele><time>2026-03-21T15:11:13Z</time></trkpt><trkpt lat="40.851495062499275" lon="9.495957847030454"><ele>42.0</ele><time>2026-03-21T15:11:14Z</time></trkpt><trkpt lat="40.85158704192149" lon="9.496153946241119"><ele>42.0</ele><time>2026-03-21T15:11:15Z</time></trkpt><trkpt lat="40.851689031330274" lon="9.4963335479118"><ele>42.0</ele><time>2026-03-21T15:11:16Z</time></trkpt><trkpt lat="40.85181803811921" lon="9.496474090093512"><ele>40.0</ele><time>2026-03-21T15:11:17Z</time></trkpt><trkpt lat="40.851974847381605" lon="9.49658941280806"><ele>38.0</ele><time>2026-03-21T15:11:18Z</time></trkpt><trkpt lat="40.85214866926908" lon="9.496675819974563"><ele>36.0</ele><time>2026-03-21T15:11:19Z</time></trkpt><trkpt lat="40.85232349115135" lon="9.496780692216875"><ele>36.0</ele><time>2026-03-21T15:11:20Z</time></trkpt><trkpt lat="40.85248733097569" lon="9.496858157268093"><ele>36.0</ele><time>2026-03-21T15:11:21Z</time></trkpt><trkpt lat="40.852636011262945" lon="9.496931922628013"><ele>36.0</ele><time>2026-03-21T15:11:22Z</time></trkpt><trkpt lat="40.852776984818604" lon="9.496998713054635"><ele>35.5</ele><time>2026-03-21T15:11:23Z</time></trkpt><trkpt lat="40.85291040997534" lon="9.49706483923885"><ele>35.0</ele><time>2026-03-21T15:11:24Z</time></trkpt><trkpt lat="40.853038375877446" lon="9.497127172615343"><ele>34.5</ele><time>2026-03-21T15:11:25Z</time></trkpt><trkpt lat="40.85315966402504" lon="9.497191188492463"><ele>34.0</ele><time>2026-03-21T15:11:26Z</time></trkpt><trkpt lat="40.85327995801443" lon="9.497242821885827"><ele>33.75</ele><time>2026-03-21T15:11:27Z</time></trkpt><trkpt lat="40.85339693151711" lon="9.497298701861853"><ele>33.5</ele><time>2026-03-21T15:11:28Z</time></trkpt><trkpt lat="40.853513158930234" lon="9.497349092987932"><ele>33.25</ele><time>2026-03-21T15:11:29Z</time></trkpt><trkpt lat="40.853623226134545" lon="9.49739664292315"><ele>33.0</ele><time>2026-03-21T15:11:30Z</time></trkpt><trkpt lat="40.85372522152283" lon="9.4974561851367"><ele>32.6</ele><time>2026-03-21T15:11:31Z</time></trkpt><trkpt lat="40.85382273867459" lon="9.497504896425104"><ele>32.199999999999996</ele><time>2026-03-21T15:11:32Z</time></trkpt><trkpt lat="40.85391824991811" lon="9.497535902353434"><ele>31.8</ele><time>2026-03-21T15:11:33Z</time></trkpt><trkpt lat="40.854005153424055" lon="9.497575626823108"><ele>31.4</ele><time>2026-03-21T15:11:34Z</time></trkpt><trkpt lat="40.8540880143776" lon="9.497622368138037"><ele>31.0</ele><time>2026-03-21T15:11:35Z</time></trkpt><trkpt lat="40.85416748889992" lon="9.497666761261435"><ele>31.0</ele><time>2026-03-21T15:11:36Z</time></trkpt><trkpt lat="40.85425715719739" lon="9.497709418116202"><ele>31.0</ele><time>2026-03-21T15:11:37Z</time></trkpt><trkpt lat="40.85434896997586" lon="9.49774003130928"><ele>31.0</ele><time>2026-03-21T15:11:38Z</time></trkpt><trkpt lat="40.854436896659536" lon="9.497783363873559"><ele>31.0</ele><time>2026-03-21T15:11:39Z</time></trkpt><trkpt lat="40.854523678897635" lon="9.497844258989282"><ele>31.0</ele><time>2026-03-21T15:11:40Z</time></trkpt><trkpt lat="40.854614496084594" lon="9.497902570334896"><ele>30.4</ele><time>2026-03-21T15:11:41Z</time></trkpt><trkpt lat="40.85470717089603" lon="9.497955451250247"><ele>29.8</ele><time>2026-03-21T15:11:42Z</time></trkpt><trkpt lat="40.85479295333725" lon="9.498005703227063"><ele>29.199999999999996</ele><time>2026-03-21T15:11:43Z</time></trkpt><trkpt lat="40.85487575897793" lon="9.498066194284384"><ele>28.599999999999998</ele><time>2026-03-21T15:11:44Z</time></trkpt><trkpt lat="40.854968210156954" lon="9.498134174461065"><ele>28.0</ele><time>2026-03-21T15:11:45Z</time></trkpt><trkpt lat="40.85507303830061" lon="9.498193005599166"><ele>27.5</ele><time>2026-03-21T15:11:46Z</time></trkpt><trkpt lat="40.855185906916866" lon="9.498262432997054"><ele>27.0</ele><time>2026-03-21T15:11:47Z</time></trkpt><trkpt lat="40.85530725799431" lon="9.498334985452184"><ele>26.5</ele><time>2026-03-21T15:11:48Z</time></trkpt><trkpt lat="40.8554345130107" lon="9.498417192593443"><ele>26.0</ele><time>2026-03-21T15:11:49Z</time></trkpt><trkpt lat="40.855564770696695" lon="9.498507388385054"><ele>26.0</ele><time>2026-03-21T15:11:50Z</time></trkpt><trkpt lat="40.85570024319281" lon="9.4985992764446"><ele>26.0</ele><time>2026-03-21T15:11:51Z</time></trkpt><trkpt lat="40.85584180057229" lon="9.498694978839781"><ele>26.0</ele><time>2026-03-21T15:11:52Z</time></trkpt><trkpt lat="40.855982450912265" lon="9.498800167181386"><ele>25.666666666666664</ele><time>2026-03-21T15:11:53Z</time></trkpt><trkpt lat="40.85611980980227" lon="9.49891710118407"><ele>25.333333333333336</ele><time>2026-03-21T15:11:54Z</time></trkpt><trkpt lat="40.85625250993594" lon="9.49906100579438"><ele>25.0</ele><time>2026-03-21T15:11:55Z</time></trkpt><trkpt lat="40.85638236247491" lon="9.499207581675961"><ele>25.0</ele><time>2026-03-21T15:11:56Z</time></trkpt><trkpt lat="40.85651393113633" lon="9.499347176137599"><ele>25.0</ele><time>2026-03-21T15:11:57Z</time></trkpt><trkpt lat="40.85664391039795" lon="9.499493155156772"><ele>25.0</ele><time>2026-03-21T15:11:58Z</time></trkpt><trkpt lat="40.856772089707015" lon="9.499638800126462"><ele>24.333333333333336</ele><time>2026-03-21T15:11:59Z</time></trkpt><trkpt lat="40.85690244663551" lon="9.499784264656622"><ele>23.666666666666668</ele><time>2026-03-21T15:12:00Z</time></trkpt><trkpt lat="40.85703172718822" lon="9.499933421861442"><ele>23.0</ele><time>2026-03-21T15:12:01Z</time></trkpt><trkpt lat="40.85715913447015" lon="9.500084394501087"><ele>23.0</ele><time>2026-03-21T15:12:02Z</time></trkpt><trkpt lat="40.8572946784979" lon="9.500229902864795"><ele>23.0</ele><time>2026-03-21T15:12:03Z</time></trkpt><trkpt lat="40.85743237366203" lon="9.500383637001033"><ele>23.0</ele><time>2026-03-21T15:12:04Z</time></trkpt><trkpt lat="40.857571359114374" lon="9.500530652406432"><ele>22.666666666666668</ele><time>2026-03-21T15:12:05Z</time></trkpt><trkpt lat="40.85771081459866" lon="9.500676035912036"><ele>22.333333333333332</ele><time>2026-03-21T15:12:06Z</time></trkpt><trkpt lat="40.85785802517456" lon="9.500808329997323"><ele>22.0</ele><time>2026-03-21T15:12:07Z</time></trkpt><trkpt lat="40.85801822573474" lon="9.500917621475324"><ele>22.0</ele><time>2026-03-21T15:12:08Z</time></trkpt><trkpt lat="40.85818701672773" lon="9.501007337054151"><ele>22.0</ele><time>2026-03-21T15:12:09Z</time></trkpt><trkpt lat="40.85835666451444" lon="9.501084829381501"><ele>22.0</ele><time>2026-03-21T15:12:10Z</time></trkpt><trkpt lat="40.85853239677932" lon="9.501156152821515"><ele>22.333333333333332</ele><time>2026-03-21T15:12:11Z</time></trkpt><trkpt lat="40.85870992344819" lon="9.501231377081732"><ele>22.666666666666668</ele><time>2026-03-21T15:12:12Z</time></trkpt><trkpt lat="40.858881108882926" lon="9.501301350729708"><ele>23.0</ele><time>2026-03-21T15:12:13Z</time></trkpt><trkpt lat="40.85905370844898" lon="9.501371540753336"><ele>23.0</ele><time>2026-03-21T15:12:14Z</time></trkpt><trkpt lat="40.859224601118115" lon="9.501446926046638"><ele>23.0</ele><time>2026-03-21T15:12:15Z</time></trkpt><trkpt lat="40.85939310968232" lon="9.50151983217475"><ele>23.0</ele><time>2026-03-21T15:12:16Z</time></trkpt><trkpt lat="40.859554877141235" lon="9.501590021489433"><ele>23.0</ele><time>2026-03-21T15:12:17Z</time></trkpt><trkpt lat="40.85972238455247" lon="9.501670704749818"><ele>23.0</ele><time>2026-03-21T15:12:18Z</time></trkpt><trkpt lat="40.859888989516826" lon="9.501745027273687"><ele>23.0</ele><time>2026-03-21T15:12:19Z</time></trkpt><trkpt lat="40.8600564727958" lon="9.501815210150868"><ele>22.333333333333336</ele><time>2026-03-21T15:12:20Z</time></trkpt><trkpt lat="40.86023073746715" lon="9.501872402543283"><ele>21.666666666666668</ele><time>2026-03-21T15:12:21Z</time></trkpt><trkpt lat="40.86040698982767" lon="9.501912564431771"><ele>21.0</ele><time>2026-03-21T15:12:22Z</time></trkpt><trkpt lat="40.86058161631005" lon="9.501946112948424"><ele>21.0</ele><time>2026-03-21T15:12:23Z</time></trkpt><trkpt lat="40.86075389469714" lon="9.501982461321086"><ele>21.0</ele><time>2026-03-21T15:12:24Z</time></trkpt><trkpt lat="40.860927042528445" lon="9.502023307568248"><ele>21.0</ele><time>2026-03-21T15:12:25Z</time></trkpt><trkpt lat="40.86109954692635" lon="9.502060423929134"><ele>21.333333333333332</ele><time>2026-03-21T15:12:26Z</time></trkpt><trkpt lat="40.8612736248774" lon="9.502099623333892"><ele>21.666666666666664</ele><time>2026-03-21T15:12:27Z</time></trkpt><trkpt lat="40.86145286620445" lon="9.50213802439223"><ele>22.0</ele><time>2026-03-21T15:12:28Z</time></trkpt><trkpt lat="40.86163395144413" lon="9.502174687718476"><ele>21.333333333333332</ele><time>2026-03-21T15:12:29Z</time></trkpt><trkpt lat="40.861815358389066" lon="9.502213260324526"><ele>20.666666666666668</ele><time>2026-03-21T15:12:30.001Z</time></trkpt><trkpt lat="40.86199191382258" lon="9.502252441227851"><ele>20.0</ele><time>2026-03-21T15:12:31.001Z</time></trkpt><trkpt lat="40.86217198762504" lon="9.502289351629804"><ele>20.0</ele><time>2026-03-21T15:12:32.001Z</time></trkpt><trkpt lat="40.8623501603087" lon="9.502327020977136"><ele>20.0</ele><time>2026-03-21T15:12:33.001Z</time></trkpt><trkpt lat="40.86253253133606" lon="9.50236471656566"><ele>20.0</ele><time>2026-03-21T15:12:34.001Z</time></trkpt><trkpt lat="40.86271165523751" lon="9.50240365112548"><ele>20.333333333333336</ele><time>2026-03-21T15:12:35.001Z</time></trkpt><trkpt lat="40.862889360676" lon="9.502445512719547"><ele>20.666666666666668</ele><time>2026-03-21T15:12:36.001Z</time></trkpt><trkpt lat="40.863072214670815" lon="9.502493270315432"><ele>21.0</ele><time>2026-03-21T15:12:37.001Z</time></trkpt><trkpt lat="40.86324779958152" lon="9.50255667985868"><ele>21.0</ele><time>2026-03-21T15:12:38.001Z</time></trkpt><trkpt lat="40.8634183464741" lon="9.502642284479931"><ele>21.0</ele><time>2026-03-21T15:12:39.001Z</time></trkpt><trkpt lat="40.86359191879991" lon="9.502725184486515"><ele>21.0</ele><time>2026-03-21T15:12:40.001Z</time></trkpt><trkpt lat="40.86377126840638" lon="9.502800380808102"><ele>20.333333333333332</ele><time>2026-03-21T15:12:41.001Z</time></trkpt><trkpt lat="40.86394993227396" lon="9.502877704809064"><ele>19.666666666666664</ele><time>2026-03-21T15:12:42.001Z</time></trkpt><trkpt lat="40.864129672171266" lon="9.502954383079619"><ele>19.0</ele><time>2026-03-21T15:12:43.001Z</time></trkpt><trkpt lat="40.86430493760801" lon="9.503030162097884"><ele>18.333333333333332</ele><time>2026-03-21T15:12:44.001Z</time></trkpt><trkpt lat="40.86447869675872" lon="9.503107639546018"><ele>17.666666666666668</ele><time>2026-03-21T15:12:45Z</time></trkpt><trkpt lat="40.86465500485005" lon="9.503181333249021"><ele>17.0</ele><time>2026-03-21T15:12:46Z</time></trkpt><trkpt lat="40.8648248396867" lon="9.503254883106138"><ele>17.0</ele><time>2026-03-21T15:12:47Z</time></trkpt><trkpt lat="40.8650025443393" lon="9.503333074558196"><ele>17.0</ele><time>2026-03-21T15:12:48Z</time></trkpt><trkpt lat="40.86517169012287" lon="9.503402018506542"><ele>17.0</ele><time>2026-03-21T15:12:49Z</time></trkpt><trkpt lat="40.865342346558556" lon="9.503479331432404"><ele>17.333333333333336</ele><time>2026-03-21T15:12:50Z</time></trkpt><trkpt lat="40.86551466390961" lon="9.503550040620972"><ele>17.666666666666668</ele><time>2026-03-21T15:12:51Z</time></trkpt><trkpt lat="40.86568732738826" lon="9.503620900192567"><ele>18.0</ele><time>2026-03-21T15:12:52Z</time></trkpt><trkpt lat="40.865856061960805" lon="9.50369700376375"><ele>17.666666666666668</ele><time>2026-03-21T15:12:53Z</time></trkpt><trkpt lat="40.86602755029829" lon="9.503775398933138"><ele>17.333333333333336</ele><time>2026-03-21T15:12:54Z</time></trkpt><trkpt lat="40.86619946990549" lon="9.503849655760574"><ele>17.0</ele><time>2026-03-21T15:12:55Z</time></trkpt><trkpt lat="40.86637234348471" lon="9.503923101889276"><ele>17.0</ele><time>2026-03-21T15:12:56Z</time></trkpt><trkpt lat="40.866546521444945" lon="9.503998642056857"><ele>17.0</ele><time>2026-03-21T15:12:57Z</time></trkpt><trkpt lat="40.86672152140288" lon="9.504068349184623"><ele>17.0</ele><time>2026-03-21T15:12:58Z</time></trkpt><trkpt lat="40.86689025832128" lon="9.504130609300356"><ele>17.0</ele><time>2026-03-21T15:12:59Z</time></trkpt><trkpt lat="40.867047217451734" lon="9.504200729218216"><ele>17.0</ele><time>2026-03-21T15:13:00Z</time></trkpt><trkpt lat="40.86720972465044" lon="9.504278390328645"><ele>17.0</ele><time>2026-03-21T15:13:01Z</time></trkpt><trkpt lat="40.867372896954805" lon="9.504355938007423"><ele>17.0</ele><time>2026-03-21T15:13:02Z</time></trkpt><trkpt lat="40.867541703544944" lon="9.504427054908744"><ele>17.0</ele><time>2026-03-21T15:13:03Z</time></trkpt><trkpt lat="40.867715401007416" lon="9.504477769653622"><ele>17.0</ele><time>2026-03-21T15:13:04Z</time></trkpt><trkpt lat="40.86788750206467" lon="9.50451997130165"><ele>17.0</ele><time>2026-03-21T15:13:05Z</time></trkpt><trkpt lat="40.868062613900285" lon="9.504555843834718"><ele>17.0</ele><time>2026-03-21T15:13:06Z</time></trkpt><trkpt lat="40.868234149871874" lon="9.504584501336183"><ele>17.0</ele><time>2026-03-21T15:13:07Z</time></trkpt><trkpt lat="40.868400616284354" lon="9.504616835008335"><ele>17.333333333333336</ele><time>2026-03-21T15:13:08Z</time></trkpt><trkpt lat="40.86856519259293" lon="9.504655812743655"><ele>17.666666666666668</ele><time>2026-03-21T15:13:09Z</time></trkpt><trkpt lat="40.86872462302298" lon="9.504689339973872"><ele>18.0</ele><time>2026-03-21T15:13:10Z</time></trkpt><trkpt lat="40.86888264938314" lon="9.50472857056099"><ele>18.0</ele><time>2026-03-21T15:13:11Z</time></trkpt><trkpt lat="40.869048333381514" lon="9.504753666740642"><ele>18.0</ele><time>2026-03-21T15:13:12Z</time></trkpt><trkpt lat="40.86921375177921" lon="9.504780837660531"><ele>18.0</ele><time>2026-03-21T15:13:13Z</time></trkpt><trkpt lat="40.869373177985864" lon="9.50480954371898"><ele>18.0</ele><time>2026-03-21T15:13:14Z</time></trkpt><trkpt lat="40.86953051785949" lon="9.50484153668426"><ele>18.0</ele><time>2026-03-21T15:13:15Z</time></trkpt><trkpt lat="40.86968442235252" lon="9.50486714221559"><ele>18.0</ele><time>2026-03-21T15:13:16Z</time></trkpt><trkpt lat="40.86983747823785" lon="9.504899622120629"><ele>18.0</ele><time>2026-03-21T15:13:17Z</time></trkpt><trkpt lat="40.869989239788595" lon="9.504934101918833"><ele>18.0</ele><time>2026-03-21T15:13:18Z</time></trkpt><trkpt lat="40.87013935233104" lon="9.504966960042323"><ele>18.0</ele><time>2026-03-21T15:13:19Z</time></trkpt><trkpt lat="40.870296377876194" lon="9.50500220693397"><ele>18.0</ele><time>2026-03-21T15:13:20Z</time></trkpt><trkpt lat="40.8704583858695" lon="9.505044738312876"><ele>18.0</ele><time>2026-03-21T15:13:21Z</time></trkpt><trkpt lat="40.870621079386375" lon="9.505090705703404"><ele>18.0</ele><time>2026-03-21T15:13:22Z</time></trkpt><trkpt lat="40.87078767599876" lon="9.505134047840114"><ele>18.666666666666668</ele><time>2026-03-21T15:13:23Z</time></trkpt><trkpt lat="40.870960424921726" lon="9.505174632995498"><ele>19.333333333333336</ele><time>2026-03-21T15:13:24Z</time></trkpt><trkpt lat="40.87113297164211" lon="9.505213790694306"><ele>20.0</ele><time>2026-03-21T15:13:25Z</time></trkpt><trkpt lat="40.871295158227575" lon="9.505244198939808"><ele>20.0</ele><time>2026-03-21T15:13:26Z</time></trkpt><trkpt lat="40.87147763757718" lon="9.505280520428371"><ele>20.0</ele><time>2026-03-21T15:13:27Z</time></trkpt><trkpt lat="40.871654344559175" lon="9.505326343826926"><ele>20.0</ele><time>2026-03-21T15:13:28Z</time></trkpt><trkpt lat="40.87182532154324" lon="9.505370688811148"><ele>19.333333333333336</ele><time>2026-03-21T15:13:29Z</time></trkpt><trkpt lat="40.87199894810874" lon="9.50541235687141"><ele>18.666666666666668</ele><time>2026-03-21T15:13:30Z</time></trkpt><trkpt lat="40.87216965680703" lon="9.505457395363482"><ele>18.0</ele><time>2026-03-21T15:13:31Z</time></trkpt><trkpt lat="40.87233942668293" lon="9.505495593590558"><ele>18.0</ele><time>2026-03-21T15:13:32Z</time></trkpt><trkpt lat="40.872510481921815" lon="9.505531571445545"><ele>18.0</ele><time>2026-03-21T15:13:33Z</time></trkpt><trkpt lat="40.87268121395044" lon="9.505570974028046"><ele>18.0</ele><time>2026-03-21T15:13:34Z</time></trkpt><trkpt lat="40.87284931959073" lon="9.505603720742757"><ele>18.666666666666668</ele><time>2026-03-21T15:13:35Z</time></trkpt><trkpt lat="40.873019518815596" lon="9.505641202247165"><ele>19.333333333333336</ele><time>2026-03-21T15:13:36Z</time></trkpt><trkpt lat="40.873190242948894" lon="9.505676737435676"><ele>20.0</ele><time>2026-03-21T15:13:37Z</time></trkpt><trkpt lat="40.87335052203182" lon="9.50572067194193"><ele>22.333333333333336</ele><time>2026-03-21T15:13:38Z</time></trkpt><trkpt lat="40.873517639874756" lon="9.505757687766131"><ele>24.666666666666668</ele><time>2026-03-21T15:13:39Z</time></trkpt><trkpt lat="40.873682033030484" lon="9.505797471089991"><ele>27.0</ele><time>2026-03-21T15:13:40Z</time></trkpt><trkpt lat="40.87384894843398" lon="9.505829982198598"><ele>27.0</ele><time>2026-03-21T15:13:41Z</time></trkpt><trkpt lat="40.874018727448494" lon="9.505862624027147"><ele>27.0</ele><time>2026-03-21T15:13:42Z</time></trkpt><trkpt lat="40.8741909318244" lon="9.505887462565834"><ele>27.0</ele><time>2026-03-21T15:13:43Z</time></trkpt><trkpt lat="40.87435930589276" lon="9.505896714909108"><ele>29.0</ele><time>2026-03-21T15:13:44Z</time></trkpt><trkpt lat="40.87452494348331" lon="9.505883613546855"><ele>31.0</ele><time>2026-03-21T15:13:45Z</time></trkpt><trkpt lat="40.87468919683232" lon="9.505854649239"><ele>33.0</ele><time>2026-03-21T15:13:46Z</time></trkpt><trkpt lat="40.874858984021564" lon="9.505802846078785"><ele>33.0</ele><time>2026-03-21T15:13:47Z</time></trkpt><trkpt lat="40.875025100837796" lon="9.50573305027713"><ele>33.0</ele><time>2026-03-21T15:13:48Z</time></trkpt><trkpt lat="40.8751883639629" lon="9.505647920232285"><ele>33.0</ele><time>2026-03-21T15:13:49Z</time></trkpt><trkpt lat="40.87535061880202" lon="9.505537982014966"><ele>33.333333333333336</ele><time>2026-03-21T15:13:50Z</time></trkpt><trkpt lat="40.875511275279486" lon="9.505426236063585"><ele>33.66666666666667</ele><time>2026-03-21T15:13:51Z</time></trkpt><trkpt lat="40.875673721941446" lon="9.505324110929017"><ele>34.0</ele><time>2026-03-21T15:13:52Z</time></trkpt><trkpt lat="40.87583942739634" lon="9.505228174163602"><ele>35.0</ele><time>2026-03-21T15:13:53Z</time></trkpt><trkpt lat="40.87599888436786" lon="9.505130078226985"><ele>36.0</ele><time>2026-03-21T15:13:54Z</time></trkpt><trkpt lat="40.876157041243545" lon="9.505027573603808"><ele>37.0</ele><time>2026-03-21T15:13:55Z</time></trkpt><trkpt lat="40.87631442447672" lon="9.504924387699605"><ele>37.0</ele><time>2026-03-21T15:13:56Z</time></trkpt><trkpt lat="40.87647557941201" lon="9.504832329259937"><ele>37.0</ele><time>2026-03-21T15:13:57Z</time></trkpt><trkpt lat="40.87664592843594" lon="9.504767220063421"><ele>37.0</ele><time>2026-03-21T15:13:58Z</time></trkpt><trkpt lat="40.876820593738664" lon="9.504760780807102"><ele>36.0</ele><time>2026-03-21T15:13:59Z</time></trkpt><trkpt lat="40.876999842163066" lon="9.504788819056323"><ele>35.0</ele><time>2026-03-21T15:14:00Z</time></trkpt><trkpt lat="40.877174699708014" lon="9.504842082242842"><ele>34.0</ele><time>2026-03-21T15:14:01Z</time></trkpt><trkpt lat="40.87735164535289" lon="9.504890246299368"><ele>34.0</ele><time>2026-03-21T15:14:02Z</time></trkpt><trkpt lat="40.877531366147174" lon="9.504930532936159"><ele>34.0</ele><time>2026-03-21T15:14:03Z</time></trkpt><trkpt lat="40.8777166814865" lon="9.504963216411422"><ele>34.0</ele><time>2026-03-21T15:14:04Z</time></trkpt><trkpt lat="40.8779000433719" lon="9.505003698948467"><ele>32.66666666666667</ele><time>2026-03-21T15:14:05Z</time></trkpt><trkpt lat="40.87808118112485" lon="9.505046978970853"><ele>31.333333333333336</ele><time>2026-03-21T15:14:06Z</time></trkpt><trkpt lat="40.87826089594772" lon="9.505092513562989"><ele>30.0</ele><time>2026-03-21T15:14:07Z</time></trkpt><trkpt lat="40.878441265861035" lon="9.50515091083976"><ele>29.666666666666664</ele><time>2026-03-21T15:14:08Z</time></trkpt><trkpt lat="40.878616468309254" lon="9.505219945780434"><ele>29.333333333333332</ele><time>2026-03-21T15:14:09Z</time></trkpt><trkpt lat="40.87879403740677" lon="9.50529497708948"><ele>29.0</ele><time>2026-03-21T15:14:10Z</time></trkpt><trkpt lat="40.87896995963778" lon="9.505358313936085"><ele>28.666666666666664</ele><time>2026-03-21T15:14:11Z</time></trkpt><trkpt lat="40.87914152988653" lon="9.505426249207304"><ele>28.333333333333336</ele><time>2026-03-21T15:14:12Z</time></trkpt><trkpt lat="40.87930846530454" lon="9.505497321277888"><ele>28.0</ele><time>2026-03-21T15:14:13Z</time></trkpt><trkpt lat="40.8794782656365" lon="9.505561870783517"><ele>28.0</ele><time>2026-03-21T15:14:14Z</time></trkpt><trkpt lat="40.87965015027714" lon="9.505627218076109"><ele>28.0</ele><time>2026-03-21T15:14:15Z</time></trkpt><trkpt lat="40.879815541571695" lon="9.505694470187871"><ele>28.0</ele><time>2026-03-21T15:14:16Z</time></trkpt><trkpt lat="40.87998275172725" lon="9.505759243851088"><ele>27.333333333333336</ele><time>2026-03-21T15:14:17Z</time></trkpt><trkpt lat="40.8801542939385" lon="9.505820343072468"><ele>26.666666666666664</ele><time>2026-03-21T15:14:18Z</time></trkpt><trkpt lat="40.880325507056284" lon="9.505887982991714"><ele>26.0</ele><time>2026-03-21T15:14:19Z</time></trkpt><trkpt lat="40.88049429843461" lon="9.505954971258427"><ele>26.0</ele><time>2026-03-21T15:14:20Z</time></trkpt><trkpt lat="40.88066432990556" lon="9.506020220079591"><ele>26.0</ele><time>2026-03-21T15:14:21Z</time></trkpt><trkpt lat="40.88083120556973" lon="9.506084950730527"><ele>26.0</ele><time>2026-03-21T15:14:22Z</time></trkpt><trkpt lat="40.88099843638744" lon="9.506148919718699"><ele>26.0</ele><time>2026-03-21T15:14:23Z</time></trkpt><trkpt lat="40.88116361803996" lon="9.506216537251385"><ele>26.0</ele><time>2026-03-21T15:14:24Z</time></trkpt><trkpt lat="40.88133355081076" lon="9.506280680708722"><ele>26.0</ele><time>2026-03-21T15:14:25Z</time></trkpt><trkpt lat="40.88150440653534" lon="9.506349709829305"><ele>25.666666666666664</ele><time>2026-03-21T15:14:26Z</time></trkpt><trkpt lat="40.88167785914942" lon="9.506410557016043"><ele>25.333333333333336</ele><time>2026-03-21T15:14:27Z</time></trkpt><trkpt lat="40.881854359577396" lon="9.506458311496878"><ele>25.0</ele><time>2026-03-21T15:14:28Z</time></trkpt><trkpt lat="40.88203069393233" lon="9.506506180145541"><ele>24.333333333333336</ele><time>2026-03-21T15:14:29Z</time></trkpt><trkpt lat="40.882206333631856" lon="9.50655702478795"><ele>23.666666666666668</ele><time>2026-03-21T15:14:30Z</time></trkpt><trkpt lat="40.882384115129284" lon="9.50660935512151"><ele>23.0</ele><time>2026-03-21T15:14:31Z</time></trkpt><trkpt lat="40.88256149728663" lon="9.50666757718501"><ele>22.666666666666668</ele><time>2026-03-21T15:14:32Z</time></trkpt><trkpt lat="40.88274908592869" lon="9.506713339577566"><ele>22.333333333333332</ele><time>2026-03-21T15:14:33Z</time></trkpt><trkpt lat="40.8829298777258" lon="9.506764053381897"><ele>22.0</ele><time>2026-03-21T15:14:34Z</time></trkpt><trkpt lat="40.883104262655024" lon="9.506817949789191"><ele>22.0</ele><time>2026-03-21T15:14:35Z</time></trkpt><trkpt lat="40.88327495907279" lon="9.506869765023453"><ele>22.0</ele><time>2026-03-21T15:14:36Z</time></trkpt><trkpt lat="40.883441332986564" lon="9.506901945765314"><ele>22.0</ele><time>2026-03-21T15:14:37Z</time></trkpt><trkpt lat="40.88361021901122" lon="9.5069307104134"><ele>21.0</ele><time>2026-03-21T15:14:38Z</time></trkpt><trkpt lat="40.88377825847403" lon="9.506929125380358"><ele>20.0</ele><time>2026-03-21T15:14:39Z</time></trkpt><trkpt lat="40.88393941016923" lon="9.506885505319046"><ele>19.0</ele><time>2026-03-21T15:14:40Z</time></trkpt><trkpt lat="40.884098736115874" lon="9.506822628800682"><ele>19.0</ele><time>2026-03-21T15:14:41.001Z</time></trkpt><trkpt lat="40.8842608757333" lon="9.506740974326782"><ele>19.0</ele><time>2026-03-21T15:14:42.001Z</time></trkpt><trkpt lat="40.88442427157809" lon="9.506668042762383"><ele>19.0</ele><time>2026-03-21T15:14:43.001Z</time></trkpt><trkpt lat="40.88458975322146" lon="9.50659481885395"><ele>17.333333333333332</ele><time>2026-03-21T15:14:44.001Z</time></trkpt><trkpt lat="40.884758964017514" lon="9.506529075356159"><ele>15.666666666666668</ele><time>2026-03-21T15:14:45.001Z</time></trkpt><trkpt lat="40.88492799804422" lon="9.50645277369645"><ele>14.0</ele><time>2026-03-21T15:14:46.001Z</time></trkpt><trkpt lat="40.88509540461865" lon="9.506385739938528"><ele>13.333333333333334</ele><time>2026-03-21T15:14:47.001Z</time></trkpt><trkpt lat="40.88526122447033" lon="9.506317506222784"><ele>12.666666666666668</ele><time>2026-03-21T15:14:48.001Z</time></trkpt><trkpt lat="40.885425191335706" lon="9.506249572099001"><ele>12.0</ele><time>2026-03-21T15:14:49.001Z</time></trkpt><trkpt lat="40.8855909239074" lon="9.506181078317482"><ele>12.0</ele><time>2026-03-21T15:14:50.001Z</time></trkpt><trkpt lat="40.88575827342073" lon="9.50610874942961"><ele>12.0</ele><time>2026-03-21T15:14:51Z</time></trkpt><trkpt lat="40.885924432979394" lon="9.506040300438068"><ele>12.0</ele><time>2026-03-21T15:14:52Z</time></trkpt><trkpt lat="40.88609029304477" lon="9.505969165808619"><ele>11.666666666666666</ele><time>2026-03-21T15:14:53Z</time></trkpt><trkpt lat="40.886253669856956" lon="9.505891875614582"><ele>11.333333333333332</ele><time>2026-03-21T15:14:54Z</time></trkpt><trkpt lat="40.886416233849175" lon="9.505821410726206"><ele>11.0</ele><time>2026-03-21T15:14:55Z</time></trkpt><trkpt lat="40.88658249823628" lon="9.505760953824906"><ele>11.0</ele><time>2026-03-21T15:14:56Z</time></trkpt><trkpt lat="40.88675045629054" lon="9.5056980869857"><ele>11.0</ele><time>2026-03-21T15:14:57Z</time></trkpt><trkpt lat="40.8869203890513" lon="9.505625630645245"><ele>11.0</ele><time>2026-03-21T15:14:58Z</time></trkpt><trkpt lat="40.887084695145866" lon="9.505561382400055"><ele>10.0</ele><time>2026-03-21T15:14:59Z</time></trkpt><trkpt lat="40.88724663495693" lon="9.505503406449673"><ele>9.0</ele><time>2026-03-21T15:15:00Z</time></trkpt><trkpt lat="40.887406077101254" lon="9.505430318731838"><ele>8.0</ele><time>2026-03-21T15:15:01Z</time></trkpt><trkpt lat="40.887561375093405" lon="9.505351691638358"><ele>8.333333333333332</ele><time>2026-03-21T15:15:02Z</time></trkpt><trkpt lat="40.887713013985326" lon="9.505275554340455"><ele>8.666666666666666</ele><time>2026-03-21T15:15:03Z</time></trkpt><trkpt lat="40.887866591153035" lon="9.505197989466474"><ele>9.0</ele><time>2026-03-21T15:15:04Z</time></trkpt><trkpt lat="40.888026351603244" lon="9.505120606155819"><ele>9.0</ele><time>2026-03-21T15:15:05Z</time></trkpt><trkpt lat="40.88818734150585" lon="9.50504191954619"><ele>9.0</ele><time>2026-03-21T15:15:06Z</time></trkpt><trkpt lat="40.88834690386679" lon="9.504960695150285"><ele>9.0</ele><time>2026-03-21T15:15:07Z</time></trkpt><trkpt lat="40.88850958028174" lon="9.504885122202243"><ele>9.0</ele><time>2026-03-21T15:15:08Z</time></trkpt><trkpt lat="40.888677483590435" lon="9.50478713285018"><ele>9.0</ele><time>2026-03-21T15:15:09Z</time></trkpt><trkpt lat="40.88884796318789" lon="9.504706424482526"><ele>9.0</ele><time>2026-03-21T15:15:10Z</time></trkpt><trkpt lat="40.889016686014166" lon="9.504630889371745"><ele>9.333333333333334</ele><time>2026-03-21T15:15:11Z</time></trkpt><trkpt lat="40.88918571767595" lon="9.504555940543261"><ele>9.666666666666668</ele><time>2026-03-21T15:15:12Z</time></trkpt><trkpt lat="40.88935365032067" lon="9.5044833924384"><ele>10.0</ele><time>2026-03-21T15:15:13Z</time></trkpt><trkpt lat="40.88952525107314" lon="9.504412285365154"><ele>10.0</ele><time>2026-03-21T15:15:14Z</time></trkpt><trkpt lat="40.88969139827876" lon="9.504337415727774"><ele>10.0</ele><time>2026-03-21T15:15:15Z</time></trkpt><trkpt lat="40.88985849673668" lon="9.504265206151613"><ele>10.0</ele><time>2026-03-21T15:15:16Z</time></trkpt><trkpt lat="40.890025270763324" lon="9.504190242485743"><ele>9.666666666666668</ele><time>2026-03-21T15:15:17Z</time></trkpt><trkpt lat="40.89018869716099" lon="9.504118966429823"><ele>9.333333333333334</ele><time>2026-03-21T15:15:18Z</time></trkpt><trkpt lat="40.890351481094534" lon="9.504046477053633"><ele>9.0</ele><time>2026-03-21T15:15:19Z</time></trkpt><trkpt lat="40.890512805388546" lon="9.503974648814934"><ele>9.0</ele><time>2026-03-21T15:15:20Z</time></trkpt><trkpt lat="40.89067241295371" lon="9.503908811252646"><ele>9.0</ele><time>2026-03-21T15:15:21Z</time></trkpt><trkpt lat="40.8908330578472" lon="9.503838158914473"><ele>9.0</ele><time>2026-03-21T15:15:22Z</time></trkpt><trkpt lat="40.89099122529524" lon="9.503767060512187"><ele>9.666666666666666</ele><time>2026-03-21T15:15:23Z</time></trkpt><trkpt lat="40.89114953893815" lon="9.503690209265757"><ele>10.333333333333332</ele><time>2026-03-21T15:15:24Z</time></trkpt><trkpt lat="40.89130198168401" lon="9.503608459605925"><ele>11.0</ele><time>2026-03-21T15:15:25Z</time></trkpt><trkpt lat="40.891449816605174" lon="9.503500158243769"><ele>11.0</ele><time>2026-03-21T15:15:26Z</time></trkpt><trkpt lat="40.89159459950077" lon="9.50338352292626"><ele>11.0</ele><time>2026-03-21T15:15:27Z</time></trkpt><trkpt lat="40.89174107093811" lon="9.503260795915542"><ele>11.0</ele><time>2026-03-21T15:15:28Z</time></trkpt><trkpt lat="40.89188539672791" lon="9.503140116212858"><ele>11.0</ele><time>2026-03-21T15:15:29Z</time></trkpt><trkpt lat="40.89203101780819" lon="9.503017576064467"><ele>11.0</ele><time>2026-03-21T15:15:30Z</time></trkpt><trkpt lat="40.89217356523728" lon="9.502899228582788"><ele>11.0</ele><time>2026-03-21T15:15:31Z</time></trkpt><trkpt lat="40.89231669783566" lon="9.502779852957989"><ele>11.0</ele><time>2026-03-21T15:15:32Z</time></trkpt><trkpt lat="40.89246370426765" lon="9.502663271874422"><ele>11.0</ele><time>2026-03-21T15:15:33Z</time></trkpt><trkpt lat="40.892604234037044" lon="9.502544325219317"><ele>11.0</ele><time>2026-03-21T15:15:34Z</time></trkpt><trkpt lat="40.892748293311044" lon="9.502419955355975"><ele>11.0</ele><time>2026-03-21T15:15:35Z</time></trkpt><trkpt lat="40.892892261859714" lon="9.502307923770772"><ele>11.0</ele><time>2026-03-21T15:15:36Z</time></trkpt><trkpt lat="40.89303718361278" lon="9.502192948991457"><ele>11.0</ele><time>2026-03-21T15:15:37Z</time></trkpt><trkpt lat="40.89317547235664" lon="9.502071845377344"><ele>11.0</ele><time>2026-03-21T15:15:38Z</time></trkpt><trkpt lat="40.893315598243696" lon="9.501957109795152"><ele>11.0</ele><time>2026-03-21T15:15:39Z</time></trkpt><trkpt lat="40.8934548395996" lon="9.50184047924663"><ele>11.0</ele><time>2026-03-21T15:15:40Z</time></trkpt><trkpt lat="40.89358277247542" lon="9.501729519613148"><ele>11.25</ele><time>2026-03-21T15:15:41Z</time></trkpt><trkpt lat="40.893705148174206" lon="9.501623846060967"><ele>11.5</ele><time>2026-03-21T15:15:42Z</time></trkpt><trkpt lat="40.89383130802502" lon="9.501515849756759"><ele>11.75</ele><time>2026-03-21T15:15:43Z</time></trkpt><trkpt lat="40.89395997653637" lon="9.501411762954707"><ele>12.0</ele><time>2026-03-21T15:15:44Z</time></trkpt><trkpt lat="40.89408765289192" lon="9.501306581570386"><ele>12.0</ele><time>2026-03-21T15:15:45Z</time></trkpt><trkpt lat="40.89421358309115" lon="9.501198136240044"><ele>12.0</ele><time>2026-03-21T15:15:46Z</time></trkpt><trkpt lat="40.894337799260676" lon="9.501092938510245"><ele>12.0</ele><time>2026-03-21T15:15:47Z</time></trkpt><trkpt lat="40.89446393191652" lon="9.500988581980247"><ele>12.0</ele><time>2026-03-21T15:15:48Z</time></trkpt><trkpt lat="40.89458938095722" lon="9.500879936437466"><ele>12.0</ele><time>2026-03-21T15:15:49Z</time></trkpt><trkpt lat="40.89471889059457" lon="9.500773001294778"><ele>12.0</ele><time>2026-03-21T15:15:50Z</time></trkpt><trkpt lat="40.894844968729146" lon="9.500666587504083"><ele>12.0</ele><time>2026-03-21T15:15:51Z</time></trkpt><trkpt lat="40.89497130505528" lon="9.500556428735193"><ele>12.0</ele><time>2026-03-21T15:15:52Z</time></trkpt><trkpt lat="40.89509124617077" lon="9.500456445981664"><ele>12.0</ele><time>2026-03-21T15:15:53Z</time></trkpt><trkpt lat="40.89520974538995" lon="9.500356418608305"><ele>12.0</ele><time>2026-03-21T15:15:54Z</time></trkpt><trkpt lat="40.895321756026696" lon="9.500253514633073"><ele>12.0</ele><time>2026-03-21T15:15:55Z</time></trkpt><trkpt lat="40.8954441551292" lon="9.500149353025158"><ele>12.25</ele><time>2026-03-21T15:15:56Z</time></trkpt><trkpt lat="40.89557091332717" lon="9.5000492522801"><ele>12.5</ele><time>2026-03-21T15:15:57Z</time></trkpt><trkpt lat="40.8956948444031" lon="9.49994619923422"><ele>12.75</ele><time>2026-03-21T15:15:58Z</time></trkpt><trkpt lat="40.89581457695343" lon="9.499843386457968"><ele>13.0</ele><time>2026-03-21T15:15:59Z</time></trkpt><trkpt lat="40.89591959767866" lon="9.499747038847733"><ele>13.25</ele><time>2026-03-21T15:16:00Z</time></trkpt><trkpt lat="40.89602927202199" lon="9.49967136732765"><ele>13.5</ele><time>2026-03-21T15:16:01Z</time></trkpt><trkpt lat="40.896150911464076" lon="9.499633913320794"><ele>13.75</ele><time>2026-03-21T15:16:02Z</time></trkpt><trkpt lat="40.89625692363835" lon="9.499582260480073"><ele>14.0</ele><time>2026-03-21T15:16:03Z</time></trkpt><trkpt lat="40.89632955389967" lon="9.499483436668577"><ele>14.5</ele><time>2026-03-21T15:16:04Z</time></trkpt><trkpt lat="40.89636331781414" lon="9.499357049721732"><ele>15.0</ele><time>2026-03-21T15:16:05Z</time></trkpt><trkpt lat="40.89631707175008" lon="9.499219600707859"><ele>15.5</ele><time>2026-03-21T15:16:06Z</time></trkpt><trkpt lat="40.896430296499105" lon="9.499066201476895"><ele>16.0</ele><time>2026-03-21T15:16:07Z</time></trkpt><trkpt lat="40.89652966424113" lon="9.498922527558808"><ele>16.0</ele><time>2026-03-21T15:16:08Z</time></trkpt><trkpt lat="40.896646976126554" lon="9.498778522046875"><ele>16.0</ele><time>2026-03-21T15:16:09Z</time></trkpt><trkpt lat="40.89674844952526" lon="9.498618220358924"><ele>16.0</ele><time>2026-03-21T15:16:10Z</time></trkpt><trkpt lat="40.896848245362186" lon="9.49845409433909"><ele>14.666666666666666</ele><time>2026-03-21T15:16:11Z</time></trkpt><trkpt lat="40.89696532448927" lon="9.49828073397057"><ele>13.333333333333332</ele><time>2026-03-21T15:16:12Z</time></trkpt><trkpt lat="40.897111587798925" lon="9.498133397496579"><ele>12.0</ele><time>2026-03-21T15:16:13Z</time></trkpt><trkpt lat="40.89727937475272" lon="9.498008138868851"><ele>12.0</ele><time>2026-03-21T15:16:14Z</time></trkpt><trkpt lat="40.89745378771242" lon="9.497919134127653"><ele>12.0</ele><time>2026-03-21T15:16:15Z</time></trkpt><trkpt lat="40.89762501136108" lon="9.497876295241491"><ele>12.0</ele><time>2026-03-21T15:16:16Z</time></trkpt><trkpt lat="40.897795602904054" lon="9.497845825952309"><ele>12.333333333333332</ele><time>2026-03-21T15:16:17Z</time></trkpt><trkpt lat="40.89795433673418" lon="9.497796869121993"><ele>12.666666666666666</ele><time>2026-03-21T15:16:18Z</time></trkpt><trkpt lat="40.89810585538808" lon="9.49776234784494"><ele>13.0</ele><time>2026-03-21T15:16:19Z</time></trkpt><trkpt lat="40.8982478399786" lon="9.497727331976137"><ele>13.0</ele><time>2026-03-21T15:16:20Z</time></trkpt><trkpt lat="40.89838906892248" lon="9.497694195196171"><ele>13.0</ele><time>2026-03-21T15:16:21Z</time></trkpt><trkpt lat="40.89853655071197" lon="9.49765367010391"><ele>13.0</ele><time>2026-03-21T15:16:22Z</time></trkpt><trkpt lat="40.8986955146117" lon="9.497616091870725"><ele>12.666666666666666</ele><time>2026-03-21T15:16:23Z</time></trkpt><trkpt lat="40.89886763154034" lon="9.497598693144369"><ele>12.333333333333332</ele><time>2026-03-21T15:16:24Z</time></trkpt><trkpt lat="40.8990457513118" lon="9.497590295605827"><ele>12.0</ele><time>2026-03-21T15:16:25Z</time></trkpt><trkpt lat="40.89922233614612" lon="9.49760059358591"><ele>11.333333333333334</ele><time>2026-03-21T15:16:26Z</time></trkpt><trkpt lat="40.89938717263028" lon="9.49761635230866"><ele>10.666666666666668</ele><time>2026-03-21T15:16:27Z</time></trkpt><trkpt lat="40.89954971898592" lon="9.497625740746203"><ele>10.0</ele><time>2026-03-21T15:16:28Z</time></trkpt><trkpt lat="40.899706891582724" lon="9.497627792568803"><ele>10.0</ele><time>2026-03-21T15:16:29Z</time></trkpt><trkpt lat="40.89984999955721" lon="9.497627100602312"><ele>10.0</ele><time>2026-03-21T15:16:30Z</time></trkpt><trkpt lat="40.899988437222945" lon="9.497625656666688"><ele>10.0</ele><time>2026-03-21T15:16:31Z</time></trkpt><trkpt lat="40.900129708657545" lon="9.497626461929414"><ele>10.0</ele><time>2026-03-21T15:16:32Z</time></trkpt><trkpt lat="40.90026977560587" lon="9.497637120666893"><ele>10.5</ele><time>2026-03-21T15:16:33Z</time></trkpt><trkpt lat="40.900386704648014" lon="9.497712003924685"><ele>11.0</ele><time>2026-03-21T15:16:34Z</time></trkpt><trkpt lat="40.900493193960116" lon="9.497801106345944"><ele>11.5</ele><time>2026-03-21T15:16:35Z</time></trkpt><trkpt lat="40.90059940510048" lon="9.497858126109323"><ele>12.0</ele><time>2026-03-21T15:16:36.001Z</time></trkpt><trkpt lat="40.90072287390365" lon="9.497834471156095"><ele>12.0</ele><time>2026-03-21T15:16:37.001Z</time></trkpt><trkpt lat="40.90085878135789" lon="9.497837249389008"><ele>12.0</ele><time>2026-03-21T15:16:38.001Z</time></trkpt><trkpt lat="40.900979147489274" lon="9.49793104996141"><ele>12.0</ele><time>2026-03-21T15:16:39.001Z</time></trkpt><trkpt lat="40.90110533748665" lon="9.49804433747062"><ele>12.0</ele><time>2026-03-21T15:16:40.001Z</time></trkpt><trkpt lat="40.901243658814245" lon="9.498149358545216"><ele>12.333333333333332</ele><time>2026-03-21T15:16:41.001Z</time></trkpt><trkpt lat="40.90137223382205" lon="9.498281932538873"><ele>12.666666666666666</ele><time>2026-03-21T15:16:42.001Z</time></trkpt><trkpt lat="40.90150379183252" lon="9.49842148865315"><ele>13.0</ele><time>2026-03-21T15:16:43.001Z</time></trkpt><trkpt lat="40.901642411917294" lon="9.49856045413746"><ele>12.333333333333332</ele><time>2026-03-21T15:16:44.001Z</time></trkpt><trkpt lat="40.90178623193226" lon="9.4986891189203"><ele>11.666666666666666</ele><time>2026-03-21T15:16:45.001Z</time></trkpt><trkpt lat="40.90193040454209" lon="9.498817836086701"><ele>11.0</ele><time>2026-03-21T15:16:46.001Z</time></trkpt><trkpt lat="40.9020706355679" lon="9.49895106044709"><ele>11.0</ele><time>2026-03-21T15:16:47.001Z</time></trkpt><trkpt lat="40.90220490733088" lon="9.499084073964479"><ele>11.0</ele><time>2026-03-21T15:16:48.001Z</time></trkpt><trkpt lat="40.902335291111115" lon="9.499212107303524"><ele>11.0</ele><time>2026-03-21T15:16:49.001Z</time></trkpt><trkpt lat="40.90246448758075" lon="9.499338417536304"><ele>11.0</ele><time>2026-03-21T15:16:50.001Z</time></trkpt><trkpt lat="40.90259349745827" lon="9.499467180719986"><ele>11.0</ele><time>2026-03-21T15:16:51.001Z</time></trkpt><trkpt lat="40.90272446557096" lon="9.499591355696216"><ele>11.0</ele><time>2026-03-21T15:16:52.001Z</time></trkpt><trkpt lat="40.90285495065237" lon="9.499706040224943"><ele>11.0</ele><time>2026-03-21T15:16:53.001Z</time></trkpt><trkpt lat="40.90297471046575" lon="9.499818296754466"><ele>11.0</ele><time>2026-03-21T15:16:54.001Z</time></trkpt><trkpt lat="40.90310072603684" lon="9.499936410101524"><ele>11.0</ele><time>2026-03-21T15:16:55.001Z</time></trkpt><trkpt lat="40.90322579810371" lon="9.500055861083574"><ele>11.0</ele><time>2026-03-21T15:16:56.001Z</time></trkpt><trkpt lat="40.903347777427825" lon="9.5001681284626"><ele>11.0</ele><time>2026-03-21T15:16:57Z</time></trkpt><trkpt lat="40.90346717192324" lon="9.50027714625801"><ele>11.0</ele><time>2026-03-21T15:16:58Z</time></trkpt><trkpt lat="40.903584293501105" lon="9.500388118713573"><ele>11.0</ele><time>2026-03-21T15:16:59Z</time></trkpt><trkpt lat="40.9037034465796" lon="9.50050113553735"><ele>12.666666666666666</ele><time>2026-03-21T15:17:00Z</time></trkpt><trkpt lat="40.90382676484618" lon="9.500614218809133"><ele>14.333333333333332</ele><time>2026-03-21T15:17:01Z</time></trkpt><trkpt lat="40.90395532281921" lon="9.500719574117417"><ele>16.0</ele><time>2026-03-21T15:17:02Z</time></trkpt><trkpt lat="40.90409142237996" lon="9.500812229201722"><ele>16.0</ele><time>2026-03-21T15:17:03Z</time></trkpt><trkpt lat="40.90422643275816" lon="9.500905932638894"><ele>16.0</ele><time>2026-03-21T15:17:04Z</time></trkpt><trkpt lat="40.9043670626436" lon="9.501000020223175"><ele>16.0</ele><time>2026-03-21T15:17:05Z</time></trkpt><trkpt lat="40.904512208575014" lon="9.501090540479952"><ele>16.0</ele><time>2026-03-21T15:17:06Z</time></trkpt><trkpt lat="40.90465971008935" lon="9.501178537785309"><ele>16.0</ele><time>2026-03-21T15:17:07Z</time></trkpt><trkpt lat="40.90480880862598" lon="9.501267335677628"><ele>16.0</ele><time>2026-03-21T15:17:08Z</time></trkpt><trkpt lat="40.904964032516446" lon="9.501342131072333"><ele>17.0</ele><time>2026-03-21T15:17:09Z</time></trkpt><trkpt lat="40.90512122548693" lon="9.501397913340355"><ele>18.0</ele><time>2026-03-21T15:17:10Z</time></trkpt><trkpt lat="40.905280776480694" lon="9.501442595866651"><ele>19.0</ele><time>2026-03-21T15:17:11Z</time></trkpt><trkpt lat="40.9054401270996" lon="9.501479918633905"><ele>19.0</ele><time>2026-03-21T15:17:12Z</time></trkpt><trkpt lat="40.90559814628687" lon="9.501506814855864"><ele>19.0</ele><time>2026-03-21T15:17:13Z</time></trkpt><trkpt lat="40.90576460955076" lon="9.501511652013793"><ele>19.0</ele><time>2026-03-21T15:17:14Z</time></trkpt><trkpt lat="40.905920553613434" lon="9.501489848852625"><ele>18.333333333333332</ele><time>2026-03-21T15:17:15Z</time></trkpt><trkpt lat="40.90606725199823" lon="9.501427972882235"><ele>17.666666666666668</ele><time>2026-03-21T15:17:16Z</time></trkpt><trkpt lat="40.90621745982316" lon="9.501366986333084"><ele>17.0</ele><time>2026-03-21T15:17:17Z</time></trkpt><trkpt lat="40.906374450638715" lon="9.501310310765536"><ele>17.0</ele><time>2026-03-21T15:17:18Z</time></trkpt><trkpt lat="40.90653371129046" lon="9.501261150209915"><ele>17.0</ele><time>2026-03-21T15:17:19Z</time></trkpt><trkpt lat="40.906688482387764" lon="9.501211814609702"><ele>17.0</ele><time>2026-03-21T15:17:20Z</time></trkpt><trkpt lat="40.906834265222585" lon="9.50116807109155"><ele>15.0</ele><time>2026-03-21T15:17:21Z</time></trkpt><trkpt lat="40.90697746194604" lon="9.501133454114905"><ele>13.0</ele><time>2026-03-21T15:17:22Z</time></trkpt><trkpt lat="40.907120540311475" lon="9.50110370316949"><ele>11.0</ele><time>2026-03-21T15:17:23Z</time></trkpt><trkpt lat="40.9072611895333" lon="9.501082195300809"><ele>9.0</ele><time>2026-03-21T15:17:24Z</time></trkpt><trkpt lat="40.90740026795975" lon="9.501059271388767"><ele>9.0</ele><time>2026-03-21T15:17:25Z</time></trkpt><trkpt lat="40.90753660380759" lon="9.501032988477458"><ele>9.0</ele><time>2026-03-21T15:17:26Z</time></trkpt><trkpt lat="40.907670459260196" lon="9.501003311162396"><ele>9.0</ele><time>2026-03-21T15:17:27Z</time></trkpt><trkpt lat="40.90780428040479" lon="9.500979078751028"><ele>9.0</ele><time>2026-03-21T15:17:28Z</time></trkpt><trkpt lat="40.907939879848904" lon="9.500955287240025"><ele>8.75</ele><time>2026-03-21T15:17:29Z</time></trkpt><trkpt lat="40.90806414696537" lon="9.50093547656696"><ele>8.5</ele><time>2026-03-21T15:17:30Z</time></trkpt><trkpt lat="40.9081885829985" lon="9.500912079087918"><ele>8.25</ele><time>2026-03-21T15:17:31Z</time></trkpt><trkpt lat="40.9083105548848" lon="9.500888883797055"><ele>8.0</ele><time>2026-03-21T15:17:32Z</time></trkpt><trkpt lat="40.908428266478225" lon="9.500879153137706"><ele>7.5</ele><time>2026-03-21T15:17:33Z</time></trkpt><trkpt lat="40.90854709756955" lon="9.500860771818495"><ele>7.0</ele><time>2026-03-21T15:17:34Z</time></trkpt><trkpt lat="40.908672013438654" lon="9.50084231411095"><ele>6.5</ele><time>2026-03-21T15:17:35Z</time></trkpt><trkpt lat="40.90879960499568" lon="9.500815532664783"><ele>6.0</ele><time>2026-03-21T15:17:36Z</time></trkpt><trkpt lat="40.908921564541764" lon="9.50079183550381"><ele>6.0</ele><time>2026-03-21T15:17:37Z</time></trkpt><trkpt lat="40.9090560657278" lon="9.500786882193953"><ele>6.0</ele><time>2026-03-21T15:17:38Z</time></trkpt><trkpt lat="40.909203502719784" lon="9.500778109130199"><ele>6.0</ele><time>2026-03-21T15:17:39Z</time></trkpt><trkpt lat="40.90936487949307" lon="9.500768431372581"><ele>6.0</ele><time>2026-03-21T15:17:40Z</time></trkpt><trkpt lat="40.909519711150516" lon="9.500756981404452"><ele>5.0</ele><time>2026-03-21T15:17:41Z</time></trkpt><trkpt lat="40.90967665214923" lon="9.500743915908162"><ele>4.0</ele><time>2026-03-21T15:17:42Z</time></trkpt><trkpt lat="40.909833453278324" lon="9.500730781512058"><ele>3.0</ele><time>2026-03-21T15:17:43Z</time></trkpt><trkpt lat="40.909994382672274" lon="9.500717636865598"><ele>3.0</ele><time>2026-03-21T15:17:44Z</time></trkpt><trkpt lat="40.910160517633734" lon="9.500700495779443"><ele>3.0</ele><time>2026-03-21T15:17:45Z</time></trkpt><trkpt lat="40.91032541456605" lon="9.500687599380445"><ele>3.0</ele><time>2026-03-21T15:17:46Z</time></trkpt><trkpt lat="40.91049309324092" lon="9.500673084835611"><ele>3.0</ele><time>2026-03-21T15:17:47Z</time></trkpt><trkpt lat="40.91064691251836" lon="9.500666830407873"><ele>3.0</ele><time>2026-03-21T15:17:48Z</time></trkpt><trkpt lat="40.91078970737477" lon="9.50068170573959"><ele>3.0</ele><time>2026-03-21T15:17:49Z</time></trkpt><trkpt lat="40.91092045801637" lon="9.500713838216578"><ele>3.0</ele><time>2026-03-21T15:17:50Z</time></trkpt><trkpt lat="40.911047522373295" lon="9.50074447599061"><ele>3.0</ele><time>2026-03-21T15:17:51Z</time></trkpt><trkpt lat="40.91116783479049" lon="9.500759975130153"><ele>3.0</ele><time>2026-03-21T15:17:52Z</time></trkpt><trkpt lat="40.911281644729115" lon="9.500775710840873"><ele>3.0</ele><time>2026-03-21T15:17:53Z</time></trkpt><trkpt lat="40.91139181236055" lon="9.500795939713495"><ele>3.0</ele><time>2026-03-21T15:17:54Z</time></trkpt><trkpt lat="40.91149561142301" lon="9.500825476664486"><ele>3.0</ele><time>2026-03-21T15:17:55Z</time></trkpt><trkpt lat="40.91159825522794" lon="9.500866865718464"><ele>3.0</ele><time>2026-03-21T15:17:56Z</time></trkpt><trkpt lat="40.911690512045986" lon="9.500949204254916"><ele>3.0</ele><time>2026-03-21T15:17:57Z</time></trkpt><trkpt lat="40.91173783442517" lon="9.501082933069547"><ele>3.0</ele><time>2026-03-21T15:17:58Z</time></trkpt><trkpt lat="40.91176193518018" lon="9.501240217008236"><ele>3.0</ele><time>2026-03-21T15:17:59Z</time></trkpt><trkpt lat="40.911754314718195" lon="9.501405124122488"><ele>3.0</ele><time>2026-03-21T15:18:00Z</time></trkpt><trkpt lat="40.91171683262836" lon="9.501540051258985"><ele>3.0</ele><time>2026-03-21T15:18:01Z</time></trkpt><trkpt lat="40.911682842595795" lon="9.501659040199561"><ele>3.0</ele><time>2026-03-21T15:18:02Z</time></trkpt><trkpt lat="40.91168219674903" lon="9.501754759374764"><ele>3.0</ele><time>2026-03-21T15:18:03Z</time></trkpt><trkpt lat="40.91172518686261" lon="9.50183595540693"><ele>3.0</ele><time>2026-03-21T15:18:04Z</time></trkpt><trkpt lat="40.91165592376766" lon="9.50185020924713"><ele>3.0</ele><time>2026-03-21T15:18:05Z</time></trkpt><trkpt lat="40.911873498204095" lon="9.50190243289835"><ele>3.0</ele><time>2026-03-21T15:18:06Z</time></trkpt><trkpt lat="40.91194798836931" lon="9.501933175574516"><ele>3.0</ele><time>2026-03-21T15:18:07Z</time></trkpt><trkpt lat="40.91201952380018" lon="9.501969675383116"><ele>3.0</ele><time>2026-03-21T15:18:08Z</time></trkpt><trkpt lat="40.91207920214162" lon="9.502007420798824"><ele>2.8</ele><time>2026-03-21T15:18:09Z</time></trkpt><trkpt lat="40.91213577390272" lon="9.502044287531058"><ele>2.5999999999999996</ele><time>2026-03-21T15:18:10Z</time></trkpt><trkpt lat="40.912148535841446" lon="9.502129291610926"><ele>2.4000000000000004</ele><time>2026-03-21T15:18:11Z</time></trkpt><trkpt lat="40.91232677817978" lon="9.502094461898881"><ele>2.2</ele><time>2026-03-21T15:18:13Z</time></trkpt><trkpt lat="40.91241460494356" lon="9.50202024858601"><ele>2.0</ele><time>2026-03-21T15:18:15Z</time></trkpt><trkpt lat="40.91249501954802" lon="9.501965586234732"><ele>1.9999999999999998</ele><time>2026-03-21T15:18:17Z</time></trkpt><trkpt lat="40.91257052109034" lon="9.501916261861581"><ele>2.0</ele><time>2026-03-21T15:18:58.001Z</time></trkpt><trkpt lat="40.91259572969551" lon="9.501992824677089"><ele>2.0</ele><time>2026-03-21T15:19:45Z</time></trkpt><trkpt lat="40.91251254481713" lon="9.502007529422022"><ele>2.0</ele><time>2026-03-21T15:41:06Z</time></trkpt><trkpt lat="40.91243460021155" lon="9.50207657996007"><ele>1.9999999999999998</ele><time>2026-03-21T15:41:10Z</time></trkpt><trkpt lat="40.912353440447625" lon="9.502096088178327"><ele>2.0</ele><time>2026-03-21T15:41:12Z</time></trkpt><trkpt lat="40.91224284311898" lon="9.502036624692321"><ele>1.6666666666666665</ele><time>2026-03-21T15:41:14Z</time></trkpt><trkpt lat="40.91214797568308" lon="9.501996321227184"><ele>1.3333333333333333</ele><time>2026-03-21T15:41:16Z</time></trkpt><trkpt lat="40.91206494278689" lon="9.501961804289305"><ele>1.0</ele><time>2026-03-21T15:41:18Z</time></trkpt><trkpt lat="40.91199389234583" lon="9.501934253071324"><ele>0.6666666666666666</ele><time>2026-03-21T15:41:20Z</time></trkpt><trkpt lat="40.91192412040272" lon="9.501882763289208"><ele>0.3333333333333333</ele><time>2026-03-21T15:41:23Z</time></trkpt><trkpt lat="40.91187324010643" lon="9.501826102478589"><ele>0.0</ele><time>2026-03-21T15:41:28Z</time></trkpt><trkpt lat="40.911810053714305" lon="9.501761073699846"><ele>0.0</ele><time>2026-03-21T15:42:34Z</time></trkpt><trkpt lat="40.91180769036289" lon="9.501659155100649"><ele>0.0</ele><time>2026-03-21T15:42:37Z</time></trkpt><trkpt lat="40.911843767987556" lon="9.501584461401718"><ele>0.0</ele><time>2026-03-21T15:42:39Z</time></trkpt><trkpt lat="40.911918305014844" lon="9.501513901520994"><ele>0.0</ele><time>2026-03-21T15:42:41Z</time></trkpt><trkpt lat="40.912007775902055" lon="9.501458311921388"><ele>0.0</ele><time>2026-03-21T15:42:43Z</time></trkpt><trkpt lat="40.91211855845552" lon="9.501385890662569"><ele>0.0</ele><time>2026-03-21T15:42:45Z</time></trkpt><trkpt lat="40.912166098002444" lon="9.50132596615466"><ele>0.0</ele><time>2026-03-21T15:42:46Z</time></trkpt><trkpt lat="40.91220783195109" lon="9.501254015708584"><ele>0.0</ele><time>2026-03-21T15:42:47Z</time></trkpt><trkpt lat="40.912238487672916" lon="9.501177415038294"><ele>0.0</ele><time>2026-03-21T15:42:48Z</time></trkpt><trkpt lat="40.912242772930405" lon="9.501092373069376"><ele>0.0</ele><time>2026-03-21T15:42:49Z</time></trkpt><trkpt lat="40.91233541349781" lon="9.500963843739903"><ele>0.0</ele><time>2026-03-21T15:42:51Z</time></trkpt><trkpt lat="40.91242364788278" lon="9.500857244875482"><ele>0.3333333333333333</ele><time>2026-03-21T15:42:53Z</time></trkpt><trkpt lat="40.912529446789" lon="9.50078244816929"><ele>0.6666666666666666</ele><time>2026-03-21T15:42:55Z</time></trkpt><trkpt lat="40.91258907988727" lon="9.500754472276501"><ele>1.0</ele><time>2026-03-21T15:42:56Z</time></trkpt><trkpt lat="40.91270400311096" lon="9.500717206705643"><ele>1.3333333333333333</ele><time>2026-03-21T15:42:58Z</time></trkpt><trkpt lat="40.912766478161835" lon="9.500702419587459"><ele>1.6666666666666665</ele><time>2026-03-21T15:42:59Z</time></trkpt><trkpt lat="40.91282908497876" lon="9.500687895888156"><ele>2.0</ele><time>2026-03-21T15:43:00Z</time></trkpt><trkpt lat="40.91295021615572" lon="9.500661818472961"><ele>2.4000000000000004</ele><time>2026-03-21T15:43:02Z</time></trkpt><trkpt lat="40.91305672965059" lon="9.50064369671507"><ele>2.8000000000000003</ele><time>2026-03-21T15:43:04Z</time></trkpt><trkpt lat="40.91314934584577" lon="9.500623312153332"><ele>3.2</ele><time>2026-03-21T15:43:06Z</time></trkpt><trkpt lat="40.913220831382" lon="9.500608403050522"><ele>3.6</ele><time>2026-03-21T15:43:08Z</time></trkpt><trkpt lat="40.91329400900696" lon="9.500592136862934"><ele>4.0</ele><time>2026-03-21T15:43:10Z</time></trkpt><trkpt lat="40.91339474897055" lon="9.500569407066044"><ele>4.2</ele><time>2026-03-21T15:43:12Z</time></trkpt><trkpt lat="40.91350717886993" lon="9.500550671667137"><ele>4.4</ele><time>2026-03-21T15:43:14Z</time></trkpt><trkpt lat="40.913622787573985" lon="9.50052660871545"><ele>4.6</ele><time>2026-03-21T15:43:16Z</time></trkpt><trkpt lat="40.91368456582341" lon="9.500509073829226"><ele>4.8</ele><time>2026-03-21T15:43:17Z</time></trkpt><trkpt lat="40.913808304669516" lon="9.500490113745423"><ele>5.0</ele><time>2026-03-21T15:43:19Z</time></trkpt><trkpt lat="40.91387445132064" lon="9.500473972283116"><ele>5.0</ele><time>2026-03-21T15:43:20Z</time></trkpt><trkpt lat="40.9139370588345" lon="9.50045576936457"><ele>5.0</ele><time>2026-03-21T15:43:21Z</time></trkpt><trkpt lat="40.91405892793919" lon="9.500427334607961"><ele>5.0</ele><time>2026-03-21T15:43:23Z</time></trkpt><trkpt lat="40.91417707275812" lon="9.500400111836933"><ele>5.0</ele><time>2026-03-21T15:43:25Z</time></trkpt><trkpt lat="40.914293985011156" lon="9.500375958460657"><ele>5.0</ele><time>2026-03-21T15:43:27Z</time></trkpt><trkpt lat="40.9144185651396" lon="9.500346797005164"><ele>5.166666666666667</ele><time>2026-03-21T15:43:29Z</time></trkpt><trkpt lat="40.914482246752634" lon="9.500330026887175"><ele>5.333333333333334</ele><time>2026-03-21T15:43:30Z</time></trkpt><trkpt lat="40.914545804899994" lon="9.500322023483896"><ele>5.5</ele><time>2026-03-21T15:43:31Z</time></trkpt><trkpt lat="40.914619683911724" lon="9.500306405345754"><ele>5.666666666666667</ele><time>2026-03-21T15:43:32Z</time></trkpt><trkpt lat="40.91473349886794" lon="9.50030349664934"><ele>5.833333333333333</ele><time>2026-03-21T15:43:34Z</time></trkpt><trkpt lat="40.91484227022027" lon="9.5002985638785"><ele>6.0</ele><time>2026-03-21T15:43:36Z</time></trkpt><trkpt lat="40.9149588518138" lon="9.500272478508126"><ele>6.0</ele><time>2026-03-21T15:43:38Z</time></trkpt><trkpt lat="40.915020223567325" lon="9.500251806033596"><ele>6.0</ele><time>2026-03-21T15:43:39Z</time></trkpt><trkpt lat="40.9150832614925" lon="9.500227492833854"><ele>6.0</ele><time>2026-03-21T15:43:40Z</time></trkpt><trkpt lat="40.91514575638094" lon="9.500196362096732"><ele>6.0</ele><time>2026-03-21T15:43:41Z</time></trkpt><trkpt lat="40.91525900024082" lon="9.500108433868624"><ele>6.0</ele><time>2026-03-21T15:43:43Z</time></trkpt><trkpt lat="40.91530946859848" lon="9.50005009096433"><ele>6.0</ele><time>2026-03-21T15:43:44Z</time></trkpt><trkpt lat="40.91535710709942" lon="9.499979257980593"><ele>6.0</ele><time>2026-03-21T15:43:45Z</time></trkpt><trkpt lat="40.91540764075053" lon="9.499897097761375"><ele>6.0</ele><time>2026-03-21T15:43:46Z</time></trkpt><trkpt lat="40.91545049727393" lon="9.499804277144591"><ele>6.0</ele><time>2026-03-21T15:43:47Z</time></trkpt><trkpt lat="40.91548015884406" lon="9.499707705380754"><ele>6.0</ele><time>2026-03-21T15:43:48Z</time></trkpt><trkpt lat="40.915511561671664" lon="9.499617666298734"><ele>6.0</ele><time>2026-03-21T15:43:49Z</time></trkpt><trkpt lat="40.91554140005832" lon="9.499523240775133"><ele>6.0</ele><time>2026-03-21T15:43:50Z</time></trkpt><trkpt lat="40.915578857794785" lon="9.499427725140363"><ele>6.0</ele><time>2026-03-21T15:43:51Z</time></trkpt><trkpt lat="40.915611027246676" lon="9.499335525316182"><ele>6.0</ele><time>2026-03-21T15:43:52.001Z</time></trkpt><trkpt lat="40.915644645772346" lon="9.499241420618867"><ele>6.0</ele><time>2026-03-21T15:43:53.001Z</time></trkpt><trkpt lat="40.915676747801946" lon="9.499148228252995"><ele>6.0</ele><time>2026-03-21T15:43:54.001Z</time></trkpt><trkpt lat="40.9157031127721" lon="9.499061224160089"><ele>6.0</ele><time>2026-03-21T15:43:55.001Z</time></trkpt><trkpt lat="40.91573727154015" lon="9.498972977850377"><ele>6.0</ele><time>2026-03-21T15:43:56.001Z</time></trkpt><trkpt lat="40.91576808185776" lon="9.49888529792439"><ele>6.0</ele><time>2026-03-21T15:43:57.001Z</time></trkpt><trkpt lat="40.91579531942588" lon="9.498800882890508"><ele>6.0</ele><time>2026-03-21T15:43:58.001Z</time></trkpt><trkpt lat="40.915819776974764" lon="9.498711313530423"><ele>6.0</ele><time>2026-03-21T15:43:59.001Z</time></trkpt><trkpt lat="40.91584457884624" lon="9.498614203197752"><ele>6.0</ele><time>2026-03-21T15:44:00.001Z</time></trkpt><trkpt lat="40.915864329792285" lon="9.498515072420858"><ele>6.0</ele><time>2026-03-21T15:44:01.001Z</time></trkpt><trkpt lat="40.915886427246825" lon="9.498412914762614"><ele>6.0</ele><time>2026-03-21T15:44:02.001Z</time></trkpt><trkpt lat="40.915903848485975" lon="9.49831132832097"><ele>5.666666666666667</ele><time>2026-03-21T15:44:03.001Z</time></trkpt><trkpt lat="40.91591936088248" lon="9.498201042571985"><ele>5.333333333333333</ele><time>2026-03-21T15:44:04.001Z</time></trkpt><trkpt lat="40.91592994162434" lon="9.498090080569295"><ele>5.0</ele><time>2026-03-21T15:44:05.001Z</time></trkpt><trkpt lat="40.91593666687884" lon="9.497978592668774"><ele>4.666666666666666</ele><time>2026-03-21T15:44:06.001Z</time></trkpt><trkpt lat="40.915941274120065" lon="9.497872213804285"><ele>4.333333333333333</ele><time>2026-03-21T15:44:07.001Z</time></trkpt><trkpt lat="40.91593760143378" lon="9.49776738945182"><ele>4.0</ele><time>2026-03-21T15:44:08.001Z</time></trkpt><trkpt lat="40.915928740315906" lon="9.497665106473532"><ele>3.9999999999999996</ele><time>2026-03-21T15:44:09.001Z</time></trkpt><trkpt lat="40.91591854117777" lon="9.497565476702475"><ele>4.0</ele><time>2026-03-21T15:44:10.001Z</time></trkpt><trkpt lat="40.91591038548327" lon="9.49747414020143"><ele>4.0</ele><time>2026-03-21T15:44:11.001Z</time></trkpt><trkpt lat="40.91590129058579" lon="9.497387172395431"><ele>4.0</ele><time>2026-03-21T15:44:12.001Z</time></trkpt><trkpt lat="40.91589209548747" lon="9.497304268515087"><ele>3.9999999999999996</ele><time>2026-03-21T15:44:13.001Z</time></trkpt><trkpt lat="40.91587582653903" lon="9.497144706053945"><ele>4.0</ele><time>2026-03-21T15:44:14.999Z</time></trkpt><trkpt lat="40.91587106356112" lon="9.497021168831079"><ele>4.166666666666666</ele><time>2026-03-21T15:44:16.999Z</time></trkpt><trkpt lat="40.91586252677699" lon="9.49692107947859"><ele>4.333333333333333</ele><time>2026-03-21T15:44:22.999Z</time></trkpt><trkpt lat="40.91585077149187" lon="9.496806175567635"><ele>4.5</ele><time>2026-03-21T15:44:26.999Z</time></trkpt><trkpt lat="40.91585231401882" lon="9.496673870265207"><ele>4.666666666666667</ele><time>2026-03-21T15:44:29.999Z</time></trkpt><trkpt lat="40.915852707850554" lon="9.496572359487185"><ele>4.833333333333334</ele><time>2026-03-21T15:44:32Z</time></trkpt><trkpt lat="40.915853706534044" lon="9.496468893786052"><ele>5.0</ele><time>2026-03-21T15:44:34Z</time></trkpt><trkpt lat="40.915851401915496" lon="9.496378233600918"><ele>5.2</ele><time>2026-03-21T15:44:36Z</time></trkpt><trkpt lat="40.915855752545966" lon="9.496247099820224"><ele>5.4</ele><time>2026-03-21T15:44:38Z</time></trkpt><trkpt lat="40.91586304734211" lon="9.496137516883248"><ele>5.6</ele><time>2026-03-21T15:44:40Z</time></trkpt><trkpt lat="40.91587495500887" lon="9.496039740327697"><ele>5.8</ele><time>2026-03-21T15:44:42Z</time></trkpt><trkpt lat="40.915886303771124" lon="9.49591569225992"><ele>6.0</ele><time>2026-03-21T15:44:44Z</time></trkpt><trkpt lat="40.91589824528243" lon="9.495778355935453"><ele>5.333333333333333</ele><time>2026-03-21T15:44:46Z</time></trkpt><trkpt lat="40.91591370046276" lon="9.495636584275264"><ele>4.666666666666667</ele><time>2026-03-21T15:44:48Z</time></trkpt><trkpt lat="40.91592607769863" lon="9.495486428703028"><ele>4.0</ele><time>2026-03-21T15:44:50Z</time></trkpt><trkpt lat="40.91593602576852" lon="9.49540248081857"><ele>3.333333333333333</ele><time>2026-03-21T15:44:51Z</time></trkpt><trkpt lat="40.915947520742776" lon="9.495317572366174"><ele>2.6666666666666665</ele><time>2026-03-21T15:44:52Z</time></trkpt><trkpt lat="40.91595503183658" lon="9.495228039212165"><ele>2.0</ele><time>2026-03-21T15:44:53Z</time></trkpt><trkpt lat="40.91596829105308" lon="9.49513893903013"><ele>1.857142857142857</ele><time>2026-03-21T15:44:54Z</time></trkpt><trkpt lat="40.91598238111654" lon="9.495052873854986"><ele>1.714285714285714</ele><time>2026-03-21T15:44:55Z</time></trkpt><trkpt lat="40.916001493586315" lon="9.49497052443143"><ele>1.5714285714285714</ele><time>2026-03-21T15:44:56Z</time></trkpt><trkpt lat="40.916022681341055" lon="9.494886691661168"><ele>1.4285714285714284</ele><time>2026-03-21T15:44:57Z</time></trkpt><trkpt lat="40.916054895575016" lon="9.49481289959398"><ele>1.2857142857142856</ele><time>2026-03-21T15:44:58Z</time></trkpt><trkpt lat="40.91609625484472" lon="9.494744829859965"><ele>1.1428571428571428</ele><time>2026-03-21T15:44:59Z</time></trkpt><trkpt lat="40.916145915207885" lon="9.494685466999831"><ele>1.0</ele><time>2026-03-21T15:45:00Z</time></trkpt><trkpt lat="40.916199723322976" lon="9.49463847447532"><ele>0.9999999999999999</ele><time>2026-03-21T15:45:01Z</time></trkpt><trkpt lat="40.91625943094298" lon="9.494601369472791"><ele>1.0</ele><time>2026-03-21T15:45:02Z</time></trkpt><trkpt lat="40.91632454539952" lon="9.49457242022414"><ele>1.0</ele><time>2026-03-21T15:45:03Z</time></trkpt><trkpt lat="40.91638216385782" lon="9.494536742236516"><ele>1.0</ele><time>2026-03-21T15:45:04Z</time></trkpt><trkpt lat="40.91648148196345" lon="9.49447059233156"><ele>0.9999999999999999</ele><time>2026-03-21T15:45:06Z</time></trkpt><trkpt lat="40.916599669157506" lon="9.494416865935891"><ele>1.0</ele><time>2026-03-21T15:45:08Z</time></trkpt><trkpt lat="40.91672338109236" lon="9.49435169862769"><ele>0.9999999999999999</ele><time>2026-03-21T15:45:10Z</time></trkpt><trkpt lat="40.91679614083835" lon="9.494318278890974"><ele>1.0</ele><time>2026-03-21T15:45:11Z</time></trkpt><trkpt lat="40.916874552151704" lon="9.494302478730614"><ele>1.0</ele><time>2026-03-21T15:45:12Z</time></trkpt><trkpt lat="40.916960693108166" lon="9.494315113163626"><ele>1.0</ele><time>2026-03-21T15:45:13Z</time></trkpt><trkpt lat="40.917051160447464" lon="9.494300034332941"><ele>0.9999999999999999</ele><time>2026-03-21T15:45:14Z</time></trkpt><trkpt lat="40.91712464206397" lon="9.494380465017779"><ele>1.0</ele><time>2026-03-21T15:45:15Z</time></trkpt><trkpt lat="40.91720124868953" lon="9.494445150265514"><ele>0.9999999999999999</ele><time>2026-03-21T15:45:16Z</time></trkpt><trkpt lat="40.917272533603445" lon="9.494528614300302"><ele>1.0</ele><time>2026-03-21T15:45:17Z</time></trkpt><trkpt lat="40.917339342461155" lon="9.4946105640525"><ele>1.0</ele><time>2026-03-21T15:45:18Z</time></trkpt><trkpt lat="40.917390208347534" lon="9.494708368195377"><ele>1.0</ele><time>2026-03-21T15:45:19Z</time></trkpt><trkpt lat="40.91744408922821" lon="9.494794390216338"><ele>0.9999999999999999</ele><time>2026-03-21T15:45:20Z</time></trkpt><trkpt lat="40.91749591750155" lon="9.494878971304782"><ele>1.0</ele><time>2026-03-21T15:45:21Z</time></trkpt><trkpt lat="40.917544988339245" lon="9.494960672799447"><ele>1.6666666666666665</ele><time>2026-03-21T15:45:22Z</time></trkpt><trkpt lat="40.91759052423613" lon="9.495042004915817"><ele>2.3333333333333335</ele><time>2026-03-21T15:45:23Z</time></trkpt><trkpt lat="40.917640917666525" lon="9.495113272243422"><ele>3.0</ele><time>2026-03-21T15:45:24Z</time></trkpt><trkpt lat="40.917671051289275" lon="9.495199033490417"><ele>3.666666666666667</ele><time>2026-03-21T15:45:25Z</time></trkpt><trkpt lat="40.917709672244044" lon="9.495290068683374"><ele>4.333333333333334</ele><time>2026-03-21T15:45:26Z</time></trkpt><trkpt lat="40.91775033056854" lon="9.495384702066511"><ele>5.0</ele><time>2026-03-21T15:45:27Z</time></trkpt><trkpt lat="40.91779227071937" lon="9.49547934156672"><ele>5.0</ele><time>2026-03-21T15:45:28Z</time></trkpt><trkpt lat="40.91783261357822" lon="9.495572149782223"><ele>5.0</ele><time>2026-03-21T15:45:29Z</time></trkpt><trkpt lat="40.91787162427867" lon="9.495659972322258"><ele>5.0</ele><time>2026-03-21T15:45:30Z</time></trkpt><trkpt lat="40.917911657224195" lon="9.495743191294755"><ele>5.0</ele><time>2026-03-21T15:45:31Z</time></trkpt><trkpt lat="40.91795108472485" lon="9.495829560024283"><ele>5.0</ele><time>2026-03-21T15:45:32Z</time></trkpt><trkpt lat="40.91798730651469" lon="9.495916345029762"><ele>5.0</ele><time>2026-03-21T15:45:33Z</time></trkpt><trkpt lat="40.91802367955022" lon="9.495996506506298"><ele>5.0</ele><time>2026-03-21T15:45:34Z</time></trkpt><trkpt lat="40.91805650965279" lon="9.496075466485092"><ele>5.0</ele><time>2026-03-21T15:45:35Z</time></trkpt><trkpt lat="40.91808711963512" lon="9.496150318518055"><ele>5.0</ele><time>2026-03-21T15:45:36Z</time></trkpt><trkpt lat="40.9181196487001" lon="9.49622470446178"><ele>5.0</ele><time>2026-03-21T15:45:37Z</time></trkpt><trkpt lat="40.91815338565902" lon="9.496299786351997"><ele>5.0</ele><time>2026-03-21T15:45:38Z</time></trkpt><trkpt lat="40.91818583639243" lon="9.4963730170328"><ele>5.0</ele><time>2026-03-21T15:45:39Z</time></trkpt><trkpt lat="40.91822256642951" lon="9.496448192852123"><ele>5.0</ele><time>2026-03-21T15:45:40Z</time></trkpt><trkpt lat="40.91826383931985" lon="9.496520917833296"><ele>5.0</ele><time>2026-03-21T15:45:41Z</time></trkpt><trkpt lat="40.91830148495572" lon="9.49659349228296"><ele>5.0</ele><time>2026-03-21T15:45:42Z</time></trkpt><trkpt lat="40.918345240042726" lon="9.496669054593943"><ele>5.0</ele><time>2026-03-21T15:45:43Z</time></trkpt><trkpt lat="40.918390883290826" lon="9.496746219293463"><ele>5.0</ele><time>2026-03-21T15:45:44Z</time></trkpt><trkpt lat="40.91843994987424" lon="9.496824385186564"><ele>5.0</ele><time>2026-03-21T15:45:45Z</time></trkpt><trkpt lat="40.91848968049155" lon="9.49690542791953"><ele>5.0</ele><time>2026-03-21T15:45:46Z</time></trkpt><trkpt lat="40.918534993243235" lon="9.496992445240975"><ele>5.0</ele><time>2026-03-21T15:45:47Z</time></trkpt><trkpt lat="40.91858488827121" lon="9.49707669958909"><ele>4.833333333333334</ele><time>2026-03-21T15:45:48Z</time></trkpt><trkpt lat="40.91863049393065" lon="9.497166575191834"><ele>4.666666666666667</ele><time>2026-03-21T15:45:49Z</time></trkpt><trkpt lat="40.9186811921885" lon="9.497255595958771"><ele>4.5</ele><time>2026-03-21T15:45:50Z</time></trkpt><trkpt lat="40.9187315061129" lon="9.497344427093076"><ele>4.333333333333333</ele><time>2026-03-21T15:45:51Z</time></trkpt><trkpt lat="40.91878288132857" lon="9.497434625370087"><ele>4.166666666666666</ele><time>2026-03-21T15:45:52Z</time></trkpt><trkpt lat="40.918833450951986" lon="9.497524152534288"><ele>4.0</ele><time>2026-03-21T15:45:53Z</time></trkpt><trkpt lat="40.91888253215329" lon="9.497608934052026"><ele>4.0</ele><time>2026-03-21T15:45:54Z</time></trkpt><trkpt lat="40.91892923133319" lon="9.497692253871117"><ele>3.9999999999999996</ele><time>2026-03-21T15:45:55Z</time></trkpt><trkpt lat="40.91897505705714" lon="9.497772109604677"><ele>4.0</ele><time>2026-03-21T15:45:56Z</time></trkpt><trkpt lat="40.91901905798406" lon="9.497846538022506"><ele>4.0</ele><time>2026-03-21T15:45:57.001Z</time></trkpt><trkpt lat="40.919060468829514" lon="9.497916442503575"><ele>3.9999999999999996</ele><time>2026-03-21T15:45:58.001Z</time></trkpt><trkpt lat="40.91909948253891" lon="9.497982570834894"><ele>4.0</ele><time>2026-03-21T15:45:59.001Z</time></trkpt><trkpt lat="40.919140735430275" lon="9.498047722610979"><ele>4.0</ele><time>2026-03-21T15:46:00.001Z</time></trkpt><trkpt lat="40.919179850360905" lon="9.498114695684368"><ele>3.8571428571428568</ele><time>2026-03-21T15:46:01.001Z</time></trkpt><trkpt lat="40.91921907261196" lon="9.498182044196385"><ele>3.714285714285714</ele><time>2026-03-21T15:46:02.001Z</time></trkpt><trkpt lat="40.91925874271161" lon="9.498252079041487"><ele>3.571428571428571</ele><time>2026-03-21T15:46:03.001Z</time></trkpt><trkpt lat="40.91929881540094" lon="9.498324887344383"><ele>3.4285714285714284</ele><time>2026-03-21T15:46:04.001Z</time></trkpt><trkpt lat="40.91934352471517" lon="9.498398254646277"><ele>3.2857142857142856</ele><time>2026-03-21T15:46:05.001Z</time></trkpt><trkpt lat="40.919391781392" lon="9.498481675645039"><ele>3.1428571428571423</ele><time>2026-03-21T15:46:06.001Z</time></trkpt><trkpt lat="40.919434164432126" lon="9.498560008223128"><ele>3.0</ele><time>2026-03-21T15:46:07.001Z</time></trkpt><trkpt lat="40.91946661607475" lon="9.498721709653017"><ele>3.666666666666667</ele><time>2026-03-21T15:46:09.001Z</time></trkpt><trkpt lat="40.91948675853628" lon="9.498812717499765"><ele>4.333333333333334</ele><time>2026-03-21T15:46:10.001Z</time></trkpt><trkpt lat="40.91949567226916" lon="9.498903498008337"><ele>5.0</ele><time>2026-03-21T15:46:11.001Z</time></trkpt><trkpt lat="40.919509206206186" lon="9.498987105721094"><ele>5.666666666666667</ele><time>2026-03-21T15:46:12.001Z</time></trkpt><trkpt lat="40.91952143171007" lon="9.499078377402027"><ele>6.333333333333334</ele><time>2026-03-21T15:46:13.001Z</time></trkpt><trkpt lat="40.919541585551855" lon="9.499230354891992"><ele>7.0</ele><time>2026-03-21T15:46:15.001Z</time></trkpt><trkpt lat="40.91958056074288" lon="9.499405471662422"><ele>7.0</ele><time>2026-03-21T15:46:17.001Z</time></trkpt><trkpt lat="40.919616045128926" lon="9.499475057268393"><ele>6.999999999999999</ele><time>2026-03-21T15:46:18.001Z</time></trkpt><trkpt lat="40.9197074145149" lon="9.499583453509432"><ele>6.999999999999999</ele><time>2026-03-21T15:46:20.001Z</time></trkpt><trkpt lat="40.9198170001521" lon="9.499647448618202"><ele>7.0</ele><time>2026-03-21T15:46:21.998Z</time></trkpt><trkpt lat="40.91993281014114" lon="9.499684033191025"><ele>7.0</ele><time>2026-03-21T15:46:23.999Z</time></trkpt><trkpt lat="40.92005657201104" lon="9.499706919288066"><ele>6.8</ele><time>2026-03-21T15:46:25.999Z</time></trkpt><trkpt lat="40.92017545108401" lon="9.499751502133142"><ele>6.6</ele><time>2026-03-21T15:46:27.999Z</time></trkpt><trkpt lat="40.92023194032533" lon="9.49979120568449"><ele>6.3999999999999995</ele><time>2026-03-21T15:46:28.999Z</time></trkpt><trkpt lat="40.92032880558891" lon="9.499851171277303"><ele>6.199999999999999</ele><time>2026-03-21T15:46:30.999Z</time></trkpt><trkpt lat="40.92030855519031" lon="9.49999788283367"><ele>6.0</ele><time>2026-03-21T15:46:31.999Z</time></trkpt><trkpt lat="40.920290426901154" lon="9.500145985706999"><ele>6.0</ele><time>2026-03-21T15:46:33.999Z</time></trkpt><trkpt lat="40.92027891517974" lon="9.500297179314034"><ele>6.0</ele><time>2026-03-21T15:46:35.999Z</time></trkpt><trkpt lat="40.920252645784" lon="9.500373657488444"><ele>6.0</ele><time>2026-03-21T15:46:36.999Z</time></trkpt><trkpt lat="40.92023844872437" lon="9.500465857725139"><ele>6.0</ele><time>2026-03-21T15:46:37.999Z</time></trkpt><trkpt lat="40.92022688082688" lon="9.500550882478029"><ele>6.0</ele><time>2026-03-21T15:46:38.999Z</time></trkpt><trkpt lat="40.92019854529066" lon="9.500702698530342"><ele>6.0</ele><time>2026-03-21T15:46:40.999Z</time></trkpt><trkpt lat="40.92014562148727" lon="9.50076761104322"><ele>5.833333333333333</ele><time>2026-03-21T15:46:41.999Z</time></trkpt><trkpt lat="40.92012642670374" lon="9.500850167696878"><ele>5.666666666666667</ele><time>2026-03-21T15:46:42.999Z</time></trkpt><trkpt lat="40.920109799904544" lon="9.500934198631747"><ele>5.5</ele><time>2026-03-21T15:46:43.999Z</time></trkpt><trkpt lat="40.920095823020816" lon="9.501015554607909"><ele>5.333333333333334</ele><time>2026-03-21T15:46:44.999Z</time></trkpt><trkpt lat="40.92008287800856" lon="9.501098035044345"><ele>5.166666666666667</ele><time>2026-03-21T15:46:45.999Z</time></trkpt><trkpt lat="40.92008070318757" lon="9.501260799794158"><ele>5.0</ele><time>2026-03-21T15:46:47.999Z</time></trkpt><trkpt lat="40.92002615509044" lon="9.501399112948194"><ele>4.8</ele><time>2026-03-21T15:46:49.999Z</time></trkpt><trkpt lat="40.92005358837766" lon="9.501544454058237"><ele>4.6</ele><time>2026-03-21T15:46:51.999Z</time></trkpt><trkpt lat="40.92012901287132" lon="9.501645345725647"><ele>4.4</ele><time>2026-03-21T15:46:53.999Z</time></trkpt><trkpt lat="40.92022077559469" lon="9.50172687016811"><ele>4.2</ele><time>2026-03-21T15:46:55.999Z</time></trkpt><trkpt lat="40.92031967185982" lon="9.50181334901163"><ele>4.0</ele><time>2026-03-21T15:46:58Z</time></trkpt><trkpt lat="40.92041460525554" lon="9.501885208865955"><ele>4.0</ele><time>2026-03-21T15:47:00Z</time></trkpt><trkpt lat="40.920502825102616" lon="9.501945663243855"><ele>4.0</ele><time>2026-03-21T15:47:02Z</time></trkpt><trkpt lat="40.920586511848796" lon="9.502005303422536"><ele>4.0</ele><time>2026-03-21T15:47:04Z</time></trkpt><trkpt lat="40.920674456528644" lon="9.502068518362545"><ele>4.0</ele><time>2026-03-21T15:47:06Z</time></trkpt><trkpt lat="40.92074580779588" lon="9.502120925803837"><ele>4.0</ele><time>2026-03-21T15:47:08Z</time></trkpt><trkpt lat="40.920815953063794" lon="9.502179832228629"><ele>4.571428571428571</ele><time>2026-03-21T15:47:10Z</time></trkpt><trkpt lat="40.920907372500395" lon="9.502264848054246"><ele>5.142857142857142</ele><time>2026-03-21T15:47:12Z</time></trkpt><trkpt lat="40.92095653848151" lon="9.502317898979811"><ele>5.7142857142857135</ele><time>2026-03-21T15:47:13Z</time></trkpt><trkpt lat="40.92100439842454" lon="9.50237633886188"><ele>6.285714285714286</ele><time>2026-03-21T15:47:14Z</time></trkpt><trkpt lat="40.921054382052034" lon="9.50243670938029"><ele>6.857142857142856</ele><time>2026-03-21T15:47:15Z</time></trkpt><trkpt lat="40.921103739121826" lon="9.502500552757867"><ele>7.428571428571428</ele><time>2026-03-21T15:47:16Z</time></trkpt><trkpt lat="40.92115194648724" lon="9.502570415589691"><ele>8.0</ele><time>2026-03-21T15:47:17Z</time></trkpt><trkpt lat="40.92120136313685" lon="9.502644421326123"><ele>7.999999999999999</ele><time>2026-03-21T15:47:18Z</time></trkpt><trkpt lat="40.92124951588695" lon="9.502717995544325"><ele>8.0</ele><time>2026-03-21T15:47:19Z</time></trkpt><trkpt lat="40.92129855004819" lon="9.502792262791704"><ele>8.0</ele><time>2026-03-21T15:47:20Z</time></trkpt><trkpt lat="40.92134884119564" lon="9.502872456723852"><ele>8.0</ele><time>2026-03-21T15:47:21Z</time></trkpt><trkpt lat="40.92139818595246" lon="9.502956342144332"><ele>7.999999999999999</ele><time>2026-03-21T15:47:22Z</time></trkpt><trkpt lat="40.92144616237929" lon="9.503047491693449"><ele>8.0</ele><time>2026-03-21T15:47:23Z</time></trkpt><trkpt lat="40.92148859109068" lon="9.503139683793455"><ele>6.999999999999999</ele><time>2026-03-21T15:47:24Z</time></trkpt><trkpt lat="40.92153099872555" lon="9.503233340774553"><ele>6.0</ele><time>2026-03-21T15:47:25Z</time></trkpt><trkpt lat="40.92156712939049" lon="9.503323001690267"><ele>5.0</ele><time>2026-03-21T15:47:26Z</time></trkpt><trkpt lat="40.921598149836726" lon="9.503407501116754"><ele>4.0</ele><time>2026-03-21T15:47:27Z</time></trkpt><trkpt lat="40.921627757662144" lon="9.50349321128122"><ele>3.0</ele><time>2026-03-21T15:47:28Z</time></trkpt><trkpt lat="40.92165583269968" lon="9.503571580765476"><ele>2.0</ele><time>2026-03-21T15:47:29Z</time></trkpt><trkpt lat="40.9216913733787" lon="9.503679379919038"><ele>2.0</ele><time>2026-03-21T15:47:31Z</time></trkpt><trkpt lat="40.921728439529204" lon="9.503782641108643"><ele>2.0</ele><time>2026-03-21T15:47:33Z</time></trkpt><trkpt lat="40.921780510608095" lon="9.50391965641909"><ele>2.0</ele><time>2026-03-21T15:47:35Z</time></trkpt><trkpt lat="40.921810219459594" lon="9.503994114004671"><ele>2.0</ele><time>2026-03-21T15:47:36Z</time></trkpt><trkpt lat="40.92186141603501" lon="9.504133576258615"><ele>2.0</ele><time>2026-03-21T15:47:38Z</time></trkpt><trkpt lat="40.92191097139753" lon="9.50427212757144"><ele>2.0</ele><time>2026-03-21T15:47:40Z</time></trkpt><trkpt lat="40.92198369701324" lon="9.504374997573846"><ele>2.0</ele><time>2026-03-21T15:47:42Z</time></trkpt><trkpt lat="40.92208003574312" lon="9.504441735403331"><ele>2.0</ele><time>2026-03-21T15:47:44Z</time></trkpt><trkpt lat="40.922193039434774" lon="9.504420123927755"><ele>2.0</ele><time>2026-03-21T15:47:46Z</time></trkpt><trkpt lat="40.92229224758513" lon="9.504444868332273"><ele>2.0</ele><time>2026-03-21T15:47:48Z</time></trkpt><trkpt lat="40.922342246524465" lon="9.504513818689267"><ele>1.9999999999999998</ele><time>2026-03-21T15:47:50Z</time></trkpt><trkpt lat="40.922404693616016" lon="9.504571963137685"><ele>2.0</ele><time>2026-03-21T15:47:53Z</time></trkpt><trkpt lat="40.92248031099545" lon="9.50462779169509"><ele>2.0</ele><time>2026-03-21T15:47:56Z</time></trkpt><trkpt lat="40.92254229484176" lon="9.504686373846969"><ele>2.0</ele><time>2026-03-21T15:47:59Z</time></trkpt><trkpt lat="40.922598118189015" lon="9.504746222655601"><ele>1.9999999999999998</ele><time>2026-03-21T15:48:03Z</time></trkpt><trkpt lat="40.92266040571711" lon="9.504801573784057"><ele>2.0</ele><time>2026-03-21T15:48:07.001Z</time></trkpt><trkpt lat="40.92272595703277" lon="9.504863244204431"><ele>2.333333333333333</ele><time>2026-03-21T15:48:10.001Z</time></trkpt><trkpt lat="40.92279382896416" lon="9.504922550082087"><ele>2.6666666666666665</ele><time>2026-03-21T15:48:13.001Z</time></trkpt><trkpt lat="40.92286101903537" lon="9.504977116823389"><ele>3.0</ele><time>2026-03-21T15:48:16.001Z</time></trkpt><trkpt lat="40.9229300219771" lon="9.505037728845986"><ele>3.333333333333333</ele><time>2026-03-21T15:48:19.001Z</time></trkpt><trkpt lat="40.922983950820196" lon="9.505112959418408"><ele>3.6666666666666665</ele><time>2026-03-21T15:48:21.001Z</time></trkpt><trkpt lat="40.92308393948904" lon="9.505206122402234"><ele>4.0</ele><time>2026-03-21T15:48:23.001Z</time></trkpt><trkpt lat="40.92319051900979" lon="9.505282919409844"><ele>4.0</ele><time>2026-03-21T15:48:25.001Z</time></trkpt><trkpt lat="40.923244225046815" lon="9.505329268043893"><ele>3.9999999999999996</ele><time>2026-03-21T15:48:26.001Z</time></trkpt><trkpt lat="40.923302403562886" lon="9.505384960132885"><ele>4.0</ele><time>2026-03-21T15:48:26.998Z</time></trkpt><trkpt lat="40.923351771348656" lon="9.505456232951174"><ele>4.0</ele><time>2026-03-21T15:48:27.998Z</time></trkpt><trkpt lat="40.923411273977955" lon="9.505511976390288"><ele>3.9999999999999996</ele><time>2026-03-21T15:48:28.998Z</time></trkpt><trkpt lat="40.92347457599325" lon="9.5055712791642"><ele>4.0</ele><time>2026-03-21T15:48:29.998Z</time></trkpt><trkpt lat="40.92353724501104" lon="9.505629988772924"><ele>4.0</ele><time>2026-03-21T15:48:30.998Z</time></trkpt><trkpt lat="40.9236097214605" lon="9.505697887785914"><ele>4.0</ele><time>2026-03-21T15:48:31.998Z</time></trkpt><trkpt lat="40.92368626363801" lon="9.505769594261414"><ele>4.0</ele><time>2026-03-21T15:48:32.998Z</time></trkpt><trkpt lat="40.923765097493046" lon="9.505843447610188"><ele>4.0</ele><time>2026-03-21T15:48:33.998Z</time></trkpt><trkpt lat="40.92384324466566" lon="9.50591665763014"><ele>4.0</ele><time>2026-03-21T15:48:34.998Z</time></trkpt><trkpt lat="40.92391019196296" lon="9.505972317211961"><ele>4.0</ele><time>2026-03-21T15:48:35.998Z</time></trkpt><trkpt lat="40.923993153850404" lon="9.506045559338753"><ele>3.9999999999999996</ele><time>2026-03-21T15:48:36.999Z</time></trkpt><trkpt lat="40.92406696180954" lon="9.506116826367847"><ele>4.0</ele><time>2026-03-21T15:48:37.999Z</time></trkpt><trkpt lat="40.924142424949096" lon="9.506189835839299"><ele>4.0</ele><time>2026-03-21T15:48:38.999Z</time></trkpt><trkpt lat="40.924219725405585" lon="9.506259654155098"><ele>4.0</ele><time>2026-03-21T15:48:39.999Z</time></trkpt><trkpt lat="40.924288484457186" lon="9.506324510508524"><ele>3.9999999999999996</ele><time>2026-03-21T15:48:40.999Z</time></trkpt><trkpt lat="40.924358519815044" lon="9.506391273329335"><ele>4.0</ele><time>2026-03-21T15:48:41.999Z</time></trkpt><trkpt lat="40.92440455925972" lon="9.506479411641482"><ele>3.6666666666666665</ele><time>2026-03-21T15:48:42.999Z</time></trkpt><trkpt lat="40.9244504363025" lon="9.506564524454005"><ele>3.333333333333333</ele><time>2026-03-21T15:48:43.999Z</time></trkpt><trkpt lat="40.924514816830666" lon="9.506656431619437"><ele>3.0</ele><time>2026-03-21T15:48:44.999Z</time></trkpt><trkpt lat="40.92456115777347" lon="9.506746991439933"><ele>2.6666666666666665</ele><time>2026-03-21T15:48:45.999Z</time></trkpt><trkpt lat="40.9245992320415" lon="9.506834873403573"><ele>2.333333333333333</ele><time>2026-03-21T15:48:46.999Z</time></trkpt><trkpt lat="40.92463678007533" lon="9.506927807952048"><ele>2.0</ele><time>2026-03-21T15:48:47.999Z</time></trkpt><trkpt lat="40.92465680936951" lon="9.50703408165057"><ele>1.8333333333333333</ele><time>2026-03-21T15:48:48.999Z</time></trkpt><trkpt lat="40.9247008979603" lon="9.507115927703238"><ele>1.6666666666666665</ele><time>2026-03-21T15:48:49.999Z</time></trkpt><trkpt lat="40.924773370569945" lon="9.507161155933218"><ele>1.5</ele><time>2026-03-21T15:48:50.999Z</time></trkpt><trkpt lat="40.924839130892536" lon="9.507207624261778"><ele>1.3333333333333333</ele><time>2026-03-21T15:48:51.999Z</time></trkpt><trkpt lat="40.92491157172972" lon="9.507239253828038"><ele>1.1666666666666665</ele><time>2026-03-21T15:48:52.999Z</time></trkpt><trkpt lat="40.92497648222777" lon="9.507284192842496"><ele>1.0</ele><time>2026-03-21T15:48:53.999Z</time></trkpt><trkpt lat="40.92504206842884" lon="9.507345981228726"><ele>1.1666666666666665</ele><time>2026-03-21T15:48:54.999Z</time></trkpt><trkpt lat="40.92510208996515" lon="9.507424219662147"><ele>1.3333333333333333</ele><time>2026-03-21T15:48:55.999Z</time></trkpt><trkpt lat="40.925161132239275" lon="9.507505608942392"><ele>1.5</ele><time>2026-03-21T15:48:56.999Z</time></trkpt><trkpt lat="40.92521337404069" lon="9.507582232274382"><ele>1.6666666666666665</ele><time>2026-03-21T15:48:57.999Z</time></trkpt><trkpt lat="40.92527336742211" lon="9.507657026827234"><ele>1.8333333333333333</ele><time>2026-03-21T15:48:58.999Z</time></trkpt><trkpt lat="40.925336800765066" lon="9.50772334740374"><ele>2.0</ele><time>2026-03-21T15:48:59.999Z</time></trkpt><trkpt lat="40.925402058232045" lon="9.507783802666388"><ele>1.9999999999999998</ele><time>2026-03-21T15:49:00.999Z</time></trkpt><trkpt lat="40.925470831429685" lon="9.50784386822464"><ele>2.0</ele><time>2026-03-21T15:49:01.999Z</time></trkpt><trkpt lat="40.92554173586566" lon="9.507903879985758"><ele>2.0</ele><time>2026-03-21T15:49:03Z</time></trkpt><trkpt lat="40.92561105237627" lon="9.507967392432088"><ele>2.0</ele><time>2026-03-21T15:49:04Z</time></trkpt><trkpt lat="40.925679837330215" lon="9.508035462086818"><ele>1.9999999999999998</ele><time>2026-03-21T15:49:05Z</time></trkpt><trkpt lat="40.925740921868076" lon="9.508113969810065"><ele>2.0</ele><time>2026-03-21T15:49:06Z</time></trkpt><trkpt lat="40.92578224738428" lon="9.508215360509798"><ele>1.8333333333333333</ele><time>2026-03-21T15:49:07Z</time></trkpt><trkpt lat="40.925775345185855" lon="9.508332578801394"><ele>1.6666666666666665</ele><time>2026-03-21T15:49:08Z</time></trkpt><trkpt lat="40.92576759527373" lon="9.508443505658885"><ele>1.5</ele><time>2026-03-21T15:49:09Z</time></trkpt><trkpt lat="40.92573565405621" lon="9.508551060476112"><ele>1.3333333333333333</ele><time>2026-03-21T15:49:10Z</time></trkpt><trkpt lat="40.92568508299141" lon="9.50864808764597"><ele>1.1666666666666665</ele><time>2026-03-21T15:49:11Z</time></trkpt><trkpt lat="40.925616506686694" lon="9.508725463955303"><ele>1.0</ele><time>2026-03-21T15:49:12Z</time></trkpt><trkpt lat="40.9255540771234" lon="9.508811909625065"><ele>1.0</ele><time>2026-03-21T15:49:13Z</time></trkpt><trkpt lat="40.92546708075791" lon="9.508856641575111"><ele>1.0</ele><time>2026-03-21T15:49:14Z</time></trkpt><trkpt lat="40.92538663639871" lon="9.508918960848268"><ele>1.0</ele><time>2026-03-21T15:49:15Z</time></trkpt><trkpt lat="40.92528737652504" lon="9.5089204351277"><ele>1.0</ele><time>2026-03-21T15:49:16Z</time></trkpt><trkpt lat="40.92519828781035" lon="9.508884607098445"><ele>1.0</ele><time>2026-03-21T15:49:17Z</time></trkpt><trkpt lat="40.92511790417278" lon="9.508818983020074"><ele>0.9999999999999999</ele><time>2026-03-21T15:49:18Z</time></trkpt><trkpt lat="40.92505638578937" lon="9.50872566743045"><ele>1.0</ele><time>2026-03-21T15:49:19Z</time></trkpt><trkpt lat="40.92502161190494" lon="9.508611169876648"><ele>1.0</ele><time>2026-03-21T15:49:20Z</time></trkpt><trkpt lat="40.925015986666374" lon="9.508491942956846"><ele>1.0</ele><time>2026-03-21T15:49:21Z</time></trkpt><trkpt lat="40.924993438684034" lon="9.508381285097402"><ele>0.9999999999999999</ele><time>2026-03-21T15:49:22Z</time></trkpt><trkpt lat="40.92498377433953" lon="9.508287916071925"><ele>1.0</ele><time>2026-03-21T15:49:23Z</time></trkpt><trkpt lat="40.92497339800829" lon="9.508187668438913"><ele>1.0</ele><time>2026-03-21T15:49:25Z</time></trkpt><trkpt lat="40.92500612789741" lon="9.508038115328654"><ele>1.0</ele><time>2026-03-21T15:49:28Z</time></trkpt><trkpt lat="40.92503131044335" lon="9.507913617952882"><ele>1.0</ele><time>2026-03-21T15:49:30Z</time></trkpt><trkpt lat="40.92504787834111" lon="9.507829010856229"><ele>1.0</ele><time>2026-03-21T15:49:31Z</time></trkpt><trkpt lat="40.92509068882408" lon="9.507677763545688"><ele>1.0</ele><time>2026-03-21T15:49:33Z</time></trkpt><trkpt lat="40.92511426311347" lon="9.50759649328338"><ele>1.1666666666666665</ele><time>2026-03-21T15:49:34Z</time></trkpt><trkpt lat="40.925150268534644" lon="9.507514374092981"><ele>1.3333333333333333</ele><time>2026-03-21T15:49:35Z</time></trkpt><trkpt lat="40.925191724281355" lon="9.507433947209636"><ele>1.5</ele><time>2026-03-21T15:49:36Z</time></trkpt><trkpt lat="40.92524865819088" lon="9.507361479999053"><ele>1.6666666666666665</ele><time>2026-03-21T15:49:37Z</time></trkpt><trkpt lat="40.92531800168793" lon="9.50731039499398"><ele>1.8333333333333333</ele><time>2026-03-21T15:49:38Z</time></trkpt><trkpt lat="40.92539158595752" lon="9.507269553566946"><ele>2.0</ele><time>2026-03-21T15:49:39Z</time></trkpt><trkpt lat="40.92547012079441" lon="9.507242800670676"><ele>2.0</ele><time>2026-03-21T15:49:40Z</time></trkpt><trkpt lat="40.925551675735136" lon="9.50722922944541"><ele>2.0</ele><time>2026-03-21T15:49:41Z</time></trkpt><trkpt lat="40.92563911858412" lon="9.507231397070726"><ele>2.0</ele><time>2026-03-21T15:49:42Z</time></trkpt><trkpt lat="40.9257357043206" lon="9.507240778501245"><ele>2.0</ele><time>2026-03-21T15:49:43Z</time></trkpt><trkpt lat="40.925830978206776" lon="9.507256519510808"><ele>2.0</ele><time>2026-03-21T15:49:44Z</time></trkpt><trkpt lat="40.92593459123198" lon="9.50727311883389"><ele>2.0</ele><time>2026-03-21T15:49:45Z</time></trkpt><trkpt lat="40.92604571611649" lon="9.507284064959425"><ele>2.0</ele><time>2026-03-21T15:49:46Z</time></trkpt><trkpt lat="40.92615829800331" lon="9.507299971724247"><ele>2.0</ele><time>2026-03-21T15:49:47Z</time></trkpt><trkpt lat="40.926273365644235" lon="9.507316138844532"><ele>2.0</ele><time>2026-03-21T15:49:48Z</time></trkpt><trkpt lat="40.92639175438452" lon="9.507333602871665"><ele>2.0</ele><time>2026-03-21T15:49:49Z</time></trkpt><trkpt lat="40.926508887315194" lon="9.507383553214401"><ele>2.0</ele><time>2026-03-21T15:49:50Z</time></trkpt><trkpt lat="40.92662633678443" lon="9.50741922930549"><ele>2.0</ele><time>2026-03-21T15:49:51Z</time></trkpt><trkpt lat="40.92674291795703" lon="9.507434887839324"><ele>2.0</ele><time>2026-03-21T15:49:52.001Z</time></trkpt><trkpt lat="40.926853344344565" lon="9.507478593607058"><ele>1.5</ele><time>2026-03-21T15:49:53.001Z</time></trkpt><trkpt lat="40.92696537628373" lon="9.507520404721028"><ele>1.0</ele><time>2026-03-21T15:49:54.001Z</time></trkpt><trkpt lat="40.92708139098777" lon="9.507561850176879"><ele>0.5</ele><time>2026-03-21T15:49:55.001Z</time></trkpt><trkpt lat="40.92719908149135" lon="9.507599495477267"><ele>0.0</ele><time>2026-03-21T15:49:56.001Z</time></trkpt><trkpt lat="40.927318183919716" lon="9.507638408368729"><ele>0.0</ele><time>2026-03-21T15:49:57.001Z</time></trkpt><trkpt lat="40.92743974291422" lon="9.507670570243643"><ele>0.0</ele><time>2026-03-21T15:49:58.001Z</time></trkpt><trkpt lat="40.927563834759745" lon="9.507700279691473"><ele>0.0</ele><time>2026-03-21T15:49:59.001Z</time></trkpt><trkpt lat="40.92768945436373" lon="9.507731465447424"><ele>0.0</ele><time>2026-03-21T15:50:00.001Z</time></trkpt><trkpt lat="40.92781150411675" lon="9.507771507549894"><ele>0.0</ele><time>2026-03-21T15:50:01.001Z</time></trkpt><trkpt lat="40.927940118400244" lon="9.5078074226358"><ele>0.0</ele><time>2026-03-21T15:50:02.001Z</time></trkpt><trkpt lat="40.92806965264272" lon="9.507841234455451"><ele>0.0</ele><time>2026-03-21T15:50:03.001Z</time></trkpt><trkpt lat="40.92819311240563" lon="9.507875626097267"><ele>0.0</ele><time>2026-03-21T15:50:04.001Z</time></trkpt><trkpt lat="40.928320952446505" lon="9.507910177256917"><ele>0.75</ele><time>2026-03-21T15:50:05.001Z</time></trkpt><trkpt lat="40.928441078413464" lon="9.50794352865917"><ele>1.5</ele><time>2026-03-21T15:50:06.001Z</time></trkpt><trkpt lat="40.928563674151604" lon="9.50797710254265"><ele>2.25</ele><time>2026-03-21T15:50:07.001Z</time></trkpt><trkpt lat="40.92868335013575" lon="9.508012028509153"><ele>3.0</ele><time>2026-03-21T15:50:08.001Z</time></trkpt><trkpt lat="40.92880975145137" lon="9.50804671021126"><ele>3.0</ele><time>2026-03-21T15:50:09.001Z</time></trkpt><trkpt lat="40.92893637752761" lon="9.508079301603324"><ele>3.0</ele><time>2026-03-21T15:50:10.001Z</time></trkpt><trkpt lat="40.92905817250602" lon="9.508112936347546"><ele>3.0</ele><time>2026-03-21T15:50:11.001Z</time></trkpt><trkpt lat="40.92918168411906" lon="9.508152338401425"><ele>3.0</ele><time>2026-03-21T15:50:12.001Z</time></trkpt><trkpt lat="40.929303413681914" lon="9.508194206584207"><ele>2.25</ele><time>2026-03-21T15:50:13.001Z</time></trkpt><trkpt lat="40.92942481249669" lon="9.508234201294599"><ele>1.5</ele><time>2026-03-21T15:50:14.001Z</time></trkpt><trkpt lat="40.92954797227063" lon="9.50827602570399"><ele>0.75</ele><time>2026-03-21T15:50:15.001Z</time></trkpt><trkpt lat="40.929671662504695" lon="9.508313434764295"><ele>0.0</ele><time>2026-03-21T15:50:16.001Z</time></trkpt><trkpt lat="40.92979472066146" lon="9.50835336418657"><ele>0.0</ele><time>2026-03-21T15:50:17.001Z</time></trkpt><trkpt lat="40.92990930690663" lon="9.508387192158992"><ele>0.0</ele><time>2026-03-21T15:50:18.001Z</time></trkpt><trkpt lat="40.93003766669742" lon="9.50841506856527"><ele>0.0</ele><time>2026-03-21T15:50:19.001Z</time></trkpt><trkpt lat="40.930159748812414" lon="9.508441954000176"><ele>0.0</ele><time>2026-03-21T15:50:20.001Z</time></trkpt><trkpt lat="40.930275836325244" lon="9.508468992162056"><ele>0.5</ele><time>2026-03-21T15:50:21.001Z</time></trkpt><trkpt lat="40.9304136297588" lon="9.508490621715668"><ele>1.0</ele><time>2026-03-21T15:50:22.001Z</time></trkpt><trkpt lat="40.93055778879446" lon="9.508502394455808"><ele>1.5</ele><time>2026-03-21T15:50:23.001Z</time></trkpt><trkpt lat="40.93068553512387" lon="9.50852616810831"><ele>2.0</ele><time>2026-03-21T15:50:24.001Z</time></trkpt><trkpt lat="40.93080860315274" lon="9.508534034124654"><ele>2.5</ele><time>2026-03-21T15:50:25.001Z</time></trkpt><trkpt lat="40.93093003809186" lon="9.508554549848558"><ele>3.0</ele><time>2026-03-21T15:50:26.001Z</time></trkpt><trkpt lat="40.93100712237467" lon="9.508565448144102"><ele>3.5</ele><time>2026-03-21T15:50:27.001Z</time></trkpt><trkpt lat="40.931159752321776" lon="9.508585676678043"><ele>4.0</ele><time>2026-03-21T15:50:28.001Z</time></trkpt><trkpt lat="40.93132163460802" lon="9.508622410266558"><ele>4.0</ele><time>2026-03-21T15:50:29.001Z</time></trkpt><trkpt lat="40.931478745007" lon="9.508615922735073"><ele>4.0</ele><time>2026-03-21T15:50:30.001Z</time></trkpt><trkpt lat="40.93163013601631" lon="9.508599248526687"><ele>4.0</ele><time>2026-03-21T15:50:31.001Z</time></trkpt><trkpt lat="40.93180084089969" lon="9.508593479994124"><ele>4.666666666666666</ele><time>2026-03-21T15:50:32.001Z</time></trkpt><trkpt lat="40.93195744034341" lon="9.508610490143898"><ele>5.333333333333333</ele><time>2026-03-21T15:50:32.997Z</time></trkpt><trkpt lat="40.93213672016779" lon="9.508569928831921"><ele>6.0</ele><time>2026-03-21T15:50:33.997Z</time></trkpt><trkpt lat="40.93229446930323" lon="9.508604065497115"><ele>6.0</ele><time>2026-03-21T15:50:34.997Z</time></trkpt><trkpt lat="40.93246358780175" lon="9.50859396085565"><ele>6.0</ele><time>2026-03-21T15:50:35.997Z</time></trkpt><trkpt lat="40.932633574011504" lon="9.508588517471374"><ele>6.0</ele><time>2026-03-21T15:50:36.997Z</time></trkpt><trkpt lat="40.93279688112839" lon="9.508571799820857"><ele>5.333333333333333</ele><time>2026-03-21T15:50:37.997Z</time></trkpt><trkpt lat="40.932961555069106" lon="9.508554981903286"><ele>4.666666666666666</ele><time>2026-03-21T15:50:38.997Z</time></trkpt><trkpt lat="40.93312792828091" lon="9.508539134286956"><ele>4.0</ele><time>2026-03-21T15:50:39.997Z</time></trkpt><trkpt lat="40.93329481770911" lon="9.508524914729646"><ele>4.333333333333333</ele><time>2026-03-21T15:50:40.997Z</time></trkpt><trkpt lat="40.93345872393093" lon="9.508512104166547"><ele>4.666666666666667</ele><time>2026-03-21T15:50:41.997Z</time></trkpt><trkpt lat="40.933619953072196" lon="9.508494985565775"><ele>5.0</ele><time>2026-03-21T15:50:42.997Z</time></trkpt><trkpt lat="40.933787234952945" lon="9.508479210460356"><ele>5.0</ele><time>2026-03-21T15:50:43.998Z</time></trkpt><trkpt lat="40.93394925325705" lon="9.508455054520633"><ele>5.0</ele><time>2026-03-21T15:50:44.998Z</time></trkpt><trkpt lat="40.934113004257" lon="9.508428896081094"><ele>5.0</ele><time>2026-03-21T15:50:45.998Z</time></trkpt><trkpt lat="40.9342769145796" lon="9.508405251019266"><ele>5.0</ele><time>2026-03-21T15:50:46.998Z</time></trkpt><trkpt lat="40.934440449633335" lon="9.508380000369058"><ele>5.0</ele><time>2026-03-21T15:50:47.998Z</time></trkpt><trkpt lat="40.93460261170564" lon="9.508346795568617"><ele>5.0</ele><time>2026-03-21T15:50:48.998Z</time></trkpt><trkpt lat="40.93476196816113" lon="9.50831220485955"><ele>5.0</ele><time>2026-03-21T15:50:49.998Z</time></trkpt><trkpt lat="40.934921824830724" lon="9.508277871865142"><ele>5.0</ele><time>2026-03-21T15:50:50.998Z</time></trkpt><trkpt lat="40.935080502242236" lon="9.508240444727095"><ele>5.0</ele><time>2026-03-21T15:50:51.998Z</time></trkpt><trkpt lat="40.935239913647955" lon="9.508200211983038"><ele>5.666666666666667</ele><time>2026-03-21T15:50:52.998Z</time></trkpt><trkpt lat="40.9353986444353" lon="9.508159604044751"><ele>6.333333333333334</ele><time>2026-03-21T15:50:53.998Z</time></trkpt><trkpt lat="40.93555760562938" lon="9.508114100989738"><ele>7.0</ele><time>2026-03-21T15:50:54.998Z</time></trkpt><trkpt lat="40.93571568603285" lon="9.508064987253634"><ele>7.0</ele><time>2026-03-21T15:50:55.998Z</time></trkpt><trkpt lat="40.93587399740182" lon="9.508014928569036"><ele>7.0</ele><time>2026-03-21T15:50:56.998Z</time></trkpt><trkpt lat="40.93603338333815" lon="9.507960540738798"><ele>7.0</ele><time>2026-03-21T15:50:57.998Z</time></trkpt><trkpt lat="40.936192711881795" lon="9.507905361207946"><ele>7.0</ele><time>2026-03-21T15:50:58.999Z</time></trkpt><trkpt lat="40.93635018636631" lon="9.507849714047806"><ele>7.0</ele><time>2026-03-21T15:50:59.999Z</time></trkpt><trkpt lat="40.93650851768417" lon="9.50779623268584"><ele>7.0</ele><time>2026-03-21T15:51:00.999Z</time></trkpt><trkpt lat="40.936666915292136" lon="9.507736904947619"><ele>8.333333333333334</ele><time>2026-03-21T15:51:01.999Z</time></trkpt><trkpt lat="40.93682389482326" lon="9.50767390904858"><ele>9.666666666666666</ele><time>2026-03-21T15:51:02.999Z</time></trkpt><trkpt lat="40.9369830735056" lon="9.507609250235454"><ele>11.0</ele><time>2026-03-21T15:51:03.999Z</time></trkpt><trkpt lat="40.937139790979636" lon="9.507542728645163"><ele>11.0</ele><time>2026-03-21T15:51:04.999Z</time></trkpt><trkpt lat="40.93729339508315" lon="9.507470542980661"><ele>11.0</ele><time>2026-03-21T15:51:05.999Z</time></trkpt><trkpt lat="40.93744486545738" lon="9.507404067280907"><ele>11.0</ele><time>2026-03-21T15:51:06.999Z</time></trkpt><trkpt lat="40.93759555948319" lon="9.507338970962875"><ele>11.333333333333332</ele><time>2026-03-21T15:51:07.999Z</time></trkpt><trkpt lat="40.93774432842983" lon="9.507271512311835"><ele>11.666666666666666</ele><time>2026-03-21T15:51:08.999Z</time></trkpt><trkpt lat="40.93789447189875" lon="9.507201726754307"><ele>12.0</ele><time>2026-03-21T15:51:09.999Z</time></trkpt><trkpt lat="40.93804310089724" lon="9.507130052011025"><ele>12.0</ele><time>2026-03-21T15:51:10.999Z</time></trkpt><trkpt lat="40.938192658144686" lon="9.507056772405075"><ele>12.0</ele><time>2026-03-21T15:51:11.999Z</time></trkpt><trkpt lat="40.93834062754546" lon="9.506985633391142"><ele>12.0</ele><time>2026-03-21T15:51:12.999Z</time></trkpt><trkpt lat="40.93849017420689" lon="9.506914816944388"><ele>12.0</ele><time>2026-03-21T15:51:13.999Z</time></trkpt><trkpt lat="40.93864083817855" lon="9.50684155824798"><ele>12.0</ele><time>2026-03-21T15:51:14.999Z</time></trkpt><trkpt lat="40.93879130963519" lon="9.506768205790436"><ele>12.0</ele><time>2026-03-21T15:51:15.999Z</time></trkpt><trkpt lat="40.938943770954886" lon="9.506690037155295"><ele>12.0</ele><time>2026-03-21T15:51:16.999Z</time></trkpt><trkpt lat="40.939094414523645" lon="9.50661742704401"><ele>12.0</ele><time>2026-03-21T15:51:17.999Z</time></trkpt><trkpt lat="40.939246011204425" lon="9.506536149857746"><ele>12.0</ele><time>2026-03-21T15:51:18.999Z</time></trkpt><trkpt lat="40.93939761762503" lon="9.50645828008968"><ele>12.0</ele><time>2026-03-21T15:51:19.999Z</time></trkpt><trkpt lat="40.93955066664545" lon="9.50638675858484"><ele>12.0</ele><time>2026-03-21T15:51:20.999Z</time></trkpt><trkpt lat="40.939700300296685" lon="9.506312281881668"><ele>12.0</ele><time>2026-03-21T15:51:21.999Z</time></trkpt><trkpt lat="40.939855224504576" lon="9.50623352850894"><ele>12.333333333333332</ele><time>2026-03-21T15:51:23Z</time></trkpt><trkpt lat="40.94000617291849" lon="9.506156835438448"><ele>12.666666666666666</ele><time>2026-03-21T15:51:24Z</time></trkpt><trkpt lat="40.94015852057466" lon="9.506081362950635"><ele>13.0</ele><time>2026-03-21T15:51:25Z</time></trkpt><trkpt lat="40.94031035553669" lon="9.506003840108557"><ele>13.333333333333332</ele><time>2026-03-21T15:51:26Z</time></trkpt><trkpt lat="40.94045356752233" lon="9.505930067291665"><ele>13.666666666666668</ele><time>2026-03-21T15:51:27Z</time></trkpt><trkpt lat="40.94059396274922" lon="9.505855208601778"><ele>14.0</ele><time>2026-03-21T15:51:28Z</time></trkpt><trkpt lat="40.94073665937094" lon="9.505777329478887"><ele>14.0</ele><time>2026-03-21T15:51:29Z</time></trkpt><trkpt lat="40.94087881061073" lon="9.505700355378082"><ele>14.0</ele><time>2026-03-21T15:51:30Z</time></trkpt><trkpt lat="40.94101833277575" lon="9.505627467913788"><ele>14.0</ele><time>2026-03-21T15:51:31Z</time></trkpt><trkpt lat="40.941158117813806" lon="9.50555642940561"><ele>14.75</ele><time>2026-03-21T15:51:32Z</time></trkpt><trkpt lat="40.941300354679356" lon="9.505487443516959"><ele>15.5</ele><time>2026-03-21T15:51:33Z</time></trkpt><trkpt lat="40.941440745652905" lon="9.505417428070293"><ele>16.25</ele><time>2026-03-21T15:51:34Z</time></trkpt><trkpt lat="40.94157793151764" lon="9.505347684788743"><ele>17.0</ele><time>2026-03-21T15:51:35Z</time></trkpt><trkpt lat="40.94171648004871" lon="9.505275263785592"><ele>18.0</ele><time>2026-03-21T15:51:36Z</time></trkpt><trkpt lat="40.94185752981307" lon="9.505202908701182"><ele>19.0</ele><time>2026-03-21T15:51:37Z</time></trkpt><trkpt lat="40.94199698484045" lon="9.505132524065031"><ele>20.0</ele><time>2026-03-21T15:51:38Z</time></trkpt><trkpt lat="40.94213828016919" lon="9.505060548121113"><ele>20.0</ele><time>2026-03-21T15:51:39Z</time></trkpt><trkpt lat="40.94228157204775" lon="9.504985643776507"><ele>20.0</ele><time>2026-03-21T15:51:40Z</time></trkpt><trkpt lat="40.942425990959116" lon="9.50491436765239"><ele>20.0</ele><time>2026-03-21T15:51:41Z</time></trkpt><trkpt lat="40.94257025483033" lon="9.504838183139231"><ele>19.666666666666668</ele><time>2026-03-21T15:51:42Z</time></trkpt><trkpt lat="40.94271471144725" lon="9.504763622851154"><ele>19.333333333333332</ele><time>2026-03-21T15:51:43Z</time></trkpt><trkpt lat="40.942861161386176" lon="9.50469157792387"><ele>19.0</ele><time>2026-03-21T15:51:44Z</time></trkpt><trkpt lat="40.94300165587267" lon="9.504629569226042"><ele>19.333333333333332</ele><time>2026-03-21T15:51:45Z</time></trkpt><trkpt lat="40.94314129243389" lon="9.504558939936455"><ele>19.666666666666668</ele><time>2026-03-21T15:51:46Z</time></trkpt><trkpt lat="40.94328307749255" lon="9.504486694287495"><ele>20.0</ele><time>2026-03-21T15:51:47Z</time></trkpt><trkpt lat="40.94342407591133" lon="9.504413636856029"><ele>20.0</ele><time>2026-03-21T15:51:48Z</time></trkpt><trkpt lat="40.94356195318476" lon="9.50434285725673"><ele>20.0</ele><time>2026-03-21T15:51:49Z</time></trkpt><trkpt lat="40.943691624799065" lon="9.504279745651099"><ele>20.0</ele><time>2026-03-21T15:51:50Z</time></trkpt><trkpt lat="40.943819449086554" lon="9.504217757713775"><ele>20.0</ele><time>2026-03-21T15:51:51Z</time></trkpt><trkpt lat="40.94394152624928" lon="9.504153063550103"><ele>20.0</ele><time>2026-03-21T15:51:52Z</time></trkpt><trkpt lat="40.94406387033862" lon="9.504088179267203"><ele>20.0</ele><time>2026-03-21T15:51:53Z</time></trkpt><trkpt lat="40.94417849047555" lon="9.504023479837668"><ele>20.0</ele><time>2026-03-21T15:51:54Z</time></trkpt><trkpt lat="40.94429440098864" lon="9.503963672162696"><ele>20.0</ele><time>2026-03-21T15:51:55Z</time></trkpt><trkpt lat="40.94440801571605" lon="9.503915128469487"><ele>20.2</ele><time>2026-03-21T15:51:56Z</time></trkpt><trkpt lat="40.94451429511185" lon="9.503876176761901"><ele>20.4</ele><time>2026-03-21T15:51:57Z</time></trkpt><trkpt lat="40.94462634818095" lon="9.503859804518981"><ele>20.6</ele><time>2026-03-21T15:51:58Z</time></trkpt><trkpt lat="40.944739424931385" lon="9.503863519290501"><ele>20.8</ele><time>2026-03-21T15:51:59.001Z</time></trkpt><trkpt lat="40.94483501129257" lon="9.503881770008531"><ele>21.0</ele><time>2026-03-21T15:52:00.001Z</time></trkpt><trkpt lat="40.94492580212182" lon="9.50386931635916"><ele>21.0</ele><time>2026-03-21T15:52:01.001Z</time></trkpt><trkpt lat="40.94500424536598" lon="9.503819014612105"><ele>21.0</ele><time>2026-03-21T15:52:02.001Z</time></trkpt><trkpt lat="40.94507755531703" lon="9.503739909115266"><ele>21.0</ele><time>2026-03-21T15:52:03.001Z</time></trkpt><trkpt lat="40.94512552990018" lon="9.50364219381682"><ele>21.0</ele><time>2026-03-21T15:52:04.001Z</time></trkpt><trkpt lat="40.94517507037112" lon="9.503551071346987"><ele>21.0</ele><time>2026-03-21T15:52:05.001Z</time></trkpt><trkpt lat="40.945287698233344" lon="9.50345301689451"><ele>21.5</ele><time>2026-03-21T15:52:06.001Z</time></trkpt><trkpt lat="40.945366643420584" lon="9.50341171166958"><ele>22.0</ele><time>2026-03-21T15:52:07.001Z</time></trkpt><trkpt lat="40.94542967321722" lon="9.503374317376247"><ele>22.5</ele><time>2026-03-21T15:52:08.001Z</time></trkpt><trkpt lat="40.94549848169749" lon="9.503352384169139"><ele>23.0</ele><time>2026-03-21T15:52:09.001Z</time></trkpt><trkpt lat="40.9455727961792" lon="9.503311074830673"><ele>23.5</ele><time>2026-03-21T15:52:10.001Z</time></trkpt><trkpt lat="40.945655458180504" lon="9.50326641506014"><ele>24.0</ele><time>2026-03-21T15:52:11.001Z</time></trkpt><trkpt lat="40.94575641276249" lon="9.503206592477765"><ele>24.0</ele><time>2026-03-21T15:52:12.001Z</time></trkpt><trkpt lat="40.94585728278316" lon="9.503153840163598"><ele>24.0</ele><time>2026-03-21T15:52:13.001Z</time></trkpt><trkpt lat="40.94594158936234" lon="9.503109529341259"><ele>24.0</ele><time>2026-03-21T15:52:14.001Z</time></trkpt><trkpt lat="40.94604009078576" lon="9.503052370294892"><ele>24.0</ele><time>2026-03-21T15:52:15.001Z</time></trkpt><trkpt lat="40.946138817516285" lon="9.502994578294976"><ele>24.0</ele><time>2026-03-21T15:52:16.001Z</time></trkpt><trkpt lat="40.94623483349179" lon="9.502948665447526"><ele>24.0</ele><time>2026-03-21T15:52:17.001Z</time></trkpt><trkpt lat="40.94632001417683" lon="9.50290786678411"><ele>24.0</ele><time>2026-03-21T15:52:18.001Z</time></trkpt><trkpt lat="40.946418485095705" lon="9.50285546447426"><ele>24.0</ele><time>2026-03-21T15:52:19.001Z</time></trkpt><trkpt lat="40.946508390968376" lon="9.502813439044676"><ele>24.0</ele><time>2026-03-21T15:52:20.001Z</time></trkpt><trkpt lat="40.94659319159792" lon="9.502760079782586"><ele>24.0</ele><time>2026-03-21T15:52:21.001Z</time></trkpt><trkpt lat="40.94666897855111" lon="9.502705502987725"><ele>24.75</ele><time>2026-03-21T15:52:22.001Z</time></trkpt><trkpt lat="40.9467741731817" lon="9.502663780963086"><ele>25.5</ele><time>2026-03-21T15:52:23.001Z</time></trkpt><trkpt lat="40.94688370472606" lon="9.50260570435167"><ele>26.25</ele><time>2026-03-21T15:52:24.001Z</time></trkpt><trkpt lat="40.94698650605498" lon="9.50256189089165"><ele>27.0</ele><time>2026-03-21T15:52:25.001Z</time></trkpt><trkpt lat="40.94709925387629" lon="9.502508774663703"><ele>27.0</ele><time>2026-03-21T15:52:26.001Z</time></trkpt><trkpt lat="40.94722438056916" lon="9.502449977666807"><ele>27.0</ele><time>2026-03-21T15:52:27.001Z</time></trkpt><trkpt lat="40.94734868317556" lon="9.502388555153763"><ele>27.0</ele><time>2026-03-21T15:52:28.001Z</time></trkpt><trkpt lat="40.947480099946794" lon="9.502324909840894"><ele>27.0</ele><time>2026-03-21T15:52:29.001Z</time></trkpt><trkpt lat="40.94761001084899" lon="9.502259127200233"><ele>28.0</ele><time>2026-03-21T15:52:30.001Z</time></trkpt><trkpt lat="40.94775052119797" lon="9.50219170968668"><ele>29.0</ele><time>2026-03-21T15:52:31.001Z</time></trkpt><trkpt lat="40.947897290215366" lon="9.50211905736652"><ele>30.0</ele><time>2026-03-21T15:52:32.001Z</time></trkpt><trkpt lat="40.94802646918833" lon="9.502049240432276"><ele>31.0</ele><time>2026-03-21T15:52:33.001Z</time></trkpt><trkpt lat="40.948162823046374" lon="9.501982576176419"><ele>31.0</ele><time>2026-03-21T15:52:34.001Z</time></trkpt><trkpt lat="40.94829688569752" lon="9.50192153737848"><ele>31.0</ele><time>2026-03-21T15:52:35.001Z</time></trkpt><trkpt lat="40.948435157050525" lon="9.501858003758613"><ele>31.0</ele><time>2026-03-21T15:52:36.001Z</time></trkpt><trkpt lat="40.948565603589415" lon="9.501798338004182"><ele>31.0</ele><time>2026-03-21T15:52:37.001Z</time></trkpt><trkpt lat="40.948702294252556" lon="9.501728234393266"><ele>31.25</ele><time>2026-03-21T15:52:38.001Z</time></trkpt><trkpt lat="40.94884407739278" lon="9.501660831462814"><ele>31.5</ele><time>2026-03-21T15:52:38.996Z</time></trkpt><trkpt lat="40.94897858710695" lon="9.501598074228765"><ele>31.75</ele><time>2026-03-21T15:52:39.996Z</time></trkpt><trkpt lat="40.94912480435723" lon="9.50153375842518"><ele>32.0</ele><time>2026-03-21T15:52:40.996Z</time></trkpt><trkpt lat="40.94926163904947" lon="9.501460009492181"><ele>32.5</ele><time>2026-03-21T15:52:41.996Z</time></trkpt><trkpt lat="40.94938249325936" lon="9.50137861630692"><ele>33.0</ele><time>2026-03-21T15:52:42.996Z</time></trkpt><trkpt lat="40.949505931108945" lon="9.501316506731872"><ele>33.5</ele><time>2026-03-21T15:52:43.996Z</time></trkpt><trkpt lat="40.94964830445502" lon="9.501246769986043"><ele>34.0</ele><time>2026-03-21T15:52:44.996Z</time></trkpt><trkpt lat="40.94978923986772" lon="9.501180484225657"><ele>34.0</ele><time>2026-03-21T15:52:45.996Z</time></trkpt><trkpt lat="40.949933044748704" lon="9.501107742006113"><ele>34.0</ele><time>2026-03-21T15:52:46.996Z</time></trkpt><trkpt lat="40.950079762292454" lon="9.501039141225935"><ele>34.0</ele><time>2026-03-21T15:52:47.996Z</time></trkpt><trkpt lat="40.95022368490535" lon="9.500961617013747"><ele>35.0</ele><time>2026-03-21T15:52:48.996Z</time></trkpt><trkpt lat="40.95037146697441" lon="9.500898491001305"><ele>36.0</ele><time>2026-03-21T15:52:49.997Z</time></trkpt><trkpt lat="40.95052975446646" lon="9.50083220899425"><ele>37.0</ele><time>2026-03-21T15:52:50.997Z</time></trkpt><trkpt lat="40.95068446438767" lon="9.500766160683442"><ele>37.0</ele><time>2026-03-21T15:52:51.997Z</time></trkpt><trkpt lat="40.950841658983116" lon="9.500701858025684"><ele>37.0</ele><time>2026-03-21T15:52:52.997Z</time></trkpt><trkpt lat="40.951001913046596" lon="9.500634087132207"><ele>37.0</ele><time>2026-03-21T15:52:53.997Z</time></trkpt><trkpt lat="40.951148334468456" lon="9.50056219583061"><ele>37.333333333333336</ele><time>2026-03-21T15:52:54.997Z</time></trkpt><trkpt lat="40.951306654735895" lon="9.50049809488574"><ele>37.666666666666664</ele><time>2026-03-21T15:52:55.997Z</time></trkpt><trkpt lat="40.95145932829076" lon="9.500417849136367"><ele>38.0</ele><time>2026-03-21T15:52:56.997Z</time></trkpt><trkpt lat="40.95160796390417" lon="9.500346500596466"><ele>38.33333333333333</ele><time>2026-03-21T15:52:57.997Z</time></trkpt><trkpt lat="40.95175643873569" lon="9.50028648419058"><ele>38.666666666666664</ele><time>2026-03-21T15:52:58.998Z</time></trkpt><trkpt lat="40.95190309605067" lon="9.500226722041191"><ele>39.0</ele><time>2026-03-21T15:52:59.998Z</time></trkpt><trkpt lat="40.95205807745957" lon="9.500167231275006"><ele>39.0</ele><time>2026-03-21T15:53:00.998Z</time></trkpt><trkpt lat="40.95220857179708" lon="9.500108606613088"><ele>39.0</ele><time>2026-03-21T15:53:01.998Z</time></trkpt><trkpt lat="40.95236745543499" lon="9.500046912084242"><ele>39.0</ele><time>2026-03-21T15:53:02.998Z</time></trkpt><trkpt lat="40.95251809986156" lon="9.49998583025302"><ele>40.0</ele><time>2026-03-21T15:53:03.998Z</time></trkpt><trkpt lat="40.952677523354424" lon="9.499926264098363"><ele>41.0</ele><time>2026-03-21T15:53:04.998Z</time></trkpt><trkpt lat="40.95284217443148" lon="9.499866429223664"><ele>42.0</ele><time>2026-03-21T15:53:05.998Z</time></trkpt><trkpt lat="40.953012898207355" lon="9.499799141511758"><ele>42.0</ele><time>2026-03-21T15:53:06.998Z</time></trkpt><trkpt lat="40.95316891645856" lon="9.499748284292815"><ele>42.0</ele><time>2026-03-21T15:53:07.998Z</time></trkpt><trkpt lat="40.95331700067802" lon="9.499693261750942"><ele>42.0</ele><time>2026-03-21T15:53:08.998Z</time></trkpt><trkpt lat="40.95346696750428" lon="9.49963653389937"><ele>44.66666666666667</ele><time>2026-03-21T15:53:09.998Z</time></trkpt><trkpt lat="40.953640195506175" lon="9.499581610608951"><ele>47.333333333333336</ele><time>2026-03-21T15:53:10.999Z</time></trkpt><trkpt lat="40.95379852696269" lon="9.499527547257639"><ele>50.0</ele><time>2026-03-21T15:53:11.999Z</time></trkpt><trkpt lat="40.95397872889071" lon="9.499458665359121"><ele>50.0</ele><time>2026-03-21T15:53:12.999Z</time></trkpt><trkpt lat="40.95416043719132" lon="9.499423723908011"><ele>50.0</ele><time>2026-03-21T15:53:13.999Z</time></trkpt><trkpt lat="40.9543356252083" lon="9.49937018096079"><ele>50.0</ele><time>2026-03-21T15:53:14.999Z</time></trkpt><trkpt lat="40.95451025486628" lon="9.49931656973181"><ele>50.66666666666667</ele><time>2026-03-21T15:53:15.999Z</time></trkpt><trkpt lat="40.95467790628946" lon="9.499264374050162"><ele>51.33333333333333</ele><time>2026-03-21T15:53:16.999Z</time></trkpt><trkpt lat="40.95483962468923" lon="9.499214025516006"><ele>52.0</ele><time>2026-03-21T15:53:17.999Z</time></trkpt><trkpt lat="40.955012023671955" lon="9.499160351744198"><ele>54.33333333333333</ele><time>2026-03-21T15:53:18.999Z</time></trkpt><trkpt lat="40.95517751576212" lon="9.499092602365048"><ele>56.66666666666667</ele><time>2026-03-21T15:53:19.999Z</time></trkpt><trkpt lat="40.95535615868712" lon="9.499048995209355"><ele>59.0</ele><time>2026-03-21T15:53:20.999Z</time></trkpt><trkpt lat="40.955527125138666" lon="9.49900450963341"><ele>59.0</ele><time>2026-03-21T15:53:21.999Z</time></trkpt><trkpt lat="40.95570503104441" lon="9.498953203143895"><ele>59.0</ele><time>2026-03-21T15:53:22.999Z</time></trkpt><trkpt lat="40.95587428841724" lon="9.49889967407578"><ele>59.0</ele><time>2026-03-21T15:53:23.999Z</time></trkpt><trkpt lat="40.95606238485733" lon="9.498831635984885"><ele>60.0</ele><time>2026-03-21T15:53:24.999Z</time></trkpt><trkpt lat="40.956237824569335" lon="9.498759335724461"><ele>61.0</ele><time>2026-03-21T15:53:25.999Z</time></trkpt><trkpt lat="40.95641619814361" lon="9.498683853002618"><ele>62.0</ele><time>2026-03-21T15:53:26.999Z</time></trkpt><trkpt lat="40.956588867240995" lon="9.498605154679762"><ele>58.66666666666667</ele><time>2026-03-21T15:53:27.999Z</time></trkpt><trkpt lat="40.956757813146496" lon="9.498523354659492"><ele>55.33333333333333</ele><time>2026-03-21T15:53:28.999Z</time></trkpt><trkpt lat="40.956926301171166" lon="9.498436326555375"><ele>52.0</ele><time>2026-03-21T15:53:29.999Z</time></trkpt><trkpt lat="40.95709508635665" lon="9.4983472592269"><ele>52.0</ele><time>2026-03-21T15:53:30.999Z</time></trkpt><trkpt lat="40.957267493735536" lon="9.498254869491301"><ele>52.0</ele><time>2026-03-21T15:53:32Z</time></trkpt><trkpt lat="40.957428119035434" lon="9.498158715455626"><ele>52.0</ele><time>2026-03-21T15:53:33Z</time></trkpt><trkpt lat="40.95758977799551" lon="9.498058783299618"><ele>52.666666666666664</ele><time>2026-03-21T15:53:34Z</time></trkpt><trkpt lat="40.957750307374226" lon="9.49795110068461"><ele>53.33333333333333</ele><time>2026-03-21T15:53:35Z</time></trkpt><trkpt lat="40.957901755042805" lon="9.497845546898066"><ele>54.0</ele><time>2026-03-21T15:53:36Z</time></trkpt><trkpt lat="40.958055497631115" lon="9.497728256506331"><ele>54.33333333333333</ele><time>2026-03-21T15:53:37Z</time></trkpt><trkpt lat="40.95820842956554" lon="9.497614079527324"><ele>54.666666666666664</ele><time>2026-03-21T15:53:38Z</time></trkpt><trkpt lat="40.95836370308988" lon="9.497502638268447"><ele>55.0</ele><time>2026-03-21T15:53:39Z</time></trkpt><trkpt lat="40.958515081331896" lon="9.497396761791519"><ele>55.33333333333333</ele><time>2026-03-21T15:53:40Z</time></trkpt><trkpt lat="40.95865503994665" lon="9.497281901100356"><ele>55.66666666666667</ele><time>2026-03-21T15:53:41Z</time></trkpt><trkpt lat="40.958799833851" lon="9.497160538199795"><ele>56.0</ele><time>2026-03-21T15:53:42Z</time></trkpt><trkpt lat="40.95893825839702" lon="9.497038240818274"><ele>55.333333333333336</ele><time>2026-03-21T15:53:43Z</time></trkpt><trkpt lat="40.959102021381824" lon="9.49689426382442"><ele>54.66666666666667</ele><time>2026-03-21T15:53:44Z</time></trkpt><trkpt lat="40.959246512658375" lon="9.496752657950392"><ele>54.0</ele><time>2026-03-21T15:53:45Z</time></trkpt><trkpt lat="40.9593922192877" lon="9.496615780127794"><ele>54.0</ele><time>2026-03-21T15:53:46Z</time></trkpt><trkpt lat="40.959535055039375" lon="9.496463130372334"><ele>54.0</ele><time>2026-03-21T15:53:47Z</time></trkpt><trkpt lat="40.959682333286516" lon="9.496306435648423"><ele>54.0</ele><time>2026-03-21T15:53:48Z</time></trkpt><trkpt lat="40.95982457303371" lon="9.496153518947517"><ele>54.0</ele><time>2026-03-21T15:53:49Z</time></trkpt><trkpt lat="40.95997317737812" lon="9.496002178831775"><ele>54.0</ele><time>2026-03-21T15:53:50Z</time></trkpt><trkpt lat="40.96012444809194" lon="9.495850417213825"><ele>54.0</ele><time>2026-03-21T15:53:51Z</time></trkpt><trkpt lat="40.96027884869774" lon="9.495689860443528"><ele>54.0</ele><time>2026-03-21T15:53:52Z</time></trkpt><trkpt lat="40.960425482122226" lon="9.495545919328904"><ele>54.0</ele><time>2026-03-21T15:53:53Z</time></trkpt><trkpt lat="40.9605692998692" lon="9.495391394536448"><ele>54.0</ele><time>2026-03-21T15:53:54Z</time></trkpt><trkpt lat="40.960716444179056" lon="9.495231181040808"><ele>54.0</ele><time>2026-03-21T15:53:55Z</time></trkpt><trkpt lat="40.96086513247881" lon="9.495074962264976"><ele>54.0</ele><time>2026-03-21T15:53:56Z</time></trkpt><trkpt lat="40.961010181740704" lon="9.494925004425482"><ele>54.0</ele><time>2026-03-21T15:53:57Z</time></trkpt><trkpt lat="40.96115156418587" lon="9.494771072062617"><ele>55.0</ele><time>2026-03-21T15:53:58Z</time></trkpt><trkpt lat="40.96129524218214" lon="9.494625287780867"><ele>56.0</ele><time>2026-03-21T15:53:59Z</time></trkpt><trkpt lat="40.96144638223379" lon="9.494460619904634"><ele>57.0</ele><time>2026-03-21T15:54:00Z</time></trkpt><trkpt lat="40.961586573605935" lon="9.494315268712786"><ele>58.33333333333333</ele><time>2026-03-21T15:54:01.001Z</time></trkpt><trkpt lat="40.96172732672071" lon="9.494167150614343"><ele>59.666666666666664</ele><time>2026-03-21T15:54:02.001Z</time></trkpt><trkpt lat="40.96185756727198" lon="9.494019761957643"><ele>61.0</ele><time>2026-03-21T15:54:03.001Z</time></trkpt><trkpt lat="40.9620102721667" lon="9.493862432351104"><ele>60.33333333333333</ele><time>2026-03-21T15:54:04.001Z</time></trkpt><trkpt lat="40.96215300611036" lon="9.49371976096297"><ele>59.66666666666667</ele><time>2026-03-21T15:54:05.001Z</time></trkpt><trkpt lat="40.96229421996095" lon="9.49357376811908"><ele>59.0</ele><time>2026-03-21T15:54:06.001Z</time></trkpt><trkpt lat="40.962443128238895" lon="9.493418601317932"><ele>61.0</ele><time>2026-03-21T15:54:07.001Z</time></trkpt><trkpt lat="40.962597626791414" lon="9.493265824464883"><ele>63.0</ele><time>2026-03-21T15:54:08.001Z</time></trkpt><trkpt lat="40.96275360669549" lon="9.493110000457643"><ele>65.0</ele><time>2026-03-21T15:54:09.001Z</time></trkpt><trkpt lat="40.96290365205122" lon="9.492958742049959"><ele>64.66666666666667</ele><time>2026-03-21T15:54:10.001Z</time></trkpt><trkpt lat="40.963055434302305" lon="9.492806314935887"><ele>64.33333333333333</ele><time>2026-03-21T15:54:11.001Z</time></trkpt><trkpt lat="40.96319463043231" lon="9.492658459556747"><ele>64.0</ele><time>2026-03-21T15:54:12.001Z</time></trkpt><trkpt lat="40.96334144234937" lon="9.492512233322971"><ele>65.66666666666666</ele><time>2026-03-21T15:54:13.001Z</time></trkpt><trkpt lat="40.96348468310475" lon="9.492369690452472"><ele>67.33333333333333</ele><time>2026-03-21T15:54:14.001Z</time></trkpt><trkpt lat="40.96363087657318" lon="9.492231025493199"><ele>69.0</ele><time>2026-03-21T15:54:15.001Z</time></trkpt><trkpt lat="40.96377211633657" lon="9.49210323015047"><ele>69.0</ele><time>2026-03-21T15:54:16.001Z</time></trkpt><trkpt lat="40.96392349809752" lon="9.491977986190681"><ele>69.0</ele><time>2026-03-21T15:54:17.001Z</time></trkpt><trkpt lat="40.96406610398874" lon="9.49186483212669"><ele>69.0</ele><time>2026-03-21T15:54:18.001Z</time></trkpt><trkpt lat="40.96420577806796" lon="9.49176206058302"><ele>68.33333333333333</ele><time>2026-03-21T15:54:19.001Z</time></trkpt><trkpt lat="40.96434681339662" lon="9.491665030476218"><ele>67.66666666666666</ele><time>2026-03-21T15:54:20.001Z</time></trkpt><trkpt lat="40.96448333967878" lon="9.49157158267567"><ele>67.0</ele><time>2026-03-21T15:54:21.001Z</time></trkpt><trkpt lat="40.96460729727647" lon="9.491485302001287"><ele>67.0</ele><time>2026-03-21T15:54:22.001Z</time></trkpt><trkpt lat="40.964741251275406" lon="9.491413876259099"><ele>67.0</ele><time>2026-03-21T15:54:23.001Z</time></trkpt><trkpt lat="40.964873439271926" lon="9.491343927312569"><ele>67.0</ele><time>2026-03-21T15:54:24.001Z</time></trkpt><trkpt lat="40.965006891543545" lon="9.49127627932458"><ele>67.0</ele><time>2026-03-21T15:54:25.001Z</time></trkpt><trkpt lat="40.96514240049647" lon="9.491227976924314"><ele>66.0</ele><time>2026-03-21T15:54:26.001Z</time></trkpt><trkpt lat="40.96527866262695" lon="9.491185492655054"><ele>65.0</ele><time>2026-03-21T15:54:27.001Z</time></trkpt><trkpt lat="40.965424304011975" lon="9.491129330333079"><ele>64.0</ele><time>2026-03-21T15:54:28.001Z</time></trkpt><trkpt lat="40.965555408021814" lon="9.49108719196901"><ele>63.0</ele><time>2026-03-21T15:54:29.001Z</time></trkpt><trkpt lat="40.96569375736512" lon="9.491042197650598"><ele>63.0</ele><time>2026-03-21T15:54:30.001Z</time></trkpt><trkpt lat="40.96583789691832" lon="9.491008802930947"><ele>63.0</ele><time>2026-03-21T15:54:31.001Z</time></trkpt><trkpt lat="40.96597159660245" lon="9.490985376271615"><ele>63.0</ele><time>2026-03-21T15:54:32.001Z</time></trkpt><trkpt lat="40.96611225308733" lon="9.490958494963415"><ele>63.0</ele><time>2026-03-21T15:54:33.001Z</time></trkpt><trkpt lat="40.96627568664767" lon="9.490921682031901"><ele>62.33333333333333</ele><time>2026-03-21T15:54:34.002Z</time></trkpt><trkpt lat="40.96643198312376" lon="9.490897545792267"><ele>61.666666666666664</ele><time>2026-03-21T15:54:35.002Z</time></trkpt><trkpt lat="40.966589066056855" lon="9.490886312355096"><ele>61.0</ele><time>2026-03-21T15:54:36.002Z</time></trkpt><trkpt lat="40.966743544760675" lon="9.490881609821804"><ele>61.0</ele><time>2026-03-21T15:54:37.002Z</time></trkpt><trkpt lat="40.966904004233044" lon="9.49087997774336"><ele>61.0</ele><time>2026-03-21T15:54:38.002Z</time></trkpt><trkpt lat="40.967063355407035" lon="9.490889068307704"><ele>61.0</ele><time>2026-03-21T15:54:39.002Z</time></trkpt><trkpt lat="40.96721542493067" lon="9.490906632391813"><ele>61.0</ele><time>2026-03-21T15:54:40.002Z</time></trkpt><trkpt lat="40.96737402679112" lon="9.49093210897242"><ele>61.0</ele><time>2026-03-21T15:54:41.002Z</time></trkpt><trkpt lat="40.96752521684177" lon="9.49096955091711"><ele>61.0</ele><time>2026-03-21T15:54:42.002Z</time></trkpt><trkpt lat="40.96767550975444" lon="9.49099765578476"><ele>59.666666666666664</ele><time>2026-03-21T15:54:43.002Z</time></trkpt><trkpt lat="40.96783795672904" lon="9.49103277184254"><ele>58.33333333333333</ele><time>2026-03-21T15:54:44.002Z</time></trkpt><trkpt lat="40.96800362775591" lon="9.491068896962974"><ele>57.0</ele><time>2026-03-21T15:54:44.997Z</time></trkpt><trkpt lat="40.968166015666064" lon="9.491118626978647"><ele>57.0</ele><time>2026-03-21T15:54:45.997Z</time></trkpt><trkpt lat="40.96832523846982" lon="9.491150859007274"><ele>57.0</ele><time>2026-03-21T15:54:46.997Z</time></trkpt><trkpt lat="40.968480566131056" lon="9.491188554956826"><ele>57.0</ele><time>2026-03-21T15:54:47.997Z</time></trkpt><trkpt lat="40.96863753051635" lon="9.491217471633083"><ele>56.66666666666667</ele><time>2026-03-21T15:54:48.997Z</time></trkpt><trkpt lat="40.96879009449206" lon="9.491258220648383"><ele>56.333333333333336</ele><time>2026-03-21T15:54:49.997Z</time></trkpt><trkpt lat="40.968945479564844" lon="9.491293747721892"><ele>56.0</ele><time>2026-03-21T15:54:50.998Z</time></trkpt><trkpt lat="40.96909932053785" lon="9.49132440927609"><ele>55.333333333333336</ele><time>2026-03-21T15:54:51.998Z</time></trkpt><trkpt lat="40.96926048384462" lon="9.491357138770166"><ele>54.66666666666667</ele><time>2026-03-21T15:54:52.998Z</time></trkpt><trkpt lat="40.96941795920673" lon="9.491379136389982"><ele>54.0</ele><time>2026-03-21T15:54:53.998Z</time></trkpt><trkpt lat="40.96956629091388" lon="9.491380943379923"><ele>54.0</ele><time>2026-03-21T15:54:54.998Z</time></trkpt><trkpt lat="40.96971826436414" lon="9.491377326140855"><ele>54.0</ele><time>2026-03-21T15:54:55.998Z</time></trkpt><trkpt lat="40.96986962737708" lon="9.491357092067112"><ele>54.0</ele><time>2026-03-21T15:54:56.998Z</time></trkpt><trkpt lat="40.9700147896545" lon="9.491323742612437"><ele>54.0</ele><time>2026-03-21T15:54:57.998Z</time></trkpt><trkpt lat="40.97015968210155" lon="9.491294614014125"><ele>54.0</ele><time>2026-03-21T15:54:58.998Z</time></trkpt><trkpt lat="40.97030344151903" lon="9.491262152532196"><ele>54.0</ele><time>2026-03-21T15:54:59.999Z</time></trkpt><trkpt lat="40.970442040473614" lon="9.491221041375798"><ele>54.0</ele><time>2026-03-21T15:55:00.999Z</time></trkpt><trkpt lat="40.97057935824417" lon="9.491183243218705"><ele>54.0</ele><time>2026-03-21T15:55:01.999Z</time></trkpt><trkpt lat="40.97072585926132" lon="9.491148157189356"><ele>54.0</ele><time>2026-03-21T15:55:02.999Z</time></trkpt><trkpt lat="40.970867342755234" lon="9.491112826855023"><ele>54.0</ele><time>2026-03-21T15:55:03.999Z</time></trkpt><trkpt lat="40.97101731223134" lon="9.491070065227378"><ele>54.0</ele><time>2026-03-21T15:55:04.999Z</time></trkpt><trkpt lat="40.97116456585897" lon="9.491036572753751"><ele>54.0</ele><time>2026-03-21T15:55:05.999Z</time></trkpt><trkpt lat="40.971313366673385" lon="9.490999032124458"><ele>54.0</ele><time>2026-03-21T15:55:06.999Z</time></trkpt><trkpt lat="40.971443550785324" lon="9.490968119405194"><ele>54.0</ele><time>2026-03-21T15:55:07.999Z</time></trkpt><trkpt lat="40.97159969071362" lon="9.490935048755638"><ele>54.0</ele><time>2026-03-21T15:55:08.999Z</time></trkpt><trkpt lat="40.971734853534535" lon="9.49086915051621"><ele>54.0</ele><time>2026-03-21T15:55:10Z</time></trkpt><trkpt lat="40.97187626536286" lon="9.490877050618847"><ele>54.0</ele><time>2026-03-21T15:55:11Z</time></trkpt><trkpt lat="40.97201454567996" lon="9.490827104181106"><ele>54.0</ele><time>2026-03-21T15:55:13Z</time></trkpt><trkpt lat="40.972094487544794" lon="9.490825639710176"><ele>54.0</ele><time>2026-03-21T15:55:14Z</time></trkpt><trkpt lat="40.97220011505573" lon="9.490805925756632"><ele>54.0</ele><time>2026-03-21T15:55:15Z</time></trkpt><trkpt lat="40.97230487890447" lon="9.490778788774588"><ele>54.00000000000001</ele><time>2026-03-21T15:55:16Z</time></trkpt><trkpt lat="40.972402145830856" lon="9.490759948390362"><ele>54.00000000000001</ele><time>2026-03-21T15:55:17Z</time></trkpt><trkpt lat="40.972506164705536" lon="9.490741184499749"><ele>54.0</ele><time>2026-03-21T15:55:18Z</time></trkpt><trkpt lat="40.97260299526685" lon="9.490721307598676"><ele>54.0</ele><time>2026-03-21T15:55:19Z</time></trkpt><trkpt lat="40.97271217606897" lon="9.490699584259158"><ele>54.2</ele><time>2026-03-21T15:55:20Z</time></trkpt><trkpt lat="40.972825253559144" lon="9.490678206041725"><ele>54.400000000000006</ele><time>2026-03-21T15:55:21Z</time></trkpt><trkpt lat="40.97293190280049" lon="9.490656126331272"><ele>54.6</ele><time>2026-03-21T15:55:22Z</time></trkpt><trkpt lat="40.973040634356806" lon="9.490634479454716"><ele>54.8</ele><time>2026-03-21T15:55:23Z</time></trkpt><trkpt lat="40.973153250440845" lon="9.490611525263525"><ele>55.0</ele><time>2026-03-21T15:55:24Z</time></trkpt><trkpt lat="40.97326314635297" lon="9.490591795232758"><ele>55.0</ele><time>2026-03-21T15:55:25Z</time></trkpt><trkpt lat="40.97337637386177" lon="9.490568888797117"><ele>55.0</ele><time>2026-03-21T15:55:26.001Z</time></trkpt><trkpt lat="40.97349270221577" lon="9.490544449247473"><ele>55.0</ele><time>2026-03-21T15:55:27.001Z</time></trkpt><trkpt lat="40.973609288285914" lon="9.490517264802616"><ele>55.0</ele><time>2026-03-21T15:55:28.001Z</time></trkpt><trkpt lat="40.97373591795095" lon="9.490489964724103"><ele>55.0</ele><time>2026-03-21T15:55:29.001Z</time></trkpt><trkpt lat="40.97386097322765" lon="9.490463502075482"><ele>55.0</ele><time>2026-03-21T15:55:30.001Z</time></trkpt><trkpt lat="40.97398668976005" lon="9.490438757910814"><ele>55.0</ele><time>2026-03-21T15:55:31.001Z</time></trkpt><trkpt lat="40.97410809687819" lon="9.490416596691432"><ele>55.0</ele><time>2026-03-21T15:55:32.001Z</time></trkpt><trkpt lat="40.97422789486848" lon="9.490388668856772"><ele>55.5</ele><time>2026-03-21T15:55:33.001Z</time></trkpt><trkpt lat="40.97436840154253" lon="9.490375969182704"><ele>56.0</ele><time>2026-03-21T15:55:34.001Z</time></trkpt><trkpt lat="40.974504210100136" lon="9.490381887611395"><ele>56.5</ele><time>2026-03-21T15:55:35.001Z</time></trkpt><trkpt lat="40.97463358520685" lon="9.490432807904265"><ele>57.0</ele><time>2026-03-21T15:55:36.001Z</time></trkpt><trkpt lat="40.9747558105711" lon="9.490489794843892"><ele>57.0</ele><time>2026-03-21T15:55:37.001Z</time></trkpt><trkpt lat="40.9748801386602" lon="9.490566807624777"><ele>57.0</ele><time>2026-03-21T15:55:38.001Z</time></trkpt><trkpt lat="40.9749923856525" lon="9.490660656109476"><ele>57.0</ele><time>2026-03-21T15:55:39.001Z</time></trkpt><trkpt lat="40.97510377119944" lon="9.490761553332678"><ele>57.0</ele><time>2026-03-21T15:55:40.001Z</time></trkpt><trkpt lat="40.975223532270775" lon="9.49085253341209"><ele>57.0</ele><time>2026-03-21T15:55:41.001Z</time></trkpt><trkpt lat="40.975328919232055" lon="9.49095528914128"><ele>57.0</ele><time>2026-03-21T15:55:42.001Z</time></trkpt><trkpt lat="40.97544570807494" lon="9.491045089839133"><ele>57.0</ele><time>2026-03-21T15:55:43.001Z</time></trkpt><trkpt lat="40.97555754978121" lon="9.491126325304492"><ele>57.0</ele><time>2026-03-21T15:55:44.001Z</time></trkpt><trkpt lat="40.975678464993315" lon="9.491193161420407"><ele>57.0</ele><time>2026-03-21T15:55:45.001Z</time></trkpt><trkpt lat="40.975804538792204" lon="9.491240534601669"><ele>57.0</ele><time>2026-03-21T15:55:46.001Z</time></trkpt><trkpt lat="40.97593823874452" lon="9.491272143998176"><ele>57.0</ele><time>2026-03-21T15:55:47.001Z</time></trkpt><trkpt lat="40.97607097599051" lon="9.491292987101948"><ele>57.0</ele><time>2026-03-21T15:55:48.001Z</time></trkpt><trkpt lat="40.97620603714335" lon="9.491312466499513"><ele>56.5</ele><time>2026-03-21T15:55:49.001Z</time></trkpt><trkpt lat="40.97634649965189" lon="9.4913168339501"><ele>56.0</ele><time>2026-03-21T15:55:50.001Z</time></trkpt><trkpt lat="40.97648960571098" lon="9.491330219338183"><ele>55.5</ele><time>2026-03-21T15:55:51.001Z</time></trkpt><trkpt lat="40.976629164777584" lon="9.491342216438294"><ele>55.0</ele><time>2026-03-21T15:55:52.002Z</time></trkpt><trkpt lat="40.97677458694156" lon="9.49135447650106"><ele>55.0</ele><time>2026-03-21T15:55:53.002Z</time></trkpt><trkpt lat="40.97693459591713" lon="9.491356511628652"><ele>55.0</ele><time>2026-03-21T15:55:54.002Z</time></trkpt><trkpt lat="40.97708920401792" lon="9.491375047169178"><ele>55.0</ele><time>2026-03-21T15:55:55.002Z</time></trkpt><trkpt lat="40.977237009670475" lon="9.491394076785332"><ele>55.0</ele><time>2026-03-21T15:55:56.002Z</time></trkpt><trkpt lat="40.97736962915802" lon="9.491378569445404"><ele>55.0</ele><time>2026-03-21T15:55:57.002Z</time></trkpt><trkpt lat="40.97752049382914" lon="9.49138334242756"><ele>55.0</ele><time>2026-03-21T15:55:58.002Z</time></trkpt><trkpt lat="40.97771036602932" lon="9.491401497129498"><ele>54.5</ele><time>2026-03-21T15:55:59.002Z</time></trkpt><trkpt lat="40.97784388300875" lon="9.491421253971959"><ele>54.0</ele><time>2026-03-21T15:56:00.002Z</time></trkpt><trkpt lat="40.97797737281383" lon="9.491438441588505"><ele>53.5</ele><time>2026-03-21T15:56:01.002Z</time></trkpt><trkpt lat="40.97811964914812" lon="9.49145359971776"><ele>53.0</ele><time>2026-03-21T15:56:02.002Z</time></trkpt><trkpt lat="40.978283824145564" lon="9.491472751609116"><ele>53.4</ele><time>2026-03-21T15:56:03.002Z</time></trkpt><trkpt lat="40.97839253853217" lon="9.491480531931417"><ele>53.8</ele><time>2026-03-21T15:56:04.002Z</time></trkpt><trkpt lat="40.97847715178787" lon="9.491460361533782"><ele>54.2</ele><time>2026-03-21T15:56:05.002Z</time></trkpt><trkpt lat="40.97858753841857" lon="9.491499204839334"><ele>54.6</ele><time>2026-03-21T15:56:06.002Z</time></trkpt><trkpt lat="40.97869769561501" lon="9.491509824206759"><ele>55.0</ele><time>2026-03-21T15:56:07.002Z</time></trkpt><trkpt lat="40.9788031856926" lon="9.491576543714157"><ele>55.0</ele><time>2026-03-21T15:56:08.002Z</time></trkpt><trkpt lat="40.97888925321465" lon="9.491668502274885"><ele>55.0</ele><time>2026-03-21T15:56:09.002Z</time></trkpt><trkpt lat="40.97890871755196" lon="9.491855220831743"><ele>55.0</ele><time>2026-03-21T15:56:10.002Z</time></trkpt><trkpt lat="40.97898104986297" lon="9.492037357288874"><ele>55.0</ele><time>2026-03-21T15:56:12.002Z</time></trkpt><trkpt lat="40.97906061474923" lon="9.492063826880868"><ele>54.5</ele><time>2026-03-21T15:56:13.002Z</time></trkpt><trkpt lat="40.97904473168258" lon="9.492274465895239"><ele>54.0</ele><time>2026-03-21T15:56:14.002Z</time></trkpt><trkpt lat="40.97904323831119" lon="9.492404928862147"><ele>53.5</ele><time>2026-03-21T15:56:15.002Z</time></trkpt><trkpt lat="40.979039767613784" lon="9.49253698141937"><ele>53.0</ele><time>2026-03-21T15:56:16.002Z</time></trkpt><trkpt lat="40.97903570244972" lon="9.492675855823867"><ele>53.0</ele><time>2026-03-21T15:56:17.002Z</time></trkpt><trkpt lat="40.97903217547866" lon="9.492837280968631"><ele>53.0</ele><time>2026-03-21T15:56:18.002Z</time></trkpt><trkpt lat="40.9790294231033" lon="9.492998239885827"><ele>53.0</ele><time>2026-03-21T15:56:19.002Z</time></trkpt><trkpt lat="40.97902516431302" lon="9.493167735271378"><ele>53.0</ele><time>2026-03-21T15:56:20.002Z</time></trkpt><trkpt lat="40.97902098686045" lon="9.493321815229509"><ele>52.75</ele><time>2026-03-21T15:56:21.002Z</time></trkpt><trkpt lat="40.97901644505089" lon="9.493489334056195"><ele>52.5</ele><time>2026-03-21T15:56:22.002Z</time></trkpt><trkpt lat="40.97901170833699" lon="9.493663011232059"><ele>52.25</ele><time>2026-03-21T15:56:23.003Z</time></trkpt><trkpt lat="40.979008447993415" lon="9.493839645093608"><ele>52.0</ele><time>2026-03-21T15:56:24.003Z</time></trkpt><trkpt lat="40.979007046104535" lon="9.494020449513076"><ele>50.75</ele><time>2026-03-21T15:56:25.003Z</time></trkpt><trkpt lat="40.97901128225896" lon="9.494199452698533"><ele>49.5</ele><time>2026-03-21T15:56:26.003Z</time></trkpt><trkpt lat="40.979034410660816" lon="9.494379601332836"><ele>48.25</ele><time>2026-03-21T15:56:27.003Z</time></trkpt><trkpt lat="40.97907426914825" lon="9.494558146310643"><ele>47.0</ele><time>2026-03-21T15:56:28.003Z</time></trkpt><trkpt lat="40.979131737344396" lon="9.49473576385621"><ele>45.75</ele><time>2026-03-21T15:56:29.003Z</time></trkpt><trkpt lat="40.979204443349076" lon="9.494907367490692"><ele>44.5</ele><time>2026-03-21T15:56:30.003Z</time></trkpt><trkpt lat="40.97929424981986" lon="9.495060388623136"><ele>43.25</ele><time>2026-03-21T15:56:31.003Z</time></trkpt><trkpt lat="40.97939558471232" lon="9.495195017702152"><ele>42.0</ele><time>2026-03-21T15:56:32.003Z</time></trkpt><trkpt lat="40.97951390611524" lon="9.495311505350035"><ele>40.666666666666664</ele><time>2026-03-21T15:56:33.003Z</time></trkpt><trkpt lat="40.9796374561383" lon="9.495467202745317"><ele>39.33333333333333</ele><time>2026-03-21T15:56:34.003Z</time></trkpt><trkpt lat="40.97974582169365" lon="9.49560894600743"><ele>38.0</ele><time>2026-03-21T15:56:35.003Z</time></trkpt><trkpt lat="40.9798708759069" lon="9.495737394327"><ele>38.0</ele><time>2026-03-21T15:56:36.003Z</time></trkpt><trkpt lat="40.97997999575407" lon="9.495884080828901"><ele>38.0</ele><time>2026-03-21T15:56:37.003Z</time></trkpt><trkpt lat="40.98010388631314" lon="9.496030673735028"><ele>38.0</ele><time>2026-03-21T15:56:38.003Z</time></trkpt><trkpt lat="40.98022500151473" lon="9.496174629768772"><ele>37.0</ele><time>2026-03-21T15:56:39.003Z</time></trkpt><trkpt lat="40.9803448091664" lon="9.496317031643189"><ele>36.0</ele><time>2026-03-21T15:56:40.003Z</time></trkpt><trkpt lat="40.98048809510994" lon="9.496448355091117"><ele>35.0</ele><time>2026-03-21T15:56:41.003Z</time></trkpt><trkpt lat="40.98060481937612" lon="9.496597577377953"><ele>35.0</ele><time>2026-03-21T15:56:42.003Z</time></trkpt><trkpt lat="40.9807233830881" lon="9.496761012157103"><ele>35.0</ele><time>2026-03-21T15:56:43.003Z</time></trkpt><trkpt lat="40.98083516290927" lon="9.496926354178303"><ele>35.0</ele><time>2026-03-21T15:56:44.003Z</time></trkpt><trkpt lat="40.98092889481662" lon="9.497108576596592"><ele>34.666666666666664</ele><time>2026-03-21T15:56:45.003Z</time></trkpt><trkpt lat="40.98103950006183" lon="9.497272026778903"><ele>34.333333333333336</ele><time>2026-03-21T15:56:46.003Z</time></trkpt><trkpt lat="40.98115251522426" lon="9.497438949979927"><ele>34.0</ele><time>2026-03-21T15:56:47.003Z</time></trkpt><trkpt lat="40.98125633136362" lon="9.49759228623794"><ele>34.0</ele><time>2026-03-21T15:56:48.003Z</time></trkpt><trkpt lat="40.98136842048905" lon="9.497757841686909"><ele>34.0</ele><time>2026-03-21T15:56:49.003Z</time></trkpt><trkpt lat="40.98146449939728" lon="9.497899750069063"><ele>34.0</ele><time>2026-03-21T15:56:50.003Z</time></trkpt><trkpt lat="40.98156910327574" lon="9.498054249819202"><ele>33.333333333333336</ele><time>2026-03-21T15:56:50.997Z</time></trkpt><trkpt lat="40.98167593426054" lon="9.498211659019002"><ele>32.666666666666664</ele><time>2026-03-21T15:56:51.998Z</time></trkpt><trkpt lat="40.98178573987676" lon="9.498366426757247"><ele>32.0</ele><time>2026-03-21T15:56:52.998Z</time></trkpt><trkpt lat="40.98191233972817" lon="9.498528985782583"><ele>32.0</ele><time>2026-03-21T15:56:53.998Z</time></trkpt><trkpt lat="40.98206946691545" lon="9.498621861285415"><ele>32.0</ele><time>2026-03-21T15:56:54.998Z</time></trkpt><trkpt lat="40.98220580185463" lon="9.498751981060762"><ele>32.0</ele><time>2026-03-21T15:56:55.998Z</time></trkpt><trkpt lat="40.9823410827612" lon="9.498883201399758"><ele>31.333333333333332</ele><time>2026-03-21T15:56:56.998Z</time></trkpt><trkpt lat="40.98247208810306" lon="9.499022962351768"><ele>30.666666666666664</ele><time>2026-03-21T15:56:57.998Z</time></trkpt><trkpt lat="40.98258133877049" lon="9.499191290867524"><ele>30.0</ele><time>2026-03-21T15:56:58.998Z</time></trkpt><trkpt lat="40.982708474041424" lon="9.499292463776875"><ele>29.5</ele><time>2026-03-21T15:56:59.998Z</time></trkpt><trkpt lat="40.98286032411295" lon="9.499385972196295"><ele>29.0</ele><time>2026-03-21T15:57:00.998Z</time></trkpt><trkpt lat="40.982948257414364" lon="9.499408011133866"><ele>28.5</ele><time>2026-03-21T15:57:01.999Z</time></trkpt><trkpt lat="40.98309290457196" lon="9.499476555102087"><ele>28.0</ele><time>2026-03-21T15:57:02.999Z</time></trkpt><trkpt lat="40.98323833456036" lon="9.49952804572172"><ele>27.0</ele><time>2026-03-21T15:57:03.999Z</time></trkpt><trkpt lat="40.983505053386885" lon="9.499621272272199"><ele>26.0</ele><time>2026-03-21T15:57:04.999Z</time></trkpt><trkpt lat="40.98372169909926" lon="9.499702444639604"><ele>26.0</ele><time>2026-03-21T15:57:05.999Z</time></trkpt><trkpt lat="40.98391610941558" lon="9.499770552866076"><ele>26.0</ele><time>2026-03-21T15:57:06.999Z</time></trkpt><trkpt lat="40.98410055293365" lon="9.499826946277516"><ele>26.0</ele><time>2026-03-21T15:57:07.999Z</time></trkpt><trkpt lat="40.98429399132479" lon="9.499889061902705"><ele>25.333333333333332</ele><time>2026-03-21T15:57:08.999Z</time></trkpt><trkpt lat="40.984482717771854" lon="9.499955433969719"><ele>24.666666666666664</ele><time>2026-03-21T15:57:09.999Z</time></trkpt><trkpt lat="40.984643593492905" lon="9.50002614636711"><ele>24.0</ele><time>2026-03-21T15:57:10.999Z</time></trkpt><trkpt lat="40.98482269938408" lon="9.500091769624303"><ele>23.0</ele><time>2026-03-21T15:57:11.999Z</time></trkpt><trkpt lat="40.98501459831564" lon="9.500147122826608"><ele>22.0</ele><time>2026-03-21T15:57:12.999Z</time></trkpt><trkpt lat="40.98520578517746" lon="9.500200510176908"><ele>21.0</ele><time>2026-03-21T15:57:14Z</time></trkpt><trkpt lat="40.98539597271857" lon="9.50023451592128"><ele>21.0</ele><time>2026-03-21T15:57:15Z</time></trkpt><trkpt lat="40.98559070345413" lon="9.500267949622074"><ele>21.0</ele><time>2026-03-21T15:57:16Z</time></trkpt><trkpt lat="40.985787834971454" lon="9.500298545630148"><ele>21.0</ele><time>2026-03-21T15:57:17Z</time></trkpt><trkpt lat="40.98597589796591" lon="9.50032652385792"><ele>20.333333333333332</ele><time>2026-03-21T15:57:18Z</time></trkpt><trkpt lat="40.986180809135234" lon="9.500325837243055"><ele>19.666666666666664</ele><time>2026-03-21T15:57:19Z</time></trkpt><trkpt lat="40.98638970269998" lon="9.500300461558336"><ele>19.0</ele><time>2026-03-21T15:57:20Z</time></trkpt><trkpt lat="40.9865922513029" lon="9.500313320212662"><ele>18.666666666666664</ele><time>2026-03-21T15:57:21Z</time></trkpt><trkpt lat="40.98681961664115" lon="9.5003160031624"><ele>18.333333333333332</ele><time>2026-03-21T15:57:22Z</time></trkpt><trkpt lat="40.987023058455435" lon="9.500320873503972"><ele>18.0</ele><time>2026-03-21T15:57:23Z</time></trkpt><trkpt lat="40.98720577593359" lon="9.500328118212904"><ele>18.0</ele><time>2026-03-21T15:57:24Z</time></trkpt><trkpt lat="40.98740946809349" lon="9.500339857743489"><ele>18.0</ele><time>2026-03-21T15:57:25Z</time></trkpt><trkpt lat="40.98761020740424" lon="9.500343950401867"><ele>18.0</ele><time>2026-03-21T15:57:26Z</time></trkpt><trkpt lat="40.98781149681619" lon="9.500350449449913"><ele>17.0</ele><time>2026-03-21T15:57:27Z</time></trkpt><trkpt lat="40.988011564498024" lon="9.500337890045166"><ele>16.0</ele><time>2026-03-21T15:57:28Z</time></trkpt><trkpt lat="40.98819737755636" lon="9.50032475997681"><ele>15.0</ele><time>2026-03-21T15:57:29Z</time></trkpt><trkpt lat="40.98839460607166" lon="9.500316122081067"><ele>15.0</ele><time>2026-03-21T15:57:30Z</time></trkpt><trkpt lat="40.988589577780516" lon="9.500309496437051"><ele>15.0</ele><time>2026-03-21T15:57:31Z</time></trkpt><trkpt lat="40.98877932532416" lon="9.500290031527356"><ele>15.0</ele><time>2026-03-21T15:57:32.001Z</time></trkpt><trkpt lat="40.988980407543295" lon="9.500266706565059"><ele>15.0</ele><time>2026-03-21T15:57:33.001Z</time></trkpt><trkpt lat="40.98916104122674" lon="9.50023909772104"><ele>15.0</ele><time>2026-03-21T15:57:34.001Z</time></trkpt><trkpt lat="40.98934640839086" lon="9.50021524354919"><ele>15.0</ele><time>2026-03-21T15:57:35.001Z</time></trkpt><trkpt lat="40.98953239195915" lon="9.500202031844998"><ele>15.666666666666668</ele><time>2026-03-21T15:57:36.001Z</time></trkpt><trkpt lat="40.98971477131645" lon="9.500184918421711"><ele>16.333333333333336</ele><time>2026-03-21T15:57:37.001Z</time></trkpt><trkpt lat="40.989891204942076" lon="9.500170366798928"><ele>17.0</ele><time>2026-03-21T15:57:38.001Z</time></trkpt><trkpt lat="40.99004483654675" lon="9.500158487569713"><ele>17.0</ele><time>2026-03-21T15:57:39.001Z</time></trkpt><trkpt lat="40.99021182029529" lon="9.500142143310867"><ele>17.0</ele><time>2026-03-21T15:57:40.001Z</time></trkpt><trkpt lat="40.99037410716928" lon="9.500178165280868"><ele>17.0</ele><time>2026-03-21T15:57:41.001Z</time></trkpt><trkpt lat="40.99052046385119" lon="9.500206541773988"><ele>17.0</ele><time>2026-03-21T15:57:42.001Z</time></trkpt><trkpt lat="40.990675195643064" lon="9.500283109102233"><ele>17.0</ele><time>2026-03-21T15:57:43.001Z</time></trkpt><trkpt lat="40.99084194119116" lon="9.500339207601975"><ele>17.0</ele><time>2026-03-21T15:57:44.001Z</time></trkpt><trkpt lat="40.99097576891948" lon="9.500413922654273"><ele>16.0</ele><time>2026-03-21T15:57:45.001Z</time></trkpt><trkpt lat="40.991052676896125" lon="9.500618474471649"><ele>15.0</ele><time>2026-03-21T15:57:46.001Z</time></trkpt><trkpt lat="40.99112515141468" lon="9.500781553507906"><ele>14.0</ele><time>2026-03-21T15:57:47.001Z</time></trkpt><trkpt lat="40.99115976778165" lon="9.50089321697109"><ele>13.0</ele><time>2026-03-21T15:57:48.001Z</time></trkpt><trkpt lat="40.99112026813445" lon="9.501081634971428"><ele>13.0</ele><time>2026-03-21T15:57:49.001Z</time></trkpt><trkpt lat="40.99111011169423" lon="9.501267028118505"><ele>13.0</ele><time>2026-03-21T15:57:50.001Z</time></trkpt><trkpt lat="40.99109405507253" lon="9.501463257945156"><ele>13.0</ele><time>2026-03-21T15:57:51.001Z</time></trkpt><trkpt lat="40.99109051272695" lon="9.501688491336736"><ele>13.0</ele><time>2026-03-21T15:57:52.001Z</time></trkpt><trkpt lat="40.991118110691104" lon="9.50197566857487"><ele>13.0</ele><time>2026-03-21T15:57:53.001Z</time></trkpt><trkpt lat="40.9911187623004" lon="9.50222751178967"><ele>13.0</ele><time>2026-03-21T15:57:54.001Z</time></trkpt><trkpt lat="40.991138040913874" lon="9.502492929364275"><ele>13.666666666666666</ele><time>2026-03-21T15:57:55.001Z</time></trkpt><trkpt lat="40.99113039001365" lon="9.502733033048267"><ele>14.333333333333332</ele><time>2026-03-21T15:57:56.001Z</time></trkpt><trkpt lat="40.99112563532758" lon="9.50301806226398"><ele>15.0</ele><time>2026-03-21T15:57:57.001Z</time></trkpt><trkpt lat="40.9911218706959" lon="9.503253481083808"><ele>15.666666666666668</ele><time>2026-03-21T15:57:58.001Z</time></trkpt><trkpt lat="40.99111808371144" lon="9.503511911749655"><ele>16.333333333333336</ele><time>2026-03-21T15:57:59.002Z</time></trkpt><trkpt lat="40.991114619841305" lon="9.503748292577802"><ele>17.0</ele><time>2026-03-21T15:58:00.002Z</time></trkpt><trkpt lat="40.991111851670695" lon="9.503937197631398"><ele>18.333333333333336</ele><time>2026-03-21T15:58:01.002Z</time></trkpt><trkpt lat="40.991108394656585" lon="9.504173110623775"><ele>19.666666666666668</ele><time>2026-03-21T15:58:02.002Z</time></trkpt><trkpt lat="40.99110500522393" lon="9.504404411658124"><ele>21.0</ele><time>2026-03-21T15:58:03.002Z</time></trkpt><trkpt lat="40.99113304562911" lon="9.504631555795214"><ele>22.333333333333336</ele><time>2026-03-21T15:58:04.002Z</time></trkpt><trkpt lat="40.99113343125623" lon="9.504882172506802"><ele>23.666666666666668</ele><time>2026-03-21T15:58:05.002Z</time></trkpt><trkpt lat="40.99112682138208" lon="9.505126992275239"><ele>25.0</ele><time>2026-03-21T15:58:06.002Z</time></trkpt><trkpt lat="40.99113165283615" lon="9.505380919271094"><ele>25.666666666666668</ele><time>2026-03-21T15:58:07.002Z</time></trkpt><trkpt lat="40.99108315307339" lon="9.505634279902896"><ele>26.333333333333336</ele><time>2026-03-21T15:58:08.002Z</time></trkpt><trkpt lat="40.99107966995894" lon="9.50589356163753"><ele>27.0</ele><time>2026-03-21T15:58:09.002Z</time></trkpt><trkpt lat="40.9910775414765" lon="9.506149389553"><ele>27.333333333333336</ele><time>2026-03-21T15:58:10.002Z</time></trkpt><trkpt lat="40.99108169872247" lon="9.506420007044001"><ele>27.666666666666668</ele><time>2026-03-21T15:58:11.002Z</time></trkpt><trkpt lat="40.991112098607765" lon="9.506650416993477"><ele>28.0</ele><time>2026-03-21T15:58:12.002Z</time></trkpt><trkpt lat="40.99115009779082" lon="9.506913320274904"><ele>29.0</ele><time>2026-03-21T15:58:13.002Z</time></trkpt><trkpt lat="40.991203540258475" lon="9.50717083983895"><ele>30.0</ele><time>2026-03-21T15:58:14.002Z</time></trkpt><trkpt lat="40.99125390709293" lon="9.507419888191697"><ele>31.0</ele><time>2026-03-21T15:58:15.002Z</time></trkpt><trkpt lat="40.991340107655546" lon="9.507669081552113"><ele>31.0</ele><time>2026-03-21T15:58:16.002Z</time></trkpt><trkpt lat="40.99142678216881" lon="9.507888996329116"><ele>31.0</ele><time>2026-03-21T15:58:17.002Z</time></trkpt><trkpt lat="40.99153738792893" lon="9.50812220154075"><ele>31.0</ele><time>2026-03-21T15:58:18.002Z</time></trkpt><trkpt lat="40.991658830535904" lon="9.50832734913578"><ele>31.666666666666668</ele><time>2026-03-21T15:58:19.002Z</time></trkpt><trkpt lat="40.991793250850584" lon="9.508517917844033"><ele>32.333333333333336</ele><time>2026-03-21T15:58:20.002Z</time></trkpt><trkpt lat="40.99192951869194" lon="9.50868570537725"><ele>33.0</ele><time>2026-03-21T15:58:21.002Z</time></trkpt><trkpt lat="40.99205763450075" lon="9.508863859559241"><ele>35.333333333333336</ele><time>2026-03-21T15:58:22.002Z</time></trkpt><trkpt lat="40.992193383332456" lon="9.509036241591431"><ele>37.66666666666667</ele><time>2026-03-21T15:58:23.002Z</time></trkpt><trkpt lat="40.99231799165843" lon="9.509227723415659"><ele>40.0</ele><time>2026-03-21T15:58:24.002Z</time></trkpt><trkpt lat="40.99244435006914" lon="9.50940130191598"><ele>40.333333333333336</ele><time>2026-03-21T15:58:25.002Z</time></trkpt><trkpt lat="40.99256985169986" lon="9.509573706516552"><ele>40.666666666666664</ele><time>2026-03-21T15:58:26.002Z</time></trkpt><trkpt lat="40.99269754863347" lon="9.509749126870295"><ele>41.0</ele><time>2026-03-21T15:58:27.002Z</time></trkpt><trkpt lat="40.992832199087694" lon="9.509908875429687"><ele>43.666666666666664</ele><time>2026-03-21T15:58:28.002Z</time></trkpt><trkpt lat="40.99294990550499" lon="9.510074552411353"><ele>46.33333333333333</ele><time>2026-03-21T15:58:29.002Z</time></trkpt><trkpt lat="40.99306996536142" lon="9.510248832509507"><ele>49.0</ele><time>2026-03-21T15:58:30.002Z</time></trkpt><trkpt lat="40.9931871940833" lon="9.510435151618124"><ele>49.666666666666664</ele><time>2026-03-21T15:58:31.002Z</time></trkpt><trkpt lat="40.99330175046332" lon="9.510610987255252"><ele>50.33333333333333</ele><time>2026-03-21T15:58:32.003Z</time></trkpt><trkpt lat="40.99340658654014" lon="9.510781269633641"><ele>51.0</ele><time>2026-03-21T15:58:33.003Z</time></trkpt><trkpt lat="40.993511359874574" lon="9.510972175740083"><ele>51.33333333333333</ele><time>2026-03-21T15:58:34.003Z</time></trkpt><trkpt lat="40.99361272550523" lon="9.511170102808343"><ele>51.666666666666664</ele><time>2026-03-21T15:58:35.003Z</time></trkpt><trkpt lat="40.99368544525267" lon="9.511387487033467"><ele>52.0</ele><time>2026-03-21T15:58:36.003Z</time></trkpt><trkpt lat="40.99375946764156" lon="9.511593975725788"><ele>53.33333333333333</ele><time>2026-03-21T15:58:37.003Z</time></trkpt><trkpt lat="40.99383317115294" lon="9.511809321113569"><ele>54.66666666666667</ele><time>2026-03-21T15:58:38.003Z</time></trkpt><trkpt lat="40.99390456610885" lon="9.512026595649209"><ele>56.0</ele><time>2026-03-21T15:58:39.003Z</time></trkpt><trkpt lat="40.99396762429818" lon="9.512218498968663"><ele>57.0</ele><time>2026-03-21T15:58:40.003Z</time></trkpt><trkpt lat="40.99404455963476" lon="9.512448967707106"><ele>58.0</ele><time>2026-03-21T15:58:41.003Z</time></trkpt><trkpt lat="40.99412548437425" lon="9.512647188586698"><ele>59.0</ele><time>2026-03-21T15:58:42.003Z</time></trkpt><trkpt lat="40.99419196105651" lon="9.51286288971739"><ele>63.333333333333336</ele><time>2026-03-21T15:58:43.003Z</time></trkpt><trkpt lat="40.994273244633476" lon="9.513088456933318"><ele>67.66666666666667</ele><time>2026-03-21T15:58:44.003Z</time></trkpt><trkpt lat="40.99433708986087" lon="9.513317226278367"><ele>72.0</ele><time>2026-03-21T15:58:45.003Z</time></trkpt><trkpt lat="40.994420530217" lon="9.513539157961507"><ele>71.33333333333333</ele><time>2026-03-21T15:58:46.003Z</time></trkpt><trkpt lat="40.994484737650616" lon="9.513759477376455"><ele>70.66666666666666</ele><time>2026-03-21T15:58:47.003Z</time></trkpt><trkpt lat="40.994557860901914" lon="9.513987904224656"><ele>70.0</ele><time>2026-03-21T15:58:48.003Z</time></trkpt><trkpt lat="40.994625652152074" lon="9.514178524573923"><ele>70.0</ele><time>2026-03-21T15:58:49.003Z</time></trkpt><trkpt lat="40.99470346902175" lon="9.514393382973497"><ele>70.0</ele><time>2026-03-21T15:58:50.003Z</time></trkpt><trkpt lat="40.99477658661568" lon="9.51461459689668"><ele>70.0</ele><time>2026-03-21T15:58:51.003Z</time></trkpt><trkpt lat="40.99485031136502" lon="9.51484347854841"><ele>70.66666666666666</ele><time>2026-03-21T15:58:52.003Z</time></trkpt><trkpt lat="40.99493149114643" lon="9.51506412224492"><ele>71.33333333333333</ele><time>2026-03-21T15:58:53.003Z</time></trkpt><trkpt lat="40.99500236712733" lon="9.515304922266626"><ele>72.0</ele><time>2026-03-21T15:58:54.003Z</time></trkpt><trkpt lat="40.995071223485375" lon="9.515520531663125"><ele>72.0</ele><time>2026-03-21T15:58:55.003Z</time></trkpt><trkpt lat="40.9951479036025" lon="9.515737899380932"><ele>72.0</ele><time>2026-03-21T15:58:56.003Z</time></trkpt><trkpt lat="40.995210632864804" lon="9.515955985948402"><ele>72.0</ele><time>2026-03-21T15:58:56.998Z</time></trkpt><trkpt lat="40.99526694066563" lon="9.51617102678436"><ele>73.0</ele><time>2026-03-21T15:58:57.998Z</time></trkpt><trkpt lat="40.99531706213635" lon="9.516383411661208"><ele>74.0</ele><time>2026-03-21T15:58:58.998Z</time></trkpt><trkpt lat="40.99536977934795" lon="9.516601172702558"><ele>75.0</ele><time>2026-03-21T15:58:59.998Z</time></trkpt><trkpt lat="40.99546294588482" lon="9.516838455592922"><ele>75.0</ele><time>2026-03-21T15:59:00.998Z</time></trkpt><trkpt lat="40.99553256482666" lon="9.517055462292621"><ele>75.0</ele><time>2026-03-21T15:59:01.999Z</time></trkpt><trkpt lat="40.9955999181268" lon="9.517245567249427"><ele>75.0</ele><time>2026-03-21T15:59:02.999Z</time></trkpt><trkpt lat="40.995656048989346" lon="9.517423949973976"><ele>76.0</ele><time>2026-03-21T15:59:03.999Z</time></trkpt><trkpt lat="40.99572414473374" lon="9.517649354886437"><ele>77.0</ele><time>2026-03-21T15:59:04.999Z</time></trkpt><trkpt lat="40.99577833214583" lon="9.517878191360252"><ele>78.0</ele><time>2026-03-21T15:59:05.999Z</time></trkpt><trkpt lat="40.99583123407692" lon="9.518096868193094"><ele>79.0</ele><time>2026-03-21T15:59:06.999Z</time></trkpt><trkpt lat="40.995907354233175" lon="9.51834461723077"><ele>80.0</ele><time>2026-03-21T15:59:07.999Z</time></trkpt><trkpt lat="40.99596502183257" lon="9.518567781205896"><ele>81.0</ele><time>2026-03-21T15:59:08.999Z</time></trkpt><trkpt lat="40.996032412737804" lon="9.518800116565647"><ele>81.0</ele><time>2026-03-21T15:59:09.999Z</time></trkpt><trkpt lat="40.99608150782082" lon="9.519021316653815"><ele>81.0</ele><time>2026-03-21T15:59:10.999Z</time></trkpt><trkpt lat="40.996132182291" lon="9.51924325771848"><ele>81.0</ele><time>2026-03-21T15:59:11.999Z</time></trkpt><trkpt lat="40.99620371650759" lon="9.519456319484071"><ele>79.0</ele><time>2026-03-21T15:59:12.999Z</time></trkpt><trkpt lat="40.996258097883505" lon="9.519691947452758"><ele>77.0</ele><time>2026-03-21T15:59:13.999Z</time></trkpt><trkpt lat="40.99630630042662" lon="9.519898548735329"><ele>75.0</ele><time>2026-03-21T15:59:14.999Z</time></trkpt><trkpt lat="40.996356307608" lon="9.520112851096727"><ele>75.0</ele><time>2026-03-21T15:59:16Z</time></trkpt><trkpt lat="40.99640542069215" lon="9.520323321899017"><ele>75.0</ele><time>2026-03-21T15:59:17Z</time></trkpt><trkpt lat="40.996452777130806" lon="9.520526264698187"><ele>75.0</ele><time>2026-03-21T15:59:18Z</time></trkpt><trkpt lat="40.996501391053016" lon="9.52073597366546"><ele>75.66666666666667</ele><time>2026-03-21T15:59:19Z</time></trkpt><trkpt lat="40.99654886137303" lon="9.520940185664543"><ele>76.33333333333334</ele><time>2026-03-21T15:59:20Z</time></trkpt><trkpt lat="40.9965969867009" lon="9.521147215331892"><ele>77.0</ele><time>2026-03-21T15:59:21Z</time></trkpt><trkpt lat="40.99664379049902" lon="9.521348559995428"><ele>75.5</ele><time>2026-03-21T15:59:22Z</time></trkpt><trkpt lat="40.99673418168527" lon="9.521749602629813"><ele>74.0</ele><time>2026-03-21T15:59:24Z</time></trkpt><trkpt lat="40.996782689866386" lon="9.521952891359106"><ele>74.33333333333334</ele><time>2026-03-21T15:59:25Z</time></trkpt><trkpt lat="40.99683499273207" lon="9.522156082076553"><ele>74.66666666666667</ele><time>2026-03-21T15:59:26Z</time></trkpt><trkpt lat="40.9968962608967" lon="9.522342211724876"><ele>75.0</ele><time>2026-03-21T15:59:27Z</time></trkpt><trkpt lat="40.99692486690752" lon="9.522555958459595"><ele>75.0</ele><time>2026-03-21T15:59:28Z</time></trkpt><trkpt lat="40.99698363365834" lon="9.522772724515121"><ele>75.0</ele><time>2026-03-21T15:59:29Z</time></trkpt><trkpt lat="40.9970627813581" lon="9.522950742188074"><ele>75.0</ele><time>2026-03-21T15:59:30Z</time></trkpt><trkpt lat="40.99713504983983" lon="9.523129767267395"><ele>74.0</ele><time>2026-03-21T15:59:31Z</time></trkpt><trkpt lat="40.99721727260585" lon="9.523336719809247"><ele>73.0</ele><time>2026-03-21T15:59:32Z</time></trkpt><trkpt lat="40.99729515061726" lon="9.523532736884846"><ele>72.0</ele><time>2026-03-21T15:59:33Z</time></trkpt><trkpt lat="40.99736624935088" lon="9.523720754654617"><ele>71.33333333333333</ele><time>2026-03-21T15:59:34Z</time></trkpt><trkpt lat="40.99745234081523" lon="9.523877817922065"><ele>70.66666666666666</ele><time>2026-03-21T15:59:35.001Z</time></trkpt><trkpt lat="40.99753278204602" lon="9.524074434241115"><ele>70.0</ele><time>2026-03-21T15:59:36.001Z</time></trkpt><trkpt lat="40.99762231967661" lon="9.524237329137387"><ele>70.0</ele><time>2026-03-21T15:59:37.001Z</time></trkpt><trkpt lat="40.99771039742007" lon="9.524424026572621"><ele>70.0</ele><time>2026-03-21T15:59:38.001Z</time></trkpt><trkpt lat="40.99778274927772" lon="9.524639742746487"><ele>70.0</ele><time>2026-03-21T15:59:39.001Z</time></trkpt><trkpt lat="40.997861735428536" lon="9.524837737173792"><ele>67.66666666666666</ele><time>2026-03-21T15:59:40.001Z</time></trkpt><trkpt lat="40.99794613862116" lon="9.525049310488807"><ele>65.33333333333333</ele><time>2026-03-21T15:59:41.001Z</time></trkpt><trkpt lat="40.99802797656618" lon="9.525253410738438"><ele>63.0</ele><time>2026-03-21T15:59:42.001Z</time></trkpt><trkpt lat="40.998110055357444" lon="9.525461025275666"><ele>62.66666666666667</ele><time>2026-03-21T15:59:43.001Z</time></trkpt><trkpt lat="40.99820684152085" lon="9.525662275885017"><ele>62.333333333333336</ele><time>2026-03-21T15:59:44.001Z</time></trkpt><trkpt lat="40.99827967886906" lon="9.525891174971008"><ele>62.0</ele><time>2026-03-21T15:59:45.001Z</time></trkpt><trkpt lat="40.99836251534242" lon="9.526085713981187"><ele>61.0</ele><time>2026-03-21T15:59:46.001Z</time></trkpt><trkpt lat="40.99841767053642" lon="9.526315872544368"><ele>60.0</ele><time>2026-03-21T15:59:47.001Z</time></trkpt><trkpt lat="40.99847070351777" lon="9.526534559528761"><ele>59.0</ele><time>2026-03-21T15:59:48.001Z</time></trkpt><trkpt lat="40.99851466615099" lon="9.52675117220588"><ele>59.0</ele><time>2026-03-21T15:59:49.001Z</time></trkpt><trkpt lat="40.99856192710073" lon="9.52701387109893"><ele>59.0</ele><time>2026-03-21T15:59:50.001Z</time></trkpt><trkpt lat="40.99859896331306" lon="9.527228521815976"><ele>59.0</ele><time>2026-03-21T15:59:51.001Z</time></trkpt><trkpt lat="40.998640182992624" lon="9.527467418690886"><ele>56.333333333333336</ele><time>2026-03-21T15:59:52.001Z</time></trkpt><trkpt lat="40.998681492345185" lon="9.527706835013827"><ele>53.66666666666667</ele><time>2026-03-21T15:59:53.001Z</time></trkpt><trkpt lat="40.99872446547792" lon="9.527957945129693"><ele>51.0</ele><time>2026-03-21T15:59:54.001Z</time></trkpt><trkpt lat="40.99876723951004" lon="9.528209146003823"><ele>50.33333333333333</ele><time>2026-03-21T15:59:55.001Z</time></trkpt><trkpt lat="40.998810472697805" lon="9.528463042792247"><ele>49.666666666666664</ele><time>2026-03-21T15:59:56.001Z</time></trkpt><trkpt lat="40.99885243283814" lon="9.528706875131435"><ele>49.0</ele><time>2026-03-21T15:59:57.001Z</time></trkpt><trkpt lat="40.998892197022045" lon="9.528938310665238"><ele>49.0</ele><time>2026-03-21T15:59:58.001Z</time></trkpt><trkpt lat="40.998933147312684" lon="9.529174160313719"><ele>49.0</ele><time>2026-03-21T15:59:59.001Z</time></trkpt><trkpt lat="40.99897284502348" lon="9.529402731670595"><ele>49.0</ele><time>2026-03-21T16:00:00.001Z</time></trkpt><trkpt lat="40.99901078081102" lon="9.529621156207192"><ele>48.666666666666664</ele><time>2026-03-21T16:00:01.001Z</time></trkpt><trkpt lat="40.99904738174" lon="9.529840974264387"><ele>48.33333333333333</ele><time>2026-03-21T16:00:02.001Z</time></trkpt><trkpt lat="40.99908547967423" lon="9.530062612783494"><ele>48.0</ele><time>2026-03-21T16:00:03.002Z</time></trkpt><trkpt lat="40.99912264301886" lon="9.530280845960382"><ele>48.0</ele><time>2026-03-21T16:00:04.002Z</time></trkpt><trkpt lat="40.99914825400275" lon="9.530490641134827"><ele>48.0</ele><time>2026-03-21T16:00:05.002Z</time></trkpt><trkpt lat="40.99916429143373" lon="9.530712180302311"><ele>48.0</ele><time>2026-03-21T16:00:06.002Z</time></trkpt><trkpt lat="40.99916779585327" lon="9.530936181135765"><ele>48.0</ele><time>2026-03-21T16:00:07.002Z</time></trkpt><trkpt lat="40.99916191490509" lon="9.531142770095101"><ele>48.0</ele><time>2026-03-21T16:00:08.002Z</time></trkpt><trkpt lat="40.999145279135895" lon="9.53135437650374"><ele>48.0</ele><time>2026-03-21T16:00:09.002Z</time></trkpt><trkpt lat="40.99912009764503" lon="9.53152243578668"><ele>48.0</ele><time>2026-03-21T16:00:10.002Z</time></trkpt><trkpt lat="40.99908636681589" lon="9.531697466304509"><ele>48.75</ele><time>2026-03-21T16:00:11.002Z</time></trkpt><trkpt lat="40.999061663526376" lon="9.53187297938411"><ele>49.5</ele><time>2026-03-21T16:00:12.002Z</time></trkpt><trkpt lat="40.99901389580436" lon="9.532030027846867"><ele>50.25</ele><time>2026-03-21T16:00:13.002Z</time></trkpt><trkpt lat="40.998960361514065" lon="9.532159395368664"><ele>51.0</ele><time>2026-03-21T16:00:14.002Z</time></trkpt><trkpt lat="40.99889695204795" lon="9.53226565845421"><ele>51.166666666666664</ele><time>2026-03-21T16:00:15.002Z</time></trkpt><trkpt lat="40.99882777110732" lon="9.5323349090325"><ele>51.33333333333333</ele><time>2026-03-21T16:00:16.002Z</time></trkpt><trkpt lat="40.99877846578542" lon="9.532415055697804"><ele>51.5</ele><time>2026-03-21T16:00:17.002Z</time></trkpt><trkpt lat="40.99875292999839" lon="9.532503251847334"><ele>51.666666666666664</ele><time>2026-03-21T16:00:18.002Z</time></trkpt><trkpt lat="40.99875923070285" lon="9.53258691366021"><ele>51.83333333333333</ele><time>2026-03-21T16:00:19.002Z</time></trkpt><trkpt lat="40.99879714425938" lon="9.532696291381788"><ele>52.0</ele><time>2026-03-21T16:00:20.021Z</time></trkpt><trkpt lat="40.99885617885386" lon="9.532775974496108"><ele>52.0</ele><time>2026-03-21T16:00:21.021Z</time></trkpt><trkpt lat="40.99892095881551" lon="9.532844529946418"><ele>52.0</ele><time>2026-03-21T16:00:22.019Z</time></trkpt><trkpt lat="40.999045455524715" lon="9.532742253034954"><ele>52.0</ele><time>2026-03-21T16:00:23.022Z</time></trkpt><trkpt lat="40.999107145221224" lon="9.532651206150941"><ele>52.0</ele><time>2026-03-21T16:00:24.014Z</time></trkpt><trkpt lat="40.999176899875344" lon="9.532624716512212"><ele>52.0</ele><time>2026-03-21T16:00:25.002Z</time></trkpt><trkpt lat="40.99924802755599" lon="9.532605999695331"><ele>51.6</ele><time>2026-03-21T16:00:26.002Z</time></trkpt><trkpt lat="40.99933122706989" lon="9.532647289574738"><ele>51.2</ele><time>2026-03-21T16:00:27.002Z</time></trkpt><trkpt lat="40.99941324189929" lon="9.532652961484024"><ele>50.8</ele><time>2026-03-21T16:00:28.002Z</time></trkpt><trkpt lat="40.99949218610457" lon="9.532672220036591"><ele>50.4</ele><time>2026-03-21T16:00:29.002Z</time></trkpt><trkpt lat="40.99968052270868" lon="9.53272459716584"><ele>50.0</ele><time>2026-03-21T16:00:30.002Z</time></trkpt><trkpt lat="40.999793694560765" lon="9.532749711310103"><ele>50.0</ele><time>2026-03-21T16:00:31.002Z</time></trkpt><trkpt lat="40.99992369204125" lon="9.532779920103403"><ele>50.0</ele><time>2026-03-21T16:00:32.002Z</time></trkpt><trkpt lat="41.000056000251526" lon="9.532811960521126"><ele>50.0</ele><time>2026-03-21T16:00:33.002Z</time></trkpt><trkpt lat="41.00018862566736" lon="9.532843340354399"><ele>50.0</ele><time>2026-03-21T16:00:34.002Z</time></trkpt><trkpt lat="41.00031935637844" lon="9.53286971699179"><ele>50.0</ele><time>2026-03-21T16:00:35.003Z</time></trkpt><trkpt lat="41.00046134302953" lon="9.53289521547006"><ele>50.0</ele><time>2026-03-21T16:00:36.003Z</time></trkpt><trkpt lat="41.00060216091098" lon="9.532934633732474"><ele>50.0</ele><time>2026-03-21T16:00:37.003Z</time></trkpt><trkpt lat="41.0007470229709" lon="9.532978237924604"><ele>50.0</ele><time>2026-03-21T16:00:38.003Z</time></trkpt><trkpt lat="41.00089397243176" lon="9.533025211036955"><ele>49.0</ele><time>2026-03-21T16:00:39.003Z</time></trkpt><trkpt lat="41.00104343996186" lon="9.533081109441705"><ele>48.0</ele><time>2026-03-21T16:00:40.003Z</time></trkpt><trkpt lat="41.00118735266408" lon="9.533138580742659"><ele>47.0</ele><time>2026-03-21T16:00:41.003Z</time></trkpt><trkpt lat="41.00132957853443" lon="9.533204562257474"><ele>47.0</ele><time>2026-03-21T16:00:42.003Z</time></trkpt><trkpt lat="41.00147136742825" lon="9.533269295337606"><ele>47.0</ele><time>2026-03-21T16:00:43.003Z</time></trkpt><trkpt lat="41.0016167659167" lon="9.53333022966718"><ele>47.0</ele><time>2026-03-21T16:00:44.003Z</time></trkpt><trkpt lat="41.001762416056366" lon="9.53339793103647"><ele>47.666666666666664</ele><time>2026-03-21T16:00:45.003Z</time></trkpt><trkpt lat="41.00190088084648" lon="9.533460404973747"><ele>48.33333333333333</ele><time>2026-03-21T16:00:46.003Z</time></trkpt><trkpt lat="41.002052339835025" lon="9.53351952584307"><ele>49.0</ele><time>2026-03-21T16:00:47.003Z</time></trkpt><trkpt lat="41.002197750309975" lon="9.53354173395078"><ele>49.0</ele><time>2026-03-21T16:00:48.003Z</time></trkpt><trkpt lat="41.00234452663998" lon="9.533546534892979"><ele>49.0</ele><time>2026-03-21T16:00:49.003Z</time></trkpt><trkpt lat="41.00249310370779" lon="9.533520769828687"><ele>49.0</ele><time>2026-03-21T16:00:50.003Z</time></trkpt><trkpt lat="41.00264435647655" lon="9.533494527265544"><ele>49.0</ele><time>2026-03-21T16:00:51.003Z</time></trkpt><trkpt lat="41.00278779338887" lon="9.53346166489253"><ele>48.666666666666664</ele><time>2026-03-21T16:00:52.003Z</time></trkpt><trkpt lat="41.002944420251616" lon="9.53344262545925"><ele>48.33333333333333</ele><time>2026-03-21T16:00:53.003Z</time></trkpt><trkpt lat="41.003103058427385" lon="9.533413944715718"><ele>48.0</ele><time>2026-03-21T16:00:54.003Z</time></trkpt><trkpt lat="41.003262107130936" lon="9.533370002293239"><ele>49.33333333333333</ele><time>2026-03-21T16:00:55.003Z</time></trkpt><trkpt lat="41.0034136644227" lon="9.533299286027743"><ele>50.666666666666664</ele><time>2026-03-21T16:00:56.003Z</time></trkpt><trkpt lat="41.003557991573786" lon="9.533198605028849"><ele>52.0</ele><time>2026-03-21T16:00:57.003Z</time></trkpt><trkpt lat="41.00369347907753" lon="9.533075372206865"><ele>52.0</ele><time>2026-03-21T16:00:58.003Z</time></trkpt><trkpt lat="41.003823876940764" lon="9.532942578865438"><ele>52.0</ele><time>2026-03-21T16:00:59.003Z</time></trkpt><trkpt lat="41.00395259954084" lon="9.532820385493565"><ele>52.0</ele><time>2026-03-21T16:01:00.003Z</time></trkpt><trkpt lat="41.00408941634513" lon="9.532716616422922"><ele>51.0</ele><time>2026-03-21T16:01:01.003Z</time></trkpt><trkpt lat="41.00422862716776" lon="9.532623867802858"><ele>50.0</ele><time>2026-03-21T16:01:02.003Z</time></trkpt><trkpt lat="41.004384154750554" lon="9.532539666237652"><ele>49.0</ele><time>2026-03-21T16:01:02.998Z</time></trkpt><trkpt lat="41.00453993629598" lon="9.532458320294044"><ele>49.0</ele><time>2026-03-21T16:01:03.998Z</time></trkpt><trkpt lat="41.00469760754076" lon="9.532374173432034"><ele>49.0</ele><time>2026-03-21T16:01:04.998Z</time></trkpt><trkpt lat="41.00485927240543" lon="9.532290862323476"><ele>49.0</ele><time>2026-03-21T16:01:05.998Z</time></trkpt><trkpt lat="41.00502442160884" lon="9.532219272949785"><ele>50.0</ele><time>2026-03-21T16:01:06.998Z</time></trkpt><trkpt lat="41.005193534982794" lon="9.532158509556677"><ele>51.0</ele><time>2026-03-21T16:01:07.998Z</time></trkpt><trkpt lat="41.00536672696769" lon="9.532109518314549"><ele>52.0</ele><time>2026-03-21T16:01:08.998Z</time></trkpt><trkpt lat="41.005543845836186" lon="9.532064119350059"><ele>50.0</ele><time>2026-03-21T16:01:09.998Z</time></trkpt><trkpt lat="41.005718456607994" lon="9.53202039688648"><ele>48.0</ele><time>2026-03-21T16:01:10.998Z</time></trkpt><trkpt lat="41.005896423518124" lon="9.531972504725752"><ele>46.0</ele><time>2026-03-21T16:01:11.998Z</time></trkpt><trkpt lat="41.00607079381161" lon="9.531925392567373"><ele>45.333333333333336</ele><time>2026-03-21T16:01:12.998Z</time></trkpt><trkpt lat="41.00624132642344" lon="9.531874251040447"><ele>44.666666666666664</ele><time>2026-03-21T16:01:13.999Z</time></trkpt><trkpt lat="41.00641006509486" lon="9.531803780967133"><ele>44.0</ele><time>2026-03-21T16:01:14.999Z</time></trkpt><trkpt lat="41.00657217881993" lon="9.531716945962074"><ele>43.666666666666664</ele><time>2026-03-21T16:01:15.999Z</time></trkpt><trkpt lat="41.00673604011586" lon="9.53162138444776"><ele>43.333333333333336</ele><time>2026-03-21T16:01:16.999Z</time></trkpt><trkpt lat="41.006896663150386" lon="9.531516225711421"><ele>43.0</ele><time>2026-03-21T16:01:17.999Z</time></trkpt><trkpt lat="41.00705901889862" lon="9.531420764695941"><ele>43.0</ele><time>2026-03-21T16:01:18.999Z</time></trkpt><trkpt lat="41.007226271478935" lon="9.53133078201696"><ele>43.0</ele><time>2026-03-21T16:01:19.999Z</time></trkpt><trkpt lat="41.00740061312397" lon="9.531256315674648"><ele>43.0</ele><time>2026-03-21T16:01:20.999Z</time></trkpt><trkpt lat="41.00758514403677" lon="9.531200972572277"><ele>39.66666666666667</ele><time>2026-03-21T16:01:21.999Z</time></trkpt><trkpt lat="41.00777834370428" lon="9.531166517138416"><ele>36.333333333333336</ele><time>2026-03-21T16:01:22.999Z</time></trkpt><trkpt lat="41.007979935474204" lon="9.53113900208916"><ele>33.0</ele><time>2026-03-21T16:01:23.999Z</time></trkpt><trkpt lat="41.00818242200865" lon="9.531117405366505"><ele>32.333333333333336</ele><time>2026-03-21T16:01:24.999Z</time></trkpt><trkpt lat="41.008389720448015" lon="9.531122611905822"><ele>31.666666666666668</ele><time>2026-03-21T16:01:26Z</time></trkpt><trkpt lat="41.00859634911765" lon="9.531085111370363"><ele>31.0</ele><time>2026-03-21T16:01:27Z</time></trkpt><trkpt lat="41.008801064006796" lon="9.531082395608296"><ele>31.0</ele><time>2026-03-21T16:01:28Z</time></trkpt><trkpt lat="41.0090055487861" lon="9.53109227322922"><ele>31.0</ele><time>2026-03-21T16:01:29Z</time></trkpt><trkpt lat="41.00920076417578" lon="9.531106456570065"><ele>31.0</ele><time>2026-03-21T16:01:30Z</time></trkpt><trkpt lat="41.009389825843584" lon="9.531128245336152"><ele>32.66666666666667</ele><time>2026-03-21T16:01:31Z</time></trkpt><trkpt lat="41.00956891337082" lon="9.531179826703825"><ele>34.333333333333336</ele><time>2026-03-21T16:01:32Z</time></trkpt><trkpt lat="41.00973845016603" lon="9.531249648132547"><ele>36.0</ele><time>2026-03-21T16:01:33Z</time></trkpt><trkpt lat="41.00988509770196" lon="9.531372353050394"><ele>38.333333333333336</ele><time>2026-03-21T16:01:34Z</time></trkpt><trkpt lat="41.0100190219906" lon="9.531514213582195"><ele>40.66666666666667</ele><time>2026-03-21T16:01:35Z</time></trkpt><trkpt lat="41.01013317441531" lon="9.531693250507061"><ele>43.0</ele><time>2026-03-21T16:01:36Z</time></trkpt><trkpt lat="41.01026786398551" lon="9.531845037993609"><ele>43.0</ele><time>2026-03-21T16:01:37Z</time></trkpt><trkpt lat="41.0104153953683" lon="9.531985796406625"><ele>43.0</ele><time>2026-03-21T16:01:38Z</time></trkpt><trkpt lat="41.010542722192184" lon="9.532162019462127"><ele>43.0</ele><time>2026-03-21T16:01:39Z</time></trkpt><trkpt lat="41.01065044957786" lon="9.532361472587029"><ele>43.0</ele><time>2026-03-21T16:01:40Z</time></trkpt><trkpt lat="41.010764998444564" lon="9.532559164165582"><ele>43.0</ele><time>2026-03-21T16:01:41Z</time></trkpt><trkpt lat="41.01087779638757" lon="9.532755132178897"><ele>43.0</ele><time>2026-03-21T16:01:42Z</time></trkpt><trkpt lat="41.01099071785256" lon="9.532945812554564"><ele>45.0</ele><time>2026-03-21T16:01:43Z</time></trkpt><trkpt lat="41.01110178375099" lon="9.533128812447115"><ele>47.0</ele><time>2026-03-21T16:01:44.001Z</time></trkpt><trkpt lat="41.01121125257948" lon="9.533306566601885"><ele>49.0</ele><time>2026-03-21T16:01:45.001Z</time></trkpt><trkpt lat="41.0113308726595" lon="9.533468493685126"><ele>49.0</ele><time>2026-03-21T16:01:46.001Z</time></trkpt><trkpt lat="41.01144071379462" lon="9.533639953181375"><ele>49.0</ele><time>2026-03-21T16:01:47.001Z</time></trkpt><trkpt lat="41.01155299927568" lon="9.533812654693149"><ele>49.0</ele><time>2026-03-21T16:01:48.001Z</time></trkpt><trkpt lat="41.011665163609855" lon="9.533987067548583"><ele>49.0</ele><time>2026-03-21T16:01:49.001Z</time></trkpt><trkpt lat="41.01177872624723" lon="9.534160418146328"><ele>49.0</ele><time>2026-03-21T16:01:50.001Z</time></trkpt><trkpt lat="41.01189617143763" lon="9.534332473218754"><ele>49.0</ele><time>2026-03-21T16:01:51.001Z</time></trkpt><trkpt lat="41.0120196603174" lon="9.534500230901601"><ele>50.666666666666664</ele><time>2026-03-21T16:01:52.001Z</time></trkpt><trkpt lat="41.012145215042786" lon="9.53466716116272"><ele>52.33333333333333</ele><time>2026-03-21T16:01:53.001Z</time></trkpt><trkpt lat="41.012271694433494" lon="9.534836899464208"><ele>54.0</ele><time>2026-03-21T16:01:54.001Z</time></trkpt><trkpt lat="41.01240175681874" lon="9.535011212178901"><ele>53.0</ele><time>2026-03-21T16:01:55.001Z</time></trkpt><trkpt lat="41.01253475471832" lon="9.535190563308644"><ele>52.0</ele><time>2026-03-21T16:01:56.001Z</time></trkpt><trkpt lat="41.012670808804884" lon="9.535379208215879"><ele>51.0</ele><time>2026-03-21T16:01:57.001Z</time></trkpt><trkpt lat="41.01281310883211" lon="9.53557017023981"><ele>51.0</ele><time>2026-03-21T16:01:58.001Z</time></trkpt><trkpt lat="41.01296021150056" lon="9.535766076673166"><ele>51.0</ele><time>2026-03-21T16:01:59.001Z</time></trkpt><trkpt lat="41.01311122096363" lon="9.535958795739425"><ele>51.0</ele><time>2026-03-21T16:02:00.001Z</time></trkpt><trkpt lat="41.01326767249507" lon="9.53613560806762"><ele>50.33333333333333</ele><time>2026-03-21T16:02:01.001Z</time></trkpt><trkpt lat="41.01341697984108" lon="9.536322479656945"><ele>49.666666666666664</ele><time>2026-03-21T16:02:02.001Z</time></trkpt><trkpt lat="41.013590455086984" lon="9.536459920088788"><ele>49.0</ele><time>2026-03-21T16:02:03.001Z</time></trkpt><trkpt lat="41.013771385299286" lon="9.536558622970587"><ele>49.0</ele><time>2026-03-21T16:02:04.001Z</time></trkpt><trkpt lat="41.013940431815165" lon="9.536652803906776"><ele>49.0</ele><time>2026-03-21T16:02:05.001Z</time></trkpt><trkpt lat="41.0141090890435" lon="9.53673035994271"><ele>49.0</ele><time>2026-03-21T16:02:06.001Z</time></trkpt><trkpt lat="41.01427092685476" lon="9.53680634567307"><ele>49.33333333333333</ele><time>2026-03-21T16:02:07.001Z</time></trkpt><trkpt lat="41.01443056389196" lon="9.536884878809282"><ele>49.66666666666667</ele><time>2026-03-21T16:02:08.001Z</time></trkpt><trkpt lat="41.014584720010845" lon="9.536977949596494"><ele>50.0</ele><time>2026-03-21T16:02:09.001Z</time></trkpt><trkpt lat="41.01472221792429" lon="9.537111343816598"><ele>50.0</ele><time>2026-03-21T16:02:10.001Z</time></trkpt><trkpt lat="41.014856884132605" lon="9.537240162046999"><ele>50.0</ele><time>2026-03-21T16:02:11.002Z</time></trkpt><trkpt lat="41.014994053078475" lon="9.53737499221469"><ele>50.0</ele><time>2026-03-21T16:02:12.002Z</time></trkpt><trkpt lat="41.0151226529548" lon="9.537520605248956"><ele>48.66666666666667</ele><time>2026-03-21T16:02:13.002Z</time></trkpt><trkpt lat="41.01525724523138" lon="9.537661277048416"><ele>47.333333333333336</ele><time>2026-03-21T16:02:14.002Z</time></trkpt><trkpt lat="41.015375183384315" lon="9.537826565791166"><ele>46.0</ele><time>2026-03-21T16:02:15.002Z</time></trkpt><trkpt lat="41.0154875737547" lon="9.538004167457649"><ele>46.0</ele><time>2026-03-21T16:02:16.002Z</time></trkpt><trkpt lat="41.015598398209605" lon="9.538188826805706"><ele>46.0</ele><time>2026-03-21T16:02:17.002Z</time></trkpt><trkpt lat="41.01571138457219" lon="9.538378197545091"><ele>46.0</ele><time>2026-03-21T16:02:18.002Z</time></trkpt><trkpt lat="41.01581461488339" lon="9.538583336820329"><ele>43.333333333333336</ele><time>2026-03-21T16:02:19.002Z</time></trkpt><trkpt lat="41.01593983863536" lon="9.538771996452883"><ele>40.666666666666664</ele><time>2026-03-21T16:02:20.002Z</time></trkpt><trkpt lat="41.01607963787659" lon="9.538939150289384"><ele>38.0</ele><time>2026-03-21T16:02:21.002Z</time></trkpt><trkpt lat="41.01622930122492" lon="9.539080706914659"><ele>38.0</ele><time>2026-03-21T16:02:22.002Z</time></trkpt><trkpt lat="41.0163873357136" lon="9.539189323534671"><ele>38.0</ele><time>2026-03-21T16:02:23.002Z</time></trkpt><trkpt lat="41.01654547076454" lon="9.539280157779698"><ele>38.0</ele><time>2026-03-21T16:02:24.002Z</time></trkpt><trkpt lat="41.016706202544015" lon="9.539340605680405"><ele>37.33333333333333</ele><time>2026-03-21T16:02:25.002Z</time></trkpt><trkpt lat="41.016860529483935" lon="9.539414859208435"><ele>36.666666666666664</ele><time>2026-03-21T16:02:26.002Z</time></trkpt><trkpt lat="41.01701255366468" lon="9.5394817472277"><ele>36.0</ele><time>2026-03-21T16:02:27.002Z</time></trkpt><trkpt lat="41.01715661290422" lon="9.539559489384292"><ele>36.75</ele><time>2026-03-21T16:02:28.002Z</time></trkpt><trkpt lat="41.017292983496766" lon="9.539651964411707"><ele>37.5</ele><time>2026-03-21T16:02:29.002Z</time></trkpt><trkpt lat="41.01742054040471" lon="9.53975060702187"><ele>38.25</ele><time>2026-03-21T16:02:30.002Z</time></trkpt><trkpt lat="41.01752598892405" lon="9.539886270051824"><ele>39.0</ele><time>2026-03-21T16:02:31.002Z</time></trkpt><trkpt lat="41.017611199461726" lon="9.540027231204158"><ele>39.0</ele><time>2026-03-21T16:02:32.002Z</time></trkpt><trkpt lat="41.01770516781582" lon="9.540153932344284"><ele>39.0</ele><time>2026-03-21T16:02:33.002Z</time></trkpt><trkpt lat="41.01780498052935" lon="9.540255621622192"><ele>39.0</ele><time>2026-03-21T16:02:34.002Z</time></trkpt><trkpt lat="41.0179126962995" lon="9.54034028373831"><ele>39.0</ele><time>2026-03-21T16:02:35.002Z</time></trkpt><trkpt lat="41.01801984093027" lon="9.540412628349864"><ele>39.5</ele><time>2026-03-21T16:02:36.002Z</time></trkpt><trkpt lat="41.0181217037156" lon="9.540488813965258"><ele>40.0</ele><time>2026-03-21T16:02:37.002Z</time></trkpt><trkpt lat="41.01821670287691" lon="9.540572278341825"><ele>40.5</ele><time>2026-03-21T16:02:38.002Z</time></trkpt><trkpt lat="41.01830112773194" lon="9.540675122946963"><ele>41.0</ele><time>2026-03-21T16:02:39.002Z</time></trkpt><trkpt lat="41.01838486073961" lon="9.54076819153601"><ele>41.0</ele><time>2026-03-21T16:02:40.002Z</time></trkpt><trkpt lat="41.01846101243026" lon="9.540868860844247"><ele>41.0</ele><time>2026-03-21T16:02:41.002Z</time></trkpt><trkpt lat="41.01853639064674" lon="9.540969909525455"><ele>41.0</ele><time>2026-03-21T16:02:42.002Z</time></trkpt><trkpt lat="41.01860967437559" lon="9.541069468561105"><ele>41.0</ele><time>2026-03-21T16:02:43.003Z</time></trkpt><trkpt lat="41.01867684410457" lon="9.541172355479477"><ele>41.0</ele><time>2026-03-21T16:02:44.003Z</time></trkpt><trkpt lat="41.01873768330615" lon="9.541285863816187"><ele>42.199999999999996</ele><time>2026-03-21T16:02:45.003Z</time></trkpt><trkpt lat="41.01879831052737" lon="9.541395963331256"><ele>43.4</ele><time>2026-03-21T16:02:46.003Z</time></trkpt><trkpt lat="41.01885888892776" lon="9.541505148316979"><ele>44.6</ele><time>2026-03-21T16:02:47.003Z</time></trkpt><trkpt lat="41.01892135236456" lon="9.541609964489261"><ele>45.8</ele><time>2026-03-21T16:02:48.003Z</time></trkpt><trkpt lat="41.0189899503657" lon="9.541710221766193"><ele>47.0</ele><time>2026-03-21T16:02:49.003Z</time></trkpt><trkpt lat="41.019060712833415" lon="9.541805497906925"><ele>47.0</ele><time>2026-03-21T16:02:50.003Z</time></trkpt><trkpt lat="41.019142903724926" lon="9.541881935436878"><ele>47.0</ele><time>2026-03-21T16:02:51.003Z</time></trkpt><trkpt lat="41.01921517459994" lon="9.541970739691127"><ele>47.0</ele><time>2026-03-21T16:02:52.003Z</time></trkpt><trkpt lat="41.019288869728314" lon="9.542059274563426"><ele>47.0</ele><time>2026-03-21T16:02:53.003Z</time></trkpt><trkpt lat="41.019368956158935" lon="9.542144523811984"><ele>47.0</ele><time>2026-03-21T16:02:54.003Z</time></trkpt><trkpt lat="41.01945101564691" lon="9.542227632252606"><ele>45.6</ele><time>2026-03-21T16:02:55.003Z</time></trkpt><trkpt lat="41.01953844977324" lon="9.542310653824682"><ele>44.2</ele><time>2026-03-21T16:02:56.003Z</time></trkpt><trkpt lat="41.0196296151553" lon="9.542388475692565"><ele>42.8</ele><time>2026-03-21T16:02:57.003Z</time></trkpt><trkpt lat="41.01972908232968" lon="9.542456006806711"><ele>41.4</ele><time>2026-03-21T16:02:58.003Z</time></trkpt><trkpt lat="41.01983843967396" lon="9.542505255389909"><ele>40.0</ele><time>2026-03-21T16:02:59.003Z</time></trkpt><trkpt lat="41.01995500412603" lon="9.54254808841633"><ele>38.75</ele><time>2026-03-21T16:03:00.003Z</time></trkpt><trkpt lat="41.02007601897986" lon="9.542581500970408"><ele>37.5</ele><time>2026-03-21T16:03:01.003Z</time></trkpt><trkpt lat="41.02019975314767" lon="9.542611299057583"><ele>36.25</ele><time>2026-03-21T16:03:02.003Z</time></trkpt><trkpt lat="41.020325032025326" lon="9.54263833771968"><ele>35.0</ele><time>2026-03-21T16:03:03.003Z</time></trkpt><trkpt lat="41.020454582178346" lon="9.542646964578486"><ele>35.0</ele><time>2026-03-21T16:03:04.003Z</time></trkpt><trkpt lat="41.02058474586965" lon="9.542639981204237"><ele>35.0</ele><time>2026-03-21T16:03:05.003Z</time></trkpt><trkpt lat="41.02071544016901" lon="9.542625733456768"><ele>35.0</ele><time>2026-03-21T16:03:06.003Z</time></trkpt><trkpt lat="41.020847864189356" lon="9.542610737581308"><ele>35.0</ele><time>2026-03-21T16:03:07.003Z</time></trkpt><trkpt lat="41.02098233397211" lon="9.54260294812269"><ele>34.25</ele><time>2026-03-21T16:03:08.003Z</time></trkpt><trkpt lat="41.021122113086186" lon="9.542593836613285"><ele>33.5</ele><time>2026-03-21T16:03:08.998Z</time></trkpt><trkpt lat="41.02125841058228" lon="9.542580842731088"><ele>32.75</ele><time>2026-03-21T16:03:09.998Z</time></trkpt><trkpt lat="41.02139683647312" lon="9.542561593866358"><ele>32.0</ele><time>2026-03-21T16:03:10.998Z</time></trkpt><trkpt lat="41.02153723845701" lon="9.54254334813827"><ele>31.0</ele><time>2026-03-21T16:03:11.998Z</time></trkpt><trkpt lat="41.02167575319616" lon="9.542528615357758"><ele>30.0</ele><time>2026-03-21T16:03:12.998Z</time></trkpt><trkpt lat="41.02179321316366" lon="9.542500998728238"><ele>29.0</ele><time>2026-03-21T16:03:13.998Z</time></trkpt><trkpt lat="41.021901578281664" lon="9.542478237389382"><ele>28.0</ele><time>2026-03-21T16:03:14.998Z</time></trkpt><trkpt lat="41.02199904826729" lon="9.542463434300142"><ele>28.000000000000004</ele><time>2026-03-21T16:03:15.999Z</time></trkpt><trkpt lat="41.02208010315616" lon="9.542455279566347"><ele>28.0</ele><time>2026-03-21T16:03:16.999Z</time></trkpt><trkpt lat="41.02216707159433" lon="9.542454602900333"><ele>28.0</ele><time>2026-03-21T16:03:18.999Z</time></trkpt><trkpt lat="41.022266558711955" lon="9.542435640627117"><ele>28.0</ele><time>2026-03-21T16:03:21.999Z</time></trkpt><trkpt lat="41.02234234211984" lon="9.542417469642665"><ele>28.000000000000004</ele><time>2026-03-21T16:03:23.999Z</time></trkpt><trkpt lat="41.02243443687153" lon="9.542405046663347"><ele>28.0</ele><time>2026-03-21T16:03:25.999Z</time></trkpt><trkpt lat="41.02255424980018" lon="9.542394621161325"><ele>26.833333333333336</ele><time>2026-03-21T16:03:27.999Z</time></trkpt><trkpt lat="41.022624784707816" lon="9.542390024893677"><ele>25.666666666666668</ele><time>2026-03-21T16:03:29Z</time></trkpt><trkpt lat="41.02270219675454" lon="9.542386414466028"><ele>24.5</ele><time>2026-03-21T16:03:30Z</time></trkpt><trkpt lat="41.02278420301814" lon="9.542390306380703"><ele>23.333333333333336</ele><time>2026-03-21T16:03:31Z</time></trkpt><trkpt lat="41.02287261132233" lon="9.542398684923871"><ele>22.166666666666668</ele><time>2026-03-21T16:03:32Z</time></trkpt><trkpt lat="41.02296632131498" lon="9.542409366928378"><ele>21.0</ele><time>2026-03-21T16:03:33Z</time></trkpt><trkpt lat="41.02306454642399" lon="9.542422121411235"><ele>21.0</ele><time>2026-03-21T16:03:34Z</time></trkpt><trkpt lat="41.023165374922606" lon="9.542436088633965"><ele>21.0</ele><time>2026-03-21T16:03:35Z</time></trkpt><trkpt lat="41.02327013466595" lon="9.542451427123439"><ele>21.0</ele><time>2026-03-21T16:03:36Z</time></trkpt><trkpt lat="41.02337665632958" lon="9.542474316311617"><ele>21.0</ele><time>2026-03-21T16:03:37Z</time></trkpt><trkpt lat="41.023484281350555" lon="9.542500196681704"><ele>21.0</ele><time>2026-03-21T16:03:38Z</time></trkpt><trkpt lat="41.02359056635491" lon="9.542526041066571"><ele>20.2</ele><time>2026-03-21T16:03:39Z</time></trkpt><trkpt lat="41.0236994021" lon="9.542558459198018"><ele>19.400000000000002</ele><time>2026-03-21T16:03:40Z</time></trkpt><trkpt lat="41.02380284615586" lon="9.54260956546475"><ele>18.6</ele><time>2026-03-21T16:03:41Z</time></trkpt><trkpt lat="41.02390224940365" lon="9.542685333943007"><ele>17.8</ele><time>2026-03-21T16:03:42Z</time></trkpt><trkpt lat="41.02398943934655" lon="9.542778706440293"><ele>17.0</ele><time>2026-03-21T16:03:43Z</time></trkpt><trkpt lat="41.024062773923745" lon="9.542901251218955"><ele>16.25</ele><time>2026-03-21T16:03:44Z</time></trkpt><trkpt lat="41.024116182628006" lon="9.543041252798968"><ele>15.5</ele><time>2026-03-21T16:03:45Z</time></trkpt><trkpt lat="41.024131566475276" lon="9.543195256854235"><ele>14.75</ele><time>2026-03-21T16:03:46.001Z</time></trkpt><trkpt lat="41.0241281411511" lon="9.543366690614352"><ele>14.0</ele><time>2026-03-21T16:03:47.001Z</time></trkpt><trkpt lat="41.02412248506481" lon="9.543533239130886"><ele>14.0</ele><time>2026-03-21T16:03:48.001Z</time></trkpt><trkpt lat="41.02411439470436" lon="9.543692541032524"><ele>13.999999999999998</ele><time>2026-03-21T16:03:49.001Z</time></trkpt><trkpt lat="41.02409991580015" lon="9.5438410260689"><ele>13.999999999999998</ele><time>2026-03-21T16:03:50.001Z</time></trkpt><trkpt lat="41.02406903543151" lon="9.543961282079632"><ele>14.0</ele><time>2026-03-21T16:03:51.001Z</time></trkpt><trkpt lat="41.0240349608834" lon="9.544055400617895"><ele>14.0</ele><time>2026-03-21T16:03:52.001Z</time></trkpt><trkpt lat="41.02408241722585" lon="9.544196913466509"><ele>14.333333333333334</ele><time>2026-03-21T16:03:54.001Z</time></trkpt><trkpt lat="41.02420824080243" lon="9.544238987791617"><ele>14.666666666666668</ele><time>2026-03-21T16:03:56.001Z</time></trkpt><trkpt lat="41.024260870372075" lon="9.544286580626748"><ele>15.0</ele><time>2026-03-21T16:03:57.001Z</time></trkpt><trkpt lat="41.02431540928727" lon="9.544344787617439"><ele>15.333333333333332</ele><time>2026-03-21T16:03:58.001Z</time></trkpt><trkpt lat="41.02435996259916" lon="9.544427652767784"><ele>15.666666666666666</ele><time>2026-03-21T16:03:59.001Z</time></trkpt><trkpt lat="41.024429742588495" lon="9.54447334377668"><ele>16.0</ele><time>2026-03-21T16:04:00.001Z</time></trkpt><trkpt lat="41.02448508004231" lon="9.544529696435925"><ele>17.166666666666664</ele><time>2026-03-21T16:04:01.001Z</time></trkpt><trkpt lat="41.02454122884728" lon="9.54458849921618"><ele>18.333333333333332</ele><time>2026-03-21T16:04:02.001Z</time></trkpt><trkpt lat="41.02459882536988" lon="9.544649295901413"><ele>19.5</ele><time>2026-03-21T16:04:03.001Z</time></trkpt><trkpt lat="41.02465707540614" lon="9.544709711948515"><ele>20.666666666666668</ele><time>2026-03-21T16:04:04.001Z</time></trkpt><trkpt lat="41.02471835212739" lon="9.544767352138317"><ele>21.833333333333336</ele><time>2026-03-21T16:04:05.001Z</time></trkpt><trkpt lat="41.02478677999711" lon="9.54481377531168"><ele>23.0</ele><time>2026-03-21T16:04:06.001Z</time></trkpt><trkpt lat="41.02485427135332" lon="9.544867016887196"><ele>23.0</ele><time>2026-03-21T16:04:07.001Z</time></trkpt><trkpt lat="41.024927200031655" lon="9.544923496391531"><ele>23.0</ele><time>2026-03-21T16:04:08.001Z</time></trkpt><trkpt lat="41.02500338457532" lon="9.544984202981947"><ele>23.0</ele><time>2026-03-21T16:04:09.001Z</time></trkpt><trkpt lat="41.02508052682395" lon="9.545058889141776"><ele>23.0</ele><time>2026-03-21T16:04:10.001Z</time></trkpt><trkpt lat="41.02515277339164" lon="9.545142625815185"><ele>23.0</ele><time>2026-03-21T16:04:11.001Z</time></trkpt><trkpt lat="41.02520823760963" lon="9.545249011628123"><ele>22.799999999999997</ele><time>2026-03-21T16:04:12.001Z</time></trkpt><trkpt lat="41.025269380844726" lon="9.545356249680845"><ele>22.6</ele><time>2026-03-21T16:04:13.002Z</time></trkpt><trkpt lat="41.025318534252364" lon="9.545466623837578"><ele>22.4</ele><time>2026-03-21T16:04:14.002Z</time></trkpt><trkpt lat="41.0253576408242" lon="9.545579794703826"><ele>22.200000000000003</ele><time>2026-03-21T16:04:15.002Z</time></trkpt><trkpt lat="41.025393971284146" lon="9.545700482249014"><ele>22.0</ele><time>2026-03-21T16:04:16.002Z</time></trkpt><trkpt lat="41.02544861665515" lon="9.545811285879806"><ele>23.0</ele><time>2026-03-21T16:04:17.002Z</time></trkpt><trkpt lat="41.02549205814519" lon="9.545926430610132"><ele>24.0</ele><time>2026-03-21T16:04:18.002Z</time></trkpt><trkpt lat="41.025546341756225" lon="9.546035112019512"><ele>25.000000000000004</ele><time>2026-03-21T16:04:19.002Z</time></trkpt><trkpt lat="41.025604391039145" lon="9.546144381287984"><ele>26.0</ele><time>2026-03-21T16:04:20.002Z</time></trkpt><trkpt lat="41.02564483982259" lon="9.54627465941755"><ele>27.0</ele><time>2026-03-21T16:04:21.002Z</time></trkpt><trkpt lat="41.025702374300145" lon="9.546395026745188"><ele>27.0</ele><time>2026-03-21T16:04:22.002Z</time></trkpt><trkpt lat="41.025772559719194" lon="9.546504356175458"><ele>27.000000000000004</ele><time>2026-03-21T16:04:23.002Z</time></trkpt><trkpt lat="41.02582208937825" lon="9.54662301636997"><ele>27.000000000000004</ele><time>2026-03-21T16:04:24.002Z</time></trkpt><trkpt lat="41.0258717604552" lon="9.5467373871337"><ele>27.0</ele><time>2026-03-21T16:04:25.002Z</time></trkpt><trkpt lat="41.0259199071326" lon="9.546850286045244"><ele>27.0</ele><time>2026-03-21T16:04:26.002Z</time></trkpt><trkpt lat="41.025952129044256" lon="9.54696954340511"><ele>25.833333333333332</ele><time>2026-03-21T16:04:27.002Z</time></trkpt><trkpt lat="41.02599761032642" lon="9.5470757760658"><ele>24.666666666666668</ele><time>2026-03-21T16:04:28.002Z</time></trkpt><trkpt lat="41.02605793906322" lon="9.547163855520294"><ele>23.5</ele><time>2026-03-21T16:04:29.002Z</time></trkpt><trkpt lat="41.026102266241566" lon="9.547260131450022"><ele>22.333333333333336</ele><time>2026-03-21T16:04:30.002Z</time></trkpt><trkpt lat="41.02615158862409" lon="9.547349642165848"><ele>21.166666666666668</ele><time>2026-03-21T16:04:31.002Z</time></trkpt><trkpt lat="41.0262024540049" lon="9.54743645405929"><ele>20.0</ele><time>2026-03-21T16:04:32.002Z</time></trkpt><trkpt lat="41.0262578218652" lon="9.547519718273096"><ele>20.0</ele><time>2026-03-21T16:04:33.002Z</time></trkpt><trkpt lat="41.02629905076016" lon="9.547606126292843"><ele>20.0</ele><time>2026-03-21T16:04:34.002Z</time></trkpt><trkpt lat="41.02638059532121" lon="9.547714209112392"><ele>20.0</ele><time>2026-03-21T16:04:36.002Z</time></trkpt><trkpt lat="41.02644365547118" lon="9.547780381796603"><ele>20.0</ele><time>2026-03-21T16:04:38.002Z</time></trkpt><trkpt lat="41.02651092682051" lon="9.54786109470257"><ele>20.0</ele><time>2026-03-21T16:04:40.002Z</time></trkpt><trkpt lat="41.026605403556" lon="9.54796665778015"><ele>19.166666666666668</ele><time>2026-03-21T16:04:42.002Z</time></trkpt><trkpt lat="41.02666639384965" lon="9.548018051349906"><ele>18.333333333333336</ele><time>2026-03-21T16:04:43.002Z</time></trkpt><trkpt lat="41.02673479193835" lon="9.548073106475332"><ele>17.5</ele><time>2026-03-21T16:04:44.002Z</time></trkpt><trkpt lat="41.02680586018385" lon="9.548122579839047"><ele>16.666666666666668</ele><time>2026-03-21T16:04:45.002Z</time></trkpt><trkpt lat="41.02687560025633" lon="9.548171378901277"><ele>15.833333333333334</ele><time>2026-03-21T16:04:46.003Z</time></trkpt><trkpt lat="41.026941713372004" lon="9.548224260851734"><ele>15.0</ele><time>2026-03-21T16:04:47.003Z</time></trkpt><trkpt lat="41.02701012892387" lon="9.548269751558035"><ele>15.0</ele><time>2026-03-21T16:04:48.003Z</time></trkpt><trkpt lat="41.02707661970881" lon="9.548315563704145"><ele>15.0</ele><time>2026-03-21T16:04:49.003Z</time></trkpt><trkpt lat="41.02714402638575" lon="9.548358818245537"><ele>15.0</ele><time>2026-03-21T16:04:50.003Z</time></trkpt><trkpt lat="41.02720691856669" lon="9.548402541954863"><ele>15.0</ele><time>2026-03-21T16:04:51.003Z</time></trkpt><trkpt lat="41.02726748107438" lon="9.548444650007385"><ele>15.0</ele><time>2026-03-21T16:04:52.003Z</time></trkpt><trkpt lat="41.02732842289682" lon="9.548490353106942"><ele>15.0</ele><time>2026-03-21T16:04:53.003Z</time></trkpt><trkpt lat="41.02738270782712" lon="9.548537551771911"><ele>15.0</ele><time>2026-03-21T16:04:54.003Z</time></trkpt><trkpt lat="41.02743677134878" lon="9.548585266236634"><ele>15.0</ele><time>2026-03-21T16:04:55.003Z</time></trkpt><trkpt lat="41.027519559688066" lon="9.548684031165289"><ele>15.0</ele><time>2026-03-21T16:04:57.003Z</time></trkpt><trkpt lat="41.02760075559858" lon="9.548770774308506"><ele>15.0</ele><time>2026-03-21T16:04:59.003Z</time></trkpt><trkpt lat="41.02765937024254" lon="9.54888147046019"><ele>15.0</ele><time>2026-03-21T16:05:01.003Z</time></trkpt><trkpt lat="41.02773449668206" lon="9.548976830478535"><ele>15.0</ele><time>2026-03-21T16:05:03.003Z</time></trkpt><trkpt lat="41.02779513850429" lon="9.549080787676038"><ele>15.0</ele><time>2026-03-21T16:05:05.003Z</time></trkpt><trkpt lat="41.027853555897465" lon="9.549175463449213"><ele>15.0</ele><time>2026-03-21T16:05:07.003Z</time></trkpt><trkpt lat="41.027909396782064" lon="9.54923982155313"><ele>15.0</ele><time>2026-03-21T16:05:09.003Z</time></trkpt><trkpt lat="41.02799035732854" lon="9.549247036934117"><ele>15.0</ele><time>2026-03-21T16:05:12.003Z</time></trkpt><trkpt lat="41.02803901070023" lon="9.549188437799472"><ele>15.0</ele><time>2026-03-21T16:05:14.003Z</time></trkpt><trkpt lat="41.028003660801815" lon="9.549087484144799"><ele>15.0</ele><time>2026-03-21T16:05:15.999Z</time></trkpt><trkpt lat="41.02795573808156" lon="9.548989463529804"><ele>15.0</ele><time>2026-03-21T16:05:17.999Z</time></trkpt><trkpt lat="41.027965548659495" lon="9.548841888590776"><ele>15.0</ele><time>2026-03-21T16:05:19.999Z</time></trkpt><trkpt lat="41.02801090828716" lon="9.548715827469435"><ele>15.0</ele><time>2026-03-21T16:05:21.999Z</time></trkpt><trkpt lat="41.0279753248197" lon="9.548612661198245"><ele>15.0</ele><time>2026-03-21T16:05:23.999Z</time></trkpt><trkpt lat="41.02798384534415" lon="9.548517559390714"><ele>15.0</ele><time>2026-03-21T16:05:26.999Z</time></trkpt><trkpt lat="41.02805791778006" lon="9.548557462546174"><ele>15.0</ele><time>2026-03-21T16:12:32.013Z</time></trkpt><trkpt lat="41.02792654139581" lon="9.54864809486143"><ele>15.0</ele><time>2026-03-21T16:12:36.001Z</time></trkpt><trkpt lat="41.02792192282758" lon="9.548731872553248"><ele>15.0</ele><time>2026-03-21T16:12:38.001Z</time></trkpt><trkpt lat="41.02791918415956" lon="9.548834164075682"><ele>15.0</ele><time>2026-03-21T16:12:40.001Z</time></trkpt><trkpt lat="41.02791780105994" lon="9.548956568456182"><ele>15.0</ele><time>2026-03-21T16:12:42.001Z</time></trkpt><trkpt lat="41.02791109621425" lon="9.549076558422513"><ele>15.0</ele><time>2026-03-21T16:12:44.001Z</time></trkpt><trkpt lat="41.02782792046772" lon="9.549087676687092"><ele>15.0</ele><time>2026-03-21T16:12:46.001Z</time></trkpt><trkpt lat="41.02777882874548" lon="9.548992863846802"><ele>15.0</ele><time>2026-03-21T16:12:47.001Z</time></trkpt><trkpt lat="41.027726444693876" lon="9.548917793201264"><ele>15.0</ele><time>2026-03-21T16:12:48.001Z</time></trkpt><trkpt lat="41.02769480203013" lon="9.548831252403714"><ele>15.0</ele><time>2026-03-21T16:12:49.001Z</time></trkpt><trkpt lat="41.02765724676051" lon="9.548750622481915"><ele>15.0</ele><time>2026-03-21T16:12:50.001Z</time></trkpt><trkpt lat="41.027570214448936" lon="9.548657950986666"><ele>15.0</ele><time>2026-03-21T16:12:52.001Z</time></trkpt><trkpt lat="41.027496012642736" lon="9.54857234411268"><ele>15.0</ele><time>2026-03-21T16:12:54.001Z</time></trkpt><trkpt lat="41.027386347345384" lon="9.54847202418873"><ele>15.0</ele><time>2026-03-21T16:12:56.001Z</time></trkpt><trkpt lat="41.02731464553599" lon="9.548421808950785"><ele>15.0</ele><time>2026-03-21T16:12:57.001Z</time></trkpt><trkpt lat="41.02724620406589" lon="9.54837276945236"><ele>15.0</ele><time>2026-03-21T16:12:58.001Z</time></trkpt><trkpt lat="41.027177672243255" lon="9.548326974794543"><ele>15.0</ele><time>2026-03-21T16:12:59.001Z</time></trkpt><trkpt lat="41.02710880385649" lon="9.548273107026072"><ele>15.0</ele><time>2026-03-21T16:13:00.001Z</time></trkpt><trkpt lat="41.027042003612934" lon="9.548223527068888"><ele>15.0</ele><time>2026-03-21T16:13:01.001Z</time></trkpt><trkpt lat="41.02697809924733" lon="9.54817466178681"><ele>15.0</ele><time>2026-03-21T16:13:02.001Z</time></trkpt><trkpt lat="41.02691498731702" lon="9.548128646932964"><ele>15.0</ele><time>2026-03-21T16:13:03.001Z</time></trkpt><trkpt lat="41.02685162306685" lon="9.548081726504476"><ele>15.0</ele><time>2026-03-21T16:13:04.001Z</time></trkpt><trkpt lat="41.0267913390076" lon="9.548036947608077"><ele>15.0</ele><time>2026-03-21T16:13:05.001Z</time></trkpt><trkpt lat="41.026735062671" lon="9.547991376038906"><ele>15.833333333333334</ele><time>2026-03-21T16:13:06.001Z</time></trkpt><trkpt lat="41.02663779702832" lon="9.547907492960933"><ele>16.666666666666668</ele><time>2026-03-21T16:13:08.001Z</time></trkpt><trkpt lat="41.02656535907209" lon="9.547847269239675"><ele>17.5</ele><time>2026-03-21T16:13:10.001Z</time></trkpt><trkpt lat="41.026521472086564" lon="9.547775630865393"><ele>18.333333333333336</ele><time>2026-03-21T16:13:13.001Z</time></trkpt><trkpt lat="41.02646944024114" lon="9.547709780837488"><ele>19.166666666666668</ele><time>2026-03-21T16:13:17.001Z</time></trkpt><trkpt lat="41.02641681098847" lon="9.547644851310698"><ele>20.0</ele><time>2026-03-21T16:13:20.001Z</time></trkpt><trkpt lat="41.02635416517683" lon="9.547563708026404"><ele>20.0</ele><time>2026-03-21T16:13:23.001Z</time></trkpt><trkpt lat="41.02630904340758" lon="9.54750420446982"><ele>20.0</ele><time>2026-03-21T16:13:25.001Z</time></trkpt><trkpt lat="41.02624975026459" lon="9.547404958776628"><ele>20.0</ele><time>2026-03-21T16:13:28.001Z</time></trkpt><trkpt lat="41.02619462745228" lon="9.547333414870748"><ele>20.0</ele><time>2026-03-21T16:13:30.001Z</time></trkpt><trkpt lat="41.026141542450326" lon="9.547251323358488"><ele>20.0</ele><time>2026-03-21T16:13:32.001Z</time></trkpt><trkpt lat="41.02605848274281" lon="9.547305507286579"><ele>20.0</ele><time>2026-03-21T16:13:34.001Z</time></trkpt><trkpt lat="41.0259959118894" lon="9.547395614148787"><ele>20.0</ele><time>2026-03-21T16:13:36.001Z</time></trkpt><trkpt lat="41.02591372773616" lon="9.547493926713761"><ele>20.0</ele><time>2026-03-21T16:13:38.001Z</time></trkpt><trkpt lat="41.02584247881617" lon="9.547580271313967"><ele>20.0</ele><time>2026-03-21T16:13:40.001Z</time></trkpt><trkpt lat="41.02577192211251" lon="9.547665778136048"><ele>20.0</ele><time>2026-03-21T16:13:42.001Z</time></trkpt><trkpt lat="41.02584096524623" lon="9.54793739840607"><ele>20.285714285714285</ele><time>2026-03-21T16:13:44.001Z</time></trkpt><trkpt lat="41.0258346829497" lon="9.54803350337676"><ele>20.571428571428573</ele><time>2026-03-21T16:13:46.001Z</time></trkpt><trkpt lat="41.02579520198595" lon="9.54810021717085"><ele>20.857142857142858</ele><time>2026-03-21T16:13:51.002Z</time></trkpt><trkpt lat="41.0257955931519" lon="9.548005020344645"><ele>21.142857142857142</ele><time>2026-03-21T16:14:03.002Z</time></trkpt><trkpt lat="41.02579089032709" lon="9.548089949596742"><ele>21.428571428571427</ele><time>2026-03-21T16:14:11.002Z</time></trkpt><trkpt lat="41.0257587771882" lon="9.548183101941264"><ele>21.714285714285715</ele><time>2026-03-21T16:14:15.002Z</time></trkpt><trkpt lat="41.02572944534847" lon="9.548266322067414"><ele>22.0</ele><time>2026-03-21T16:14:21.002Z</time></trkpt><trkpt lat="41.025768765314034" lon="9.548411802796164"><ele>22.0</ele><time>2026-03-21T16:16:04.002Z</time></trkpt><trkpt lat="41.025970228702455" lon="9.548435395753254"><ele>22.0</ele><time>2026-03-21T16:17:14Z</time></trkpt><trkpt lat="41.02576197140871" lon="9.548416024594262"><ele>22.0</ele><time>2026-03-21T18:42:21.01Z</time></trkpt><trkpt lat="41.02573230161869" lon="9.548329540850512"><ele>22.0</ele><time>2026-03-21T18:42:29.985Z</time></trkpt><trkpt lat="41.02568827773429" lon="9.548260600349963"><ele>22.0</ele><time>2026-03-21T18:42:38.992Z</time></trkpt><trkpt lat="41.02573979255594" lon="9.548188992394593"><ele>22.0</ele><time>2026-03-21T18:42:59.999Z</time></trkpt><trkpt lat="41.02578313918237" lon="9.548063494655915"><ele>22.0</ele><time>2026-03-21T18:43:01.999Z</time></trkpt><trkpt lat="41.025827246870286" lon="9.5479138089492"><ele>22.0</ele><time>2026-03-21T18:43:04Z</time></trkpt><trkpt lat="41.02584765144822" lon="9.547833820077122"><ele>22.0</ele><time>2026-03-21T18:43:05Z</time></trkpt><trkpt lat="41.025878960024635" lon="9.547676703510428"><ele>21.6</ele><time>2026-03-21T18:43:07Z</time></trkpt><trkpt lat="41.02591100328826" lon="9.547533095684795"><ele>21.200000000000003</ele><time>2026-03-21T18:43:09Z</time></trkpt><trkpt lat="41.02597196272662" lon="9.54742413856958"><ele>20.8</ele><time>2026-03-21T18:43:11.001Z</time></trkpt><trkpt lat="41.026072839559006" lon="9.547373917956321"><ele>20.4</ele><time>2026-03-21T18:43:13.001Z</time></trkpt><trkpt lat="41.02612352514255" lon="9.547318797644404"><ele>20.0</ele><time>2026-03-21T18:43:16.001Z</time></trkpt><trkpt lat="41.02612090648915" lon="9.547227227224646"><ele>20.0</ele><time>2026-03-21T18:43:18.001Z</time></trkpt><trkpt lat="41.02605055498017" lon="9.547114289814441"><ele>20.0</ele><time>2026-03-21T18:43:20.001Z</time></trkpt><trkpt lat="41.02599367730799" lon="9.546988989744207"><ele>20.0</ele><time>2026-03-21T18:43:22.001Z</time></trkpt><trkpt lat="41.02594865433374" lon="9.546887033390353"><ele>20.0</ele><time>2026-03-21T18:43:23.001Z</time></trkpt><trkpt lat="41.025904042105736" lon="9.546808784654631"><ele>20.0</ele><time>2026-03-21T18:43:24.002Z</time></trkpt><trkpt lat="41.0258631818423" lon="9.54670845499909"><ele>19.6</ele><time>2026-03-21T18:43:25.002Z</time></trkpt><trkpt lat="41.02581553402958" lon="9.54659789179713"><ele>19.2</ele><time>2026-03-21T18:43:26.002Z</time></trkpt><trkpt lat="41.02575990743781" lon="9.546480921971812"><ele>18.8</ele><time>2026-03-21T18:43:27.002Z</time></trkpt><trkpt lat="41.02570051014637" lon="9.54635777451645"><ele>18.4</ele><time>2026-03-21T18:43:28.002Z</time></trkpt><trkpt lat="41.02565491917474" lon="9.546216415864478"><ele>18.0</ele><time>2026-03-21T18:43:29.002Z</time></trkpt><trkpt lat="41.02559387835181" lon="9.546099360199273"><ele>20.75</ele><time>2026-03-21T18:43:30.002Z</time></trkpt><trkpt lat="41.02552220874375" lon="9.54598667271669"><ele>23.5</ele><time>2026-03-21T18:43:31.002Z</time></trkpt><trkpt lat="41.025466796270464" lon="9.545852735655554"><ele>26.25</ele><time>2026-03-21T18:43:32.002Z</time></trkpt><trkpt lat="41.02541893543594" lon="9.545710179585457"><ele>29.0</ele><time>2026-03-21T18:43:33.002Z</time></trkpt><trkpt lat="41.025365511751914" lon="9.545557502585112"><ele>29.0</ele><time>2026-03-21T18:43:34.002Z</time></trkpt><trkpt lat="41.02529833092099" lon="9.545398064032485"><ele>29.0</ele><time>2026-03-21T18:43:35.002Z</time></trkpt><trkpt lat="41.02523710536562" lon="9.545223754263546"><ele>29.0</ele><time>2026-03-21T18:43:36.002Z</time></trkpt><trkpt lat="41.02513242618973" lon="9.545109535330178"><ele>29.0</ele><time>2026-03-21T18:43:37.002Z</time></trkpt><trkpt lat="41.0250381445372" lon="9.545002277845803"><ele>27.5</ele><time>2026-03-21T18:43:38.002Z</time></trkpt><trkpt lat="41.02494374977991" lon="9.54491526884122"><ele>26.0</ele><time>2026-03-21T18:43:39.002Z</time></trkpt><trkpt lat="41.02484892570743" lon="9.544824171113175"><ele>24.5</ele><time>2026-03-21T18:43:40.002Z</time></trkpt><trkpt lat="41.02474028719534" lon="9.54477543734199"><ele>23.0</ele><time>2026-03-21T18:43:41.002Z</time></trkpt><trkpt lat="41.02465000631606" lon="9.54467042695718"><ele>23.0</ele><time>2026-03-21T18:43:42.002Z</time></trkpt><trkpt lat="41.02455342632008" lon="9.544571159582123"><ele>23.0</ele><time>2026-03-21T18:43:43.002Z</time></trkpt><trkpt lat="41.02445406491807" lon="9.544466396316373"><ele>23.0</ele><time>2026-03-21T18:43:44.002Z</time></trkpt><trkpt lat="41.024356249953925" lon="9.544360522796657"><ele>23.0</ele><time>2026-03-21T18:43:45.003Z</time></trkpt><trkpt lat="41.024256720338585" lon="9.54427237668236"><ele>21.25</ele><time>2026-03-21T18:43:46.003Z</time></trkpt><trkpt lat="41.02417610193924" lon="9.544155067547086"><ele>19.5</ele><time>2026-03-21T18:43:47.003Z</time></trkpt><trkpt lat="41.02412604388354" lon="9.54401074626426"><ele>17.75</ele><time>2026-03-21T18:43:48.003Z</time></trkpt><trkpt lat="41.024076317382665" lon="9.54386736475135"><ele>16.0</ele><time>2026-03-21T18:43:49.003Z</time></trkpt><trkpt lat="41.024133875596" lon="9.543667428368943"><ele>15.5</ele><time>2026-03-21T18:43:50.003Z</time></trkpt><trkpt lat="41.02414291608676" lon="9.543484233700285"><ele>15.0</ele><time>2026-03-21T18:43:51.003Z</time></trkpt><trkpt lat="41.024149370460165" lon="9.543309758229913"><ele>14.5</ele><time>2026-03-21T18:43:52.003Z</time></trkpt><trkpt lat="41.024151765504776" lon="9.543150809764324"><ele>14.0</ele><time>2026-03-21T18:43:53.003Z</time></trkpt><trkpt lat="41.024196835519824" lon="9.543024860724179"><ele>14.000000000000002</ele><time>2026-03-21T18:43:54.003Z</time></trkpt><trkpt lat="41.024239040980916" lon="9.542902203210774"><ele>14.0</ele><time>2026-03-21T18:43:55.003Z</time></trkpt><trkpt lat="41.02427564125477" lon="9.542795682081147"><ele>14.0</ele><time>2026-03-21T18:43:56.003Z</time></trkpt><trkpt lat="41.02426031777765" lon="9.54269155145379"><ele>14.0</ele><time>2026-03-21T18:43:57.003Z</time></trkpt><trkpt lat="41.02420134455524" lon="9.54261076180796"><ele>14.000000000000002</ele><time>2026-03-21T18:43:58.003Z</time></trkpt><trkpt lat="41.02411176999935" lon="9.54259898414045"><ele>14.0</ele><time>2026-03-21T18:43:59.003Z</time></trkpt><trkpt lat="41.0240223464688" lon="9.5426238089175"><ele>14.500000000000002</ele><time>2026-03-21T18:44:00.003Z</time></trkpt><trkpt lat="41.02394241632797" lon="9.542633149280123"><ele>15.0</ele><time>2026-03-21T18:44:01.003Z</time></trkpt><trkpt lat="41.023866867729346" lon="9.542612149949699"><ele>15.5</ele><time>2026-03-21T18:44:02.003Z</time></trkpt><trkpt lat="41.023788021379076" lon="9.542577087002353"><ele>16.0</ele><time>2026-03-21T18:44:03.003Z</time></trkpt><trkpt lat="41.02370259499159" lon="9.542540154453977"><ele>16.5</ele><time>2026-03-21T18:44:04.003Z</time></trkpt><trkpt lat="41.02361509385356" lon="9.542504631507704"><ele>17.0</ele><time>2026-03-21T18:44:05.003Z</time></trkpt><trkpt lat="41.02352715421891" lon="9.542480051149196"><ele>17.0</ele><time>2026-03-21T18:44:06.003Z</time></trkpt><trkpt lat="41.02342876858185" lon="9.542456675215409"><ele>17.0</ele><time>2026-03-21T18:44:07.003Z</time></trkpt><trkpt lat="41.02332361842419" lon="9.542434025095996"><ele>17.0</ele><time>2026-03-21T18:44:08.003Z</time></trkpt><trkpt lat="41.02322355104031" lon="9.542416844564551"><ele>17.0</ele><time>2026-03-21T18:44:09.003Z</time></trkpt><trkpt lat="41.023098867812394" lon="9.542380759210015"><ele>17.0</ele><time>2026-03-21T18:44:10.003Z</time></trkpt><trkpt lat="41.02299747003252" lon="9.542397466208904"><ele>17.8</ele><time>2026-03-21T18:44:11.003Z</time></trkpt><trkpt lat="41.02289634916533" lon="9.542382351150623"><ele>18.6</ele><time>2026-03-21T18:44:12.003Z</time></trkpt><trkpt lat="41.022790175011956" lon="9.542352383807756"><ele>19.400000000000002</ele><time>2026-03-21T18:44:13.003Z</time></trkpt><trkpt lat="41.022688652189956" lon="9.542366227164552"><ele>20.2</ele><time>2026-03-21T18:44:14.003Z</time></trkpt><trkpt lat="41.02259369867937" lon="9.542343703867777"><ele>21.0</ele><time>2026-03-21T18:44:15.003Z</time></trkpt><trkpt lat="41.022504376918185" lon="9.542368241786873"><ele>22.4</ele><time>2026-03-21T18:44:16.003Z</time></trkpt><trkpt lat="41.02242230007065" lon="9.542374354280282"><ele>23.8</ele><time>2026-03-21T18:44:17.004Z</time></trkpt><trkpt lat="41.02234295644204" lon="9.542394046391324"><ele>25.199999999999996</ele><time>2026-03-21T18:44:18.004Z</time></trkpt><trkpt lat="41.02223040517307" lon="9.542395534351462"><ele>26.599999999999998</ele><time>2026-03-21T18:44:20.004Z</time></trkpt><trkpt lat="41.022126133022425" lon="9.542411948070209"><ele>28.0</ele><time>2026-03-21T18:44:22.004Z</time></trkpt><trkpt lat="41.02199973731285" lon="9.54241606689184"><ele>28.0</ele><time>2026-03-21T18:44:24.004Z</time></trkpt><trkpt lat="41.02187685766675" lon="9.542450059418114"><ele>27.999999999999996</ele><time>2026-03-21T18:44:26.004Z</time></trkpt><trkpt lat="41.021799534896964" lon="9.54246263096789"><ele>27.999999999999996</ele><time>2026-03-21T18:44:27.004Z</time></trkpt><trkpt lat="41.02171466398371" lon="9.542473758359037"><ele>28.0</ele><time>2026-03-21T18:44:28.004Z</time></trkpt><trkpt lat="41.02161925301017" lon="9.542486882419782"><ele>28.0</ele><time>2026-03-21T18:44:29.004Z</time></trkpt><trkpt lat="41.02152017749776" lon="9.542499585370877"><ele>28.799999999999997</ele><time>2026-03-21T18:44:30.004Z</time></trkpt><trkpt lat="41.02141442093502" lon="9.542514903434364"><ele>29.599999999999998</ele><time>2026-03-21T18:44:31.004Z</time></trkpt><trkpt lat="41.02130557794499" lon="9.542528588247892"><ele>30.400000000000002</ele><time>2026-03-21T18:44:32.002Z</time></trkpt><trkpt lat="41.021202295334774" lon="9.542524228092734"><ele>31.200000000000003</ele><time>2026-03-21T18:44:33.002Z</time></trkpt><trkpt lat="41.02107930091298" lon="9.542548514973593"><ele>32.0</ele><time>2026-03-21T18:44:34.002Z</time></trkpt><trkpt lat="41.02096601813647" lon="9.542560937466108"><ele>32.0</ele><time>2026-03-21T18:44:35.002Z</time></trkpt><trkpt lat="41.02084483572169" lon="9.54257603264211"><ele>32.0</ele><time>2026-03-21T18:44:36.002Z</time></trkpt><trkpt lat="41.02072977794483" lon="9.542593616800586"><ele>32.0</ele><time>2026-03-21T18:44:37.002Z</time></trkpt><trkpt lat="41.02061464593105" lon="9.542602835583544"><ele>32.0</ele><time>2026-03-21T18:44:38.001Z</time></trkpt><trkpt lat="41.02049215092747" lon="9.542622700245023"><ele>32.75</ele><time>2026-03-21T18:44:39.001Z</time></trkpt><trkpt lat="41.02037117186863" lon="9.542623769250904"><ele>33.5</ele><time>2026-03-21T18:44:40.001Z</time></trkpt><trkpt lat="41.02024677648394" lon="9.54261021040467"><ele>34.25</ele><time>2026-03-21T18:44:41.001Z</time></trkpt><trkpt lat="41.0201237617732" lon="9.54256123674857"><ele>35.0</ele><time>2026-03-21T18:44:42.001Z</time></trkpt><trkpt lat="41.01999858098614" lon="9.542527149303957"><ele>36.25</ele><time>2026-03-21T18:44:43.001Z</time></trkpt><trkpt lat="41.019879235426146" lon="9.54248957613209"><ele>37.5</ele><time>2026-03-21T18:44:44.001Z</time></trkpt><trkpt lat="41.01975539035469" lon="9.542433766433177"><ele>38.75</ele><time>2026-03-21T18:44:45.001Z</time></trkpt><trkpt lat="41.01963905763363" lon="9.542365390125621"><ele>40.0</ele><time>2026-03-21T18:44:46.001Z</time></trkpt><trkpt lat="41.01953202967216" lon="9.542276919806252"><ele>40.0</ele><time>2026-03-21T18:44:47.001Z</time></trkpt><trkpt lat="41.01943123194844" lon="9.542173925204727"><ele>40.0</ele><time>2026-03-21T18:44:48.001Z</time></trkpt><trkpt lat="41.01932922838128" lon="9.542068427021585"><ele>40.0</ele><time>2026-03-21T18:44:49.001Z</time></trkpt><trkpt lat="41.01923069359985" lon="9.541955572070252"><ele>40.0</ele><time>2026-03-21T18:44:50.001Z</time></trkpt><trkpt lat="41.0191325507397" lon="9.54183912812057"><ele>41.75</ele><time>2026-03-21T18:44:51.001Z</time></trkpt><trkpt lat="41.019039543058945" lon="9.541715374529696"><ele>43.5</ele><time>2026-03-21T18:44:52.001Z</time></trkpt><trkpt lat="41.01895273078897" lon="9.541590236244215"><ele>45.25</ele><time>2026-03-21T18:44:53.001Z</time></trkpt><trkpt lat="41.018866476110716" lon="9.54144438473381"><ele>47.0</ele><time>2026-03-21T18:44:54.001Z</time></trkpt><trkpt lat="41.01878229136774" lon="9.541292152329367"><ele>45.0</ele><time>2026-03-21T18:44:55.001Z</time></trkpt><trkpt lat="41.01869452458741" lon="9.541133576436481"><ele>43.0</ele><time>2026-03-21T18:44:56Z</time></trkpt><trkpt lat="41.0185915812278" lon="9.540981078506158"><ele>41.0</ele><time>2026-03-21T18:44:57Z</time></trkpt><trkpt lat="41.018486977839295" lon="9.540841281024013"><ele>41.0</ele><time>2026-03-21T18:44:58Z</time></trkpt><trkpt lat="41.01837948223934" lon="9.540702771172134"><ele>41.0</ele><time>2026-03-21T18:44:59Z</time></trkpt><trkpt lat="41.01825923490779" lon="9.540582144376106"><ele>41.0</ele><time>2026-03-21T18:45:00Z</time></trkpt><trkpt lat="41.018139079658845" lon="9.540474057512895"><ele>41.0</ele><time>2026-03-21T18:45:01Z</time></trkpt><trkpt lat="41.018015865723065" lon="9.540379835298955"><ele>40.5</ele><time>2026-03-21T18:45:02Z</time></trkpt><trkpt lat="41.01789690684529" lon="9.540285758760392"><ele>40.0</ele><time>2026-03-21T18:45:03Z</time></trkpt><trkpt lat="41.01778531386481" lon="9.540183768723061"><ele>39.5</ele><time>2026-03-21T18:45:04Z</time></trkpt><trkpt lat="41.01768475017391" lon="9.540065130878471"><ele>39.0</ele><time>2026-03-21T18:45:05Z</time></trkpt><trkpt lat="41.01759042889432" lon="9.539924301775326"><ele>39.0</ele><time>2026-03-21T18:45:06Z</time></trkpt><trkpt lat="41.017488126550795" lon="9.539783133297071"><ele>39.0</ele><time>2026-03-21T18:45:07Z</time></trkpt><trkpt lat="41.01736275259443" lon="9.539662044215838"><ele>39.0</ele><time>2026-03-21T18:45:08Z</time></trkpt><trkpt lat="41.017216910146004" lon="9.539590794285942"><ele>38.0</ele><time>2026-03-21T18:45:09Z</time></trkpt><trkpt lat="41.01707349878702" lon="9.539517130568731"><ele>37.0</ele><time>2026-03-21T18:45:10Z</time></trkpt><trkpt lat="41.0169275727976" lon="9.539446675525397"><ele>36.0</ele><time>2026-03-21T18:45:11Z</time></trkpt><trkpt lat="41.01678076821905" lon="9.539378585725547"><ele>36.666666666666664</ele><time>2026-03-21T18:45:12Z</time></trkpt><trkpt lat="41.01663909981061" lon="9.539283773375157"><ele>37.33333333333333</ele><time>2026-03-21T18:45:13Z</time></trkpt><trkpt lat="41.01648870966557" lon="9.539223586071438"><ele>38.0</ele><time>2026-03-21T18:45:14Z</time></trkpt><trkpt lat="41.01634392440637" lon="9.539130850408613"><ele>38.0</ele><time>2026-03-21T18:45:15.001Z</time></trkpt><trkpt lat="41.01619853597314" lon="9.53902128614822"><ele>38.0</ele><time>2026-03-21T18:45:16.001Z</time></trkpt><trkpt lat="41.01605762154991" lon="9.538885982173348"><ele>38.0</ele><time>2026-03-21T18:45:17.001Z</time></trkpt><trkpt lat="41.01593834889377" lon="9.53870676998098"><ele>37.666666666666664</ele><time>2026-03-21T18:45:18.001Z</time></trkpt><trkpt lat="41.01582418340492" lon="9.538528645333905"><ele>37.333333333333336</ele><time>2026-03-21T18:45:19.001Z</time></trkpt><trkpt lat="41.01571250748272" lon="9.538343874425571"><ele>37.0</ele><time>2026-03-21T18:45:20.001Z</time></trkpt><trkpt lat="41.01560579882699" lon="9.53816142625358"><ele>39.333333333333336</ele><time>2026-03-21T18:45:21.001Z</time></trkpt><trkpt lat="41.015483094523255" lon="9.537992275237885"><ele>41.666666666666664</ele><time>2026-03-21T18:45:22.001Z</time></trkpt><trkpt lat="41.01537194119379" lon="9.53781967032889"><ele>44.0</ele><time>2026-03-21T18:45:23.001Z</time></trkpt><trkpt lat="41.01525985792657" lon="9.537654041619236"><ele>44.0</ele><time>2026-03-21T18:45:24.001Z</time></trkpt><trkpt lat="41.015138814624635" lon="9.537502405100772"><ele>44.0</ele><time>2026-03-21T18:45:25.001Z</time></trkpt><trkpt lat="41.015009375219066" lon="9.53736221409127"><ele>44.0</ele><time>2026-03-21T18:45:26.001Z</time></trkpt><trkpt lat="41.01488525332416" lon="9.537211414580804"><ele>44.33333333333333</ele><time>2026-03-21T18:45:27.001Z</time></trkpt><trkpt lat="41.01474733744761" lon="9.53708193240224"><ele>44.666666666666664</ele><time>2026-03-21T18:45:28.001Z</time></trkpt><trkpt lat="41.01460481134861" lon="9.536960968657056"><ele>45.0</ele><time>2026-03-21T18:45:29.001Z</time></trkpt><trkpt lat="41.014448500381825" lon="9.536881582877365"><ele>45.0</ele><time>2026-03-21T18:45:30.001Z</time></trkpt><trkpt lat="41.0142930156743" lon="9.536800853216434"><ele>45.0</ele><time>2026-03-21T18:45:31.001Z</time></trkpt><trkpt lat="41.01413500786661" lon="9.536727035872529"><ele>45.0</ele><time>2026-03-21T18:45:32.001Z</time></trkpt><trkpt lat="41.01397475910911" lon="9.536650568523061"><ele>46.33333333333333</ele><time>2026-03-21T18:45:33.001Z</time></trkpt><trkpt lat="41.01381728511186" lon="9.53656756283295"><ele>47.666666666666664</ele><time>2026-03-21T18:45:34.001Z</time></trkpt><trkpt lat="41.01366117586119" lon="9.536474562809213"><ele>49.0</ele><time>2026-03-21T18:45:35.001Z</time></trkpt><trkpt lat="41.013510545992226" lon="9.536371059510204"><ele>49.0</ele><time>2026-03-21T18:45:36.001Z</time></trkpt><trkpt lat="41.013371859863426" lon="9.536246442245705"><ele>49.0</ele><time>2026-03-21T18:45:37.001Z</time></trkpt><trkpt lat="41.013254632031895" lon="9.53609136453743"><ele>49.0</ele><time>2026-03-21T18:45:38.001Z</time></trkpt><trkpt lat="41.01313475645979" lon="9.535949890510997"><ele>49.666666666666664</ele><time>2026-03-21T18:45:39.001Z</time></trkpt><trkpt lat="41.01302032592096" lon="9.53580318539618"><ele>50.33333333333333</ele><time>2026-03-21T18:45:40.001Z</time></trkpt><trkpt lat="41.012901583615715" lon="9.535677453003894"><ele>51.0</ele><time>2026-03-21T18:45:41.001Z</time></trkpt><trkpt lat="41.01279886589908" lon="9.535533511643441"><ele>51.0</ele><time>2026-03-21T18:45:42.001Z</time></trkpt><trkpt lat="41.01269516101553" lon="9.53539417535839"><ele>51.0</ele><time>2026-03-21T18:45:43.001Z</time></trkpt><trkpt lat="41.012591709655084" lon="9.535258727159702"><ele>51.0</ele><time>2026-03-21T18:45:44.001Z</time></trkpt><trkpt lat="41.01249325631428" lon="9.53512047213364"><ele>51.0</ele><time>2026-03-21T18:45:45.001Z</time></trkpt><trkpt lat="41.01239165763089" lon="9.534992769259762"><ele>50.5</ele><time>2026-03-21T18:45:46.001Z</time></trkpt><trkpt lat="41.012308828096785" lon="9.53485243889017"><ele>50.0</ele><time>2026-03-21T18:45:47.001Z</time></trkpt><trkpt lat="41.012217697065005" lon="9.534730785236237"><ele>49.5</ele><time>2026-03-21T18:45:48.001Z</time></trkpt><trkpt lat="41.01212427085725" lon="9.534606025194348"><ele>49.0</ele><time>2026-03-21T18:45:49.001Z</time></trkpt><trkpt lat="41.01203297134823" lon="9.534481659031167"><ele>49.0</ele><time>2026-03-21T18:45:50.001Z</time></trkpt><trkpt lat="41.01194458481067" lon="9.534356533206958"><ele>49.0</ele><time>2026-03-21T18:45:51.001Z</time></trkpt><trkpt lat="41.01185680734284" lon="9.534227421492062"><ele>49.0</ele><time>2026-03-21T18:45:52.001Z</time></trkpt><trkpt lat="41.01176920822505" lon="9.534096430120512"><ele>49.0</ele><time>2026-03-21T18:45:53.001Z</time></trkpt><trkpt lat="41.0116826641285" lon="9.533966746151615"><ele>49.0</ele><time>2026-03-21T18:45:54.001Z</time></trkpt><trkpt lat="41.01159783087147" lon="9.533839591198797"><ele>49.0</ele><time>2026-03-21T18:45:55.001Z</time></trkpt><trkpt lat="41.01151495555642" lon="9.533712035239589"><ele>49.0</ele><time>2026-03-21T18:45:56.001Z</time></trkpt><trkpt lat="41.01143125554777" lon="9.533582503178359"><ele>49.0</ele><time>2026-03-21T18:45:57.001Z</time></trkpt><trkpt lat="41.01134686203312" lon="9.533451763762667"><ele>49.0</ele><time>2026-03-21T18:45:58.001Z</time></trkpt><trkpt lat="41.01126324846589" lon="9.533320776607171"><ele>49.0</ele><time>2026-03-21T18:45:59.001Z</time></trkpt><trkpt lat="41.01118040051959" lon="9.533187820638119"><ele>49.0</ele><time>2026-03-21T18:46:00.001Z</time></trkpt><trkpt lat="41.011098015797444" lon="9.533051873468034"><ele>49.0</ele><time>2026-03-21T18:46:01.001Z</time></trkpt><trkpt lat="41.01101238843239" lon="9.532909672540585"><ele>48.33333333333333</ele><time>2026-03-21T18:46:02.001Z</time></trkpt><trkpt lat="41.010922135465975" lon="9.532760369441919"><ele>47.666666666666664</ele><time>2026-03-21T18:46:03.001Z</time></trkpt><trkpt lat="41.0108230234518" lon="9.532606515400541"><ele>47.0</ele><time>2026-03-21T18:46:04.001Z</time></trkpt><trkpt lat="41.01072840833926" lon="9.532444181437716"><ele>47.0</ele><time>2026-03-21T18:46:05.001Z</time></trkpt><trkpt lat="41.010634329648774" lon="9.532286824410985"><ele>47.0</ele><time>2026-03-21T18:46:06.001Z</time></trkpt><trkpt lat="41.01053238961257" lon="9.532129758263311"><ele>47.0</ele><time>2026-03-21T18:46:07.001Z</time></trkpt><trkpt lat="41.01042047850808" lon="9.531987351267652"><ele>45.666666666666664</ele><time>2026-03-21T18:46:08.001Z</time></trkpt><trkpt lat="41.01030749970153" lon="9.53185206238052"><ele>44.333333333333336</ele><time>2026-03-21T18:46:09.001Z</time></trkpt><trkpt lat="41.01019275258832" lon="9.531720126614195"><ele>43.0</ele><time>2026-03-21T18:46:10.001Z</time></trkpt><trkpt lat="41.0100783482934" lon="9.5315938201704"><ele>42.0</ele><time>2026-03-21T18:46:11.001Z</time></trkpt><trkpt lat="41.009967063970954" lon="9.531470376823178"><ele>41.0</ele><time>2026-03-21T18:46:12.001Z</time></trkpt><trkpt lat="41.00985287665599" lon="9.531349550140243"><ele>40.0</ele><time>2026-03-21T18:46:13.001Z</time></trkpt><trkpt lat="41.00973208314199" lon="9.531248647665713"><ele>39.0</ele><time>2026-03-21T18:46:14.001Z</time></trkpt><trkpt lat="41.009599804439375" lon="9.531173825468633"><ele>38.0</ele><time>2026-03-21T18:46:15.001Z</time></trkpt><trkpt lat="41.00945845306717" lon="9.531122483248204"><ele>37.0</ele><time>2026-03-21T18:46:16.001Z</time></trkpt><trkpt lat="41.00930733996656" lon="9.531090793592814"><ele>36.0</ele><time>2026-03-21T18:46:17.001Z</time></trkpt><trkpt lat="41.00914834985336" lon="9.531082829090652"><ele>34.333333333333336</ele><time>2026-03-21T18:46:18.001Z</time></trkpt><trkpt lat="41.00898396158415" lon="9.531075550592414"><ele>32.66666666666667</ele><time>2026-03-21T18:46:19.001Z</time></trkpt><trkpt lat="41.00880637616771" lon="9.53107300414243"><ele>31.0</ele><time>2026-03-21T18:46:20.001Z</time></trkpt><trkpt lat="41.008620942131955" lon="9.531078485051697"><ele>31.0</ele><time>2026-03-21T18:46:21.001Z</time></trkpt><trkpt lat="41.0084306712624" lon="9.531095113714194"><ele>31.0</ele><time>2026-03-21T18:46:22.002Z</time></trkpt><trkpt lat="41.008244151983796" lon="9.531109516669968"><ele>31.0</ele><time>2026-03-21T18:46:23.002Z</time></trkpt><trkpt lat="41.00805560285263" lon="9.531104631630388"><ele>31.666666666666668</ele><time>2026-03-21T18:46:24.002Z</time></trkpt><trkpt lat="41.00786961181034" lon="9.531121635628775"><ele>32.333333333333336</ele><time>2026-03-21T18:46:25.002Z</time></trkpt><trkpt lat="41.00768480593343" lon="9.531163305712308"><ele>33.0</ele><time>2026-03-21T18:46:26.002Z</time></trkpt><trkpt lat="41.007506902505476" lon="9.531194044047897"><ele>33.666666666666664</ele><time>2026-03-21T18:46:27.002Z</time></trkpt><trkpt lat="41.007338262366005" lon="9.531218524307421"><ele>34.33333333333333</ele><time>2026-03-21T18:46:28.002Z</time></trkpt><trkpt lat="41.00718886136109" lon="9.531308045212677"><ele>35.0</ele><time>2026-03-21T18:46:29.002Z</time></trkpt><trkpt lat="41.00704908543426" lon="9.531389450605547"><ele>37.0</ele><time>2026-03-21T18:46:30.002Z</time></trkpt><trkpt lat="41.00691594557859" lon="9.531469691178135"><ele>39.0</ele><time>2026-03-21T18:46:31.002Z</time></trkpt><trkpt lat="41.00678644351873" lon="9.531548441043308"><ele>41.0</ele><time>2026-03-21T18:46:32.002Z</time></trkpt><trkpt lat="41.00667016450886" lon="9.531630077214515"><ele>43.0</ele><time>2026-03-21T18:46:33.002Z</time></trkpt><trkpt lat="41.00655601485603" lon="9.531705280739965"><ele>43.25</ele><time>2026-03-21T18:46:34.002Z</time></trkpt><trkpt lat="41.006437369807664" lon="9.53174835116673"><ele>43.5</ele><time>2026-03-21T18:46:35.002Z</time></trkpt><trkpt lat="41.006326954128895" lon="9.531797270197664"><ele>43.75</ele><time>2026-03-21T18:46:36.002Z</time></trkpt><trkpt lat="41.00621822882093" lon="9.531832381563092"><ele>44.0</ele><time>2026-03-21T18:46:37.002Z</time></trkpt><trkpt lat="41.006106265193715" lon="9.531866950919468"><ele>44.0</ele><time>2026-03-21T18:46:37.999Z</time></trkpt><trkpt lat="41.005991581234326" lon="9.531894156556168"><ele>44.0</ele><time>2026-03-21T18:46:38.999Z</time></trkpt><trkpt lat="41.00587013605207" lon="9.53192425606751"><ele>44.0</ele><time>2026-03-21T18:46:39.999Z</time></trkpt><trkpt lat="41.00574675476827" lon="9.531954835407529"><ele>44.0</ele><time>2026-03-21T18:46:40.999Z</time></trkpt><trkpt lat="41.00561772967044" lon="9.531988211136978"><ele>44.5</ele><time>2026-03-21T18:46:41.999Z</time></trkpt><trkpt lat="41.00548588484735" lon="9.532022678577171"><ele>45.0</ele><time>2026-03-21T18:46:42.999Z</time></trkpt><trkpt lat="41.0053550591644" lon="9.532056879586928"><ele>45.5</ele><time>2026-03-21T18:46:43.999Z</time></trkpt><trkpt lat="41.00522400213411" lon="9.532092864242468"><ele>46.0</ele><time>2026-03-21T18:46:44.999Z</time></trkpt><trkpt lat="41.00509456352464" lon="9.532130490171676"><ele>46.75</ele><time>2026-03-21T18:46:45.999Z</time></trkpt><trkpt lat="41.00496633572081" lon="9.532174065381387"><ele>47.5</ele><time>2026-03-21T18:46:46.999Z</time></trkpt><trkpt lat="41.00483395445044" lon="9.532227990458988"><ele>48.25</ele><time>2026-03-21T18:46:47.999Z</time></trkpt><trkpt lat="41.0047090151849" lon="9.5322920996755"><ele>49.0</ele><time>2026-03-21T18:46:48.999Z</time></trkpt><trkpt lat="41.00458730068969" lon="9.532361747414473"><ele>49.0</ele><time>2026-03-21T18:46:49.999Z</time></trkpt><trkpt lat="41.00446644612712" lon="9.532432218123153"><ele>49.0</ele><time>2026-03-21T18:46:50.999Z</time></trkpt><trkpt lat="41.00434582492222" lon="9.532502552930723"><ele>49.0</ele><time>2026-03-21T18:46:51.999Z</time></trkpt><trkpt lat="41.004232626237844" lon="9.532593952043594"><ele>49.0</ele><time>2026-03-21T18:46:52.999Z</time></trkpt><trkpt lat="41.00410757636599" lon="9.532645569245933"><ele>48.5</ele><time>2026-03-21T18:46:54Z</time></trkpt><trkpt lat="41.00399016768736" lon="9.532718788415282"><ele>48.0</ele><time>2026-03-21T18:46:55Z</time></trkpt><trkpt lat="41.00388142694259" lon="9.532803290199185"><ele>47.5</ele><time>2026-03-21T18:46:56Z</time></trkpt><trkpt lat="41.00377837366433" lon="9.532903980010166"><ele>47.0</ele><time>2026-03-21T18:46:57Z</time></trkpt><trkpt lat="41.003678002228774" lon="9.533006558739217"><ele>47.25</ele><time>2026-03-21T18:46:58Z</time></trkpt><trkpt lat="41.003571143903066" lon="9.533107709986037"><ele>47.5</ele><time>2026-03-21T18:46:59Z</time></trkpt><trkpt lat="41.00345419601341" lon="9.533197307236353"><ele>47.75</ele><time>2026-03-21T18:47:00Z</time></trkpt><trkpt lat="41.00332800699578" lon="9.533270660322023"><ele>48.0</ele><time>2026-03-21T18:47:01Z</time></trkpt><trkpt lat="41.003193796538135" lon="9.533322211574086"><ele>48.0</ele><time>2026-03-21T18:47:02Z</time></trkpt><trkpt lat="41.003049381562626" lon="9.533359037308726"><ele>48.0</ele><time>2026-03-21T18:47:03Z</time></trkpt><trkpt lat="41.00290433352335" lon="9.533385430654848"><ele>48.0</ele><time>2026-03-21T18:47:04Z</time></trkpt><trkpt lat="41.00275665428157" lon="9.533412632116711"><ele>48.0</ele><time>2026-03-21T18:47:05Z</time></trkpt><trkpt lat="41.00260832676119" lon="9.533439080197455"><ele>48.33333333333333</ele><time>2026-03-21T18:47:06Z</time></trkpt><trkpt lat="41.00245409543928" lon="9.533464823251649"><ele>48.666666666666664</ele><time>2026-03-21T18:47:07Z</time></trkpt><trkpt lat="41.00230825659622" lon="9.533479219244448"><ele>49.0</ele><time>2026-03-21T18:47:08Z</time></trkpt><trkpt lat="41.002156216278486" lon="9.533480610490233"><ele>49.0</ele><time>2026-03-21T18:47:09Z</time></trkpt><trkpt lat="41.00200865739396" lon="9.53345931189191"><ele>49.0</ele><time>2026-03-21T18:47:10Z</time></trkpt><trkpt lat="41.0018694917219" lon="9.533406474895877"><ele>49.0</ele><time>2026-03-21T18:47:11Z</time></trkpt><trkpt lat="41.00172533023264" lon="9.533342995331452"><ele>49.0</ele><time>2026-03-21T18:47:12Z</time></trkpt><trkpt lat="41.00157939158255" lon="9.533272348541212"><ele>48.33333333333333</ele><time>2026-03-21T18:47:13Z</time></trkpt><trkpt lat="41.001434594047524" lon="9.533207700761235"><ele>47.666666666666664</ele><time>2026-03-21T18:47:14Z</time></trkpt><trkpt lat="41.00128513293275" lon="9.533144162603987"><ele>47.0</ele><time>2026-03-21T18:47:15Z</time></trkpt><trkpt lat="41.00113229441167" lon="9.533080555808715"><ele>47.0</ele><time>2026-03-21T18:47:16Z</time></trkpt><trkpt lat="41.00097953759745" lon="9.533021474521263"><ele>47.0</ele><time>2026-03-21T18:47:17Z</time></trkpt><trkpt lat="41.000825609627775" lon="9.532964813852585"><ele>47.0</ele><time>2026-03-21T18:47:18Z</time></trkpt><trkpt lat="41.00067006464745" lon="9.532915460355163"><ele>48.0</ele><time>2026-03-21T18:47:19Z</time></trkpt><trkpt lat="41.000513184316596" lon="9.532875818257564"><ele>49.0</ele><time>2026-03-21T18:47:20Z</time></trkpt><trkpt lat="41.000360835329715" lon="9.532838270496327"><ele>50.0</ele><time>2026-03-21T18:47:21Z</time></trkpt><trkpt lat="41.00021163140193" lon="9.532802741250084"><ele>50.0</ele><time>2026-03-21T18:47:22Z</time></trkpt><trkpt lat="41.00006766138243" lon="9.532768415641144"><ele>50.0</ele><time>2026-03-21T18:47:23Z</time></trkpt><trkpt lat="40.999928248133" lon="9.532735143216431"><ele>50.0</ele><time>2026-03-21T18:47:24.001Z</time></trkpt><trkpt lat="40.99979120378202" lon="9.532704510993007"><ele>50.0</ele><time>2026-03-21T18:47:25.001Z</time></trkpt><trkpt lat="40.999660190494815" lon="9.532675503793538"><ele>50.0</ele><time>2026-03-21T18:47:26.001Z</time></trkpt><trkpt lat="40.999533944241094" lon="9.532646143414528"><ele>50.0</ele><time>2026-03-21T18:47:27.001Z</time></trkpt><trkpt lat="40.999413988488996" lon="9.53263617343934"><ele>50.0</ele><time>2026-03-21T18:47:28.001Z</time></trkpt><trkpt lat="40.99931115929165" lon="9.53260638248347"><ele>50.0</ele><time>2026-03-21T18:47:29.001Z</time></trkpt><trkpt lat="40.99922444197224" lon="9.53257921735268"><ele>50.0</ele><time>2026-03-21T18:47:30.001Z</time></trkpt><trkpt lat="40.99915757667059" lon="9.532550914749102"><ele>50.2</ele><time>2026-03-21T18:47:31.001Z</time></trkpt><trkpt lat="40.99906551933206" lon="9.532448380677405"><ele>50.4</ele><time>2026-03-21T18:47:33.001Z</time></trkpt><trkpt lat="40.99903561327138" lon="9.532358842369852"><ele>50.599999999999994</ele><time>2026-03-21T18:47:34.001Z</time></trkpt><trkpt lat="40.999026790443786" lon="9.532248817391132"><ele>50.8</ele><time>2026-03-21T18:47:35.001Z</time></trkpt><trkpt lat="40.99902805806921" lon="9.53213045898467"><ele>51.0</ele><time>2026-03-21T18:47:36.001Z</time></trkpt><trkpt lat="40.99904575746037" lon="9.532002368963653"><ele>51.0</ele><time>2026-03-21T18:47:37.001Z</time></trkpt><trkpt lat="40.99907136416334" lon="9.531869696754606"><ele>51.0</ele><time>2026-03-21T18:47:38.001Z</time></trkpt><trkpt lat="40.999101244456185" lon="9.531727018401497"><ele>51.0</ele><time>2026-03-21T18:47:39.001Z</time></trkpt><trkpt lat="40.99912852262434" lon="9.53158322347333"><ele>51.0</ele><time>2026-03-21T18:47:40.001Z</time></trkpt><trkpt lat="40.99915347350001" lon="9.531429486887806"><ele>51.0</ele><time>2026-03-21T18:47:41.001Z</time></trkpt><trkpt lat="40.999171376111974" lon="9.531263003171953"><ele>51.0</ele><time>2026-03-21T18:47:42.001Z</time></trkpt><trkpt lat="40.999182440809335" lon="9.531084805352961"><ele>51.0</ele><time>2026-03-21T18:47:43.001Z</time></trkpt><trkpt lat="40.9991896872859" lon="9.530896614701012"><ele>51.0</ele><time>2026-03-21T18:47:44.001Z</time></trkpt><trkpt lat="40.9991899549852" lon="9.530696364849808"><ele>51.0</ele><time>2026-03-21T18:47:45.001Z</time></trkpt><trkpt lat="40.99917337765013" lon="9.530488724297411"><ele>50.0</ele><time>2026-03-21T18:47:46.001Z</time></trkpt><trkpt lat="40.99914695458269" lon="9.5302765185939"><ele>49.0</ele><time>2026-03-21T18:47:47.001Z</time></trkpt><trkpt lat="40.99910721597524" lon="9.530059217968196"><ele>48.0</ele><time>2026-03-21T18:47:48.001Z</time></trkpt><trkpt lat="40.99908104473108" lon="9.529838173897737"><ele>48.0</ele><time>2026-03-21T18:47:49.001Z</time></trkpt><trkpt lat="40.99904287662337" lon="9.529612430216673"><ele>48.0</ele><time>2026-03-21T18:47:50.001Z</time></trkpt><trkpt lat="40.99900302688352" lon="9.529379704852788"><ele>48.0</ele><time>2026-03-21T18:47:51.001Z</time></trkpt><trkpt lat="40.998961902494116" lon="9.529142918971404"><ele>48.33333333333333</ele><time>2026-03-21T18:47:52.001Z</time></trkpt><trkpt lat="40.998919656156424" lon="9.528899673546503"><ele>48.666666666666664</ele><time>2026-03-21T18:47:53.001Z</time></trkpt><trkpt lat="40.99886062421521" lon="9.528654616547676"><ele>49.0</ele><time>2026-03-21T18:47:54.001Z</time></trkpt><trkpt lat="40.998819071573934" lon="9.52840019542397"><ele>49.0</ele><time>2026-03-21T18:47:55.001Z</time></trkpt><trkpt lat="40.99877660946104" lon="9.528144745701836"><ele>49.0</ele><time>2026-03-21T18:47:56.001Z</time></trkpt><trkpt lat="40.99873233413218" lon="9.527887122696875"><ele>49.0</ele><time>2026-03-21T18:47:57.001Z</time></trkpt><trkpt lat="40.99868545081327" lon="9.527628862403619"><ele>49.666666666666664</ele><time>2026-03-21T18:47:58.001Z</time></trkpt><trkpt lat="40.998656759492654" lon="9.527365452286974"><ele>50.33333333333333</ele><time>2026-03-21T18:47:59.001Z</time></trkpt><trkpt lat="40.99859727394333" lon="9.52710893783186"><ele>51.0</ele><time>2026-03-21T18:48:00.001Z</time></trkpt><trkpt lat="40.998551652252" lon="9.52685040684622"><ele>53.66666666666667</ele><time>2026-03-21T18:48:01.001Z</time></trkpt><trkpt lat="40.998516220211606" lon="9.526585810532175"><ele>56.333333333333336</ele><time>2026-03-21T18:48:02.001Z</time></trkpt><trkpt lat="40.998457122427" lon="9.526332509578008"><ele>59.0</ele><time>2026-03-21T18:48:03.001Z</time></trkpt><trkpt lat="40.99838414597115" lon="9.526084937622596"><ele>60.0</ele><time>2026-03-21T18:48:04.001Z</time></trkpt><trkpt lat="40.998298971150696" lon="9.525844058831439"><ele>61.0</ele><time>2026-03-21T18:48:05.001Z</time></trkpt><trkpt lat="40.998206479251394" lon="9.525609868650534"><ele>62.0</ele><time>2026-03-21T18:48:06.001Z</time></trkpt><trkpt lat="40.99811276315387" lon="9.52537281812945"><ele>62.333333333333336</ele><time>2026-03-21T18:48:07.001Z</time></trkpt><trkpt lat="40.9980174267368" lon="9.525131849310561"><ele>62.66666666666667</ele><time>2026-03-21T18:48:08.002Z</time></trkpt><trkpt lat="40.997924830961345" lon="9.524901513751594"><ele>63.0</ele><time>2026-03-21T18:48:09.002Z</time></trkpt><trkpt lat="40.99782986219891" lon="9.52466345577767"><ele>65.33333333333333</ele><time>2026-03-21T18:48:10.002Z</time></trkpt><trkpt lat="40.99773575570118" lon="9.524427559196871"><ele>67.66666666666666</ele><time>2026-03-21T18:48:11.002Z</time></trkpt><trkpt lat="40.99764113251667" lon="9.524190038829076"><ele>70.0</ele><time>2026-03-21T18:48:12.002Z</time></trkpt><trkpt lat="40.997548386967395" lon="9.523957001683724"><ele>70.66666666666666</ele><time>2026-03-21T18:48:13.002Z</time></trkpt><trkpt lat="40.99745612935566" lon="9.523724869548952"><ele>71.33333333333333</ele><time>2026-03-21T18:48:14.002Z</time></trkpt><trkpt lat="40.997364732185424" lon="9.523494825148497"><ele>72.0</ele><time>2026-03-21T18:48:15.002Z</time></trkpt><trkpt lat="40.99727333000161" lon="9.523264768102836"><ele>72.0</ele><time>2026-03-21T18:48:16.002Z</time></trkpt><trkpt lat="40.997182263215514" lon="9.523036450146481"><ele>72.0</ele><time>2026-03-21T18:48:17.002Z</time></trkpt><trkpt lat="40.997076515587004" lon="9.52281959974593"><ele>72.0</ele><time>2026-03-21T18:48:18.002Z</time></trkpt><trkpt lat="40.99698950715161" lon="9.522589126150606"><ele>72.66666666666667</ele><time>2026-03-21T18:48:19.002Z</time></trkpt><trkpt lat="40.996913717155614" lon="9.522352611364047"><ele>73.33333333333334</ele><time>2026-03-21T18:48:20.002Z</time></trkpt><trkpt lat="40.996843768923675" lon="9.522108954183174"><ele>74.0</ele><time>2026-03-21T18:48:21.002Z</time></trkpt><trkpt lat="40.9967798355987" lon="9.521862470781764"><ele>74.0</ele><time>2026-03-21T18:48:22.002Z</time></trkpt><trkpt lat="40.99672285380788" lon="9.521612782593305"><ele>74.0</ele><time>2026-03-21T18:48:23.002Z</time></trkpt><trkpt lat="40.99666592928257" lon="9.521363466616556"><ele>74.0</ele><time>2026-03-21T18:48:24.002Z</time></trkpt><trkpt lat="40.99662284985069" lon="9.521108556579653"><ele>74.33333333333334</ele><time>2026-03-21T18:48:25.002Z</time></trkpt><trkpt lat="40.996562934908084" lon="9.520850809305749"><ele>74.66666666666667</ele><time>2026-03-21T18:48:26.002Z</time></trkpt><trkpt lat="40.99650338530667" lon="9.520594633652664"><ele>75.0</ele><time>2026-03-21T18:48:27.002Z</time></trkpt><trkpt lat="40.9964431504731" lon="9.52033561524748"><ele>75.0</ele><time>2026-03-21T18:48:28.002Z</time></trkpt><trkpt lat="40.996382544614946" lon="9.520075892996402"><ele>75.0</ele><time>2026-03-21T18:48:29.002Z</time></trkpt><trkpt lat="40.99632263878994" lon="9.519819170624492"><ele>75.0</ele><time>2026-03-21T18:48:30.002Z</time></trkpt><trkpt lat="40.99624938715348" lon="9.519571534348389"><ele>77.0</ele><time>2026-03-21T18:48:31.002Z</time></trkpt><trkpt lat="40.996192634363766" lon="9.51931696274649"><ele>79.0</ele><time>2026-03-21T18:48:32.002Z</time></trkpt><trkpt lat="40.996136126705814" lon="9.519060250460294"><ele>81.0</ele><time>2026-03-21T18:48:33.002Z</time></trkpt><trkpt lat="40.99607755109926" lon="9.518804533159164"><ele>81.66666666666667</ele><time>2026-03-21T18:48:34.002Z</time></trkpt><trkpt lat="40.996019859428024" lon="9.518544424733204"><ele>82.33333333333334</ele><time>2026-03-21T18:48:35.002Z</time></trkpt><trkpt lat="40.99595795195737" lon="9.518286572141768"><ele>83.0</ele><time>2026-03-21T18:48:36.002Z</time></trkpt><trkpt lat="40.99589258719518" lon="9.518026039845706"><ele>81.33333333333334</ele><time>2026-03-21T18:48:37.002Z</time></trkpt><trkpt lat="40.9958200435891" lon="9.517761363315046"><ele>79.66666666666667</ele><time>2026-03-21T18:48:38.002Z</time></trkpt><trkpt lat="40.995756233825524" lon="9.517484905374715"><ele>78.0</ele><time>2026-03-21T18:48:39.002Z</time></trkpt><trkpt lat="40.995660304698" lon="9.517233568250354"><ele>77.0</ele><time>2026-03-21T18:48:40.002Z</time></trkpt><trkpt lat="40.99559081901172" lon="9.516967007699503"><ele>76.0</ele><time>2026-03-21T18:48:41.002Z</time></trkpt><trkpt lat="40.995505242342965" lon="9.516709443490292"><ele>75.0</ele><time>2026-03-21T18:48:42.002Z</time></trkpt><trkpt lat="40.99541935201094" lon="9.516451572236793"><ele>74.0</ele><time>2026-03-21T18:48:43.002Z</time></trkpt><trkpt lat="40.99533308325469" lon="9.516192597419975"><ele>73.0</ele><time>2026-03-21T18:48:43.999Z</time></trkpt><trkpt lat="40.99524608463848" lon="9.515931714642885"><ele>72.0</ele><time>2026-03-21T18:48:44.999Z</time></trkpt><trkpt lat="40.99515963405399" lon="9.515672475247003"><ele>72.0</ele><time>2026-03-21T18:48:45.999Z</time></trkpt><trkpt lat="40.99507338020871" lon="9.515413825815104"><ele>72.0</ele><time>2026-03-21T18:48:46.999Z</time></trkpt><trkpt lat="40.99498627311731" lon="9.51515261776724"><ele>72.0</ele><time>2026-03-21T18:48:47.999Z</time></trkpt><trkpt lat="40.994899440654" lon="9.51489220734152"><ele>71.33333333333333</ele><time>2026-03-21T18:48:48.999Z</time></trkpt><trkpt lat="40.99481274819424" lon="9.514631939752283"><ele>70.66666666666666</ele><time>2026-03-21T18:48:49.999Z</time></trkpt><trkpt lat="40.994725460318186" lon="9.514370925955298"><ele>70.0</ele><time>2026-03-21T18:48:50.999Z</time></trkpt><trkpt lat="40.99463737343304" lon="9.514108424651122"><ele>70.0</ele><time>2026-03-21T18:48:51.999Z</time></trkpt><trkpt lat="40.99454965708453" lon="9.513845481244054"><ele>70.0</ele><time>2026-03-21T18:48:52.999Z</time></trkpt><trkpt lat="40.9944623318186" lon="9.51358325121742"><ele>70.0</ele><time>2026-03-21T18:48:53.999Z</time></trkpt><trkpt lat="40.994375232983835" lon="9.513322418669315"><ele>69.66666666666666</ele><time>2026-03-21T18:48:55Z</time></trkpt><trkpt lat="40.99428760449851" lon="9.513060464356009"><ele>69.33333333333333</ele><time>2026-03-21T18:48:56Z</time></trkpt><trkpt lat="40.9941982195649" lon="9.512795387236858"><ele>69.0</ele><time>2026-03-21T18:48:57Z</time></trkpt><trkpt lat="40.99410834085928" lon="9.512529709585943"><ele>65.66666666666667</ele><time>2026-03-21T18:48:58Z</time></trkpt><trkpt lat="40.99400718761959" lon="9.512271316419701"><ele>62.333333333333336</ele><time>2026-03-21T18:48:59Z</time></trkpt><trkpt lat="40.99392270886205" lon="9.512004754613736"><ele>59.0</ele><time>2026-03-21T18:49:00Z</time></trkpt><trkpt lat="40.99383562997328" lon="9.511741313212978"><ele>58.0</ele><time>2026-03-21T18:49:01Z</time></trkpt><trkpt lat="40.99374707972049" lon="9.511469408787539"><ele>57.0</ele><time>2026-03-21T18:49:02Z</time></trkpt><trkpt lat="40.99364830464357" lon="9.511210773222333"><ele>56.0</ele><time>2026-03-21T18:49:03Z</time></trkpt><trkpt lat="40.99353713341763" lon="9.510963129681077"><ele>54.66666666666667</ele><time>2026-03-21T18:49:04Z</time></trkpt><trkpt lat="40.99341308671555" lon="9.51072377283181"><ele>53.33333333333333</ele><time>2026-03-21T18:49:05Z</time></trkpt><trkpt lat="40.993274736415636" lon="9.510497037894092"><ele>52.0</ele><time>2026-03-21T18:49:06Z</time></trkpt><trkpt lat="40.9931279713238" lon="9.510280049149236"><ele>51.0</ele><time>2026-03-21T18:49:07Z</time></trkpt><trkpt lat="40.992965126707205" lon="9.51007730440273"><ele>50.0</ele><time>2026-03-21T18:49:08Z</time></trkpt><trkpt lat="40.99281099958943" lon="9.509870354080938"><ele>49.0</ele><time>2026-03-21T18:49:09Z</time></trkpt><trkpt lat="40.9926603222399" lon="9.50966469898451"><ele>45.0</ele><time>2026-03-21T18:49:10Z</time></trkpt><trkpt lat="40.99251417082503" lon="9.509433748494892"><ele>41.0</ele><time>2026-03-21T18:49:11Z</time></trkpt><trkpt lat="40.99235855207511" lon="9.50921997382303"><ele>40.666666666666664</ele><time>2026-03-21T18:49:12Z</time></trkpt><trkpt lat="40.992203827268796" lon="9.509007927545127"><ele>40.333333333333336</ele><time>2026-03-21T18:49:13Z</time></trkpt><trkpt lat="40.99203667566624" lon="9.508811870655302"><ele>40.0</ele><time>2026-03-21T18:49:14Z</time></trkpt><trkpt lat="40.99188485351097" lon="9.508595680540243"><ele>39.66666666666667</ele><time>2026-03-21T18:49:15Z</time></trkpt><trkpt lat="40.9917356629774" lon="9.508375482926079"><ele>39.333333333333336</ele><time>2026-03-21T18:49:16Z</time></trkpt><trkpt lat="40.99159543567215" lon="9.508146348659762"><ele>39.0</ele><time>2026-03-21T18:49:17Z</time></trkpt><trkpt lat="40.99147097046256" lon="9.507902660181486"><ele>36.333333333333336</ele><time>2026-03-21T18:49:18Z</time></trkpt><trkpt lat="40.9913613613347" lon="9.507644931645814"><ele>33.66666666666667</ele><time>2026-03-21T18:49:19Z</time></trkpt><trkpt lat="40.99127457619175" lon="9.50736936924887"><ele>31.0</ele><time>2026-03-21T18:49:20Z</time></trkpt><trkpt lat="40.991205127376176" lon="9.507087948269106"><ele>30.0</ele><time>2026-03-21T18:49:21Z</time></trkpt><trkpt lat="40.99115091314805" lon="9.506800403120444"><ele>29.0</ele><time>2026-03-21T18:49:22Z</time></trkpt><trkpt lat="40.99111626693623" lon="9.506505108292698"><ele>28.0</ele><time>2026-03-21T18:49:23Z</time></trkpt><trkpt lat="40.991103121782565" lon="9.506205809410528"><ele>27.5</ele><time>2026-03-21T18:49:24Z</time></trkpt><trkpt lat="40.99110340769157" lon="9.505907594543752"><ele>27.0</ele><time>2026-03-21T18:49:25Z</time></trkpt><trkpt lat="40.99111131253507" lon="9.505607951800092"><ele>26.0</ele><time>2026-03-21T18:49:26.001Z</time></trkpt><trkpt lat="40.991119620558614" lon="9.505307107361952"><ele>25.0</ele><time>2026-03-21T18:49:27.001Z</time></trkpt><trkpt lat="40.9911242774215" lon="9.505007155163966"><ele>25.0</ele><time>2026-03-21T18:49:28.001Z</time></trkpt><trkpt lat="40.99112986999572" lon="9.504705553087291"><ele>25.0</ele><time>2026-03-21T18:49:29.001Z</time></trkpt><trkpt lat="40.991134292356755" lon="9.504403160002338"><ele>23.0</ele><time>2026-03-21T18:49:30.001Z</time></trkpt><trkpt lat="40.9911397544037" lon="9.504099410648072"><ele>21.0</ele><time>2026-03-21T18:49:31.001Z</time></trkpt><trkpt lat="40.991146215505715" lon="9.503796151620225"><ele>19.0</ele><time>2026-03-21T18:49:32.001Z</time></trkpt><trkpt lat="40.991152009863626" lon="9.503490879231656"><ele>17.0</ele><time>2026-03-21T18:49:33.001Z</time></trkpt><trkpt lat="40.99115758858004" lon="9.503185821049659"><ele>16.0</ele><time>2026-03-21T18:49:34.001Z</time></trkpt><trkpt lat="40.99116174337924" lon="9.502883272975415"><ele>15.0</ele><time>2026-03-21T18:49:35.001Z</time></trkpt><trkpt lat="40.99116629483105" lon="9.502581672199137"><ele>15.0</ele><time>2026-03-21T18:49:36.001Z</time></trkpt><trkpt lat="40.9911699129523" lon="9.502286185207376"><ele>15.0</ele><time>2026-03-21T18:49:37.001Z</time></trkpt><trkpt lat="40.991172370817736" lon="9.501997628780137"><ele>15.0</ele><time>2026-03-21T18:49:38.001Z</time></trkpt><trkpt lat="40.99117486814593" lon="9.501718954721728"><ele>14.333333333333332</ele><time>2026-03-21T18:49:39.001Z</time></trkpt><trkpt lat="40.99117736367619" lon="9.501453683213718"><ele>13.666666666666666</ele><time>2026-03-21T18:49:40.001Z</time></trkpt><trkpt lat="40.991183688687826" lon="9.50120970766422"><ele>13.0</ele><time>2026-03-21T18:49:41.001Z</time></trkpt><trkpt lat="40.99121464251452" lon="9.500988312710447"><ele>13.0</ele><time>2026-03-21T18:49:42.001Z</time></trkpt><trkpt lat="40.99126906690197" lon="9.500787847062773"><ele>13.0</ele><time>2026-03-21T18:49:43.001Z</time></trkpt><trkpt lat="40.99136840271077" lon="9.500643586885577"><ele>13.0</ele><time>2026-03-21T18:49:44.001Z</time></trkpt><trkpt lat="40.99149666278699" lon="9.500544297465275"><ele>13.0</ele><time>2026-03-21T18:49:45.001Z</time></trkpt><trkpt lat="40.991639204059034" lon="9.500483068716376"><ele>13.0</ele><time>2026-03-21T18:49:46.001Z</time></trkpt><trkpt lat="40.991797133880944" lon="9.500474595206452"><ele>13.0</ele><time>2026-03-21T18:49:47.001Z</time></trkpt><trkpt lat="40.99195458960909" lon="9.50045778332759"><ele>12.333333333333332</ele><time>2026-03-21T18:49:48.001Z</time></trkpt><trkpt lat="40.99211438153485" lon="9.500434950406746"><ele>11.666666666666666</ele><time>2026-03-21T18:49:49.001Z</time></trkpt><trkpt lat="40.99227862039166" lon="9.500407774885515"><ele>11.0</ele><time>2026-03-21T18:49:50.001Z</time></trkpt><trkpt lat="40.99244705838415" lon="9.500386238231993"><ele>12.0</ele><time>2026-03-21T18:49:51.001Z</time></trkpt><trkpt lat="40.9926246614228" lon="9.50037541650518"><ele>13.0</ele><time>2026-03-21T18:49:52.001Z</time></trkpt><trkpt lat="40.992808247541" lon="9.500379101027686"><ele>14.0</ele><time>2026-03-21T18:49:53.001Z</time></trkpt><trkpt lat="40.99298835345568" lon="9.500446951774608"><ele>14.0</ele><time>2026-03-21T18:49:54.001Z</time></trkpt><trkpt lat="40.99315669788386" lon="9.500559461012333"><ele>14.0</ele><time>2026-03-21T18:49:55.001Z</time></trkpt><trkpt lat="40.99331136163044" lon="9.500711533879631"><ele>14.0</ele><time>2026-03-21T18:49:56.001Z</time></trkpt><trkpt lat="40.99343695925289" lon="9.500905714710235"><ele>14.666666666666668</ele><time>2026-03-21T18:49:57.001Z</time></trkpt><trkpt lat="40.99353918872776" lon="9.501126088216441"><ele>15.333333333333332</ele><time>2026-03-21T18:49:58.001Z</time></trkpt><trkpt lat="40.993647012060194" lon="9.501343134559125"><ele>16.0</ele><time>2026-03-21T18:49:59.001Z</time></trkpt><trkpt lat="40.99376945231394" lon="9.501553468005955"><ele>14.666666666666666</ele><time>2026-03-21T18:50:00.001Z</time></trkpt><trkpt lat="40.99391430491806" lon="9.50174519262454"><ele>13.333333333333332</ele><time>2026-03-21T18:50:01.001Z</time></trkpt><trkpt lat="40.99406936872327" lon="9.501929946266815"><ele>12.0</ele><time>2026-03-21T18:50:02.001Z</time></trkpt><trkpt lat="40.99422501252235" lon="9.502116460134314"><ele>12.0</ele><time>2026-03-21T18:50:03.001Z</time></trkpt><trkpt lat="40.99438043774721" lon="9.502307226462186"><ele>12.0</ele><time>2026-03-21T18:50:04.001Z</time></trkpt><trkpt lat="40.99454176948833" lon="9.502496836970296"><ele>12.0</ele><time>2026-03-21T18:50:05.001Z</time></trkpt><trkpt lat="40.99471821798521" lon="9.502663708874131"><ele>12.0</ele><time>2026-03-21T18:50:06.002Z</time></trkpt><trkpt lat="40.994909593506165" lon="9.502806016323506"><ele>12.0</ele><time>2026-03-21T18:50:07.002Z</time></trkpt><trkpt lat="40.995106816361755" lon="9.502935317163042"><ele>12.0</ele><time>2026-03-21T18:50:08.002Z</time></trkpt><trkpt lat="40.995304012890045" lon="9.50304986051028"><ele>11.666666666666666</ele><time>2026-03-21T18:50:09.002Z</time></trkpt><trkpt lat="40.995502405344865" lon="9.503172594409689"><ele>11.333333333333332</ele><time>2026-03-21T18:50:10.002Z</time></trkpt><trkpt lat="40.99570523224212" lon="9.50329334430682"><ele>11.0</ele><time>2026-03-21T18:50:11.002Z</time></trkpt><trkpt lat="40.99591069563737" lon="9.503420333267268"><ele>10.0</ele><time>2026-03-21T18:50:12.002Z</time></trkpt><trkpt lat="40.99612173911086" lon="9.50355101031874"><ele>9.0</ele><time>2026-03-21T18:50:13.002Z</time></trkpt><trkpt lat="40.99633587393924" lon="9.503688013080469"><ele>8.5</ele><time>2026-03-21T18:50:14.002Z</time></trkpt><trkpt lat="40.99655507899358" lon="9.503829225643694"><ele>8.0</ele><time>2026-03-21T18:50:15.002Z</time></trkpt><trkpt lat="40.99678005772464" lon="9.503967519984641"><ele>8.0</ele><time>2026-03-21T18:50:16.002Z</time></trkpt><trkpt lat="40.997009428260846" lon="9.504106326368001"><ele>8.0</ele><time>2026-03-21T18:50:17.002Z</time></trkpt><trkpt lat="40.99723645504423" lon="9.504261221719181"><ele>8.0</ele><time>2026-03-21T18:50:18.002Z</time></trkpt><trkpt lat="40.99745854250283" lon="9.50443111679406"><ele>8.0</ele><time>2026-03-21T18:50:19.002Z</time></trkpt><trkpt lat="40.99767430049767" lon="9.504609070941438"><ele>8.0</ele><time>2026-03-21T18:50:20.002Z</time></trkpt><trkpt lat="40.99788642757195" lon="9.504785653448597"><ele>8.0</ele><time>2026-03-21T18:50:21.002Z</time></trkpt><trkpt lat="40.99809936200775" lon="9.504949133854764"><ele>8.0</ele><time>2026-03-21T18:50:22.002Z</time></trkpt><trkpt lat="40.99830475176977" lon="9.505115295142925"><ele>8.0</ele><time>2026-03-21T18:50:23.002Z</time></trkpt><trkpt lat="40.99852204154295" lon="9.505234030923678"><ele>8.0</ele><time>2026-03-21T18:50:24.002Z</time></trkpt><trkpt lat="40.998751374578106" lon="9.505300417805003"><ele>8.0</ele><time>2026-03-21T18:50:25.002Z</time></trkpt><trkpt lat="40.9989852883222" lon="9.505293728333895"><ele>5.5</ele><time>2026-03-21T18:50:26.002Z</time></trkpt><trkpt lat="40.99921792884481" lon="9.50525017530008"><ele>3.0</ele><time>2026-03-21T18:50:27.002Z</time></trkpt><trkpt lat="40.99945401068717" lon="9.505202307568398"><ele>3.0</ele><time>2026-03-21T18:50:28.002Z</time></trkpt><trkpt lat="40.99969568860084" lon="9.505155738812572"><ele>3.0</ele><time>2026-03-21T18:50:29.002Z</time></trkpt><trkpt lat="40.999939569289204" lon="9.505115062666151"><ele>3.0</ele><time>2026-03-21T18:50:30.002Z</time></trkpt><trkpt lat="41.00018627785349" lon="9.50507335619"><ele>3.0</ele><time>2026-03-21T18:50:31.002Z</time></trkpt><trkpt lat="41.00043555832561" lon="9.50502885940967"><ele>3.0</ele><time>2026-03-21T18:50:32.002Z</time></trkpt><trkpt lat="41.000684290502704" lon="9.504986594298913"><ele>3.0</ele><time>2026-03-21T18:50:33.002Z</time></trkpt><trkpt lat="41.00093421927033" lon="9.504943247992971"><ele>3.5</ele><time>2026-03-21T18:50:34.002Z</time></trkpt><trkpt lat="41.00118527821737" lon="9.504900479216433"><ele>4.0</ele><time>2026-03-21T18:50:35.002Z</time></trkpt><trkpt lat="41.00143786487088" lon="9.504864302498031"><ele>4.0</ele><time>2026-03-21T18:50:36.002Z</time></trkpt><trkpt lat="41.001691348022646" lon="9.504825866330833"><ele>4.0</ele><time>2026-03-21T18:50:37.002Z</time></trkpt><trkpt lat="41.001945620703914" lon="9.504784047785465"><ele>4.0</ele><time>2026-03-21T18:50:38.002Z</time></trkpt><trkpt lat="41.0021981554169" lon="9.504738136056147"><ele>4.0</ele><time>2026-03-21T18:50:39.002Z</time></trkpt><trkpt lat="41.002452729207256" lon="9.504695009501818"><ele>4.0</ele><time>2026-03-21T18:50:40.002Z</time></trkpt><trkpt lat="41.00271036428465" lon="9.504659706223071"><ele>4.0</ele><time>2026-03-21T18:50:41.002Z</time></trkpt><trkpt lat="41.00296802784569" lon="9.504633475564923"><ele>4.0</ele><time>2026-03-21T18:50:42.002Z</time></trkpt><trkpt lat="41.00322623356421" lon="9.504621326734057"><ele>4.0</ele><time>2026-03-21T18:50:43.002Z</time></trkpt><trkpt lat="41.00348411038999" lon="9.504618395466593"><ele>4.5</ele><time>2026-03-21T18:50:44.002Z</time></trkpt><trkpt lat="41.0037428367979" lon="9.504611646838402"><ele>5.0</ele><time>2026-03-21T18:50:45.002Z</time></trkpt><trkpt lat="41.00400642742595" lon="9.504609024687115"><ele>5.0</ele><time>2026-03-21T18:50:46.002Z</time></trkpt><trkpt lat="41.00426988777948" lon="9.504609513718114"><ele>5.0</ele><time>2026-03-21T18:50:47.002Z</time></trkpt><trkpt lat="41.00453137413526" lon="9.50460671628028"><ele>5.0</ele><time>2026-03-21T18:50:48.003Z</time></trkpt><trkpt lat="41.004794680988006" lon="9.504606300622473"><ele>5.0</ele><time>2026-03-21T18:50:49.003Z</time></trkpt><trkpt lat="41.00505387522606" lon="9.504610332898801"><ele>4.5</ele><time>2026-03-21T18:50:50.001Z</time></trkpt><trkpt lat="41.00530817947366" lon="9.504582003450095"><ele>4.0</ele><time>2026-03-21T18:50:51.001Z</time></trkpt><trkpt lat="41.00555770999236" lon="9.504504328141513"><ele>3.5</ele><time>2026-03-21T18:50:52.001Z</time></trkpt><trkpt lat="41.005796215403954" lon="9.504398437962926"><ele>3.0</ele><time>2026-03-21T18:50:53.001Z</time></trkpt><trkpt lat="41.006037507701414" lon="9.504280036573395"><ele>3.0</ele><time>2026-03-21T18:50:54.001Z</time></trkpt><trkpt lat="41.00627974022672" lon="9.504167361332867"><ele>3.0</ele><time>2026-03-21T18:50:55.001Z</time></trkpt><trkpt lat="41.006526057496565" lon="9.504054091695563"><ele>2.5</ele><time>2026-03-21T18:50:56.001Z</time></trkpt><trkpt lat="41.00677220699739" lon="9.503942409640668"><ele>2.0</ele><time>2026-03-21T18:50:57.001Z</time></trkpt><trkpt lat="41.00701873343797" lon="9.503833299645521"><ele>2.0</ele><time>2026-03-21T18:50:58.001Z</time></trkpt><trkpt lat="41.00726676602548" lon="9.503727519049747"><ele>2.0</ele><time>2026-03-21T18:50:59.001Z</time></trkpt><trkpt lat="41.00751161993041" lon="9.503611885515614"><ele>2.0</ele><time>2026-03-21T18:51:00.001Z</time></trkpt><trkpt lat="41.00774634448923" lon="9.50346901106374"><ele>2.0</ele><time>2026-03-21T18:51:01.001Z</time></trkpt><trkpt lat="41.00796536446327" lon="9.503286679826244"><ele>2.0</ele><time>2026-03-21T18:51:02.001Z</time></trkpt><trkpt lat="41.00818180198743" lon="9.503103221279614"><ele>2.0</ele><time>2026-03-21T18:51:03Z</time></trkpt><trkpt lat="41.00838677863204" lon="9.502913987048945"><ele>2.5</ele><time>2026-03-21T18:51:04Z</time></trkpt><trkpt lat="41.00858576576272" lon="9.502728136605509"><ele>3.0</ele><time>2026-03-21T18:51:05Z</time></trkpt><trkpt lat="41.00878023695667" lon="9.502544782925275"><ele>3.0</ele><time>2026-03-21T18:51:06.001Z</time></trkpt><trkpt lat="41.00897192163404" lon="9.502364813039323"><ele>3.0</ele><time>2026-03-21T18:51:07.001Z</time></trkpt><trkpt lat="41.009162887490774" lon="9.502189529683635"><ele>4.0</ele><time>2026-03-21T18:51:08.001Z</time></trkpt><trkpt lat="41.00934984778224" lon="9.502015329011462"><ele>5.0</ele><time>2026-03-21T18:51:09.001Z</time></trkpt><trkpt lat="41.00953328011659" lon="9.501847254446966"><ele>5.0</ele><time>2026-03-21T18:51:10.001Z</time></trkpt><trkpt lat="41.0097125778532" lon="9.501677341315917"><ele>5.0</ele><time>2026-03-21T18:51:11.001Z</time></trkpt><trkpt lat="41.00988525835791" lon="9.50151242508924"><ele>5.0</ele><time>2026-03-21T18:51:12.001Z</time></trkpt><trkpt lat="41.010060888906786" lon="9.501379057351242"><ele>4.333333333333334</ele><time>2026-03-21T18:51:13.001Z</time></trkpt><trkpt lat="41.01022626710145" lon="9.501254090576627"><ele>3.666666666666667</ele><time>2026-03-21T18:51:14.001Z</time></trkpt><trkpt lat="41.0104079664414" lon="9.501207896783622"><ele>3.0</ele><time>2026-03-21T18:51:15.001Z</time></trkpt><trkpt lat="41.01058979182569" lon="9.50123437121443"><ele>2.3333333333333335</ele><time>2026-03-21T18:51:16.001Z</time></trkpt><trkpt lat="41.010761964602864" lon="9.501332684932386"><ele>1.6666666666666665</ele><time>2026-03-21T18:51:17.001Z</time></trkpt><trkpt lat="41.01090716911311" lon="9.501499021066481"><ele>1.0</ele><time>2026-03-21T18:51:18.001Z</time></trkpt><trkpt lat="41.01099921890993" lon="9.501709499951303"><ele>1.0</ele><time>2026-03-21T18:51:19.001Z</time></trkpt><trkpt lat="41.01106514621056" lon="9.501941432545841"><ele>1.0</ele><time>2026-03-21T18:51:20.001Z</time></trkpt><trkpt lat="41.011135831048506" lon="9.502168915990845"><ele>1.0</ele><time>2026-03-21T18:51:21.001Z</time></trkpt><trkpt lat="41.01121599452241" lon="9.502395492867734"><ele>1.0</ele><time>2026-03-21T18:51:22.001Z</time></trkpt><trkpt lat="41.01130722243805" lon="9.502615055542378"><ele>1.0</ele><time>2026-03-21T18:51:23.001Z</time></trkpt><trkpt lat="41.01142606965153" lon="9.502817388713208"><ele>1.0</ele><time>2026-03-21T18:51:24.001Z</time></trkpt><trkpt lat="41.01157190036871" lon="9.502994206261766"><ele>1.3333333333333333</ele><time>2026-03-21T18:51:25.001Z</time></trkpt><trkpt lat="41.01173087508159" lon="9.503155635226646"><ele>1.6666666666666665</ele><time>2026-03-21T18:51:26.001Z</time></trkpt><trkpt lat="41.01188417839521" lon="9.503326598204476"><ele>2.0</ele><time>2026-03-21T18:51:27.001Z</time></trkpt><trkpt lat="41.0120380173611" lon="9.503504840828295"><ele>2.0</ele><time>2026-03-21T18:51:28.001Z</time></trkpt><trkpt lat="41.01219572321385" lon="9.503681930149684"><ele>2.0</ele><time>2026-03-21T18:51:29.001Z</time></trkpt><trkpt lat="41.012355152729086" lon="9.50385780870102"><ele>2.0</ele><time>2026-03-21T18:51:30.001Z</time></trkpt><trkpt lat="41.01251417092626" lon="9.504035653609188"><ele>2.6666666666666665</ele><time>2026-03-21T18:51:31.001Z</time></trkpt><trkpt lat="41.01267510893111" lon="9.504211064472516"><ele>3.333333333333333</ele><time>2026-03-21T18:51:32.001Z</time></trkpt><trkpt lat="41.01284506603116" lon="9.504375235985965"><ele>4.0</ele><time>2026-03-21T18:51:33.001Z</time></trkpt><trkpt lat="41.013010149183145" lon="9.504551806409545"><ele>3.6666666666666665</ele><time>2026-03-21T18:51:34.001Z</time></trkpt><trkpt lat="41.01317990117521" lon="9.504721281955081"><ele>3.333333333333333</ele><time>2026-03-21T18:51:35.001Z</time></trkpt><trkpt lat="41.013352090892866" lon="9.504888941552647"><ele>3.0</ele><time>2026-03-21T18:51:36.001Z</time></trkpt><trkpt lat="41.013559007564936" lon="9.504985200535472"><ele>3.0</ele><time>2026-03-21T18:51:37.001Z</time></trkpt><trkpt lat="41.013736735065464" lon="9.505145371345442"><ele>3.0</ele><time>2026-03-21T18:51:38.001Z</time></trkpt><trkpt lat="41.01391265656659" lon="9.505320421319023"><ele>3.0</ele><time>2026-03-21T18:51:39.001Z</time></trkpt><trkpt lat="41.01408581650824" lon="9.50551183116729"><ele>3.5</ele><time>2026-03-21T18:51:40.001Z</time></trkpt><trkpt lat="41.014260196988666" lon="9.505713527468524"><ele>4.0</ele><time>2026-03-21T18:51:41.001Z</time></trkpt><trkpt lat="41.014435799521955" lon="9.505917737312702"><ele>4.0</ele><time>2026-03-21T18:51:42.001Z</time></trkpt><trkpt lat="41.01461434284085" lon="9.50612441223982"><ele>4.0</ele><time>2026-03-21T18:51:43.001Z</time></trkpt><trkpt lat="41.014795330675" lon="9.506331837951574"><ele>3.0</ele><time>2026-03-21T18:51:44.001Z</time></trkpt><trkpt lat="41.014979914242524" lon="9.506544360505746"><ele>2.0</ele><time>2026-03-21T18:51:45.001Z</time></trkpt><trkpt lat="41.01516661084035" lon="9.506759611459367"><ele>2.0</ele><time>2026-03-21T18:51:46.001Z</time></trkpt><trkpt lat="41.015353720078316" lon="9.506977994411853"><ele>2.0</ele><time>2026-03-21T18:51:47.001Z</time></trkpt><trkpt lat="41.01554313432766" lon="9.507195882288556"><ele>2.5</ele><time>2026-03-21T18:51:48.001Z</time></trkpt><trkpt lat="41.01573320540291" lon="9.50741109369818"><ele>3.0</ele><time>2026-03-21T18:51:49.001Z</time></trkpt><trkpt lat="41.01592785818274" lon="9.507624334190304"><ele>3.0</ele><time>2026-03-21T18:51:50.001Z</time></trkpt><trkpt lat="41.016122521331575" lon="9.507838192446643"><ele>3.0</ele><time>2026-03-21T18:51:51.001Z</time></trkpt><trkpt lat="41.016317162715644" lon="9.508057795317937"><ele>3.5</ele><time>2026-03-21T18:51:52.001Z</time></trkpt><trkpt lat="41.01651010243839" lon="9.508284599589622"><ele>4.0</ele><time>2026-03-21T18:51:53.001Z</time></trkpt><trkpt lat="41.01669523613619" lon="9.508524724494233"><ele>3.0</ele><time>2026-03-21T18:51:54.001Z</time></trkpt><trkpt lat="41.01687478815548" lon="9.508775455912689"><ele>2.0</ele><time>2026-03-21T18:51:55.001Z</time></trkpt><trkpt lat="41.01705229717148" lon="9.509028279894496"><ele>2.0</ele><time>2026-03-21T18:51:56.001Z</time></trkpt><trkpt lat="41.01722925221521" lon="9.509284283315463"><ele>2.0</ele><time>2026-03-21T18:51:57.001Z</time></trkpt><trkpt lat="41.01740351237725" lon="9.5095430697252"><ele>3.0</ele><time>2026-03-21T18:51:58.001Z</time></trkpt><trkpt lat="41.01757437009489" lon="9.50980828850649"><ele>4.0</ele><time>2026-03-21T18:51:59.001Z</time></trkpt><trkpt lat="41.01774430101098" lon="9.510074830116336"><ele>4.0</ele><time>2026-03-21T18:52:00.001Z</time></trkpt><trkpt lat="41.017913841643704" lon="9.51033772020737"><ele>4.0</ele><time>2026-03-21T18:52:01.002Z</time></trkpt><trkpt lat="41.01808495256143" lon="9.51059940414361"><ele>3.0</ele><time>2026-03-21T18:52:02.002Z</time></trkpt><trkpt lat="41.01825550620196" lon="9.510862983234412"><ele>2.0</ele><time>2026-03-21T18:52:03.002Z</time></trkpt><trkpt lat="41.01842695593935" lon="9.511126820947782"><ele>3.5</ele><time>2026-03-21T18:52:04.002Z</time></trkpt><trkpt lat="41.01859749887973" lon="9.5113835870989"><ele>5.0</ele><time>2026-03-21T18:52:05.002Z</time></trkpt><trkpt lat="41.01876607485695" lon="9.51166174970479"><ele>5.0</ele><time>2026-03-21T18:52:06.002Z</time></trkpt><trkpt lat="41.018920440202685" lon="9.511953379829997"><ele>5.0</ele><time>2026-03-21T18:52:07.002Z</time></trkpt><trkpt lat="41.01906173276336" lon="9.512252351654942"><ele>5.0</ele><time>2026-03-21T18:52:08.002Z</time></trkpt><trkpt lat="41.019196014827166" lon="9.51255114878819"><ele>5.0</ele><time>2026-03-21T18:52:09.002Z</time></trkpt><trkpt lat="41.019329171588254" lon="9.51284639116477"><ele>4.0</ele><time>2026-03-21T18:52:10.002Z</time></trkpt><trkpt lat="41.01947153235706" lon="9.513128116203278"><ele>3.0</ele><time>2026-03-21T18:52:11.002Z</time></trkpt><trkpt lat="41.01963403491807" lon="9.513386299288273"><ele>3.0</ele><time>2026-03-21T18:52:12.002Z</time></trkpt><trkpt lat="41.01981992705428" lon="9.513621945343214"><ele>3.0</ele><time>2026-03-21T18:52:13.002Z</time></trkpt><trkpt lat="41.020020606533144" lon="9.513840655365069"><ele>4.0</ele><time>2026-03-21T18:52:14.002Z</time></trkpt><trkpt lat="41.02023269895504" lon="9.514045688372496"><ele>5.0</ele><time>2026-03-21T18:52:15.002Z</time></trkpt><trkpt lat="41.020442516267536" lon="9.514266584361224"><ele>5.0</ele><time>2026-03-21T18:52:16.002Z</time></trkpt><trkpt lat="41.02065401804385" lon="9.514478072473839"><ele>5.0</ele><time>2026-03-21T18:52:17.002Z</time></trkpt><trkpt lat="41.02087788648844" lon="9.514681149233475"><ele>4.5</ele><time>2026-03-21T18:52:18.002Z</time></trkpt><trkpt lat="41.02110188478362" lon="9.514882162444522"><ele>4.0</ele><time>2026-03-21T18:52:19.002Z</time></trkpt><trkpt lat="41.02132783179635" lon="9.51508487361527"><ele>4.0</ele><time>2026-03-21T18:52:20.002Z</time></trkpt><trkpt lat="41.021553583882394" lon="9.51528859827543"><ele>4.0</ele><time>2026-03-21T18:52:21.002Z</time></trkpt><trkpt lat="41.021781360220785" lon="9.515489942315638"><ele>3.0</ele><time>2026-03-21T18:52:22.002Z</time></trkpt><trkpt lat="41.022008959564175" lon="9.515685771988535"><ele>2.0</ele><time>2026-03-21T18:52:23.002Z</time></trkpt><trkpt lat="41.022231292277574" lon="9.515876376075655"><ele>2.0</ele><time>2026-03-21T18:52:24.002Z</time></trkpt><trkpt lat="41.02245647449893" lon="9.516066160395354"><ele>2.0</ele><time>2026-03-21T18:52:25.002Z</time></trkpt><trkpt lat="41.02268334677628" lon="9.516257173631837"><ele>2.0</ele><time>2026-03-21T18:52:26.002Z</time></trkpt><trkpt lat="41.02291111850706" lon="9.516424616776105"><ele>2.0</ele><time>2026-03-21T18:52:27.002Z</time></trkpt><trkpt lat="41.023146306500465" lon="9.516546781786712"><ele>4.0</ele><time>2026-03-21T18:52:28.002Z</time></trkpt><trkpt lat="41.02339253332347" lon="9.516625574076645"><ele>6.0</ele><time>2026-03-21T18:52:29.002Z</time></trkpt><trkpt lat="41.023636565274344" lon="9.516725619957063"><ele>6.0</ele><time>2026-03-21T18:52:30.002Z</time></trkpt><trkpt lat="41.02388108349918" lon="9.51683251063348"><ele>6.0</ele><time>2026-03-21T18:52:31.002Z</time></trkpt><trkpt lat="41.02412427814131" lon="9.51695082515677"><ele>3.0</ele><time>2026-03-21T18:52:32.002Z</time></trkpt><trkpt lat="41.02436070769935" lon="9.517094743927862"><ele>0.0</ele><time>2026-03-21T18:52:33.002Z</time></trkpt><trkpt lat="41.024596125452064" lon="9.517245556256448"><ele>0.0</ele><time>2026-03-21T18:52:34.002Z</time></trkpt><trkpt lat="41.02483027143095" lon="9.51739563049909"><ele>0.0</ele><time>2026-03-21T18:52:35.002Z</time></trkpt><trkpt lat="41.025064304623484" lon="9.517548816711143"><ele>1.5</ele><time>2026-03-21T18:52:36.002Z</time></trkpt><trkpt lat="41.025300003128365" lon="9.517701098570845"><ele>3.0</ele><time>2026-03-21T18:52:37.002Z</time></trkpt><trkpt lat="41.02552748930688" lon="9.517856240814101"><ele>2.5</ele><time>2026-03-21T18:52:38.002Z</time></trkpt><trkpt lat="41.02574771745593" lon="9.518004928379613"><ele>2.0</ele><time>2026-03-21T18:52:39.002Z</time></trkpt><trkpt lat="41.025979744489966" lon="9.518114548411816"><ele>2.0</ele><time>2026-03-21T18:52:40.002Z</time></trkpt><trkpt lat="41.02621461127541" lon="9.518151810213633"><ele>2.0</ele><time>2026-03-21T18:52:41.002Z</time></trkpt><trkpt lat="41.0264465662878" lon="9.518125421601678"><ele>2.6666666666666665</ele><time>2026-03-21T18:52:42.002Z</time></trkpt><trkpt lat="41.02665948704762" lon="9.518048313748578"><ele>3.333333333333333</ele><time>2026-03-21T18:52:43.002Z</time></trkpt><trkpt lat="41.02685676610382" lon="9.517948828757534"><ele>4.0</ele><time>2026-03-21T18:52:44.002Z</time></trkpt><trkpt lat="41.02705598910286" lon="9.517883310300244"><ele>4.0</ele><time>2026-03-21T18:52:45.002Z</time></trkpt><trkpt lat="41.027254868457874" lon="9.51786814411148"><ele>4.0</ele><time>2026-03-21T18:52:46.003Z</time></trkpt><trkpt lat="41.02744981854002" lon="9.517920178298148"><ele>4.0</ele><time>2026-03-21T18:52:47.003Z</time></trkpt><trkpt lat="41.027635612624216" lon="9.518004282586556"><ele>4.333333333333333</ele><time>2026-03-21T18:52:48.003Z</time></trkpt><trkpt lat="41.027820054741234" lon="9.518070598926885"><ele>4.666666666666667</ele><time>2026-03-21T18:52:49.003Z</time></trkpt><trkpt lat="41.028011673232896" lon="9.518102234666518"><ele>5.0</ele><time>2026-03-21T18:52:50.003Z</time></trkpt><trkpt lat="41.02820242486117" lon="9.518106519255738"><ele>6.0</ele><time>2026-03-21T18:52:51.003Z</time></trkpt><trkpt lat="41.02839161754996" lon="9.518082904455799"><ele>7.0</ele><time>2026-03-21T18:52:52.003Z</time></trkpt><trkpt lat="41.02858063042408" lon="9.518058770470073"><ele>8.0</ele><time>2026-03-21T18:52:53.003Z</time></trkpt><trkpt lat="41.028768982545174" lon="9.518047011990978"><ele>8.0</ele><time>2026-03-21T18:52:54.003Z</time></trkpt><trkpt lat="41.02895618388745" lon="9.518054838930968"><ele>8.0</ele><time>2026-03-21T18:52:55.003Z</time></trkpt><trkpt lat="41.02913744788367" lon="9.518115277613031"><ele>8.0</ele><time>2026-03-21T18:52:56.001Z</time></trkpt><trkpt lat="41.02929965587901" lon="9.518239853267017"><ele>10.333333333333332</ele><time>2026-03-21T18:52:57.001Z</time></trkpt><trkpt lat="41.02944604716448" lon="9.51837974168651"><ele>12.666666666666666</ele><time>2026-03-21T18:52:58.001Z</time></trkpt><trkpt lat="41.02959037764654" lon="9.518519320239635"><ele>15.0</ele><time>2026-03-21T18:52:59.001Z</time></trkpt><trkpt lat="41.02971762260862" lon="9.518682271594239"><ele>13.333333333333334</ele><time>2026-03-21T18:53:00.001Z</time></trkpt><trkpt lat="41.029812857273754" lon="9.518879956497198"><ele>11.666666666666668</ele><time>2026-03-21T18:53:01.001Z</time></trkpt><trkpt lat="41.02987185559895" lon="9.519098413133518"><ele>10.0</ele><time>2026-03-21T18:53:02.001Z</time></trkpt><trkpt lat="41.02993237402847" lon="9.519309180121363"><ele>12.0</ele><time>2026-03-21T18:53:03.001Z</time></trkpt><trkpt lat="41.03002474136932" lon="9.519496695132826"><ele>14.0</ele><time>2026-03-21T18:53:04.001Z</time></trkpt><trkpt lat="41.030159187301685" lon="9.519628979536561"><ele>16.0</ele><time>2026-03-21T18:53:05.001Z</time></trkpt><trkpt lat="41.03031816464824" lon="9.519701017848615"><ele>16.0</ele><time>2026-03-21T18:53:06.001Z</time></trkpt><trkpt lat="41.030481762410965" lon="9.51972095225517"><ele>16.0</ele><time>2026-03-21T18:53:07.001Z</time></trkpt><trkpt lat="41.03064315347157" lon="9.51970911350764"><ele>16.0</ele><time>2026-03-21T18:53:08.001Z</time></trkpt><trkpt lat="41.030802991160954" lon="9.51968702547406"><ele>17.333333333333332</ele><time>2026-03-21T18:53:09.001Z</time></trkpt><trkpt lat="41.030960546976274" lon="9.519640671604595"><ele>18.666666666666668</ele><time>2026-03-21T18:53:10.001Z</time></trkpt><trkpt lat="41.03110783603848" lon="9.51955928088788"><ele>20.0</ele><time>2026-03-21T18:53:11.001Z</time></trkpt><trkpt lat="41.03125251733714" lon="9.519473706055285"><ele>25.333333333333336</ele><time>2026-03-21T18:53:12.001Z</time></trkpt><trkpt lat="41.03140016091722" lon="9.519397144589181"><ele>30.666666666666668</ele><time>2026-03-21T18:53:13.001Z</time></trkpt><trkpt lat="41.031551146288415" lon="9.51933473085095"><ele>36.0</ele><time>2026-03-21T18:53:14.001Z</time></trkpt><trkpt lat="41.031704597319994" lon="9.51929445970842"><ele>37.0</ele><time>2026-03-21T18:53:15.001Z</time></trkpt><trkpt lat="41.03186086601867" lon="9.519273613302472"><ele>38.0</ele><time>2026-03-21T18:53:16.001Z</time></trkpt><trkpt lat="41.03201809032034" lon="9.519268684522597"><ele>39.0</ele><time>2026-03-21T18:53:17.001Z</time></trkpt><trkpt lat="41.032174186580164" lon="9.519258540966728"><ele>39.0</ele><time>2026-03-21T18:53:18.001Z</time></trkpt><trkpt lat="41.03232934720427" lon="9.519214679032048"><ele>39.0</ele><time>2026-03-21T18:53:19.001Z</time></trkpt><trkpt lat="41.03248136730556" lon="9.51914195556854"><ele>39.0</ele><time>2026-03-21T18:53:20.001Z</time></trkpt><trkpt lat="41.03262652022463" lon="9.519054941651625"><ele>39.333333333333336</ele><time>2026-03-21T18:53:21.001Z</time></trkpt><trkpt lat="41.03277232659699" lon="9.518972706752402"><ele>39.66666666666667</ele><time>2026-03-21T18:53:22.001Z</time></trkpt><trkpt lat="41.0329270180484" lon="9.518934407205137"><ele>40.0</ele><time>2026-03-21T18:53:23.001Z</time></trkpt><trkpt lat="41.03308535179612" lon="9.518946340913761"><ele>40.0</ele><time>2026-03-21T18:53:24.001Z</time></trkpt><trkpt lat="41.033237596289815" lon="9.518988375704891"><ele>40.0</ele><time>2026-03-21T18:53:25.001Z</time></trkpt><trkpt lat="41.03338945680465" lon="9.518999756584416"><ele>40.0</ele><time>2026-03-21T18:53:26.001Z</time></trkpt><trkpt lat="41.03354100806765" lon="9.518955383846375"><ele>41.333333333333336</ele><time>2026-03-21T18:53:27.001Z</time></trkpt><trkpt lat="41.033675448626795" lon="9.518852558676874"><ele>42.666666666666664</ele><time>2026-03-21T18:53:28.001Z</time></trkpt><trkpt lat="41.03378592406086" lon="9.518714186616435"><ele>44.0</ele><time>2026-03-21T18:53:29.001Z</time></trkpt><trkpt lat="41.033869928994065" lon="9.518545125432816"><ele>47.0</ele><time>2026-03-21T18:53:30.001Z</time></trkpt><trkpt lat="41.033972122811974" lon="9.518396194609785"><ele>50.0</ele><time>2026-03-21T18:53:31.001Z</time></trkpt><trkpt lat="41.03409245830534" lon="9.518271529367306"><ele>53.0</ele><time>2026-03-21T18:53:32.001Z</time></trkpt><trkpt lat="41.03422801054792" lon="9.518182490859543"><ele>53.0</ele><time>2026-03-21T18:53:33.001Z</time></trkpt><trkpt lat="41.03436793985996" lon="9.518108107635559"><ele>53.0</ele><time>2026-03-21T18:53:34.001Z</time></trkpt><trkpt lat="41.034505943103355" lon="9.51803114904793"><ele>53.0</ele><time>2026-03-21T18:53:35.001Z</time></trkpt><trkpt lat="41.03464151512362" lon="9.517944039796555"><ele>56.0</ele><time>2026-03-21T18:53:36.001Z</time></trkpt><trkpt lat="41.03476972205421" lon="9.517836672487036"><ele>59.0</ele><time>2026-03-21T18:53:37.001Z</time></trkpt><trkpt lat="41.03489118928468" lon="9.517715258693721"><ele>62.0</ele><time>2026-03-21T18:53:38.001Z</time></trkpt><trkpt lat="41.03500863803691" lon="9.51758296358619"><ele>62.0</ele><time>2026-03-21T18:53:39.001Z</time></trkpt><trkpt lat="41.03511702816983" lon="9.5174324191913"><ele>62.0</ele><time>2026-03-21T18:53:40.001Z</time></trkpt><trkpt lat="41.03520881126848" lon="9.517262390390696"><ele>62.0</ele><time>2026-03-21T18:53:41.001Z</time></trkpt><trkpt lat="41.035287520662465" lon="9.51707532375717"><ele>66.0</ele><time>2026-03-21T18:53:42.001Z</time></trkpt><trkpt lat="41.03535932465786" lon="9.516879349606032"><ele>70.0</ele><time>2026-03-21T18:53:43.001Z</time></trkpt><trkpt lat="41.03543794805701" lon="9.516683434620923"><ele>74.0</ele><time>2026-03-21T18:53:44.001Z</time></trkpt><trkpt lat="41.03553299592443" lon="9.516500408877894"><ele>74.0</ele><time>2026-03-21T18:53:45.001Z</time></trkpt><trkpt lat="41.03563543900911" lon="9.516322518082736"><ele>74.0</ele><time>2026-03-21T18:53:46.001Z</time></trkpt><trkpt lat="41.035747815115464" lon="9.516156422341563"><ele>74.0</ele><time>2026-03-21T18:53:47.001Z</time></trkpt><trkpt lat="41.03586447646713" lon="9.515993759894222"><ele>75.33333333333334</ele><time>2026-03-21T18:53:48.001Z</time></trkpt><trkpt lat="41.03597742869338" lon="9.515823539433345"><ele>76.66666666666667</ele><time>2026-03-21T18:53:49.001Z</time></trkpt><trkpt lat="41.036082876867546" lon="9.515643074608718"><ele>78.0</ele><time>2026-03-21T18:53:50.001Z</time></trkpt><trkpt lat="41.03617681623143" lon="9.515447733968532"><ele>80.33333333333333</ele><time>2026-03-21T18:53:51.001Z</time></trkpt><trkpt lat="41.036259489954006" lon="9.51524006923574"><ele>82.66666666666666</ele><time>2026-03-21T18:53:52.001Z</time></trkpt><trkpt lat="41.0363488221841" lon="9.515035482969221"><ele>85.0</ele><time>2026-03-21T18:53:53.001Z</time></trkpt><trkpt lat="41.036461265385995" lon="9.514852599542287"><ele>85.0</ele><time>2026-03-21T18:53:54.001Z</time></trkpt><trkpt lat="41.036588097102864" lon="9.514686083884719"><ele>85.0</ele><time>2026-03-21T18:53:55.001Z</time></trkpt><trkpt lat="41.03672064402011" lon="9.51452455985875"><ele>85.0</ele><time>2026-03-21T18:53:56.001Z</time></trkpt><trkpt lat="41.03684735270203" lon="9.51435557983267"><ele>85.66666666666666</ele><time>2026-03-21T18:53:57.001Z</time></trkpt><trkpt lat="41.03697522780434" lon="9.514185996408386"><ele>86.33333333333333</ele><time>2026-03-21T18:53:58.001Z</time></trkpt><trkpt lat="41.03710370844704" lon="9.514013906662626"><ele>87.0</ele><time>2026-03-21T18:53:59.001Z</time></trkpt><trkpt lat="41.03723280707123" lon="9.51384066864876"><ele>90.66666666666666</ele><time>2026-03-21T18:54:00.001Z</time></trkpt><trkpt lat="41.03733954760914" lon="9.513641292992299"><ele>94.33333333333333</ele><time>2026-03-21T18:54:01.001Z</time></trkpt><trkpt lat="41.037416492835106" lon="9.513415222818011"><ele>98.0</ele><time>2026-03-21T18:54:02.001Z</time></trkpt><trkpt lat="41.03745671451915" lon="9.513174647037477"><ele>96.66666666666666</ele><time>2026-03-21T18:54:03.001Z</time></trkpt><trkpt lat="41.03749501270343" lon="9.512933147837009"><ele>95.33333333333333</ele><time>2026-03-21T18:54:04.001Z</time></trkpt><trkpt lat="41.03753148478582" lon="9.512690933263348"><ele>94.0</ele><time>2026-03-21T18:54:05.001Z</time></trkpt><trkpt lat="41.03756815477385" lon="9.512448664348993"><ele>94.0</ele><time>2026-03-21T18:54:06.002Z</time></trkpt><trkpt lat="41.037608486474944" lon="9.512206569698945"><ele>94.0</ele><time>2026-03-21T18:54:07.002Z</time></trkpt><trkpt lat="41.037651265573594" lon="9.51196437516275"><ele>94.0</ele><time>2026-03-21T18:54:08.002Z</time></trkpt><trkpt lat="41.037688986997566" lon="9.511719714207633"><ele>96.0</ele><time>2026-03-21T18:54:09.002Z</time></trkpt><trkpt lat="41.03769165437494" lon="9.51146529878985"><ele>98.0</ele><time>2026-03-21T18:54:10.002Z</time></trkpt><trkpt lat="41.03767033444944" lon="9.51121520012521"><ele>100.0</ele><time>2026-03-21T18:54:11.002Z</time></trkpt><trkpt lat="41.037637906661736" lon="9.510970428312104"><ele>100.33333333333334</ele><time>2026-03-21T18:54:12.002Z</time></trkpt><trkpt lat="41.03760272490062" lon="9.510718725996465"><ele>100.66666666666666</ele><time>2026-03-21T18:54:13.002Z</time></trkpt><trkpt lat="41.03757122663393" lon="9.510465492391996"><ele>101.0</ele><time>2026-03-21T18:54:14.002Z</time></trkpt><trkpt lat="41.037550300155736" lon="9.510209102751597"><ele>101.33333333333333</ele><time>2026-03-21T18:54:15.002Z</time></trkpt><trkpt lat="41.037563019096076" lon="9.509950873188698"><ele>101.66666666666666</ele><time>2026-03-21T18:54:16.002Z</time></trkpt><trkpt lat="41.03762805015567" lon="9.509709403540167"><ele>102.0</ele><time>2026-03-21T18:54:17.002Z</time></trkpt><trkpt lat="41.0377034667128" lon="9.509472614863673"><ele>103.33333333333334</ele><time>2026-03-21T18:54:18.002Z</time></trkpt><trkpt lat="41.03777642859408" lon="9.50923089069907"><ele>104.66666666666667</ele><time>2026-03-21T18:54:19.002Z</time></trkpt><trkpt lat="41.037855638362004" lon="9.508988607875544"><ele>106.0</ele><time>2026-03-21T18:54:20.002Z</time></trkpt><trkpt lat="41.03791680550204" lon="9.508735260388951"><ele>107.33333333333334</ele><time>2026-03-21T18:54:21.002Z</time></trkpt><trkpt lat="41.03795084758347" lon="9.508468045653109"><ele>108.66666666666666</ele><time>2026-03-21T18:54:22.002Z</time></trkpt><trkpt lat="41.03795322355422" lon="9.508197755466297"><ele>110.0</ele><time>2026-03-21T18:54:23.002Z</time></trkpt><trkpt lat="41.037925250057896" lon="9.507930692903448"><ele>110.33333333333333</ele><time>2026-03-21T18:54:24.002Z</time></trkpt><trkpt lat="41.03786243751019" lon="9.507672350847196"><ele>110.66666666666666</ele><time>2026-03-21T18:54:25.002Z</time></trkpt><trkpt lat="41.037769813724005" lon="9.507428658952767"><ele>111.0</ele><time>2026-03-21T18:54:26.002Z</time></trkpt><trkpt lat="41.03765413697708" lon="9.50720652062519"><ele>110.33333333333334</ele><time>2026-03-21T18:54:27.002Z</time></trkpt><trkpt lat="41.037561536104256" lon="9.506970481963531"><ele>109.66666666666667</ele><time>2026-03-21T18:54:28.002Z</time></trkpt><trkpt lat="41.03746130506713" lon="9.50674628503971"><ele>109.0</ele><time>2026-03-21T18:54:29.002Z</time></trkpt><trkpt lat="41.037386794995186" lon="9.50650144421055"><ele>110.66666666666667</ele><time>2026-03-21T18:54:30.002Z</time></trkpt><trkpt lat="41.03733490303757" lon="9.50624295441111"><ele>112.33333333333334</ele><time>2026-03-21T18:54:31.002Z</time></trkpt><trkpt lat="41.03733924246322" lon="9.50597353072822"><ele>114.0</ele><time>2026-03-21T18:54:32.002Z</time></trkpt><trkpt lat="41.037370582828466" lon="9.505703872195799"><ele>114.0</ele><time>2026-03-21T18:54:33.002Z</time></trkpt><trkpt lat="41.03741158297917" lon="9.505435075982815"><ele>114.0</ele><time>2026-03-21T18:54:34.002Z</time></trkpt><trkpt lat="41.03745057270597" lon="9.505161996255149"><ele>114.0</ele><time>2026-03-21T18:54:35.002Z</time></trkpt><trkpt lat="41.03748649562948" lon="9.50489008863937"><ele>114.0</ele><time>2026-03-21T18:54:36.002Z</time></trkpt><trkpt lat="41.03752066966802" lon="9.50461709305121"><ele>114.0</ele><time>2026-03-21T18:54:37.002Z</time></trkpt><trkpt lat="41.03755442330253" lon="9.504343927193272"><ele>114.0</ele><time>2026-03-21T18:54:38.002Z</time></trkpt><trkpt lat="41.03759147952539" lon="9.504070347660937"><ele>115.33333333333334</ele><time>2026-03-21T18:54:39.002Z</time></trkpt><trkpt lat="41.0376318646104" lon="9.503798321821577"><ele>116.66666666666667</ele><time>2026-03-21T18:54:40.002Z</time></trkpt><trkpt lat="41.03767017510185" lon="9.503525277185574"><ele>118.0</ele><time>2026-03-21T18:54:41.002Z</time></trkpt><trkpt lat="41.03770680392817" lon="9.503250066546764"><ele>119.33333333333334</ele><time>2026-03-21T18:54:42.002Z</time></trkpt><trkpt lat="41.037743839002324" lon="9.502977584153845"><ele>120.66666666666666</ele><time>2026-03-21T18:54:43.002Z</time></trkpt><trkpt lat="41.03778232655816" lon="9.502707391934125"><ele>122.0</ele><time>2026-03-21T18:54:44.002Z</time></trkpt><trkpt lat="41.037824526135225" lon="9.502435911386527"><ele>123.66666666666666</ele><time>2026-03-21T18:54:45.002Z</time></trkpt><trkpt lat="41.03788472747502" lon="9.502171433091487"><ele>125.33333333333334</ele><time>2026-03-21T18:54:46.002Z</time></trkpt><trkpt lat="41.03796224743172" lon="9.501915367921644"><ele>127.0</ele><time>2026-03-21T18:54:47.002Z</time></trkpt><trkpt lat="41.03805520637143" lon="9.501668062481057"><ele>129.66666666666669</ele><time>2026-03-21T18:54:48.002Z</time></trkpt><trkpt lat="41.03814891006421" lon="9.501422653176515"><ele>132.33333333333334</ele><time>2026-03-21T18:54:49.002Z</time></trkpt><trkpt lat="41.03823956707946" lon="9.501176433564087"><ele>135.0</ele><time>2026-03-21T18:54:50.002Z</time></trkpt><trkpt lat="41.038325273126205" lon="9.500928286097885"><ele>135.33333333333334</ele><time>2026-03-21T18:54:51.002Z</time></trkpt><trkpt lat="41.03841424730805" lon="9.500680001845826"><ele>135.66666666666669</ele><time>2026-03-21T18:54:52.002Z</time></trkpt><trkpt lat="41.0385061646681" lon="9.50043050426091"><ele>136.0</ele><time>2026-03-21T18:54:53.002Z</time></trkpt><trkpt lat="41.03859736462593" lon="9.500178847075933"><ele>138.33333333333334</ele><time>2026-03-21T18:54:54.002Z</time></trkpt><trkpt lat="41.038690841937516" lon="9.499924612457065"><ele>140.66666666666666</ele><time>2026-03-21T18:54:55.002Z</time></trkpt><trkpt lat="41.03878469824919" lon="9.499666168257354"><ele>143.0</ele><time>2026-03-21T18:54:56.002Z</time></trkpt><trkpt lat="41.038877536417694" lon="9.499400060280477"><ele>147.0</ele><time>2026-03-21T18:54:57.002Z</time></trkpt><trkpt lat="41.038964857555186" lon="9.499125745018878"><ele>151.0</ele><time>2026-03-21T18:54:58.003Z</time></trkpt><trkpt lat="41.0390487138382" lon="9.498845912487075"><ele>153.5</ele><time>2026-03-21T18:54:59.003Z</time></trkpt><trkpt lat="41.039131504220826" lon="9.498560873286221"><ele>156.0</ele><time>2026-03-21T18:55:00.003Z</time></trkpt><trkpt lat="41.039211994275036" lon="9.498272289820644"><ele>150.0</ele><time>2026-03-21T18:55:01.003Z</time></trkpt><trkpt lat="41.03929473323344" lon="9.49797930682141"><ele>144.0</ele><time>2026-03-21T18:55:02.001Z</time></trkpt><trkpt lat="41.039380036226795" lon="9.49768325618527"><ele>144.0</ele><time>2026-03-21T18:55:03.001Z</time></trkpt><trkpt lat="41.03946476983346" lon="9.497394843303645"><ele>144.0</ele><time>2026-03-21T18:55:04.001Z</time></trkpt><trkpt lat="41.039547803707634" lon="9.497107595828906"><ele>146.0</ele><time>2026-03-21T18:55:05.001Z</time></trkpt><trkpt lat="41.03961550131362" lon="9.496816424982539"><ele>148.0</ele><time>2026-03-21T18:55:06.001Z</time></trkpt><trkpt lat="41.039656123986866" lon="9.496518234015086"><ele>148.0</ele><time>2026-03-21T18:55:07.001Z</time></trkpt><trkpt lat="41.03964982098508" lon="9.496228059978856"><ele>148.0</ele><time>2026-03-21T18:55:08.001Z</time></trkpt><trkpt lat="41.03958555919688" lon="9.495940081382384"><ele>148.0</ele><time>2026-03-21T18:55:09.001Z</time></trkpt><trkpt lat="41.03948701048691" lon="9.495670546939277"><ele>145.0</ele><time>2026-03-21T18:55:10.001Z</time></trkpt><trkpt lat="41.03937376795635" lon="9.495410565120125"><ele>142.0</ele><time>2026-03-21T18:55:11.001Z</time></trkpt><trkpt lat="41.039268444225904" lon="9.495141564142596"><ele>142.0</ele><time>2026-03-21T18:55:12.001Z</time></trkpt><trkpt lat="41.039166416409245" lon="9.494864251689206"><ele>142.0</ele><time>2026-03-21T18:55:13.001Z</time></trkpt><trkpt lat="41.039062656906914" lon="9.49458413651157"><ele>147.0</ele><time>2026-03-21T18:55:14.001Z</time></trkpt><trkpt lat="41.03895721282859" lon="9.494303761017571"><ele>152.0</ele><time>2026-03-21T18:55:15.001Z</time></trkpt><trkpt lat="41.03885749789437" lon="9.494026657081875"><ele>146.5</ele><time>2026-03-21T18:55:16.001Z</time></trkpt><trkpt lat="41.03876756083676" lon="9.493745260111703"><ele>141.0</ele><time>2026-03-21T18:55:17.001Z</time></trkpt><trkpt lat="41.03870650806125" lon="9.493451959045984"><ele>141.0</ele><time>2026-03-21T18:55:18.001Z</time></trkpt><trkpt lat="41.03868178441815" lon="9.49314119524836"><ele>141.0</ele><time>2026-03-21T18:55:19.001Z</time></trkpt><trkpt lat="41.038629119110176" lon="9.49284266929447"><ele>143.0</ele><time>2026-03-21T18:55:20.001Z</time></trkpt><trkpt lat="41.038648842621036" lon="9.492512671272303"><ele>145.0</ele><time>2026-03-21T18:55:21.001Z</time></trkpt><trkpt lat="41.038624147532566" lon="9.492200455092584"><ele>145.5</ele><time>2026-03-21T18:55:22.001Z</time></trkpt><trkpt lat="41.038602032815135" lon="9.491884820833738"><ele>146.0</ele><time>2026-03-21T18:55:23.001Z</time></trkpt><trkpt lat="41.03857916627171" lon="9.491570239649606"><ele>147.0</ele><time>2026-03-21T18:55:24.001Z</time></trkpt><trkpt lat="41.038558726934646" lon="9.491254232191277"><ele>148.0</ele><time>2026-03-21T18:55:25.001Z</time></trkpt><trkpt lat="41.03854202823587" lon="9.490937324572778"><ele>148.0</ele><time>2026-03-21T18:55:26.001Z</time></trkpt><trkpt lat="41.03852178937945" lon="9.490621879547696"><ele>148.0</ele><time>2026-03-21T18:55:27.001Z</time></trkpt><trkpt lat="41.03850318801626" lon="9.490307664521648"><ele>151.5</ele><time>2026-03-21T18:55:28.001Z</time></trkpt><trkpt lat="41.038467478806155" lon="9.489997376275243"><ele>155.0</ele><time>2026-03-21T18:55:29.001Z</time></trkpt><trkpt lat="41.03840301408416" lon="9.489696228983515"><ele>155.0</ele><time>2026-03-21T18:55:30.001Z</time></trkpt><trkpt lat="41.03832210115313" lon="9.489405869158288"><ele>155.0</ele><time>2026-03-21T18:55:31.001Z</time></trkpt><trkpt lat="41.03823202355862" lon="9.489121325880163"><ele>155.0</ele><time>2026-03-21T18:55:32.001Z</time></trkpt><trkpt lat="41.038141768666875" lon="9.488837767278167"><ele>155.0</ele><time>2026-03-21T18:55:33.001Z</time></trkpt><trkpt lat="41.03805401528842" lon="9.488552325419148"><ele>159.5</ele><time>2026-03-21T18:55:34.001Z</time></trkpt><trkpt lat="41.037966572250824" lon="9.488264386054864"><ele>164.0</ele><time>2026-03-21T18:55:35.001Z</time></trkpt><trkpt lat="41.037879435618706" lon="9.487981270811549"><ele>165.5</ele><time>2026-03-21T18:55:36.001Z</time></trkpt><trkpt lat="41.03779375515485" lon="9.4877011991317"><ele>167.0</ele><time>2026-03-21T18:55:37.001Z</time></trkpt><trkpt lat="41.03771060960384" lon="9.487419613631356"><ele>167.0</ele><time>2026-03-21T18:55:38.001Z</time></trkpt><trkpt lat="41.03762433377949" lon="9.487143768066767"><ele>167.0</ele><time>2026-03-21T18:55:39.001Z</time></trkpt><trkpt lat="41.037539669711414" lon="9.48687577442901"><ele>167.0</ele><time>2026-03-21T18:55:40.001Z</time></trkpt><trkpt lat="41.037457995472636" lon="9.486607254816224"><ele>170.0</ele><time>2026-03-21T18:55:41.001Z</time></trkpt><trkpt lat="41.03737357243762" lon="9.486344486038853"><ele>173.0</ele><time>2026-03-21T18:55:42.001Z</time></trkpt><trkpt lat="41.03727260901844" lon="9.486096761706573"><ele>176.0</ele><time>2026-03-21T18:55:43.001Z</time></trkpt><trkpt lat="41.03714436383988" lon="9.485877689756913"><ele>176.0</ele><time>2026-03-21T18:55:44.001Z</time></trkpt><trkpt lat="41.03700467421711" lon="9.485675066049172"><ele>176.0</ele><time>2026-03-21T18:55:45.001Z</time></trkpt><trkpt lat="41.03685862893233" lon="9.485492632687517"><ele>176.0</ele><time>2026-03-21T18:55:46.001Z</time></trkpt><trkpt lat="41.03671625168815" lon="9.485333172477812"><ele>177.33333333333331</ele><time>2026-03-21T18:55:47.001Z</time></trkpt><trkpt lat="41.036572753911166" lon="9.485194058874228"><ele>178.66666666666666</ele><time>2026-03-21T18:55:48.001Z</time></trkpt><trkpt lat="41.036415064863405" lon="9.485105829005594"><ele>180.0</ele><time>2026-03-21T18:55:49.001Z</time></trkpt><trkpt lat="41.03625392389067" lon="9.485080591661411"><ele>180.0</ele><time>2026-03-21T18:55:50.001Z</time></trkpt><trkpt lat="41.03610841412816" lon="9.48504715193327"><ele>180.0</ele><time>2026-03-21T18:55:51.001Z</time></trkpt><trkpt lat="41.035988403282765" lon="9.484948222407802"><ele>180.0</ele><time>2026-03-21T18:55:52.001Z</time></trkpt><trkpt lat="41.03591484815175" lon="9.484797410763937"><ele>180.0</ele><time>2026-03-21T18:55:53.001Z</time></trkpt><trkpt lat="41.03590472969812" lon="9.484628236460596"><ele>180.75</ele><time>2026-03-21T18:55:54.001Z</time></trkpt><trkpt lat="41.03595640558379" lon="9.484472620125882"><ele>181.5</ele><time>2026-03-21T18:55:55.001Z</time></trkpt><trkpt lat="41.036042465258305" lon="9.484351720712649"><ele>182.25</ele><time>2026-03-21T18:55:56.001Z</time></trkpt><trkpt lat="41.03615866277475" lon="9.484272489868301"><ele>183.0</ele><time>2026-03-21T18:55:57.001Z</time></trkpt><trkpt lat="41.036278837547556" lon="9.484200089733024"><ele>183.0</ele><time>2026-03-21T18:55:58.001Z</time></trkpt><trkpt lat="41.036408421761884" lon="9.48417218418133"><ele>183.0</ele><time>2026-03-21T18:55:59.001Z</time></trkpt><trkpt lat="41.036545349201184" lon="9.484215622465888"><ele>183.0</ele><time>2026-03-21T18:56:00.001Z</time></trkpt><trkpt lat="41.03667290496731" lon="9.48430134899099"><ele>183.0</ele><time>2026-03-21T18:56:01.001Z</time></trkpt><trkpt lat="41.03679333285172" lon="9.484388121971827"><ele>183.0</ele><time>2026-03-21T18:56:02.001Z</time></trkpt><trkpt lat="41.036920568326806" lon="9.484461370901247"><ele>183.0</ele><time>2026-03-21T18:56:03.001Z</time></trkpt><trkpt lat="41.03705997011175" lon="9.484505217804685"><ele>183.0</ele><time>2026-03-21T18:56:04.001Z</time></trkpt><trkpt lat="41.037204143196995" lon="9.484521801837339"><ele>183.0</ele><time>2026-03-21T18:56:05.001Z</time></trkpt><trkpt lat="41.037353788423786" lon="9.484505404810065"><ele>185.66666666666666</ele><time>2026-03-21T18:56:06.001Z</time></trkpt><trkpt lat="41.03750368998368" lon="9.484471447751355"><ele>188.33333333333331</ele><time>2026-03-21T18:56:07.001Z</time></trkpt><trkpt lat="41.03765562950431" lon="9.484436265472409"><ele>191.0</ele><time>2026-03-21T18:56:08.001Z</time></trkpt><trkpt lat="41.03780831285516" lon="9.484403952625506"><ele>191.0</ele><time>2026-03-21T18:56:09.001Z</time></trkpt><trkpt lat="41.037962917761526" lon="9.48437366681962"><ele>191.0</ele><time>2026-03-21T18:56:10.001Z</time></trkpt><trkpt lat="41.038118151030275" lon="9.48434536378854"><ele>191.0</ele><time>2026-03-21T18:56:11.001Z</time></trkpt><trkpt lat="41.03827262699811" lon="9.48431489517759"><ele>191.33333333333331</ele><time>2026-03-21T18:56:12.001Z</time></trkpt><trkpt lat="41.038424085195764" lon="9.484262037500944"><ele>191.66666666666666</ele><time>2026-03-21T18:56:13.001Z</time></trkpt><trkpt lat="41.038567658289864" lon="9.48417886090741"><ele>192.0</ele><time>2026-03-21T18:56:14.001Z</time></trkpt><trkpt lat="41.03870629561615" lon="9.484072007711507"><ele>192.0</ele><time>2026-03-21T18:56:15.001Z</time></trkpt><trkpt lat="41.03883492386938" lon="9.483943203812604"><ele>192.0</ele><time>2026-03-21T18:56:16.001Z</time></trkpt><trkpt lat="41.03895631269859" lon="9.483801789316097"><ele>192.0</ele><time>2026-03-21T18:56:17.001Z</time></trkpt><trkpt lat="41.03907963814866" lon="9.483660325151078"><ele>194.33333333333331</ele><time>2026-03-21T18:56:18.001Z</time></trkpt><trkpt lat="41.03920227728764" lon="9.483517826918623"><ele>196.66666666666666</ele><time>2026-03-21T18:56:19.001Z</time></trkpt><trkpt lat="41.03932917424512" lon="9.483379556485062"><ele>199.0</ele><time>2026-03-21T18:56:20.001Z</time></trkpt><trkpt lat="41.03945537401637" lon="9.483238872812665"><ele>199.0</ele><time>2026-03-21T18:56:21.001Z</time></trkpt><trkpt lat="41.039583120294175" lon="9.483098290505312"><ele>199.0</ele><time>2026-03-21T18:56:22.001Z</time></trkpt><trkpt lat="41.03970996438156" lon="9.48295783471674"><ele>199.0</ele><time>2026-03-21T18:56:23.001Z</time></trkpt><trkpt lat="41.03983827507654" lon="9.482817478501113"><ele>202.0</ele><time>2026-03-21T18:56:24.001Z</time></trkpt><trkpt lat="41.039962867397605" lon="9.482672528076519"><ele>205.0</ele><time>2026-03-21T18:56:25.001Z</time></trkpt><trkpt lat="41.04007966228563" lon="9.482516802699983"><ele>208.0</ele><time>2026-03-21T18:56:26.002Z</time></trkpt><trkpt lat="41.040186526482394" lon="9.482345679033545"><ele>208.0</ele><time>2026-03-21T18:56:27.002Z</time></trkpt><trkpt lat="41.040286676900614" lon="9.48216719534466"><ele>208.0</ele><time>2026-03-21T18:56:28.002Z</time></trkpt><trkpt lat="41.04038971051559" lon="9.48198635710321"><ele>208.0</ele><time>2026-03-21T18:56:29.002Z</time></trkpt><trkpt lat="41.04049663100546" lon="9.4818059343124"><ele>209.0</ele><time>2026-03-21T18:56:30.002Z</time></trkpt><trkpt lat="41.040604425852784" lon="9.481623495449126"><ele>210.0</ele><time>2026-03-21T18:56:31.002Z</time></trkpt><trkpt lat="41.04070947418443" lon="9.481444174088985"><ele>211.0</ele><time>2026-03-21T18:56:32.002Z</time></trkpt><trkpt lat="41.040815187608395" lon="9.481258961056442"><ele>211.0</ele><time>2026-03-21T18:56:33.002Z</time></trkpt><trkpt lat="41.040923513763566" lon="9.48106910120598"><ele>211.0</ele><time>2026-03-21T18:56:34.002Z</time></trkpt><trkpt lat="41.041037894557356" lon="9.48087712328333"><ele>211.0</ele><time>2026-03-21T18:56:35.002Z</time></trkpt><trkpt lat="41.04116432887406" lon="9.480691487241716"><ele>211.0</ele><time>2026-03-21T18:56:36.002Z</time></trkpt><trkpt lat="41.04131129413866" lon="9.480529432264122"><ele>211.0</ele><time>2026-03-21T18:56:37.002Z</time></trkpt><trkpt lat="41.04146878649075" lon="9.480389140960556"><ele>211.0</ele><time>2026-03-21T18:56:38.002Z</time></trkpt><trkpt lat="41.041650125053756" lon="9.480273224489652"><ele>209.66666666666666</ele><time>2026-03-21T18:56:39.002Z</time></trkpt><trkpt lat="41.04184387922366" lon="9.480194584076006"><ele>208.33333333333331</ele><time>2026-03-21T18:56:40.002Z</time></trkpt><trkpt lat="41.042048295913546" lon="9.480154481753779"><ele>207.0</ele><time>2026-03-21T18:56:41.002Z</time></trkpt><trkpt lat="41.04225654060003" lon="9.480112575900463"><ele>206.33333333333331</ele><time>2026-03-21T18:56:42.002Z</time></trkpt><trkpt lat="41.04246864963843" lon="9.480076352300763"><ele>205.66666666666666</ele><time>2026-03-21T18:56:43.002Z</time></trkpt><trkpt lat="41.04267812798535" lon="9.480035865074152"><ele>205.0</ele><time>2026-03-21T18:56:44.002Z</time></trkpt><trkpt lat="41.04288470820501" lon="9.47999334273475"><ele>205.0</ele><time>2026-03-21T18:56:45.002Z</time></trkpt><trkpt lat="41.0430895910418" lon="9.479944551482342"><ele>205.0</ele><time>2026-03-21T18:56:46.002Z</time></trkpt><trkpt lat="41.04329194822444" lon="9.479887413942338"><ele>205.0</ele><time>2026-03-21T18:56:47.002Z</time></trkpt><trkpt lat="41.04349299329673" lon="9.47982981320484"><ele>205.0</ele><time>2026-03-21T18:56:48.002Z</time></trkpt><trkpt lat="41.04369228462508" lon="9.479771368682043"><ele>205.0</ele><time>2026-03-21T18:56:49.002Z</time></trkpt><trkpt lat="41.04389021874942" lon="9.479709067535689"><ele>205.0</ele><time>2026-03-21T18:56:50.002Z</time></trkpt><trkpt lat="41.04408189044043" lon="9.479625708619958"><ele>205.33333333333331</ele><time>2026-03-21T18:56:51.002Z</time></trkpt><trkpt lat="41.044254296344526" lon="9.479491802669019"><ele>205.66666666666669</ele><time>2026-03-21T18:56:52.002Z</time></trkpt><trkpt lat="41.04439311569123" lon="9.479301615729916"><ele>206.0</ele><time>2026-03-21T18:56:53.002Z</time></trkpt><trkpt lat="41.04449208416832" lon="9.479076107407062"><ele>206.0</ele><time>2026-03-21T18:56:54.002Z</time></trkpt><trkpt lat="41.044546153463465" lon="9.478821968907221"><ele>206.0</ele><time>2026-03-21T18:56:55.002Z</time></trkpt><trkpt lat="41.04456356197039" lon="9.478558822286477"><ele>206.0</ele><time>2026-03-21T18:56:56.002Z</time></trkpt><trkpt lat="41.04457766368441" lon="9.47829325695248"><ele>208.66666666666669</ele><time>2026-03-21T18:56:57.002Z</time></trkpt><trkpt lat="41.0445994391027" lon="9.478022232930435"><ele>211.33333333333331</ele><time>2026-03-21T18:56:58.002Z</time></trkpt><trkpt lat="41.044620356345675" lon="9.47774701380526"><ele>214.0</ele><time>2026-03-21T18:56:59.002Z</time></trkpt><trkpt lat="41.04464604132685" lon="9.477473252607153"><ele>215.33333333333331</ele><time>2026-03-21T18:57:00.002Z</time></trkpt><trkpt lat="41.04469844301393" lon="9.477206604190682"><ele>216.66666666666669</ele><time>2026-03-21T18:57:01.002Z</time></trkpt><trkpt lat="41.04477947713485" lon="9.476951943627805"><ele>218.0</ele><time>2026-03-21T18:57:02.002Z</time></trkpt><trkpt lat="41.04488000819804" lon="9.476707468453714"><ele>209.33333333333334</ele><time>2026-03-21T18:57:03.002Z</time></trkpt><trkpt lat="41.044992920407516" lon="9.476469306708792"><ele>200.66666666666669</ele><time>2026-03-21T18:57:04.002Z</time></trkpt><trkpt lat="41.045094688832734" lon="9.476217324311053"><ele>192.0</ele><time>2026-03-21T18:57:05.002Z</time></trkpt><trkpt lat="41.0451680643792" lon="9.475945327536444"><ele>191.33333333333334</ele><time>2026-03-21T18:57:06.002Z</time></trkpt><trkpt lat="41.04521369883005" lon="9.475661233878474"><ele>190.66666666666669</ele><time>2026-03-21T18:57:07.002Z</time></trkpt><trkpt lat="41.045244334895266" lon="9.475371729822267"><ele>190.0</ele><time>2026-03-21T18:57:08Z</time></trkpt><trkpt lat="41.04528334688469" lon="9.475081865110159"><ele>189.0</ele><time>2026-03-21T18:57:09Z</time></trkpt><trkpt lat="41.045323182944024" lon="9.474788648780141"><ele>188.0</ele><time>2026-03-21T18:57:10Z</time></trkpt><trkpt lat="41.04536006302922" lon="9.47449360840563"><ele>185.0</ele><time>2026-03-21T18:57:11Z</time></trkpt><trkpt lat="41.04537411718439" lon="9.474196707430332"><ele>182.0</ele><time>2026-03-21T18:57:12Z</time></trkpt><trkpt lat="41.04535945844313" lon="9.473897952023929"><ele>179.0</ele><time>2026-03-21T18:57:13Z</time></trkpt><trkpt lat="41.045331790017606" lon="9.473601412730623"><ele>176.0</ele><time>2026-03-21T18:57:14Z</time></trkpt><trkpt lat="41.045310306154576" lon="9.47330410073093"><ele>176.0</ele><time>2026-03-21T18:57:15Z</time></trkpt><trkpt lat="41.04531934606229" lon="9.473003466235003"><ele>176.0</ele><time>2026-03-21T18:57:16Z</time></trkpt><trkpt lat="41.04533917655838" lon="9.472701631971333"><ele>174.0</ele><time>2026-03-21T18:57:17Z</time></trkpt><trkpt lat="41.045368783947005" lon="9.472407225195852"><ele>172.0</ele><time>2026-03-21T18:57:18Z</time></trkpt><trkpt lat="41.045409610930236" lon="9.472112687681227"><ele>170.0</ele><time>2026-03-21T18:57:19Z</time></trkpt><trkpt lat="41.0454613450032" lon="9.471820477629398"><ele>168.0</ele><time>2026-03-21T18:57:20Z</time></trkpt><trkpt lat="41.045508775259435" lon="9.471528199341806"><ele>168.0</ele><time>2026-03-21T18:57:21Z</time></trkpt><trkpt lat="41.04555435083626" lon="9.471236570905617"><ele>168.0</ele><time>2026-03-21T18:57:22Z</time></trkpt><trkpt lat="41.04560126445904" lon="9.470947953997406"><ele>168.0</ele><time>2026-03-21T18:57:23Z</time></trkpt><trkpt lat="41.045646537581625" lon="9.470664821322098"><ele>168.33333333333334</ele><time>2026-03-21T18:57:24Z</time></trkpt><trkpt lat="41.04569266498055" lon="9.470388874748343"><ele>168.66666666666669</ele><time>2026-03-21T18:57:25Z</time></trkpt><trkpt lat="41.04573803447921" lon="9.470117519404054"><ele>169.0</ele><time>2026-03-21T18:57:26Z</time></trkpt><trkpt lat="41.04578137744749" lon="9.469852644448608"><ele>168.33333333333334</ele><time>2026-03-21T18:57:27Z</time></trkpt><trkpt lat="41.04582165083293" lon="9.469594358123814"><ele>167.66666666666666</ele><time>2026-03-21T18:57:28Z</time></trkpt><trkpt lat="41.04586196419682" lon="9.469343423471393"><ele>167.0</ele><time>2026-03-21T18:57:29Z</time></trkpt><trkpt lat="41.04590012203421" lon="9.469097432278344"><ele>167.0</ele><time>2026-03-21T18:57:30Z</time></trkpt><trkpt lat="41.04593904120359" lon="9.468862093658089"><ele>167.0</ele><time>2026-03-21T18:57:31Z</time></trkpt><trkpt lat="41.045973860711584" lon="9.468639785004763"><ele>167.0</ele><time>2026-03-21T18:57:32Z</time></trkpt><trkpt lat="41.0460045999513" lon="9.468454357066483"><ele>168.0</ele><time>2026-03-21T18:57:33Z</time></trkpt><trkpt lat="41.04603990365796" lon="9.468294341476032"><ele>169.0</ele><time>2026-03-21T18:57:34Z</time></trkpt><trkpt lat="41.04608225932021" lon="9.46817543596633"><ele>170.0</ele><time>2026-03-21T18:57:35Z</time></trkpt><trkpt lat="41.046128635242624" lon="9.468093391347397"><ele>171.0</ele><time>2026-03-21T18:57:36Z</time></trkpt><trkpt lat="41.04619623612821" lon="9.46800857247751"><ele>172.0</ele><time>2026-03-21T18:57:38.001Z</time></trkpt><trkpt lat="41.046254617431494" lon="9.467946865502721"><ele>172.0</ele><time>2026-03-21T18:57:40.001Z</time></trkpt><trkpt lat="41.04632441605176" lon="9.467903800438476"><ele>172.0</ele><time>2026-03-21T18:57:42.001Z</time></trkpt><trkpt lat="41.04638574591887" lon="9.46787843576216"><ele>172.0</ele><time>2026-03-21T18:57:44.001Z</time></trkpt><trkpt lat="41.04646149012235" lon="9.467863126356907"><ele>172.0</ele><time>2026-03-21T18:57:46.001Z</time></trkpt><trkpt lat="41.04654292465402" lon="9.467923913587745"><ele>172.0</ele><time>2026-03-21T18:57:48.001Z</time></trkpt><trkpt lat="41.046621575145416" lon="9.468006233300478"><ele>172.0</ele><time>2026-03-21T18:57:50.001Z</time></trkpt><trkpt lat="41.04670977205826" lon="9.468110865868539"><ele>172.00000000000003</ele><time>2026-03-21T18:57:52.001Z</time></trkpt><trkpt lat="41.04675972987262" lon="9.468162383883866"><ele>172.0</ele><time>2026-03-21T18:57:53.001Z</time></trkpt><trkpt lat="41.04681613453834" lon="9.468202377745339"><ele>172.0</ele><time>2026-03-21T18:57:54.001Z</time></trkpt><trkpt lat="41.04691970005606" lon="9.468203633630885"><ele>172.0</ele><time>2026-03-21T18:57:56.001Z</time></trkpt><trkpt lat="41.04698097718677" lon="9.468176320010668"><ele>172.0</ele><time>2026-03-21T18:57:59.001Z</time></trkpt><trkpt lat="41.04704239069006" lon="9.468150057546664"><ele>172.00000000000003</ele><time>2026-03-21T18:58:01.001Z</time></trkpt><trkpt lat="41.047115768712395" lon="9.468129199760371"><ele>172.0</ele><time>2026-03-21T18:58:07.001Z</time></trkpt><trkpt lat="41.04718765943285" lon="9.468126358133052"><ele>172.0</ele><time>2026-03-21T18:58:10.001Z</time></trkpt><trkpt lat="41.04726745543479" lon="9.468122796724073"><ele>172.0</ele><time>2026-03-21T18:58:13.001Z</time></trkpt><trkpt lat="41.04736864766652" lon="9.468139940880084"><ele>172.0</ele><time>2026-03-21T18:58:15.001Z</time></trkpt><trkpt lat="41.047492326125" lon="9.46821702703751"><ele>172.0</ele><time>2026-03-21T18:58:17.001Z</time></trkpt><trkpt lat="41.04755400578763" lon="9.468268715281905"><ele>172.0</ele><time>2026-03-21T18:58:18.001Z</time></trkpt><trkpt lat="41.04761196760047" lon="9.468329377877676"><ele>171.66666666666669</ele><time>2026-03-21T18:58:19.001Z</time></trkpt><trkpt lat="41.04766517301669" lon="9.468405108437238"><ele>171.33333333333334</ele><time>2026-03-21T18:58:20.001Z</time></trkpt><trkpt lat="41.047709526265336" lon="9.468494573425486"><ele>171.0</ele><time>2026-03-21T18:58:21.001Z</time></trkpt><trkpt lat="41.047744677670735" lon="9.468593565091549"><ele>170.66666666666666</ele><time>2026-03-21T18:58:22.001Z</time></trkpt><trkpt lat="41.047783888573754" lon="9.468697311625434"><ele>170.33333333333331</ele><time>2026-03-21T18:58:23.001Z</time></trkpt><trkpt lat="41.04782017744553" lon="9.468804351025971"><ele>170.0</ele><time>2026-03-21T18:58:24.001Z</time></trkpt><trkpt lat="41.0478649069337" lon="9.46891577793824"><ele>168.6</ele><time>2026-03-21T18:58:25.001Z</time></trkpt><trkpt lat="41.047921001233526" lon="9.469029589612928"><ele>167.2</ele><time>2026-03-21T18:58:26.001Z</time></trkpt><trkpt lat="41.04798316438047" lon="9.469145969154026"><ele>165.8</ele><time>2026-03-21T18:58:27.001Z</time></trkpt><trkpt lat="41.04805482806909" lon="9.469268654776297"><ele>164.4</ele><time>2026-03-21T18:58:28.001Z</time></trkpt><trkpt lat="41.04813168606137" lon="9.469394590713593"><ele>163.0</ele><time>2026-03-21T18:58:29.001Z</time></trkpt><trkpt lat="41.048208748876405" lon="9.469527875199926"><ele>160.75</ele><time>2026-03-21T18:58:30.001Z</time></trkpt><trkpt lat="41.04828893641165" lon="9.469664001956282"><ele>158.5</ele><time>2026-03-21T18:58:31.001Z</time></trkpt><trkpt lat="41.04837194582286" lon="9.469804596278003"><ele>156.25</ele><time>2026-03-21T18:58:32.001Z</time></trkpt><trkpt lat="41.04845507437117" lon="9.469950366574716"><ele>154.0</ele><time>2026-03-21T18:58:33.001Z</time></trkpt><trkpt lat="41.048537242157636" lon="9.470101843723999"><ele>153.5</ele><time>2026-03-21T18:58:34.001Z</time></trkpt><trkpt lat="41.04861680037682" lon="9.470260307265375"><ele>153.0</ele><time>2026-03-21T18:58:35.001Z</time></trkpt><trkpt lat="41.04869497526286" lon="9.470421292285913"><ele>152.5</ele><time>2026-03-21T18:58:36.001Z</time></trkpt><trkpt lat="41.048773412388115" lon="9.47058896996236"><ele>152.0</ele><time>2026-03-21T18:58:37.001Z</time></trkpt><trkpt lat="41.048854746727045" lon="9.4707604394779"><ele>150.5</ele><time>2026-03-21T18:58:38.001Z</time></trkpt><trkpt lat="41.04893768175402" lon="9.470929693639373"><ele>149.0</ele><time>2026-03-21T18:58:39.001Z</time></trkpt><trkpt lat="41.04901812764843" lon="9.471093932538611"><ele>147.5</ele><time>2026-03-21T18:58:40.001Z</time></trkpt><trkpt lat="41.04909743092872" lon="9.471247801235112"><ele>146.0</ele><time>2026-03-21T18:58:41.001Z</time></trkpt><trkpt lat="41.049199655957295" lon="9.471376894592819"><ele>145.0</ele><time>2026-03-21T18:58:42.001Z</time></trkpt><trkpt lat="41.04932297561696" lon="9.471474773369849"><ele>144.0</ele><time>2026-03-21T18:58:43.001Z</time></trkpt><trkpt lat="41.049466558796944" lon="9.471519634742153"><ele>143.0</ele><time>2026-03-21T18:58:44.002Z</time></trkpt><trkpt lat="41.04961631344978" lon="9.471518929155163"><ele>142.0</ele><time>2026-03-21T18:58:45.002Z</time></trkpt><trkpt lat="41.04976403569498" lon="9.471508805686014"><ele>142.0</ele><time>2026-03-21T18:58:46.002Z</time></trkpt><trkpt lat="41.049911577901185" lon="9.471509402818493"><ele>142.0</ele><time>2026-03-21T18:58:47.002Z</time></trkpt><trkpt lat="41.05006447729412" lon="9.471512959855742"><ele>142.0</ele><time>2026-03-21T18:58:48.002Z</time></trkpt><trkpt lat="41.05021650844031" lon="9.471510719393638"><ele>141.25</ele><time>2026-03-21T18:58:49.002Z</time></trkpt><trkpt lat="41.050367297927195" lon="9.471492858300747"><ele>140.5</ele><time>2026-03-21T18:58:50.002Z</time></trkpt><trkpt lat="41.050510965453036" lon="9.471451991078647"><ele>139.75</ele><time>2026-03-21T18:58:51.002Z</time></trkpt><trkpt lat="41.0506547216579" lon="9.471393804044506"><ele>139.0</ele><time>2026-03-21T18:58:52.002Z</time></trkpt><trkpt lat="41.050788282371194" lon="9.471326332740022"><ele>139.5</ele><time>2026-03-21T18:58:53.002Z</time></trkpt><trkpt lat="41.05091222448269" lon="9.471264322424028"><ele>140.0</ele><time>2026-03-21T18:58:54.002Z</time></trkpt><trkpt lat="41.05103758220989" lon="9.47121148797102"><ele>140.5</ele><time>2026-03-21T18:58:55.002Z</time></trkpt><trkpt lat="41.0511716565322" lon="9.471172768283136"><ele>141.0</ele><time>2026-03-21T18:58:56.002Z</time></trkpt><trkpt lat="41.05131137772059" lon="9.471157715723693"><ele>141.0</ele><time>2026-03-21T18:58:57.002Z</time></trkpt><trkpt lat="41.05145693771222" lon="9.471170614750099"><ele>141.0</ele><time>2026-03-21T18:58:58.002Z</time></trkpt><trkpt lat="41.05159970112739" lon="9.471207650047104"><ele>141.0</ele><time>2026-03-21T18:58:59.002Z</time></trkpt><trkpt lat="41.05174350884154" lon="9.471249840345362"><ele>141.0</ele><time>2026-03-21T18:59:00.002Z</time></trkpt><trkpt lat="41.05188985690531" lon="9.471296078830148"><ele>135.0</ele><time>2026-03-21T18:59:01.002Z</time></trkpt><trkpt lat="41.05203245509925" lon="9.471335009858805"><ele>129.0</ele><time>2026-03-21T18:59:02.002Z</time></trkpt><trkpt lat="41.05218195760613" lon="9.4713744656648"><ele>123.0</ele><time>2026-03-21T18:59:03.002Z</time></trkpt><trkpt lat="41.05233291774608" lon="9.471415403815179"><ele>120.33333333333334</ele><time>2026-03-21T18:59:04.002Z</time></trkpt><trkpt lat="41.05248390585213" lon="9.471458240438041"><ele>117.66666666666667</ele><time>2026-03-21T18:59:05.002Z</time></trkpt><trkpt lat="41.052636318651324" lon="9.471498113384"><ele>115.0</ele><time>2026-03-21T18:59:06.002Z</time></trkpt><trkpt lat="41.052787363459565" lon="9.471538000348957"><ele>115.0</ele><time>2026-03-21T18:59:07.002Z</time></trkpt><trkpt lat="41.052936068693946" lon="9.47157155819323"><ele>115.0</ele><time>2026-03-21T18:59:08.002Z</time></trkpt><trkpt lat="41.05308882512062" lon="9.47158966876152"><ele>115.0</ele><time>2026-03-21T18:59:09.002Z</time></trkpt><trkpt lat="41.053241291940516" lon="9.471592801650466"><ele>113.66666666666667</ele><time>2026-03-21T18:59:10.002Z</time></trkpt><trkpt lat="41.053395030912554" lon="9.47158702773074"><ele>112.33333333333334</ele><time>2026-03-21T18:59:11.002Z</time></trkpt><trkpt lat="41.05354960646963" lon="9.471579707352685"><ele>111.0</ele><time>2026-03-21T18:59:12.002Z</time></trkpt><trkpt lat="41.053701207370665" lon="9.47157333608048"><ele>111.0</ele><time>2026-03-21T18:59:13.002Z</time></trkpt><trkpt lat="41.05384438091589" lon="9.471566875501273"><ele>111.0</ele><time>2026-03-21T18:59:14Z</time></trkpt><trkpt lat="41.05397475840093" lon="9.471515537064446"><ele>111.0</ele><time>2026-03-21T18:59:15Z</time></trkpt><trkpt lat="41.054096698430484" lon="9.471430377855354"><ele>111.0</ele><time>2026-03-21T18:59:16Z</time></trkpt><trkpt lat="41.05420332802264" lon="9.471317398871298"><ele>112.75</ele><time>2026-03-21T18:59:17Z</time></trkpt><trkpt lat="41.054292800712716" lon="9.471179007682913"><ele>114.5</ele><time>2026-03-21T18:59:18Z</time></trkpt><trkpt lat="41.05437492449278" lon="9.471035090303186"><ele>116.25</ele><time>2026-03-21T18:59:19Z</time></trkpt><trkpt lat="41.054453986306456" lon="9.470888014608002"><ele>118.0</ele><time>2026-03-21T18:59:20Z</time></trkpt><trkpt lat="41.05453438063184" lon="9.470741259409357"><ele>118.0</ele><time>2026-03-21T18:59:21Z</time></trkpt><trkpt lat="41.05461273764354" lon="9.470600568768498"><ele>118.0</ele><time>2026-03-21T18:59:22Z</time></trkpt><trkpt lat="41.05468770769927" lon="9.470468223225705"><ele>118.0</ele><time>2026-03-21T18:59:23Z</time></trkpt><trkpt lat="41.054767640676374" lon="9.470339363545445"><ele>118.0</ele><time>2026-03-21T18:59:24Z</time></trkpt><trkpt lat="41.0548564116181" lon="9.470216397738835"><ele>113.0</ele><time>2026-03-21T18:59:25Z</time></trkpt><trkpt lat="41.054955205875316" lon="9.470101914452957"><ele>108.0</ele><time>2026-03-21T18:59:26Z</time></trkpt><trkpt lat="41.05505923078839" lon="9.469994776068521"><ele>103.0</ele><time>2026-03-21T18:59:27Z</time></trkpt><trkpt lat="41.0551649637339" lon="9.469889309269412"><ele>98.0</ele><time>2026-03-21T18:59:28Z</time></trkpt><trkpt lat="41.05526507935067" lon="9.469789386832552"><ele>98.0</ele><time>2026-03-21T18:59:29Z</time></trkpt><trkpt lat="41.05535996906529" lon="9.469694510737439"><ele>98.0</ele><time>2026-03-21T18:59:30Z</time></trkpt><trkpt lat="41.055447740839774" lon="9.469603863008418"><ele>98.0</ele><time>2026-03-21T18:59:31Z</time></trkpt><trkpt lat="41.0555245840541" lon="9.469523505887107"><ele>98.0</ele><time>2026-03-21T18:59:32Z</time></trkpt><trkpt lat="41.05559125566595" lon="9.46946045694233"><ele>98.0</ele><time>2026-03-21T18:59:33Z</time></trkpt><trkpt lat="41.05566277557121" lon="9.469433258650177"><ele>97.99999999999999</ele><time>2026-03-21T18:59:34Z</time></trkpt><trkpt lat="41.05573937836959" lon="9.469443346538448"><ele>98.0</ele><time>2026-03-21T18:59:35Z</time></trkpt><trkpt lat="41.05580615731366" lon="9.46948967843759"><ele>98.0</ele><time>2026-03-21T18:59:36Z</time></trkpt><trkpt lat="41.0558441153785" lon="9.469588597612292"><ele>98.0</ele><time>2026-03-21T18:59:37Z</time></trkpt><trkpt lat="41.055848383761784" lon="9.46969112469618"><ele>97.99999999999999</ele><time>2026-03-21T18:59:38Z</time></trkpt><trkpt lat="41.055812933758276" lon="9.469792132336929"><ele>98.0</ele><time>2026-03-21T18:59:39Z</time></trkpt><trkpt lat="41.05576037783811" lon="9.469869701605008"><ele>98.0</ele><time>2026-03-21T18:59:40Z</time></trkpt><trkpt lat="41.055683346447566" lon="9.46991775925456"><ele>98.0</ele><time>2026-03-21T18:59:41Z</time></trkpt><trkpt lat="41.055614220197" lon="9.469999838009052"><ele>98.0</ele><time>2026-03-21T18:59:42Z</time></trkpt><trkpt lat="41.05553048170493" lon="9.470063059157956"><ele>98.0</ele><time>2026-03-21T18:59:43.001Z</time></trkpt><trkpt lat="41.05544428632266" lon="9.47012373677957"><ele>98.0</ele><time>2026-03-21T18:59:44.001Z</time></trkpt><trkpt lat="41.055361236828844" lon="9.470189514706947"><ele>98.0</ele><time>2026-03-21T18:59:45.001Z</time></trkpt><trkpt lat="41.05527719003676" lon="9.470257188235417"><ele>98.0</ele><time>2026-03-21T18:59:46.001Z</time></trkpt><trkpt lat="41.05519406497016" lon="9.470326298491244"><ele>98.0</ele><time>2026-03-21T18:59:47.001Z</time></trkpt><trkpt lat="41.055113844808616" lon="9.470395494903281"><ele>98.0</ele><time>2026-03-21T18:59:48.001Z</time></trkpt><trkpt lat="41.05504492673656" lon="9.47046391960831"><ele>98.0</ele><time>2026-03-21T18:59:49.001Z</time></trkpt><trkpt lat="41.05500251277317" lon="9.470557055155089"><ele>97.4</ele><time>2026-03-21T18:59:50.001Z</time></trkpt><trkpt lat="41.05499362517709" lon="9.470673771285064"><ele>96.80000000000001</ele><time>2026-03-21T18:59:51.001Z</time></trkpt><trkpt lat="41.05502221335459" lon="9.470785258018989"><ele>96.2</ele><time>2026-03-21T18:59:52.001Z</time></trkpt><trkpt lat="41.05508947591644" lon="9.470867043265878"><ele>95.6</ele><time>2026-03-21T18:59:53.001Z</time></trkpt><trkpt lat="41.055175446484014" lon="9.470909116493782"><ele>95.0</ele><time>2026-03-21T18:59:54.001Z</time></trkpt><trkpt lat="41.05527514738467" lon="9.470892334846834"><ele>95.0</ele><time>2026-03-21T18:59:55.001Z</time></trkpt><trkpt lat="41.05536372460253" lon="9.470864479055937"><ele>95.0</ele><time>2026-03-21T18:59:56.001Z</time></trkpt><trkpt lat="41.05545609545834" lon="9.470826725371754"><ele>95.0</ele><time>2026-03-21T18:59:57.001Z</time></trkpt><trkpt lat="41.055554390802826" lon="9.47079137276077"><ele>95.0</ele><time>2026-03-21T18:59:58.001Z</time></trkpt><trkpt lat="41.05565614802633" lon="9.47075610800813"><ele>95.0</ele><time>2026-03-21T18:59:59.001Z</time></trkpt><trkpt lat="41.0557621595285" lon="9.470719632900833"><ele>93.0</ele><time>2026-03-21T19:00:00.001Z</time></trkpt><trkpt lat="41.055874126860516" lon="9.470687405544448"><ele>91.0</ele><time>2026-03-21T19:00:01.001Z</time></trkpt><trkpt lat="41.055991996161595" lon="9.470671137809699"><ele>89.0</ele><time>2026-03-21T19:00:02.001Z</time></trkpt><trkpt lat="41.05611403754498" lon="9.470666921958099"><ele>87.0</ele><time>2026-03-21T19:00:03.001Z</time></trkpt><trkpt lat="41.05623756516531" lon="9.47067572674268"><ele>87.0</ele><time>2026-03-21T19:00:04.001Z</time></trkpt><trkpt lat="41.05636207676441" lon="9.470688623903737"><ele>87.0</ele><time>2026-03-21T19:00:05.001Z</time></trkpt><trkpt lat="41.056490041483165" lon="9.470712186660082"><ele>87.0</ele><time>2026-03-21T19:00:06.001Z</time></trkpt><trkpt lat="41.05661706217561" lon="9.470759886813577"><ele>87.0</ele><time>2026-03-21T19:00:07.001Z</time></trkpt><trkpt lat="41.05673823478579" lon="9.470826897920606"><ele>83.25</ele><time>2026-03-21T19:00:08.001Z</time></trkpt><trkpt lat="41.05685036440124" lon="9.470896830469382"><ele>79.5</ele><time>2026-03-21T19:00:09.001Z</time></trkpt><trkpt lat="41.056959615090676" lon="9.470970931977309"><ele>75.75</ele><time>2026-03-21T19:00:10.001Z</time></trkpt><trkpt lat="41.05706410587398" lon="9.471037349181985"><ele>72.0</ele><time>2026-03-21T19:00:11.001Z</time></trkpt><trkpt lat="41.05716128489353" lon="9.471108341402887"><ele>72.0</ele><time>2026-03-21T19:00:12.001Z</time></trkpt><trkpt lat="41.05725585788409" lon="9.471201329234438"><ele>72.0</ele><time>2026-03-21T19:00:13.001Z</time></trkpt><trkpt lat="41.057342894008684" lon="9.471307542961231"><ele>72.0</ele><time>2026-03-21T19:00:14.001Z</time></trkpt><trkpt lat="41.05741300992893" lon="9.471419869362713"><ele>72.0</ele><time>2026-03-21T19:00:15.001Z</time></trkpt><trkpt lat="41.05747845825977" lon="9.47153656199327"><ele>70.25</ele><time>2026-03-21T19:00:16.001Z</time></trkpt><trkpt lat="41.05754669814321" lon="9.471648343056547"><ele>68.5</ele><time>2026-03-21T19:00:17.001Z</time></trkpt><trkpt lat="41.05762886983596" lon="9.471749882364673"><ele>66.75</ele><time>2026-03-21T19:00:18.001Z</time></trkpt><trkpt lat="41.057725291620706" lon="9.471837467818542"><ele>65.0</ele><time>2026-03-21T19:00:19.001Z</time></trkpt><trkpt lat="41.057831687282025" lon="9.4719063833541"><ele>65.0</ele><time>2026-03-21T19:00:20.001Z</time></trkpt><trkpt lat="41.057947306921015" lon="9.471953053734289"><ele>65.0</ele><time>2026-03-21T19:00:21.001Z</time></trkpt><trkpt lat="41.058069355212936" lon="9.471980000108514"><ele>65.0</ele><time>2026-03-21T19:00:22.001Z</time></trkpt><trkpt lat="41.05819529553862" lon="9.471987820819063"><ele>65.0</ele><time>2026-03-21T19:00:23.001Z</time></trkpt><trkpt lat="41.05832630316232" lon="9.471989718507746"><ele>61.5</ele><time>2026-03-21T19:00:24.001Z</time></trkpt><trkpt lat="41.05845657150087" lon="9.471995038176521"><ele>58.0</ele><time>2026-03-21T19:00:25.001Z</time></trkpt><trkpt lat="41.058601946443616" lon="9.472005586317431"><ele>54.5</ele><time>2026-03-21T19:00:26.001Z</time></trkpt><trkpt lat="41.058737193752684" lon="9.47201213753809"><ele>51.0</ele><time>2026-03-21T19:00:27.001Z</time></trkpt><trkpt lat="41.0588678667694" lon="9.472017400171021"><ele>51.0</ele><time>2026-03-21T19:00:28.001Z</time></trkpt><trkpt lat="41.05899417917001" lon="9.47200207656556"><ele>51.0</ele><time>2026-03-21T19:00:29.001Z</time></trkpt><trkpt lat="41.059114403333986" lon="9.471944283371954"><ele>51.0</ele><time>2026-03-21T19:00:30.001Z</time></trkpt><trkpt lat="41.05922147842729" lon="9.471849494447511"><ele>51.0</ele><time>2026-03-21T19:00:31.001Z</time></trkpt><trkpt lat="41.05930623509091" lon="9.47171339217166"><ele>49.5</ele><time>2026-03-21T19:00:32.001Z</time></trkpt><trkpt lat="41.059357593407256" lon="9.471551187155685"><ele>48.0</ele><time>2026-03-21T19:00:33.001Z</time></trkpt><trkpt lat="41.05938953926453" lon="9.471380411661267"><ele>46.5</ele><time>2026-03-21T19:00:34.001Z</time></trkpt><trkpt lat="41.05942576857497" lon="9.47120548667957"><ele>45.0</ele><time>2026-03-21T19:00:35.001Z</time></trkpt><trkpt lat="41.059468119880094" lon="9.471025683536284"><ele>43.25</ele><time>2026-03-21T19:00:36.001Z</time></trkpt><trkpt lat="41.059511395831265" lon="9.4708422937203"><ele>41.5</ele><time>2026-03-21T19:00:37.001Z</time></trkpt><trkpt lat="41.05955371648114" lon="9.470660653172366"><ele>39.75</ele><time>2026-03-21T19:00:38.001Z</time></trkpt><trkpt lat="41.0595956928192" lon="9.470480133077793"><ele>38.0</ele><time>2026-03-21T19:00:39.001Z</time></trkpt><trkpt lat="41.059639079222826" lon="9.470300167746654"><ele>38.0</ele><time>2026-03-21T19:00:40.001Z</time></trkpt><trkpt lat="41.059679268876444" lon="9.47012280882012"><ele>38.0</ele><time>2026-03-21T19:00:41.001Z</time></trkpt><trkpt lat="41.05971947483269" lon="9.46994385140003"><ele>38.0</ele><time>2026-03-21T19:00:42.001Z</time></trkpt><trkpt lat="41.059765110511435" lon="9.469769308988823"><ele>38.0</ele><time>2026-03-21T19:00:43.001Z</time></trkpt><trkpt lat="41.05982610232302" lon="9.469600070646713"><ele>38.0</ele><time>2026-03-21T19:00:44.001Z</time></trkpt><trkpt lat="41.05990624811527" lon="9.46943930304856"><ele>38.0</ele><time>2026-03-21T19:00:45.001Z</time></trkpt><trkpt lat="41.060000210750275" lon="9.469285610471935"><ele>38.0</ele><time>2026-03-21T19:00:46.001Z</time></trkpt><trkpt lat="41.060109887342826" lon="9.46914920068831"><ele>38.0</ele><time>2026-03-21T19:00:47.001Z</time></trkpt><trkpt lat="41.06023313529552" lon="9.469033569653904"><ele>38.0</ele><time>2026-03-21T19:00:48.001Z</time></trkpt><trkpt lat="41.060364260099576" lon="9.46893226482939"><ele>38.0</ele><time>2026-03-21T19:00:49.001Z</time></trkpt><trkpt lat="41.06050232380629" lon="9.468842502950565"><ele>38.0</ele><time>2026-03-21T19:00:50.001Z</time></trkpt><trkpt lat="41.06064312900838" lon="9.468762729402757"><ele>36.666666666666664</ele><time>2026-03-21T19:00:51.001Z</time></trkpt><trkpt lat="41.06078546949438" lon="9.468688669214254"><ele>35.333333333333336</ele><time>2026-03-21T19:00:52.001Z</time></trkpt><trkpt lat="41.060927102815924" lon="9.468610472468256"><ele>34.0</ele><time>2026-03-21T19:00:53.001Z</time></trkpt><trkpt lat="41.06107099375889" lon="9.46852480176414"><ele>34.0</ele><time>2026-03-21T19:00:54.001Z</time></trkpt><trkpt lat="41.06121833254144" lon="9.468437911254465"><ele>34.0</ele><time>2026-03-21T19:00:55.002Z</time></trkpt><trkpt lat="41.061367998708576" lon="9.468351005494005"><ele>34.0</ele><time>2026-03-21T19:00:56.002Z</time></trkpt><trkpt lat="41.06151913627486" lon="9.468267335328349"><ele>31.666666666666668</ele><time>2026-03-21T19:00:57.002Z</time></trkpt><trkpt lat="41.06166987457826" lon="9.46818701566932"><ele>29.333333333333336</ele><time>2026-03-21T19:00:58.002Z</time></trkpt><trkpt lat="41.06182067890567" lon="9.468104704616161"><ele>27.0</ele><time>2026-03-21T19:00:59.002Z</time></trkpt><trkpt lat="41.06197108950012" lon="9.46802074431286"><ele>28.0</ele><time>2026-03-21T19:01:00.002Z</time></trkpt><trkpt lat="41.062124008405426" lon="9.467932093184997"><ele>29.0</ele><time>2026-03-21T19:01:01.002Z</time></trkpt><trkpt lat="41.06227988546828" lon="9.467841775751243"><ele>30.0</ele><time>2026-03-21T19:01:02.002Z</time></trkpt><trkpt lat="41.06243836891462" lon="9.467750681828083"><ele>28.666666666666664</ele><time>2026-03-21T19:01:03.002Z</time></trkpt><trkpt lat="41.06259993164383" lon="9.467661286708406"><ele>27.333333333333332</ele><time>2026-03-21T19:01:04.002Z</time></trkpt><trkpt lat="41.062760525901076" lon="9.46757206379245"><ele>26.0</ele><time>2026-03-21T19:01:05.002Z</time></trkpt><trkpt lat="41.06292193717248" lon="9.467483434644393"><ele>26.0</ele><time>2026-03-21T19:01:06.002Z</time></trkpt><trkpt lat="41.063080432120714" lon="9.46739251208977"><ele>26.0</ele><time>2026-03-21T19:01:07.002Z</time></trkpt><trkpt lat="41.06323876159016" lon="9.467304018447631"><ele>26.0</ele><time>2026-03-21T19:01:08.002Z</time></trkpt><trkpt lat="41.06339752954051" lon="9.467217445086648"><ele>24.666666666666664</ele><time>2026-03-21T19:01:09.002Z</time></trkpt><trkpt lat="41.06355480658429" lon="9.46713389546769"><ele>23.333333333333332</ele><time>2026-03-21T19:01:10.002Z</time></trkpt><trkpt lat="41.063710444922464" lon="9.467047707505287"><ele>22.0</ele><time>2026-03-21T19:01:11.002Z</time></trkpt><trkpt lat="41.063864053494136" lon="9.466960568045153"><ele>21.666666666666664</ele><time>2026-03-21T19:01:12.002Z</time></trkpt><trkpt lat="41.064016901811684" lon="9.466874350670935"><ele>21.333333333333332</ele><time>2026-03-21T19:01:13.002Z</time></trkpt><trkpt lat="41.06416838246041" lon="9.466786580849591"><ele>21.0</ele><time>2026-03-21T19:01:14.002Z</time></trkpt><trkpt lat="41.064316115513286" lon="9.466701972054137"><ele>21.0</ele><time>2026-03-21T19:01:15.002Z</time></trkpt><trkpt lat="41.06446302791659" lon="9.466619985803597"><ele>21.0</ele><time>2026-03-21T19:01:16.002Z</time></trkpt><trkpt lat="41.064606448600614" lon="9.466537574622038"><ele>21.0</ele><time>2026-03-21T19:01:17.002Z</time></trkpt><trkpt lat="41.06474925110259" lon="9.466459484633264"><ele>21.0</ele><time>2026-03-21T19:01:18.002Z</time></trkpt><trkpt lat="41.06488880603152" lon="9.466380033014614"><ele>21.0</ele><time>2026-03-21T19:01:19.002Z</time></trkpt><trkpt lat="41.065025423688716" lon="9.466301179157767"><ele>21.0</ele><time>2026-03-21T19:01:20Z</time></trkpt><trkpt lat="41.0651620607371" lon="9.466211800199032"><ele>21.333333333333332</ele><time>2026-03-21T19:01:21Z</time></trkpt><trkpt lat="41.065295016982255" lon="9.466105241635063"><ele>21.666666666666664</ele><time>2026-03-21T19:01:22Z</time></trkpt><trkpt lat="41.065425154500616" lon="9.465987210971212"><ele>22.0</ele><time>2026-03-21T19:01:23Z</time></trkpt><trkpt lat="41.06555940334165" lon="9.465870077404444"><ele>22.0</ele><time>2026-03-21T19:01:24Z</time></trkpt><trkpt lat="41.065698128123685" lon="9.465752994540232"><ele>22.0</ele><time>2026-03-21T19:01:25Z</time></trkpt><trkpt lat="41.06583705567252" lon="9.465632944595908"><ele>22.0</ele><time>2026-03-21T19:01:26Z</time></trkpt><trkpt lat="41.065979339036865" lon="9.465512085608456"><ele>20.666666666666664</ele><time>2026-03-21T19:01:27Z</time></trkpt><trkpt lat="41.06612233839782" lon="9.465389098735418"><ele>19.333333333333332</ele><time>2026-03-21T19:01:28Z</time></trkpt><trkpt lat="41.06626549633203" lon="9.465264832740196"><ele>18.0</ele><time>2026-03-21T19:01:29Z</time></trkpt><trkpt lat="41.06641069042519" lon="9.465139308999756"><ele>18.0</ele><time>2026-03-21T19:01:30Z</time></trkpt><trkpt lat="41.066551422529564" lon="9.465011402369289"><ele>18.0</ele><time>2026-03-21T19:01:31Z</time></trkpt><trkpt lat="41.066694036738284" lon="9.464889435486878"><ele>18.0</ele><time>2026-03-21T19:01:32Z</time></trkpt><trkpt lat="41.066834931592446" lon="9.464766311945773"><ele>18.0</ele><time>2026-03-21T19:01:33Z</time></trkpt><trkpt lat="41.066976894396035" lon="9.464645235373007"><ele>18.0</ele><time>2026-03-21T19:01:34Z</time></trkpt><trkpt lat="41.067117178877794" lon="9.464523586900548"><ele>18.0</ele><time>2026-03-21T19:01:35Z</time></trkpt><trkpt lat="41.067258202490834" lon="9.464402617041054"><ele>17.333333333333332</ele><time>2026-03-21T19:01:36Z</time></trkpt><trkpt lat="41.06740078337898" lon="9.46428252232081"><ele>16.666666666666664</ele><time>2026-03-21T19:01:37Z</time></trkpt><trkpt lat="41.06754056860136" lon="9.464155052351398"><ele>16.0</ele><time>2026-03-21T19:01:38Z</time></trkpt><trkpt lat="41.06767510599733" lon="9.464015069876744"><ele>15.0</ele><time>2026-03-21T19:01:39Z</time></trkpt><trkpt lat="41.067800061183334" lon="9.463860255294495"><ele>14.0</ele><time>2026-03-21T19:01:40Z</time></trkpt><trkpt lat="41.06791652527707" lon="9.463699270501403"><ele>13.0</ele><time>2026-03-21T19:01:41Z</time></trkpt><trkpt lat="41.068031805468074" lon="9.463538718497984"><ele>12.666666666666666</ele><time>2026-03-21T19:01:42Z</time></trkpt><trkpt lat="41.06814483822641" lon="9.463374588414332"><ele>12.333333333333332</ele><time>2026-03-21T19:01:43Z</time></trkpt><trkpt lat="41.06825456598914" lon="9.463212299727656"><ele>12.0</ele><time>2026-03-21T19:01:44Z</time></trkpt><trkpt lat="41.068365848444294" lon="9.463051856042606"><ele>11.0</ele><time>2026-03-21T19:01:45Z</time></trkpt><trkpt lat="41.06847544296046" lon="9.462893539738278"><ele>10.0</ele><time>2026-03-21T19:01:46Z</time></trkpt><trkpt lat="41.06858228596753" lon="9.462737264608217"><ele>9.0</ele><time>2026-03-21T19:01:47Z</time></trkpt><trkpt lat="41.06868845322658" lon="9.462583588064772"><ele>9.0</ele><time>2026-03-21T19:01:48Z</time></trkpt><trkpt lat="41.068793334561086" lon="9.462431601724568"><ele>9.0</ele><time>2026-03-21T19:01:49Z</time></trkpt><trkpt lat="41.06889704741369" lon="9.462283374631802"><ele>9.0</ele><time>2026-03-21T19:01:50Z</time></trkpt><trkpt lat="41.06900028565665" lon="9.462135860732483"><ele>9.0</ele><time>2026-03-21T19:01:51Z</time></trkpt><trkpt lat="41.069100632739115" lon="9.461989545440241"><ele>9.0</ele><time>2026-03-21T19:01:52Z</time></trkpt><trkpt lat="41.069200187122576" lon="9.461844201036063"><ele>9.0</ele><time>2026-03-21T19:01:53Z</time></trkpt><trkpt lat="41.069299415419245" lon="9.461703595971649"><ele>9.0</ele><time>2026-03-21T19:01:54.001Z</time></trkpt><trkpt lat="41.069397177391124" lon="9.461562170897977"><ele>9.0</ele><time>2026-03-21T19:01:55.001Z</time></trkpt><trkpt lat="41.06949339878021" lon="9.461422428679173"><ele>9.0</ele><time>2026-03-21T19:01:56.001Z</time></trkpt><trkpt lat="41.069590061369844" lon="9.46128359879842"><ele>9.0</ele><time>2026-03-21T19:01:57.001Z</time></trkpt><trkpt lat="41.06968575600375" lon="9.4611465237242"><ele>9.0</ele><time>2026-03-21T19:01:58.001Z</time></trkpt><trkpt lat="41.06977917553041" lon="9.461012876393733"><ele>8.5</ele><time>2026-03-21T19:01:59.001Z</time></trkpt><trkpt lat="41.06987125573659" lon="9.46088003023589"><ele>8.0</ele><time>2026-03-21T19:02:00.001Z</time></trkpt><trkpt lat="41.06996045348822" lon="9.460751692786308"><ele>7.5</ele><time>2026-03-21T19:02:01.001Z</time></trkpt><trkpt lat="41.07004763006821" lon="9.460630164951535"><ele>7.0</ele><time>2026-03-21T19:02:02.001Z</time></trkpt><trkpt lat="41.07013730388214" lon="9.460524076240727"><ele>7.000000000000001</ele><time>2026-03-21T19:02:03.001Z</time></trkpt><trkpt lat="41.07022422882245" lon="9.46044695815159"><ele>7.0</ele><time>2026-03-21T19:02:04.001Z</time></trkpt><trkpt lat="41.07030366386939" lon="9.460401964222124"><ele>7.0</ele><time>2026-03-21T19:02:05.001Z</time></trkpt><trkpt lat="41.07037761035783" lon="9.460374132034792"><ele>7.0</ele><time>2026-03-21T19:02:07.001Z</time></trkpt><trkpt lat="41.070440593067616" lon="9.460331373103214"><ele>7.000000000000001</ele><time>2026-03-21T19:02:13.001Z</time></trkpt><trkpt lat="41.07049647955313" lon="9.460258900604819"><ele>7.0</ele><time>2026-03-21T19:02:16.001Z</time></trkpt><trkpt lat="41.07052905910212" lon="9.460151243200146"><ele>7.0</ele><time>2026-03-21T19:02:18.001Z</time></trkpt><trkpt lat="41.070509763903495" lon="9.459974127090238"><ele>6.999999999999999</ele><time>2026-03-21T19:02:20.001Z</time></trkpt><trkpt lat="41.07048147236715" lon="9.459876153825544"><ele>6.999999999999999</ele><time>2026-03-21T19:02:21.001Z</time></trkpt><trkpt lat="41.070458746813934" lon="9.459765090162803"><ele>7.0</ele><time>2026-03-21T19:02:22.001Z</time></trkpt><trkpt lat="41.070434521628904" lon="9.459636615666051"><ele>7.0</ele><time>2026-03-21T19:02:23.001Z</time></trkpt><trkpt lat="41.0704142423704" lon="9.459490773473101"><ele>6.75</ele><time>2026-03-21T19:02:24.001Z</time></trkpt><trkpt lat="41.070396295313564" lon="9.459339590018768"><ele>6.5</ele><time>2026-03-21T19:02:25.001Z</time></trkpt><trkpt lat="41.0703816508695" lon="9.459177336189647"><ele>6.25</ele><time>2026-03-21T19:02:26.001Z</time></trkpt><trkpt lat="41.070368927712586" lon="9.459007037609396"><ele>6.0</ele><time>2026-03-21T19:02:27.001Z</time></trkpt><trkpt lat="41.0703559252655" lon="9.458823276957512"><ele>6.333333333333334</ele><time>2026-03-21T19:02:28.001Z</time></trkpt><trkpt lat="41.070343108647165" lon="9.458631649373954"><ele>6.666666666666667</ele><time>2026-03-21T19:02:29.001Z</time></trkpt><trkpt lat="41.070328455766806" lon="9.458430240921379"><ele>7.0</ele><time>2026-03-21T19:02:30.001Z</time></trkpt><trkpt lat="41.07031378611598" lon="9.458221872839232"><ele>7.0</ele><time>2026-03-21T19:02:31.001Z</time></trkpt><trkpt lat="41.07029572437247" lon="9.458007643241535"><ele>7.0</ele><time>2026-03-21T19:02:32.001Z</time></trkpt><trkpt lat="41.07028071681845" lon="9.457787484535146"><ele>7.0</ele><time>2026-03-21T19:02:33.001Z</time></trkpt><trkpt lat="41.070266692347225" lon="9.45756479071326"><ele>7.0</ele><time>2026-03-21T19:02:34.001Z</time></trkpt><trkpt lat="41.070251538697015" lon="9.45734208910291"><ele>7.0</ele><time>2026-03-21T19:02:35.001Z</time></trkpt><trkpt lat="41.07023710407678" lon="9.457122555673921"><ele>7.0</ele><time>2026-03-21T19:02:36.001Z</time></trkpt><trkpt lat="41.07022307525341" lon="9.456907002861668"><ele>7.0</ele><time>2026-03-21T19:02:37.001Z</time></trkpt><trkpt lat="41.0702094535182" lon="9.456695013115398"><ele>7.0</ele><time>2026-03-21T19:02:38.001Z</time></trkpt><trkpt lat="41.07019525621793" lon="9.45648296651827"><ele>7.0</ele><time>2026-03-21T19:02:39.001Z</time></trkpt><trkpt lat="41.0701806228396" lon="9.456270644507924"><ele>7.0</ele><time>2026-03-21T19:02:40.001Z</time></trkpt><trkpt lat="41.070165443597574" lon="9.456062500992097"><ele>7.0</ele><time>2026-03-21T19:02:41.001Z</time></trkpt><trkpt lat="41.07015087190861" lon="9.455857358384785"><ele>7.0</ele><time>2026-03-21T19:02:42.001Z</time></trkpt><trkpt lat="41.07013510871661" lon="9.455650495577691"><ele>7.333333333333334</ele><time>2026-03-21T19:02:43.001Z</time></trkpt><trkpt lat="41.07012032064771" lon="9.455436899006004"><ele>7.666666666666666</ele><time>2026-03-21T19:02:44.001Z</time></trkpt><trkpt lat="41.07010540123404" lon="9.455226848891524"><ele>8.0</ele><time>2026-03-21T19:02:45.001Z</time></trkpt><trkpt lat="41.070089868616925" lon="9.455020710263044"><ele>8.0</ele><time>2026-03-21T19:02:46.001Z</time></trkpt><trkpt lat="41.07007529410839" lon="9.454818501128038"><ele>8.0</ele><time>2026-03-21T19:02:47.001Z</time></trkpt><trkpt lat="41.07006194133374" lon="9.454620460710052"><ele>8.0</ele><time>2026-03-21T19:02:48.001Z</time></trkpt><trkpt lat="41.0700474755983" lon="9.454426428762032"><ele>8.0</ele><time>2026-03-21T19:02:49.001Z</time></trkpt><trkpt lat="41.070034301145846" lon="9.454232798123059"><ele>8.0</ele><time>2026-03-21T19:02:50.001Z</time></trkpt><trkpt lat="41.07001965092703" lon="9.454038970546186"><ele>8.0</ele><time>2026-03-21T19:02:51.001Z</time></trkpt><trkpt lat="41.07000569932794" lon="9.453842123974287"><ele>8.0</ele><time>2026-03-21T19:02:52.001Z</time></trkpt><trkpt lat="41.06999234276665" lon="9.453639382312662"><ele>7.666666666666666</ele><time>2026-03-21T19:02:53.001Z</time></trkpt><trkpt lat="41.069979765975724" lon="9.453430938536442"><ele>7.333333333333334</ele><time>2026-03-21T19:02:54.001Z</time></trkpt><trkpt lat="41.0699639836301" lon="9.453219267095156"><ele>7.0</ele><time>2026-03-21T19:02:55.001Z</time></trkpt><trkpt lat="41.069947764568184" lon="9.453005154547503"><ele>6.333333333333334</ele><time>2026-03-21T19:02:56.001Z</time></trkpt><trkpt lat="41.069932224038" lon="9.452788906641302"><ele>5.666666666666667</ele><time>2026-03-21T19:02:57.001Z</time></trkpt><trkpt lat="41.06991792094677" lon="9.452574222133643"><ele>5.0</ele><time>2026-03-21T19:02:58.001Z</time></trkpt><trkpt lat="41.06990403239512" lon="9.452365156827222"><ele>5.0</ele><time>2026-03-21T19:02:59.001Z</time></trkpt><trkpt lat="41.06989149390206" lon="9.452158692969471"><ele>5.0</ele><time>2026-03-21T19:03:00.001Z</time></trkpt><trkpt lat="41.069872348505584" lon="9.45194610703215"><ele>5.0</ele><time>2026-03-21T19:03:01.001Z</time></trkpt><trkpt lat="41.069847125015386" lon="9.451727799919738"><ele>5.0</ele><time>2026-03-21T19:03:02.001Z</time></trkpt><trkpt lat="41.06980911770267" lon="9.451506748660556"><ele>5.0</ele><time>2026-03-21T19:03:03.001Z</time></trkpt><trkpt lat="41.06975542527" lon="9.451286076104862"><ele>5.0</ele><time>2026-03-21T19:03:04.001Z</time></trkpt><trkpt lat="41.06969145568505" lon="9.451062150651726"><ele>5.666666666666667</ele><time>2026-03-21T19:03:05.001Z</time></trkpt><trkpt lat="41.06962078228288" lon="9.450843831552858"><ele>6.333333333333334</ele><time>2026-03-21T19:03:06.001Z</time></trkpt><trkpt lat="41.069550361098635" lon="9.45062359473022"><ele>7.0</ele><time>2026-03-21T19:03:07.001Z</time></trkpt><trkpt lat="41.069477820565666" lon="9.450398491716257"><ele>7.333333333333334</ele><time>2026-03-21T19:03:08.001Z</time></trkpt><trkpt lat="41.06940347688902" lon="9.450165599666215"><ele>7.666666666666666</ele><time>2026-03-21T19:03:09.001Z</time></trkpt><trkpt lat="41.06932757522843" lon="9.44992957354809"><ele>8.0</ele><time>2026-03-21T19:03:10.002Z</time></trkpt><trkpt lat="41.0692519038166" lon="9.449682379010078"><ele>7.666666666666666</ele><time>2026-03-21T19:03:11.002Z</time></trkpt><trkpt lat="41.069172121501595" lon="9.449438720417598"><ele>7.333333333333334</ele><time>2026-03-21T19:03:12.002Z</time></trkpt><trkpt lat="41.06909572137004" lon="9.449193022520827"><ele>7.0</ele><time>2026-03-21T19:03:13.002Z</time></trkpt><trkpt lat="41.06902135792751" lon="9.448958994773706"><ele>8.0</ele><time>2026-03-21T19:03:14.002Z</time></trkpt><trkpt lat="41.06895019108436" lon="9.448731401527278"><ele>9.0</ele><time>2026-03-21T19:03:15.002Z</time></trkpt><trkpt lat="41.06888095315018" lon="9.448510722057835"><ele>10.0</ele><time>2026-03-21T19:03:16.002Z</time></trkpt><trkpt lat="41.06881183847003" lon="9.448294009437715"><ele>10.0</ele><time>2026-03-21T19:03:17.002Z</time></trkpt><trkpt lat="41.06873957727101" lon="9.448075647486547"><ele>10.0</ele><time>2026-03-21T19:03:18.002Z</time></trkpt><trkpt lat="41.06867315209662" lon="9.447861997538812"><ele>10.0</ele><time>2026-03-21T19:03:19.002Z</time></trkpt><trkpt lat="41.068607688117496" lon="9.44765411323454"><ele>11.0</ele><time>2026-03-21T19:03:20.002Z</time></trkpt><trkpt lat="41.068543716255796" lon="9.447449744313507"><ele>12.0</ele><time>2026-03-21T19:03:21.002Z</time></trkpt><trkpt lat="41.068480193601076" lon="9.447241862784036"><ele>13.0</ele><time>2026-03-21T19:03:22.002Z</time></trkpt><trkpt lat="41.06841795447051" lon="9.447031228110582"><ele>11.666666666666666</ele><time>2026-03-21T19:03:23.002Z</time></trkpt><trkpt lat="41.068361028810095" lon="9.446812185472488"><ele>10.333333333333332</ele><time>2026-03-21T19:03:24.002Z</time></trkpt><trkpt lat="41.06830950337285" lon="9.446585295093357"><ele>9.0</ele><time>2026-03-21T19:03:25.002Z</time></trkpt><trkpt lat="41.06826720531313" lon="9.446349201021507"><ele>8.666666666666666</ele><time>2026-03-21T19:03:26Z</time></trkpt><trkpt lat="41.068232738039185" lon="9.446105715036433"><ele>8.333333333333332</ele><time>2026-03-21T19:03:27Z</time></trkpt><trkpt lat="41.06820667678273" lon="9.445855543043399"><ele>8.0</ele><time>2026-03-21T19:03:28Z</time></trkpt><trkpt lat="41.06818619955326" lon="9.445608283173986"><ele>7.666666666666666</ele><time>2026-03-21T19:03:29Z</time></trkpt><trkpt lat="41.068165311520104" lon="9.445363882388461"><ele>7.333333333333334</ele><time>2026-03-21T19:03:30Z</time></trkpt><trkpt lat="41.06814499863458" lon="9.44512100229299"><ele>7.0</ele><time>2026-03-21T19:03:31Z</time></trkpt><trkpt lat="41.06812418818695" lon="9.444878282307588"><ele>7.0</ele><time>2026-03-21T19:03:32Z</time></trkpt><trkpt lat="41.06810152807542" lon="9.444632789213717"><ele>7.0</ele><time>2026-03-21T19:03:33Z</time></trkpt><trkpt lat="41.068078974768014" lon="9.444382477369325"><ele>7.0</ele><time>2026-03-21T19:03:34Z</time></trkpt><trkpt lat="41.06805352800871" lon="9.444133098299277"><ele>7.666666666666667</ele><time>2026-03-21T19:03:35Z</time></trkpt><trkpt lat="41.06802945401818" lon="9.443885483408232"><ele>8.333333333333334</ele><time>2026-03-21T19:03:36Z</time></trkpt><trkpt lat="41.06800518971283" lon="9.44363555238482"><ele>9.0</ele><time>2026-03-21T19:03:37Z</time></trkpt><trkpt lat="41.067983124522335" lon="9.443386019333467"><ele>9.0</ele><time>2026-03-21T19:03:38Z</time></trkpt><trkpt lat="41.06796260765676" lon="9.443135305218615"><ele>9.0</ele><time>2026-03-21T19:03:39Z</time></trkpt><trkpt lat="41.06793736812891" lon="9.442890977998779"><ele>9.0</ele><time>2026-03-21T19:03:40Z</time></trkpt><trkpt lat="41.067912630926" lon="9.442651768844163"><ele>9.0</ele><time>2026-03-21T19:03:41Z</time></trkpt><trkpt lat="41.06789045133832" lon="9.44241631558549"><ele>9.0</ele><time>2026-03-21T19:03:42Z</time></trkpt><trkpt lat="41.06786947423562" lon="9.442187618020952"><ele>9.0</ele><time>2026-03-21T19:03:43Z</time></trkpt><trkpt lat="41.067850579914825" lon="9.441961194749988"><ele>10.333333333333332</ele><time>2026-03-21T19:03:44Z</time></trkpt><trkpt lat="41.067828526698655" lon="9.441731127482383"><ele>11.666666666666666</ele><time>2026-03-21T19:03:45Z</time></trkpt><trkpt lat="41.06780787123367" lon="9.441500434607972"><ele>13.0</ele><time>2026-03-21T19:03:46Z</time></trkpt><trkpt lat="41.067787344474944" lon="9.441269959230327"><ele>13.333333333333332</ele><time>2026-03-21T19:03:47Z</time></trkpt><trkpt lat="41.06776534669266" lon="9.44103532110361"><ele>13.666666666666668</ele><time>2026-03-21T19:03:48Z</time></trkpt><trkpt lat="41.06774335797649" lon="9.440800613761072"><ele>14.0</ele><time>2026-03-21T19:03:49Z</time></trkpt><trkpt lat="41.0677200709152" lon="9.44056134746127"><ele>14.0</ele><time>2026-03-21T19:03:50Z</time></trkpt><trkpt lat="41.067697150460155" lon="9.440326696597067"><ele>14.0</ele><time>2026-03-21T19:03:51Z</time></trkpt><trkpt lat="41.06767446569052" lon="9.44009070756258"><ele>14.0</ele><time>2026-03-21T19:03:52Z</time></trkpt><trkpt lat="41.06765048019146" lon="9.439852034502868"><ele>14.666666666666668</ele><time>2026-03-21T19:03:53Z</time></trkpt><trkpt lat="41.067627213081664" lon="9.439608250860882"><ele>15.333333333333332</ele><time>2026-03-21T19:03:54Z</time></trkpt><trkpt lat="41.06760418996156" lon="9.43936036458466"><ele>16.0</ele><time>2026-03-21T19:03:55Z</time></trkpt><trkpt lat="41.06758164810407" lon="9.439116855398046"><ele>16.0</ele><time>2026-03-21T19:03:56Z</time></trkpt><trkpt lat="41.06755966433127" lon="9.438867812747004"><ele>16.0</ele><time>2026-03-21T19:03:57Z</time></trkpt><trkpt lat="41.067537283999634" lon="9.438619870488754"><ele>16.0</ele><time>2026-03-21T19:03:58Z</time></trkpt><trkpt lat="41.06750990663934" lon="9.438369163976134"><ele>16.0</ele><time>2026-03-21T19:03:59Z</time></trkpt><trkpt lat="41.06747616469589" lon="9.438122935042507"><ele>16.0</ele><time>2026-03-21T19:04:00Z</time></trkpt><trkpt lat="41.06743650601766" lon="9.437886861978058"><ele>16.0</ele><time>2026-03-21T19:04:01.001Z</time></trkpt><trkpt lat="41.06739680617049" lon="9.43765138420253"><ele>16.0</ele><time>2026-03-21T19:04:02.001Z</time></trkpt><trkpt lat="41.0673590156272" lon="9.437421722595966"><ele>16.0</ele><time>2026-03-21T19:04:03.001Z</time></trkpt><trkpt lat="41.06732251164858" lon="9.437194985412992"><ele>16.0</ele><time>2026-03-21T19:04:04.001Z</time></trkpt><trkpt lat="41.06728458859233" lon="9.436972303093208"><ele>14.333333333333332</ele><time>2026-03-21T19:04:05.001Z</time></trkpt><trkpt lat="41.067244584971604" lon="9.43675456273"><ele>12.666666666666666</ele><time>2026-03-21T19:04:06.001Z</time></trkpt><trkpt lat="41.06719837165966" lon="9.43654073167129"><ele>11.0</ele><time>2026-03-21T19:04:07.001Z</time></trkpt><trkpt lat="41.067143414791694" lon="9.436327360965665"><ele>11.333333333333332</ele><time>2026-03-21T19:04:08.001Z</time></trkpt><trkpt lat="41.06708866039556" lon="9.436114826969371"><ele>11.666666666666666</ele><time>2026-03-21T19:04:09.001Z</time></trkpt><trkpt lat="41.067031217514256" lon="9.435908810168053"><ele>12.0</ele><time>2026-03-21T19:04:10.001Z</time></trkpt><trkpt lat="41.06697218389902" lon="9.435708141561284"><ele>12.0</ele><time>2026-03-21T19:04:11.001Z</time></trkpt><trkpt lat="41.066913252741436" lon="9.435508172471932"><ele>12.0</ele><time>2026-03-21T19:04:12.001Z</time></trkpt><trkpt lat="41.06685245216419" lon="9.435305664865457"><ele>12.0</ele><time>2026-03-21T19:04:13.001Z</time></trkpt><trkpt lat="41.06679103203896" lon="9.435097835148715"><ele>12.333333333333332</ele><time>2026-03-21T19:04:14.001Z</time></trkpt><trkpt lat="41.06672876325218" lon="9.434887120602909"><ele>12.666666666666666</ele><time>2026-03-21T19:04:15.001Z</time></trkpt><trkpt lat="41.066665447456735" lon="9.43466986705401"><ele>13.0</ele><time>2026-03-21T19:04:16.001Z</time></trkpt><trkpt lat="41.066600287074095" lon="9.434449545107338"><ele>12.333333333333332</ele><time>2026-03-21T19:04:17.001Z</time></trkpt><trkpt lat="41.06653449933027" lon="9.434230772719499"><ele>11.666666666666666</ele><time>2026-03-21T19:04:18.001Z</time></trkpt><trkpt lat="41.0664715973749" lon="9.43401042279746"><ele>11.0</ele><time>2026-03-21T19:04:19.001Z</time></trkpt><trkpt lat="41.066410682443866" lon="9.433795553888462"><ele>10.666666666666666</ele><time>2026-03-21T19:04:20.001Z</time></trkpt><trkpt lat="41.06634658462952" lon="9.433584770119328"><ele>10.333333333333334</ele><time>2026-03-21T19:04:21.001Z</time></trkpt><trkpt lat="41.0662808335777" lon="9.433372404696021"><ele>10.0</ele><time>2026-03-21T19:04:22.001Z</time></trkpt><trkpt lat="41.066215617792956" lon="9.433159948098357"><ele>10.333333333333334</ele><time>2026-03-21T19:04:23.001Z</time></trkpt><trkpt lat="41.06615251518282" lon="9.43295157094379"><ele>10.666666666666666</ele><time>2026-03-21T19:04:24.001Z</time></trkpt><trkpt lat="41.066088290254186" lon="9.432746033215714"><ele>11.0</ele><time>2026-03-21T19:04:25.001Z</time></trkpt><trkpt lat="41.066024842854326" lon="9.432544191061352"><ele>11.0</ele><time>2026-03-21T19:04:26.001Z</time></trkpt><trkpt lat="41.065966289354236" lon="9.432344686652538"><ele>11.0</ele><time>2026-03-21T19:04:27.001Z</time></trkpt><trkpt lat="41.06590992983819" lon="9.43214764379753"><ele>11.0</ele><time>2026-03-21T19:04:28.001Z</time></trkpt><trkpt lat="41.065858172124955" lon="9.43195303036764"><ele>11.25</ele><time>2026-03-21T19:04:29.001Z</time></trkpt><trkpt lat="41.06581871653949" lon="9.431771413893898"><ele>11.5</ele><time>2026-03-21T19:04:30.001Z</time></trkpt><trkpt lat="41.065794433999" lon="9.431604644983029"><ele>11.75</ele><time>2026-03-21T19:04:31.001Z</time></trkpt><trkpt lat="41.06578866807896" lon="9.431454173051778"><ele>12.0</ele><time>2026-03-21T19:04:32.001Z</time></trkpt><trkpt lat="41.0657921505261" lon="9.431320282117863"><ele>12.0</ele><time>2026-03-21T19:04:33.001Z</time></trkpt><trkpt lat="41.065805082677045" lon="9.431188083095225"><ele>12.0</ele><time>2026-03-21T19:04:34.001Z</time></trkpt><trkpt lat="41.065827677428814" lon="9.431058938082671"><ele>12.0</ele><time>2026-03-21T19:04:35.001Z</time></trkpt><trkpt lat="41.06585883578609" lon="9.43092507088685"><ele>12.0</ele><time>2026-03-21T19:04:36.001Z</time></trkpt><trkpt lat="41.065898684892446" lon="9.43078735386846"><ele>12.0</ele><time>2026-03-21T19:04:37.001Z</time></trkpt><trkpt lat="41.0659527588812" lon="9.430650548771098"><ele>12.0</ele><time>2026-03-21T19:04:38.001Z</time></trkpt><trkpt lat="41.06602273367304" lon="9.430514701322789"><ele>12.0</ele><time>2026-03-21T19:04:39.001Z</time></trkpt><trkpt lat="41.066103914331315" lon="9.430390725287587"><ele>12.0</ele><time>2026-03-21T19:04:40.001Z</time></trkpt><trkpt lat="41.066199146234126" lon="9.43027645307657"><ele>12.0</ele><time>2026-03-21T19:04:41.001Z</time></trkpt><trkpt lat="41.066299446303866" lon="9.430166178258967"><ele>12.0</ele><time>2026-03-21T19:04:42.001Z</time></trkpt><trkpt lat="41.066406484173555" lon="9.430055728188773"><ele>12.0</ele><time>2026-03-21T19:04:43.001Z</time></trkpt><trkpt lat="41.06651768306334" lon="9.429944160863172"><ele>12.0</ele><time>2026-03-21T19:04:44.001Z</time></trkpt><trkpt lat="41.06663232846312" lon="9.429831769034319"><ele>12.0</ele><time>2026-03-21T19:04:45.001Z</time></trkpt><trkpt lat="41.066748215256005" lon="9.429710669743923"><ele>11.333333333333334</ele><time>2026-03-21T19:04:46.001Z</time></trkpt><trkpt lat="41.06686623632432" lon="9.429589034327917"><ele>10.666666666666668</ele><time>2026-03-21T19:04:47.001Z</time></trkpt><trkpt lat="41.066986462155946" lon="9.42946673267867"><ele>10.0</ele><time>2026-03-21T19:04:48.001Z</time></trkpt><trkpt lat="41.067108465352526" lon="9.42934309105684"><ele>10.0</ele><time>2026-03-21T19:04:49.001Z</time></trkpt><trkpt lat="41.067229069447784" lon="9.429220523064116"><ele>10.0</ele><time>2026-03-21T19:04:50.001Z</time></trkpt><trkpt lat="41.067351389284106" lon="9.429096043200614"><ele>10.0</ele><time>2026-03-21T19:04:51.001Z</time></trkpt><trkpt lat="41.06747571555521" lon="9.428970847415284"><ele>10.0</ele><time>2026-03-21T19:04:52.001Z</time></trkpt><trkpt lat="41.06760098320553" lon="9.428843510856222"><ele>10.0</ele><time>2026-03-21T19:04:53.001Z</time></trkpt><trkpt lat="41.06772800177405" lon="9.428716454100858"><ele>10.0</ele><time>2026-03-21T19:04:54.001Z</time></trkpt><trkpt lat="41.06785095997976" lon="9.428590720964284"><ele>10.0</ele><time>2026-03-21T19:04:55.001Z</time></trkpt><trkpt lat="41.06797003101778" lon="9.42846353287296"><ele>10.0</ele><time>2026-03-21T19:04:56.001Z</time></trkpt><trkpt lat="41.0680815809022" lon="9.428318218817838"><ele>10.0</ele><time>2026-03-21T19:04:57.001Z</time></trkpt><trkpt lat="41.06818387708006" lon="9.428147749693277"><ele>10.0</ele><time>2026-03-21T19:04:58.001Z</time></trkpt><trkpt lat="41.06827169945263" lon="9.427965251293756"><ele>10.0</ele><time>2026-03-21T19:04:59.001Z</time></trkpt><trkpt lat="41.06835183222593" lon="9.427778591711892"><ele>10.0</ele><time>2026-03-21T19:05:00.001Z</time></trkpt><trkpt lat="41.06842952142488" lon="9.427594217856731"><ele>10.0</ele><time>2026-03-21T19:05:01.001Z</time></trkpt><trkpt lat="41.068507347458265" lon="9.427414195888769"><ele>10.0</ele><time>2026-03-21T19:05:02.001Z</time></trkpt><trkpt lat="41.06858491106101" lon="9.427240593416887"><ele>10.0</ele><time>2026-03-21T19:05:03.001Z</time></trkpt><trkpt lat="41.06865710916361" lon="9.427076765469005"><ele>10.0</ele><time>2026-03-21T19:05:04.001Z</time></trkpt><trkpt lat="41.068723087917476" lon="9.426927578833098"><ele>10.0</ele><time>2026-03-21T19:05:05.001Z</time></trkpt><trkpt lat="41.068784775098614" lon="9.426790092647876"><ele>10.0</ele><time>2026-03-21T19:05:06.001Z</time></trkpt><trkpt lat="41.06883920751519" lon="9.426664190991605"><ele>10.0</ele><time>2026-03-21T19:05:07.001Z</time></trkpt><trkpt lat="41.06887349571583" lon="9.426533962546998"><ele>10.0</ele><time>2026-03-21T19:05:08.001Z</time></trkpt><trkpt lat="41.06887184593517" lon="9.426395266082157"><ele>10.0</ele><time>2026-03-21T19:05:09.001Z</time></trkpt><trkpt lat="41.06881871584495" lon="9.426280484890892"><ele>10.0</ele><time>2026-03-21T19:05:10.001Z</time></trkpt><trkpt lat="41.06873833369526" lon="9.426177780811642"><ele>10.0</ele><time>2026-03-21T19:05:11.001Z</time></trkpt><trkpt lat="41.06866909029489" lon="9.426073742122451"><ele>10.0</ele><time>2026-03-21T19:05:12.001Z</time></trkpt><trkpt lat="41.06860492539207" lon="9.425970386848524"><ele>9.8</ele><time>2026-03-21T19:05:13.001Z</time></trkpt><trkpt lat="41.06854291769863" lon="9.425870404699072"><ele>9.6</ele><time>2026-03-21T19:05:14.001Z</time></trkpt><trkpt lat="41.068480631343725" lon="9.425769906916315"><ele>9.4</ele><time>2026-03-21T19:05:15.001Z</time></trkpt><trkpt lat="41.06841369500765" lon="9.425670264752961"><ele>9.2</ele><time>2026-03-21T19:05:16.001Z</time></trkpt><trkpt lat="41.06834979454512" lon="9.425560999042064"><ele>9.0</ele><time>2026-03-21T19:05:17.001Z</time></trkpt><trkpt lat="41.06829854644885" lon="9.425437123572278"><ele>9.0</ele><time>2026-03-21T19:05:18.001Z</time></trkpt><trkpt lat="41.068265801346485" lon="9.425298966891436"><ele>9.0</ele><time>2026-03-21T19:05:19.001Z</time></trkpt><trkpt lat="41.06824931596346" lon="9.425150239633304"><ele>9.0</ele><time>2026-03-21T19:05:20.002Z</time></trkpt><trkpt lat="41.06824909024139" lon="9.4249920859375"><ele>9.0</ele><time>2026-03-21T19:05:21.002Z</time></trkpt><trkpt lat="41.06826289480634" lon="9.424829184980583"><ele>9.0</ele><time>2026-03-21T19:05:22.002Z</time></trkpt><trkpt lat="41.06828351122108" lon="9.424663064024687"><ele>9.0</ele><time>2026-03-21T19:05:23.002Z</time></trkpt><trkpt lat="41.06830497295527" lon="9.424493180245063"><ele>9.0</ele><time>2026-03-21T19:05:24.002Z</time></trkpt><trkpt lat="41.06832607481059" lon="9.424320553503055"><ele>9.0</ele><time>2026-03-21T19:05:25.002Z</time></trkpt><trkpt lat="41.06834816148552" lon="9.424144363304373"><ele>8.75</ele><time>2026-03-21T19:05:26.002Z</time></trkpt><trkpt lat="41.06836964476392" lon="9.423962146543568"><ele>8.5</ele><time>2026-03-21T19:05:27.002Z</time></trkpt><trkpt lat="41.0683931139023" lon="9.42377828594486"><ele>8.25</ele><time>2026-03-21T19:05:28.002Z</time></trkpt><trkpt lat="41.06841449505995" lon="9.423592759850356"><ele>8.0</ele><time>2026-03-21T19:05:29.002Z</time></trkpt><trkpt lat="41.06843631768977" lon="9.423407245615664"><ele>7.75</ele><time>2026-03-21T19:05:30.002Z</time></trkpt><trkpt lat="41.06845792612876" lon="9.423221144973953"><ele>7.5</ele><time>2026-03-21T19:05:31.002Z</time></trkpt><trkpt lat="41.06848160584726" lon="9.42303348907912"><ele>7.25</ele><time>2026-03-21T19:05:32Z</time></trkpt><trkpt lat="41.068504530438005" lon="9.422842998703969"><ele>7.0</ele><time>2026-03-21T19:05:33Z</time></trkpt><trkpt lat="41.068528247908716" lon="9.42264780626839"><ele>7.0</ele><time>2026-03-21T19:05:34Z</time></trkpt><trkpt lat="41.06855037644157" lon="9.422448871786933"><ele>7.0</ele><time>2026-03-21T19:05:35Z</time></trkpt><trkpt lat="41.06857373855648" lon="9.422246070323785"><ele>7.0</ele><time>2026-03-21T19:05:36Z</time></trkpt><trkpt lat="41.06859826306497" lon="9.422041245424204"><ele>7.0</ele><time>2026-03-21T19:05:37Z</time></trkpt><trkpt lat="41.06862373532514" lon="9.421833021926831"><ele>7.0</ele><time>2026-03-21T19:05:38Z</time></trkpt><trkpt lat="41.06865040044642" lon="9.421622380822418"><ele>7.0</ele><time>2026-03-21T19:05:39Z</time></trkpt><trkpt lat="41.068678124435614" lon="9.421407994386348"><ele>7.333333333333334</ele><time>2026-03-21T19:05:40Z</time></trkpt><trkpt lat="41.06870265099531" lon="9.421201039453688"><ele>7.666666666666666</ele><time>2026-03-21T19:05:41Z</time></trkpt><trkpt lat="41.068727198930816" lon="9.420999696444815"><ele>8.0</ele><time>2026-03-21T19:05:42Z</time></trkpt><trkpt lat="41.068752110440506" lon="9.420803165977047"><ele>8.0</ele><time>2026-03-21T19:05:43Z</time></trkpt><trkpt lat="41.06877563377816" lon="9.420610657221594"><ele>8.0</ele><time>2026-03-21T19:05:44Z</time></trkpt><trkpt lat="41.068798857450965" lon="9.420416340396851"><ele>8.0</ele><time>2026-03-21T19:05:45Z</time></trkpt><trkpt lat="41.06882506676901" lon="9.420221166621372"><ele>8.0</ele><time>2026-03-21T19:05:46Z</time></trkpt><trkpt lat="41.06885008147876" lon="9.420025141820947"><ele>8.5</ele><time>2026-03-21T19:05:47Z</time></trkpt><trkpt lat="41.06887554563904" lon="9.419834067594298"><ele>9.0</ele><time>2026-03-21T19:05:48Z</time></trkpt><trkpt lat="41.068899087386875" lon="9.419651331004465"><ele>9.5</ele><time>2026-03-21T19:05:49Z</time></trkpt><trkpt lat="41.06892128366116" lon="9.4194736575233"><ele>10.0</ele><time>2026-03-21T19:05:50Z</time></trkpt><trkpt lat="41.06894166536785" lon="9.419303436184839"><ele>10.0</ele><time>2026-03-21T19:05:51Z</time></trkpt><trkpt lat="41.06896032256747" lon="9.419139280814699"><ele>10.0</ele><time>2026-03-21T19:05:52Z</time></trkpt><trkpt lat="41.0689728009559" lon="9.418981585448584"><ele>10.0</ele><time>2026-03-21T19:05:53Z</time></trkpt><trkpt lat="41.06897446020957" lon="9.418829293905997"><ele>10.0</ele><time>2026-03-21T19:05:54Z</time></trkpt><trkpt lat="41.068969813966746" lon="9.418684662269984"><ele>10.0</ele><time>2026-03-21T19:05:55Z</time></trkpt><trkpt lat="41.06896544238048" lon="9.418555088270207"><ele>10.0</ele><time>2026-03-21T19:05:56Z</time></trkpt><trkpt lat="41.06895758264098" lon="9.41844198796352"><ele>10.0</ele><time>2026-03-21T19:05:57Z</time></trkpt><trkpt lat="41.06894867989912" lon="9.418345775865024"><ele>10.0</ele><time>2026-03-21T19:05:58Z</time></trkpt><trkpt lat="41.068934601932" lon="9.418209099160658"><ele>10.0</ele><time>2026-03-21T19:06:00Z</time></trkpt><trkpt lat="41.06877341521152" lon="9.418143328085744"><ele>10.0</ele><time>2026-03-21T19:06:03Z</time></trkpt><trkpt lat="41.06879180476007" lon="9.418331289942412"><ele>10.0</ele><time>2026-03-21T19:06:04Z</time></trkpt><trkpt lat="41.068799717893725" lon="9.418480832811188"><ele>10.0</ele><time>2026-03-21T19:06:06Z</time></trkpt><trkpt lat="41.068804298919545" lon="9.41856478563177"><ele>10.0</ele><time>2026-03-21T19:06:07Z</time></trkpt><trkpt lat="41.06881328011075" lon="9.418729376814031"><ele>10.0</ele><time>2026-03-21T19:06:09Z</time></trkpt><trkpt lat="41.068819449579074" lon="9.418873668554253"><ele>10.0</ele><time>2026-03-21T19:06:11Z</time></trkpt><trkpt lat="41.06883341411093" lon="9.419014512210516"><ele>10.0</ele><time>2026-03-21T19:06:13Z</time></trkpt><trkpt lat="41.06881791226084" lon="9.419139545009678"><ele>10.0</ele><time>2026-03-21T19:06:15Z</time></trkpt><trkpt lat="41.06882325492176" lon="9.419223219410972"><ele>10.0</ele><time>2026-03-21T19:06:40.001Z</time></trkpt><trkpt lat="41.068799049031064" lon="9.419321745413722"><ele>10.0</ele><time>2026-03-21T19:06:43.001Z</time></trkpt><trkpt lat="41.068780953776404" lon="9.419419822422775"><ele>10.0</ele><time>2026-03-21T19:06:46.001Z</time></trkpt><trkpt lat="41.068749523647334" lon="9.419495402306014"><ele>10.0</ele><time>2026-03-21T19:06:51.001Z</time></trkpt><trkpt lat="41.068707186783605" lon="9.419569959250271"><ele>10.0</ele><time>2026-03-21T19:06:56.001Z</time></trkpt><trkpt lat="41.06865377768404" lon="9.419628648659325"><ele>10.0</ele><time>2026-03-21T19:07:00.001Z</time></trkpt><trkpt lat="41.06863475070488" lon="9.419780722142724"><ele>10.0</ele><time>2026-03-21T19:07:27.001Z</time></trkpt><trkpt lat="41.06861361708554" lon="9.419624907986341"><ele>10.0</ele><time>2026-03-21T19:07:32.001Z</time></trkpt><trkpt lat="41.068650266248596" lon="9.419775249844944"><ele>10.0</ele><time>2026-03-21T19:07:33.001Z</time></trkpt><trkpt lat="41.06862743107951" lon="9.419619059175512"><ele>10.0</ele><time>2026-03-21T19:07:37.001Z</time></trkpt><trkpt lat="41.0686745474882" lon="9.41975446262289"><ele>10.0</ele><time>2026-03-21T19:07:42Z</time></trkpt><trkpt lat="41.068646736166826" lon="9.419610885404872"><ele>10.0</ele><time>2026-03-21T19:07:44Z</time></trkpt><trkpt lat="41.068713088014626" lon="9.41958977126337"><ele>10.0</ele><time>2026-03-21T19:07:58Z</time></trkpt><trkpt lat="41.06874765197475" lon="9.419514905313745"><ele>10.0</ele><time>2026-03-21T19:08:05Z</time></trkpt><trkpt lat="41.068734775714844" lon="9.419422665781218"><ele>10.0</ele><time>2026-03-21T19:08:12Z</time></trkpt><trkpt lat="41.068710496659634" lon="9.419342044588427"><ele>10.0</ele><time>2026-03-21T19:08:17Z</time></trkpt><trkpt lat="41.06864224674292" lon="9.419338180981516"><ele>10.0</ele><time>2026-03-21T19:08:25Z</time></trkpt><trkpt lat="41.06857300377123" lon="9.419339812509701"><ele>10.0</ele><time>2026-03-21T19:08:36.001Z</time></trkpt><trkpt lat="41.06872460630315" lon="9.419302892108927"><ele>10.0</ele><time>2026-03-21T21:11:22.002Z</time></trkpt><trkpt lat="41.068807796913774" lon="9.41934008753491"><ele>10.0</ele><time>2026-03-21T21:13:01.001Z</time></trkpt><trkpt lat="41.0687590461733" lon="9.419399311529183"><ele>10.0</ele><time>2026-03-21T21:13:10.001Z</time></trkpt><trkpt lat="41.06875003820993" lon="9.419549723620039"><ele>10.0</ele><time>2026-03-21T21:13:20.001Z</time></trkpt><trkpt lat="41.06875138222913" lon="9.419446136774964"><ele>10.0</ele><time>2026-03-21T21:13:51Z</time></trkpt><trkpt lat="41.068794018035504" lon="9.419511216107715"><ele>10.0</ele><time>2026-03-21T21:15:52Z</time></trkpt><trkpt lat="41.068757954791" lon="9.419584763288308"><ele>10.0</ele><time>2026-03-21T21:16:33Z</time></trkpt><trkpt lat="41.06873358518878" lon="9.419663675681978"><ele>10.0</ele><time>2026-03-21T21:16:46Z</time></trkpt><trkpt lat="41.06870695248974" lon="9.419753079956148"><ele>10.0</ele><time>2026-03-21T21:16:54.001Z</time></trkpt><trkpt lat="41.06864305504383" lon="9.41975869835726"><ele>10.0</ele><time>2026-03-21T21:23:37.001Z</time></trkpt><trkpt lat="41.06858074560199" lon="9.419669773564072"><ele>10.0</ele><time>2026-03-21T21:23:49.001Z</time></trkpt><trkpt lat="41.06865944537682" lon="9.419663555263291"><ele>10.0</ele><time>2026-03-21T21:23:57.001Z</time></trkpt><trkpt lat="41.068711660935335" lon="9.419612470893517"><ele>10.0</ele><time>2026-03-21T21:24:00.001Z</time></trkpt><trkpt lat="41.06877961832701" lon="9.419504982903677"><ele>10.0</ele><time>2026-03-21T21:24:02Z</time></trkpt><trkpt lat="41.06882343802461" lon="9.419427629009105"><ele>10.0</ele><time>2026-03-21T21:24:04Z</time></trkpt><trkpt lat="41.068828863820784" lon="9.419317219713975"><ele>10.0</ele><time>2026-03-21T21:24:06Z</time></trkpt><trkpt lat="41.068820547275344" lon="9.419189463911742"><ele>10.0</ele><time>2026-03-21T21:24:08Z</time></trkpt><trkpt lat="41.068832225160705" lon="9.419026885249126"><ele>10.0</ele><time>2026-03-21T21:24:10Z</time></trkpt><trkpt lat="41.06884150179221" lon="9.418930855819541"><ele>10.0</ele><time>2026-03-21T21:24:11Z</time></trkpt><trkpt lat="41.0688463861634" lon="9.418801519573194"><ele>10.0</ele><time>2026-03-21T21:24:13Z</time></trkpt><trkpt lat="41.06884243564694" lon="9.418649072549371"><ele>10.0</ele><time>2026-03-21T21:24:15Z</time></trkpt><trkpt lat="41.068831805626914" lon="9.41848580619316"><ele>10.0</ele><time>2026-03-21T21:24:17Z</time></trkpt><trkpt lat="41.06881222591909" lon="9.418319729731397"><ele>10.0</ele><time>2026-03-21T21:24:19Z</time></trkpt><trkpt lat="41.06880439364129" lon="9.418199143775423"><ele>10.0</ele><time>2026-03-21T21:24:21Z</time></trkpt><trkpt lat="41.068883469226975" lon="9.418179194054515"><ele>10.0</ele><time>2026-03-21T21:24:24Z</time></trkpt><trkpt lat="41.06894709353957" lon="9.418189220557245"><ele>10.0</ele><time>2026-03-21T21:24:26Z</time></trkpt><trkpt lat="41.06894557037861" lon="9.418311367688167"><ele>10.0</ele><time>2026-03-21T21:24:28Z</time></trkpt><trkpt lat="41.068931915540645" lon="9.418448146589826"><ele>10.0</ele><time>2026-03-21T21:24:30Z</time></trkpt><trkpt lat="41.06892645384356" lon="9.418531906438156"><ele>10.0</ele><time>2026-03-21T21:24:31Z</time></trkpt><trkpt lat="41.06892313169095" lon="9.418616636852562"><ele>10.0</ele><time>2026-03-21T21:24:32Z</time></trkpt><trkpt lat="41.06892070851302" lon="9.418710891483148"><ele>10.0</ele><time>2026-03-21T21:24:33Z</time></trkpt><trkpt lat="41.06891731576304" lon="9.418815636062925"><ele>10.0</ele><time>2026-03-21T21:24:34Z</time></trkpt><trkpt lat="41.06891566370584" lon="9.418923587049626"><ele>10.0</ele><time>2026-03-21T21:24:35Z</time></trkpt><trkpt lat="41.068912783029965" lon="9.419039454918373"><ele>10.0</ele><time>2026-03-21T21:24:36Z</time></trkpt><trkpt lat="41.06890831376665" lon="9.419164528686279"><ele>10.0</ele><time>2026-03-21T21:24:37Z</time></trkpt><trkpt lat="41.068904095244754" lon="9.419287313392273"><ele>10.0</ele><time>2026-03-21T21:24:38Z</time></trkpt><trkpt lat="41.068907400458166" lon="9.4194279356905"><ele>10.0</ele><time>2026-03-21T21:24:39Z</time></trkpt><trkpt lat="41.068891981811824" lon="9.41955301413452"><ele>10.0</ele><time>2026-03-21T21:24:40Z</time></trkpt><trkpt lat="41.06886926421813" lon="9.419696109565626"><ele>10.0</ele><time>2026-03-21T21:24:41Z</time></trkpt><trkpt lat="41.06883541862283" lon="9.419830285097277"><ele>10.0</ele><time>2026-03-21T21:24:42Z</time></trkpt><trkpt lat="41.06881464957596" lon="9.419991394984741"><ele>10.25</ele><time>2026-03-21T21:24:43Z</time></trkpt><trkpt lat="41.06881009111153" lon="9.420156868743206"><ele>10.5</ele><time>2026-03-21T21:24:44Z</time></trkpt><trkpt lat="41.068758289947546" lon="9.420305929948174"><ele>10.75</ele><time>2026-03-21T21:24:45Z</time></trkpt><trkpt lat="41.06874301807823" lon="9.420480479051822"><ele>11.0</ele><time>2026-03-21T21:24:46Z</time></trkpt><trkpt lat="41.06872536178232" lon="9.420668480449502"><ele>10.25</ele><time>2026-03-21T21:24:47Z</time></trkpt><trkpt lat="41.06870747729122" lon="9.420853851673865"><ele>9.5</ele><time>2026-03-21T21:24:48Z</time></trkpt><trkpt lat="41.06869068785876" lon="9.421062684434059"><ele>8.75</ele><time>2026-03-21T21:24:49Z</time></trkpt><trkpt lat="41.06867267384941" lon="9.421260412508797"><ele>8.0</ele><time>2026-03-21T21:24:50Z</time></trkpt><trkpt lat="41.06863684465551" lon="9.421450769717044"><ele>7.75</ele><time>2026-03-21T21:24:51Z</time></trkpt><trkpt lat="41.06861405697979" lon="9.421643083555095"><ele>7.5</ele><time>2026-03-21T21:24:52Z</time></trkpt><trkpt lat="41.0685916860891" lon="9.421831881069549"><ele>7.25</ele><time>2026-03-21T21:24:53Z</time></trkpt><trkpt lat="41.06856884561007" lon="9.42202464036151"><ele>7.0</ele><time>2026-03-21T21:24:54.001Z</time></trkpt><trkpt lat="41.06854650281945" lon="9.422209328610842"><ele>6.75</ele><time>2026-03-21T21:24:55.001Z</time></trkpt><trkpt lat="41.068525301822596" lon="9.42238791019295"><ele>6.5</ele><time>2026-03-21T21:24:56.001Z</time></trkpt><trkpt lat="41.068504065049325" lon="9.422567937852211"><ele>6.25</ele><time>2026-03-21T21:24:57.001Z</time></trkpt><trkpt lat="41.06848091966971" lon="9.422759949025204"><ele>6.0</ele><time>2026-03-21T21:24:58.001Z</time></trkpt><trkpt lat="41.068458658633226" lon="9.422944320188167"><ele>6.25</ele><time>2026-03-21T21:24:59.001Z</time></trkpt><trkpt lat="41.06843566390251" lon="9.423134767859246"><ele>6.5</ele><time>2026-03-21T21:25:00.001Z</time></trkpt><trkpt lat="41.0684143789201" lon="9.423316818430047"><ele>6.75</ele><time>2026-03-21T21:25:01.001Z</time></trkpt><trkpt lat="41.06839172063032" lon="9.423499618568636"><ele>7.0</ele><time>2026-03-21T21:25:02.001Z</time></trkpt><trkpt lat="41.06837034318468" lon="9.423680347492843"><ele>7.25</ele><time>2026-03-21T21:25:03.001Z</time></trkpt><trkpt lat="41.06834752760626" lon="9.423877150238772"><ele>7.5</ele><time>2026-03-21T21:25:04.001Z</time></trkpt><trkpt lat="41.06832456234037" lon="9.424075236759872"><ele>7.75</ele><time>2026-03-21T21:25:05.001Z</time></trkpt><trkpt lat="41.0683007521877" lon="9.424265558327974"><ele>8.0</ele><time>2026-03-21T21:25:06.001Z</time></trkpt><trkpt lat="41.06827832407023" lon="9.424450099690409"><ele>8.25</ele><time>2026-03-21T21:25:07.001Z</time></trkpt><trkpt lat="41.068256326344425" lon="9.424632955714415"><ele>8.5</ele><time>2026-03-21T21:25:08.001Z</time></trkpt><trkpt lat="41.06823550179667" lon="9.424815625687794"><ele>8.75</ele><time>2026-03-21T21:25:09.001Z</time></trkpt><trkpt lat="41.06821850410543" lon="9.42500921281254"><ele>9.0</ele><time>2026-03-21T21:25:10.001Z</time></trkpt><trkpt lat="41.068212610404764" lon="9.425214991871387"><ele>9.0</ele><time>2026-03-21T21:25:11.001Z</time></trkpt><trkpt lat="41.06825829762668" lon="9.425430553822782"><ele>9.0</ele><time>2026-03-21T21:25:12.001Z</time></trkpt><trkpt lat="41.068297972337675" lon="9.425643854202557"><ele>9.0</ele><time>2026-03-21T21:25:13.001Z</time></trkpt><trkpt lat="41.06838847872015" lon="9.425793421045936"><ele>9.0</ele><time>2026-03-21T21:25:14.001Z</time></trkpt><trkpt lat="41.06851285321358" lon="9.425900146920812"><ele>9.0</ele><time>2026-03-21T21:25:15.001Z</time></trkpt><trkpt lat="41.068619057494445" lon="9.426025584812564"><ele>9.0</ele><time>2026-03-21T21:25:16.001Z</time></trkpt><trkpt lat="41.06871138538514" lon="9.426143469539493"><ele>9.0</ele><time>2026-03-21T21:25:17.001Z</time></trkpt><trkpt lat="41.06879977554393" lon="9.42625767682175"><ele>9.2</ele><time>2026-03-21T21:25:18.001Z</time></trkpt><trkpt lat="41.068861158012695" lon="9.426390002331397"><ele>9.4</ele><time>2026-03-21T21:25:19.001Z</time></trkpt><trkpt lat="41.06885744500065" lon="9.426537799937794"><ele>9.6</ele><time>2026-03-21T21:25:20.001Z</time></trkpt><trkpt lat="41.06881664772271" lon="9.426627468117665"><ele>9.8</ele><time>2026-03-21T21:25:21.001Z</time></trkpt><trkpt lat="41.068777647504675" lon="9.426710825003843"><ele>10.0</ele><time>2026-03-21T21:25:22.001Z</time></trkpt><trkpt lat="41.0687238315396" lon="9.426831349194872"><ele>10.0</ele><time>2026-03-21T21:25:23.001Z</time></trkpt><trkpt lat="41.06866939433663" lon="9.426972938996741"><ele>10.0</ele><time>2026-03-21T21:25:24.001Z</time></trkpt><trkpt lat="41.068594020738196" lon="9.427135359392246"><ele>10.0</ele><time>2026-03-21T21:25:25.001Z</time></trkpt><trkpt lat="41.06852175425183" lon="9.427291024902038"><ele>10.0</ele><time>2026-03-21T21:25:26.001Z</time></trkpt><trkpt lat="41.068454954191665" lon="9.427443011951551"><ele>10.0</ele><time>2026-03-21T21:25:27.001Z</time></trkpt><trkpt lat="41.06838231563275" lon="9.42761320542446"><ele>10.0</ele><time>2026-03-21T21:25:28.001Z</time></trkpt><trkpt lat="41.06830869169189" lon="9.427773137773139"><ele>10.0</ele><time>2026-03-21T21:25:29.001Z</time></trkpt><trkpt lat="41.068236431242816" lon="9.427933393296092"><ele>10.0</ele><time>2026-03-21T21:25:30.001Z</time></trkpt><trkpt lat="41.06816429644161" lon="9.428099220085354"><ele>10.0</ele><time>2026-03-21T21:25:31.001Z</time></trkpt><trkpt lat="41.06807896947195" lon="9.428240592636127"><ele>10.0</ele><time>2026-03-21T21:25:32.001Z</time></trkpt><trkpt lat="41.06798602378523" lon="9.428381355548682"><ele>10.0</ele><time>2026-03-21T21:25:33.001Z</time></trkpt><trkpt lat="41.06789303777197" lon="9.428504000228097"><ele>10.0</ele><time>2026-03-21T21:25:34.001Z</time></trkpt><trkpt lat="41.067795134291494" lon="9.428620859542551"><ele>10.0</ele><time>2026-03-21T21:25:35.001Z</time></trkpt><trkpt lat="41.06768270251085" lon="9.42870945235786"><ele>10.0</ele><time>2026-03-21T21:25:36.001Z</time></trkpt><trkpt lat="41.067570968116826" lon="9.428823471212977"><ele>10.0</ele><time>2026-03-21T21:25:37.001Z</time></trkpt><trkpt lat="41.0674579736324" lon="9.428937613991367"><ele>10.0</ele><time>2026-03-21T21:25:38.001Z</time></trkpt><trkpt lat="41.06735096719857" lon="9.429045627102752"><ele>10.0</ele><time>2026-03-21T21:25:39.001Z</time></trkpt><trkpt lat="41.06724649675734" lon="9.429151080523598"><ele>10.0</ele><time>2026-03-21T21:25:40.001Z</time></trkpt><trkpt lat="41.06713915886397" lon="9.429259428192363"><ele>10.0</ele><time>2026-03-21T21:25:41.001Z</time></trkpt><trkpt lat="41.067037224281115" lon="9.429362794184124"><ele>10.0</ele><time>2026-03-21T21:25:42.001Z</time></trkpt><trkpt lat="41.06696143112359" lon="9.429491987261244"><ele>10.0</ele><time>2026-03-21T21:25:43.001Z</time></trkpt><trkpt lat="41.06686132062888" lon="9.429586492131731"><ele>10.0</ele><time>2026-03-21T21:25:44.001Z</time></trkpt><trkpt lat="41.06675970439825" lon="9.429688248524034"><ele>10.0</ele><time>2026-03-21T21:25:45.001Z</time></trkpt><trkpt lat="41.06665372059271" lon="9.429794815131887"><ele>10.0</ele><time>2026-03-21T21:25:46.001Z</time></trkpt><trkpt lat="41.066549496222116" lon="9.429899712334036"><ele>9.8</ele><time>2026-03-21T21:25:47.001Z</time></trkpt><trkpt lat="41.06646033882042" lon="9.429988770950922"><ele>9.6</ele><time>2026-03-21T21:25:48.001Z</time></trkpt><trkpt lat="41.06637862560907" lon="9.43007412492063"><ele>9.4</ele><time>2026-03-21T21:25:49.001Z</time></trkpt><trkpt lat="41.06629355338567" lon="9.430155156155735"><ele>9.2</ele><time>2026-03-21T21:25:50.001Z</time></trkpt><trkpt lat="41.066195871023254" lon="9.430217491191168"><ele>9.0</ele><time>2026-03-21T21:25:51.001Z</time></trkpt><trkpt lat="41.066116099415375" lon="9.430302661921525"><ele>9.0</ele><time>2026-03-21T21:25:52.001Z</time></trkpt><trkpt lat="41.06604606346157" lon="9.43040214284365"><ele>9.0</ele><time>2026-03-21T21:25:53.001Z</time></trkpt><trkpt lat="41.06597083165281" lon="9.43047313381567"><ele>9.0</ele><time>2026-03-21T21:25:54.001Z</time></trkpt><trkpt lat="41.06590269102415" lon="9.430518061974084"><ele>9.0</ele><time>2026-03-21T21:25:55.001Z</time></trkpt><trkpt lat="41.06583624813926" lon="9.430537032089802"><ele>9.0</ele><time>2026-03-21T21:25:56.001Z</time></trkpt><trkpt lat="41.06571837149041" lon="9.430570955510943"><ele>9.285714285714286</ele><time>2026-03-21T21:25:58.001Z</time></trkpt><trkpt lat="41.06565997204226" lon="9.430536088151124"><ele>9.571428571428571</ele><time>2026-03-21T21:25:59.001Z</time></trkpt><trkpt lat="41.065597445543794" lon="9.430522968519819"><ele>9.857142857142858</ele><time>2026-03-21T21:26:00.001Z</time></trkpt><trkpt lat="41.06553239239172" lon="9.430517420601195"><ele>10.142857142857142</ele><time>2026-03-21T21:26:01.001Z</time></trkpt><trkpt lat="41.065465733543455" lon="9.4305011290204"><ele>10.428571428571429</ele><time>2026-03-21T21:26:02.001Z</time></trkpt><trkpt lat="41.065377338069844" lon="9.430564977744563"><ele>10.714285714285715</ele><time>2026-03-21T21:26:03.001Z</time></trkpt><trkpt lat="41.06531442899844" lon="9.430643065973118"><ele>11.0</ele><time>2026-03-21T21:26:04.001Z</time></trkpt><trkpt lat="41.06524898506531" lon="9.430727679101304"><ele>11.0</ele><time>2026-03-21T21:26:05.001Z</time></trkpt><trkpt lat="41.06520661623793" lon="9.430820764706883"><ele>11.0</ele><time>2026-03-21T21:26:06.001Z</time></trkpt><trkpt lat="41.065201444114926" lon="9.430916891599146"><ele>11.0</ele><time>2026-03-21T21:26:07.001Z</time></trkpt><trkpt lat="41.065193905644854" lon="9.431027306234052"><ele>11.0</ele><time>2026-03-21T21:26:08Z</time></trkpt><trkpt lat="41.06517266514116" lon="9.431110877841183"><ele>11.0</ele><time>2026-03-21T21:26:09Z</time></trkpt><trkpt lat="41.06527374239775" lon="9.431213921606844"><ele>11.0</ele><time>2026-03-21T21:26:10Z</time></trkpt><trkpt lat="41.0653643870807" lon="9.431261581858484"><ele>11.200000000000001</ele><time>2026-03-21T21:26:11Z</time></trkpt><trkpt lat="41.065441917266725" lon="9.431336105632946"><ele>11.4</ele><time>2026-03-21T21:26:12Z</time></trkpt><trkpt lat="41.0655270896281" lon="9.43139483671976"><ele>11.6</ele><time>2026-03-21T21:26:13Z</time></trkpt><trkpt lat="41.065591317131464" lon="9.431464476143963"><ele>11.8</ele><time>2026-03-21T21:26:14Z</time></trkpt><trkpt lat="41.065667651160474" lon="9.431547240571987"><ele>12.0</ele><time>2026-03-21T21:26:15Z</time></trkpt><trkpt lat="41.065701477143406" lon="9.43172970854999"><ele>12.0</ele><time>2026-03-21T21:26:16Z</time></trkpt><trkpt lat="41.06574132191732" lon="9.431880368138948"><ele>12.0</ele><time>2026-03-21T21:26:17Z</time></trkpt><trkpt lat="41.06578481110427" lon="9.432027287809499"><ele>12.0</ele><time>2026-03-21T21:26:18Z</time></trkpt><trkpt lat="41.06583179644479" lon="9.432187928455747"><ele>12.0</ele><time>2026-03-21T21:26:19Z</time></trkpt><trkpt lat="41.06587999050851" lon="9.432349196008435"><ele>11.666666666666666</ele><time>2026-03-21T21:26:20Z</time></trkpt><trkpt lat="41.065931015493696" lon="9.432519471426234"><ele>11.333333333333332</ele><time>2026-03-21T21:26:21Z</time></trkpt><trkpt lat="41.06598435179563" lon="9.432696796173975"><ele>11.0</ele><time>2026-03-21T21:26:22Z</time></trkpt><trkpt lat="41.06604648626811" lon="9.432903372009072"><ele>10.666666666666666</ele><time>2026-03-21T21:26:23Z</time></trkpt><trkpt lat="41.066106717297124" lon="9.433104491848798"><ele>10.333333333333334</ele><time>2026-03-21T21:26:24Z</time></trkpt><trkpt lat="41.06616768281678" lon="9.433308748887887"><ele>10.0</ele><time>2026-03-21T21:26:25Z</time></trkpt><trkpt lat="41.06623158025637" lon="9.43352148682752"><ele>10.0</ele><time>2026-03-21T21:26:26Z</time></trkpt><trkpt lat="41.06629888807559" lon="9.433744582518603"><ele>10.0</ele><time>2026-03-21T21:26:27Z</time></trkpt><trkpt lat="41.066360032430175" lon="9.433947248103651"><ele>10.0</ele><time>2026-03-21T21:26:28Z</time></trkpt><trkpt lat="41.066430120168185" lon="9.434172199434013"><ele>10.333333333333334</ele><time>2026-03-21T21:26:29Z</time></trkpt><trkpt lat="41.06650500838222" lon="9.43438685695542"><ele>10.666666666666666</ele><time>2026-03-21T21:26:30Z</time></trkpt><trkpt lat="41.06657915783132" lon="9.434604294215374"><ele>11.0</ele><time>2026-03-21T21:26:31Z</time></trkpt><trkpt lat="41.066657165611936" lon="9.43483787653817"><ele>11.333333333333332</ele><time>2026-03-21T21:26:32Z</time></trkpt><trkpt lat="41.06673487913372" lon="9.435062635670691"><ele>11.666666666666666</ele><time>2026-03-21T21:26:33Z</time></trkpt><trkpt lat="41.06681372602188" lon="9.435267114098947"><ele>12.0</ele><time>2026-03-21T21:26:34Z</time></trkpt><trkpt lat="41.066895579491444" lon="9.435489888822937"><ele>12.0</ele><time>2026-03-21T21:26:35Z</time></trkpt><trkpt lat="41.06695961042967" lon="9.43572675152055"><ele>12.0</ele><time>2026-03-21T21:26:36Z</time></trkpt><trkpt lat="41.06702732858811" lon="9.435957287789588"><ele>12.0</ele><time>2026-03-21T21:26:37Z</time></trkpt><trkpt lat="41.06708892627199" lon="9.436177966550941"><ele>11.666666666666666</ele><time>2026-03-21T21:26:38Z</time></trkpt><trkpt lat="41.06714861400136" lon="9.436401137264072"><ele>11.333333333333332</ele><time>2026-03-21T21:26:39Z</time></trkpt><trkpt lat="41.0671990003369" lon="9.436622147100062"><ele>11.0</ele><time>2026-03-21T21:26:40Z</time></trkpt><trkpt lat="41.067243149631004" lon="9.436848963207186"><ele>11.0</ele><time>2026-03-21T21:26:41Z</time></trkpt><trkpt lat="41.06728357762216" lon="9.437085769535019"><ele>11.0</ele><time>2026-03-21T21:26:42Z</time></trkpt><trkpt lat="41.067316115762495" lon="9.437289220431737"><ele>11.0</ele><time>2026-03-21T21:26:43Z</time></trkpt><trkpt lat="41.067355596376096" lon="9.437530151291751"><ele>12.333333333333332</ele><time>2026-03-21T21:26:44Z</time></trkpt><trkpt lat="41.06739359747763" lon="9.437770757417209"><ele>13.666666666666666</ele><time>2026-03-21T21:26:45Z</time></trkpt><trkpt lat="41.067430887864035" lon="9.43800503828501"><ele>15.0</ele><time>2026-03-21T21:26:46Z</time></trkpt><trkpt lat="41.06746520366014" lon="9.438242798871693"><ele>15.0</ele><time>2026-03-21T21:26:47Z</time></trkpt><trkpt lat="41.06749344435573" lon="9.438462740791088"><ele>15.0</ele><time>2026-03-21T21:26:48Z</time></trkpt><trkpt lat="41.06751921988763" lon="9.438699234187132"><ele>15.0</ele><time>2026-03-21T21:26:49Z</time></trkpt><trkpt lat="41.067541485890054" lon="9.438942881326007"><ele>15.333333333333332</ele><time>2026-03-21T21:26:50Z</time></trkpt><trkpt lat="41.06756428398217" lon="9.43919235156176"><ele>15.666666666666666</ele><time>2026-03-21T21:26:51Z</time></trkpt><trkpt lat="41.067587087005116" lon="9.439439815261942"><ele>16.0</ele><time>2026-03-21T21:26:52Z</time></trkpt><trkpt lat="41.06760942595271" lon="9.439681721709453"><ele>15.333333333333332</ele><time>2026-03-21T21:26:53Z</time></trkpt><trkpt lat="41.06763073550054" lon="9.43992809993456"><ele>14.666666666666668</ele><time>2026-03-21T21:26:54Z</time></trkpt><trkpt lat="41.067654103775205" lon="9.440171774975452"><ele>14.0</ele><time>2026-03-21T21:26:55Z</time></trkpt><trkpt lat="41.06767787942698" lon="9.440422543150834"><ele>14.0</ele><time>2026-03-21T21:26:56Z</time></trkpt><trkpt lat="41.06771103796573" lon="9.440663187683178"><ele>14.0</ele><time>2026-03-21T21:26:57Z</time></trkpt><trkpt lat="41.06772636600817" lon="9.440918847398722"><ele>14.0</ele><time>2026-03-21T21:26:58Z</time></trkpt><trkpt lat="41.067750867912075" lon="9.441177146532665"><ele>13.666666666666668</ele><time>2026-03-21T21:26:59Z</time></trkpt><trkpt lat="41.0677684183001" lon="9.441432900453233"><ele>13.333333333333332</ele><time>2026-03-21T21:27:00Z</time></trkpt><trkpt lat="41.067793215070324" lon="9.4416720051349"><ele>13.0</ele><time>2026-03-21T21:27:01Z</time></trkpt><trkpt lat="41.067815891475625" lon="9.441935203468164"><ele>11.666666666666666</ele><time>2026-03-21T21:27:02Z</time></trkpt><trkpt lat="41.067839407931515" lon="9.442188413820121"><ele>10.333333333333332</ele><time>2026-03-21T21:27:03Z</time></trkpt><trkpt lat="41.06785278376236" lon="9.442446187252909"><ele>9.0</ele><time>2026-03-21T21:27:04Z</time></trkpt><trkpt lat="41.067868900774656" lon="9.442701717286297"><ele>9.0</ele><time>2026-03-21T21:27:05Z</time></trkpt><trkpt lat="41.0678886811817" lon="9.442963902528884"><ele>9.0</ele><time>2026-03-21T21:27:06Z</time></trkpt><trkpt lat="41.06794090533334" lon="9.443221191377193"><ele>9.0</ele><time>2026-03-21T21:27:07Z</time></trkpt><trkpt lat="41.0679636955191" lon="9.443466125294893"><ele>9.0</ele><time>2026-03-21T21:27:08Z</time></trkpt><trkpt lat="41.06799573110671" lon="9.443714245748538"><ele>9.0</ele><time>2026-03-21T21:27:09Z</time></trkpt><trkpt lat="41.068016018273376" lon="9.44396858794246"><ele>9.0</ele><time>2026-03-21T21:27:10Z</time></trkpt><trkpt lat="41.068033729656726" lon="9.444223723251014"><ele>9.0</ele><time>2026-03-21T21:27:11Z</time></trkpt><trkpt lat="41.06805125873997" lon="9.444475810962585"><ele>9.0</ele><time>2026-03-21T21:27:12.001Z</time></trkpt><trkpt lat="41.068063006323165" lon="9.444725614318195"><ele>9.0</ele><time>2026-03-21T21:27:13.001Z</time></trkpt><trkpt lat="41.0680825637525" lon="9.44497647004368"><ele>8.666666666666666</ele><time>2026-03-21T21:27:14.001Z</time></trkpt><trkpt lat="41.06811542502254" lon="9.445236218508912"><ele>8.333333333333332</ele><time>2026-03-21T21:27:15.001Z</time></trkpt><trkpt lat="41.068140673038435" lon="9.445479499693814"><ele>8.0</ele><time>2026-03-21T21:27:16.001Z</time></trkpt><trkpt lat="41.068157484161276" lon="9.445729288876331"><ele>8.0</ele><time>2026-03-21T21:27:17.001Z</time></trkpt><trkpt lat="41.068173196937295" lon="9.44597487268978"><ele>8.0</ele><time>2026-03-21T21:27:18.001Z</time></trkpt><trkpt lat="41.068195687043016" lon="9.44621933778831"><ele>8.0</ele><time>2026-03-21T21:27:19.001Z</time></trkpt><trkpt lat="41.068244403293036" lon="9.446470052813988"><ele>9.666666666666666</ele><time>2026-03-21T21:27:20.001Z</time></trkpt><trkpt lat="41.06830420919057" lon="9.44671183647548"><ele>11.333333333333332</ele><time>2026-03-21T21:27:21.001Z</time></trkpt><trkpt lat="41.06836124137825" lon="9.44694972029417"><ele>13.0</ele><time>2026-03-21T21:27:22.001Z</time></trkpt><trkpt lat="41.06842509501273" lon="9.447189614412268"><ele>13.0</ele><time>2026-03-21T21:27:23.001Z</time></trkpt><trkpt lat="41.068484815395" lon="9.447430375972305"><ele>13.0</ele><time>2026-03-21T21:27:24.001Z</time></trkpt><trkpt lat="41.068557119708736" lon="9.44766393411756"><ele>13.0</ele><time>2026-03-21T21:27:25.001Z</time></trkpt><trkpt lat="41.068618606760666" lon="9.44790105963288"><ele>12.0</ele><time>2026-03-21T21:27:26.001Z</time></trkpt><trkpt lat="41.06867836260958" lon="9.448125719838748"><ele>11.0</ele><time>2026-03-21T21:27:27.001Z</time></trkpt><trkpt lat="41.06874775124124" lon="9.44836147285559"><ele>10.0</ele><time>2026-03-21T21:27:28.001Z</time></trkpt><trkpt lat="41.06880447957931" lon="9.44859605529213"><ele>9.0</ele><time>2026-03-21T21:27:29.001Z</time></trkpt><trkpt lat="41.06888995885807" lon="9.448830858175132"><ele>8.0</ele><time>2026-03-21T21:27:30.001Z</time></trkpt><trkpt lat="41.06896838593014" lon="9.449075575888898"><ele>7.0</ele><time>2026-03-21T21:27:31.001Z</time></trkpt><trkpt lat="41.069021074717384" lon="9.44934407115035"><ele>7.333333333333334</ele><time>2026-03-21T21:27:32.001Z</time></trkpt><trkpt lat="41.06911425511687" lon="9.4495918079457"><ele>7.666666666666666</ele><time>2026-03-21T21:27:33.001Z</time></trkpt><trkpt lat="41.069211087041744" lon="9.449823209919506"><ele>8.0</ele><time>2026-03-21T21:27:34.001Z</time></trkpt><trkpt lat="41.069292522634065" lon="9.450070951163191"><ele>8.0</ele><time>2026-03-21T21:27:35.001Z</time></trkpt><trkpt lat="41.06936880190412" lon="9.450324607992675"><ele>8.0</ele><time>2026-03-21T21:27:36.001Z</time></trkpt><trkpt lat="41.06945522156727" lon="9.450573733530177"><ele>8.0</ele><time>2026-03-21T21:27:37.001Z</time></trkpt><trkpt lat="41.06952644212882" lon="9.45085160195408"><ele>7.666666666666666</ele><time>2026-03-21T21:27:38.001Z</time></trkpt><trkpt lat="41.069622016120235" lon="9.451126974607392"><ele>7.333333333333334</ele><time>2026-03-21T21:27:39.001Z</time></trkpt><trkpt lat="41.06967836591804" lon="9.451378796196662"><ele>7.0</ele><time>2026-03-21T21:27:40.001Z</time></trkpt><trkpt lat="41.06973439004423" lon="9.451623747577104"><ele>6.333333333333334</ele><time>2026-03-21T21:27:41.001Z</time></trkpt><trkpt lat="41.06978832811583" lon="9.451879569692867"><ele>5.666666666666667</ele><time>2026-03-21T21:27:42.001Z</time></trkpt><trkpt lat="41.06985246599029" lon="9.452161854315637"><ele>5.0</ele><time>2026-03-21T21:27:43.001Z</time></trkpt><trkpt lat="41.06989264852582" lon="9.452430982262907"><ele>5.0</ele><time>2026-03-21T21:27:44.001Z</time></trkpt><trkpt lat="41.06990611124137" lon="9.452742818574155"><ele>5.0</ele><time>2026-03-21T21:27:45.001Z</time></trkpt><trkpt lat="41.069926259666" lon="9.453030320844872"><ele>6.0</ele><time>2026-03-21T21:27:46.001Z</time></trkpt><trkpt lat="41.069945606869595" lon="9.453324004399054"><ele>7.0</ele><time>2026-03-21T21:27:47.001Z</time></trkpt><trkpt lat="41.06996642885128" lon="9.453626521995162"><ele>7.5</ele><time>2026-03-21T21:27:48.001Z</time></trkpt><trkpt lat="41.06998749184012" lon="9.453927245798733"><ele>8.0</ele><time>2026-03-21T21:27:49.001Z</time></trkpt><trkpt lat="41.070008175593635" lon="9.454222555265366"><ele>8.0</ele><time>2026-03-21T21:27:50.001Z</time></trkpt><trkpt lat="41.07002892087705" lon="9.454509061112532"><ele>8.0</ele><time>2026-03-21T21:27:51.001Z</time></trkpt><trkpt lat="41.07005112496657" lon="9.454806177968937"><ele>8.0</ele><time>2026-03-21T21:27:52.001Z</time></trkpt><trkpt lat="41.070072041681605" lon="9.455100796467384"><ele>8.0</ele><time>2026-03-21T21:27:53.001Z</time></trkpt><trkpt lat="41.07009104737571" lon="9.455379612648668"><ele>8.0</ele><time>2026-03-21T21:27:54.001Z</time></trkpt><trkpt lat="41.07010967891019" lon="9.455652939821581"><ele>8.0</ele><time>2026-03-21T21:27:55.001Z</time></trkpt><trkpt lat="41.07012779993556" lon="9.455909914453667"><ele>7.666666666666666</ele><time>2026-03-21T21:27:56.001Z</time></trkpt><trkpt lat="41.07014651323061" lon="9.45616713959021"><ele>7.333333333333334</ele><time>2026-03-21T21:27:57.001Z</time></trkpt><trkpt lat="41.070165101538414" lon="9.456427013780221"><ele>7.0</ele><time>2026-03-21T21:27:58.001Z</time></trkpt><trkpt lat="41.07018177964167" lon="9.456660183109502"><ele>7.0</ele><time>2026-03-21T21:27:59.001Z</time></trkpt><trkpt lat="41.07019909956932" lon="9.456902325485201"><ele>7.0</ele><time>2026-03-21T21:28:00.001Z</time></trkpt><trkpt lat="41.070274058128916" lon="9.457128206415986"><ele>7.0</ele><time>2026-03-21T21:28:01.001Z</time></trkpt><trkpt lat="41.070290242794954" lon="9.457370077899402"><ele>7.0</ele><time>2026-03-21T21:28:02.001Z</time></trkpt><trkpt lat="41.07031008256099" lon="9.45761118019986"><ele>7.0</ele><time>2026-03-21T21:28:03.001Z</time></trkpt><trkpt lat="41.07033442556615" lon="9.457857537994462"><ele>7.0</ele><time>2026-03-21T21:28:04.001Z</time></trkpt><trkpt lat="41.070283667522446" lon="9.458102004323829"><ele>7.0</ele><time>2026-03-21T21:28:05.001Z</time></trkpt><trkpt lat="41.07029928707871" lon="9.458330201074196"><ele>7.0</ele><time>2026-03-21T21:28:06.001Z</time></trkpt><trkpt lat="41.07031482422744" lon="9.458557193706053"><ele>7.0</ele><time>2026-03-21T21:28:07.001Z</time></trkpt><trkpt lat="41.07033064693019" lon="9.45878835830466"><ele>6.666666666666667</ele><time>2026-03-21T21:28:08.001Z</time></trkpt><trkpt lat="41.070345237110956" lon="9.459001516131645"><ele>6.333333333333334</ele><time>2026-03-21T21:28:09.001Z</time></trkpt><trkpt lat="41.07035943104133" lon="9.45920888491324"><ele>6.0</ele><time>2026-03-21T21:28:10.001Z</time></trkpt><trkpt lat="41.07037421016202" lon="9.459398833418001"><ele>6.0</ele><time>2026-03-21T21:28:11.001Z</time></trkpt><trkpt lat="41.07039336774737" lon="9.459605092408982"><ele>6.0</ele><time>2026-03-21T21:28:12.001Z</time></trkpt><trkpt lat="41.07041653514393" lon="9.45980906463432"><ele>6.0</ele><time>2026-03-21T21:28:13.001Z</time></trkpt><trkpt lat="41.070359659451505" lon="9.45998527037795"><ele>6.0</ele><time>2026-03-21T21:28:14Z</time></trkpt><trkpt lat="41.070303602037875" lon="9.460166532166683"><ele>6.0</ele><time>2026-03-21T21:28:15Z</time></trkpt><trkpt lat="41.070239331259764" lon="9.460327353228841"><ele>6.0</ele><time>2026-03-21T21:28:16Z</time></trkpt><trkpt lat="41.07013430611511" lon="9.460545502198533"><ele>6.0</ele><time>2026-03-21T21:28:17Z</time></trkpt><trkpt lat="41.06996977967481" lon="9.46067458901264"><ele>6.0</ele><time>2026-03-21T21:28:18Z</time></trkpt><trkpt lat="41.06984326170847" lon="9.46085700697956"><ele>6.0</ele><time>2026-03-21T21:28:19Z</time></trkpt><trkpt lat="41.06971721292836" lon="9.46103995172862"><ele>6.333333333333334</ele><time>2026-03-21T21:28:20Z</time></trkpt><trkpt lat="41.06960898193253" lon="9.461196784318068"><ele>6.666666666666667</ele><time>2026-03-21T21:28:21Z</time></trkpt><trkpt lat="41.06947972208732" lon="9.461384088966273"><ele>7.0</ele><time>2026-03-21T21:28:22Z</time></trkpt><trkpt lat="41.06935655896738" lon="9.461562559088494"><ele>7.666666666666667</ele><time>2026-03-21T21:28:23Z</time></trkpt><trkpt lat="41.06923595905369" lon="9.461737314979985"><ele>8.333333333333334</ele><time>2026-03-21T21:28:24Z</time></trkpt><trkpt lat="41.06912053357968" lon="9.461904572830797"><ele>9.0</ele><time>2026-03-21T21:28:25Z</time></trkpt><trkpt lat="41.069000768417965" lon="9.46207811911251"><ele>9.0</ele><time>2026-03-21T21:28:26Z</time></trkpt><trkpt lat="41.06888358025486" lon="9.462247931192636"><ele>9.0</ele><time>2026-03-21T21:28:27Z</time></trkpt><trkpt lat="41.06874858872268" lon="9.462443541308865"><ele>9.0</ele><time>2026-03-21T21:28:28Z</time></trkpt><trkpt lat="41.06863385305328" lon="9.46260979959276"><ele>9.0</ele><time>2026-03-21T21:28:29Z</time></trkpt><trkpt lat="41.06852087339085" lon="9.462793549760045"><ele>9.0</ele><time>2026-03-21T21:28:30Z</time></trkpt><trkpt lat="41.068374034590924" lon="9.462986115368187"><ele>9.0</ele><time>2026-03-21T21:28:31Z</time></trkpt><trkpt lat="41.068267348751974" lon="9.463171169990174"><ele>10.0</ele><time>2026-03-21T21:28:32Z</time></trkpt><trkpt lat="41.06812798994177" lon="9.46334290724857"><ele>11.0</ele><time>2026-03-21T21:28:33Z</time></trkpt><trkpt lat="41.06799273960978" lon="9.46353729898333"><ele>12.0</ele><time>2026-03-21T21:28:34Z</time></trkpt><trkpt lat="41.06785764645947" lon="9.463727177710123"><ele>12.333333333333332</ele><time>2026-03-21T21:28:35Z</time></trkpt><trkpt lat="41.067715527575864" lon="9.463907136278456"><ele>12.666666666666666</ele><time>2026-03-21T21:28:36Z</time></trkpt><trkpt lat="41.067561792228986" lon="9.464073918442367"><ele>13.0</ele><time>2026-03-21T21:28:37Z</time></trkpt><trkpt lat="41.067411795296415" lon="9.464216703290845"><ele>14.0</ele><time>2026-03-21T21:28:38Z</time></trkpt><trkpt lat="41.06725333486955" lon="9.464354832505684"><ele>15.0</ele><time>2026-03-21T21:28:39Z</time></trkpt><trkpt lat="41.06709255785585" lon="9.464493995077413"><ele>16.0</ele><time>2026-03-21T21:28:40Z</time></trkpt><trkpt lat="41.066923765945994" lon="9.464640354607441"><ele>16.666666666666664</ele><time>2026-03-21T21:28:41Z</time></trkpt><trkpt lat="41.066763583763866" lon="9.46477971927559"><ele>17.333333333333332</ele><time>2026-03-21T21:28:42Z</time></trkpt><trkpt lat="41.06661208058872" lon="9.464911532905125"><ele>18.0</ele><time>2026-03-21T21:28:43Z</time></trkpt><trkpt lat="41.06646044309183" lon="9.465043463342628"><ele>18.0</ele><time>2026-03-21T21:28:44Z</time></trkpt><trkpt lat="41.06630308019414" lon="9.465180375131498"><ele>18.0</ele><time>2026-03-21T21:28:45Z</time></trkpt><trkpt lat="41.06615052601015" lon="9.465337926433852"><ele>18.0</ele><time>2026-03-21T21:28:46Z</time></trkpt><trkpt lat="41.06598825003213" lon="9.465473301943545"><ele>18.0</ele><time>2026-03-21T21:28:47Z</time></trkpt><trkpt lat="41.06582586439735" lon="9.465595759427906"><ele>18.0</ele><time>2026-03-21T21:28:48Z</time></trkpt><trkpt lat="41.06566968667858" lon="9.465730576917846"><ele>18.0</ele><time>2026-03-21T21:28:49Z</time></trkpt><trkpt lat="41.06551409507881" lon="9.465864888436741"><ele>18.666666666666668</ele><time>2026-03-21T21:28:50Z</time></trkpt><trkpt lat="41.06536683240653" lon="9.46603044260403"><ele>19.333333333333336</ele><time>2026-03-21T21:28:51Z</time></trkpt><trkpt lat="41.06520955153725" lon="9.466159247854971"><ele>20.0</ele><time>2026-03-21T21:28:52Z</time></trkpt><trkpt lat="41.06504639245048" lon="9.466293239658691"><ele>20.333333333333336</ele><time>2026-03-21T21:28:53Z</time></trkpt><trkpt lat="41.064875704940945" lon="9.466427488646316"><ele>20.666666666666668</ele><time>2026-03-21T21:28:54Z</time></trkpt><trkpt lat="41.06466734004127" lon="9.466455365273495"><ele>21.0</ele><time>2026-03-21T21:28:55Z</time></trkpt><trkpt lat="41.064485742763814" lon="9.466556873846676"><ele>21.0</ele><time>2026-03-21T21:28:56Z</time></trkpt><trkpt lat="41.06429271564979" lon="9.466664771324854"><ele>21.0</ele><time>2026-03-21T21:28:57Z</time></trkpt><trkpt lat="41.064133498822144" lon="9.4667537696694"><ele>21.0</ele><time>2026-03-21T21:28:58Z</time></trkpt><trkpt lat="41.06394530466684" lon="9.466859774382009"><ele>21.0</ele><time>2026-03-21T21:28:59Z</time></trkpt><trkpt lat="41.0637813721248" lon="9.466951811369642"><ele>21.0</ele><time>2026-03-21T21:29:00Z</time></trkpt><trkpt lat="41.06360775040336" lon="9.467070256332013"><ele>21.0</ele><time>2026-03-21T21:29:01Z</time></trkpt><trkpt lat="41.06343145679836" lon="9.467160002848127"><ele>22.666666666666664</ele><time>2026-03-21T21:29:02Z</time></trkpt><trkpt lat="41.06326509889655" lon="9.467244488678222"><ele>24.333333333333332</ele><time>2026-03-21T21:29:03Z</time></trkpt><trkpt lat="41.06307203293251" lon="9.46735906401859"><ele>26.0</ele><time>2026-03-21T21:29:04Z</time></trkpt><trkpt lat="41.06288979922868" lon="9.467451132507307"><ele>26.0</ele><time>2026-03-21T21:29:05Z</time></trkpt><trkpt lat="41.06271007044076" lon="9.467551139534182"><ele>26.0</ele><time>2026-03-21T21:29:06Z</time></trkpt><trkpt lat="41.06253285216821" lon="9.467650497766009"><ele>26.0</ele><time>2026-03-21T21:29:07Z</time></trkpt><trkpt lat="41.06235327752788" lon="9.467751177113996"><ele>26.333333333333332</ele><time>2026-03-21T21:29:08Z</time></trkpt><trkpt lat="41.06216726152817" lon="9.467855467901295"><ele>26.666666666666664</ele><time>2026-03-21T21:29:09Z</time></trkpt><trkpt lat="41.06199149243474" lon="9.467954662704951"><ele>27.0</ele><time>2026-03-21T21:29:10Z</time></trkpt><trkpt lat="41.06182124482405" lon="9.468065170299244"><ele>27.0</ele><time>2026-03-21T21:29:11Z</time></trkpt><trkpt lat="41.06164066171477" lon="9.468165271419254"><ele>27.0</ele><time>2026-03-21T21:29:12Z</time></trkpt><trkpt lat="41.061471021642916" lon="9.468262550731772"><ele>27.0</ele><time>2026-03-21T21:29:13Z</time></trkpt><trkpt lat="41.06129562709904" lon="9.468362087880989"><ele>29.333333333333336</ele><time>2026-03-21T21:29:14Z</time></trkpt><trkpt lat="41.06111754194242" lon="9.468447200308614"><ele>31.666666666666668</ele><time>2026-03-21T21:29:15.001Z</time></trkpt><trkpt lat="41.060944712221506" lon="9.468544646342302"><ele>34.0</ele><time>2026-03-21T21:29:16.001Z</time></trkpt><trkpt lat="41.06077912763293" lon="9.468638007373075"><ele>35.333333333333336</ele><time>2026-03-21T21:29:17.001Z</time></trkpt><trkpt lat="41.06060735914657" lon="9.468734855055384"><ele>36.666666666666664</ele><time>2026-03-21T21:29:18.001Z</time></trkpt><trkpt lat="41.06043924202021" lon="9.468831136387081"><ele>38.0</ele><time>2026-03-21T21:29:19.001Z</time></trkpt><trkpt lat="41.06029264519632" lon="9.468927492949168"><ele>38.0</ele><time>2026-03-21T21:29:20.001Z</time></trkpt><trkpt lat="41.06013374812696" lon="9.469059806381184"><ele>38.0</ele><time>2026-03-21T21:29:21.001Z</time></trkpt><trkpt lat="41.05999383365902" lon="9.469195015500238"><ele>38.0</ele><time>2026-03-21T21:29:22.001Z</time></trkpt><trkpt lat="41.059871368996056" lon="9.469386394145063"><ele>38.0</ele><time>2026-03-21T21:29:23.001Z</time></trkpt><trkpt lat="41.05976365485243" lon="9.469584832426694"><ele>38.0</ele><time>2026-03-21T21:29:24.001Z</time></trkpt><trkpt lat="41.05966790899054" lon="9.469800760175794"><ele>38.0</ele><time>2026-03-21T21:29:25.001Z</time></trkpt><trkpt lat="41.059597978835576" lon="9.470026266533878"><ele>38.0</ele><time>2026-03-21T21:29:26.001Z</time></trkpt><trkpt lat="41.059575075594815" lon="9.470305159770161"><ele>38.0</ele><time>2026-03-21T21:29:27.001Z</time></trkpt><trkpt lat="41.059546655637824" lon="9.470585291729666"><ele>38.0</ele><time>2026-03-21T21:29:28.001Z</time></trkpt><trkpt lat="41.0594774222238" lon="9.47081154012066"><ele>38.0</ele><time>2026-03-21T21:29:29.001Z</time></trkpt><trkpt lat="41.05942856451201" lon="9.471023141850255"><ele>38.0</ele><time>2026-03-21T21:29:30.001Z</time></trkpt><trkpt lat="41.059377987547904" lon="9.471246498019882"><ele>38.0</ele><time>2026-03-21T21:29:31.001Z</time></trkpt><trkpt lat="41.05932973516852" lon="9.471457128328453"><ele>40.33333333333333</ele><time>2026-03-21T21:29:32.001Z</time></trkpt><trkpt lat="41.05927047374562" lon="9.471656249748657"><ele>42.666666666666664</ele><time>2026-03-21T21:29:33.001Z</time></trkpt><trkpt lat="41.059182968478204" lon="9.471827316400597"><ele>45.0</ele><time>2026-03-21T21:29:34.001Z</time></trkpt><trkpt lat="41.0590643514776" lon="9.471930790835538"><ele>46.5</ele><time>2026-03-21T21:29:35.001Z</time></trkpt><trkpt lat="41.05890694817615" lon="9.471992293610812"><ele>48.0</ele><time>2026-03-21T21:29:36.001Z</time></trkpt><trkpt lat="41.058784354815906" lon="9.472008465101581"><ele>49.5</ele><time>2026-03-21T21:29:37.001Z</time></trkpt><trkpt lat="41.05870017459802" lon="9.471963795657828"><ele>51.0</ele><time>2026-03-21T21:29:38.001Z</time></trkpt><trkpt lat="41.05853959375331" lon="9.471956693723564"><ele>51.0</ele><time>2026-03-21T21:29:39.001Z</time></trkpt><trkpt lat="41.05838497946308" lon="9.47194993226845"><ele>51.0</ele><time>2026-03-21T21:29:40.001Z</time></trkpt><trkpt lat="41.05824012838038" lon="9.471943597775672"><ele>51.0</ele><time>2026-03-21T21:29:41.001Z</time></trkpt><trkpt lat="41.05810894227931" lon="9.4719357943853"><ele>51.0</ele><time>2026-03-21T21:29:42.001Z</time></trkpt><trkpt lat="41.05797802596053" lon="9.471917113507107"><ele>55.66666666666667</ele><time>2026-03-21T21:29:43.001Z</time></trkpt><trkpt lat="41.05783275189211" lon="9.471872190436056"><ele>60.333333333333336</ele><time>2026-03-21T21:29:44.001Z</time></trkpt><trkpt lat="41.05766531332975" lon="9.471955220725404"><ele>65.0</ele><time>2026-03-21T21:29:45.001Z</time></trkpt><trkpt lat="41.05760658176107" lon="9.471748472555268"><ele>65.0</ele><time>2026-03-21T21:29:46.001Z</time></trkpt><trkpt lat="41.057527935650924" lon="9.471613392091772"><ele>65.0</ele><time>2026-03-21T21:29:47.001Z</time></trkpt><trkpt lat="41.057434470579835" lon="9.471497983272336"><ele>65.0</ele><time>2026-03-21T21:29:48.001Z</time></trkpt><trkpt lat="41.0573665717144" lon="9.471372674951791"><ele>65.0</ele><time>2026-03-21T21:29:49.001Z</time></trkpt><trkpt lat="41.05730436642257" lon="9.471217045995516"><ele>66.75</ele><time>2026-03-21T21:29:50.001Z</time></trkpt><trkpt lat="41.057223230896305" lon="9.471111903390232"><ele>68.5</ele><time>2026-03-21T21:29:51.001Z</time></trkpt><trkpt lat="41.05712988475938" lon="9.471017312632394"><ele>70.25</ele><time>2026-03-21T21:29:52.001Z</time></trkpt><trkpt lat="41.057023530851616" lon="9.47097099528873"><ele>72.0</ele><time>2026-03-21T21:29:53.001Z</time></trkpt><trkpt lat="41.056908551233235" lon="9.470893793098547"><ele>72.0</ele><time>2026-03-21T21:29:54.001Z</time></trkpt><trkpt lat="41.0567980949398" lon="9.470822447868114"><ele>72.0</ele><time>2026-03-21T21:29:55.001Z</time></trkpt><trkpt lat="41.05668483175178" lon="9.47075482277069"><ele>72.0</ele><time>2026-03-21T21:29:56.001Z</time></trkpt><trkpt lat="41.056578342250596" lon="9.470705326647423"><ele>72.0</ele><time>2026-03-21T21:29:57.001Z</time></trkpt><trkpt lat="41.056464656476855" lon="9.470655191521873"><ele>75.0</ele><time>2026-03-21T21:29:58.001Z</time></trkpt><trkpt lat="41.056356115194646" lon="9.470603295801865"><ele>78.0</ele><time>2026-03-21T21:29:59.001Z</time></trkpt><trkpt lat="41.05626457886404" lon="9.470576174459353"><ele>81.0</ele><time>2026-03-21T21:30:00.001Z</time></trkpt><trkpt lat="41.05615592652892" lon="9.470566400118082"><ele>84.0</ele><time>2026-03-21T21:30:01.001Z</time></trkpt><trkpt lat="41.05607520794763" lon="9.470584351835123"><ele>87.0</ele><time>2026-03-21T21:30:02.001Z</time></trkpt><trkpt lat="41.05596736986795" lon="9.470588405911096"><ele>87.0</ele><time>2026-03-21T21:30:03.001Z</time></trkpt><trkpt lat="41.055853839018376" lon="9.470614590921674"><ele>87.0</ele><time>2026-03-21T21:30:04.001Z</time></trkpt><trkpt lat="41.055751749999516" lon="9.470620145843482"><ele>87.0</ele><time>2026-03-21T21:30:05.001Z</time></trkpt><trkpt lat="41.05565276325167" lon="9.470673897374883"><ele>87.0</ele><time>2026-03-21T21:30:06.001Z</time></trkpt><trkpt lat="41.05553955147899" lon="9.47073880199691"><ele>87.0</ele><time>2026-03-21T21:30:07.001Z</time></trkpt><trkpt lat="41.05546099306211" lon="9.470742430926823"><ele>89.0</ele><time>2026-03-21T21:30:08.001Z</time></trkpt><trkpt lat="41.0553534895719" lon="9.470788576919118"><ele>91.0</ele><time>2026-03-21T21:30:09.001Z</time></trkpt><trkpt lat="41.05524430055929" lon="9.470838916693149"><ele>93.0</ele><time>2026-03-21T21:30:10.001Z</time></trkpt><trkpt lat="41.055136287277996" lon="9.47088115173408"><ele>95.0</ele><time>2026-03-21T21:30:11.001Z</time></trkpt><trkpt lat="41.05502743942863" lon="9.47085507056724"><ele>95.0</ele><time>2026-03-21T21:30:12.001Z</time></trkpt><trkpt lat="41.05499313973071" lon="9.470730425841456"><ele>95.0</ele><time>2026-03-21T21:30:13.001Z</time></trkpt><trkpt lat="41.05496529160007" lon="9.470634241826657"><ele>95.0</ele><time>2026-03-21T21:30:14.001Z</time></trkpt><trkpt lat="41.05504859345499" lon="9.470411779077502"><ele>95.0</ele><time>2026-03-21T21:30:16.001Z</time></trkpt><trkpt lat="41.055205460942936" lon="9.470342523912583"><ele>95.75</ele><time>2026-03-21T21:30:17.001Z</time></trkpt><trkpt lat="41.05531601315429" lon="9.470272765391764"><ele>96.5</ele><time>2026-03-21T21:30:18.001Z</time></trkpt><trkpt lat="41.05542031035829" lon="9.47018655568468"><ele>97.25</ele><time>2026-03-21T21:30:19.001Z</time></trkpt><trkpt lat="41.05551490053871" lon="9.470108552521026"><ele>98.0</ele><time>2026-03-21T21:30:20Z</time></trkpt><trkpt lat="41.05561891719359" lon="9.470022775870397"><ele>98.0</ele><time>2026-03-21T21:30:21Z</time></trkpt><trkpt lat="41.05572346169228" lon="9.469955840136745"><ele>98.0</ele><time>2026-03-21T21:30:22Z</time></trkpt><trkpt lat="41.055830989575" lon="9.469845111442035"><ele>98.0</ele><time>2026-03-21T21:30:23Z</time></trkpt><trkpt lat="41.05590266128624" lon="9.469747216483613"><ele>98.0</ele><time>2026-03-21T21:30:24Z</time></trkpt><trkpt lat="41.05593063368629" lon="9.469626331250831"><ele>98.2</ele><time>2026-03-21T21:30:25Z</time></trkpt><trkpt lat="41.05589383022884" lon="9.469460894352322"><ele>98.4</ele><time>2026-03-21T21:30:26Z</time></trkpt><trkpt lat="41.055839328492276" lon="9.469362787932367"><ele>98.60000000000001</ele><time>2026-03-21T21:30:27Z</time></trkpt><trkpt lat="41.0557678612068" lon="9.469303959472278"><ele>98.80000000000001</ele><time>2026-03-21T21:30:28Z</time></trkpt><trkpt lat="41.055703384562996" lon="9.469296430980297"><ele>99.0</ele><time>2026-03-21T21:30:29Z</time></trkpt><trkpt lat="41.055561921696906" lon="9.469427530715464"><ele>98.66666666666666</ele><time>2026-03-21T21:30:31Z</time></trkpt><trkpt lat="41.055359922089" lon="9.469643907936966"><ele>98.33333333333333</ele><time>2026-03-21T21:30:32Z</time></trkpt><trkpt lat="41.0552615323657" lon="9.469732922501715"><ele>98.0</ele><time>2026-03-21T21:30:33Z</time></trkpt><trkpt lat="41.05517616533521" lon="9.469848089852773"><ele>98.0</ele><time>2026-03-21T21:30:34Z</time></trkpt><trkpt lat="41.05508486305003" lon="9.469950091388856"><ele>98.0</ele><time>2026-03-21T21:30:35Z</time></trkpt><trkpt lat="41.05499091517299" lon="9.47004038167812"><ele>98.0</ele><time>2026-03-21T21:30:36Z</time></trkpt><trkpt lat="41.05490162067504" lon="9.470139907786688"><ele>98.0</ele><time>2026-03-21T21:30:37Z</time></trkpt><trkpt lat="41.05480676815255" lon="9.470215255929588"><ele>103.0</ele><time>2026-03-21T21:30:38Z</time></trkpt><trkpt lat="41.05473170131151" lon="9.470326343146"><ele>108.0</ele><time>2026-03-21T21:30:39Z</time></trkpt><trkpt lat="41.0546730498163" lon="9.470452874604563"><ele>113.0</ele><time>2026-03-21T21:30:40Z</time></trkpt><trkpt lat="41.05459821208396" lon="9.47057458079635"><ele>118.0</ele><time>2026-03-21T21:30:41Z</time></trkpt><trkpt lat="41.054505103324914" lon="9.470667518604348"><ele>118.0</ele><time>2026-03-21T21:30:42Z</time></trkpt><trkpt lat="41.05442762729991" lon="9.470802013463164"><ele>118.0</ele><time>2026-03-21T21:30:43Z</time></trkpt><trkpt lat="41.05435592607152" lon="9.470930518224845"><ele>118.0</ele><time>2026-03-21T21:30:44Z</time></trkpt><trkpt lat="41.05427786341248" lon="9.471080835734506"><ele>118.0</ele><time>2026-03-21T21:30:45Z</time></trkpt><trkpt lat="41.05420514197923" lon="9.47123321988339"><ele>116.25</ele><time>2026-03-21T21:30:46Z</time></trkpt><trkpt lat="41.054131955806554" lon="9.471369467878203"><ele>114.5</ele><time>2026-03-21T21:30:47Z</time></trkpt><trkpt lat="41.05401870146262" lon="9.471448645886493"><ele>112.75</ele><time>2026-03-21T21:30:48Z</time></trkpt><trkpt lat="41.05389598845898" lon="9.471516127979777"><ele>111.0</ele><time>2026-03-21T21:30:49Z</time></trkpt><trkpt lat="41.053796307352975" lon="9.471531827095976"><ele>111.0</ele><time>2026-03-21T21:30:50Z</time></trkpt><trkpt lat="41.05369790982115" lon="9.471533187634956"><ele>111.0</ele><time>2026-03-21T21:30:51Z</time></trkpt><trkpt lat="41.05359455453655" lon="9.471537929286166"><ele>111.0</ele><time>2026-03-21T21:30:52Z</time></trkpt><trkpt lat="41.05343350310662" lon="9.471545317882054"><ele>111.0</ele><time>2026-03-21T21:30:53Z</time></trkpt><trkpt lat="41.053332558131345" lon="9.471521728849506"><ele>112.0</ele><time>2026-03-21T21:30:54Z</time></trkpt><trkpt lat="41.0531687350872" lon="9.471512925445897"><ele>113.0</ele><time>2026-03-21T21:30:55Z</time></trkpt><trkpt lat="41.053074892524315" lon="9.471515142489045"><ele>114.0</ele><time>2026-03-21T21:30:56Z</time></trkpt><trkpt lat="41.052945841376975" lon="9.471533620784227"><ele>115.0</ele><time>2026-03-21T21:30:57Z</time></trkpt><trkpt lat="41.0528237433467" lon="9.471504580321357"><ele>115.0</ele><time>2026-03-21T21:30:58Z</time></trkpt><trkpt lat="41.05270092381143" lon="9.471453148129767"><ele>115.0</ele><time>2026-03-21T21:30:59Z</time></trkpt><trkpt lat="41.05257647328152" lon="9.471441396559843"><ele>115.0</ele><time>2026-03-21T21:31:00Z</time></trkpt><trkpt lat="41.05250288134516" lon="9.471383482535767"><ele>115.0</ele><time>2026-03-21T21:31:01Z</time></trkpt><trkpt lat="41.052388425236195" lon="9.471355863763572"><ele>117.0</ele><time>2026-03-21T21:31:02Z</time></trkpt><trkpt lat="41.05227680128988" lon="9.471333527410653"><ele>119.0</ele><time>2026-03-21T21:31:03Z</time></trkpt><trkpt lat="41.05216013995393" lon="9.471313209973504"><ele>121.0</ele><time>2026-03-21T21:31:04Z</time></trkpt><trkpt lat="41.05203929620616" lon="9.471288912809513"><ele>123.0</ele><time>2026-03-21T21:31:05Z</time></trkpt><trkpt lat="41.05192201525343" lon="9.471256027107664"><ele>127.5</ele><time>2026-03-21T21:31:06Z</time></trkpt><trkpt lat="41.051809907014835" lon="9.471223443070029"><ele>132.0</ele><time>2026-03-21T21:31:07Z</time></trkpt><trkpt lat="41.05168347839613" lon="9.471193194623206"><ele>136.5</ele><time>2026-03-21T21:31:08Z</time></trkpt><trkpt lat="41.05154590821042" lon="9.471169185215006"><ele>141.0</ele><time>2026-03-21T21:31:09Z</time></trkpt><trkpt lat="41.05145492019057" lon="9.471121687118892"><ele>141.0</ele><time>2026-03-21T21:31:10Z</time></trkpt><trkpt lat="41.05132713442244" lon="9.47112175103155"><ele>141.0</ele><time>2026-03-21T21:31:11Z</time></trkpt><trkpt lat="41.05120844412801" lon="9.471132181049287"><ele>141.0</ele><time>2026-03-21T21:31:12Z</time></trkpt><trkpt lat="41.051083025745875" lon="9.471162396661786"><ele>141.0</ele><time>2026-03-21T21:31:13Z</time></trkpt><trkpt lat="41.05097281023204" lon="9.471187421713289"><ele>141.0</ele><time>2026-03-21T21:31:14Z</time></trkpt><trkpt lat="41.050860260004995" lon="9.471257281099895"><ele>141.0</ele><time>2026-03-21T21:31:15Z</time></trkpt><trkpt lat="41.050733661309295" lon="9.471269684827945"><ele>141.0</ele><time>2026-03-21T21:31:16Z</time></trkpt><trkpt lat="41.05061343952006" lon="9.471318520421873"><ele>141.0</ele><time>2026-03-21T21:31:17Z</time></trkpt><trkpt lat="41.05047985798407" lon="9.471384708126909"><ele>140.5</ele><time>2026-03-21T21:31:18Z</time></trkpt><trkpt lat="41.05034615478919" lon="9.471414550497686"><ele>140.0</ele><time>2026-03-21T21:31:19.001Z</time></trkpt><trkpt lat="41.050214697485025" lon="9.47143958535954"><ele>139.5</ele><time>2026-03-21T21:31:20.001Z</time></trkpt><trkpt lat="41.05008759115388" lon="9.471461316635882"><ele>139.0</ele><time>2026-03-21T21:31:21.001Z</time></trkpt><trkpt lat="41.04996780100112" lon="9.471466310687958"><ele>139.75</ele><time>2026-03-21T21:31:22.001Z</time></trkpt><trkpt lat="41.04983594123514" lon="9.471464655416368"><ele>140.5</ele><time>2026-03-21T21:31:23.001Z</time></trkpt><trkpt lat="41.04969446858569" lon="9.471479511253133"><ele>141.25</ele><time>2026-03-21T21:31:24.001Z</time></trkpt><trkpt lat="41.049555424987695" lon="9.471432253630413"><ele>142.0</ele><time>2026-03-21T21:31:25.001Z</time></trkpt><trkpt lat="41.04942003461215" lon="9.471420621008965"><ele>142.0</ele><time>2026-03-21T21:31:26.001Z</time></trkpt><trkpt lat="41.04928824907425" lon="9.471382590945108"><ele>142.0</ele><time>2026-03-21T21:31:27.001Z</time></trkpt><trkpt lat="41.04916997079004" lon="9.471286537768172"><ele>142.0</ele><time>2026-03-21T21:31:28.001Z</time></trkpt><trkpt lat="41.04907877521287" lon="9.471142316029253"><ele>142.0</ele><time>2026-03-21T21:31:29.001Z</time></trkpt><trkpt lat="41.04899648577974" lon="9.470989759958101"><ele>143.0</ele><time>2026-03-21T21:31:30.001Z</time></trkpt><trkpt lat="41.04893653831326" lon="9.470835371709958"><ele>144.0</ele><time>2026-03-21T21:31:31.001Z</time></trkpt><trkpt lat="41.04886570755436" lon="9.470684479206648"><ele>145.0</ele><time>2026-03-21T21:31:32.001Z</time></trkpt><trkpt lat="41.048794766040565" lon="9.470522993906263"><ele>146.0</ele><time>2026-03-21T21:31:33.001Z</time></trkpt><trkpt lat="41.04871446716583" lon="9.470370368419506"><ele>147.5</ele><time>2026-03-21T21:31:34.001Z</time></trkpt><trkpt lat="41.04863499899656" lon="9.470214887428005"><ele>149.0</ele><time>2026-03-21T21:31:35.001Z</time></trkpt><trkpt lat="41.048558047396135" lon="9.47006346976099"><ele>150.5</ele><time>2026-03-21T21:31:36.001Z</time></trkpt><trkpt lat="41.04847939281345" lon="9.469911289145378"><ele>152.0</ele><time>2026-03-21T21:31:37.001Z</time></trkpt><trkpt lat="41.048399090544606" lon="9.469762258079264"><ele>152.0</ele><time>2026-03-21T21:31:38.001Z</time></trkpt><trkpt lat="41.04831945018962" lon="9.469617405198605"><ele>152.0</ele><time>2026-03-21T21:31:39.001Z</time></trkpt><trkpt lat="41.04823292710343" lon="9.46947779856869"><ele>152.0</ele><time>2026-03-21T21:31:40.001Z</time></trkpt><trkpt lat="41.048136719317554" lon="9.469333260913897"><ele>152.0</ele><time>2026-03-21T21:31:41.001Z</time></trkpt><trkpt lat="41.04804472408371" lon="9.4691769417142"><ele>154.75</ele><time>2026-03-21T21:31:42.001Z</time></trkpt><trkpt lat="41.04796545628789" lon="9.469035869406246"><ele>157.5</ele><time>2026-03-21T21:31:43.001Z</time></trkpt><trkpt lat="41.04789132097458" lon="9.468879917253012"><ele>160.25</ele><time>2026-03-21T21:31:44.001Z</time></trkpt><trkpt lat="41.04782040505938" lon="9.468714080086315"><ele>163.0</ele><time>2026-03-21T21:31:45.001Z</time></trkpt><trkpt lat="41.047760183906256" lon="9.468547958776622"><ele>164.75</ele><time>2026-03-21T21:31:46.001Z</time></trkpt><trkpt lat="41.047704371394396" lon="9.468391432632796"><ele>166.5</ele><time>2026-03-21T21:31:47.001Z</time></trkpt><trkpt lat="41.04762145850817" lon="9.468270098900675"><ele>168.25</ele><time>2026-03-21T21:31:48.001Z</time></trkpt><trkpt lat="41.04751408462416" lon="9.468166714133162"><ele>170.0</ele><time>2026-03-21T21:31:49.001Z</time></trkpt><trkpt lat="41.047401479640776" lon="9.468105962289716"><ele>170.5</ele><time>2026-03-21T21:31:50.001Z</time></trkpt><trkpt lat="41.04727299267112" lon="9.46807324316406"><ele>171.0</ele><time>2026-03-21T21:31:51.001Z</time></trkpt><trkpt lat="41.04715963205892" lon="9.468087488474858"><ele>171.5</ele><time>2026-03-21T21:31:52.001Z</time></trkpt><trkpt lat="41.04705204872827" lon="9.46810155922788"><ele>172.0</ele><time>2026-03-21T21:31:53.001Z</time></trkpt><trkpt lat="41.0469404674371" lon="9.468150474614701"><ele>172.0</ele><time>2026-03-21T21:31:54.001Z</time></trkpt><trkpt lat="41.046850878318" lon="9.468190258467542"><ele>172.0</ele><time>2026-03-21T21:31:55.001Z</time></trkpt><trkpt lat="41.04676817225454" lon="9.468160436272045"><ele>172.0</ele><time>2026-03-21T21:31:56.001Z</time></trkpt><trkpt lat="41.04670120943567" lon="9.46806921029025"><ele>172.0</ele><time>2026-03-21T21:31:57.001Z</time></trkpt><trkpt lat="41.04663662793366" lon="9.467997650545808"><ele>172.0</ele><time>2026-03-21T21:31:58.001Z</time></trkpt><trkpt lat="41.04656535829766" lon="9.467943326041462"><ele>172.0</ele><time>2026-03-21T21:31:59.001Z</time></trkpt><trkpt lat="41.046514479094" lon="9.467855354147236"><ele>172.0</ele><time>2026-03-21T21:32:00.001Z</time></trkpt><trkpt lat="41.04643405264915" lon="9.46780475070695"><ele>172.0</ele><time>2026-03-21T21:32:01.001Z</time></trkpt><trkpt lat="41.046348175949944" lon="9.467839722143157"><ele>172.0</ele><time>2026-03-21T21:32:02.001Z</time></trkpt><trkpt lat="41.04626725305492" lon="9.467872143661332"><ele>172.0</ele><time>2026-03-21T21:32:03.001Z</time></trkpt><trkpt lat="41.04618005751137" lon="9.467938751289937"><ele>172.0</ele><time>2026-03-21T21:32:04.001Z</time></trkpt><trkpt lat="41.046105154115025" lon="9.46802523375187"><ele>172.0</ele><time>2026-03-21T21:32:05.001Z</time></trkpt><trkpt lat="41.04603596728518" lon="9.46814059207078"><ele>172.0</ele><time>2026-03-21T21:32:06.001Z</time></trkpt><trkpt lat="41.04599659963689" lon="9.468298021936958"><ele>172.0</ele><time>2026-03-21T21:32:07.001Z</time></trkpt><trkpt lat="41.04597074000015" lon="9.468455496200646"><ele>172.0</ele><time>2026-03-21T21:32:08.001Z</time></trkpt><trkpt lat="41.045922152997846" lon="9.468598394074315"><ele>172.0</ele><time>2026-03-21T21:32:09.001Z</time></trkpt><trkpt lat="41.04589325767864" lon="9.468775359122588"><ele>172.0</ele><time>2026-03-21T21:32:10.001Z</time></trkpt><trkpt lat="41.045868366004626" lon="9.468972301839838"><ele>172.0</ele><time>2026-03-21T21:32:11.001Z</time></trkpt><trkpt lat="41.045840145426425" lon="9.469178113895245"><ele>172.0</ele><time>2026-03-21T21:32:12.001Z</time></trkpt><trkpt lat="41.0458142287065" lon="9.469372974208824"><ele>171.75</ele><time>2026-03-21T21:32:13.001Z</time></trkpt><trkpt lat="41.04579110982281" lon="9.46956575096958"><ele>171.5</ele><time>2026-03-21T21:32:14.001Z</time></trkpt><trkpt lat="41.04576603423168" lon="9.469752938089583"><ele>171.25</ele><time>2026-03-21T21:32:15.001Z</time></trkpt><trkpt lat="41.045733364999464" lon="9.469945810547426"><ele>171.0</ele><time>2026-03-21T21:32:16.001Z</time></trkpt><trkpt lat="41.045705002255275" lon="9.470144863212585"><ele>170.33333333333334</ele><time>2026-03-21T21:32:17.001Z</time></trkpt><trkpt lat="41.04567141128312" lon="9.470346585906476"><ele>169.66666666666669</ele><time>2026-03-21T21:32:18.001Z</time></trkpt><trkpt lat="41.04563719452326" lon="9.470552821740554"><ele>169.0</ele><time>2026-03-21T21:32:19.001Z</time></trkpt><trkpt lat="41.04559888751256" lon="9.470766721377055"><ele>168.66666666666669</ele><time>2026-03-21T21:32:20.001Z</time></trkpt><trkpt lat="41.04555735194211" lon="9.470991060059651"><ele>168.33333333333334</ele><time>2026-03-21T21:32:21.001Z</time></trkpt><trkpt lat="41.045523249921594" lon="9.471225119419692"><ele>168.0</ele><time>2026-03-21T21:32:22.001Z</time></trkpt><trkpt lat="41.04548846625303" lon="9.47145479950523"><ele>168.0</ele><time>2026-03-21T21:32:23.001Z</time></trkpt><trkpt lat="41.04545442275003" lon="9.471683007107151"><ele>168.0</ele><time>2026-03-21T21:32:24.001Z</time></trkpt><trkpt lat="41.045419903276134" lon="9.4719129206054"><ele>168.0</ele><time>2026-03-21T21:32:25.001Z</time></trkpt><trkpt lat="41.04537951000088" lon="9.472139492044612"><ele>169.33333333333334</ele><time>2026-03-21T21:32:26Z</time></trkpt><trkpt lat="41.045340584487896" lon="9.472363234114924"><ele>170.66666666666669</ele><time>2026-03-21T21:32:27Z</time></trkpt><trkpt lat="41.04531244832798" lon="9.472586090000593"><ele>172.0</ele><time>2026-03-21T21:32:28Z</time></trkpt><trkpt lat="41.04529481593365" lon="9.472808531026155"><ele>173.33333333333334</ele><time>2026-03-21T21:32:29Z</time></trkpt><trkpt lat="41.0452830306879" lon="9.473029633566068"><ele>174.66666666666666</ele><time>2026-03-21T21:32:30Z</time></trkpt><trkpt lat="41.045293668669736" lon="9.473253651761748"><ele>176.0</ele><time>2026-03-21T21:32:31Z</time></trkpt><trkpt lat="41.04530243292603" lon="9.473469997372069"><ele>176.0</ele><time>2026-03-21T21:32:32Z</time></trkpt><trkpt lat="41.04531820391482" lon="9.473692335346966"><ele>176.0</ele><time>2026-03-21T21:32:33Z</time></trkpt><trkpt lat="41.04533576483349" lon="9.473907208661604"><ele>176.0</ele><time>2026-03-21T21:32:34Z</time></trkpt><trkpt lat="41.045345009176685" lon="9.474123805646915"><ele>178.0</ele><time>2026-03-21T21:32:35Z</time></trkpt><trkpt lat="41.04534364781229" lon="9.474334849338929"><ele>180.0</ele><time>2026-03-21T21:32:36Z</time></trkpt><trkpt lat="41.04532701452289" lon="9.474541690687866"><ele>182.0</ele><time>2026-03-21T21:32:37Z</time></trkpt><trkpt lat="41.04530062721906" lon="9.474751456165029"><ele>184.0</ele><time>2026-03-21T21:32:38Z</time></trkpt><trkpt lat="41.04527257489639" lon="9.47495601710803"><ele>186.0</ele><time>2026-03-21T21:32:39Z</time></trkpt><trkpt lat="41.04524751984167" lon="9.475154178936332"><ele>188.0</ele><time>2026-03-21T21:32:40Z</time></trkpt><trkpt lat="41.04521854252272" lon="9.475345039151758"><ele>188.5</ele><time>2026-03-21T21:32:41Z</time></trkpt><trkpt lat="41.045193850414186" lon="9.475538262987097"><ele>189.0</ele><time>2026-03-21T21:32:42Z</time></trkpt><trkpt lat="41.04517220222836" lon="9.475735556262673"><ele>189.5</ele><time>2026-03-21T21:32:43Z</time></trkpt><trkpt lat="41.04514499956678" lon="9.475922708107996"><ele>190.0</ele><time>2026-03-21T21:32:44Z</time></trkpt><trkpt lat="41.045097662827835" lon="9.476110090819736"><ele>190.5</ele><time>2026-03-21T21:32:45Z</time></trkpt><trkpt lat="41.04503269429304" lon="9.476284717442505"><ele>191.0</ele><time>2026-03-21T21:32:46Z</time></trkpt><trkpt lat="41.04496276478254" lon="9.476455712310695"><ele>191.5</ele><time>2026-03-21T21:32:47Z</time></trkpt><trkpt lat="41.04488269110372" lon="9.476618812773575"><ele>192.0</ele><time>2026-03-21T21:32:48Z</time></trkpt><trkpt lat="41.04481533386972" lon="9.476787036387133"><ele>198.5</ele><time>2026-03-21T21:32:49Z</time></trkpt><trkpt lat="41.04475394908016" lon="9.476952516638674"><ele>205.0</ele><time>2026-03-21T21:32:50Z</time></trkpt><trkpt lat="41.044703785814235" lon="9.477111291887784"><ele>211.5</ele><time>2026-03-21T21:32:51Z</time></trkpt><trkpt lat="41.04465863757421" lon="9.47728643300251"><ele>218.0</ele><time>2026-03-21T21:32:52Z</time></trkpt><trkpt lat="41.0446283151957" lon="9.477460909312736"><ele>218.0</ele><time>2026-03-21T21:32:53Z</time></trkpt><trkpt lat="41.04461114861911" lon="9.477643849040556"><ele>218.0</ele><time>2026-03-21T21:32:54Z</time></trkpt><trkpt lat="41.04458950515548" lon="9.47784026794145"><ele>218.0</ele><time>2026-03-21T21:32:55Z</time></trkpt><trkpt lat="41.044577136922996" lon="9.478041547211385"><ele>218.0</ele><time>2026-03-21T21:32:56Z</time></trkpt><trkpt lat="41.04454470161778" lon="9.478239875342917"><ele>216.66666666666669</ele><time>2026-03-21T21:32:57Z</time></trkpt><trkpt lat="41.044525921577545" lon="9.478439672249293"><ele>215.33333333333331</ele><time>2026-03-21T21:32:58Z</time></trkpt><trkpt lat="41.04450715877794" lon="9.478642808115689"><ele>214.0</ele><time>2026-03-21T21:32:59Z</time></trkpt><trkpt lat="41.04448776746979" lon="9.478840867142193"><ele>211.33333333333331</ele><time>2026-03-21T21:33:00Z</time></trkpt><trkpt lat="41.04444648246099" lon="9.479034318893712"><ele>208.66666666666669</ele><time>2026-03-21T21:33:01Z</time></trkpt><trkpt lat="41.04437345838126" lon="9.479223638188463"><ele>206.0</ele><time>2026-03-21T21:33:02Z</time></trkpt><trkpt lat="41.04430255398202" lon="9.479405108661334"><ele>206.0</ele><time>2026-03-21T21:33:03Z</time></trkpt><trkpt lat="41.04416507400628" lon="9.479541401159603"><ele>206.0</ele><time>2026-03-21T21:33:04Z</time></trkpt><trkpt lat="41.044021341830536" lon="9.479638333758565"><ele>206.0</ele><time>2026-03-21T21:33:05Z</time></trkpt><trkpt lat="41.04386781394288" lon="9.479682675812132"><ele>205.66666666666669</ele><time>2026-03-21T21:33:06Z</time></trkpt><trkpt lat="41.043715839274796" lon="9.479709830529728"><ele>205.33333333333331</ele><time>2026-03-21T21:33:07Z</time></trkpt><trkpt lat="41.04356226456781" lon="9.479738409780623"><ele>205.0</ele><time>2026-03-21T21:33:08Z</time></trkpt><trkpt lat="41.04341019537176" lon="9.479790195097316"><ele>205.0</ele><time>2026-03-21T21:33:09Z</time></trkpt><trkpt lat="41.04326483197845" lon="9.479848128953899"><ele>205.0</ele><time>2026-03-21T21:33:10Z</time></trkpt><trkpt lat="41.04310588941108" lon="9.4798929650082"><ele>205.0</ele><time>2026-03-21T21:33:11Z</time></trkpt><trkpt lat="41.04294717336829" lon="9.479937247887664"><ele>205.0</ele><time>2026-03-21T21:33:12Z</time></trkpt><trkpt lat="41.04278759641847" lon="9.47997521700845"><ele>205.0</ele><time>2026-03-21T21:33:13Z</time></trkpt><trkpt lat="41.042632043030984" lon="9.47998962449776"><ele>205.0</ele><time>2026-03-21T21:33:14Z</time></trkpt><trkpt lat="41.042480520451946" lon="9.48002142853189"><ele>205.66666666666666</ele><time>2026-03-21T21:33:15Z</time></trkpt><trkpt lat="41.04232893109813" lon="9.480051631147967"><ele>206.33333333333331</ele><time>2026-03-21T21:33:16Z</time></trkpt><trkpt lat="41.042173409035506" lon="9.480104453115306"><ele>207.0</ele><time>2026-03-21T21:33:17Z</time></trkpt><trkpt lat="41.04201564587248" lon="9.48013528799534"><ele>207.0</ele><time>2026-03-21T21:33:18Z</time></trkpt><trkpt lat="41.041863213335155" lon="9.480168481240328"><ele>207.0</ele><time>2026-03-21T21:33:19Z</time></trkpt><trkpt lat="41.04171559888932" lon="9.480210203599153"><ele>207.0</ele><time>2026-03-21T21:33:20Z</time></trkpt><trkpt lat="41.04156600805912" lon="9.48028315355338"><ele>208.33333333333331</ele><time>2026-03-21T21:33:21Z</time></trkpt><trkpt lat="41.04141654087546" lon="9.480377564011654"><ele>209.66666666666666</ele><time>2026-03-21T21:33:22Z</time></trkpt><trkpt lat="41.041278695417496" lon="9.48049115770522"><ele>211.0</ele><time>2026-03-21T21:33:23Z</time></trkpt><trkpt lat="41.04114344106853" lon="9.480634558825345"><ele>211.0</ele><time>2026-03-21T21:33:24Z</time></trkpt><trkpt lat="41.04103383817446" lon="9.480802392599255"><ele>211.0</ele><time>2026-03-21T21:33:25.001Z</time></trkpt><trkpt lat="41.04093273240241" lon="9.480978383657016"><ele>211.0</ele><time>2026-03-21T21:33:26.001Z</time></trkpt><trkpt lat="41.04083565949862" lon="9.481159685820147"><ele>213.0</ele><time>2026-03-21T21:33:27.001Z</time></trkpt><trkpt lat="41.040731985788725" lon="9.481336140918216"><ele>215.0</ele><time>2026-03-21T21:33:28.001Z</time></trkpt><trkpt lat="41.04063949022644" lon="9.481498644720588"><ele>217.0</ele><time>2026-03-21T21:33:29.001Z</time></trkpt><trkpt lat="41.04051455629678" lon="9.481687307604194"><ele>217.0</ele><time>2026-03-21T21:33:30.001Z</time></trkpt><trkpt lat="41.04040600255792" lon="9.481872288609699"><ele>217.0</ele><time>2026-03-21T21:33:31.001Z</time></trkpt><trkpt lat="41.040294895833505" lon="9.482061900163593"><ele>217.0</ele><time>2026-03-21T21:33:32.001Z</time></trkpt><trkpt lat="41.04019647121962" lon="9.482230531475457"><ele>215.66666666666666</ele><time>2026-03-21T21:33:33.001Z</time></trkpt><trkpt lat="41.040084879807736" lon="9.482412972104038"><ele>214.33333333333331</ele><time>2026-03-21T21:33:34.001Z</time></trkpt><trkpt lat="41.03996914145963" lon="9.482586912144974"><ele>213.0</ele><time>2026-03-21T21:33:35.001Z</time></trkpt><trkpt lat="41.039839428632675" lon="9.482755163072076"><ele>213.0</ele><time>2026-03-21T21:33:36.001Z</time></trkpt><trkpt lat="41.03969919024977" lon="9.482899100756875"><ele>213.0</ele><time>2026-03-21T21:33:37.001Z</time></trkpt><trkpt lat="41.039557857816405" lon="9.483047753267858"><ele>213.0</ele><time>2026-03-21T21:33:38.001Z</time></trkpt><trkpt lat="41.03941887522098" lon="9.483207616088995"><ele>210.66666666666669</ele><time>2026-03-21T21:33:39.001Z</time></trkpt><trkpt lat="41.03927699442146" lon="9.48335908004483"><ele>208.33333333333334</ele><time>2026-03-21T21:33:40.001Z</time></trkpt><trkpt lat="41.039134865979676" lon="9.483516735264784"><ele>206.0</ele><time>2026-03-21T21:33:41.001Z</time></trkpt><trkpt lat="41.038992573573886" lon="9.483676124262889"><ele>201.33333333333334</ele><time>2026-03-21T21:33:42.001Z</time></trkpt><trkpt lat="41.03885441173893" lon="9.483840485585478"><ele>196.66666666666669</ele><time>2026-03-21T21:33:43.001Z</time></trkpt><trkpt lat="41.03871531139451" lon="9.484002626850591"><ele>192.0</ele><time>2026-03-21T21:33:44.001Z</time></trkpt><trkpt lat="41.03855877637914" lon="9.484140176597489"><ele>192.0</ele><time>2026-03-21T21:33:45.001Z</time></trkpt><trkpt lat="41.03838385457167" lon="9.484243645244236"><ele>192.0</ele><time>2026-03-21T21:33:46.001Z</time></trkpt><trkpt lat="41.038195579888004" lon="9.484275439949597"><ele>192.0</ele><time>2026-03-21T21:33:47.001Z</time></trkpt><trkpt lat="41.0380070246095" lon="9.48431863389466"><ele>191.66666666666666</ele><time>2026-03-21T21:33:48.001Z</time></trkpt><trkpt lat="41.03780885307608" lon="9.484357136918137"><ele>191.33333333333331</ele><time>2026-03-21T21:33:49.001Z</time></trkpt><trkpt lat="41.03761916820662" lon="9.484393864599456"><ele>191.0</ele><time>2026-03-21T21:33:50.001Z</time></trkpt><trkpt lat="41.03744433244024" lon="9.484427583972687"><ele>188.33333333333331</ele><time>2026-03-21T21:33:51.001Z</time></trkpt><trkpt lat="41.0372680635715" lon="9.484458226218205"><ele>185.66666666666666</ele><time>2026-03-21T21:33:52.001Z</time></trkpt><trkpt lat="41.03710127805429" lon="9.48445852203526"><ele>183.0</ele><time>2026-03-21T21:33:53.001Z</time></trkpt><trkpt lat="41.036946865456336" lon="9.48442288547728"><ele>183.0</ele><time>2026-03-21T21:33:54.001Z</time></trkpt><trkpt lat="41.036808783026835" lon="9.484349479624186"><ele>183.0</ele><time>2026-03-21T21:33:55.001Z</time></trkpt><trkpt lat="41.0366632865675" lon="9.484253107322525"><ele>183.0</ele><time>2026-03-21T21:33:56.001Z</time></trkpt><trkpt lat="41.036528886431775" lon="9.484170049853036"><ele>183.0</ele><time>2026-03-21T21:33:57.001Z</time></trkpt><trkpt lat="41.03638782027066" lon="9.484147899661536"><ele>183.0</ele><time>2026-03-21T21:33:58.001Z</time></trkpt><trkpt lat="41.036251738240566" lon="9.48415859342978"><ele>183.0</ele><time>2026-03-21T21:33:59.001Z</time></trkpt><trkpt lat="41.03611471508787" lon="9.484232663660666"><ele>183.0</ele><time>2026-03-21T21:34:00.001Z</time></trkpt><trkpt lat="41.03600277846999" lon="9.484345944708524"><ele>183.0</ele><time>2026-03-21T21:34:01.001Z</time></trkpt><trkpt lat="41.035916009522296" lon="9.484501936007327"><ele>183.0</ele><time>2026-03-21T21:34:02.001Z</time></trkpt><trkpt lat="41.03588481322448" lon="9.48469384813459"><ele>183.0</ele><time>2026-03-21T21:34:03.001Z</time></trkpt><trkpt lat="41.03589085410979" lon="9.484864706267135"><ele>183.0</ele><time>2026-03-21T21:34:04.001Z</time></trkpt><trkpt lat="41.035945247152114" lon="9.485016076290762"><ele>182.25</ele><time>2026-03-21T21:34:05.001Z</time></trkpt><trkpt lat="41.03606437008913" lon="9.485104753064324"><ele>181.5</ele><time>2026-03-21T21:34:06.001Z</time></trkpt><trkpt lat="41.03616604609228" lon="9.485132552964025"><ele>180.75</ele><time>2026-03-21T21:34:07.001Z</time></trkpt><trkpt lat="41.03628172448678" lon="9.485133825890694"><ele>180.0</ele><time>2026-03-21T21:34:08.001Z</time></trkpt><trkpt lat="41.03641907770416" lon="9.485134341952778"><ele>180.0</ele><time>2026-03-21T21:34:09.001Z</time></trkpt><trkpt lat="41.03653047977668" lon="9.485181354699291"><ele>180.0</ele><time>2026-03-21T21:34:10.001Z</time></trkpt><trkpt lat="41.03666286341855" lon="9.485317905622175"><ele>180.0</ele><time>2026-03-21T21:34:11.001Z</time></trkpt><trkpt lat="41.03678327465006" lon="9.485439458812376"><ele>180.0</ele><time>2026-03-21T21:34:12.001Z</time></trkpt><trkpt lat="41.03688215833855" lon="9.485597621885026"><ele>178.66666666666666</ele><time>2026-03-21T21:34:13.001Z</time></trkpt><trkpt lat="41.03701541177896" lon="9.485751467066523"><ele>177.33333333333331</ele><time>2026-03-21T21:34:14.001Z</time></trkpt><trkpt lat="41.037152919310934" lon="9.485920216721894"><ele>176.0</ele><time>2026-03-21T21:34:15.001Z</time></trkpt><trkpt lat="41.03726530303783" lon="9.486135632536017"><ele>178.0</ele><time>2026-03-21T21:34:16.001Z</time></trkpt><trkpt lat="41.037360329131204" lon="9.486365199608803"><ele>180.0</ele><time>2026-03-21T21:34:17.001Z</time></trkpt><trkpt lat="41.037422266638195" lon="9.486611794441549"><ele>182.0</ele><time>2026-03-21T21:34:18.001Z</time></trkpt><trkpt lat="41.03750000502127" lon="9.486864848099918"><ele>177.0</ele><time>2026-03-21T21:34:19.001Z</time></trkpt><trkpt lat="41.037581198022686" lon="9.4871291471332"><ele>172.0</ele><time>2026-03-21T21:34:20.001Z</time></trkpt><trkpt lat="41.0376608305189" lon="9.487388366395457"><ele>167.0</ele><time>2026-03-21T21:34:21.001Z</time></trkpt><trkpt lat="41.03775489961937" lon="9.487653716607621"><ele>165.5</ele><time>2026-03-21T21:34:22.001Z</time></trkpt><trkpt lat="41.03782903516135" lon="9.4879270243802"><ele>164.0</ele><time>2026-03-21T21:34:23.001Z</time></trkpt><trkpt lat="41.03792244177278" lon="9.488218059182513"><ele>164.0</ele><time>2026-03-21T21:34:24.001Z</time></trkpt><trkpt lat="41.03800594846086" lon="9.488506164600427"><ele>164.0</ele><time>2026-03-21T21:34:25.001Z</time></trkpt><trkpt lat="41.038095491092015" lon="9.488795483086117"><ele>159.5</ele><time>2026-03-21T21:34:26.001Z</time></trkpt><trkpt lat="41.03819444124911" lon="9.489079309427009"><ele>155.0</ele><time>2026-03-21T21:34:27.001Z</time></trkpt><trkpt lat="41.038271310347966" lon="9.489379390721924"><ele>155.0</ele><time>2026-03-21T21:34:28.001Z</time></trkpt><trkpt lat="41.038373294160216" lon="9.489660512879444"><ele>155.0</ele><time>2026-03-21T21:34:29.001Z</time></trkpt><trkpt lat="41.038440685597976" lon="9.48996623842238"><ele>155.0</ele><time>2026-03-21T21:34:30.001Z</time></trkpt><trkpt lat="41.038464014246976" lon="9.49028738757189"><ele>155.0</ele><time>2026-03-21T21:34:31.001Z</time></trkpt><trkpt lat="41.03848304471663" lon="9.490602526429804"><ele>151.5</ele><time>2026-03-21T21:34:32Z</time></trkpt><trkpt lat="41.038503810285775" lon="9.490923292992816"><ele>148.0</ele><time>2026-03-21T21:34:33Z</time></trkpt><trkpt lat="41.03852423382485" lon="9.491234437214587"><ele>147.0</ele><time>2026-03-21T21:34:34Z</time></trkpt><trkpt lat="41.03854491041623" lon="9.491549430777782"><ele>146.0</ele><time>2026-03-21T21:34:35Z</time></trkpt><trkpt lat="41.03856629361549" lon="9.491875181190105"><ele>145.5</ele><time>2026-03-21T21:34:36Z</time></trkpt><trkpt lat="41.038586758881806" lon="9.492186947866433"><ele>145.0</ele><time>2026-03-21T21:34:37Z</time></trkpt><trkpt lat="41.03862570330194" lon="9.492501718071917"><ele>145.0</ele><time>2026-03-21T21:34:38Z</time></trkpt><trkpt lat="41.038646891215" lon="9.492819572972302"><ele>145.0</ele><time>2026-03-21T21:34:39Z</time></trkpt><trkpt lat="41.03866648583672" lon="9.49313769572015"><ele>143.0</ele><time>2026-03-21T21:34:40Z</time></trkpt><trkpt lat="41.038693269976285" lon="9.493444778035064"><ele>141.0</ele><time>2026-03-21T21:34:41Z</time></trkpt><trkpt lat="41.038752455952576" lon="9.493730311474838"><ele>144.66666666666666</ele><time>2026-03-21T21:34:42Z</time></trkpt><trkpt lat="41.038836784052144" lon="9.49399312552522"><ele>148.33333333333331</ele><time>2026-03-21T21:34:43Z</time></trkpt><trkpt lat="41.03893512056866" lon="9.494253036411493"><ele>152.0</ele><time>2026-03-21T21:34:44Z</time></trkpt><trkpt lat="41.03902484705527" lon="9.494494616382465"><ele>148.66666666666666</ele><time>2026-03-21T21:34:45Z</time></trkpt><trkpt lat="41.03911028306357" lon="9.494742517122482"><ele>145.33333333333334</ele><time>2026-03-21T21:34:46Z</time></trkpt><trkpt lat="41.03920672720769" lon="9.494996688568664"><ele>142.0</ele><time>2026-03-21T21:34:47Z</time></trkpt><trkpt lat="41.03930291334306" lon="9.49525761626138"><ele>144.0</ele><time>2026-03-21T21:34:48Z</time></trkpt><trkpt lat="41.0393964973081" lon="9.495516901482329"><ele>146.0</ele><time>2026-03-21T21:34:49Z</time></trkpt><trkpt lat="41.039491099111245" lon="9.49575646940283"><ele>148.0</ele><time>2026-03-21T21:34:50Z</time></trkpt><trkpt lat="41.03958139357442" lon="9.496012515389062"><ele>148.0</ele><time>2026-03-21T21:34:51Z</time></trkpt><trkpt lat="41.03963809641311" lon="9.496280064270136"><ele>148.0</ele><time>2026-03-21T21:34:52Z</time></trkpt><trkpt lat="41.03964547689664" lon="9.496545965449219"><ele>148.0</ele><time>2026-03-21T21:34:53Z</time></trkpt><trkpt lat="41.03962570167025" lon="9.496808770702215"><ele>148.0</ele><time>2026-03-21T21:34:54Z</time></trkpt><trkpt lat="41.03956218441925" lon="9.497057793674927"><ele>148.0</ele><time>2026-03-21T21:34:55Z</time></trkpt><trkpt lat="41.03948136087897" lon="9.497293586114829"><ele>148.0</ele><time>2026-03-21T21:34:56Z</time></trkpt><trkpt lat="41.03940940909164" lon="9.497541420248178"><ele>146.66666666666669</ele><time>2026-03-21T21:34:57Z</time></trkpt><trkpt lat="41.03933889730112" lon="9.497785341078137"><ele>145.33333333333334</ele><time>2026-03-21T21:34:58Z</time></trkpt><trkpt lat="41.03926919624457" lon="9.49803011214398"><ele>144.0</ele><time>2026-03-21T21:34:59Z</time></trkpt><trkpt lat="41.03919584360654" lon="9.49827836022011"><ele>146.33333333333334</ele><time>2026-03-21T21:35:00Z</time></trkpt><trkpt lat="41.039124880718994" lon="9.498519978078262"><ele>148.66666666666669</ele><time>2026-03-21T21:35:01Z</time></trkpt><trkpt lat="41.039055257748686" lon="9.498768342883693"><ele>151.0</ele><time>2026-03-21T21:35:02Z</time></trkpt><trkpt lat="41.03898212847257" lon="9.499012315351935"><ele>151.0</ele><time>2026-03-21T21:35:03Z</time></trkpt><trkpt lat="41.03890086826951" lon="9.499255945242018"><ele>151.0</ele><time>2026-03-21T21:35:04Z</time></trkpt><trkpt lat="41.03882105600118" lon="9.499508822225751"><ele>151.0</ele><time>2026-03-21T21:35:05Z</time></trkpt><trkpt lat="41.038738511873234" lon="9.499750264572716"><ele>148.33333333333334</ele><time>2026-03-21T21:35:06Z</time></trkpt><trkpt lat="41.03864845482421" lon="9.500002831850896"><ele>145.66666666666666</ele><time>2026-03-21T21:35:07Z</time></trkpt><trkpt lat="41.03856178762912" lon="9.500247203866172"><ele>143.0</ele><time>2026-03-21T21:35:08Z</time></trkpt><trkpt lat="41.038471119578645" lon="9.500485936786443"><ele>142.66666666666666</ele><time>2026-03-21T21:35:09Z</time></trkpt><trkpt lat="41.038368540615366" lon="9.50072873529214"><ele>142.33333333333334</ele><time>2026-03-21T21:35:10Z</time></trkpt><trkpt lat="41.03827905382848" lon="9.500954528283613"><ele>142.0</ele><time>2026-03-21T21:35:11Z</time></trkpt><trkpt lat="41.03818786605993" lon="9.501180808224962"><ele>139.66666666666669</ele><time>2026-03-21T21:35:12Z</time></trkpt><trkpt lat="41.03810065380048" lon="9.501422077967527"><ele>137.33333333333334</ele><time>2026-03-21T21:35:13Z</time></trkpt><trkpt lat="41.03801014406328" lon="9.501670134989816"><ele>135.0</ele><time>2026-03-21T21:35:14Z</time></trkpt><trkpt lat="41.03792240389331" lon="9.501915382151978"><ele>132.33333333333334</ele><time>2026-03-21T21:35:15Z</time></trkpt><trkpt lat="41.03784212179288" lon="9.502169576051768"><ele>129.66666666666669</ele><time>2026-03-21T21:35:16Z</time></trkpt><trkpt lat="41.03778784021152" lon="9.50243246018462"><ele>127.0</ele><time>2026-03-21T21:35:17Z</time></trkpt><trkpt lat="41.03774875010882" lon="9.502709526277753"><ele>125.33333333333334</ele><time>2026-03-21T21:35:18Z</time></trkpt><trkpt lat="41.037725274454566" lon="9.50298893645787"><ele>123.66666666666666</ele><time>2026-03-21T21:35:19Z</time></trkpt><trkpt lat="41.03769069572951" lon="9.503270163275198"><ele>122.0</ele><time>2026-03-21T21:35:20Z</time></trkpt><trkpt lat="41.03764673244752" lon="9.503562017336346"><ele>120.66666666666666</ele><time>2026-03-21T21:35:21.001Z</time></trkpt><trkpt lat="41.03761157613259" lon="9.5038423153098"><ele>119.33333333333334</ele><time>2026-03-21T21:35:22.001Z</time></trkpt><trkpt lat="41.037569833273686" lon="9.504132994378717"><ele>118.0</ele><time>2026-03-21T21:35:23.001Z</time></trkpt><trkpt lat="41.037526215350454" lon="9.504421666956816"><ele>117.0</ele><time>2026-03-21T21:35:24.001Z</time></trkpt><trkpt lat="41.037482164436256" lon="9.504710533884046"><ele>116.0</ele><time>2026-03-21T21:35:25.001Z</time></trkpt><trkpt lat="41.03744311073658" lon="9.505001938159483"><ele>115.0</ele><time>2026-03-21T21:35:26.001Z</time></trkpt><trkpt lat="41.03740699652459" lon="9.505289219069608"><ele>114.66666666666667</ele><time>2026-03-21T21:35:27.001Z</time></trkpt><trkpt lat="41.037373363257075" lon="9.505577844175185"><ele>114.33333333333334</ele><time>2026-03-21T21:35:28.001Z</time></trkpt><trkpt lat="41.03734783811399" lon="9.50586549937961"><ele>114.0</ele><time>2026-03-21T21:35:29.001Z</time></trkpt><trkpt lat="41.03733152671933" lon="9.506158755297232"><ele>114.33333333333334</ele><time>2026-03-21T21:35:30.001Z</time></trkpt><trkpt lat="41.03734696276348" lon="9.50645009633234"><ele>114.66666666666667</ele><time>2026-03-21T21:35:31.001Z</time></trkpt><trkpt lat="41.03741446452348" lon="9.50671048164398"><ele>115.0</ele><time>2026-03-21T21:35:32.001Z</time></trkpt><trkpt lat="41.037511610036795" lon="9.506951773275"><ele>113.66666666666667</ele><time>2026-03-21T21:35:33.001Z</time></trkpt><trkpt lat="41.03762872335943" lon="9.507176656970111"><ele>112.33333333333334</ele><time>2026-03-21T21:35:34.001Z</time></trkpt><trkpt lat="41.03773674630071" lon="9.507409842129968"><ele>111.0</ele><time>2026-03-21T21:35:35.001Z</time></trkpt><trkpt lat="41.037837433853674" lon="9.50764913192308"><ele>111.0</ele><time>2026-03-21T21:35:36.001Z</time></trkpt><trkpt lat="41.03790508214197" lon="9.50790626139606"><ele>111.0</ele><time>2026-03-21T21:35:37.001Z</time></trkpt><trkpt lat="41.03794436223618" lon="9.508172129842169"><ele>111.0</ele><time>2026-03-21T21:35:38.001Z</time></trkpt><trkpt lat="41.03795031962497" lon="9.508432848523675"><ele>110.66666666666666</ele><time>2026-03-21T21:35:39.001Z</time></trkpt><trkpt lat="41.03792933908802" lon="9.508713576928612"><ele>110.33333333333333</ele><time>2026-03-21T21:35:40.001Z</time></trkpt><trkpt lat="41.03788511467676" lon="9.50897447236874"><ele>110.0</ele><time>2026-03-21T21:35:41.001Z</time></trkpt><trkpt lat="41.03780726652737" lon="9.509189312894632"><ele>108.66666666666666</ele><time>2026-03-21T21:35:42.001Z</time></trkpt><trkpt lat="41.037712489138954" lon="9.509397290470782"><ele>107.33333333333334</ele><time>2026-03-21T21:35:43.001Z</time></trkpt><trkpt lat="41.03763356385775" lon="9.509630488692515"><ele>106.0</ele><time>2026-03-21T21:35:44.001Z</time></trkpt><trkpt lat="41.03756776400672" lon="9.509867217959211"><ele>104.66666666666667</ele><time>2026-03-21T21:35:45.001Z</time></trkpt><trkpt lat="41.03754185007271" lon="9.510120496228572"><ele>103.33333333333334</ele><time>2026-03-21T21:35:46.001Z</time></trkpt><trkpt lat="41.037543271424965" lon="9.510367953588817"><ele>102.0</ele><time>2026-03-21T21:35:47.001Z</time></trkpt><trkpt lat="41.037569208484584" lon="9.510605590853034"><ele>101.66666666666666</ele><time>2026-03-21T21:35:48.001Z</time></trkpt><trkpt lat="41.03760152079223" lon="9.510849961279188"><ele>101.33333333333333</ele><time>2026-03-21T21:35:49.001Z</time></trkpt><trkpt lat="41.03763769726995" lon="9.511083122075554"><ele>101.0</ele><time>2026-03-21T21:35:50.001Z</time></trkpt><trkpt lat="41.03766721645661" lon="9.511335763464542"><ele>100.66666666666666</ele><time>2026-03-21T21:35:51.001Z</time></trkpt><trkpt lat="41.037673830160095" lon="9.511582661432003"><ele>100.33333333333334</ele><time>2026-03-21T21:35:52.001Z</time></trkpt><trkpt lat="41.03765484918832" lon="9.511828679526975"><ele>100.0</ele><time>2026-03-21T21:35:53.001Z</time></trkpt><trkpt lat="41.037606485151" lon="9.512065949118671"><ele>98.0</ele><time>2026-03-21T21:35:54.001Z</time></trkpt><trkpt lat="41.037564627533506" lon="9.5123038452967"><ele>96.0</ele><time>2026-03-21T21:35:55.001Z</time></trkpt><trkpt lat="41.03752292490935" lon="9.512535198341917"><ele>94.0</ele><time>2026-03-21T21:35:56.001Z</time></trkpt><trkpt lat="41.03748514062783" lon="9.51277568549613"><ele>95.33333333333333</ele><time>2026-03-21T21:35:57.001Z</time></trkpt><trkpt lat="41.03744182359834" lon="9.513023684542988"><ele>96.66666666666666</ele><time>2026-03-21T21:35:58.001Z</time></trkpt><trkpt lat="41.03740188047234" lon="9.513280279203132"><ele>98.0</ele><time>2026-03-21T21:35:59.001Z</time></trkpt><trkpt lat="41.03735513477478" lon="9.51351041730402"><ele>98.0</ele><time>2026-03-21T21:36:00.001Z</time></trkpt><trkpt lat="41.0372668377059" lon="9.5137372125788"><ele>98.0</ele><time>2026-03-21T21:36:01.001Z</time></trkpt><trkpt lat="41.037138758453914" lon="9.513935572863277"><ele>98.0</ele><time>2026-03-21T21:36:02.001Z</time></trkpt><trkpt lat="41.03698254262796" lon="9.514104881491813"><ele>94.33333333333333</ele><time>2026-03-21T21:36:03.001Z</time></trkpt><trkpt lat="41.036840932804004" lon="9.514285386460381"><ele>90.66666666666666</ele><time>2026-03-21T21:36:04.001Z</time></trkpt><trkpt lat="41.03671407280262" lon="9.514472758161318"><ele>87.0</ele><time>2026-03-21T21:36:05.001Z</time></trkpt><trkpt lat="41.03657925634804" lon="9.514658888006508"><ele>86.33333333333333</ele><time>2026-03-21T21:36:06.001Z</time></trkpt><trkpt lat="41.03643458021058" lon="9.514832997609448"><ele>85.66666666666666</ele><time>2026-03-21T21:36:07.001Z</time></trkpt><trkpt lat="41.03631061369384" lon="9.515041162172226"><ele>85.0</ele><time>2026-03-21T21:36:08.001Z</time></trkpt><trkpt lat="41.0362057939914" lon="9.515263751073809"><ele>82.66666666666666</ele><time>2026-03-21T21:36:09.001Z</time></trkpt><trkpt lat="41.03610208141392" lon="9.515499591512345"><ele>80.33333333333333</ele><time>2026-03-21T21:36:10.001Z</time></trkpt><trkpt lat="41.03599221083688" lon="9.51572641912397"><ele>78.0</ele><time>2026-03-21T21:36:11.001Z</time></trkpt><trkpt lat="41.0358636578206" lon="9.515925356533723"><ele>76.66666666666667</ele><time>2026-03-21T21:36:12.001Z</time></trkpt><trkpt lat="41.03572301757319" lon="9.516143935030223"><ele>75.33333333333334</ele><time>2026-03-21T21:36:13.001Z</time></trkpt><trkpt lat="41.035590744774844" lon="9.51635068306379"><ele>74.0</ele><time>2026-03-21T21:36:14.001Z</time></trkpt><trkpt lat="41.03544543248108" lon="9.516562820331282"><ele>74.0</ele><time>2026-03-21T21:36:15.001Z</time></trkpt><trkpt lat="41.035350912264995" lon="9.516812263238982"><ele>74.0</ele><time>2026-03-21T21:36:16.001Z</time></trkpt><trkpt lat="41.03525717802552" lon="9.517067988498658"><ele>74.0</ele><time>2026-03-21T21:36:17.001Z</time></trkpt><trkpt lat="41.03515552359365" lon="9.517313923898168"><ele>71.66666666666667</ele><time>2026-03-21T21:36:18.001Z</time></trkpt><trkpt lat="41.035011635641744" lon="9.517500641811479"><ele>69.33333333333333</ele><time>2026-03-21T21:36:19.001Z</time></trkpt><trkpt lat="41.034856379690666" lon="9.517667265662071"><ele>67.0</ele><time>2026-03-21T21:36:20.001Z</time></trkpt><trkpt lat="41.034698533232884" lon="9.517823518432687"><ele>62.33333333333333</ele><time>2026-03-21T21:36:21.001Z</time></trkpt><trkpt lat="41.03453987577574" lon="9.517973358351991"><ele>57.66666666666667</ele><time>2026-03-21T21:36:22.001Z</time></trkpt><trkpt lat="41.0343654209999" lon="9.518065673890986"><ele>53.0</ele><time>2026-03-21T21:36:23.001Z</time></trkpt><trkpt lat="41.034197053979184" lon="9.518149395881753"><ele>55.333333333333336</ele><time>2026-03-21T21:36:24.001Z</time></trkpt><trkpt lat="41.03404225822216" lon="9.518249684958834"><ele>57.66666666666667</ele><time>2026-03-21T21:36:25.001Z</time></trkpt><trkpt lat="41.03389976362255" lon="9.518371469160654"><ele>60.0</ele><time>2026-03-21T21:36:26.001Z</time></trkpt><trkpt lat="41.0337963188571" lon="9.518556045962548"><ele>60.0</ele><time>2026-03-21T21:36:27.002Z</time></trkpt><trkpt lat="41.0336993172686" lon="9.518694814341833"><ele>60.0</ele><time>2026-03-21T21:36:28.002Z</time></trkpt><trkpt lat="41.033614611580106" lon="9.518817703081249"><ele>60.0</ele><time>2026-03-21T21:36:29.002Z</time></trkpt><trkpt lat="41.03351715617707" lon="9.518922956927971"><ele>60.0</ele><time>2026-03-21T21:36:30.002Z</time></trkpt><trkpt lat="41.033396076556045" lon="9.518973523151136"><ele>55.0</ele><time>2026-03-21T21:36:31.002Z</time></trkpt><trkpt lat="41.033263520705226" lon="9.518932634667244"><ele>50.0</ele><time>2026-03-21T21:36:32.002Z</time></trkpt><trkpt lat="41.03313333288253" lon="9.518933497109103"><ele>45.0</ele><time>2026-03-21T21:36:33.002Z</time></trkpt><trkpt lat="41.032995977081775" lon="9.518912707966134"><ele>40.0</ele><time>2026-03-21T21:36:34.002Z</time></trkpt><trkpt lat="41.032856731977624" lon="9.518917436429232"><ele>40.0</ele><time>2026-03-21T21:36:35.002Z</time></trkpt><trkpt lat="41.032713536262584" lon="9.518963984706525"><ele>40.0</ele><time>2026-03-21T21:36:36.002Z</time></trkpt><trkpt lat="41.032577504634055" lon="9.519034949669397"><ele>40.0</ele><time>2026-03-21T21:36:37.002Z</time></trkpt><trkpt lat="41.032445884742806" lon="9.519108332161201"><ele>40.0</ele><time>2026-03-21T21:36:38Z</time></trkpt><trkpt lat="41.032303035508036" lon="9.519177369241916"><ele>39.75</ele><time>2026-03-21T21:36:39Z</time></trkpt><trkpt lat="41.032161198440235" lon="9.519206232079"><ele>39.5</ele><time>2026-03-21T21:36:40Z</time></trkpt><trkpt lat="41.03201709725648" lon="9.519219712592397"><ele>39.25</ele><time>2026-03-21T21:36:41Z</time></trkpt><trkpt lat="41.031859922449144" lon="9.519231065832614"><ele>39.0</ele><time>2026-03-21T21:36:42Z</time></trkpt><trkpt lat="41.0317053221962" lon="9.519248902663815"><ele>38.0</ele><time>2026-03-21T21:36:43Z</time></trkpt><trkpt lat="41.03154819022522" lon="9.519287400036408"><ele>37.0</ele><time>2026-03-21T21:36:44Z</time></trkpt><trkpt lat="41.031395406574745" lon="9.519367240337816"><ele>36.0</ele><time>2026-03-21T21:36:45Z</time></trkpt><trkpt lat="41.031221498490176" lon="9.519452198943712"><ele>36.0</ele><time>2026-03-21T21:36:46Z</time></trkpt><trkpt lat="41.031057088253505" lon="9.51954306300981"><ele>36.0</ele><time>2026-03-21T21:36:47Z</time></trkpt><trkpt lat="41.03088630105709" lon="9.5196139806768"><ele>36.0</ele><time>2026-03-21T21:36:48Z</time></trkpt><trkpt lat="41.030707170748386" lon="9.519673621187483"><ele>29.333333333333332</ele><time>2026-03-21T21:36:49Z</time></trkpt><trkpt lat="41.030519884437375" lon="9.519669450379807"><ele>22.666666666666664</ele><time>2026-03-21T21:36:50Z</time></trkpt><trkpt lat="41.03033994701621" lon="9.519651981801498"><ele>16.0</ele><time>2026-03-21T21:36:51Z</time></trkpt><trkpt lat="41.03017086175412" lon="9.51960420441039"><ele>17.666666666666664</ele><time>2026-03-21T21:36:52Z</time></trkpt><trkpt lat="41.03005376103017" lon="9.519494421697917"><ele>19.333333333333332</ele><time>2026-03-21T21:36:53Z</time></trkpt><trkpt lat="41.02997557498937" lon="9.51931898924817"><ele>21.0</ele><time>2026-03-21T21:36:54Z</time></trkpt><trkpt lat="41.02991506012761" lon="9.519123967591716"><ele>19.0</ele><time>2026-03-21T21:36:55Z</time></trkpt><trkpt lat="41.02984647901355" lon="9.518931886232672"><ele>17.0</ele><time>2026-03-21T21:36:56Z</time></trkpt><trkpt lat="41.02978404868856" lon="9.51873530730817"><ele>15.0</ele><time>2026-03-21T21:36:57Z</time></trkpt><trkpt lat="41.029692712802984" lon="9.518578085548299"><ele>15.0</ele><time>2026-03-21T21:36:58Z</time></trkpt><trkpt lat="41.029544843439254" lon="9.51842952903407"><ele>15.0</ele><time>2026-03-21T21:36:59Z</time></trkpt><trkpt lat="41.02940268992363" lon="9.51828985941737"><ele>15.0</ele><time>2026-03-21T21:37:00Z</time></trkpt><trkpt lat="41.02924546330202" lon="9.518162698027984"><ele>12.666666666666666</ele><time>2026-03-21T21:37:01Z</time></trkpt><trkpt lat="41.029070168971074" lon="9.518036741864451"><ele>10.333333333333332</ele><time>2026-03-21T21:37:02Z</time></trkpt><trkpt lat="41.02888769560647" lon="9.51797928479726"><ele>8.0</ele><time>2026-03-21T21:37:03Z</time></trkpt><trkpt lat="41.02869295585591" lon="9.517962147996789"><ele>8.0</ele><time>2026-03-21T21:37:04Z</time></trkpt><trkpt lat="41.02850214794632" lon="9.51797382343403"><ele>8.0</ele><time>2026-03-21T21:37:05Z</time></trkpt><trkpt lat="41.02829537643624" lon="9.518001977991807"><ele>8.0</ele><time>2026-03-21T21:37:06Z</time></trkpt><trkpt lat="41.02810105227243" lon="9.51801579401724"><ele>7.0</ele><time>2026-03-21T21:37:07Z</time></trkpt><trkpt lat="41.02790354773066" lon="9.518037702764548"><ele>6.0</ele><time>2026-03-21T21:37:08Z</time></trkpt><trkpt lat="41.02771015095169" lon="9.517984288886543"><ele>5.0</ele><time>2026-03-21T21:37:09Z</time></trkpt><trkpt lat="41.02753816268021" lon="9.517889711595547"><ele>6.666666666666667</ele><time>2026-03-21T21:37:10Z</time></trkpt><trkpt lat="41.02733047480952" lon="9.51784950316968"><ele>8.333333333333334</ele><time>2026-03-21T21:37:11Z</time></trkpt><trkpt lat="41.02713176981762" lon="9.517849656262452"><ele>10.0</ele><time>2026-03-21T21:37:12Z</time></trkpt><trkpt lat="41.026928873098086" lon="9.517886318337917"><ele>8.0</ele><time>2026-03-21T21:37:13Z</time></trkpt><trkpt lat="41.02673403251557" lon="9.51795719158344"><ele>6.0</ele><time>2026-03-21T21:37:14Z</time></trkpt><trkpt lat="41.02654121174407" lon="9.518038169132943"><ele>4.0</ele><time>2026-03-21T21:37:15Z</time></trkpt><trkpt lat="41.02634860013892" lon="9.518106356391478"><ele>3.333333333333333</ele><time>2026-03-21T21:37:16Z</time></trkpt><trkpt lat="41.02614364941871" lon="9.51809628479569"><ele>2.6666666666666665</ele><time>2026-03-21T21:37:17Z</time></trkpt><trkpt lat="41.02593039108442" lon="9.518055518836583"><ele>2.0</ele><time>2026-03-21T21:37:18Z</time></trkpt><trkpt lat="41.02574053806708" lon="9.517944760114075"><ele>2.333333333333333</ele><time>2026-03-21T21:37:19Z</time></trkpt><trkpt lat="41.02555973773522" lon="9.517829648258479"><ele>2.6666666666666665</ele><time>2026-03-21T21:37:20Z</time></trkpt><trkpt lat="41.02536068789547" lon="9.517722438398575"><ele>3.0</ele><time>2026-03-21T21:37:21Z</time></trkpt><trkpt lat="41.025170583838246" lon="9.517595808430979"><ele>2.0</ele><time>2026-03-21T21:37:22Z</time></trkpt><trkpt lat="41.024978458323275" lon="9.517450248673967"><ele>1.0</ele><time>2026-03-21T21:37:23Z</time></trkpt><trkpt lat="41.02478235402686" lon="9.517322555848063"><ele>0.0</ele><time>2026-03-21T21:37:24Z</time></trkpt><trkpt lat="41.024582361101096" lon="9.517193757348094"><ele>0.0</ele><time>2026-03-21T21:37:25Z</time></trkpt><trkpt lat="41.02438209998276" lon="9.517071121314416"><ele>0.0</ele><time>2026-03-21T21:37:26Z</time></trkpt><trkpt lat="41.02419246211161" lon="9.516959258925437"><ele>0.0</ele><time>2026-03-21T21:37:27Z</time></trkpt><trkpt lat="41.023987454997254" lon="9.516853228592115"><ele>2.0</ele><time>2026-03-21T21:37:28.001Z</time></trkpt><trkpt lat="41.0237803642929" lon="9.516762410668514"><ele>4.0</ele><time>2026-03-21T21:37:29.001Z</time></trkpt><trkpt lat="41.02357214462695" lon="9.516681997948284"><ele>6.0</ele><time>2026-03-21T21:37:30.001Z</time></trkpt><trkpt lat="41.02336356033249" lon="9.516598614925297"><ele>4.666666666666667</ele><time>2026-03-21T21:37:31.001Z</time></trkpt><trkpt lat="41.02316008781416" lon="9.516516646284474"><ele>3.333333333333333</ele><time>2026-03-21T21:37:32.001Z</time></trkpt><trkpt lat="41.022963215789275" lon="9.516421640345925"><ele>2.0</ele><time>2026-03-21T21:37:33.001Z</time></trkpt><trkpt lat="41.022763918753284" lon="9.516294119367457"><ele>2.0</ele><time>2026-03-21T21:37:34.001Z</time></trkpt><trkpt lat="41.022589103535985" lon="9.516154120803312"><ele>2.0</ele><time>2026-03-21T21:37:35.001Z</time></trkpt><trkpt lat="41.02241484111271" lon="9.515977960334805"><ele>2.0</ele><time>2026-03-21T21:37:36.001Z</time></trkpt><trkpt lat="41.02222974688293" lon="9.515819455609325"><ele>2.0</ele><time>2026-03-21T21:37:37.001Z</time></trkpt><trkpt lat="41.022041469665865" lon="9.51567942957397"><ele>2.0</ele><time>2026-03-21T21:37:38.001Z</time></trkpt><trkpt lat="41.02184898617272" lon="9.515505106173402"><ele>2.0</ele><time>2026-03-21T21:37:39.001Z</time></trkpt><trkpt lat="41.02165434393668" lon="9.515341447613597"><ele>3.0</ele><time>2026-03-21T21:37:40.001Z</time></trkpt><trkpt lat="41.02146577538463" lon="9.515170819321655"><ele>4.0</ele><time>2026-03-21T21:37:41.001Z</time></trkpt><trkpt lat="41.021267574154095" lon="9.514998725043727"><ele>4.0</ele><time>2026-03-21T21:37:42.001Z</time></trkpt><trkpt lat="41.02106570176659" lon="9.514829016768457"><ele>4.0</ele><time>2026-03-21T21:37:43.001Z</time></trkpt><trkpt lat="41.020865460476934" lon="9.514647922694511"><ele>4.5</ele><time>2026-03-21T21:37:44.001Z</time></trkpt><trkpt lat="41.02067656731395" lon="9.514465323187387"><ele>5.0</ele><time>2026-03-21T21:37:45.001Z</time></trkpt><trkpt lat="41.0204842876484" lon="9.514270754155154"><ele>5.0</ele><time>2026-03-21T21:37:46.001Z</time></trkpt><trkpt lat="41.020294106672075" lon="9.514063767496527"><ele>5.0</ele><time>2026-03-21T21:37:47.001Z</time></trkpt><trkpt lat="41.020106495995165" lon="9.513844803420943"><ele>4.0</ele><time>2026-03-21T21:37:48.001Z</time></trkpt><trkpt lat="41.0199224299533" lon="9.513645571610887"><ele>3.0</ele><time>2026-03-21T21:37:49.001Z</time></trkpt><trkpt lat="41.019742627002394" lon="9.513455599719839"><ele>3.0</ele><time>2026-03-21T21:37:50.001Z</time></trkpt><trkpt lat="41.019586149051776" lon="9.513245993421659"><ele>3.0</ele><time>2026-03-21T21:37:51.001Z</time></trkpt><trkpt lat="41.01945184852944" lon="9.513058024752388"><ele>3.0</ele><time>2026-03-21T21:37:52.001Z</time></trkpt><trkpt lat="41.01934893472478" lon="9.512794197696383"><ele>3.333333333333333</ele><time>2026-03-21T21:37:53.001Z</time></trkpt><trkpt lat="41.019237883547724" lon="9.512553019816796"><ele>3.6666666666666665</ele><time>2026-03-21T21:37:54.001Z</time></trkpt><trkpt lat="41.01914111672133" lon="9.512295212739222"><ele>4.0</ele><time>2026-03-21T21:37:55.001Z</time></trkpt><trkpt lat="41.019028820472606" lon="9.512040742888335"><ele>4.5</ele><time>2026-03-21T21:37:56.001Z</time></trkpt><trkpt lat="41.01888187639691" lon="9.51178537671953"><ele>5.0</ele><time>2026-03-21T21:37:57.001Z</time></trkpt><trkpt lat="41.018745318125646" lon="9.5115573317863"><ele>5.0</ele><time>2026-03-21T21:37:58.001Z</time></trkpt><trkpt lat="41.018611086428685" lon="9.511340692264222"><ele>5.0</ele><time>2026-03-21T21:37:59.001Z</time></trkpt><trkpt lat="41.01846516077435" lon="9.511117239552274"><ele>5.0</ele><time>2026-03-21T21:38:00.001Z</time></trkpt><trkpt lat="41.01831138774791" lon="9.510880917238719"><ele>4.666666666666667</ele><time>2026-03-21T21:38:01.001Z</time></trkpt><trkpt lat="41.01816205595779" lon="9.51065537840767"><ele>4.333333333333333</ele><time>2026-03-21T21:38:02.001Z</time></trkpt><trkpt lat="41.01801962155427" lon="9.510436946578169"><ele>4.0</ele><time>2026-03-21T21:38:03.001Z</time></trkpt><trkpt lat="41.017870618629516" lon="9.510206213469521"><ele>4.0</ele><time>2026-03-21T21:38:04.001Z</time></trkpt><trkpt lat="41.017730523723145" lon="9.509969959943543"><ele>4.0</ele><time>2026-03-21T21:38:05.001Z</time></trkpt><trkpt lat="41.01757766397263" lon="9.509746466929514"><ele>3.333333333333333</ele><time>2026-03-21T21:38:06.001Z</time></trkpt><trkpt lat="41.01743366043472" lon="9.509524712527785"><ele>2.6666666666666665</ele><time>2026-03-21T21:38:07.001Z</time></trkpt><trkpt lat="41.0172830574165" lon="9.509296636888514"><ele>2.0</ele><time>2026-03-21T21:38:08.001Z</time></trkpt><trkpt lat="41.01713930426909" lon="9.509079281292406"><ele>2.0</ele><time>2026-03-21T21:38:09.001Z</time></trkpt><trkpt lat="41.016994692274935" lon="9.508850389132945"><ele>2.0</ele><time>2026-03-21T21:38:10.001Z</time></trkpt><trkpt lat="41.01685135520768" lon="9.50863883550492"><ele>2.0</ele><time>2026-03-21T21:38:11.001Z</time></trkpt><trkpt lat="41.01668823722149" lon="9.508429261299145"><ele>1.6666666666666665</ele><time>2026-03-21T21:38:12.001Z</time></trkpt><trkpt lat="41.016523994493184" lon="9.508217879584024"><ele>1.3333333333333333</ele><time>2026-03-21T21:38:13.001Z</time></trkpt><trkpt lat="41.016362511296734" lon="9.508023556692228"><ele>1.0</ele><time>2026-03-21T21:38:14.001Z</time></trkpt><trkpt lat="41.01619993855729" lon="9.507825017942194"><ele>0.6666666666666666</ele><time>2026-03-21T21:38:15.001Z</time></trkpt><trkpt lat="41.01604336852359" lon="9.507645116268314"><ele>0.3333333333333333</ele><time>2026-03-21T21:38:16.001Z</time></trkpt><trkpt lat="41.01587577455592" lon="9.507483533504926"><ele>0.0</ele><time>2026-03-21T21:38:17.001Z</time></trkpt><trkpt lat="41.01571634250186" lon="9.507302604550127"><ele>0.0</ele><time>2026-03-21T21:38:18.001Z</time></trkpt><trkpt lat="41.01556144209502" lon="9.507120642270044"><ele>0.0</ele><time>2026-03-21T21:38:19.001Z</time></trkpt><trkpt lat="41.01541740016343" lon="9.506942699618019"><ele>0.0</ele><time>2026-03-21T21:38:20.001Z</time></trkpt><trkpt lat="41.015267481732735" lon="9.506785015305805"><ele>0.3333333333333333</ele><time>2026-03-21T21:38:21.001Z</time></trkpt><trkpt lat="41.01511387192757" lon="9.506607539785566"><ele>0.6666666666666666</ele><time>2026-03-21T21:38:22.001Z</time></trkpt><trkpt lat="41.014963573208014" lon="9.5064396550867"><ele>1.0</ele><time>2026-03-21T21:38:23.001Z</time></trkpt><trkpt lat="41.01483125812417" lon="9.506281632663155"><ele>2.0</ele><time>2026-03-21T21:38:24.001Z</time></trkpt><trkpt lat="41.014698187232426" lon="9.506142162049471"><ele>3.0</ele><time>2026-03-21T21:38:25.001Z</time></trkpt><trkpt lat="41.014552218987454" lon="9.505999292991836"><ele>4.0</ele><time>2026-03-21T21:38:26.001Z</time></trkpt><trkpt lat="41.01442352392728" lon="9.505838909211795"><ele>4.0</ele><time>2026-03-21T21:38:27.001Z</time></trkpt><trkpt lat="41.01427938899022" lon="9.50568296839327"><ele>4.0</ele><time>2026-03-21T21:38:28.001Z</time></trkpt><trkpt lat="41.01413425760366" lon="9.505509930282594"><ele>4.0</ele><time>2026-03-21T21:38:29.001Z</time></trkpt><trkpt lat="41.01401610028818" lon="9.505360595201493"><ele>4.333333333333333</ele><time>2026-03-21T21:38:30.001Z</time></trkpt><trkpt lat="41.013869240093946" lon="9.50519686157648"><ele>4.666666666666667</ele><time>2026-03-21T21:38:31.001Z</time></trkpt><trkpt lat="41.013719173196584" lon="9.505044013806158"><ele>5.0</ele><time>2026-03-21T21:38:32.001Z</time></trkpt><trkpt lat="41.01356642756857" lon="9.504900753108734"><ele>5.0</ele><time>2026-03-21T21:38:33.002Z</time></trkpt><trkpt lat="41.01340678429141" lon="9.50476223007375"><ele>5.0</ele><time>2026-03-21T21:38:34.002Z</time></trkpt><trkpt lat="41.01324538867229" lon="9.504621465527393"><ele>5.0</ele><time>2026-03-21T21:38:35.002Z</time></trkpt><trkpt lat="41.01309063356151" lon="9.50448526812964"><ele>4.666666666666667</ele><time>2026-03-21T21:38:36.002Z</time></trkpt><trkpt lat="41.01291594470063" lon="9.504340780803409"><ele>4.333333333333333</ele><time>2026-03-21T21:38:37.002Z</time></trkpt><trkpt lat="41.012753741493334" lon="9.504201292832265"><ele>4.0</ele><time>2026-03-21T21:38:38.002Z</time></trkpt><trkpt lat="41.01259624291547" lon="9.504034629346092"><ele>3.333333333333333</ele><time>2026-03-21T21:38:39.002Z</time></trkpt><trkpt lat="41.01244397278168" lon="9.503864995490707"><ele>2.6666666666666665</ele><time>2026-03-21T21:38:40.002Z</time></trkpt><trkpt lat="41.01229100108962" lon="9.50370085723466"><ele>2.0</ele><time>2026-03-21T21:38:41.002Z</time></trkpt><trkpt lat="41.01213829300518" lon="9.503535497963984"><ele>2.0</ele><time>2026-03-21T21:38:42.002Z</time></trkpt><trkpt lat="41.01199342091426" lon="9.50335654086309"><ele>2.0</ele><time>2026-03-21T21:38:43.002Z</time></trkpt><trkpt lat="41.011848347525756" lon="9.503194676830875"><ele>2.0</ele><time>2026-03-21T21:38:44Z</time></trkpt><trkpt lat="41.01169703012095" lon="9.503025857677033"><ele>1.3333333333333333</ele><time>2026-03-21T21:38:45Z</time></trkpt><trkpt lat="41.01155035323911" lon="9.502862179859932"><ele>0.6666666666666666</ele><time>2026-03-21T21:38:46Z</time></trkpt><trkpt lat="41.01142493941266" lon="9.502683177042162"><ele>0.0</ele><time>2026-03-21T21:38:47Z</time></trkpt><trkpt lat="41.01131153123795" lon="9.502493822031688"><ele>0.0</ele><time>2026-03-21T21:38:48Z</time></trkpt><trkpt lat="41.011231799359805" lon="9.502288385360696"><ele>0.0</ele><time>2026-03-21T21:38:49Z</time></trkpt><trkpt lat="41.011152390071885" lon="9.502076267056719"><ele>0.0</ele><time>2026-03-21T21:38:50Z</time></trkpt><trkpt lat="41.01108301377585" lon="9.501857978401993"><ele>0.3333333333333333</ele><time>2026-03-21T21:38:51Z</time></trkpt><trkpt lat="41.01100212478808" lon="9.501624840908269"><ele>0.6666666666666666</ele><time>2026-03-21T21:38:52Z</time></trkpt><trkpt lat="41.010891463846335" lon="9.501419335505762"><ele>1.0</ele><time>2026-03-21T21:38:53Z</time></trkpt><trkpt lat="41.010739101763384" lon="9.501223858753578"><ele>1.6666666666666665</ele><time>2026-03-21T21:38:54Z</time></trkpt><trkpt lat="41.01057746857231" lon="9.50114885202656"><ele>2.3333333333333335</ele><time>2026-03-21T21:38:55Z</time></trkpt><trkpt lat="41.010402806365285" lon="9.501137669412246"><ele>3.0</ele><time>2026-03-21T21:38:56Z</time></trkpt><trkpt lat="41.01021757672599" lon="9.501187530045698"><ele>2.3333333333333335</ele><time>2026-03-21T21:38:57Z</time></trkpt><trkpt lat="41.01004214127763" lon="9.501295830744997"><ele>1.6666666666666665</ele><time>2026-03-21T21:38:58Z</time></trkpt><trkpt lat="41.00990148703973" lon="9.501435036013426"><ele>1.0</ele><time>2026-03-21T21:38:59Z</time></trkpt><trkpt lat="41.00973745514086" lon="9.501588880607812"><ele>2.3333333333333335</ele><time>2026-03-21T21:39:00Z</time></trkpt><trkpt lat="41.009583597467945" lon="9.501735835113612"><ele>3.666666666666667</ele><time>2026-03-21T21:39:01Z</time></trkpt><trkpt lat="41.009432763561016" lon="9.501864789069398"><ele>5.0</ele><time>2026-03-21T21:39:02Z</time></trkpt><trkpt lat="41.00927978565984" lon="9.502024127666315"><ele>4.333333333333334</ele><time>2026-03-21T21:39:03Z</time></trkpt><trkpt lat="41.009131114728156" lon="9.502154122584733"><ele>3.666666666666667</ele><time>2026-03-21T21:39:04Z</time></trkpt><trkpt lat="41.008971689302946" lon="9.502282666385305"><ele>3.0</ele><time>2026-03-21T21:39:05Z</time></trkpt><trkpt lat="41.00881858835932" lon="9.502424572479528"><ele>3.0</ele><time>2026-03-21T21:39:06Z</time></trkpt><trkpt lat="41.008657737944354" lon="9.502569604113706"><ele>3.0</ele><time>2026-03-21T21:39:07Z</time></trkpt><trkpt lat="41.008499513053714" lon="9.502729714205268"><ele>3.0</ele><time>2026-03-21T21:39:08Z</time></trkpt><trkpt lat="41.00833484339219" lon="9.50288474370993"><ele>2.6666666666666665</ele><time>2026-03-21T21:39:09Z</time></trkpt><trkpt lat="41.00816595257104" lon="9.503044687898244"><ele>2.333333333333333</ele><time>2026-03-21T21:39:10Z</time></trkpt><trkpt lat="41.008001036483336" lon="9.50320228786608"><ele>2.0</ele><time>2026-03-21T21:39:11Z</time></trkpt><trkpt lat="41.00783122189195" lon="9.503357644753699"><ele>2.0</ele><time>2026-03-21T21:39:12Z</time></trkpt><trkpt lat="41.007652176374826" lon="9.503477217391099"><ele>2.0</ele><time>2026-03-21T21:39:13Z</time></trkpt><trkpt lat="41.007476365208696" lon="9.503584892204492"><ele>2.0</ele><time>2026-03-21T21:39:14Z</time></trkpt><trkpt lat="41.00727741701516" lon="9.503682610642954"><ele>2.0</ele><time>2026-03-21T21:39:15Z</time></trkpt><trkpt lat="41.00707979386079" lon="9.503781294413802"><ele>2.0</ele><time>2026-03-21T21:39:16Z</time></trkpt><trkpt lat="41.0068716624604" lon="9.503879850779835"><ele>2.0</ele><time>2026-03-21T21:39:17Z</time></trkpt><trkpt lat="41.00666803452099" lon="9.50396087590334"><ele>2.333333333333333</ele><time>2026-03-21T21:39:18Z</time></trkpt><trkpt lat="41.00645938947625" lon="9.504043484462478"><ele>2.6666666666666665</ele><time>2026-03-21T21:39:19Z</time></trkpt><trkpt lat="41.00625611643758" lon="9.504126297040141"><ele>3.0</ele><time>2026-03-21T21:39:20Z</time></trkpt><trkpt lat="41.00604420136872" lon="9.504219091870826"><ele>3.0</ele><time>2026-03-21T21:39:21Z</time></trkpt><trkpt lat="41.005835258860955" lon="9.50431585200579"><ele>3.0</ele><time>2026-03-21T21:39:22Z</time></trkpt><trkpt lat="41.005628386044194" lon="9.504403794026306"><ele>3.0</ele><time>2026-03-21T21:39:23Z</time></trkpt><trkpt lat="41.00541365695361" lon="9.504485745488646"><ele>3.0</ele><time>2026-03-21T21:39:24Z</time></trkpt><trkpt lat="41.00519285807211" lon="9.504564307450238"><ele>3.0</ele><time>2026-03-21T21:39:25Z</time></trkpt><trkpt lat="41.0049655504525" lon="9.504588108231406"><ele>3.666666666666667</ele><time>2026-03-21T21:39:26Z</time></trkpt><trkpt lat="41.004733834272535" lon="9.50461305515142"><ele>4.333333333333334</ele><time>2026-03-21T21:39:27Z</time></trkpt><trkpt lat="41.00451717908942" lon="9.504623809414634"><ele>5.0</ele><time>2026-03-21T21:39:28Z</time></trkpt><trkpt lat="41.00430575941735" lon="9.504600938954175"><ele>5.0</ele><time>2026-03-21T21:39:29Z</time></trkpt><trkpt lat="41.00408278702947" lon="9.504613022530144"><ele>5.0</ele><time>2026-03-21T21:39:30Z</time></trkpt><trkpt lat="41.00384621399148" lon="9.504620164477096"><ele>5.0</ele><time>2026-03-21T21:39:31Z</time></trkpt><trkpt lat="41.00362898019382" lon="9.504607062470766"><ele>5.0</ele><time>2026-03-21T21:39:32.001Z</time></trkpt><trkpt lat="41.00340179695358" lon="9.50460309129665"><ele>5.0</ele><time>2026-03-21T21:39:33.001Z</time></trkpt><trkpt lat="41.00319422455612" lon="9.504591708812265"><ele>4.5</ele><time>2026-03-21T21:39:34.001Z</time></trkpt><trkpt lat="41.002966040717205" lon="9.5046055962586"><ele>4.0</ele><time>2026-03-21T21:39:35.001Z</time></trkpt><trkpt lat="41.002737316088044" lon="9.504631677252558"><ele>4.0</ele><time>2026-03-21T21:39:36.001Z</time></trkpt><trkpt lat="41.00250923237742" lon="9.504662120113082"><ele>4.0</ele><time>2026-03-21T21:39:37.001Z</time></trkpt><trkpt lat="41.00227693010598" lon="9.504693944165465"><ele>4.0</ele><time>2026-03-21T21:39:38.001Z</time></trkpt><trkpt lat="41.002052618232874" lon="9.504719832685412"><ele>4.0</ele><time>2026-03-21T21:39:39.001Z</time></trkpt><trkpt lat="41.00183462618441" lon="9.504746620504523"><ele>4.0</ele><time>2026-03-21T21:39:40.001Z</time></trkpt><trkpt lat="41.00161183652483" lon="9.504782757586183"><ele>4.0</ele><time>2026-03-21T21:39:41.001Z</time></trkpt><trkpt lat="41.00139070191179" lon="9.504821282256609"><ele>4.0</ele><time>2026-03-21T21:39:42.001Z</time></trkpt><trkpt lat="41.0011526018136" lon="9.504859686319014"><ele>4.0</ele><time>2026-03-21T21:39:43.001Z</time></trkpt><trkpt lat="41.000934012911564" lon="9.504891372757575"><ele>4.0</ele><time>2026-03-21T21:39:44.001Z</time></trkpt><trkpt lat="41.00071577411518" lon="9.504937473505134"><ele>4.0</ele><time>2026-03-21T21:39:45.001Z</time></trkpt><trkpt lat="41.00049798380353" lon="9.50497434180663"><ele>3.6666666666666665</ele><time>2026-03-21T21:39:46.001Z</time></trkpt><trkpt lat="41.00027273195988" lon="9.505010698431967"><ele>3.333333333333333</ele><time>2026-03-21T21:39:47.001Z</time></trkpt><trkpt lat="41.000058031510946" lon="9.50504609244831"><ele>3.0</ele><time>2026-03-21T21:39:48.001Z</time></trkpt><trkpt lat="40.99984194234382" lon="9.505079822340997"><ele>3.0</ele><time>2026-03-21T21:39:49.001Z</time></trkpt><trkpt lat="40.999625761720836" lon="9.50511651545144"><ele>3.0</ele><time>2026-03-21T21:39:50.001Z</time></trkpt><trkpt lat="40.999407556876996" lon="9.505152740095346"><ele>3.0</ele><time>2026-03-21T21:39:51.001Z</time></trkpt><trkpt lat="40.99920944435704" lon="9.505186945041299"><ele>4.666666666666666</ele><time>2026-03-21T21:39:52.001Z</time></trkpt><trkpt lat="40.99899708084626" lon="9.505226381560812"><ele>6.333333333333333</ele><time>2026-03-21T21:39:53.001Z</time></trkpt><trkpt lat="40.998799420485206" lon="9.505242340096917"><ele>8.0</ele><time>2026-03-21T21:39:54.001Z</time></trkpt><trkpt lat="40.99859372967364" lon="9.505208795392"><ele>8.0</ele><time>2026-03-21T21:39:55.001Z</time></trkpt><trkpt lat="40.99839728612238" lon="9.505131794031868"><ele>8.0</ele><time>2026-03-21T21:39:56.001Z</time></trkpt><trkpt lat="40.99821573371676" lon="9.505004807847873"><ele>8.0</ele><time>2026-03-21T21:39:57.001Z</time></trkpt><trkpt lat="40.99802745298022" lon="9.504850302722636"><ele>8.0</ele><time>2026-03-21T21:39:58.001Z</time></trkpt><trkpt lat="40.99787668597018" lon="9.50472889413316"><ele>8.0</ele><time>2026-03-21T21:39:59.001Z</time></trkpt><trkpt lat="40.99771320870362" lon="9.50458556539785"><ele>8.0</ele><time>2026-03-21T21:40:00.001Z</time></trkpt><trkpt lat="40.99752788225649" lon="9.504453366964311"><ele>8.0</ele><time>2026-03-21T21:40:01.001Z</time></trkpt><trkpt lat="40.99732652646382" lon="9.504302269638233"><ele>8.0</ele><time>2026-03-21T21:40:02.001Z</time></trkpt><trkpt lat="40.99713092804749" lon="9.504152513255928"><ele>8.0</ele><time>2026-03-21T21:40:03.001Z</time></trkpt><trkpt lat="40.99693245834916" lon="9.50402736314584"><ele>8.0</ele><time>2026-03-21T21:40:04.001Z</time></trkpt><trkpt lat="40.99672584277308" lon="9.503902984156605"><ele>8.0</ele><time>2026-03-21T21:40:05.001Z</time></trkpt><trkpt lat="40.996518728824455" lon="9.50375213747362"><ele>8.5</ele><time>2026-03-21T21:40:06.001Z</time></trkpt><trkpt lat="40.99629885141717" lon="9.503614425080537"><ele>9.0</ele><time>2026-03-21T21:40:07.001Z</time></trkpt><trkpt lat="40.99608559385587" lon="9.503481050631882"><ele>9.0</ele><time>2026-03-21T21:40:08.001Z</time></trkpt><trkpt lat="40.99588048413353" lon="9.50335277196405"><ele>9.0</ele><time>2026-03-21T21:40:09.001Z</time></trkpt><trkpt lat="40.99567737156153" lon="9.503226767333441"><ele>10.0</ele><time>2026-03-21T21:40:10.001Z</time></trkpt><trkpt lat="40.995472034004656" lon="9.503099376792308"><ele>11.0</ele><time>2026-03-21T21:40:11.001Z</time></trkpt><trkpt lat="40.995262257183235" lon="9.502991496231449"><ele>11.333333333333332</ele><time>2026-03-21T21:40:12.001Z</time></trkpt><trkpt lat="40.995065898937796" lon="9.502845720534866"><ele>11.666666666666666</ele><time>2026-03-21T21:40:13.001Z</time></trkpt><trkpt lat="40.99487238991246" lon="9.502721271936776"><ele>12.0</ele><time>2026-03-21T21:40:14.001Z</time></trkpt><trkpt lat="40.994675127437326" lon="9.50259750790362"><ele>12.0</ele><time>2026-03-21T21:40:15.001Z</time></trkpt><trkpt lat="40.994507100206846" lon="9.502424865610193"><ele>12.0</ele><time>2026-03-21T21:40:16.001Z</time></trkpt><trkpt lat="40.9943593120177" lon="9.502223293396158"><ele>12.0</ele><time>2026-03-21T21:40:17.001Z</time></trkpt><trkpt lat="40.99420035011826" lon="9.502051836943675"><ele>12.0</ele><time>2026-03-21T21:40:18.001Z</time></trkpt><trkpt lat="40.99405483256774" lon="9.501869990054306"><ele>12.0</ele><time>2026-03-21T21:40:19.001Z</time></trkpt><trkpt lat="40.99392128897726" lon="9.501671717314558"><ele>12.0</ele><time>2026-03-21T21:40:20.001Z</time></trkpt><trkpt lat="40.993798423147304" lon="9.50147219614536"><ele>12.0</ele><time>2026-03-21T21:40:21.001Z</time></trkpt><trkpt lat="40.99366678818484" lon="9.501255179817552"><ele>12.0</ele><time>2026-03-21T21:40:22.001Z</time></trkpt><trkpt lat="40.993557418872044" lon="9.501057508981228"><ele>12.0</ele><time>2026-03-21T21:40:23.001Z</time></trkpt><trkpt lat="40.99346429432182" lon="9.500861312419309"><ele>12.666666666666668</ele><time>2026-03-21T21:40:24.001Z</time></trkpt><trkpt lat="40.993346639147404" lon="9.500666654535932"><ele>13.333333333333334</ele><time>2026-03-21T21:40:25.001Z</time></trkpt><trkpt lat="40.99321934921495" lon="9.50051330813337"><ele>14.0</ele><time>2026-03-21T21:40:26.001Z</time></trkpt><trkpt lat="40.993067524396885" lon="9.50039047817423"><ele>14.333333333333334</ele><time>2026-03-21T21:40:27.001Z</time></trkpt><trkpt lat="40.99291514366851" lon="9.500318036185575"><ele>14.666666666666668</ele><time>2026-03-21T21:40:28.001Z</time></trkpt><trkpt lat="40.99274757745228" lon="9.500277013495419"><ele>15.0</ele><time>2026-03-21T21:40:29.001Z</time></trkpt><trkpt lat="40.99258104876897" lon="9.50026174085372"><ele>15.333333333333332</ele><time>2026-03-21T21:40:30.001Z</time></trkpt><trkpt lat="40.99242132331514" lon="9.50028306986621"><ele>15.666666666666666</ele><time>2026-03-21T21:40:31.001Z</time></trkpt><trkpt lat="40.99225221305678" lon="9.500305862495535"><ele>16.0</ele><time>2026-03-21T21:40:32.001Z</time></trkpt><trkpt lat="40.99209716917744" lon="9.500327807053836"><ele>16.0</ele><time>2026-03-21T21:40:33.001Z</time></trkpt><trkpt lat="40.99195296458971" lon="9.500346489021213"><ele>16.0</ele><time>2026-03-21T21:40:34.001Z</time></trkpt><trkpt lat="40.991819360698145" lon="9.500360635777053"><ele>16.0</ele><time>2026-03-21T21:40:35.002Z</time></trkpt><trkpt lat="40.991684857835445" lon="9.500386260268353"><ele>16.0</ele><time>2026-03-21T21:40:36.002Z</time></trkpt><trkpt lat="40.991587687707785" lon="9.500386808132504"><ele>16.0</ele><time>2026-03-21T21:40:37.002Z</time></trkpt><trkpt lat="40.99144933434771" lon="9.500358264578269"><ele>16.0</ele><time>2026-03-21T21:40:38.002Z</time></trkpt><trkpt lat="40.9913296737743" lon="9.500378482055083"><ele>16.0</ele><time>2026-03-21T21:40:39.002Z</time></trkpt><trkpt lat="40.991239095972574" lon="9.500362030439934"><ele>16.0</ele><time>2026-03-21T21:40:40.002Z</time></trkpt><trkpt lat="40.99116772035851" lon="9.500616128376274"><ele>15.25</ele><time>2026-03-21T21:40:41.002Z</time></trkpt><trkpt lat="40.99114889716005" lon="9.500780569745885"><ele>14.5</ele><time>2026-03-21T21:40:42.002Z</time></trkpt><trkpt lat="40.99114934652405" lon="9.50092719391622"><ele>13.75</ele><time>2026-03-21T21:40:43.002Z</time></trkpt><trkpt lat="40.99116723990727" lon="9.501119440673365"><ele>13.0</ele><time>2026-03-21T21:40:44.002Z</time></trkpt><trkpt lat="40.99116866872667" lon="9.501299739523636"><ele>13.0</ele><time>2026-03-21T21:40:45.002Z</time></trkpt><trkpt lat="40.99113419973651" lon="9.50147888824369"><ele>13.0</ele><time>2026-03-21T21:40:46.002Z</time></trkpt><trkpt lat="40.99113061035263" lon="9.501674093721629"><ele>13.0</ele><time>2026-03-21T21:40:47.002Z</time></trkpt><trkpt lat="40.991120028925465" lon="9.501879849725062"><ele>13.0</ele><time>2026-03-21T21:40:48.002Z</time></trkpt><trkpt lat="40.99111960440634" lon="9.50207405646687"><ele>13.666666666666666</ele><time>2026-03-21T21:40:49.002Z</time></trkpt><trkpt lat="40.99110829981269" lon="9.502284283769054"><ele>14.333333333333332</ele><time>2026-03-21T21:40:50Z</time></trkpt><trkpt lat="40.991111605359265" lon="9.502497465801605"><ele>15.0</ele><time>2026-03-21T21:40:51Z</time></trkpt><trkpt lat="40.99111022196183" lon="9.50271976566782"><ele>15.666666666666668</ele><time>2026-03-21T21:40:52Z</time></trkpt><trkpt lat="40.99111525114329" lon="9.502939366492917"><ele>16.333333333333336</ele><time>2026-03-21T21:40:53Z</time></trkpt><trkpt lat="40.99112463897386" lon="9.503171541038917"><ele>17.0</ele><time>2026-03-21T21:40:54Z</time></trkpt><trkpt lat="40.99112553820359" lon="9.50339855933703"><ele>17.0</ele><time>2026-03-21T21:40:55Z</time></trkpt><trkpt lat="40.99112127409607" lon="9.503610913907655"><ele>17.0</ele><time>2026-03-21T21:40:56Z</time></trkpt><trkpt lat="40.99112398472327" lon="9.503836067909498"><ele>17.0</ele><time>2026-03-21T21:40:57Z</time></trkpt><trkpt lat="40.991124096485" lon="9.504058554342373"><ele>18.333333333333336</ele><time>2026-03-21T21:40:58Z</time></trkpt><trkpt lat="40.99112107557313" lon="9.504284166413724"><ele>19.666666666666668</ele><time>2026-03-21T21:40:59Z</time></trkpt><trkpt lat="40.99112150214756" lon="9.504510441947117"><ele>21.0</ele><time>2026-03-21T21:41:00Z</time></trkpt><trkpt lat="40.99111394978993" lon="9.504739912829043"><ele>22.333333333333336</ele><time>2026-03-21T21:41:01Z</time></trkpt><trkpt lat="40.991106062677844" lon="9.504959122759171"><ele>23.666666666666668</ele><time>2026-03-21T21:41:02Z</time></trkpt><trkpt lat="40.9910991616316" lon="9.505184225622928"><ele>25.0</ele><time>2026-03-21T21:41:03Z</time></trkpt><trkpt lat="40.991095316845886" lon="9.505413774956336"><ele>25.666666666666668</ele><time>2026-03-21T21:41:04Z</time></trkpt><trkpt lat="40.99109787212408" lon="9.505634900096561"><ele>26.333333333333336</ele><time>2026-03-21T21:41:05Z</time></trkpt><trkpt lat="40.99108975747284" lon="9.505857327834105"><ele>27.0</ele><time>2026-03-21T21:41:06Z</time></trkpt><trkpt lat="40.99108345617994" lon="9.506080192739422"><ele>27.333333333333336</ele><time>2026-03-21T21:41:07Z</time></trkpt><trkpt lat="40.991091506835566" lon="9.506299858024496"><ele>27.666666666666668</ele><time>2026-03-21T21:41:08Z</time></trkpt><trkpt lat="40.99109711727293" lon="9.506519789270621"><ele>28.0</ele><time>2026-03-21T21:41:09Z</time></trkpt><trkpt lat="40.991119294636235" lon="9.506731459824662"><ele>28.0</ele><time>2026-03-21T21:41:10Z</time></trkpt><trkpt lat="40.99115193273457" lon="9.50693259893102"><ele>28.0</ele><time>2026-03-21T21:41:11Z</time></trkpt><trkpt lat="40.99119449754268" lon="9.507146547654452"><ele>28.0</ele><time>2026-03-21T21:41:12Z</time></trkpt><trkpt lat="40.99124979646597" lon="9.507364855272426"><ele>29.0</ele><time>2026-03-21T21:41:13Z</time></trkpt><trkpt lat="40.99132360660385" lon="9.507570462366886"><ele>30.0</ele><time>2026-03-21T21:41:14Z</time></trkpt><trkpt lat="40.9913990494318" lon="9.507770034768436"><ele>31.0</ele><time>2026-03-21T21:41:15Z</time></trkpt><trkpt lat="40.991487235026355" lon="9.507963467424725"><ele>31.666666666666668</ele><time>2026-03-21T21:41:16Z</time></trkpt><trkpt lat="40.991589337146706" lon="9.508161251145637"><ele>32.333333333333336</ele><time>2026-03-21T21:41:17Z</time></trkpt><trkpt lat="40.991694518317985" lon="9.508338687347134"><ele>33.0</ele><time>2026-03-21T21:41:18Z</time></trkpt><trkpt lat="40.99181742543277" lon="9.508523704836417"><ele>33.0</ele><time>2026-03-21T21:41:19Z</time></trkpt><trkpt lat="40.991938838363104" lon="9.508699661628443"><ele>33.0</ele><time>2026-03-21T21:41:20Z</time></trkpt><trkpt lat="40.992067661611365" lon="9.508874285618232"><ele>33.0</ele><time>2026-03-21T21:41:21Z</time></trkpt><trkpt lat="40.99218808934322" lon="9.50904112118529"><ele>35.333333333333336</ele><time>2026-03-21T21:41:22Z</time></trkpt><trkpt lat="40.99230205969461" lon="9.509207155164418"><ele>37.66666666666667</ele><time>2026-03-21T21:41:23Z</time></trkpt><trkpt lat="40.99242743163485" lon="9.50937855858348"><ele>40.0</ele><time>2026-03-21T21:41:24Z</time></trkpt><trkpt lat="40.99254978229657" lon="9.509550348064224"><ele>43.0</ele><time>2026-03-21T21:41:25Z</time></trkpt><trkpt lat="40.9926741393123" lon="9.50972649527699"><ele>46.0</ele><time>2026-03-21T21:41:26Z</time></trkpt><trkpt lat="40.99279928088626" lon="9.5099011806783"><ele>49.0</ele><time>2026-03-21T21:41:27Z</time></trkpt><trkpt lat="40.99293176334528" lon="9.51007420043492"><ele>49.0</ele><time>2026-03-21T21:41:28Z</time></trkpt><trkpt lat="40.993058778781425" lon="9.510249673084445"><ele>49.0</ele><time>2026-03-21T21:41:29Z</time></trkpt><trkpt lat="40.99319181601259" lon="9.510428823678582"><ele>49.0</ele><time>2026-03-21T21:41:30Z</time></trkpt><trkpt lat="40.99331705158434" lon="9.510616143166633"><ele>50.0</ele><time>2026-03-21T21:41:31Z</time></trkpt><trkpt lat="40.99343579665451" lon="9.51080684537196"><ele>51.0</ele><time>2026-03-21T21:41:32Z</time></trkpt><trkpt lat="40.993540411362595" lon="9.511002617123125"><ele>52.0</ele><time>2026-03-21T21:41:33Z</time></trkpt><trkpt lat="40.99363700579997" lon="9.51121352032738"><ele>53.33333333333333</ele><time>2026-03-21T21:41:34Z</time></trkpt><trkpt lat="40.99370659761795" lon="9.51144615623355"><ele>54.66666666666667</ele><time>2026-03-21T21:41:35Z</time></trkpt><trkpt lat="40.99379756259329" lon="9.511661186313516"><ele>56.0</ele><time>2026-03-21T21:41:36Z</time></trkpt><trkpt lat="40.99387568724196" lon="9.511887835578525"><ele>57.0</ele><time>2026-03-21T21:41:37Z</time></trkpt><trkpt lat="40.99394573875785" lon="9.512111431903186"><ele>58.0</ele><time>2026-03-21T21:41:38Z</time></trkpt><trkpt lat="40.99402330426415" lon="9.51233773931905"><ele>59.0</ele><time>2026-03-21T21:41:39Z</time></trkpt><trkpt lat="40.99409428687925" lon="9.512596051929275"><ele>59.0</ele><time>2026-03-21T21:41:40.001Z</time></trkpt><trkpt lat="40.994170803385025" lon="9.512822374048943"><ele>59.0</ele><time>2026-03-21T21:41:41.001Z</time></trkpt><trkpt lat="40.994247426438434" lon="9.51304946110092"><ele>59.0</ele><time>2026-03-21T21:41:42.001Z</time></trkpt><trkpt lat="40.994338290755444" lon="9.51327484720862"><ele>62.66666666666667</ele><time>2026-03-21T21:41:43.001Z</time></trkpt><trkpt lat="40.99440743892821" lon="9.513509266789855"><ele>66.33333333333333</ele><time>2026-03-21T21:41:44.001Z</time></trkpt><trkpt lat="40.99448346460784" lon="9.513742751044006"><ele>70.0</ele><time>2026-03-21T21:41:45.001Z</time></trkpt><trkpt lat="40.994560268119194" lon="9.513978298300575"><ele>70.0</ele><time>2026-03-21T21:41:46.001Z</time></trkpt><trkpt lat="40.99464011442505" lon="9.514210882155677"><ele>70.0</ele><time>2026-03-21T21:41:47.001Z</time></trkpt><trkpt lat="40.99471409305186" lon="9.514446275228517"><ele>70.0</ele><time>2026-03-21T21:41:48.001Z</time></trkpt><trkpt lat="40.99478974072811" lon="9.514681283971926"><ele>70.66666666666666</ele><time>2026-03-21T21:41:49.001Z</time></trkpt><trkpt lat="40.99486826632071" lon="9.514913629607983"><ele>71.33333333333333</ele><time>2026-03-21T21:41:50.001Z</time></trkpt><trkpt lat="40.994944447499016" lon="9.5151460299081"><ele>72.0</ele><time>2026-03-21T21:41:51.001Z</time></trkpt><trkpt lat="40.995021834620374" lon="9.515377477797285"><ele>72.0</ele><time>2026-03-21T21:41:52.001Z</time></trkpt><trkpt lat="40.99510647122393" lon="9.515617033488205"><ele>72.0</ele><time>2026-03-21T21:41:53.001Z</time></trkpt><trkpt lat="40.995188358394124" lon="9.515852708848255"><ele>72.0</ele><time>2026-03-21T21:41:54.001Z</time></trkpt><trkpt lat="40.99527016106118" lon="9.516086122531442"><ele>73.0</ele><time>2026-03-21T21:41:55.001Z</time></trkpt><trkpt lat="40.995347436365584" lon="9.516322231990642"><ele>74.0</ele><time>2026-03-21T21:41:56.001Z</time></trkpt><trkpt lat="40.99542047023802" lon="9.516555131040494"><ele>75.0</ele><time>2026-03-21T21:41:57.001Z</time></trkpt><trkpt lat="40.995495229943266" lon="9.516789699097446"><ele>75.0</ele><time>2026-03-21T21:41:58.001Z</time></trkpt><trkpt lat="40.9955740153527" lon="9.517036338438453"><ele>75.0</ele><time>2026-03-21T21:41:59.001Z</time></trkpt><trkpt lat="40.99565164134433" lon="9.51727979050836"><ele>75.0</ele><time>2026-03-21T21:42:00.001Z</time></trkpt><trkpt lat="40.99572786201343" lon="9.517524978087536"><ele>76.0</ele><time>2026-03-21T21:42:01.001Z</time></trkpt><trkpt lat="40.99580001278789" lon="9.51777669771117"><ele>77.0</ele><time>2026-03-21T21:42:02.001Z</time></trkpt><trkpt lat="40.9958717990207" lon="9.518037869853952"><ele>78.0</ele><time>2026-03-21T21:42:03.001Z</time></trkpt><trkpt lat="40.995944799722075" lon="9.518296878342886"><ele>79.0</ele><time>2026-03-21T21:42:04.001Z</time></trkpt><trkpt lat="40.99601003727365" lon="9.51856258621765"><ele>80.0</ele><time>2026-03-21T21:42:05.001Z</time></trkpt><trkpt lat="40.99606994740621" lon="9.518833556895638"><ele>81.0</ele><time>2026-03-21T21:42:06.001Z</time></trkpt><trkpt lat="40.99613264643344" lon="9.519104721600606"><ele>81.0</ele><time>2026-03-21T21:42:07.001Z</time></trkpt><trkpt lat="40.99619413242706" lon="9.51936751913204"><ele>81.0</ele><time>2026-03-21T21:42:08.001Z</time></trkpt><trkpt lat="40.99624351368678" lon="9.519629361275568"><ele>81.0</ele><time>2026-03-21T21:42:09.001Z</time></trkpt><trkpt lat="40.9963044962515" lon="9.519890816963716"><ele>80.0</ele><time>2026-03-21T21:42:10.001Z</time></trkpt><trkpt lat="40.99636418334397" lon="9.520146601893469"><ele>79.0</ele><time>2026-03-21T21:42:11.001Z</time></trkpt><trkpt lat="40.99642475738872" lon="9.520406187887161"><ele>78.0</ele><time>2026-03-21T21:42:12.001Z</time></trkpt><trkpt lat="40.99648446074451" lon="9.520663141297675"><ele>78.0</ele><time>2026-03-21T21:42:13.001Z</time></trkpt><trkpt lat="40.9965431495845" lon="9.520915614042233"><ele>78.0</ele><time>2026-03-21T21:42:14.001Z</time></trkpt><trkpt lat="40.99660050304217" lon="9.521162342140913"><ele>78.0</ele><time>2026-03-21T21:42:15.001Z</time></trkpt><trkpt lat="40.99665891173237" lon="9.52141512190335"><ele>77.0</ele><time>2026-03-21T21:42:16.001Z</time></trkpt><trkpt lat="40.99671492023125" lon="9.521664009667328"><ele>76.0</ele><time>2026-03-21T21:42:17.001Z</time></trkpt><trkpt lat="40.99677238316293" lon="9.521912075320179"><ele>75.0</ele><time>2026-03-21T21:42:18.001Z</time></trkpt><trkpt lat="40.996834900017426" lon="9.522155736458997"><ele>75.0</ele><time>2026-03-21T21:42:19.001Z</time></trkpt><trkpt lat="40.996902337063645" lon="9.522393975287526"><ele>75.0</ele><time>2026-03-21T21:42:20.001Z</time></trkpt><trkpt lat="40.996985710928996" lon="9.52263166932012"><ele>75.0</ele><time>2026-03-21T21:42:21.001Z</time></trkpt><trkpt lat="40.99707226123693" lon="9.522860867937418"><ele>74.0</ele><time>2026-03-21T21:42:22.001Z</time></trkpt><trkpt lat="40.99716638759062" lon="9.52309067424459"><ele>73.0</ele><time>2026-03-21T21:42:23.001Z</time></trkpt><trkpt lat="40.997260038418446" lon="9.523326001203234"><ele>72.0</ele><time>2026-03-21T21:42:24.001Z</time></trkpt><trkpt lat="40.99735123117252" lon="9.523555531165005"><ele>71.33333333333333</ele><time>2026-03-21T21:42:25.001Z</time></trkpt><trkpt lat="40.997444884982535" lon="9.523791256193118"><ele>70.66666666666666</ele><time>2026-03-21T21:42:26.001Z</time></trkpt><trkpt lat="40.99754295005423" lon="9.524013690085843"><ele>70.0</ele><time>2026-03-21T21:42:27.001Z</time></trkpt><trkpt lat="40.9976372457089" lon="9.524245716518656"><ele>70.0</ele><time>2026-03-21T21:42:28.001Z</time></trkpt><trkpt lat="40.997731476968404" lon="9.524482212017459"><ele>70.0</ele><time>2026-03-21T21:42:29.001Z</time></trkpt><trkpt lat="40.99782357841338" lon="9.524713233912882"><ele>70.0</ele><time>2026-03-21T21:42:30.001Z</time></trkpt><trkpt lat="40.997918714215466" lon="9.524953956961228"><ele>67.66666666666666</ele><time>2026-03-21T21:42:31.001Z</time></trkpt><trkpt lat="40.9980081648033" lon="9.525203298352663"><ele>65.33333333333333</ele><time>2026-03-21T21:42:32.001Z</time></trkpt><trkpt lat="40.998103101466306" lon="9.525443436251432"><ele>63.0</ele><time>2026-03-21T21:42:33.001Z</time></trkpt><trkpt lat="40.99819562915201" lon="9.525677480789263"><ele>62.66666666666667</ele><time>2026-03-21T21:42:34.001Z</time></trkpt><trkpt lat="40.99830511228128" lon="9.52591558773883"><ele>62.333333333333336</ele><time>2026-03-21T21:42:35.001Z</time></trkpt><trkpt lat="40.99837779532382" lon="9.526177270649587"><ele>62.0</ele><time>2026-03-21T21:42:36.001Z</time></trkpt><trkpt lat="40.998446427534894" lon="9.526428761317579"><ele>61.0</ele><time>2026-03-21T21:42:37.001Z</time></trkpt><trkpt lat="40.99850369291314" lon="9.526694626572255"><ele>60.0</ele><time>2026-03-21T21:42:38.001Z</time></trkpt><trkpt lat="40.998552017344075" lon="9.526956437041163"><ele>59.0</ele><time>2026-03-21T21:42:39.001Z</time></trkpt><trkpt lat="40.99859901501382" lon="9.5272288213766"><ele>56.333333333333336</ele><time>2026-03-21T21:42:40.001Z</time></trkpt><trkpt lat="40.99865319815286" lon="9.527503710911489"><ele>53.66666666666667</ele><time>2026-03-21T21:42:41.001Z</time></trkpt><trkpt lat="40.99869161991371" lon="9.527774950894282"><ele>51.0</ele><time>2026-03-21T21:42:42.002Z</time></trkpt><trkpt lat="40.99873604453665" lon="9.528046250676207"><ele>50.33333333333333</ele><time>2026-03-21T21:42:43.002Z</time></trkpt><trkpt lat="40.998774590035325" lon="9.528326003509612"><ele>49.666666666666664</ele><time>2026-03-21T21:42:44.002Z</time></trkpt><trkpt lat="40.998821389935735" lon="9.528600779932566"><ele>49.0</ele><time>2026-03-21T21:42:45.002Z</time></trkpt><trkpt lat="40.99886827778512" lon="9.528872392883123"><ele>49.0</ele><time>2026-03-21T21:42:46.002Z</time></trkpt><trkpt lat="40.99891800151646" lon="9.529137191535293"><ele>49.0</ele><time>2026-03-21T21:42:47.002Z</time></trkpt><trkpt lat="40.99896884760088" lon="9.529386806449631"><ele>49.0</ele><time>2026-03-21T21:42:48.002Z</time></trkpt><trkpt lat="40.99901277271877" lon="9.529649895932787"><ele>48.666666666666664</ele><time>2026-03-21T21:42:49.002Z</time></trkpt><trkpt lat="40.999064325205595" lon="9.529901492130033"><ele>48.33333333333333</ele><time>2026-03-21T21:42:50.002Z</time></trkpt><trkpt lat="40.99910844870195" lon="9.53014496007893"><ele>48.0</ele><time>2026-03-21T21:42:51.002Z</time></trkpt><trkpt lat="40.99914088800855" lon="9.530385900514663"><ele>48.0</ele><time>2026-03-21T21:42:52.002Z</time></trkpt><trkpt lat="40.99916494149087" lon="9.530634951472452"><ele>48.0</ele><time>2026-03-21T21:42:53.002Z</time></trkpt><trkpt lat="40.99917907147065" lon="9.530870079838074"><ele>48.0</ele><time>2026-03-21T21:42:54.002Z</time></trkpt><trkpt lat="40.999163512806774" lon="9.531110834076749"><ele>49.0</ele><time>2026-03-21T21:42:55.002Z</time></trkpt><trkpt lat="40.99914754264043" lon="9.53133943533289"><ele>50.0</ele><time>2026-03-21T21:42:56Z</time></trkpt><trkpt lat="40.9991136643131" lon="9.53156238636859"><ele>51.0</ele><time>2026-03-21T21:42:57Z</time></trkpt><trkpt lat="40.999067416033355" lon="9.531779368800004"><ele>51.0</ele><time>2026-03-21T21:42:58Z</time></trkpt><trkpt lat="40.99902496494573" lon="9.531967067937833"><ele>51.0</ele><time>2026-03-21T21:42:59Z</time></trkpt><trkpt lat="40.99898821001676" lon="9.532130952719635"><ele>51.0</ele><time>2026-03-21T21:43:00Z</time></trkpt><trkpt lat="40.99892512047831" lon="9.532234921139688"><ele>51.0</ele><time>2026-03-21T21:43:01Z</time></trkpt><trkpt lat="40.99885454267113" lon="9.532354727003977"><ele>51.199999999999996</ele><time>2026-03-21T21:43:02Z</time></trkpt><trkpt lat="40.998776657846946" lon="9.532393753394906"><ele>51.4</ele><time>2026-03-21T21:43:03Z</time></trkpt><trkpt lat="40.998758319428404" lon="9.532498135620358"><ele>51.6</ele><time>2026-03-21T21:43:04Z</time></trkpt><trkpt lat="40.998800194049025" lon="9.532642637888154"><ele>51.8</ele><time>2026-03-21T21:43:06Z</time></trkpt><trkpt lat="40.99886358404641" lon="9.532686561417055"><ele>52.0</ele><time>2026-03-21T21:43:07Z</time></trkpt><trkpt lat="40.99901373314218" lon="9.53261975314642"><ele>51.6</ele><time>2026-03-21T21:43:09Z</time></trkpt><trkpt lat="40.99916817609671" lon="9.532583969834707"><ele>51.2</ele><time>2026-03-21T21:43:11Z</time></trkpt><trkpt lat="40.999266973454866" lon="9.53260853577708"><ele>50.8</ele><time>2026-03-21T21:43:12Z</time></trkpt><trkpt lat="40.99935571819734" lon="9.53262690094519"><ele>50.4</ele><time>2026-03-21T21:43:13Z</time></trkpt><trkpt lat="40.99945375890934" lon="9.532650373055647"><ele>50.0</ele><time>2026-03-21T21:43:14Z</time></trkpt><trkpt lat="40.9995671621036" lon="9.532699177329258"><ele>50.0</ele><time>2026-03-21T21:43:15Z</time></trkpt><trkpt lat="40.99966688004237" lon="9.532705024945816"><ele>50.0</ele><time>2026-03-21T21:43:16Z</time></trkpt><trkpt lat="40.99978920588936" lon="9.532735979174104"><ele>50.0</ele><time>2026-03-21T21:43:17Z</time></trkpt><trkpt lat="40.999884243347715" lon="9.532782477752335"><ele>50.0</ele><time>2026-03-21T21:43:18Z</time></trkpt><trkpt lat="41.000031727845034" lon="9.532817618986478"><ele>50.0</ele><time>2026-03-21T21:43:19Z</time></trkpt><trkpt lat="41.00017835634523" lon="9.532847945511318"><ele>50.0</ele><time>2026-03-21T21:43:20Z</time></trkpt><trkpt lat="41.00031178579502" lon="9.53287934535131"><ele>50.0</ele><time>2026-03-21T21:43:21Z</time></trkpt><trkpt lat="41.000466391561396" lon="9.532912887109378"><ele>50.0</ele><time>2026-03-21T21:43:22Z</time></trkpt><trkpt lat="41.000612621733076" lon="9.532952804627731"><ele>50.0</ele><time>2026-03-21T21:43:23Z</time></trkpt><trkpt lat="41.00076391852607" lon="9.532990124050194"><ele>50.0</ele><time>2026-03-21T21:43:24Z</time></trkpt><trkpt lat="41.000907605715135" lon="9.53304057456946"><ele>50.0</ele><time>2026-03-21T21:43:25Z</time></trkpt><trkpt lat="41.001070122241" lon="9.53309753886705"><ele>49.0</ele><time>2026-03-21T21:43:26Z</time></trkpt><trkpt lat="41.00122748445267" lon="9.53315982329909"><ele>48.0</ele><time>2026-03-21T21:43:27Z</time></trkpt><trkpt lat="41.001387229974775" lon="9.533224762167624"><ele>47.0</ele><time>2026-03-21T21:43:28Z</time></trkpt><trkpt lat="41.00155103131325" lon="9.533295783388883"><ele>47.666666666666664</ele><time>2026-03-21T21:43:29Z</time></trkpt><trkpt lat="41.00171021625842" lon="9.533373381511607"><ele>48.33333333333333</ele><time>2026-03-21T21:43:30Z</time></trkpt><trkpt lat="41.00185157329733" lon="9.533446874989613"><ele>49.0</ele><time>2026-03-21T21:43:31Z</time></trkpt><trkpt lat="41.00201602069134" lon="9.533517753372074"><ele>49.0</ele><time>2026-03-21T21:43:32Z</time></trkpt><trkpt lat="41.00218429117989" lon="9.533538759734622"><ele>49.0</ele><time>2026-03-21T21:43:33Z</time></trkpt><trkpt lat="41.0023631917179" lon="9.53352755243456"><ele>49.0</ele><time>2026-03-21T21:43:34Z</time></trkpt><trkpt lat="41.00254374276245" lon="9.533492275117068"><ele>48.666666666666664</ele><time>2026-03-21T21:43:35Z</time></trkpt><trkpt lat="41.00271638788612" lon="9.533451600892292"><ele>48.33333333333333</ele><time>2026-03-21T21:43:36Z</time></trkpt><trkpt lat="41.002892561648224" lon="9.533415377503434"><ele>48.0</ele><time>2026-03-21T21:43:37Z</time></trkpt><trkpt lat="41.003104758273366" lon="9.53338192814583"><ele>48.0</ele><time>2026-03-21T21:43:38Z</time></trkpt><trkpt lat="41.003308746667976" lon="9.53331118600727"><ele>48.0</ele><time>2026-03-21T21:43:39Z</time></trkpt><trkpt lat="41.00349155253553" lon="9.533209861075258"><ele>48.0</ele><time>2026-03-21T21:43:40Z</time></trkpt><trkpt lat="41.00364931014817" lon="9.533063424752346"><ele>47.666666666666664</ele><time>2026-03-21T21:43:41Z</time></trkpt><trkpt lat="41.003801963634686" lon="9.532912410395188"><ele>47.33333333333333</ele><time>2026-03-21T21:43:42Z</time></trkpt><trkpt lat="41.00396438021831" lon="9.532772737643908"><ele>47.0</ele><time>2026-03-21T21:43:43.001Z</time></trkpt><trkpt lat="41.004139840151616" lon="9.53267444641226"><ele>47.666666666666664</ele><time>2026-03-21T21:43:44.001Z</time></trkpt><trkpt lat="41.00431742624997" lon="9.532550391407298"><ele>48.33333333333333</ele><time>2026-03-21T21:43:45.001Z</time></trkpt><trkpt lat="41.004501470503676" lon="9.532442465139265"><ele>49.0</ele><time>2026-03-21T21:43:46.001Z</time></trkpt><trkpt lat="41.00468764492173" lon="9.532342351574512"><ele>49.0</ele><time>2026-03-21T21:43:47.001Z</time></trkpt><trkpt lat="41.004867247402714" lon="9.532240513802577"><ele>49.0</ele><time>2026-03-21T21:43:48.001Z</time></trkpt><trkpt lat="41.005062154960896" lon="9.53218568837314"><ele>49.0</ele><time>2026-03-21T21:43:49.001Z</time></trkpt><trkpt lat="41.00526064312621" lon="9.532127332025437"><ele>50.0</ele><time>2026-03-21T21:43:50.001Z</time></trkpt><trkpt lat="41.00545274571318" lon="9.532076176372039"><ele>51.0</ele><time>2026-03-21T21:43:51.001Z</time></trkpt><trkpt lat="41.00565429678721" lon="9.532023486037541"><ele>52.0</ele><time>2026-03-21T21:43:52.001Z</time></trkpt><trkpt lat="41.0058455556263" lon="9.531954693753274"><ele>49.33333333333333</ele><time>2026-03-21T21:43:53.001Z</time></trkpt><trkpt lat="41.00604211312142" lon="9.53190666850385"><ele>46.666666666666664</ele><time>2026-03-21T21:43:54.001Z</time></trkpt><trkpt lat="41.00624182630468" lon="9.531848597548853"><ele>44.0</ele><time>2026-03-21T21:43:55.001Z</time></trkpt><trkpt lat="41.00642553114889" lon="9.53180017463318"><ele>44.0</ele><time>2026-03-21T21:43:56.001Z</time></trkpt><trkpt lat="41.00662068974402" lon="9.53169119384798"><ele>44.0</ele><time>2026-03-21T21:43:57.001Z</time></trkpt><trkpt lat="41.006805860473655" lon="9.531572539470407"><ele>44.0</ele><time>2026-03-21T21:43:58.001Z</time></trkpt><trkpt lat="41.006998593770675" lon="9.531448060911677"><ele>43.666666666666664</ele><time>2026-03-21T21:43:59.001Z</time></trkpt><trkpt lat="41.00718592268384" lon="9.531334377633462"><ele>43.333333333333336</ele><time>2026-03-21T21:44:00.001Z</time></trkpt><trkpt lat="41.00737806300177" lon="9.531250907328554"><ele>43.0</ele><time>2026-03-21T21:44:01.001Z</time></trkpt><trkpt lat="41.007589700022585" lon="9.531204078722917"><ele>38.0</ele><time>2026-03-21T21:44:02.001Z</time></trkpt><trkpt lat="41.007827267652786" lon="9.531170383382502"><ele>33.0</ele><time>2026-03-21T21:44:03.001Z</time></trkpt><trkpt lat="41.008040358836624" lon="9.531149897494446"><ele>33.0</ele><time>2026-03-21T21:44:04.001Z</time></trkpt><trkpt lat="41.008288181887444" lon="9.531130497296434"><ele>33.0</ele><time>2026-03-21T21:44:05.001Z</time></trkpt><trkpt lat="41.00850882211752" lon="9.531111796830496"><ele>32.333333333333336</ele><time>2026-03-21T21:44:06.001Z</time></trkpt><trkpt lat="41.00873982286627" lon="9.531099261776726"><ele>31.666666666666668</ele><time>2026-03-21T21:44:07.001Z</time></trkpt><trkpt lat="41.00895241905368" lon="9.53110225318711"><ele>31.0</ele><time>2026-03-21T21:44:08.001Z</time></trkpt><trkpt lat="41.00916967862303" lon="9.531120904188164"><ele>32.66666666666667</ele><time>2026-03-21T21:44:09.001Z</time></trkpt><trkpt lat="41.0093733434473" lon="9.531145442617905"><ele>34.333333333333336</ele><time>2026-03-21T21:44:10.001Z</time></trkpt><trkpt lat="41.00958362095304" lon="9.53115868802261"><ele>36.0</ele><time>2026-03-21T21:44:11.001Z</time></trkpt><trkpt lat="41.00976474575534" lon="9.53126153088997"><ele>37.0</ele><time>2026-03-21T21:44:12.001Z</time></trkpt><trkpt lat="41.00994492046464" lon="9.531397339007972"><ele>38.0</ele><time>2026-03-21T21:44:13.001Z</time></trkpt><trkpt lat="41.010102445453924" lon="9.531558657218538"><ele>39.0</ele><time>2026-03-21T21:44:14.001Z</time></trkpt><trkpt lat="41.01022157280002" lon="9.531792870240732"><ele>40.333333333333336</ele><time>2026-03-21T21:44:15.001Z</time></trkpt><trkpt lat="41.01037465117692" lon="9.531966086755833"><ele>41.66666666666667</ele><time>2026-03-21T21:44:16.001Z</time></trkpt><trkpt lat="41.01052831729078" lon="9.532166547759937"><ele>43.0</ele><time>2026-03-21T21:44:17.001Z</time></trkpt><trkpt lat="41.010655488696486" lon="9.532369947221953"><ele>43.0</ele><time>2026-03-21T21:44:18.001Z</time></trkpt><trkpt lat="41.01078237860676" lon="9.532589359445911"><ele>43.0</ele><time>2026-03-21T21:44:19.001Z</time></trkpt><trkpt lat="41.010913385548534" lon="9.53281428802336"><ele>43.0</ele><time>2026-03-21T21:44:20.001Z</time></trkpt><trkpt lat="41.01104287673571" lon="9.53303098570787"><ele>45.0</ele><time>2026-03-21T21:44:21.001Z</time></trkpt><trkpt lat="41.01117073021169" lon="9.53324153540056"><ele>47.0</ele><time>2026-03-21T21:44:22.001Z</time></trkpt><trkpt lat="41.011301449054294" lon="9.533449219090253"><ele>49.0</ele><time>2026-03-21T21:44:23.001Z</time></trkpt><trkpt lat="41.01143786518919" lon="9.53366058153183"><ele>49.0</ele><time>2026-03-21T21:44:24.001Z</time></trkpt><trkpt lat="41.01156591662538" lon="9.53384869881584"><ele>49.0</ele><time>2026-03-21T21:44:25.001Z</time></trkpt><trkpt lat="41.01169721958767" lon="9.534055084146017"><ele>49.0</ele><time>2026-03-21T21:44:26.001Z</time></trkpt><trkpt lat="41.01183649523591" lon="9.534262686754992"><ele>49.0</ele><time>2026-03-21T21:44:27.001Z</time></trkpt><trkpt lat="41.01198652753614" lon="9.534474082975011"><ele>49.0</ele><time>2026-03-21T21:44:28.001Z</time></trkpt><trkpt lat="41.01212872280262" lon="9.534681615779698"><ele>49.0</ele><time>2026-03-21T21:44:29.001Z</time></trkpt><trkpt lat="41.01227190319402" lon="9.534883629268915"><ele>48.0</ele><time>2026-03-21T21:44:30.001Z</time></trkpt><trkpt lat="41.01244545835222" lon="9.535101222010754"><ele>47.0</ele><time>2026-03-21T21:44:31.001Z</time></trkpt><trkpt lat="41.0125991707177" lon="9.535314204494265"><ele>49.0</ele><time>2026-03-21T21:44:32.001Z</time></trkpt><trkpt lat="41.01277831840479" lon="9.535549269487449"><ele>51.0</ele><time>2026-03-21T21:44:33.001Z</time></trkpt><trkpt lat="41.012949093648906" lon="9.53576397582684"><ele>51.0</ele><time>2026-03-21T21:44:34.001Z</time></trkpt><trkpt lat="41.0131223856967" lon="9.535977176366309"><ele>51.0</ele><time>2026-03-21T21:44:35.001Z</time></trkpt><trkpt lat="41.013297442352986" lon="9.536181038702605"><ele>50.33333333333333</ele><time>2026-03-21T21:44:36.001Z</time></trkpt><trkpt lat="41.013476589913374" lon="9.536360678031523"><ele>49.666666666666664</ele><time>2026-03-21T21:44:37.001Z</time></trkpt><trkpt lat="41.013657241367504" lon="9.53650805075138"><ele>49.0</ele><time>2026-03-21T21:44:38.001Z</time></trkpt><trkpt lat="41.0138519275626" lon="9.53662442744894"><ele>49.0</ele><time>2026-03-21T21:44:39.001Z</time></trkpt><trkpt lat="41.014047677439024" lon="9.536723991764354"><ele>49.0</ele><time>2026-03-21T21:44:40.001Z</time></trkpt><trkpt lat="41.014236510828454" lon="9.536794352331555"><ele>49.0</ele><time>2026-03-21T21:44:41.001Z</time></trkpt><trkpt lat="41.014416398966986" lon="9.536875908569678"><ele>49.33333333333333</ele><time>2026-03-21T21:44:42.001Z</time></trkpt><trkpt lat="41.01460130610409" lon="9.536990864797595"><ele>49.66666666666667</ele><time>2026-03-21T21:44:43.001Z</time></trkpt><trkpt lat="41.014761549781596" lon="9.537145185253538"><ele>50.0</ele><time>2026-03-21T21:44:44.002Z</time></trkpt><trkpt lat="41.01492675663816" lon="9.537302403966367"><ele>48.0</ele><time>2026-03-21T21:44:45.002Z</time></trkpt><trkpt lat="41.01507557641855" lon="9.537472985228048"><ele>46.0</ele><time>2026-03-21T21:44:46.002Z</time></trkpt><trkpt lat="41.01524189102259" lon="9.537645299651627"><ele>44.0</ele><time>2026-03-21T21:44:47.002Z</time></trkpt><trkpt lat="41.01536968424291" lon="9.537853129927246"><ele>44.666666666666664</ele><time>2026-03-21T21:44:48.002Z</time></trkpt><trkpt lat="41.01549493960211" lon="9.538062336677145"><ele>45.333333333333336</ele><time>2026-03-21T21:44:49.002Z</time></trkpt><trkpt lat="41.01562299559364" lon="9.53827227633392"><ele>46.0</ele><time>2026-03-21T21:44:50.002Z</time></trkpt><trkpt lat="41.015756258891344" lon="9.53849088435848"><ele>43.333333333333336</ele><time>2026-03-21T21:44:51.002Z</time></trkpt><trkpt lat="41.015895006736464" lon="9.538704717397309"><ele>40.666666666666664</ele><time>2026-03-21T21:44:52.002Z</time></trkpt><trkpt lat="41.016048467847625" lon="9.538899607215141"><ele>38.0</ele><time>2026-03-21T21:44:53.002Z</time></trkpt><trkpt lat="41.01621395358988" lon="9.53906057314722"><ele>38.0</ele><time>2026-03-21T21:44:54.002Z</time></trkpt><trkpt lat="41.016388292477714" lon="9.539192424032125"><ele>38.0</ele><time>2026-03-21T21:44:55.002Z</time></trkpt><trkpt lat="41.01656117104312" lon="9.539301184578406"><ele>38.0</ele><time>2026-03-21T21:44:56.002Z</time></trkpt><trkpt lat="41.01672916069985" lon="9.539393448483299"><ele>37.33333333333333</ele><time>2026-03-21T21:44:57.002Z</time></trkpt><trkpt lat="41.016900156508854" lon="9.539461101303454"><ele>36.666666666666664</ele><time>2026-03-21T21:44:58.002Z</time></trkpt><trkpt lat="41.01705596201179" lon="9.539549255741125"><ele>36.0</ele><time>2026-03-21T21:44:59.002Z</time></trkpt><trkpt lat="41.01722655286683" lon="9.539618056072724"><ele>37.0</ele><time>2026-03-21T21:45:00.002Z</time></trkpt><trkpt lat="41.01739792201815" lon="9.53972994502063"><ele>38.0</ele><time>2026-03-21T21:45:01.002Z</time></trkpt><trkpt lat="41.01752042141935" lon="9.539878527240473"><ele>39.0</ele><time>2026-03-21T21:45:02Z</time></trkpt><trkpt lat="41.01763256457544" lon="9.540047495938259"><ele>39.0</ele><time>2026-03-21T21:45:03Z</time></trkpt><trkpt lat="41.01774744212025" lon="9.540191419090858"><ele>39.0</ele><time>2026-03-21T21:45:04Z</time></trkpt><trkpt lat="41.01787560228265" lon="9.540312546187588"><ele>39.0</ele><time>2026-03-21T21:45:05Z</time></trkpt><trkpt lat="41.01801219288801" lon="9.540415945819086"><ele>39.666666666666664</ele><time>2026-03-21T21:45:06Z</time></trkpt><trkpt lat="41.01814876062659" lon="9.540511743957737"><ele>40.33333333333333</ele><time>2026-03-21T21:45:07Z</time></trkpt><trkpt lat="41.01827397141723" lon="9.540623124751933"><ele>41.0</ele><time>2026-03-21T21:45:08Z</time></trkpt><trkpt lat="41.018395650224164" lon="9.540747408096925"><ele>41.0</ele><time>2026-03-21T21:45:09Z</time></trkpt><trkpt lat="41.01847782683295" lon="9.540866997998865"><ele>41.0</ele><time>2026-03-21T21:45:10Z</time></trkpt><trkpt lat="41.018572933682115" lon="9.540996653492085"><ele>41.0</ele><time>2026-03-21T21:45:11Z</time></trkpt><trkpt lat="41.01865684250078" lon="9.541139464593508"><ele>41.0</ele><time>2026-03-21T21:45:12Z</time></trkpt><trkpt lat="41.0187422149781" lon="9.541282089673388"><ele>42.5</ele><time>2026-03-21T21:45:13Z</time></trkpt><trkpt lat="41.01883096244305" lon="9.541422487346859"><ele>44.0</ele><time>2026-03-21T21:45:14Z</time></trkpt><trkpt lat="41.01891102521369" lon="9.541562902843525"><ele>45.5</ele><time>2026-03-21T21:45:15Z</time></trkpt><trkpt lat="41.01899859053768" lon="9.541699097629555"><ele>47.0</ele><time>2026-03-21T21:45:16Z</time></trkpt><trkpt lat="41.01908859110173" lon="9.541824935971455"><ele>45.25</ele><time>2026-03-21T21:45:17Z</time></trkpt><trkpt lat="41.019183576742655" lon="9.541945903353835"><ele>43.5</ele><time>2026-03-21T21:45:18Z</time></trkpt><trkpt lat="41.019276406468684" lon="9.542058578727385"><ele>41.75</ele><time>2026-03-21T21:45:19Z</time></trkpt><trkpt lat="41.01937682230742" lon="9.542174768177677"><ele>40.0</ele><time>2026-03-21T21:45:20Z</time></trkpt><trkpt lat="41.019480981669254" lon="9.542283248096878"><ele>40.0</ele><time>2026-03-21T21:45:21Z</time></trkpt><trkpt lat="41.01959652003096" lon="9.542386184477015"><ele>40.0</ele><time>2026-03-21T21:45:22Z</time></trkpt><trkpt lat="41.01970788961173" lon="9.54246571224925"><ele>40.0</ele><time>2026-03-21T21:45:23Z</time></trkpt><trkpt lat="41.019844962132034" lon="9.542532904133783"><ele>40.0</ele><time>2026-03-21T21:45:24Z</time></trkpt><trkpt lat="41.01999191908036" lon="9.542576824950272"><ele>38.75</ele><time>2026-03-21T21:45:25Z</time></trkpt><trkpt lat="41.020130506485096" lon="9.542608209205742"><ele>37.5</ele><time>2026-03-21T21:45:26Z</time></trkpt><trkpt lat="41.02027045585111" lon="9.542633557496151"><ele>36.25</ele><time>2026-03-21T21:45:27Z</time></trkpt><trkpt lat="41.020423705117224" lon="9.542640581480164"><ele>35.0</ele><time>2026-03-21T21:45:28Z</time></trkpt><trkpt lat="41.02057561154662" lon="9.542632647819797"><ele>35.0</ele><time>2026-03-21T21:45:29Z</time></trkpt><trkpt lat="41.02073681857469" lon="9.542610721091785"><ele>35.0</ele><time>2026-03-21T21:45:30Z</time></trkpt><trkpt lat="41.02089305806045" lon="9.542594943456965"><ele>35.0</ele><time>2026-03-21T21:45:31Z</time></trkpt><trkpt lat="41.02105790319115" lon="9.54258312005929"><ele>34.0</ele><time>2026-03-21T21:45:32Z</time></trkpt><trkpt lat="41.0212131763924" lon="9.542568282414095"><ele>33.0</ele><time>2026-03-21T21:45:33Z</time></trkpt><trkpt lat="41.02136922990896" lon="9.542548514812271"><ele>32.0</ele><time>2026-03-21T21:45:34Z</time></trkpt><trkpt lat="41.02152222895123" lon="9.542526572319508"><ele>31.0</ele><time>2026-03-21T21:45:35Z</time></trkpt><trkpt lat="41.02165660496094" lon="9.542496763639388"><ele>30.0</ele><time>2026-03-21T21:45:36Z</time></trkpt><trkpt lat="41.02179139234013" lon="9.542457797968003"><ele>29.0</ele><time>2026-03-21T21:45:37Z</time></trkpt><trkpt lat="41.02190128297942" lon="9.542474624493442"><ele>28.0</ele><time>2026-03-21T21:45:38Z</time></trkpt><trkpt lat="41.02200048277711" lon="9.542460215585258"><ele>28.000000000000004</ele><time>2026-03-21T21:45:39Z</time></trkpt><trkpt lat="41.02208430908105" lon="9.542448039698328"><ele>28.0</ele><time>2026-03-21T21:45:40Z</time></trkpt><trkpt lat="41.02218830828769" lon="9.542439958820998"><ele>28.0</ele><time>2026-03-21T21:45:42Z</time></trkpt><trkpt lat="41.02228940722854" lon="9.542425773813935"><ele>28.0</ele><time>2026-03-21T21:45:45Z</time></trkpt><trkpt lat="41.0223692593737" lon="9.542416390959508"><ele>28.000000000000004</ele><time>2026-03-21T21:45:47Z</time></trkpt><trkpt lat="41.02244406163707" lon="9.54239971887807"><ele>28.0</ele><time>2026-03-21T21:45:49.001Z</time></trkpt><trkpt lat="41.02250916054804" lon="9.542394951189712"><ele>26.833333333333336</ele><time>2026-03-21T21:45:50.001Z</time></trkpt><trkpt lat="41.022580974604395" lon="9.54239335098262"><ele>25.666666666666668</ele><time>2026-03-21T21:45:51.001Z</time></trkpt><trkpt lat="41.02265594053226" lon="9.542390669684298"><ele>24.5</ele><time>2026-03-21T21:45:52.001Z</time></trkpt><trkpt lat="41.022737763772064" lon="9.542389632874164"><ele>23.333333333333336</ele><time>2026-03-21T21:45:53.001Z</time></trkpt><trkpt lat="41.02281944867287" lon="9.542391376369922"><ele>22.166666666666668</ele><time>2026-03-21T21:45:54.001Z</time></trkpt><trkpt lat="41.022903835638544" lon="9.542400880387367"><ele>21.0</ele><time>2026-03-21T21:45:55.001Z</time></trkpt><trkpt lat="41.022995828478315" lon="9.542410497397675"><ele>21.0</ele><time>2026-03-21T21:45:56.001Z</time></trkpt><trkpt lat="41.0230976613037" lon="9.542423712368123"><ele>21.0</ele><time>2026-03-21T21:45:57.001Z</time></trkpt><trkpt lat="41.023199491573976" lon="9.542441861512815"><ele>21.0</ele><time>2026-03-21T21:45:58.001Z</time></trkpt><trkpt lat="41.02330435120397" lon="9.54245994632616"><ele>21.0</ele><time>2026-03-21T21:45:59.001Z</time></trkpt><trkpt lat="41.0234106485001" lon="9.542482611068644"><ele>21.0</ele><time>2026-03-21T21:46:00.001Z</time></trkpt><trkpt lat="41.02352321325982" lon="9.54251200153322"><ele>20.0</ele><time>2026-03-21T21:46:01.001Z</time></trkpt><trkpt lat="41.02363109555958" lon="9.542542201934065"><ele>19.0</ele><time>2026-03-21T21:46:02.001Z</time></trkpt><trkpt lat="41.02374174766429" lon="9.542580744266042"><ele>18.0</ele><time>2026-03-21T21:46:03.001Z</time></trkpt><trkpt lat="41.0238507154845" lon="9.542638785456756"><ele>17.0</ele><time>2026-03-21T21:46:04.001Z</time></trkpt><trkpt lat="41.02395369121617" lon="9.542721576630615"><ele>17.0</ele><time>2026-03-21T21:46:05.001Z</time></trkpt><trkpt lat="41.02403638538826" lon="9.542818722198875"><ele>17.0</ele><time>2026-03-21T21:46:06.001Z</time></trkpt><trkpt lat="41.02410443839193" lon="9.542975869311144"><ele>17.0</ele><time>2026-03-21T21:46:07.001Z</time></trkpt><trkpt lat="41.0241355208462" lon="9.543150371253256"><ele>17.0</ele><time>2026-03-21T21:46:08.001Z</time></trkpt><trkpt lat="41.02416586564868" lon="9.543319076002264"><ele>16.75</ele><time>2026-03-21T21:46:09.001Z</time></trkpt><trkpt lat="41.02410929123323" lon="9.54352094002264"><ele>16.5</ele><time>2026-03-21T21:46:10.001Z</time></trkpt><trkpt lat="41.02411085142786" lon="9.543692672427765"><ele>16.25</ele><time>2026-03-21T21:46:11.001Z</time></trkpt><trkpt lat="41.02408503945025" lon="9.543878299426995"><ele>16.0</ele><time>2026-03-21T21:46:12.001Z</time></trkpt><trkpt lat="41.02404887192116" lon="9.544041543630799"><ele>16.0</ele><time>2026-03-21T21:46:13.001Z</time></trkpt><trkpt lat="41.0240276286391" lon="9.544187377489012"><ele>16.0</ele><time>2026-03-21T21:46:14.001Z</time></trkpt><trkpt lat="41.02400521604686" lon="9.544338540356877"><ele>16.0</ele><time>2026-03-21T21:46:15.001Z</time></trkpt><trkpt lat="41.02395041132554" lon="9.544482971368925"><ele>16.0</ele><time>2026-03-21T21:46:16.001Z</time></trkpt><trkpt lat="41.023842807881714" lon="9.544590434152278"><ele>18.0</ele><time>2026-03-21T21:46:17.001Z</time></trkpt><trkpt lat="41.02378509204554" lon="9.544732980765962"><ele>20.0</ele><time>2026-03-21T21:46:18.001Z</time></trkpt><trkpt lat="41.023744818462156" lon="9.544874416624179"><ele>22.0</ele><time>2026-03-21T21:46:19.001Z</time></trkpt><trkpt lat="41.023674668886564" lon="9.545025211051385"><ele>24.0</ele><time>2026-03-21T21:46:20.001Z</time></trkpt><trkpt lat="41.02362200264233" lon="9.545170916049862"><ele>24.0</ele><time>2026-03-21T21:46:21.001Z</time></trkpt><trkpt lat="41.02356815587187" lon="9.545306196728836"><ele>24.0</ele><time>2026-03-21T21:46:22.001Z</time></trkpt><trkpt lat="41.0235139369456" lon="9.545438692309913"><ele>24.0</ele><time>2026-03-21T21:46:23.001Z</time></trkpt><trkpt lat="41.02346412004066" lon="9.545573217254802"><ele>24.0</ele><time>2026-03-21T21:46:24.001Z</time></trkpt><trkpt lat="41.02343126149726" lon="9.5457223932798"><ele>24.75</ele><time>2026-03-21T21:46:25.001Z</time></trkpt><trkpt lat="41.02339616888435" lon="9.545872680024743"><ele>25.5</ele><time>2026-03-21T21:46:26.001Z</time></trkpt><trkpt lat="41.023386474231806" lon="9.54602454088024"><ele>26.25</ele><time>2026-03-21T21:46:27.001Z</time></trkpt><trkpt lat="41.02339779307666" lon="9.546182959815338"><ele>27.0</ele><time>2026-03-21T21:46:28.001Z</time></trkpt><trkpt lat="41.02343342740743" lon="9.546339852083927"><ele>27.75</ele><time>2026-03-21T21:46:29.001Z</time></trkpt><trkpt lat="41.02350920670478" lon="9.546480851841492"><ele>28.5</ele><time>2026-03-21T21:46:30.001Z</time></trkpt><trkpt lat="41.02356701358559" lon="9.546649006887035"><ele>29.25</ele><time>2026-03-21T21:46:31.001Z</time></trkpt><trkpt lat="41.02362913113731" lon="9.54680805921271"><ele>30.0</ele><time>2026-03-21T21:46:32.001Z</time></trkpt><trkpt lat="41.02368502371153" lon="9.546976386133567"><ele>31.75</ele><time>2026-03-21T21:46:33.001Z</time></trkpt><trkpt lat="41.0237071259156" lon="9.547131611844685"><ele>33.5</ele><time>2026-03-21T21:46:34.001Z</time></trkpt><trkpt lat="41.023751583184875" lon="9.547303124495631"><ele>35.25</ele><time>2026-03-21T21:46:35.001Z</time></trkpt><trkpt lat="41.023789395794644" lon="9.54748925946696"><ele>37.0</ele><time>2026-03-21T21:46:36.001Z</time></trkpt><trkpt lat="41.02381890854977" lon="9.54767867888534"><ele>37.0</ele><time>2026-03-21T21:46:37.001Z</time></trkpt><trkpt lat="41.02386650194592" lon="9.547849725268978"><ele>37.0</ele><time>2026-03-21T21:46:38.001Z</time></trkpt><trkpt lat="41.02393638264642" lon="9.547995349585376"><ele>37.0</ele><time>2026-03-21T21:46:39.001Z</time></trkpt><trkpt lat="41.024050576000334" lon="9.548124411831472"><ele>37.0</ele><time>2026-03-21T21:46:40.001Z</time></trkpt><trkpt lat="41.02414165706629" lon="9.54822434877005"><ele>38.400000000000006</ele><time>2026-03-21T21:46:41.001Z</time></trkpt><trkpt lat="41.02420284090806" lon="9.548332211790008"><ele>39.800000000000004</ele><time>2026-03-21T21:46:42.001Z</time></trkpt><trkpt lat="41.02425203545562" lon="9.548456526519205"><ele>41.2</ele><time>2026-03-21T21:46:43.001Z</time></trkpt><trkpt lat="41.024298797882174" lon="9.548584887352302"><ele>42.6</ele><time>2026-03-21T21:46:44.001Z</time></trkpt><trkpt lat="41.024311818984046" lon="9.548739556460655"><ele>44.0</ele><time>2026-03-21T21:46:45.001Z</time></trkpt><trkpt lat="41.02437722620208" lon="9.548863258524438"><ele>45.2</ele><time>2026-03-21T21:46:46.001Z</time></trkpt><trkpt lat="41.024429253040424" lon="9.548981879019511"><ele>46.400000000000006</ele><time>2026-03-21T21:46:47.002Z</time></trkpt><trkpt lat="41.024477669884746" lon="9.549098377055547"><ele>47.6</ele><time>2026-03-21T21:46:48.002Z</time></trkpt><trkpt lat="41.0245282738205" lon="9.549211043462869"><ele>48.8</ele><time>2026-03-21T21:46:49.002Z</time></trkpt><trkpt lat="41.02457913977976" lon="9.549312082040728"><ele>50.0</ele><time>2026-03-21T21:46:50.002Z</time></trkpt><trkpt lat="41.024641371782735" lon="9.54942312222328"><ele>49.6</ele><time>2026-03-21T21:46:51.002Z</time></trkpt><trkpt lat="41.02470581141268" lon="9.549542533824713"><ele>49.2</ele><time>2026-03-21T21:46:52.002Z</time></trkpt><trkpt lat="41.024774676733195" lon="9.549648947242362"><ele>48.8</ele><time>2026-03-21T21:46:53.002Z</time></trkpt><trkpt lat="41.02484547889677" lon="9.54975765971039"><ele>48.4</ele><time>2026-03-21T21:46:54.002Z</time></trkpt><trkpt lat="41.024934529068155" lon="9.549826142577954"><ele>48.0</ele><time>2026-03-21T21:46:55.002Z</time></trkpt><trkpt lat="41.02503540717312" lon="9.549819601883902"><ele>46.4</ele><time>2026-03-21T21:46:56.002Z</time></trkpt><trkpt lat="41.02513062253389" lon="9.54977681657439"><ele>44.8</ele><time>2026-03-21T21:46:57.002Z</time></trkpt><trkpt lat="41.02522785099183" lon="9.549712860336474"><ele>43.2</ele><time>2026-03-21T21:46:58.002Z</time></trkpt><trkpt lat="41.0253030066421" lon="9.549622170414878"><ele>41.6</ele><time>2026-03-21T21:46:59.002Z</time></trkpt><trkpt lat="41.025355101347834" lon="9.54949588212695"><ele>40.0</ele><time>2026-03-21T21:47:00.002Z</time></trkpt><trkpt lat="41.02540186449751" lon="9.549388006807874"><ele>40.0</ele><time>2026-03-21T21:47:01.002Z</time></trkpt><trkpt lat="41.0254541473295" lon="9.549282526778612"><ele>40.0</ele><time>2026-03-21T21:47:02.002Z</time></trkpt><trkpt lat="41.02551112236864" lon="9.549160157752027"><ele>40.0</ele><time>2026-03-21T21:47:03.002Z</time></trkpt><trkpt lat="41.0255706527991" lon="9.549047607807404"><ele>40.0</ele><time>2026-03-21T21:47:04.002Z</time></trkpt><trkpt lat="41.02560223000023" lon="9.548935569732041"><ele>40.0</ele><time>2026-03-21T21:47:05.002Z</time></trkpt><trkpt lat="41.02563292735171" lon="9.548824608172986"><ele>40.0</ele><time>2026-03-21T21:47:06.002Z</time></trkpt><trkpt lat="41.025654099008335" lon="9.548727121033036"><ele>40.0</ele><time>2026-03-21T21:47:07.002Z</time></trkpt><trkpt lat="41.02566367619082" lon="9.548623691060412"><ele>40.0</ele><time>2026-03-21T21:47:08Z</time></trkpt><trkpt lat="41.02570043648323" lon="9.548466776585263"><ele>40.0</ele><time>2026-03-21T21:47:10Z</time></trkpt><trkpt lat="41.0256898055053" lon="9.548368988678083"><ele>40.0</ele><time>2026-03-21T21:47:12Z</time></trkpt><trkpt lat="41.025741990800746" lon="9.548307037099853"><ele>40.0</ele><time>2026-03-21T21:47:49Z</time></trkpt><trkpt lat="41.02570612968029" lon="9.5483759538846"><ele>36.0</ele><time>2026-03-21T21:48:06.001Z</time></trkpt><trkpt lat="41.02588724139282" lon="9.548499693992431"><ele>22.0</ele><time>2026-03-21T21:48:50.869Z</time></trkpt></trkseg></trk></gpx>